<?xml version="1.0" encoding="UTF-8" standalone="no" ?>
<gpx xmlns="http://www.topografix.com/GPX/1/1" xmlns:xsi="http://www.w3.org/2001/XMLSchema-instance" xsi:schemaLocation="http://www.topografix.com/GPX/1/1 http://www.topografix.com/GPX/1/1/gpx.xsd" version="1.1" creator="VisuGPX - https://www.visugpx.com">
  <metadata>
    <name>Tracé 20190530-165817 nico Romu</name>
    <desc><![CDATA[Encore une belle ballade avec un peu de vent , et pas trop de voiture]]></desc>
  </metadata>
  <wpt lat="49.34833" lon="4.06609">
    <ele>155</ele>
    <name><![CDATA[Romu nico]]></name>
  </wpt>
  <trk>
    <name><![CDATA[Tracé 20190530-165817]]></name>
    <trkseg>
      <trkpt lat="49.34833" lon="4.06609">
        <ele>155</ele>
        <time>2019-05-30T14:58:17Z</time>
      </trkpt>
      <trkpt lat="49.34833" lon="4.06609">
        <ele>155</ele>
        <time>2019-05-30T14:58:18Z</time>
      </trkpt>
      <trkpt lat="49.34833" lon="4.06609">
        <ele>155</ele>
        <time>2019-05-30T14:58:19Z</time>
      </trkpt>
      <trkpt lat="49.34833" lon="4.06609">
        <ele>155</ele>
        <time>2019-05-30T14:58:20Z</time>
      </trkpt>
      <trkpt lat="49.34833" lon="4.06609">
        <ele>155</ele>
        <time>2019-05-30T14:58:21Z</time>
      </trkpt>
      <trkpt lat="49.34833" lon="4.06609">
        <ele>155</ele>
        <time>2019-05-30T14:58:22Z</time>
      </trkpt>
      <trkpt lat="49.34833" lon="4.06609">
        <ele>155</ele>
        <time>2019-05-30T14:58:23Z</time>
      </trkpt>
      <trkpt lat="49.34833" lon="4.06609">
        <ele>155</ele>
        <time>2019-05-30T14:58:24Z</time>
      </trkpt>
      <trkpt lat="49.34833" lon="4.06609">
        <ele>155</ele>
        <time>2019-05-30T14:58:25Z</time>
      </trkpt>
      <trkpt lat="49.34833" lon="4.06609">
        <ele>155</ele>
        <time>2019-05-30T14:58:26Z</time>
      </trkpt>
      <trkpt lat="49.34833" lon="4.06609">
        <ele>155</ele>
        <time>2019-05-30T14:58:27Z</time>
      </trkpt>
      <trkpt lat="49.34833" lon="4.06609">
        <ele>155</ele>
        <time>2019-05-30T14:58:28Z</time>
      </trkpt>
      <trkpt lat="49.34833" lon="4.06609">
        <ele>155</ele>
        <time>2019-05-30T14:58:29Z</time>
      </trkpt>
      <trkpt lat="49.34833" lon="4.06609">
        <ele>155</ele>
        <time>2019-05-30T14:58:30Z</time>
      </trkpt>
      <trkpt lat="49.34833" lon="4.06609">
        <ele>155</ele>
        <time>2019-05-30T14:58:31Z</time>
      </trkpt>
      <trkpt lat="49.34833" lon="4.06609">
        <ele>155</ele>
        <time>2019-05-30T14:58:32Z</time>
      </trkpt>
      <trkpt lat="49.34833" lon="4.06609">
        <ele>155</ele>
        <time>2019-05-30T14:58:33Z</time>
      </trkpt>
      <trkpt lat="49.34833" lon="4.06609">
        <ele>155</ele>
        <time>2019-05-30T14:58:34Z</time>
      </trkpt>
      <trkpt lat="49.34833" lon="4.06609">
        <ele>155</ele>
        <time>2019-05-30T14:58:35Z</time>
      </trkpt>
      <trkpt lat="49.34833" lon="4.06609">
        <ele>155</ele>
        <time>2019-05-30T14:58:36Z</time>
      </trkpt>
      <trkpt lat="49.34833" lon="4.06609">
        <ele>155</ele>
        <time>2019-05-30T14:58:37Z</time>
      </trkpt>
      <trkpt lat="49.34833" lon="4.06609">
        <ele>155</ele>
        <time>2019-05-30T14:58:38Z</time>
      </trkpt>
      <trkpt lat="49.34833" lon="4.06609">
        <ele>155</ele>
        <time>2019-05-30T14:58:39Z</time>
      </trkpt>
      <trkpt lat="49.34833" lon="4.06609">
        <ele>155</ele>
        <time>2019-05-30T14:58:40Z</time>
      </trkpt>
      <trkpt lat="49.34833" lon="4.06609">
        <ele>155</ele>
        <time>2019-05-30T14:58:41Z</time>
      </trkpt>
      <trkpt lat="49.34833" lon="4.06609">
        <ele>155</ele>
        <time>2019-05-30T14:58:42Z</time>
      </trkpt>
      <trkpt lat="49.34833" lon="4.06609">
        <ele>155</ele>
        <time>2019-05-30T14:58:43Z</time>
      </trkpt>
      <trkpt lat="49.34833" lon="4.06609">
        <ele>155</ele>
        <time>2019-05-30T14:58:44Z</time>
      </trkpt>
      <trkpt lat="49.34833" lon="4.06609">
        <ele>155</ele>
        <time>2019-05-30T14:58:45Z</time>
      </trkpt>
      <trkpt lat="49.34833" lon="4.06609">
        <ele>155</ele>
        <time>2019-05-30T14:58:46Z</time>
      </trkpt>
      <trkpt lat="49.34833" lon="4.06609">
        <ele>155</ele>
        <time>2019-05-30T14:58:47Z</time>
      </trkpt>
      <trkpt lat="49.34833" lon="4.06609">
        <ele>155</ele>
        <time>2019-05-30T14:58:48Z</time>
      </trkpt>
      <trkpt lat="49.34833" lon="4.06609">
        <ele>155</ele>
        <time>2019-05-30T14:58:49Z</time>
      </trkpt>
      <trkpt lat="49.34833" lon="4.06609">
        <ele>155</ele>
        <time>2019-05-30T14:58:50Z</time>
      </trkpt>
      <trkpt lat="49.34833" lon="4.06609">
        <ele>155</ele>
        <time>2019-05-30T14:58:51Z</time>
      </trkpt>
      <trkpt lat="49.34833" lon="4.06609">
        <ele>155</ele>
        <time>2019-05-30T14:58:52Z</time>
      </trkpt>
      <trkpt lat="49.34833" lon="4.06609">
        <ele>155</ele>
        <time>2019-05-30T14:58:53Z</time>
      </trkpt>
      <trkpt lat="49.34833" lon="4.06609">
        <ele>155</ele>
        <time>2019-05-30T14:58:54Z</time>
      </trkpt>
      <trkpt lat="49.34833" lon="4.06609">
        <ele>155</ele>
        <time>2019-05-30T14:58:55Z</time>
      </trkpt>
      <trkpt lat="49.34833" lon="4.06609">
        <ele>155</ele>
        <time>2019-05-30T14:58:56Z</time>
      </trkpt>
      <trkpt lat="49.34833" lon="4.06609">
        <ele>155</ele>
        <time>2019-05-30T14:58:57Z</time>
      </trkpt>
      <trkpt lat="49.34833" lon="4.06609">
        <ele>155</ele>
        <time>2019-05-30T14:58:58Z</time>
      </trkpt>
      <trkpt lat="49.34833" lon="4.06609">
        <ele>155</ele>
        <time>2019-05-30T14:58:59Z</time>
      </trkpt>
      <trkpt lat="49.34833" lon="4.06609">
        <ele>155</ele>
        <time>2019-05-30T14:59:00Z</time>
      </trkpt>
      <trkpt lat="49.34833" lon="4.06609">
        <ele>155</ele>
        <time>2019-05-30T14:59:01Z</time>
      </trkpt>
      <trkpt lat="49.34833" lon="4.06609">
        <ele>155</ele>
        <time>2019-05-30T14:59:02Z</time>
      </trkpt>
      <trkpt lat="49.34835" lon="4.0661">
        <ele>150</ele>
        <time>2019-05-30T14:59:03Z</time>
      </trkpt>
      <trkpt lat="49.34835" lon="4.0661">
        <ele>150</ele>
        <time>2019-05-30T14:59:04Z</time>
      </trkpt>
      <trkpt lat="49.34835" lon="4.0661">
        <ele>150</ele>
        <time>2019-05-30T14:59:05Z</time>
      </trkpt>
      <trkpt lat="49.34835" lon="4.0661">
        <ele>150</ele>
        <time>2019-05-30T14:59:06Z</time>
      </trkpt>
      <trkpt lat="49.34835" lon="4.0661">
        <ele>150</ele>
        <time>2019-05-30T14:59:07Z</time>
      </trkpt>
      <trkpt lat="49.34835" lon="4.0661">
        <ele>150</ele>
        <time>2019-05-30T14:59:08Z</time>
      </trkpt>
      <trkpt lat="49.34835" lon="4.0661">
        <ele>150</ele>
        <time>2019-05-30T14:59:09Z</time>
      </trkpt>
      <trkpt lat="49.34835" lon="4.0661">
        <ele>150</ele>
        <time>2019-05-30T14:59:10Z</time>
      </trkpt>
      <trkpt lat="49.34835" lon="4.0661">
        <ele>150</ele>
        <time>2019-05-30T14:59:11Z</time>
      </trkpt>
      <trkpt lat="49.34835" lon="4.0661">
        <ele>150</ele>
        <time>2019-05-30T14:59:12Z</time>
      </trkpt>
      <trkpt lat="49.34835" lon="4.0661">
        <ele>150</ele>
        <time>2019-05-30T14:59:13Z</time>
      </trkpt>
      <trkpt lat="49.34835" lon="4.0661">
        <ele>150</ele>
        <time>2019-05-30T14:59:14Z</time>
      </trkpt>
      <trkpt lat="49.34835" lon="4.0661">
        <ele>150</ele>
        <time>2019-05-30T14:59:15Z</time>
      </trkpt>
      <trkpt lat="49.34835" lon="4.0661">
        <ele>150</ele>
        <time>2019-05-30T14:59:16Z</time>
      </trkpt>
      <trkpt lat="49.34835" lon="4.0661">
        <ele>150</ele>
        <time>2019-05-30T14:59:17Z</time>
      </trkpt>
      <trkpt lat="49.34835" lon="4.0661">
        <ele>150</ele>
        <time>2019-05-30T14:59:18Z</time>
      </trkpt>
      <trkpt lat="49.34835" lon="4.0661">
        <ele>150</ele>
        <time>2019-05-30T14:59:19Z</time>
      </trkpt>
      <trkpt lat="49.34835" lon="4.0661">
        <ele>150</ele>
        <time>2019-05-30T14:59:20Z</time>
      </trkpt>
      <trkpt lat="49.34835" lon="4.0661">
        <ele>150</ele>
        <time>2019-05-30T14:59:21Z</time>
      </trkpt>
      <trkpt lat="49.34835" lon="4.0661">
        <ele>150</ele>
        <time>2019-05-30T14:59:22Z</time>
      </trkpt>
      <trkpt lat="49.34835" lon="4.0661">
        <ele>150</ele>
        <time>2019-05-30T14:59:23Z</time>
      </trkpt>
      <trkpt lat="49.34835" lon="4.0661">
        <ele>150</ele>
        <time>2019-05-30T14:59:24Z</time>
      </trkpt>
      <trkpt lat="49.34835" lon="4.0661">
        <ele>150</ele>
        <time>2019-05-30T14:59:25Z</time>
      </trkpt>
      <trkpt lat="49.34835" lon="4.0661">
        <ele>150</ele>
        <time>2019-05-30T14:59:26Z</time>
      </trkpt>
      <trkpt lat="49.34835" lon="4.0661">
        <ele>150</ele>
        <time>2019-05-30T14:59:27Z</time>
      </trkpt>
      <trkpt lat="49.34835" lon="4.0661">
        <ele>150</ele>
        <time>2019-05-30T14:59:28Z</time>
      </trkpt>
      <trkpt lat="49.34835" lon="4.0661">
        <ele>150</ele>
        <time>2019-05-30T14:59:29Z</time>
      </trkpt>
      <trkpt lat="49.34835" lon="4.0661">
        <ele>150</ele>
        <time>2019-05-30T14:59:30Z</time>
      </trkpt>
      <trkpt lat="49.34835" lon="4.0661">
        <ele>150</ele>
        <time>2019-05-30T14:59:31Z</time>
      </trkpt>
      <trkpt lat="49.34835" lon="4.0661">
        <ele>150</ele>
        <time>2019-05-30T14:59:32Z</time>
      </trkpt>
      <trkpt lat="49.34835" lon="4.0661">
        <ele>150</ele>
        <time>2019-05-30T14:59:33Z</time>
      </trkpt>
      <trkpt lat="49.34835" lon="4.0661">
        <ele>150</ele>
        <time>2019-05-30T14:59:34Z</time>
      </trkpt>
      <trkpt lat="49.34835" lon="4.0661">
        <ele>150</ele>
        <time>2019-05-30T14:59:35Z</time>
      </trkpt>
      <trkpt lat="49.34835" lon="4.0661">
        <ele>150</ele>
        <time>2019-05-30T14:59:36Z</time>
      </trkpt>
      <trkpt lat="49.34835" lon="4.0661">
        <ele>150</ele>
        <time>2019-05-30T14:59:37Z</time>
      </trkpt>
      <trkpt lat="49.34835" lon="4.0661">
        <ele>150</ele>
        <time>2019-05-30T14:59:38Z</time>
      </trkpt>
      <trkpt lat="49.34835" lon="4.0661">
        <ele>150</ele>
        <time>2019-05-30T14:59:39Z</time>
      </trkpt>
      <trkpt lat="49.34835" lon="4.0661">
        <ele>150</ele>
        <time>2019-05-30T14:59:40Z</time>
      </trkpt>
      <trkpt lat="49.34835" lon="4.06609">
        <ele>149</ele>
        <time>2019-05-30T14:59:41Z</time>
      </trkpt>
      <trkpt lat="49.34834" lon="4.06609">
        <ele>148</ele>
        <time>2019-05-30T14:59:42Z</time>
      </trkpt>
      <trkpt lat="49.34834" lon="4.0661">
        <ele>147</ele>
        <time>2019-05-30T14:59:43Z</time>
      </trkpt>
      <trkpt lat="49.34832" lon="4.06611">
        <ele>146</ele>
        <time>2019-05-30T14:59:44Z</time>
      </trkpt>
      <trkpt lat="49.34831" lon="4.06613">
        <ele>145</ele>
        <time>2019-05-30T14:59:45Z</time>
      </trkpt>
      <trkpt lat="49.34831" lon="4.06614">
        <ele>144</ele>
        <time>2019-05-30T14:59:46Z</time>
      </trkpt>
      <trkpt lat="49.3483" lon="4.06616">
        <ele>143</ele>
        <time>2019-05-30T14:59:47Z</time>
      </trkpt>
      <trkpt lat="49.3483" lon="4.06617">
        <ele>143</ele>
        <time>2019-05-30T14:59:48Z</time>
      </trkpt>
      <trkpt lat="49.3483" lon="4.06617">
        <ele>142</ele>
        <time>2019-05-30T14:59:49Z</time>
      </trkpt>
      <trkpt lat="49.3483" lon="4.06616">
        <ele>142</ele>
        <time>2019-05-30T14:59:50Z</time>
      </trkpt>
      <trkpt lat="49.3483" lon="4.06616">
        <ele>141</ele>
        <time>2019-05-30T14:59:51Z</time>
      </trkpt>
      <trkpt lat="49.3483" lon="4.06616">
        <ele>141</ele>
        <time>2019-05-30T14:59:52Z</time>
      </trkpt>
      <trkpt lat="49.3483" lon="4.06616">
        <ele>141</ele>
        <time>2019-05-30T14:59:53Z</time>
      </trkpt>
      <trkpt lat="49.3483" lon="4.06616">
        <ele>141</ele>
        <time>2019-05-30T14:59:54Z</time>
      </trkpt>
      <trkpt lat="49.3483" lon="4.06616">
        <ele>141</ele>
        <time>2019-05-30T14:59:55Z</time>
      </trkpt>
      <trkpt lat="49.3483" lon="4.06616">
        <ele>141</ele>
        <time>2019-05-30T14:59:56Z</time>
      </trkpt>
      <trkpt lat="49.3483" lon="4.06616">
        <ele>141</ele>
        <time>2019-05-30T14:59:57Z</time>
      </trkpt>
      <trkpt lat="49.3483" lon="4.06616">
        <ele>141</ele>
        <time>2019-05-30T14:59:58Z</time>
      </trkpt>
      <trkpt lat="49.3483" lon="4.06616">
        <ele>141</ele>
        <time>2019-05-30T14:59:59Z</time>
      </trkpt>
      <trkpt lat="49.3483" lon="4.06616">
        <ele>141</ele>
        <time>2019-05-30T15:00:00Z</time>
      </trkpt>
      <trkpt lat="49.3483" lon="4.06616">
        <ele>141</ele>
        <time>2019-05-30T15:00:01Z</time>
      </trkpt>
      <trkpt lat="49.3483" lon="4.06616">
        <ele>141</ele>
        <time>2019-05-30T15:00:02Z</time>
      </trkpt>
      <trkpt lat="49.3483" lon="4.06616">
        <ele>141</ele>
        <time>2019-05-30T15:00:03Z</time>
      </trkpt>
      <trkpt lat="49.3483" lon="4.06616">
        <ele>141</ele>
        <time>2019-05-30T15:00:04Z</time>
      </trkpt>
      <trkpt lat="49.3483" lon="4.06616">
        <ele>141</ele>
        <time>2019-05-30T15:00:05Z</time>
      </trkpt>
      <trkpt lat="49.3483" lon="4.06616">
        <ele>141</ele>
        <time>2019-05-30T15:00:06Z</time>
      </trkpt>
      <trkpt lat="49.3483" lon="4.06616">
        <ele>141</ele>
        <time>2019-05-30T15:00:07Z</time>
      </trkpt>
      <trkpt lat="49.3483" lon="4.06616">
        <ele>141</ele>
        <time>2019-05-30T15:00:08Z</time>
      </trkpt>
      <trkpt lat="49.3483" lon="4.06616">
        <ele>141</ele>
        <time>2019-05-30T15:00:09Z</time>
      </trkpt>
      <trkpt lat="49.3483" lon="4.06616">
        <ele>141</ele>
        <time>2019-05-30T15:00:10Z</time>
      </trkpt>
      <trkpt lat="49.3483" lon="4.06616">
        <ele>141</ele>
        <time>2019-05-30T15:00:11Z</time>
      </trkpt>
      <trkpt lat="49.3483" lon="4.06616">
        <ele>141</ele>
        <time>2019-05-30T15:00:12Z</time>
      </trkpt>
      <trkpt lat="49.3483" lon="4.06616">
        <ele>141</ele>
        <time>2019-05-30T15:00:13Z</time>
      </trkpt>
      <trkpt lat="49.3483" lon="4.06616">
        <ele>141</ele>
        <time>2019-05-30T15:00:14Z</time>
      </trkpt>
      <trkpt lat="49.3483" lon="4.06616">
        <ele>141</ele>
        <time>2019-05-30T15:00:15Z</time>
      </trkpt>
      <trkpt lat="49.3483" lon="4.06616">
        <ele>141</ele>
        <time>2019-05-30T15:00:16Z</time>
      </trkpt>
      <trkpt lat="49.3483" lon="4.06616">
        <ele>141</ele>
        <time>2019-05-30T15:00:17Z</time>
      </trkpt>
      <trkpt lat="49.3483" lon="4.06616">
        <ele>141</ele>
        <time>2019-05-30T15:00:18Z</time>
      </trkpt>
      <trkpt lat="49.3483" lon="4.06616">
        <ele>141</ele>
        <time>2019-05-30T15:00:19Z</time>
      </trkpt>
      <trkpt lat="49.3483" lon="4.06616">
        <ele>141</ele>
        <time>2019-05-30T15:00:20Z</time>
      </trkpt>
      <trkpt lat="49.3483" lon="4.06616">
        <ele>141</ele>
        <time>2019-05-30T15:00:21Z</time>
      </trkpt>
      <trkpt lat="49.3483" lon="4.06616">
        <ele>141</ele>
        <time>2019-05-30T15:00:22Z</time>
      </trkpt>
      <trkpt lat="49.34831" lon="4.06615">
        <ele>142</ele>
        <time>2019-05-30T15:00:23Z</time>
      </trkpt>
      <trkpt lat="49.34831" lon="4.06614">
        <ele>142</ele>
        <time>2019-05-30T15:00:24Z</time>
      </trkpt>
      <trkpt lat="49.34831" lon="4.06613">
        <ele>142</ele>
        <time>2019-05-30T15:00:25Z</time>
      </trkpt>
      <trkpt lat="49.3483" lon="4.06612">
        <ele>142</ele>
        <time>2019-05-30T15:00:26Z</time>
      </trkpt>
      <trkpt lat="49.34829" lon="4.06612">
        <ele>142</ele>
        <time>2019-05-30T15:00:27Z</time>
      </trkpt>
      <trkpt lat="49.34829" lon="4.06612">
        <ele>142</ele>
        <time>2019-05-30T15:00:28Z</time>
      </trkpt>
      <trkpt lat="49.34829" lon="4.06612">
        <ele>142</ele>
        <time>2019-05-30T15:00:29Z</time>
      </trkpt>
      <trkpt lat="49.34829" lon="4.06612">
        <ele>142</ele>
        <time>2019-05-30T15:00:30Z</time>
      </trkpt>
      <trkpt lat="49.34829" lon="4.06612">
        <ele>142</ele>
        <time>2019-05-30T15:00:31Z</time>
      </trkpt>
      <trkpt lat="49.34829" lon="4.06613">
        <ele>143</ele>
        <time>2019-05-30T15:00:32Z</time>
      </trkpt>
      <trkpt lat="49.34829" lon="4.06613">
        <ele>142</ele>
        <time>2019-05-30T15:00:33Z</time>
      </trkpt>
      <trkpt lat="49.34829" lon="4.06613">
        <ele>142</ele>
        <time>2019-05-30T15:00:34Z</time>
      </trkpt>
      <trkpt lat="49.34829" lon="4.06613">
        <ele>142</ele>
        <time>2019-05-30T15:00:35Z</time>
      </trkpt>
      <trkpt lat="49.34829" lon="4.06613">
        <ele>142</ele>
        <time>2019-05-30T15:00:36Z</time>
      </trkpt>
      <trkpt lat="49.34829" lon="4.06613">
        <ele>142</ele>
        <time>2019-05-30T15:00:37Z</time>
      </trkpt>
      <trkpt lat="49.34829" lon="4.06613">
        <ele>142</ele>
        <time>2019-05-30T15:00:38Z</time>
      </trkpt>
      <trkpt lat="49.34829" lon="4.06613">
        <ele>142</ele>
        <time>2019-05-30T15:00:39Z</time>
      </trkpt>
      <trkpt lat="49.34829" lon="4.06613">
        <ele>142</ele>
        <time>2019-05-30T15:00:40Z</time>
      </trkpt>
      <trkpt lat="49.34829" lon="4.06613">
        <ele>142</ele>
        <time>2019-05-30T15:00:41Z</time>
      </trkpt>
      <trkpt lat="49.34829" lon="4.06613">
        <ele>142</ele>
        <time>2019-05-30T15:00:42Z</time>
      </trkpt>
      <trkpt lat="49.34829" lon="4.06613">
        <ele>142</ele>
        <time>2019-05-30T15:00:43Z</time>
      </trkpt>
      <trkpt lat="49.34829" lon="4.06613">
        <ele>142</ele>
        <time>2019-05-30T15:00:44Z</time>
      </trkpt>
      <trkpt lat="49.34829" lon="4.06613">
        <ele>142</ele>
        <time>2019-05-30T15:00:45Z</time>
      </trkpt>
      <trkpt lat="49.34829" lon="4.06613">
        <ele>142</ele>
        <time>2019-05-30T15:00:46Z</time>
      </trkpt>
      <trkpt lat="49.34829" lon="4.06613">
        <ele>142</ele>
        <time>2019-05-30T15:00:47Z</time>
      </trkpt>
      <trkpt lat="49.34829" lon="4.06613">
        <ele>142</ele>
        <time>2019-05-30T15:00:48Z</time>
      </trkpt>
      <trkpt lat="49.34829" lon="4.06613">
        <ele>142</ele>
        <time>2019-05-30T15:00:49Z</time>
      </trkpt>
      <trkpt lat="49.34829" lon="4.06613">
        <ele>142</ele>
        <time>2019-05-30T15:00:50Z</time>
      </trkpt>
      <trkpt lat="49.34829" lon="4.06613">
        <ele>142</ele>
        <time>2019-05-30T15:00:51Z</time>
      </trkpt>
      <trkpt lat="49.34829" lon="4.06613">
        <ele>142</ele>
        <time>2019-05-30T15:00:52Z</time>
      </trkpt>
      <trkpt lat="49.34829" lon="4.06613">
        <ele>142</ele>
        <time>2019-05-30T15:00:53Z</time>
      </trkpt>
      <trkpt lat="49.34829" lon="4.06613">
        <ele>142</ele>
        <time>2019-05-30T15:00:54Z</time>
      </trkpt>
      <trkpt lat="49.34829" lon="4.06613">
        <ele>142</ele>
        <time>2019-05-30T15:00:55Z</time>
      </trkpt>
      <trkpt lat="49.34829" lon="4.06613">
        <ele>142</ele>
        <time>2019-05-30T15:00:56Z</time>
      </trkpt>
      <trkpt lat="49.34829" lon="4.06613">
        <ele>142</ele>
        <time>2019-05-30T15:00:57Z</time>
      </trkpt>
      <trkpt lat="49.34829" lon="4.06613">
        <ele>142</ele>
        <time>2019-05-30T15:00:58Z</time>
      </trkpt>
      <trkpt lat="49.34829" lon="4.06613">
        <ele>142</ele>
        <time>2019-05-30T15:00:59Z</time>
      </trkpt>
      <trkpt lat="49.34829" lon="4.06613">
        <ele>142</ele>
        <time>2019-05-30T15:01:00Z</time>
      </trkpt>
      <trkpt lat="49.34829" lon="4.06613">
        <ele>142</ele>
        <time>2019-05-30T15:01:01Z</time>
      </trkpt>
      <trkpt lat="49.34829" lon="4.06613">
        <ele>142</ele>
        <time>2019-05-30T15:01:02Z</time>
      </trkpt>
      <trkpt lat="49.34829" lon="4.06613">
        <ele>142</ele>
        <time>2019-05-30T15:01:03Z</time>
      </trkpt>
      <trkpt lat="49.34829" lon="4.06613">
        <ele>142</ele>
        <time>2019-05-30T15:01:04Z</time>
      </trkpt>
      <trkpt lat="49.34829" lon="4.06613">
        <ele>142</ele>
        <time>2019-05-30T15:01:05Z</time>
      </trkpt>
      <trkpt lat="49.34829" lon="4.06613">
        <ele>142</ele>
        <time>2019-05-30T15:01:06Z</time>
      </trkpt>
      <trkpt lat="49.34829" lon="4.06613">
        <ele>142</ele>
        <time>2019-05-30T15:01:07Z</time>
      </trkpt>
      <trkpt lat="49.34829" lon="4.06613">
        <ele>142</ele>
        <time>2019-05-30T15:01:08Z</time>
      </trkpt>
      <trkpt lat="49.34829" lon="4.06613">
        <ele>142</ele>
        <time>2019-05-30T15:01:09Z</time>
      </trkpt>
      <trkpt lat="49.34829" lon="4.06613">
        <ele>142</ele>
        <time>2019-05-30T15:01:10Z</time>
      </trkpt>
      <trkpt lat="49.34829" lon="4.06613">
        <ele>142</ele>
        <time>2019-05-30T15:01:11Z</time>
      </trkpt>
      <trkpt lat="49.34829" lon="4.06613">
        <ele>142</ele>
        <time>2019-05-30T15:01:12Z</time>
      </trkpt>
      <trkpt lat="49.34829" lon="4.06613">
        <ele>142</ele>
        <time>2019-05-30T15:01:13Z</time>
      </trkpt>
      <trkpt lat="49.34829" lon="4.06613">
        <ele>142</ele>
        <time>2019-05-30T15:01:14Z</time>
      </trkpt>
      <trkpt lat="49.34829" lon="4.06613">
        <ele>142</ele>
        <time>2019-05-30T15:01:15Z</time>
      </trkpt>
      <trkpt lat="49.34829" lon="4.06613">
        <ele>142</ele>
        <time>2019-05-30T15:01:16Z</time>
      </trkpt>
      <trkpt lat="49.34829" lon="4.06613">
        <ele>142</ele>
        <time>2019-05-30T15:01:17Z</time>
      </trkpt>
      <trkpt lat="49.34829" lon="4.06613">
        <ele>142</ele>
        <time>2019-05-30T15:01:18Z</time>
      </trkpt>
      <trkpt lat="49.34829" lon="4.06613">
        <ele>142</ele>
        <time>2019-05-30T15:01:19Z</time>
      </trkpt>
      <trkpt lat="49.34829" lon="4.06613">
        <ele>142</ele>
        <time>2019-05-30T15:01:20Z</time>
      </trkpt>
      <trkpt lat="49.34829" lon="4.06613">
        <ele>142</ele>
        <time>2019-05-30T15:01:21Z</time>
      </trkpt>
      <trkpt lat="49.34829" lon="4.06613">
        <ele>142</ele>
        <time>2019-05-30T15:01:22Z</time>
      </trkpt>
      <trkpt lat="49.34829" lon="4.06613">
        <ele>142</ele>
        <time>2019-05-30T15:01:23Z</time>
      </trkpt>
      <trkpt lat="49.34829" lon="4.06613">
        <ele>142</ele>
        <time>2019-05-30T15:01:24Z</time>
      </trkpt>
      <trkpt lat="49.34829" lon="4.06613">
        <ele>142</ele>
        <time>2019-05-30T15:01:25Z</time>
      </trkpt>
      <trkpt lat="49.34829" lon="4.06613">
        <ele>142</ele>
        <time>2019-05-30T15:01:26Z</time>
      </trkpt>
      <trkpt lat="49.34829" lon="4.06613">
        <ele>142</ele>
        <time>2019-05-30T15:01:27Z</time>
      </trkpt>
      <trkpt lat="49.34829" lon="4.06613">
        <ele>142</ele>
        <time>2019-05-30T15:01:28Z</time>
      </trkpt>
      <trkpt lat="49.34829" lon="4.06613">
        <ele>142</ele>
        <time>2019-05-30T15:01:29Z</time>
      </trkpt>
      <trkpt lat="49.3483" lon="4.06613">
        <ele>143</ele>
        <time>2019-05-30T15:01:30Z</time>
      </trkpt>
      <trkpt lat="49.3483" lon="4.06614">
        <ele>143</ele>
        <time>2019-05-30T15:01:31Z</time>
      </trkpt>
      <trkpt lat="49.3483" lon="4.06613">
        <ele>143</ele>
        <time>2019-05-30T15:01:32Z</time>
      </trkpt>
      <trkpt lat="49.34831" lon="4.0661">
        <ele>143</ele>
        <time>2019-05-30T15:01:33Z</time>
      </trkpt>
      <trkpt lat="49.34832" lon="4.06608">
        <ele>143</ele>
        <time>2019-05-30T15:01:34Z</time>
      </trkpt>
      <trkpt lat="49.34832" lon="4.06607">
        <ele>143</ele>
        <time>2019-05-30T15:01:35Z</time>
      </trkpt>
      <trkpt lat="49.34833" lon="4.06605">
        <ele>143</ele>
        <time>2019-05-30T15:01:36Z</time>
      </trkpt>
      <trkpt lat="49.34834" lon="4.06602">
        <ele>143</ele>
        <time>2019-05-30T15:01:37Z</time>
      </trkpt>
      <trkpt lat="49.34836" lon="4.06598">
        <ele>142</ele>
        <time>2019-05-30T15:01:38Z</time>
      </trkpt>
      <trkpt lat="49.34837" lon="4.06595">
        <ele>143</ele>
        <time>2019-05-30T15:01:39Z</time>
      </trkpt>
      <trkpt lat="49.34839" lon="4.06591">
        <ele>143</ele>
        <time>2019-05-30T15:01:40Z</time>
      </trkpt>
      <trkpt lat="49.34841" lon="4.06588">
        <ele>143</ele>
        <time>2019-05-30T15:01:41Z</time>
      </trkpt>
      <trkpt lat="49.34843" lon="4.06584">
        <ele>143</ele>
        <time>2019-05-30T15:01:42Z</time>
      </trkpt>
      <trkpt lat="49.34846" lon="4.0658">
        <ele>143</ele>
        <time>2019-05-30T15:01:43Z</time>
      </trkpt>
      <trkpt lat="49.34848" lon="4.06575">
        <ele>143</ele>
        <time>2019-05-30T15:01:44Z</time>
      </trkpt>
      <trkpt lat="49.3485" lon="4.06571">
        <ele>143</ele>
        <time>2019-05-30T15:01:45Z</time>
      </trkpt>
      <trkpt lat="49.34852" lon="4.06566">
        <ele>142</ele>
        <time>2019-05-30T15:01:46Z</time>
      </trkpt>
      <trkpt lat="49.34855" lon="4.06561">
        <ele>142</ele>
        <time>2019-05-30T15:01:47Z</time>
      </trkpt>
      <trkpt lat="49.34857" lon="4.06557">
        <ele>142</ele>
        <time>2019-05-30T15:01:48Z</time>
      </trkpt>
      <trkpt lat="49.34859" lon="4.06553">
        <ele>142</ele>
        <time>2019-05-30T15:01:49Z</time>
      </trkpt>
      <trkpt lat="49.34861" lon="4.06549">
        <ele>142</ele>
        <time>2019-05-30T15:01:50Z</time>
      </trkpt>
      <trkpt lat="49.34864" lon="4.06545">
        <ele>142</ele>
        <time>2019-05-30T15:01:51Z</time>
      </trkpt>
      <trkpt lat="49.34866" lon="4.06542">
        <ele>142</ele>
        <time>2019-05-30T15:01:52Z</time>
      </trkpt>
      <trkpt lat="49.34869" lon="4.06538">
        <ele>142</ele>
        <time>2019-05-30T15:01:53Z</time>
      </trkpt>
      <trkpt lat="49.34871" lon="4.06533">
        <ele>142</ele>
        <time>2019-05-30T15:01:54Z</time>
      </trkpt>
      <trkpt lat="49.34874" lon="4.06529">
        <ele>142</ele>
        <time>2019-05-30T15:01:55Z</time>
      </trkpt>
      <trkpt lat="49.34876" lon="4.06525">
        <ele>142</ele>
        <time>2019-05-30T15:01:56Z</time>
      </trkpt>
      <trkpt lat="49.34878" lon="4.06521">
        <ele>142</ele>
        <time>2019-05-30T15:01:57Z</time>
      </trkpt>
      <trkpt lat="49.3488" lon="4.06518">
        <ele>142</ele>
        <time>2019-05-30T15:01:58Z</time>
      </trkpt>
      <trkpt lat="49.34882" lon="4.06516">
        <ele>142</ele>
        <time>2019-05-30T15:01:59Z</time>
      </trkpt>
      <trkpt lat="49.34883" lon="4.06515">
        <ele>142</ele>
        <time>2019-05-30T15:02:00Z</time>
      </trkpt>
      <trkpt lat="49.34884" lon="4.06515">
        <ele>143</ele>
        <time>2019-05-30T15:02:01Z</time>
      </trkpt>
      <trkpt lat="49.34886" lon="4.06514">
        <ele>142</ele>
        <time>2019-05-30T15:02:02Z</time>
      </trkpt>
      <trkpt lat="49.34887" lon="4.06513">
        <ele>142</ele>
        <time>2019-05-30T15:02:03Z</time>
      </trkpt>
      <trkpt lat="49.34889" lon="4.06513">
        <ele>142</ele>
        <time>2019-05-30T15:02:04Z</time>
      </trkpt>
      <trkpt lat="49.34891" lon="4.06514">
        <ele>142</ele>
        <time>2019-05-30T15:02:05Z</time>
      </trkpt>
      <trkpt lat="49.34894" lon="4.06515">
        <ele>142</ele>
        <time>2019-05-30T15:02:06Z</time>
      </trkpt>
      <trkpt lat="49.34896" lon="4.06518">
        <ele>142</ele>
        <time>2019-05-30T15:02:07Z</time>
      </trkpt>
      <trkpt lat="49.34898" lon="4.06521">
        <ele>142</ele>
        <time>2019-05-30T15:02:08Z</time>
      </trkpt>
      <trkpt lat="49.34901" lon="4.06525">
        <ele>142</ele>
        <time>2019-05-30T15:02:09Z</time>
      </trkpt>
      <trkpt lat="49.34904" lon="4.06529">
        <ele>142</ele>
        <time>2019-05-30T15:02:10Z</time>
      </trkpt>
      <trkpt lat="49.34909" lon="4.06531">
        <ele>141</ele>
        <time>2019-05-30T15:02:11Z</time>
      </trkpt>
      <trkpt lat="49.34914" lon="4.06533">
        <ele>141</ele>
        <time>2019-05-30T15:02:12Z</time>
      </trkpt>
      <trkpt lat="49.34919" lon="4.06533">
        <ele>141</ele>
        <time>2019-05-30T15:02:13Z</time>
      </trkpt>
      <trkpt lat="49.34924" lon="4.06534">
        <ele>141</ele>
        <time>2019-05-30T15:02:14Z</time>
      </trkpt>
      <trkpt lat="49.34928" lon="4.06535">
        <ele>141</ele>
        <time>2019-05-30T15:02:15Z</time>
      </trkpt>
      <trkpt lat="49.34933" lon="4.06535">
        <ele>142</ele>
        <time>2019-05-30T15:02:16Z</time>
      </trkpt>
      <trkpt lat="49.34937" lon="4.06536">
        <ele>142</ele>
        <time>2019-05-30T15:02:17Z</time>
      </trkpt>
      <trkpt lat="49.34941" lon="4.06539">
        <ele>142</ele>
        <time>2019-05-30T15:02:18Z</time>
      </trkpt>
      <trkpt lat="49.34945" lon="4.06542">
        <ele>142</ele>
        <time>2019-05-30T15:02:19Z</time>
      </trkpt>
      <trkpt lat="49.34948" lon="4.06546">
        <ele>142</ele>
        <time>2019-05-30T15:02:20Z</time>
      </trkpt>
      <trkpt lat="49.34951" lon="4.06551">
        <ele>142</ele>
        <time>2019-05-30T15:02:21Z</time>
      </trkpt>
      <trkpt lat="49.34954" lon="4.06556">
        <ele>142</ele>
        <time>2019-05-30T15:02:22Z</time>
      </trkpt>
      <trkpt lat="49.34957" lon="4.06563">
        <ele>141</ele>
        <time>2019-05-30T15:02:23Z</time>
      </trkpt>
      <trkpt lat="49.34959" lon="4.06569">
        <ele>141</ele>
        <time>2019-05-30T15:02:24Z</time>
      </trkpt>
      <trkpt lat="49.3496" lon="4.06575">
        <ele>142</ele>
        <time>2019-05-30T15:02:25Z</time>
      </trkpt>
      <trkpt lat="49.34963" lon="4.06582">
        <ele>142</ele>
        <time>2019-05-30T15:02:26Z</time>
      </trkpt>
      <trkpt lat="49.34965" lon="4.0659">
        <ele>142</ele>
        <time>2019-05-30T15:02:27Z</time>
      </trkpt>
      <trkpt lat="49.34967" lon="4.06596">
        <ele>142</ele>
        <time>2019-05-30T15:02:28Z</time>
      </trkpt>
      <trkpt lat="49.34969" lon="4.06603">
        <ele>142</ele>
        <time>2019-05-30T15:02:29Z</time>
      </trkpt>
      <trkpt lat="49.34971" lon="4.0661">
        <ele>142</ele>
        <time>2019-05-30T15:02:30Z</time>
      </trkpt>
      <trkpt lat="49.34973" lon="4.06617">
        <ele>142</ele>
        <time>2019-05-30T15:02:31Z</time>
      </trkpt>
      <trkpt lat="49.34975" lon="4.06624">
        <ele>142</ele>
        <time>2019-05-30T15:02:32Z</time>
      </trkpt>
      <trkpt lat="49.34977" lon="4.06631">
        <ele>142</ele>
        <time>2019-05-30T15:02:33Z</time>
      </trkpt>
      <trkpt lat="49.34978" lon="4.06638">
        <ele>142</ele>
        <time>2019-05-30T15:02:34Z</time>
      </trkpt>
      <trkpt lat="49.3498" lon="4.06645">
        <ele>142</ele>
        <time>2019-05-30T15:02:35Z</time>
      </trkpt>
      <trkpt lat="49.34981" lon="4.06652">
        <ele>142</ele>
        <time>2019-05-30T15:02:36Z</time>
      </trkpt>
      <trkpt lat="49.34983" lon="4.06659">
        <ele>142</ele>
        <time>2019-05-30T15:02:37Z</time>
      </trkpt>
      <trkpt lat="49.34985" lon="4.06666">
        <ele>142</ele>
        <time>2019-05-30T15:02:38Z</time>
      </trkpt>
      <trkpt lat="49.34986" lon="4.06672">
        <ele>142</ele>
        <time>2019-05-30T15:02:39Z</time>
      </trkpt>
      <trkpt lat="49.34988" lon="4.0668">
        <ele>142</ele>
        <time>2019-05-30T15:02:40Z</time>
      </trkpt>
      <trkpt lat="49.3499" lon="4.06687">
        <ele>142</ele>
        <time>2019-05-30T15:02:41Z</time>
      </trkpt>
      <trkpt lat="49.34992" lon="4.06695">
        <ele>142</ele>
        <time>2019-05-30T15:02:42Z</time>
      </trkpt>
      <trkpt lat="49.34994" lon="4.06702">
        <ele>142</ele>
        <time>2019-05-30T15:02:43Z</time>
      </trkpt>
      <trkpt lat="49.34996" lon="4.06709">
        <ele>142</ele>
        <time>2019-05-30T15:02:44Z</time>
      </trkpt>
      <trkpt lat="49.34997" lon="4.06716">
        <ele>142</ele>
        <time>2019-05-30T15:02:45Z</time>
      </trkpt>
      <trkpt lat="49.34999" lon="4.06722">
        <ele>142</ele>
        <time>2019-05-30T15:02:46Z</time>
      </trkpt>
      <trkpt lat="49.35" lon="4.06729">
        <ele>142</ele>
        <time>2019-05-30T15:02:47Z</time>
      </trkpt>
      <trkpt lat="49.35002" lon="4.06736">
        <ele>142</ele>
        <time>2019-05-30T15:02:48Z</time>
      </trkpt>
      <trkpt lat="49.35003" lon="4.06743">
        <ele>142</ele>
        <time>2019-05-30T15:02:49Z</time>
      </trkpt>
      <trkpt lat="49.35005" lon="4.0675">
        <ele>141</ele>
        <time>2019-05-30T15:02:50Z</time>
      </trkpt>
      <trkpt lat="49.35007" lon="4.06758">
        <ele>142</ele>
        <time>2019-05-30T15:02:51Z</time>
      </trkpt>
      <trkpt lat="49.35008" lon="4.06767">
        <ele>142</ele>
        <time>2019-05-30T15:02:52Z</time>
      </trkpt>
      <trkpt lat="49.3501" lon="4.06776">
        <ele>142</ele>
        <time>2019-05-30T15:02:53Z</time>
      </trkpt>
      <trkpt lat="49.35012" lon="4.06783">
        <ele>142</ele>
        <time>2019-05-30T15:02:54Z</time>
      </trkpt>
      <trkpt lat="49.35014" lon="4.06791">
        <ele>142</ele>
        <time>2019-05-30T15:02:55Z</time>
      </trkpt>
      <trkpt lat="49.35016" lon="4.06799">
        <ele>142</ele>
        <time>2019-05-30T15:02:56Z</time>
      </trkpt>
      <trkpt lat="49.35018" lon="4.06807">
        <ele>141</ele>
        <time>2019-05-30T15:02:57Z</time>
      </trkpt>
      <trkpt lat="49.3502" lon="4.06816">
        <ele>142</ele>
        <time>2019-05-30T15:02:58Z</time>
      </trkpt>
      <trkpt lat="49.35021" lon="4.06824">
        <ele>142</ele>
        <time>2019-05-30T15:02:59Z</time>
      </trkpt>
      <trkpt lat="49.35023" lon="4.06833">
        <ele>142</ele>
        <time>2019-05-30T15:03:00Z</time>
      </trkpt>
      <trkpt lat="49.35024" lon="4.06842">
        <ele>142</ele>
        <time>2019-05-30T15:03:01Z</time>
      </trkpt>
      <trkpt lat="49.35026" lon="4.0685">
        <ele>142</ele>
        <time>2019-05-30T15:03:02Z</time>
      </trkpt>
      <trkpt lat="49.35028" lon="4.06859">
        <ele>142</ele>
        <time>2019-05-30T15:03:03Z</time>
      </trkpt>
      <trkpt lat="49.35029" lon="4.06868">
        <ele>142</ele>
        <time>2019-05-30T15:03:04Z</time>
      </trkpt>
      <trkpt lat="49.35031" lon="4.06877">
        <ele>142</ele>
        <time>2019-05-30T15:03:05Z</time>
      </trkpt>
      <trkpt lat="49.35033" lon="4.06887">
        <ele>142</ele>
        <time>2019-05-30T15:03:06Z</time>
      </trkpt>
      <trkpt lat="49.35035" lon="4.06897">
        <ele>142</ele>
        <time>2019-05-30T15:03:07Z</time>
      </trkpt>
      <trkpt lat="49.35037" lon="4.06905">
        <ele>142</ele>
        <time>2019-05-30T15:03:08Z</time>
      </trkpt>
      <trkpt lat="49.35038" lon="4.06914">
        <ele>142</ele>
        <time>2019-05-30T15:03:09Z</time>
      </trkpt>
      <trkpt lat="49.35039" lon="4.06922">
        <ele>142</ele>
        <time>2019-05-30T15:03:10Z</time>
      </trkpt>
      <trkpt lat="49.35041" lon="4.0693">
        <ele>142</ele>
        <time>2019-05-30T15:03:11Z</time>
      </trkpt>
      <trkpt lat="49.35043" lon="4.06938">
        <ele>142</ele>
        <time>2019-05-30T15:03:12Z</time>
      </trkpt>
      <trkpt lat="49.35043" lon="4.06943">
        <ele>142</ele>
        <time>2019-05-30T15:03:13Z</time>
      </trkpt>
      <trkpt lat="49.35043" lon="4.06944">
        <ele>142</ele>
        <time>2019-05-30T15:03:14Z</time>
      </trkpt>
      <trkpt lat="49.35042" lon="4.06944">
        <ele>142</ele>
        <time>2019-05-30T15:03:15Z</time>
      </trkpt>
      <trkpt lat="49.35043" lon="4.06945">
        <ele>142</ele>
        <time>2019-05-30T15:03:16Z</time>
      </trkpt>
      <trkpt lat="49.35043" lon="4.06946">
        <ele>142</ele>
        <time>2019-05-30T15:03:17Z</time>
      </trkpt>
      <trkpt lat="49.35043" lon="4.06947">
        <ele>142</ele>
        <time>2019-05-30T15:03:18Z</time>
      </trkpt>
      <trkpt lat="49.35044" lon="4.06949">
        <ele>142</ele>
        <time>2019-05-30T15:03:19Z</time>
      </trkpt>
      <trkpt lat="49.35045" lon="4.0695">
        <ele>141</ele>
        <time>2019-05-30T15:03:20Z</time>
      </trkpt>
      <trkpt lat="49.35046" lon="4.06953">
        <ele>142</ele>
        <time>2019-05-30T15:03:21Z</time>
      </trkpt>
      <trkpt lat="49.35047" lon="4.06957">
        <ele>141</ele>
        <time>2019-05-30T15:03:22Z</time>
      </trkpt>
      <trkpt lat="49.35048" lon="4.06961">
        <ele>141</ele>
        <time>2019-05-30T15:03:23Z</time>
      </trkpt>
      <trkpt lat="49.3505" lon="4.06964">
        <ele>141</ele>
        <time>2019-05-30T15:03:24Z</time>
      </trkpt>
      <trkpt lat="49.35052" lon="4.06969">
        <ele>142</ele>
        <time>2019-05-30T15:03:25Z</time>
      </trkpt>
      <trkpt lat="49.35054" lon="4.06981">
        <ele>141</ele>
        <time>2019-05-30T15:03:27Z</time>
      </trkpt>
      <trkpt lat="49.35054" lon="4.06988">
        <ele>141</ele>
        <time>2019-05-30T15:03:28Z</time>
      </trkpt>
      <trkpt lat="49.35055" lon="4.06995">
        <ele>142</ele>
        <time>2019-05-30T15:03:29Z</time>
      </trkpt>
      <trkpt lat="49.35057" lon="4.07001">
        <ele>142</ele>
        <time>2019-05-30T15:03:30Z</time>
      </trkpt>
      <trkpt lat="49.35058" lon="4.07008">
        <ele>141</ele>
        <time>2019-05-30T15:03:31Z</time>
      </trkpt>
      <trkpt lat="49.35059" lon="4.07015">
        <ele>141</ele>
        <time>2019-05-30T15:03:32Z</time>
      </trkpt>
      <trkpt lat="49.3506" lon="4.0702">
        <ele>141</ele>
        <time>2019-05-30T15:03:33Z</time>
      </trkpt>
      <trkpt lat="49.35061" lon="4.07027">
        <ele>141</ele>
        <time>2019-05-30T15:03:34Z</time>
      </trkpt>
      <trkpt lat="49.35062" lon="4.07033">
        <ele>142</ele>
        <time>2019-05-30T15:03:35Z</time>
      </trkpt>
      <trkpt lat="49.35064" lon="4.0704">
        <ele>142</ele>
        <time>2019-05-30T15:03:36Z</time>
      </trkpt>
      <trkpt lat="49.35064" lon="4.07048">
        <ele>141</ele>
        <time>2019-05-30T15:03:37Z</time>
      </trkpt>
      <trkpt lat="49.35066" lon="4.07055">
        <ele>141</ele>
        <time>2019-05-30T15:03:38Z</time>
      </trkpt>
      <trkpt lat="49.35067" lon="4.07062">
        <ele>141</ele>
        <time>2019-05-30T15:03:39Z</time>
      </trkpt>
      <trkpt lat="49.35069" lon="4.07071">
        <ele>140</ele>
        <time>2019-05-30T15:03:40Z</time>
      </trkpt>
      <trkpt lat="49.3507" lon="4.07079">
        <ele>140</ele>
        <time>2019-05-30T15:03:41Z</time>
      </trkpt>
      <trkpt lat="49.35071" lon="4.07087">
        <ele>140</ele>
        <time>2019-05-30T15:03:42Z</time>
      </trkpt>
      <trkpt lat="49.35073" lon="4.07095">
        <ele>141</ele>
        <time>2019-05-30T15:03:43Z</time>
      </trkpt>
      <trkpt lat="49.35074" lon="4.07101">
        <ele>140</ele>
        <time>2019-05-30T15:03:44Z</time>
      </trkpt>
      <trkpt lat="49.35074" lon="4.07108">
        <ele>140</ele>
        <time>2019-05-30T15:03:45Z</time>
      </trkpt>
      <trkpt lat="49.35075" lon="4.07115">
        <ele>140</ele>
        <time>2019-05-30T15:03:46Z</time>
      </trkpt>
      <trkpt lat="49.35076" lon="4.0712">
        <ele>140</ele>
        <time>2019-05-30T15:03:47Z</time>
      </trkpt>
      <trkpt lat="49.35077" lon="4.07126">
        <ele>140</ele>
        <time>2019-05-30T15:03:48Z</time>
      </trkpt>
      <trkpt lat="49.35079" lon="4.07133">
        <ele>140</ele>
        <time>2019-05-30T15:03:49Z</time>
      </trkpt>
      <trkpt lat="49.35081" lon="4.0714">
        <ele>140</ele>
        <time>2019-05-30T15:03:50Z</time>
      </trkpt>
      <trkpt lat="49.35083" lon="4.07148">
        <ele>140</ele>
        <time>2019-05-30T15:03:51Z</time>
      </trkpt>
      <trkpt lat="49.35085" lon="4.07154">
        <ele>139</ele>
        <time>2019-05-30T15:03:52Z</time>
      </trkpt>
      <trkpt lat="49.35087" lon="4.07162">
        <ele>139</ele>
        <time>2019-05-30T15:03:53Z</time>
      </trkpt>
      <trkpt lat="49.35088" lon="4.0717">
        <ele>140</ele>
        <time>2019-05-30T15:03:54Z</time>
      </trkpt>
      <trkpt lat="49.35089" lon="4.07177">
        <ele>140</ele>
        <time>2019-05-30T15:03:55Z</time>
      </trkpt>
      <trkpt lat="49.35091" lon="4.07184">
        <ele>139</ele>
        <time>2019-05-30T15:03:56Z</time>
      </trkpt>
      <trkpt lat="49.35093" lon="4.07191">
        <ele>140</ele>
        <time>2019-05-30T15:03:57Z</time>
      </trkpt>
      <trkpt lat="49.35094" lon="4.07197">
        <ele>140</ele>
        <time>2019-05-30T15:03:58Z</time>
      </trkpt>
      <trkpt lat="49.35096" lon="4.07204">
        <ele>140</ele>
        <time>2019-05-30T15:03:59Z</time>
      </trkpt>
      <trkpt lat="49.35098" lon="4.0721">
        <ele>140</ele>
        <time>2019-05-30T15:04:00Z</time>
      </trkpt>
      <trkpt lat="49.35099" lon="4.07214">
        <ele>140</ele>
        <time>2019-05-30T15:04:01Z</time>
      </trkpt>
      <trkpt lat="49.35101" lon="4.07218">
        <ele>140</ele>
        <time>2019-05-30T15:04:02Z</time>
      </trkpt>
      <trkpt lat="49.35102" lon="4.0722">
        <ele>140</ele>
        <time>2019-05-30T15:04:03Z</time>
      </trkpt>
      <trkpt lat="49.35102" lon="4.07222">
        <ele>140</ele>
        <time>2019-05-30T15:04:04Z</time>
      </trkpt>
      <trkpt lat="49.35102" lon="4.07222">
        <ele>140</ele>
        <time>2019-05-30T15:04:05Z</time>
      </trkpt>
      <trkpt lat="49.35102" lon="4.07222">
        <ele>140</ele>
        <time>2019-05-30T15:04:07Z</time>
      </trkpt>
      <trkpt lat="49.35102" lon="4.07222">
        <ele>140</ele>
        <time>2019-05-30T15:04:08Z</time>
      </trkpt>
      <trkpt lat="49.35102" lon="4.07222">
        <ele>140</ele>
        <time>2019-05-30T15:04:09Z</time>
      </trkpt>
      <trkpt lat="49.35102" lon="4.07222">
        <ele>140</ele>
        <time>2019-05-30T15:04:10Z</time>
      </trkpt>
      <trkpt lat="49.35102" lon="4.07222">
        <ele>140</ele>
        <time>2019-05-30T15:04:11Z</time>
      </trkpt>
      <trkpt lat="49.35102" lon="4.07222">
        <ele>140</ele>
        <time>2019-05-30T15:04:12Z</time>
      </trkpt>
      <trkpt lat="49.35102" lon="4.07222">
        <ele>140</ele>
        <time>2019-05-30T15:04:13Z</time>
      </trkpt>
      <trkpt lat="49.35102" lon="4.07222">
        <ele>140</ele>
        <time>2019-05-30T15:04:14Z</time>
      </trkpt>
      <trkpt lat="49.35102" lon="4.07222">
        <ele>140</ele>
        <time>2019-05-30T15:04:15Z</time>
      </trkpt>
      <trkpt lat="49.35102" lon="4.07222">
        <ele>140</ele>
        <time>2019-05-30T15:04:16Z</time>
      </trkpt>
      <trkpt lat="49.35102" lon="4.07222">
        <ele>140</ele>
        <time>2019-05-30T15:04:17Z</time>
      </trkpt>
      <trkpt lat="49.35102" lon="4.07224">
        <ele>139</ele>
        <time>2019-05-30T15:04:18Z</time>
      </trkpt>
      <trkpt lat="49.35103" lon="4.07226">
        <ele>139</ele>
        <time>2019-05-30T15:04:19Z</time>
      </trkpt>
      <trkpt lat="49.35104" lon="4.07228">
        <ele>139</ele>
        <time>2019-05-30T15:04:20Z</time>
      </trkpt>
      <trkpt lat="49.35106" lon="4.07229">
        <ele>140</ele>
        <time>2019-05-30T15:04:21Z</time>
      </trkpt>
      <trkpt lat="49.35108" lon="4.0723">
        <ele>140</ele>
        <time>2019-05-30T15:04:22Z</time>
      </trkpt>
      <trkpt lat="49.35111" lon="4.07231">
        <ele>140</ele>
        <time>2019-05-30T15:04:23Z</time>
      </trkpt>
      <trkpt lat="49.35114" lon="4.07231">
        <ele>140</ele>
        <time>2019-05-30T15:04:24Z</time>
      </trkpt>
      <trkpt lat="49.35118" lon="4.07231">
        <ele>140</ele>
        <time>2019-05-30T15:04:25Z</time>
      </trkpt>
      <trkpt lat="49.35121" lon="4.07229">
        <ele>140</ele>
        <time>2019-05-30T15:04:26Z</time>
      </trkpt>
      <trkpt lat="49.35125" lon="4.07227">
        <ele>139</ele>
        <time>2019-05-30T15:04:27Z</time>
      </trkpt>
      <trkpt lat="49.35128" lon="4.07226">
        <ele>139</ele>
        <time>2019-05-30T15:04:28Z</time>
      </trkpt>
      <trkpt lat="49.35132" lon="4.07224">
        <ele>140</ele>
        <time>2019-05-30T15:04:29Z</time>
      </trkpt>
      <trkpt lat="49.35135" lon="4.07222">
        <ele>140</ele>
        <time>2019-05-30T15:04:30Z</time>
      </trkpt>
      <trkpt lat="49.35139" lon="4.07219">
        <ele>139</ele>
        <time>2019-05-30T15:04:31Z</time>
      </trkpt>
      <trkpt lat="49.35143" lon="4.07217">
        <ele>140</ele>
        <time>2019-05-30T15:04:32Z</time>
      </trkpt>
      <trkpt lat="49.35147" lon="4.07214">
        <ele>140</ele>
        <time>2019-05-30T15:04:33Z</time>
      </trkpt>
      <trkpt lat="49.35152" lon="4.07212">
        <ele>139</ele>
        <time>2019-05-30T15:04:34Z</time>
      </trkpt>
      <trkpt lat="49.35157" lon="4.07209">
        <ele>139</ele>
        <time>2019-05-30T15:04:35Z</time>
      </trkpt>
      <trkpt lat="49.35162" lon="4.07206">
        <ele>139</ele>
        <time>2019-05-30T15:04:36Z</time>
      </trkpt>
      <trkpt lat="49.35167" lon="4.07204">
        <ele>139</ele>
        <time>2019-05-30T15:04:37Z</time>
      </trkpt>
      <trkpt lat="49.35173" lon="4.07201">
        <ele>139</ele>
        <time>2019-05-30T15:04:38Z</time>
      </trkpt>
      <trkpt lat="49.35177" lon="4.07198">
        <ele>139</ele>
        <time>2019-05-30T15:04:39Z</time>
      </trkpt>
      <trkpt lat="49.35183" lon="4.07195">
        <ele>139</ele>
        <time>2019-05-30T15:04:40Z</time>
      </trkpt>
      <trkpt lat="49.35189" lon="4.07192">
        <ele>139</ele>
        <time>2019-05-30T15:04:41Z</time>
      </trkpt>
      <trkpt lat="49.35195" lon="4.07188">
        <ele>139</ele>
        <time>2019-05-30T15:04:42Z</time>
      </trkpt>
      <trkpt lat="49.352" lon="4.07185">
        <ele>139</ele>
        <time>2019-05-30T15:04:43Z</time>
      </trkpt>
      <trkpt lat="49.35206" lon="4.07182">
        <ele>139</ele>
        <time>2019-05-30T15:04:44Z</time>
      </trkpt>
      <trkpt lat="49.35211" lon="4.07178">
        <ele>139</ele>
        <time>2019-05-30T15:04:45Z</time>
      </trkpt>
      <trkpt lat="49.35217" lon="4.07174">
        <ele>139</ele>
        <time>2019-05-30T15:04:46Z</time>
      </trkpt>
      <trkpt lat="49.35223" lon="4.0717">
        <ele>139</ele>
        <time>2019-05-30T15:04:47Z</time>
      </trkpt>
      <trkpt lat="49.35229" lon="4.07166">
        <ele>138</ele>
        <time>2019-05-30T15:04:48Z</time>
      </trkpt>
      <trkpt lat="49.35234" lon="4.07162">
        <ele>138</ele>
        <time>2019-05-30T15:04:49Z</time>
      </trkpt>
      <trkpt lat="49.35241" lon="4.07158">
        <ele>138</ele>
        <time>2019-05-30T15:04:50Z</time>
      </trkpt>
      <trkpt lat="49.35247" lon="4.07154">
        <ele>137</ele>
        <time>2019-05-30T15:04:51Z</time>
      </trkpt>
      <trkpt lat="49.35254" lon="4.07149">
        <ele>137</ele>
        <time>2019-05-30T15:04:52Z</time>
      </trkpt>
      <trkpt lat="49.35261" lon="4.07144">
        <ele>137</ele>
        <time>2019-05-30T15:04:53Z</time>
      </trkpt>
      <trkpt lat="49.35268" lon="4.07138">
        <ele>136</ele>
        <time>2019-05-30T15:04:54Z</time>
      </trkpt>
      <trkpt lat="49.35275" lon="4.07132">
        <ele>136</ele>
        <time>2019-05-30T15:04:55Z</time>
      </trkpt>
      <trkpt lat="49.35282" lon="4.07128">
        <ele>136</ele>
        <time>2019-05-30T15:04:56Z</time>
      </trkpt>
      <trkpt lat="49.35289" lon="4.07123">
        <ele>136</ele>
        <time>2019-05-30T15:04:57Z</time>
      </trkpt>
      <trkpt lat="49.35296" lon="4.07117">
        <ele>135</ele>
        <time>2019-05-30T15:04:58Z</time>
      </trkpt>
      <trkpt lat="49.35304" lon="4.07112">
        <ele>135</ele>
        <time>2019-05-30T15:04:59Z</time>
      </trkpt>
      <trkpt lat="49.35311" lon="4.07106">
        <ele>134</ele>
        <time>2019-05-30T15:05:00Z</time>
      </trkpt>
      <trkpt lat="49.35319" lon="4.07101">
        <ele>134</ele>
        <time>2019-05-30T15:05:01Z</time>
      </trkpt>
      <trkpt lat="49.35327" lon="4.07095">
        <ele>133</ele>
        <time>2019-05-30T15:05:02Z</time>
      </trkpt>
      <trkpt lat="49.35334" lon="4.07089">
        <ele>133</ele>
        <time>2019-05-30T15:05:03Z</time>
      </trkpt>
      <trkpt lat="49.35342" lon="4.07083">
        <ele>133</ele>
        <time>2019-05-30T15:05:04Z</time>
      </trkpt>
      <trkpt lat="49.3535" lon="4.07077">
        <ele>133</ele>
        <time>2019-05-30T15:05:05Z</time>
      </trkpt>
      <trkpt lat="49.35358" lon="4.07071">
        <ele>133</ele>
        <time>2019-05-30T15:05:06Z</time>
      </trkpt>
      <trkpt lat="49.35366" lon="4.07065">
        <ele>132</ele>
        <time>2019-05-30T15:05:07Z</time>
      </trkpt>
      <trkpt lat="49.35375" lon="4.07059">
        <ele>132</ele>
        <time>2019-05-30T15:05:08Z</time>
      </trkpt>
      <trkpt lat="49.35383" lon="4.07053">
        <ele>132</ele>
        <time>2019-05-30T15:05:09Z</time>
      </trkpt>
      <trkpt lat="49.35391" lon="4.07047">
        <ele>132</ele>
        <time>2019-05-30T15:05:10Z</time>
      </trkpt>
      <trkpt lat="49.35399" lon="4.07041">
        <ele>131</ele>
        <time>2019-05-30T15:05:11Z</time>
      </trkpt>
      <trkpt lat="49.35407" lon="4.07035">
        <ele>131</ele>
        <time>2019-05-30T15:05:12Z</time>
      </trkpt>
      <trkpt lat="49.35415" lon="4.0703">
        <ele>131</ele>
        <time>2019-05-30T15:05:13Z</time>
      </trkpt>
      <trkpt lat="49.35423" lon="4.07024">
        <ele>130</ele>
        <time>2019-05-30T15:05:14Z</time>
      </trkpt>
      <trkpt lat="49.35432" lon="4.07017">
        <ele>130</ele>
        <time>2019-05-30T15:05:15Z</time>
      </trkpt>
      <trkpt lat="49.3544" lon="4.07011">
        <ele>130</ele>
        <time>2019-05-30T15:05:16Z</time>
      </trkpt>
      <trkpt lat="49.35449" lon="4.07004">
        <ele>130</ele>
        <time>2019-05-30T15:05:17Z</time>
      </trkpt>
      <trkpt lat="49.35457" lon="4.06998">
        <ele>130</ele>
        <time>2019-05-30T15:05:18Z</time>
      </trkpt>
      <trkpt lat="49.35465" lon="4.06992">
        <ele>130</ele>
        <time>2019-05-30T15:05:19Z</time>
      </trkpt>
      <trkpt lat="49.35473" lon="4.06986">
        <ele>130</ele>
        <time>2019-05-30T15:05:20Z</time>
      </trkpt>
      <trkpt lat="49.35481" lon="4.06981">
        <ele>130</ele>
        <time>2019-05-30T15:05:21Z</time>
      </trkpt>
      <trkpt lat="49.35488" lon="4.06975">
        <ele>130</ele>
        <time>2019-05-30T15:05:22Z</time>
      </trkpt>
      <trkpt lat="49.35496" lon="4.0697">
        <ele>130</ele>
        <time>2019-05-30T15:05:23Z</time>
      </trkpt>
      <trkpt lat="49.35504" lon="4.06966">
        <ele>129</ele>
        <time>2019-05-30T15:05:24Z</time>
      </trkpt>
      <trkpt lat="49.35512" lon="4.06962">
        <ele>130</ele>
        <time>2019-05-30T15:05:25Z</time>
      </trkpt>
      <trkpt lat="49.3552" lon="4.06959">
        <ele>130</ele>
        <time>2019-05-30T15:05:26Z</time>
      </trkpt>
      <trkpt lat="49.35528" lon="4.06956">
        <ele>130</ele>
        <time>2019-05-30T15:05:27Z</time>
      </trkpt>
      <trkpt lat="49.35536" lon="4.06953">
        <ele>130</ele>
        <time>2019-05-30T15:05:28Z</time>
      </trkpt>
      <trkpt lat="49.35544" lon="4.0695">
        <ele>130</ele>
        <time>2019-05-30T15:05:29Z</time>
      </trkpt>
      <trkpt lat="49.35552" lon="4.06949">
        <ele>129</ele>
        <time>2019-05-30T15:05:30Z</time>
      </trkpt>
      <trkpt lat="49.35561" lon="4.06946">
        <ele>129</ele>
        <time>2019-05-30T15:05:31Z</time>
      </trkpt>
      <trkpt lat="49.35569" lon="4.06944">
        <ele>129</ele>
        <time>2019-05-30T15:05:32Z</time>
      </trkpt>
      <trkpt lat="49.35577" lon="4.06942">
        <ele>129</ele>
        <time>2019-05-30T15:05:33Z</time>
      </trkpt>
      <trkpt lat="49.35585" lon="4.06939">
        <ele>129</ele>
        <time>2019-05-30T15:05:34Z</time>
      </trkpt>
      <trkpt lat="49.35593" lon="4.06937">
        <ele>129</ele>
        <time>2019-05-30T15:05:35Z</time>
      </trkpt>
      <trkpt lat="49.356" lon="4.06935">
        <ele>129</ele>
        <time>2019-05-30T15:05:36Z</time>
      </trkpt>
      <trkpt lat="49.35608" lon="4.06932">
        <ele>129</ele>
        <time>2019-05-30T15:05:37Z</time>
      </trkpt>
      <trkpt lat="49.35616" lon="4.0693">
        <ele>129</ele>
        <time>2019-05-30T15:05:38Z</time>
      </trkpt>
      <trkpt lat="49.35624" lon="4.06927">
        <ele>129</ele>
        <time>2019-05-30T15:05:39Z</time>
      </trkpt>
      <trkpt lat="49.35632" lon="4.06923">
        <ele>128</ele>
        <time>2019-05-30T15:05:40Z</time>
      </trkpt>
      <trkpt lat="49.35639" lon="4.06919">
        <ele>128</ele>
        <time>2019-05-30T15:05:41Z</time>
      </trkpt>
      <trkpt lat="49.35647" lon="4.06915">
        <ele>128</ele>
        <time>2019-05-30T15:05:42Z</time>
      </trkpt>
      <trkpt lat="49.35655" lon="4.06912">
        <ele>128</ele>
        <time>2019-05-30T15:05:43Z</time>
      </trkpt>
      <trkpt lat="49.35662" lon="4.06908">
        <ele>128</ele>
        <time>2019-05-30T15:05:44Z</time>
      </trkpt>
      <trkpt lat="49.3567" lon="4.06904">
        <ele>128</ele>
        <time>2019-05-30T15:05:45Z</time>
      </trkpt>
      <trkpt lat="49.35677" lon="4.06899">
        <ele>128</ele>
        <time>2019-05-30T15:05:46Z</time>
      </trkpt>
      <trkpt lat="49.35684" lon="4.06895">
        <ele>128</ele>
        <time>2019-05-30T15:05:47Z</time>
      </trkpt>
      <trkpt lat="49.35691" lon="4.0689">
        <ele>128</ele>
        <time>2019-05-30T15:05:48Z</time>
      </trkpt>
      <trkpt lat="49.35698" lon="4.06886">
        <ele>127</ele>
        <time>2019-05-30T15:05:49Z</time>
      </trkpt>
      <trkpt lat="49.35706" lon="4.06882">
        <ele>127</ele>
        <time>2019-05-30T15:05:50Z</time>
      </trkpt>
      <trkpt lat="49.35714" lon="4.06877">
        <ele>127</ele>
        <time>2019-05-30T15:05:51Z</time>
      </trkpt>
      <trkpt lat="49.35722" lon="4.06872">
        <ele>127</ele>
        <time>2019-05-30T15:05:52Z</time>
      </trkpt>
      <trkpt lat="49.3573" lon="4.06867">
        <ele>126</ele>
        <time>2019-05-30T15:05:53Z</time>
      </trkpt>
      <trkpt lat="49.35738" lon="4.06862">
        <ele>126</ele>
        <time>2019-05-30T15:05:54Z</time>
      </trkpt>
      <trkpt lat="49.35746" lon="4.06857">
        <ele>126</ele>
        <time>2019-05-30T15:05:55Z</time>
      </trkpt>
      <trkpt lat="49.35753" lon="4.06853">
        <ele>126</ele>
        <time>2019-05-30T15:05:56Z</time>
      </trkpt>
      <trkpt lat="49.35761" lon="4.06849">
        <ele>125</ele>
        <time>2019-05-30T15:05:57Z</time>
      </trkpt>
      <trkpt lat="49.35769" lon="4.06844">
        <ele>125</ele>
        <time>2019-05-30T15:05:58Z</time>
      </trkpt>
      <trkpt lat="49.35777" lon="4.0684">
        <ele>125</ele>
        <time>2019-05-30T15:05:59Z</time>
      </trkpt>
      <trkpt lat="49.35785" lon="4.06836">
        <ele>124</ele>
        <time>2019-05-30T15:06:00Z</time>
      </trkpt>
      <trkpt lat="49.35793" lon="4.06831">
        <ele>125</ele>
        <time>2019-05-30T15:06:01Z</time>
      </trkpt>
      <trkpt lat="49.358" lon="4.06826">
        <ele>125</ele>
        <time>2019-05-30T15:06:02Z</time>
      </trkpt>
      <trkpt lat="49.35807" lon="4.06821">
        <ele>124</ele>
        <time>2019-05-30T15:06:03Z</time>
      </trkpt>
      <trkpt lat="49.35815" lon="4.06817">
        <ele>124</ele>
        <time>2019-05-30T15:06:04Z</time>
      </trkpt>
      <trkpt lat="49.35822" lon="4.06812">
        <ele>124</ele>
        <time>2019-05-30T15:06:05Z</time>
      </trkpt>
      <trkpt lat="49.35829" lon="4.06808">
        <ele>124</ele>
        <time>2019-05-30T15:06:06Z</time>
      </trkpt>
      <trkpt lat="49.35836" lon="4.06804">
        <ele>124</ele>
        <time>2019-05-30T15:06:07Z</time>
      </trkpt>
      <trkpt lat="49.35843" lon="4.068">
        <ele>124</ele>
        <time>2019-05-30T15:06:08Z</time>
      </trkpt>
      <trkpt lat="49.3585" lon="4.06796">
        <ele>124</ele>
        <time>2019-05-30T15:06:09Z</time>
      </trkpt>
      <trkpt lat="49.35856" lon="4.06792">
        <ele>124</ele>
        <time>2019-05-30T15:06:10Z</time>
      </trkpt>
      <trkpt lat="49.35863" lon="4.06789">
        <ele>124</ele>
        <time>2019-05-30T15:06:11Z</time>
      </trkpt>
      <trkpt lat="49.35869" lon="4.06785">
        <ele>124</ele>
        <time>2019-05-30T15:06:12Z</time>
      </trkpt>
      <trkpt lat="49.35876" lon="4.06782">
        <ele>124</ele>
        <time>2019-05-30T15:06:13Z</time>
      </trkpt>
      <trkpt lat="49.35882" lon="4.06779">
        <ele>124</ele>
        <time>2019-05-30T15:06:14Z</time>
      </trkpt>
      <trkpt lat="49.35889" lon="4.06777">
        <ele>124</ele>
        <time>2019-05-30T15:06:15Z</time>
      </trkpt>
      <trkpt lat="49.35895" lon="4.06775">
        <ele>124</ele>
        <time>2019-05-30T15:06:16Z</time>
      </trkpt>
      <trkpt lat="49.35901" lon="4.06774">
        <ele>123</ele>
        <time>2019-05-30T15:06:17Z</time>
      </trkpt>
      <trkpt lat="49.35907" lon="4.06772">
        <ele>123</ele>
        <time>2019-05-30T15:06:18Z</time>
      </trkpt>
      <trkpt lat="49.35914" lon="4.0677">
        <ele>123</ele>
        <time>2019-05-30T15:06:19Z</time>
      </trkpt>
      <trkpt lat="49.35919" lon="4.06769">
        <ele>123</ele>
        <time>2019-05-30T15:06:20Z</time>
      </trkpt>
      <trkpt lat="49.35925" lon="4.06769">
        <ele>123</ele>
        <time>2019-05-30T15:06:21Z</time>
      </trkpt>
      <trkpt lat="49.3593" lon="4.06767">
        <ele>123</ele>
        <time>2019-05-30T15:06:22Z</time>
      </trkpt>
      <trkpt lat="49.35932" lon="4.06765">
        <ele>124</ele>
        <time>2019-05-30T15:06:23Z</time>
      </trkpt>
      <trkpt lat="49.35933" lon="4.06761">
        <ele>124</ele>
        <time>2019-05-30T15:06:24Z</time>
      </trkpt>
      <trkpt lat="49.35933" lon="4.06759">
        <ele>124</ele>
        <time>2019-05-30T15:06:25Z</time>
      </trkpt>
      <trkpt lat="49.35932" lon="4.06758">
        <ele>124</ele>
        <time>2019-05-30T15:06:26Z</time>
      </trkpt>
      <trkpt lat="49.35932" lon="4.06758">
        <ele>125</ele>
        <time>2019-05-30T15:06:27Z</time>
      </trkpt>
      <trkpt lat="49.35932" lon="4.06758">
        <ele>125</ele>
        <time>2019-05-30T15:06:28Z</time>
      </trkpt>
      <trkpt lat="49.35932" lon="4.06758">
        <ele>125</ele>
        <time>2019-05-30T15:06:29Z</time>
      </trkpt>
      <trkpt lat="49.35932" lon="4.06758">
        <ele>125</ele>
        <time>2019-05-30T15:06:30Z</time>
      </trkpt>
      <trkpt lat="49.35932" lon="4.06758">
        <ele>125</ele>
        <time>2019-05-30T15:06:31Z</time>
      </trkpt>
      <trkpt lat="49.35932" lon="4.06758">
        <ele>125</ele>
        <time>2019-05-30T15:06:32Z</time>
      </trkpt>
      <trkpt lat="49.35932" lon="4.06758">
        <ele>125</ele>
        <time>2019-05-30T15:06:33Z</time>
      </trkpt>
      <trkpt lat="49.35932" lon="4.06758">
        <ele>125</ele>
        <time>2019-05-30T15:06:34Z</time>
      </trkpt>
      <trkpt lat="49.35932" lon="4.06758">
        <ele>125</ele>
        <time>2019-05-30T15:06:35Z</time>
      </trkpt>
      <trkpt lat="49.35932" lon="4.06758">
        <ele>125</ele>
        <time>2019-05-30T15:06:36Z</time>
      </trkpt>
      <trkpt lat="49.35932" lon="4.06758">
        <ele>125</ele>
        <time>2019-05-30T15:06:37Z</time>
      </trkpt>
      <trkpt lat="49.35932" lon="4.06758">
        <ele>125</ele>
        <time>2019-05-30T15:06:38Z</time>
      </trkpt>
      <trkpt lat="49.35932" lon="4.06758">
        <ele>125</ele>
        <time>2019-05-30T15:06:39Z</time>
      </trkpt>
      <trkpt lat="49.35932" lon="4.06758">
        <ele>125</ele>
        <time>2019-05-30T15:06:40Z</time>
      </trkpt>
      <trkpt lat="49.35932" lon="4.06758">
        <ele>125</ele>
        <time>2019-05-30T15:06:41Z</time>
      </trkpt>
      <trkpt lat="49.35932" lon="4.06758">
        <ele>125</ele>
        <time>2019-05-30T15:06:42Z</time>
      </trkpt>
      <trkpt lat="49.35932" lon="4.06758">
        <ele>125</ele>
        <time>2019-05-30T15:06:43Z</time>
      </trkpt>
      <trkpt lat="49.35932" lon="4.06758">
        <ele>125</ele>
        <time>2019-05-30T15:06:44Z</time>
      </trkpt>
      <trkpt lat="49.35932" lon="4.06758">
        <ele>125</ele>
        <time>2019-05-30T15:06:45Z</time>
      </trkpt>
      <trkpt lat="49.35932" lon="4.06758">
        <ele>125</ele>
        <time>2019-05-30T15:06:46Z</time>
      </trkpt>
      <trkpt lat="49.35932" lon="4.06758">
        <ele>125</ele>
        <time>2019-05-30T15:06:47Z</time>
      </trkpt>
      <trkpt lat="49.35932" lon="4.06758">
        <ele>125</ele>
        <time>2019-05-30T15:06:48Z</time>
      </trkpt>
      <trkpt lat="49.35932" lon="4.06758">
        <ele>125</ele>
        <time>2019-05-30T15:06:49Z</time>
      </trkpt>
      <trkpt lat="49.35932" lon="4.06758">
        <ele>125</ele>
        <time>2019-05-30T15:06:50Z</time>
      </trkpt>
      <trkpt lat="49.35932" lon="4.06758">
        <ele>125</ele>
        <time>2019-05-30T15:06:51Z</time>
      </trkpt>
      <trkpt lat="49.35932" lon="4.06758">
        <ele>125</ele>
        <time>2019-05-30T15:06:52Z</time>
      </trkpt>
      <trkpt lat="49.35932" lon="4.06758">
        <ele>125</ele>
        <time>2019-05-30T15:06:53Z</time>
      </trkpt>
      <trkpt lat="49.35932" lon="4.06758">
        <ele>125</ele>
        <time>2019-05-30T15:06:54Z</time>
      </trkpt>
      <trkpt lat="49.35932" lon="4.06758">
        <ele>125</ele>
        <time>2019-05-30T15:06:55Z</time>
      </trkpt>
      <trkpt lat="49.35932" lon="4.06758">
        <ele>125</ele>
        <time>2019-05-30T15:06:56Z</time>
      </trkpt>
      <trkpt lat="49.35932" lon="4.06758">
        <ele>125</ele>
        <time>2019-05-30T15:06:57Z</time>
      </trkpt>
      <trkpt lat="49.35932" lon="4.06758">
        <ele>125</ele>
        <time>2019-05-30T15:06:58Z</time>
      </trkpt>
      <trkpt lat="49.35932" lon="4.06758">
        <ele>125</ele>
        <time>2019-05-30T15:06:59Z</time>
      </trkpt>
      <trkpt lat="49.35932" lon="4.06758">
        <ele>125</ele>
        <time>2019-05-30T15:07:00Z</time>
      </trkpt>
      <trkpt lat="49.35932" lon="4.06758">
        <ele>125</ele>
        <time>2019-05-30T15:07:01Z</time>
      </trkpt>
      <trkpt lat="49.35932" lon="4.06758">
        <ele>125</ele>
        <time>2019-05-30T15:07:02Z</time>
      </trkpt>
      <trkpt lat="49.35932" lon="4.06758">
        <ele>125</ele>
        <time>2019-05-30T15:07:03Z</time>
      </trkpt>
      <trkpt lat="49.35932" lon="4.06758">
        <ele>125</ele>
        <time>2019-05-30T15:07:04Z</time>
      </trkpt>
      <trkpt lat="49.35932" lon="4.06758">
        <ele>125</ele>
        <time>2019-05-30T15:07:05Z</time>
      </trkpt>
      <trkpt lat="49.35932" lon="4.06758">
        <ele>125</ele>
        <time>2019-05-30T15:07:06Z</time>
      </trkpt>
      <trkpt lat="49.35932" lon="4.06758">
        <ele>125</ele>
        <time>2019-05-30T15:07:07Z</time>
      </trkpt>
      <trkpt lat="49.35932" lon="4.06758">
        <ele>125</ele>
        <time>2019-05-30T15:07:08Z</time>
      </trkpt>
      <trkpt lat="49.35932" lon="4.06758">
        <ele>125</ele>
        <time>2019-05-30T15:07:09Z</time>
      </trkpt>
      <trkpt lat="49.35932" lon="4.06758">
        <ele>125</ele>
        <time>2019-05-30T15:07:10Z</time>
      </trkpt>
      <trkpt lat="49.35932" lon="4.06758">
        <ele>125</ele>
        <time>2019-05-30T15:07:11Z</time>
      </trkpt>
      <trkpt lat="49.35932" lon="4.06758">
        <ele>125</ele>
        <time>2019-05-30T15:07:12Z</time>
      </trkpt>
      <trkpt lat="49.35932" lon="4.06758">
        <ele>125</ele>
        <time>2019-05-30T15:07:13Z</time>
      </trkpt>
      <trkpt lat="49.35932" lon="4.06758">
        <ele>125</ele>
        <time>2019-05-30T15:07:14Z</time>
      </trkpt>
      <trkpt lat="49.35932" lon="4.06758">
        <ele>125</ele>
        <time>2019-05-30T15:07:15Z</time>
      </trkpt>
      <trkpt lat="49.35932" lon="4.06758">
        <ele>125</ele>
        <time>2019-05-30T15:07:16Z</time>
      </trkpt>
      <trkpt lat="49.35932" lon="4.06758">
        <ele>125</ele>
        <time>2019-05-30T15:07:17Z</time>
      </trkpt>
      <trkpt lat="49.35932" lon="4.06758">
        <ele>125</ele>
        <time>2019-05-30T15:07:18Z</time>
      </trkpt>
      <trkpt lat="49.35932" lon="4.06758">
        <ele>125</ele>
        <time>2019-05-30T15:07:19Z</time>
      </trkpt>
      <trkpt lat="49.35932" lon="4.0676">
        <ele>125</ele>
        <time>2019-05-30T15:07:20Z</time>
      </trkpt>
      <trkpt lat="49.35932" lon="4.0676">
        <ele>125</ele>
        <time>2019-05-30T15:07:21Z</time>
      </trkpt>
      <trkpt lat="49.35932" lon="4.0676">
        <ele>124</ele>
        <time>2019-05-30T15:07:22Z</time>
      </trkpt>
      <trkpt lat="49.35932" lon="4.0676">
        <ele>125</ele>
        <time>2019-05-30T15:07:23Z</time>
      </trkpt>
      <trkpt lat="49.35932" lon="4.0676">
        <ele>125</ele>
        <time>2019-05-30T15:07:24Z</time>
      </trkpt>
      <trkpt lat="49.35932" lon="4.0676">
        <ele>125</ele>
        <time>2019-05-30T15:07:25Z</time>
      </trkpt>
      <trkpt lat="49.35932" lon="4.0676">
        <ele>125</ele>
        <time>2019-05-30T15:07:26Z</time>
      </trkpt>
      <trkpt lat="49.35932" lon="4.0676">
        <ele>125</ele>
        <time>2019-05-30T15:07:27Z</time>
      </trkpt>
      <trkpt lat="49.35933" lon="4.06761">
        <ele>124</ele>
        <time>2019-05-30T15:07:28Z</time>
      </trkpt>
      <trkpt lat="49.35935" lon="4.06763">
        <ele>125</ele>
        <time>2019-05-30T15:07:29Z</time>
      </trkpt>
      <trkpt lat="49.35938" lon="4.06764">
        <ele>125</ele>
        <time>2019-05-30T15:07:30Z</time>
      </trkpt>
      <trkpt lat="49.3594" lon="4.06765">
        <ele>125</ele>
        <time>2019-05-30T15:07:31Z</time>
      </trkpt>
      <trkpt lat="49.35944" lon="4.06764">
        <ele>125</ele>
        <time>2019-05-30T15:07:32Z</time>
      </trkpt>
      <trkpt lat="49.35947" lon="4.06764">
        <ele>125</ele>
        <time>2019-05-30T15:07:33Z</time>
      </trkpt>
      <trkpt lat="49.3595" lon="4.06765">
        <ele>125</ele>
        <time>2019-05-30T15:07:34Z</time>
      </trkpt>
      <trkpt lat="49.35954" lon="4.06766">
        <ele>125</ele>
        <time>2019-05-30T15:07:35Z</time>
      </trkpt>
      <trkpt lat="49.35958" lon="4.06767">
        <ele>124</ele>
        <time>2019-05-30T15:07:36Z</time>
      </trkpt>
      <trkpt lat="49.35962" lon="4.06768">
        <ele>123</ele>
        <time>2019-05-30T15:07:37Z</time>
      </trkpt>
      <trkpt lat="49.35967" lon="4.06769">
        <ele>123</ele>
        <time>2019-05-30T15:07:38Z</time>
      </trkpt>
      <trkpt lat="49.35972" lon="4.0677">
        <ele>123</ele>
        <time>2019-05-30T15:07:39Z</time>
      </trkpt>
      <trkpt lat="49.35978" lon="4.06772">
        <ele>123</ele>
        <time>2019-05-30T15:07:40Z</time>
      </trkpt>
      <trkpt lat="49.35984" lon="4.06774">
        <ele>123</ele>
        <time>2019-05-30T15:07:41Z</time>
      </trkpt>
      <trkpt lat="49.35989" lon="4.06775">
        <ele>123</ele>
        <time>2019-05-30T15:07:42Z</time>
      </trkpt>
      <trkpt lat="49.35994" lon="4.06776">
        <ele>122</ele>
        <time>2019-05-30T15:07:43Z</time>
      </trkpt>
      <trkpt lat="49.35999" lon="4.06777">
        <ele>122</ele>
        <time>2019-05-30T15:07:44Z</time>
      </trkpt>
      <trkpt lat="49.36004" lon="4.06778">
        <ele>122</ele>
        <time>2019-05-30T15:07:45Z</time>
      </trkpt>
      <trkpt lat="49.36009" lon="4.0678">
        <ele>122</ele>
        <time>2019-05-30T15:07:46Z</time>
      </trkpt>
      <trkpt lat="49.36014" lon="4.06782">
        <ele>122</ele>
        <time>2019-05-30T15:07:47Z</time>
      </trkpt>
      <trkpt lat="49.36019" lon="4.06783">
        <ele>122</ele>
        <time>2019-05-30T15:07:48Z</time>
      </trkpt>
      <trkpt lat="49.36024" lon="4.06784">
        <ele>122</ele>
        <time>2019-05-30T15:07:49Z</time>
      </trkpt>
      <trkpt lat="49.36029" lon="4.06786">
        <ele>122</ele>
        <time>2019-05-30T15:07:50Z</time>
      </trkpt>
      <trkpt lat="49.36034" lon="4.06787">
        <ele>122</ele>
        <time>2019-05-30T15:07:51Z</time>
      </trkpt>
      <trkpt lat="49.36039" lon="4.06788">
        <ele>122</ele>
        <time>2019-05-30T15:07:52Z</time>
      </trkpt>
      <trkpt lat="49.36044" lon="4.06789">
        <ele>122</ele>
        <time>2019-05-30T15:07:53Z</time>
      </trkpt>
      <trkpt lat="49.36049" lon="4.06791">
        <ele>122</ele>
        <time>2019-05-30T15:07:54Z</time>
      </trkpt>
      <trkpt lat="49.36054" lon="4.06792">
        <ele>122</ele>
        <time>2019-05-30T15:07:55Z</time>
      </trkpt>
      <trkpt lat="49.36059" lon="4.06794">
        <ele>122</ele>
        <time>2019-05-30T15:07:56Z</time>
      </trkpt>
      <trkpt lat="49.36064" lon="4.06794">
        <ele>121</ele>
        <time>2019-05-30T15:07:57Z</time>
      </trkpt>
      <trkpt lat="49.36069" lon="4.06795">
        <ele>121</ele>
        <time>2019-05-30T15:07:58Z</time>
      </trkpt>
      <trkpt lat="49.36074" lon="4.06796">
        <ele>122</ele>
        <time>2019-05-30T15:07:59Z</time>
      </trkpt>
      <trkpt lat="49.36079" lon="4.06797">
        <ele>122</ele>
        <time>2019-05-30T15:08:00Z</time>
      </trkpt>
      <trkpt lat="49.36084" lon="4.06798">
        <ele>122</ele>
        <time>2019-05-30T15:08:01Z</time>
      </trkpt>
      <trkpt lat="49.36089" lon="4.06799">
        <ele>122</ele>
        <time>2019-05-30T15:08:02Z</time>
      </trkpt>
      <trkpt lat="49.36094" lon="4.068">
        <ele>122</ele>
        <time>2019-05-30T15:08:03Z</time>
      </trkpt>
      <trkpt lat="49.361" lon="4.06802">
        <ele>122</ele>
        <time>2019-05-30T15:08:04Z</time>
      </trkpt>
      <trkpt lat="49.36105" lon="4.06802">
        <ele>122</ele>
        <time>2019-05-30T15:08:05Z</time>
      </trkpt>
      <trkpt lat="49.3611" lon="4.06803">
        <ele>122</ele>
        <time>2019-05-30T15:08:06Z</time>
      </trkpt>
      <trkpt lat="49.36115" lon="4.06803">
        <ele>122</ele>
        <time>2019-05-30T15:08:07Z</time>
      </trkpt>
      <trkpt lat="49.36121" lon="4.06803">
        <ele>122</ele>
        <time>2019-05-30T15:08:08Z</time>
      </trkpt>
      <trkpt lat="49.36127" lon="4.06803">
        <ele>122</ele>
        <time>2019-05-30T15:08:09Z</time>
      </trkpt>
      <trkpt lat="49.36132" lon="4.06804">
        <ele>122</ele>
        <time>2019-05-30T15:08:10Z</time>
      </trkpt>
      <trkpt lat="49.36138" lon="4.06804">
        <ele>123</ele>
        <time>2019-05-30T15:08:11Z</time>
      </trkpt>
      <trkpt lat="49.36144" lon="4.06805">
        <ele>123</ele>
        <time>2019-05-30T15:08:12Z</time>
      </trkpt>
      <trkpt lat="49.3615" lon="4.06805">
        <ele>123</ele>
        <time>2019-05-30T15:08:13Z</time>
      </trkpt>
      <trkpt lat="49.36157" lon="4.06806">
        <ele>123</ele>
        <time>2019-05-30T15:08:14Z</time>
      </trkpt>
      <trkpt lat="49.36163" lon="4.06806">
        <ele>123</ele>
        <time>2019-05-30T15:08:15Z</time>
      </trkpt>
      <trkpt lat="49.36169" lon="4.06806">
        <ele>123</ele>
        <time>2019-05-30T15:08:16Z</time>
      </trkpt>
      <trkpt lat="49.36175" lon="4.06806">
        <ele>123</ele>
        <time>2019-05-30T15:08:17Z</time>
      </trkpt>
      <trkpt lat="49.36182" lon="4.06807">
        <ele>123</ele>
        <time>2019-05-30T15:08:18Z</time>
      </trkpt>
      <trkpt lat="49.36188" lon="4.06807">
        <ele>123</ele>
        <time>2019-05-30T15:08:19Z</time>
      </trkpt>
      <trkpt lat="49.36194" lon="4.06807">
        <ele>123</ele>
        <time>2019-05-30T15:08:20Z</time>
      </trkpt>
      <trkpt lat="49.36201" lon="4.06807">
        <ele>124</ele>
        <time>2019-05-30T15:08:21Z</time>
      </trkpt>
      <trkpt lat="49.36208" lon="4.06808">
        <ele>124</ele>
        <time>2019-05-30T15:08:22Z</time>
      </trkpt>
      <trkpt lat="49.36215" lon="4.06809">
        <ele>123</ele>
        <time>2019-05-30T15:08:23Z</time>
      </trkpt>
      <trkpt lat="49.36222" lon="4.06809">
        <ele>123</ele>
        <time>2019-05-30T15:08:24Z</time>
      </trkpt>
      <trkpt lat="49.36229" lon="4.06809">
        <ele>123</ele>
        <time>2019-05-30T15:08:25Z</time>
      </trkpt>
      <trkpt lat="49.36235" lon="4.0681">
        <ele>123</ele>
        <time>2019-05-30T15:08:26Z</time>
      </trkpt>
      <trkpt lat="49.36241" lon="4.0681">
        <ele>123</ele>
        <time>2019-05-30T15:08:27Z</time>
      </trkpt>
      <trkpt lat="49.36248" lon="4.0681">
        <ele>124</ele>
        <time>2019-05-30T15:08:28Z</time>
      </trkpt>
      <trkpt lat="49.36254" lon="4.06811">
        <ele>124</ele>
        <time>2019-05-30T15:08:29Z</time>
      </trkpt>
      <trkpt lat="49.36261" lon="4.06811">
        <ele>124</ele>
        <time>2019-05-30T15:08:30Z</time>
      </trkpt>
      <trkpt lat="49.36267" lon="4.06811">
        <ele>124</ele>
        <time>2019-05-30T15:08:31Z</time>
      </trkpt>
      <trkpt lat="49.36274" lon="4.06811">
        <ele>124</ele>
        <time>2019-05-30T15:08:32Z</time>
      </trkpt>
      <trkpt lat="49.3628" lon="4.06811">
        <ele>124</ele>
        <time>2019-05-30T15:08:33Z</time>
      </trkpt>
      <trkpt lat="49.36287" lon="4.06812">
        <ele>124</ele>
        <time>2019-05-30T15:08:34Z</time>
      </trkpt>
      <trkpt lat="49.36293" lon="4.06812">
        <ele>124</ele>
        <time>2019-05-30T15:08:35Z</time>
      </trkpt>
      <trkpt lat="49.36299" lon="4.06811">
        <ele>124</ele>
        <time>2019-05-30T15:08:36Z</time>
      </trkpt>
      <trkpt lat="49.36306" lon="4.06811">
        <ele>124</ele>
        <time>2019-05-30T15:08:37Z</time>
      </trkpt>
      <trkpt lat="49.36313" lon="4.06812">
        <ele>124</ele>
        <time>2019-05-30T15:08:38Z</time>
      </trkpt>
      <trkpt lat="49.36319" lon="4.06812">
        <ele>125</ele>
        <time>2019-05-30T15:08:39Z</time>
      </trkpt>
      <trkpt lat="49.36327" lon="4.06812">
        <ele>125</ele>
        <time>2019-05-30T15:08:40Z</time>
      </trkpt>
      <trkpt lat="49.36333" lon="4.06812">
        <ele>126</ele>
        <time>2019-05-30T15:08:41Z</time>
      </trkpt>
      <trkpt lat="49.36341" lon="4.06813">
        <ele>126</ele>
        <time>2019-05-30T15:08:42Z</time>
      </trkpt>
      <trkpt lat="49.36348" lon="4.06812">
        <ele>126</ele>
        <time>2019-05-30T15:08:43Z</time>
      </trkpt>
      <trkpt lat="49.36354" lon="4.06812">
        <ele>126</ele>
        <time>2019-05-30T15:08:44Z</time>
      </trkpt>
      <trkpt lat="49.36361" lon="4.06813">
        <ele>126</ele>
        <time>2019-05-30T15:08:45Z</time>
      </trkpt>
      <trkpt lat="49.36368" lon="4.06813">
        <ele>126</ele>
        <time>2019-05-30T15:08:46Z</time>
      </trkpt>
      <trkpt lat="49.36375" lon="4.06813">
        <ele>126</ele>
        <time>2019-05-30T15:08:47Z</time>
      </trkpt>
      <trkpt lat="49.36381" lon="4.06813">
        <ele>126</ele>
        <time>2019-05-30T15:08:48Z</time>
      </trkpt>
      <trkpt lat="49.36388" lon="4.06813">
        <ele>126</ele>
        <time>2019-05-30T15:08:49Z</time>
      </trkpt>
      <trkpt lat="49.36395" lon="4.06814">
        <ele>126</ele>
        <time>2019-05-30T15:08:50Z</time>
      </trkpt>
      <trkpt lat="49.36401" lon="4.06814">
        <ele>126</ele>
        <time>2019-05-30T15:08:51Z</time>
      </trkpt>
      <trkpt lat="49.36407" lon="4.06814">
        <ele>126</ele>
        <time>2019-05-30T15:08:52Z</time>
      </trkpt>
      <trkpt lat="49.36413" lon="4.06814">
        <ele>126</ele>
        <time>2019-05-30T15:08:53Z</time>
      </trkpt>
      <trkpt lat="49.36417" lon="4.06814">
        <ele>126</ele>
        <time>2019-05-30T15:08:54Z</time>
      </trkpt>
      <trkpt lat="49.36421" lon="4.06814">
        <ele>126</ele>
        <time>2019-05-30T15:08:55Z</time>
      </trkpt>
      <trkpt lat="49.36424" lon="4.06814">
        <ele>126</ele>
        <time>2019-05-30T15:08:56Z</time>
      </trkpt>
      <trkpt lat="49.36426" lon="4.06814">
        <ele>126</ele>
        <time>2019-05-30T15:08:57Z</time>
      </trkpt>
      <trkpt lat="49.36428" lon="4.06814">
        <ele>127</ele>
        <time>2019-05-30T15:08:58Z</time>
      </trkpt>
      <trkpt lat="49.36428" lon="4.06814">
        <ele>127</ele>
        <time>2019-05-30T15:08:59Z</time>
      </trkpt>
      <trkpt lat="49.36428" lon="4.06814">
        <ele>127</ele>
        <time>2019-05-30T15:09:00Z</time>
      </trkpt>
      <trkpt lat="49.36428" lon="4.06814">
        <ele>127</ele>
        <time>2019-05-30T15:09:01Z</time>
      </trkpt>
      <trkpt lat="49.36428" lon="4.06814">
        <ele>127</ele>
        <time>2019-05-30T15:09:02Z</time>
      </trkpt>
      <trkpt lat="49.36428" lon="4.06814">
        <ele>127</ele>
        <time>2019-05-30T15:09:03Z</time>
      </trkpt>
      <trkpt lat="49.36428" lon="4.06814">
        <ele>127</ele>
        <time>2019-05-30T15:09:04Z</time>
      </trkpt>
      <trkpt lat="49.36428" lon="4.06814">
        <ele>127</ele>
        <time>2019-05-30T15:09:05Z</time>
      </trkpt>
      <trkpt lat="49.36428" lon="4.06814">
        <ele>127</ele>
        <time>2019-05-30T15:09:06Z</time>
      </trkpt>
      <trkpt lat="49.36428" lon="4.06814">
        <ele>127</ele>
        <time>2019-05-30T15:09:07Z</time>
      </trkpt>
      <trkpt lat="49.36428" lon="4.06814">
        <ele>127</ele>
        <time>2019-05-30T15:09:08Z</time>
      </trkpt>
      <trkpt lat="49.36428" lon="4.06814">
        <ele>127</ele>
        <time>2019-05-30T15:09:09Z</time>
      </trkpt>
      <trkpt lat="49.36428" lon="4.06814">
        <ele>127</ele>
        <time>2019-05-30T15:09:10Z</time>
      </trkpt>
      <trkpt lat="49.36428" lon="4.06814">
        <ele>127</ele>
        <time>2019-05-30T15:09:11Z</time>
      </trkpt>
      <trkpt lat="49.36428" lon="4.06814">
        <ele>127</ele>
        <time>2019-05-30T15:09:12Z</time>
      </trkpt>
      <trkpt lat="49.36428" lon="4.06814">
        <ele>127</ele>
        <time>2019-05-30T15:09:13Z</time>
      </trkpt>
      <trkpt lat="49.36428" lon="4.06814">
        <ele>127</ele>
        <time>2019-05-30T15:09:14Z</time>
      </trkpt>
      <trkpt lat="49.36428" lon="4.06814">
        <ele>127</ele>
        <time>2019-05-30T15:09:15Z</time>
      </trkpt>
      <trkpt lat="49.36428" lon="4.06814">
        <ele>127</ele>
        <time>2019-05-30T15:09:16Z</time>
      </trkpt>
      <trkpt lat="49.36428" lon="4.06814">
        <ele>127</ele>
        <time>2019-05-30T15:09:17Z</time>
      </trkpt>
      <trkpt lat="49.36428" lon="4.06814">
        <ele>127</ele>
        <time>2019-05-30T15:09:18Z</time>
      </trkpt>
      <trkpt lat="49.36429" lon="4.06814">
        <ele>127</ele>
        <time>2019-05-30T15:09:19Z</time>
      </trkpt>
      <trkpt lat="49.3643" lon="4.06813">
        <ele>127</ele>
        <time>2019-05-30T15:09:20Z</time>
      </trkpt>
      <trkpt lat="49.36432" lon="4.06813">
        <ele>127</ele>
        <time>2019-05-30T15:09:21Z</time>
      </trkpt>
      <trkpt lat="49.36434" lon="4.06813">
        <ele>127</ele>
        <time>2019-05-30T15:09:22Z</time>
      </trkpt>
      <trkpt lat="49.36436" lon="4.06813">
        <ele>127</ele>
        <time>2019-05-30T15:09:23Z</time>
      </trkpt>
      <trkpt lat="49.36438" lon="4.06814">
        <ele>127</ele>
        <time>2019-05-30T15:09:24Z</time>
      </trkpt>
      <trkpt lat="49.3644" lon="4.06814">
        <ele>127</ele>
        <time>2019-05-30T15:09:25Z</time>
      </trkpt>
      <trkpt lat="49.36442" lon="4.06815">
        <ele>127</ele>
        <time>2019-05-30T15:09:26Z</time>
      </trkpt>
      <trkpt lat="49.36444" lon="4.06815">
        <ele>128</ele>
        <time>2019-05-30T15:09:27Z</time>
      </trkpt>
      <trkpt lat="49.36447" lon="4.06815">
        <ele>128</ele>
        <time>2019-05-30T15:09:28Z</time>
      </trkpt>
      <trkpt lat="49.3645" lon="4.06815">
        <ele>128</ele>
        <time>2019-05-30T15:09:29Z</time>
      </trkpt>
      <trkpt lat="49.36453" lon="4.06815">
        <ele>128</ele>
        <time>2019-05-30T15:09:30Z</time>
      </trkpt>
      <trkpt lat="49.36456" lon="4.06815">
        <ele>128</ele>
        <time>2019-05-30T15:09:31Z</time>
      </trkpt>
      <trkpt lat="49.36459" lon="4.06816">
        <ele>128</ele>
        <time>2019-05-30T15:09:32Z</time>
      </trkpt>
      <trkpt lat="49.36463" lon="4.06816">
        <ele>128</ele>
        <time>2019-05-30T15:09:33Z</time>
      </trkpt>
      <trkpt lat="49.36467" lon="4.06816">
        <ele>128</ele>
        <time>2019-05-30T15:09:34Z</time>
      </trkpt>
      <trkpt lat="49.36472" lon="4.06816">
        <ele>127</ele>
        <time>2019-05-30T15:09:35Z</time>
      </trkpt>
      <trkpt lat="49.36477" lon="4.06816">
        <ele>127</ele>
        <time>2019-05-30T15:09:36Z</time>
      </trkpt>
      <trkpt lat="49.36482" lon="4.06816">
        <ele>127</ele>
        <time>2019-05-30T15:09:37Z</time>
      </trkpt>
      <trkpt lat="49.36487" lon="4.06816">
        <ele>127</ele>
        <time>2019-05-30T15:09:38Z</time>
      </trkpt>
      <trkpt lat="49.36493" lon="4.06816">
        <ele>127</ele>
        <time>2019-05-30T15:09:39Z</time>
      </trkpt>
      <trkpt lat="49.365" lon="4.06816">
        <ele>127</ele>
        <time>2019-05-30T15:09:40Z</time>
      </trkpt>
      <trkpt lat="49.36507" lon="4.06816">
        <ele>127</ele>
        <time>2019-05-30T15:09:41Z</time>
      </trkpt>
      <trkpt lat="49.36514" lon="4.06817">
        <ele>127</ele>
        <time>2019-05-30T15:09:42Z</time>
      </trkpt>
      <trkpt lat="49.36521" lon="4.06817">
        <ele>127</ele>
        <time>2019-05-30T15:09:43Z</time>
      </trkpt>
      <trkpt lat="49.36528" lon="4.06817">
        <ele>127</ele>
        <time>2019-05-30T15:09:44Z</time>
      </trkpt>
      <trkpt lat="49.36536" lon="4.06817">
        <ele>127</ele>
        <time>2019-05-30T15:09:45Z</time>
      </trkpt>
      <trkpt lat="49.36544" lon="4.06817">
        <ele>127</ele>
        <time>2019-05-30T15:09:46Z</time>
      </trkpt>
      <trkpt lat="49.36551" lon="4.06817">
        <ele>127</ele>
        <time>2019-05-30T15:09:47Z</time>
      </trkpt>
      <trkpt lat="49.36559" lon="4.06817">
        <ele>127</ele>
        <time>2019-05-30T15:09:48Z</time>
      </trkpt>
      <trkpt lat="49.36567" lon="4.06817">
        <ele>126</ele>
        <time>2019-05-30T15:09:49Z</time>
      </trkpt>
      <trkpt lat="49.36575" lon="4.06817">
        <ele>127</ele>
        <time>2019-05-30T15:09:50Z</time>
      </trkpt>
      <trkpt lat="49.36584" lon="4.06817">
        <ele>126</ele>
        <time>2019-05-30T15:09:51Z</time>
      </trkpt>
      <trkpt lat="49.36592" lon="4.06817">
        <ele>126</ele>
        <time>2019-05-30T15:09:52Z</time>
      </trkpt>
      <trkpt lat="49.366" lon="4.06817">
        <ele>126</ele>
        <time>2019-05-30T15:09:53Z</time>
      </trkpt>
      <trkpt lat="49.36608" lon="4.06817">
        <ele>126</ele>
        <time>2019-05-30T15:09:54Z</time>
      </trkpt>
      <trkpt lat="49.36616" lon="4.06817">
        <ele>126</ele>
        <time>2019-05-30T15:09:55Z</time>
      </trkpt>
      <trkpt lat="49.36625" lon="4.06817">
        <ele>126</ele>
        <time>2019-05-30T15:09:56Z</time>
      </trkpt>
      <trkpt lat="49.36633" lon="4.06816">
        <ele>126</ele>
        <time>2019-05-30T15:09:57Z</time>
      </trkpt>
      <trkpt lat="49.36641" lon="4.06814">
        <ele>126</ele>
        <time>2019-05-30T15:09:58Z</time>
      </trkpt>
      <trkpt lat="49.36649" lon="4.06812">
        <ele>126</ele>
        <time>2019-05-30T15:09:59Z</time>
      </trkpt>
      <trkpt lat="49.36657" lon="4.0681">
        <ele>126</ele>
        <time>2019-05-30T15:10:00Z</time>
      </trkpt>
      <trkpt lat="49.36665" lon="4.06808">
        <ele>126</ele>
        <time>2019-05-30T15:10:01Z</time>
      </trkpt>
      <trkpt lat="49.36672" lon="4.06807">
        <ele>126</ele>
        <time>2019-05-30T15:10:02Z</time>
      </trkpt>
      <trkpt lat="49.3668" lon="4.06804">
        <ele>126</ele>
        <time>2019-05-30T15:10:03Z</time>
      </trkpt>
      <trkpt lat="49.36688" lon="4.06802">
        <ele>126</ele>
        <time>2019-05-30T15:10:04Z</time>
      </trkpt>
      <trkpt lat="49.36695" lon="4.068">
        <ele>126</ele>
        <time>2019-05-30T15:10:05Z</time>
      </trkpt>
      <trkpt lat="49.36703" lon="4.06798">
        <ele>126</ele>
        <time>2019-05-30T15:10:06Z</time>
      </trkpt>
      <trkpt lat="49.3671" lon="4.06796">
        <ele>126</ele>
        <time>2019-05-30T15:10:07Z</time>
      </trkpt>
      <trkpt lat="49.36718" lon="4.06793">
        <ele>126</ele>
        <time>2019-05-30T15:10:08Z</time>
      </trkpt>
      <trkpt lat="49.36725" lon="4.0679">
        <ele>126</ele>
        <time>2019-05-30T15:10:09Z</time>
      </trkpt>
      <trkpt lat="49.36733" lon="4.06788">
        <ele>125</ele>
        <time>2019-05-30T15:10:10Z</time>
      </trkpt>
      <trkpt lat="49.3674" lon="4.06786">
        <ele>125</ele>
        <time>2019-05-30T15:10:11Z</time>
      </trkpt>
      <trkpt lat="49.36748" lon="4.06784">
        <ele>125</ele>
        <time>2019-05-30T15:10:12Z</time>
      </trkpt>
      <trkpt lat="49.36755" lon="4.06783">
        <ele>126</ele>
        <time>2019-05-30T15:10:13Z</time>
      </trkpt>
      <trkpt lat="49.36763" lon="4.0678">
        <ele>126</ele>
        <time>2019-05-30T15:10:14Z</time>
      </trkpt>
      <trkpt lat="49.3677" lon="4.06777">
        <ele>126</ele>
        <time>2019-05-30T15:10:15Z</time>
      </trkpt>
      <trkpt lat="49.36778" lon="4.06775">
        <ele>126</ele>
        <time>2019-05-30T15:10:16Z</time>
      </trkpt>
      <trkpt lat="49.36785" lon="4.06773">
        <ele>126</ele>
        <time>2019-05-30T15:10:17Z</time>
      </trkpt>
      <trkpt lat="49.36792" lon="4.06771">
        <ele>126</ele>
        <time>2019-05-30T15:10:18Z</time>
      </trkpt>
      <trkpt lat="49.36799" lon="4.06769">
        <ele>126</ele>
        <time>2019-05-30T15:10:19Z</time>
      </trkpt>
      <trkpt lat="49.36806" lon="4.06767">
        <ele>126</ele>
        <time>2019-05-30T15:10:20Z</time>
      </trkpt>
      <trkpt lat="49.36813" lon="4.06765">
        <ele>126</ele>
        <time>2019-05-30T15:10:21Z</time>
      </trkpt>
      <trkpt lat="49.3682" lon="4.06764">
        <ele>126</ele>
        <time>2019-05-30T15:10:22Z</time>
      </trkpt>
      <trkpt lat="49.36827" lon="4.06762">
        <ele>126</ele>
        <time>2019-05-30T15:10:23Z</time>
      </trkpt>
      <trkpt lat="49.36834" lon="4.0676">
        <ele>126</ele>
        <time>2019-05-30T15:10:24Z</time>
      </trkpt>
      <trkpt lat="49.36841" lon="4.06758">
        <ele>126</ele>
        <time>2019-05-30T15:10:25Z</time>
      </trkpt>
      <trkpt lat="49.36848" lon="4.06756">
        <ele>126</ele>
        <time>2019-05-30T15:10:26Z</time>
      </trkpt>
      <trkpt lat="49.36855" lon="4.06755">
        <ele>126</ele>
        <time>2019-05-30T15:10:27Z</time>
      </trkpt>
      <trkpt lat="49.36862" lon="4.06753">
        <ele>126</ele>
        <time>2019-05-30T15:10:28Z</time>
      </trkpt>
      <trkpt lat="49.36869" lon="4.06751">
        <ele>126</ele>
        <time>2019-05-30T15:10:29Z</time>
      </trkpt>
      <trkpt lat="49.36877" lon="4.06749">
        <ele>126</ele>
        <time>2019-05-30T15:10:30Z</time>
      </trkpt>
      <trkpt lat="49.36884" lon="4.06747">
        <ele>125</ele>
        <time>2019-05-30T15:10:31Z</time>
      </trkpt>
      <trkpt lat="49.36892" lon="4.06745">
        <ele>125</ele>
        <time>2019-05-30T15:10:32Z</time>
      </trkpt>
      <trkpt lat="49.36899" lon="4.06743">
        <ele>126</ele>
        <time>2019-05-30T15:10:33Z</time>
      </trkpt>
      <trkpt lat="49.36906" lon="4.06741">
        <ele>126</ele>
        <time>2019-05-30T15:10:34Z</time>
      </trkpt>
      <trkpt lat="49.36913" lon="4.06739">
        <ele>126</ele>
        <time>2019-05-30T15:10:35Z</time>
      </trkpt>
      <trkpt lat="49.3692" lon="4.06737">
        <ele>126</ele>
        <time>2019-05-30T15:10:36Z</time>
      </trkpt>
      <trkpt lat="49.36927" lon="4.06735">
        <ele>126</ele>
        <time>2019-05-30T15:10:37Z</time>
      </trkpt>
      <trkpt lat="49.36934" lon="4.06732">
        <ele>126</ele>
        <time>2019-05-30T15:10:38Z</time>
      </trkpt>
      <trkpt lat="49.36941" lon="4.0673">
        <ele>125</ele>
        <time>2019-05-30T15:10:39Z</time>
      </trkpt>
      <trkpt lat="49.36949" lon="4.06728">
        <ele>125</ele>
        <time>2019-05-30T15:10:40Z</time>
      </trkpt>
      <trkpt lat="49.36956" lon="4.06727">
        <ele>125</ele>
        <time>2019-05-30T15:10:41Z</time>
      </trkpt>
      <trkpt lat="49.36963" lon="4.06725">
        <ele>125</ele>
        <time>2019-05-30T15:10:42Z</time>
      </trkpt>
      <trkpt lat="49.36971" lon="4.06723">
        <ele>125</ele>
        <time>2019-05-30T15:10:43Z</time>
      </trkpt>
      <trkpt lat="49.36978" lon="4.0672">
        <ele>124</ele>
        <time>2019-05-30T15:10:44Z</time>
      </trkpt>
      <trkpt lat="49.36986" lon="4.06718">
        <ele>124</ele>
        <time>2019-05-30T15:10:45Z</time>
      </trkpt>
      <trkpt lat="49.36993" lon="4.06715">
        <ele>124</ele>
        <time>2019-05-30T15:10:46Z</time>
      </trkpt>
      <trkpt lat="49.37001" lon="4.06714">
        <ele>124</ele>
        <time>2019-05-30T15:10:47Z</time>
      </trkpt>
      <trkpt lat="49.37009" lon="4.06711">
        <ele>124</ele>
        <time>2019-05-30T15:10:48Z</time>
      </trkpt>
      <trkpt lat="49.37017" lon="4.06709">
        <ele>123</ele>
        <time>2019-05-30T15:10:49Z</time>
      </trkpt>
      <trkpt lat="49.37025" lon="4.06707">
        <ele>123</ele>
        <time>2019-05-30T15:10:50Z</time>
      </trkpt>
      <trkpt lat="49.37033" lon="4.06704">
        <ele>123</ele>
        <time>2019-05-30T15:10:51Z</time>
      </trkpt>
      <trkpt lat="49.37042" lon="4.06702">
        <ele>122</ele>
        <time>2019-05-30T15:10:52Z</time>
      </trkpt>
      <trkpt lat="49.3705" lon="4.06699">
        <ele>122</ele>
        <time>2019-05-30T15:10:53Z</time>
      </trkpt>
      <trkpt lat="49.37058" lon="4.06697">
        <ele>122</ele>
        <time>2019-05-30T15:10:54Z</time>
      </trkpt>
      <trkpt lat="49.37066" lon="4.06694">
        <ele>122</ele>
        <time>2019-05-30T15:10:55Z</time>
      </trkpt>
      <trkpt lat="49.37075" lon="4.06691">
        <ele>121</ele>
        <time>2019-05-30T15:10:56Z</time>
      </trkpt>
      <trkpt lat="49.37083" lon="4.06687">
        <ele>121</ele>
        <time>2019-05-30T15:10:57Z</time>
      </trkpt>
      <trkpt lat="49.37092" lon="4.06682">
        <ele>121</ele>
        <time>2019-05-30T15:10:58Z</time>
      </trkpt>
      <trkpt lat="49.37101" lon="4.06677">
        <ele>120</ele>
        <time>2019-05-30T15:10:59Z</time>
      </trkpt>
      <trkpt lat="49.3711" lon="4.06672">
        <ele>120</ele>
        <time>2019-05-30T15:11:00Z</time>
      </trkpt>
      <trkpt lat="49.37119" lon="4.06667">
        <ele>120</ele>
        <time>2019-05-30T15:11:01Z</time>
      </trkpt>
      <trkpt lat="49.37128" lon="4.06662">
        <ele>120</ele>
        <time>2019-05-30T15:11:02Z</time>
      </trkpt>
      <trkpt lat="49.37137" lon="4.06656">
        <ele>120</ele>
        <time>2019-05-30T15:11:03Z</time>
      </trkpt>
      <trkpt lat="49.37146" lon="4.06651">
        <ele>120</ele>
        <time>2019-05-30T15:11:04Z</time>
      </trkpt>
      <trkpt lat="49.37154" lon="4.06646">
        <ele>120</ele>
        <time>2019-05-30T15:11:05Z</time>
      </trkpt>
      <trkpt lat="49.37163" lon="4.06641">
        <ele>120</ele>
        <time>2019-05-30T15:11:06Z</time>
      </trkpt>
      <trkpt lat="49.37171" lon="4.06636">
        <ele>120</ele>
        <time>2019-05-30T15:11:07Z</time>
      </trkpt>
      <trkpt lat="49.3718" lon="4.0663">
        <ele>121</ele>
        <time>2019-05-30T15:11:08Z</time>
      </trkpt>
      <trkpt lat="49.37188" lon="4.06625">
        <ele>121</ele>
        <time>2019-05-30T15:11:09Z</time>
      </trkpt>
      <trkpt lat="49.37195" lon="4.06619">
        <ele>121</ele>
        <time>2019-05-30T15:11:10Z</time>
      </trkpt>
      <trkpt lat="49.37202" lon="4.06614">
        <ele>121</ele>
        <time>2019-05-30T15:11:11Z</time>
      </trkpt>
      <trkpt lat="49.37209" lon="4.06608">
        <ele>122</ele>
        <time>2019-05-30T15:11:12Z</time>
      </trkpt>
      <trkpt lat="49.37216" lon="4.06602">
        <ele>122</ele>
        <time>2019-05-30T15:11:13Z</time>
      </trkpt>
      <trkpt lat="49.37223" lon="4.06597">
        <ele>122</ele>
        <time>2019-05-30T15:11:14Z</time>
      </trkpt>
      <trkpt lat="49.37229" lon="4.06591">
        <ele>122</ele>
        <time>2019-05-30T15:11:15Z</time>
      </trkpt>
      <trkpt lat="49.37235" lon="4.06586">
        <ele>122</ele>
        <time>2019-05-30T15:11:16Z</time>
      </trkpt>
      <trkpt lat="49.37241" lon="4.06581">
        <ele>122</ele>
        <time>2019-05-30T15:11:17Z</time>
      </trkpt>
      <trkpt lat="49.37247" lon="4.06575">
        <ele>122</ele>
        <time>2019-05-30T15:11:18Z</time>
      </trkpt>
      <trkpt lat="49.37253" lon="4.06569">
        <ele>122</ele>
        <time>2019-05-30T15:11:19Z</time>
      </trkpt>
      <trkpt lat="49.37259" lon="4.06564">
        <ele>122</ele>
        <time>2019-05-30T15:11:20Z</time>
      </trkpt>
      <trkpt lat="49.37266" lon="4.06558">
        <ele>122</ele>
        <time>2019-05-30T15:11:21Z</time>
      </trkpt>
      <trkpt lat="49.37272" lon="4.06553">
        <ele>122</ele>
        <time>2019-05-30T15:11:22Z</time>
      </trkpt>
      <trkpt lat="49.37278" lon="4.06548">
        <ele>122</ele>
        <time>2019-05-30T15:11:23Z</time>
      </trkpt>
      <trkpt lat="49.37284" lon="4.06542">
        <ele>122</ele>
        <time>2019-05-30T15:11:24Z</time>
      </trkpt>
      <trkpt lat="49.37291" lon="4.06537">
        <ele>122</ele>
        <time>2019-05-30T15:11:25Z</time>
      </trkpt>
      <trkpt lat="49.37297" lon="4.06532">
        <ele>122</ele>
        <time>2019-05-30T15:11:26Z</time>
      </trkpt>
      <trkpt lat="49.37303" lon="4.06527">
        <ele>122</ele>
        <time>2019-05-30T15:11:27Z</time>
      </trkpt>
      <trkpt lat="49.37309" lon="4.06521">
        <ele>122</ele>
        <time>2019-05-30T15:11:28Z</time>
      </trkpt>
      <trkpt lat="49.37316" lon="4.06515">
        <ele>122</ele>
        <time>2019-05-30T15:11:29Z</time>
      </trkpt>
      <trkpt lat="49.37323" lon="4.0651">
        <ele>121</ele>
        <time>2019-05-30T15:11:30Z</time>
      </trkpt>
      <trkpt lat="49.3733" lon="4.06504">
        <ele>121</ele>
        <time>2019-05-30T15:11:31Z</time>
      </trkpt>
      <trkpt lat="49.37337" lon="4.06498">
        <ele>121</ele>
        <time>2019-05-30T15:11:32Z</time>
      </trkpt>
      <trkpt lat="49.37344" lon="4.06491">
        <ele>121</ele>
        <time>2019-05-30T15:11:33Z</time>
      </trkpt>
      <trkpt lat="49.37352" lon="4.06485">
        <ele>121</ele>
        <time>2019-05-30T15:11:34Z</time>
      </trkpt>
      <trkpt lat="49.37359" lon="4.06479">
        <ele>121</ele>
        <time>2019-05-30T15:11:35Z</time>
      </trkpt>
      <trkpt lat="49.37366" lon="4.06472">
        <ele>121</ele>
        <time>2019-05-30T15:11:36Z</time>
      </trkpt>
      <trkpt lat="49.37373" lon="4.06465">
        <ele>120</ele>
        <time>2019-05-30T15:11:37Z</time>
      </trkpt>
      <trkpt lat="49.37381" lon="4.06458">
        <ele>120</ele>
        <time>2019-05-30T15:11:38Z</time>
      </trkpt>
      <trkpt lat="49.37388" lon="4.06451">
        <ele>120</ele>
        <time>2019-05-30T15:11:39Z</time>
      </trkpt>
      <trkpt lat="49.37396" lon="4.06444">
        <ele>119</ele>
        <time>2019-05-30T15:11:40Z</time>
      </trkpt>
      <trkpt lat="49.37404" lon="4.06437">
        <ele>119</ele>
        <time>2019-05-30T15:11:41Z</time>
      </trkpt>
      <trkpt lat="49.37411" lon="4.0643">
        <ele>119</ele>
        <time>2019-05-30T15:11:42Z</time>
      </trkpt>
      <trkpt lat="49.37419" lon="4.06423">
        <ele>119</ele>
        <time>2019-05-30T15:11:43Z</time>
      </trkpt>
      <trkpt lat="49.37426" lon="4.06416">
        <ele>119</ele>
        <time>2019-05-30T15:11:44Z</time>
      </trkpt>
      <trkpt lat="49.37434" lon="4.06409">
        <ele>118</ele>
        <time>2019-05-30T15:11:45Z</time>
      </trkpt>
      <trkpt lat="49.37441" lon="4.06403">
        <ele>118</ele>
        <time>2019-05-30T15:11:46Z</time>
      </trkpt>
      <trkpt lat="49.37447" lon="4.06397">
        <ele>117</ele>
        <time>2019-05-30T15:11:47Z</time>
      </trkpt>
      <trkpt lat="49.37455" lon="4.06391">
        <ele>117</ele>
        <time>2019-05-30T15:11:48Z</time>
      </trkpt>
      <trkpt lat="49.37462" lon="4.06384">
        <ele>117</ele>
        <time>2019-05-30T15:11:49Z</time>
      </trkpt>
      <trkpt lat="49.3747" lon="4.06378">
        <ele>116</ele>
        <time>2019-05-30T15:11:50Z</time>
      </trkpt>
      <trkpt lat="49.37478" lon="4.06371">
        <ele>116</ele>
        <time>2019-05-30T15:11:51Z</time>
      </trkpt>
      <trkpt lat="49.37485" lon="4.06363">
        <ele>115</ele>
        <time>2019-05-30T15:11:52Z</time>
      </trkpt>
      <trkpt lat="49.37493" lon="4.06356">
        <ele>116</ele>
        <time>2019-05-30T15:11:53Z</time>
      </trkpt>
      <trkpt lat="49.37501" lon="4.06349">
        <ele>116</ele>
        <time>2019-05-30T15:11:54Z</time>
      </trkpt>
      <trkpt lat="49.37509" lon="4.06342">
        <ele>115</ele>
        <time>2019-05-30T15:11:55Z</time>
      </trkpt>
      <trkpt lat="49.37517" lon="4.06335">
        <ele>115</ele>
        <time>2019-05-30T15:11:56Z</time>
      </trkpt>
      <trkpt lat="49.37525" lon="4.06328">
        <ele>115</ele>
        <time>2019-05-30T15:11:57Z</time>
      </trkpt>
      <trkpt lat="49.37533" lon="4.06321">
        <ele>115</ele>
        <time>2019-05-30T15:11:58Z</time>
      </trkpt>
      <trkpt lat="49.3754" lon="4.06315">
        <ele>114</ele>
        <time>2019-05-30T15:11:59Z</time>
      </trkpt>
      <trkpt lat="49.37548" lon="4.06308">
        <ele>114</ele>
        <time>2019-05-30T15:12:00Z</time>
      </trkpt>
      <trkpt lat="49.37556" lon="4.06301">
        <ele>114</ele>
        <time>2019-05-30T15:12:01Z</time>
      </trkpt>
      <trkpt lat="49.37564" lon="4.06293">
        <ele>114</ele>
        <time>2019-05-30T15:12:02Z</time>
      </trkpt>
      <trkpt lat="49.37572" lon="4.06287">
        <ele>114</ele>
        <time>2019-05-30T15:12:03Z</time>
      </trkpt>
      <trkpt lat="49.3758" lon="4.0628">
        <ele>114</ele>
        <time>2019-05-30T15:12:04Z</time>
      </trkpt>
      <trkpt lat="49.37588" lon="4.06274">
        <ele>114</ele>
        <time>2019-05-30T15:12:05Z</time>
      </trkpt>
      <trkpt lat="49.37596" lon="4.06267">
        <ele>113</ele>
        <time>2019-05-30T15:12:06Z</time>
      </trkpt>
      <trkpt lat="49.37604" lon="4.0626">
        <ele>113</ele>
        <time>2019-05-30T15:12:07Z</time>
      </trkpt>
      <trkpt lat="49.37612" lon="4.06252">
        <ele>113</ele>
        <time>2019-05-30T15:12:08Z</time>
      </trkpt>
      <trkpt lat="49.37619" lon="4.06245">
        <ele>113</ele>
        <time>2019-05-30T15:12:09Z</time>
      </trkpt>
      <trkpt lat="49.37627" lon="4.06238">
        <ele>112</ele>
        <time>2019-05-30T15:12:10Z</time>
      </trkpt>
      <trkpt lat="49.37635" lon="4.06231">
        <ele>112</ele>
        <time>2019-05-30T15:12:11Z</time>
      </trkpt>
      <trkpt lat="49.37642" lon="4.06224">
        <ele>112</ele>
        <time>2019-05-30T15:12:12Z</time>
      </trkpt>
      <trkpt lat="49.37649" lon="4.06217">
        <ele>112</ele>
        <time>2019-05-30T15:12:13Z</time>
      </trkpt>
      <trkpt lat="49.37655" lon="4.06208">
        <ele>112</ele>
        <time>2019-05-30T15:12:14Z</time>
      </trkpt>
      <trkpt lat="49.37659" lon="4.06198">
        <ele>112</ele>
        <time>2019-05-30T15:12:15Z</time>
      </trkpt>
      <trkpt lat="49.37663" lon="4.06188">
        <ele>112</ele>
        <time>2019-05-30T15:12:16Z</time>
      </trkpt>
      <trkpt lat="49.37666" lon="4.06177">
        <ele>112</ele>
        <time>2019-05-30T15:12:17Z</time>
      </trkpt>
      <trkpt lat="49.37668" lon="4.06168">
        <ele>111</ele>
        <time>2019-05-30T15:12:18Z</time>
      </trkpt>
      <trkpt lat="49.37671" lon="4.06158">
        <ele>111</ele>
        <time>2019-05-30T15:12:19Z</time>
      </trkpt>
      <trkpt lat="49.37674" lon="4.06148">
        <ele>111</ele>
        <time>2019-05-30T15:12:20Z</time>
      </trkpt>
      <trkpt lat="49.37677" lon="4.06139">
        <ele>111</ele>
        <time>2019-05-30T15:12:21Z</time>
      </trkpt>
      <trkpt lat="49.3768" lon="4.0613">
        <ele>111</ele>
        <time>2019-05-30T15:12:22Z</time>
      </trkpt>
      <trkpt lat="49.37683" lon="4.06121">
        <ele>111</ele>
        <time>2019-05-30T15:12:23Z</time>
      </trkpt>
      <trkpt lat="49.37686" lon="4.06113">
        <ele>111</ele>
        <time>2019-05-30T15:12:24Z</time>
      </trkpt>
      <trkpt lat="49.37689" lon="4.06106">
        <ele>111</ele>
        <time>2019-05-30T15:12:25Z</time>
      </trkpt>
      <trkpt lat="49.37691" lon="4.061">
        <ele>111</ele>
        <time>2019-05-30T15:12:26Z</time>
      </trkpt>
      <trkpt lat="49.37694" lon="4.06096">
        <ele>111</ele>
        <time>2019-05-30T15:12:27Z</time>
      </trkpt>
      <trkpt lat="49.37695" lon="4.06091">
        <ele>112</ele>
        <time>2019-05-30T15:12:28Z</time>
      </trkpt>
      <trkpt lat="49.37698" lon="4.06088">
        <ele>112</ele>
        <time>2019-05-30T15:12:29Z</time>
      </trkpt>
      <trkpt lat="49.377" lon="4.06087">
        <ele>112</ele>
        <time>2019-05-30T15:12:30Z</time>
      </trkpt>
      <trkpt lat="49.37702" lon="4.06086">
        <ele>112</ele>
        <time>2019-05-30T15:12:31Z</time>
      </trkpt>
      <trkpt lat="49.37702" lon="4.06085">
        <ele>113</ele>
        <time>2019-05-30T15:12:32Z</time>
      </trkpt>
      <trkpt lat="49.37702" lon="4.06085">
        <ele>113</ele>
        <time>2019-05-30T15:12:33Z</time>
      </trkpt>
      <trkpt lat="49.37702" lon="4.06085">
        <ele>113</ele>
        <time>2019-05-30T15:12:34Z</time>
      </trkpt>
      <trkpt lat="49.37702" lon="4.06086">
        <ele>113</ele>
        <time>2019-05-30T15:12:35Z</time>
      </trkpt>
      <trkpt lat="49.37702" lon="4.06086">
        <ele>113</ele>
        <time>2019-05-30T15:12:36Z</time>
      </trkpt>
      <trkpt lat="49.37702" lon="4.06086">
        <ele>113</ele>
        <time>2019-05-30T15:12:37Z</time>
      </trkpt>
      <trkpt lat="49.37702" lon="4.06086">
        <ele>113</ele>
        <time>2019-05-30T15:12:38Z</time>
      </trkpt>
      <trkpt lat="49.37702" lon="4.06086">
        <ele>113</ele>
        <time>2019-05-30T15:12:39Z</time>
      </trkpt>
      <trkpt lat="49.37702" lon="4.06086">
        <ele>113</ele>
        <time>2019-05-30T15:12:40Z</time>
      </trkpt>
      <trkpt lat="49.37702" lon="4.06086">
        <ele>113</ele>
        <time>2019-05-30T15:12:41Z</time>
      </trkpt>
      <trkpt lat="49.37702" lon="4.06086">
        <ele>113</ele>
        <time>2019-05-30T15:12:42Z</time>
      </trkpt>
      <trkpt lat="49.37702" lon="4.06086">
        <ele>113</ele>
        <time>2019-05-30T15:12:43Z</time>
      </trkpt>
      <trkpt lat="49.37702" lon="4.06086">
        <ele>113</ele>
        <time>2019-05-30T15:12:44Z</time>
      </trkpt>
      <trkpt lat="49.37702" lon="4.06086">
        <ele>113</ele>
        <time>2019-05-30T15:12:45Z</time>
      </trkpt>
      <trkpt lat="49.37702" lon="4.06086">
        <ele>113</ele>
        <time>2019-05-30T15:12:46Z</time>
      </trkpt>
      <trkpt lat="49.37702" lon="4.06086">
        <ele>113</ele>
        <time>2019-05-30T15:12:47Z</time>
      </trkpt>
      <trkpt lat="49.37702" lon="4.06086">
        <ele>113</ele>
        <time>2019-05-30T15:12:48Z</time>
      </trkpt>
      <trkpt lat="49.37702" lon="4.06086">
        <ele>113</ele>
        <time>2019-05-30T15:12:49Z</time>
      </trkpt>
      <trkpt lat="49.37702" lon="4.06085">
        <ele>113</ele>
        <time>2019-05-30T15:12:50Z</time>
      </trkpt>
      <trkpt lat="49.37702" lon="4.06085">
        <ele>113</ele>
        <time>2019-05-30T15:12:51Z</time>
      </trkpt>
      <trkpt lat="49.37702" lon="4.06085">
        <ele>113</ele>
        <time>2019-05-30T15:12:52Z</time>
      </trkpt>
      <trkpt lat="49.37702" lon="4.06085">
        <ele>113</ele>
        <time>2019-05-30T15:12:53Z</time>
      </trkpt>
      <trkpt lat="49.37702" lon="4.06085">
        <ele>113</ele>
        <time>2019-05-30T15:12:54Z</time>
      </trkpt>
      <trkpt lat="49.37702" lon="4.06084">
        <ele>112</ele>
        <time>2019-05-30T15:12:55Z</time>
      </trkpt>
      <trkpt lat="49.37702" lon="4.06082">
        <ele>112</ele>
        <time>2019-05-30T15:12:56Z</time>
      </trkpt>
      <trkpt lat="49.37703" lon="4.06079">
        <ele>113</ele>
        <time>2019-05-30T15:12:57Z</time>
      </trkpt>
      <trkpt lat="49.37703" lon="4.06076">
        <ele>113</ele>
        <time>2019-05-30T15:12:58Z</time>
      </trkpt>
      <trkpt lat="49.37704" lon="4.06072">
        <ele>113</ele>
        <time>2019-05-30T15:12:59Z</time>
      </trkpt>
      <trkpt lat="49.37706" lon="4.06068">
        <ele>113</ele>
        <time>2019-05-30T15:13:00Z</time>
      </trkpt>
      <trkpt lat="49.37708" lon="4.06064">
        <ele>113</ele>
        <time>2019-05-30T15:13:01Z</time>
      </trkpt>
      <trkpt lat="49.3771" lon="4.06059">
        <ele>112</ele>
        <time>2019-05-30T15:13:02Z</time>
      </trkpt>
      <trkpt lat="49.37712" lon="4.06054">
        <ele>112</ele>
        <time>2019-05-30T15:13:03Z</time>
      </trkpt>
      <trkpt lat="49.37714" lon="4.06048">
        <ele>112</ele>
        <time>2019-05-30T15:13:04Z</time>
      </trkpt>
      <trkpt lat="49.37717" lon="4.06043">
        <ele>112</ele>
        <time>2019-05-30T15:13:05Z</time>
      </trkpt>
      <trkpt lat="49.3772" lon="4.06037">
        <ele>112</ele>
        <time>2019-05-30T15:13:06Z</time>
      </trkpt>
      <trkpt lat="49.37723" lon="4.06031">
        <ele>112</ele>
        <time>2019-05-30T15:13:07Z</time>
      </trkpt>
      <trkpt lat="49.37726" lon="4.06025">
        <ele>112</ele>
        <time>2019-05-30T15:13:08Z</time>
      </trkpt>
      <trkpt lat="49.37729" lon="4.06018">
        <ele>112</ele>
        <time>2019-05-30T15:13:09Z</time>
      </trkpt>
      <trkpt lat="49.37733" lon="4.06011">
        <ele>112</ele>
        <time>2019-05-30T15:13:10Z</time>
      </trkpt>
      <trkpt lat="49.37736" lon="4.06004">
        <ele>112</ele>
        <time>2019-05-30T15:13:11Z</time>
      </trkpt>
      <trkpt lat="49.37739" lon="4.05996">
        <ele>112</ele>
        <time>2019-05-30T15:13:12Z</time>
      </trkpt>
      <trkpt lat="49.37742" lon="4.0599">
        <ele>112</ele>
        <time>2019-05-30T15:13:13Z</time>
      </trkpt>
      <trkpt lat="49.37745" lon="4.05983">
        <ele>112</ele>
        <time>2019-05-30T15:13:14Z</time>
      </trkpt>
      <trkpt lat="49.37748" lon="4.05976">
        <ele>112</ele>
        <time>2019-05-30T15:13:15Z</time>
      </trkpt>
      <trkpt lat="49.37751" lon="4.05969">
        <ele>112</ele>
        <time>2019-05-30T15:13:16Z</time>
      </trkpt>
      <trkpt lat="49.37755" lon="4.05963">
        <ele>112</ele>
        <time>2019-05-30T15:13:17Z</time>
      </trkpt>
      <trkpt lat="49.37759" lon="4.05959">
        <ele>112</ele>
        <time>2019-05-30T15:13:18Z</time>
      </trkpt>
      <trkpt lat="49.37763" lon="4.05955">
        <ele>112</ele>
        <time>2019-05-30T15:13:19Z</time>
      </trkpt>
      <trkpt lat="49.37766" lon="4.05948">
        <ele>112</ele>
        <time>2019-05-30T15:13:20Z</time>
      </trkpt>
      <trkpt lat="49.37768" lon="4.0594">
        <ele>112</ele>
        <time>2019-05-30T15:13:21Z</time>
      </trkpt>
      <trkpt lat="49.37771" lon="4.05933">
        <ele>112</ele>
        <time>2019-05-30T15:13:22Z</time>
      </trkpt>
      <trkpt lat="49.37774" lon="4.05926">
        <ele>111</ele>
        <time>2019-05-30T15:13:23Z</time>
      </trkpt>
      <trkpt lat="49.37778" lon="4.05918">
        <ele>112</ele>
        <time>2019-05-30T15:13:24Z</time>
      </trkpt>
      <trkpt lat="49.37782" lon="4.0591">
        <ele>112</ele>
        <time>2019-05-30T15:13:25Z</time>
      </trkpt>
      <trkpt lat="49.37784" lon="4.05901">
        <ele>112</ele>
        <time>2019-05-30T15:13:26Z</time>
      </trkpt>
      <trkpt lat="49.37786" lon="4.05892">
        <ele>112</ele>
        <time>2019-05-30T15:13:27Z</time>
      </trkpt>
      <trkpt lat="49.37787" lon="4.05882">
        <ele>112</ele>
        <time>2019-05-30T15:13:28Z</time>
      </trkpt>
      <trkpt lat="49.37788" lon="4.05872">
        <ele>112</ele>
        <time>2019-05-30T15:13:29Z</time>
      </trkpt>
      <trkpt lat="49.3779" lon="4.05862">
        <ele>112</ele>
        <time>2019-05-30T15:13:30Z</time>
      </trkpt>
      <trkpt lat="49.37791" lon="4.05852">
        <ele>112</ele>
        <time>2019-05-30T15:13:31Z</time>
      </trkpt>
      <trkpt lat="49.37793" lon="4.05842">
        <ele>112</ele>
        <time>2019-05-30T15:13:32Z</time>
      </trkpt>
      <trkpt lat="49.37794" lon="4.05831">
        <ele>111</ele>
        <time>2019-05-30T15:13:33Z</time>
      </trkpt>
      <trkpt lat="49.37795" lon="4.0582">
        <ele>111</ele>
        <time>2019-05-30T15:13:34Z</time>
      </trkpt>
      <trkpt lat="49.37796" lon="4.05809">
        <ele>112</ele>
        <time>2019-05-30T15:13:35Z</time>
      </trkpt>
      <trkpt lat="49.37797" lon="4.05799">
        <ele>112</ele>
        <time>2019-05-30T15:13:36Z</time>
      </trkpt>
      <trkpt lat="49.37799" lon="4.0579">
        <ele>111</ele>
        <time>2019-05-30T15:13:37Z</time>
      </trkpt>
      <trkpt lat="49.378" lon="4.05779">
        <ele>111</ele>
        <time>2019-05-30T15:13:38Z</time>
      </trkpt>
      <trkpt lat="49.37801" lon="4.05769">
        <ele>111</ele>
        <time>2019-05-30T15:13:39Z</time>
      </trkpt>
      <trkpt lat="49.37802" lon="4.05759">
        <ele>111</ele>
        <time>2019-05-30T15:13:40Z</time>
      </trkpt>
      <trkpt lat="49.37804" lon="4.05749">
        <ele>111</ele>
        <time>2019-05-30T15:13:41Z</time>
      </trkpt>
      <trkpt lat="49.37806" lon="4.05739">
        <ele>111</ele>
        <time>2019-05-30T15:13:42Z</time>
      </trkpt>
      <trkpt lat="49.37807" lon="4.05729">
        <ele>111</ele>
        <time>2019-05-30T15:13:43Z</time>
      </trkpt>
      <trkpt lat="49.37809" lon="4.05718">
        <ele>111</ele>
        <time>2019-05-30T15:13:44Z</time>
      </trkpt>
      <trkpt lat="49.37812" lon="4.05708">
        <ele>111</ele>
        <time>2019-05-30T15:13:45Z</time>
      </trkpt>
      <trkpt lat="49.37813" lon="4.05698">
        <ele>111</ele>
        <time>2019-05-30T15:13:46Z</time>
      </trkpt>
      <trkpt lat="49.37815" lon="4.05688">
        <ele>110</ele>
        <time>2019-05-30T15:13:47Z</time>
      </trkpt>
      <trkpt lat="49.37817" lon="4.05678">
        <ele>111</ele>
        <time>2019-05-30T15:13:48Z</time>
      </trkpt>
      <trkpt lat="49.3782" lon="4.05667">
        <ele>111</ele>
        <time>2019-05-30T15:13:49Z</time>
      </trkpt>
      <trkpt lat="49.37822" lon="4.05657">
        <ele>110</ele>
        <time>2019-05-30T15:13:50Z</time>
      </trkpt>
      <trkpt lat="49.37824" lon="4.05646">
        <ele>110</ele>
        <time>2019-05-30T15:13:51Z</time>
      </trkpt>
      <trkpt lat="49.37824" lon="4.05635">
        <ele>110</ele>
        <time>2019-05-30T15:13:52Z</time>
      </trkpt>
      <trkpt lat="49.37824" lon="4.05624">
        <ele>111</ele>
        <time>2019-05-30T15:13:53Z</time>
      </trkpt>
      <trkpt lat="49.37822" lon="4.05614">
        <ele>111</ele>
        <time>2019-05-30T15:13:54Z</time>
      </trkpt>
      <trkpt lat="49.3782" lon="4.05604">
        <ele>111</ele>
        <time>2019-05-30T15:13:55Z</time>
      </trkpt>
      <trkpt lat="49.37818" lon="4.05594">
        <ele>111</ele>
        <time>2019-05-30T15:13:56Z</time>
      </trkpt>
      <trkpt lat="49.37816" lon="4.05583">
        <ele>111</ele>
        <time>2019-05-30T15:13:57Z</time>
      </trkpt>
      <trkpt lat="49.37813" lon="4.05574">
        <ele>111</ele>
        <time>2019-05-30T15:13:58Z</time>
      </trkpt>
      <trkpt lat="49.37811" lon="4.05564">
        <ele>111</ele>
        <time>2019-05-30T15:13:59Z</time>
      </trkpt>
      <trkpt lat="49.37809" lon="4.05554">
        <ele>110</ele>
        <time>2019-05-30T15:14:00Z</time>
      </trkpt>
      <trkpt lat="49.37806" lon="4.05544">
        <ele>111</ele>
        <time>2019-05-30T15:14:01Z</time>
      </trkpt>
      <trkpt lat="49.37805" lon="4.05535">
        <ele>111</ele>
        <time>2019-05-30T15:14:02Z</time>
      </trkpt>
      <trkpt lat="49.37801" lon="4.05515">
        <ele>111</ele>
        <time>2019-05-30T15:14:04Z</time>
      </trkpt>
      <trkpt lat="49.378" lon="4.05506">
        <ele>111</ele>
        <time>2019-05-30T15:14:05Z</time>
      </trkpt>
      <trkpt lat="49.37798" lon="4.05495">
        <ele>111</ele>
        <time>2019-05-30T15:14:06Z</time>
      </trkpt>
      <trkpt lat="49.37798" lon="4.05485">
        <ele>112</ele>
        <time>2019-05-30T15:14:07Z</time>
      </trkpt>
      <trkpt lat="49.37798" lon="4.05475">
        <ele>112</ele>
        <time>2019-05-30T15:14:08Z</time>
      </trkpt>
      <trkpt lat="49.37799" lon="4.05465">
        <ele>112</ele>
        <time>2019-05-30T15:14:09Z</time>
      </trkpt>
      <trkpt lat="49.378" lon="4.05455">
        <ele>112</ele>
        <time>2019-05-30T15:14:10Z</time>
      </trkpt>
      <trkpt lat="49.37802" lon="4.05445">
        <ele>112</ele>
        <time>2019-05-30T15:14:11Z</time>
      </trkpt>
      <trkpt lat="49.37803" lon="4.05434">
        <ele>112</ele>
        <time>2019-05-30T15:14:12Z</time>
      </trkpt>
      <trkpt lat="49.37805" lon="4.05424">
        <ele>111</ele>
        <time>2019-05-30T15:14:13Z</time>
      </trkpt>
      <trkpt lat="49.37807" lon="4.05414">
        <ele>111</ele>
        <time>2019-05-30T15:14:14Z</time>
      </trkpt>
      <trkpt lat="49.37808" lon="4.05404">
        <ele>111</ele>
        <time>2019-05-30T15:14:15Z</time>
      </trkpt>
      <trkpt lat="49.3781" lon="4.05394">
        <ele>111</ele>
        <time>2019-05-30T15:14:16Z</time>
      </trkpt>
      <trkpt lat="49.37812" lon="4.05383">
        <ele>111</ele>
        <time>2019-05-30T15:14:17Z</time>
      </trkpt>
      <trkpt lat="49.37813" lon="4.05373">
        <ele>111</ele>
        <time>2019-05-30T15:14:18Z</time>
      </trkpt>
      <trkpt lat="49.37815" lon="4.05362">
        <ele>111</ele>
        <time>2019-05-30T15:14:19Z</time>
      </trkpt>
      <trkpt lat="49.37817" lon="4.05352">
        <ele>112</ele>
        <time>2019-05-30T15:14:20Z</time>
      </trkpt>
      <trkpt lat="49.37818" lon="4.05342">
        <ele>112</ele>
        <time>2019-05-30T15:14:21Z</time>
      </trkpt>
      <trkpt lat="49.3782" lon="4.05332">
        <ele>112</ele>
        <time>2019-05-30T15:14:22Z</time>
      </trkpt>
      <trkpt lat="49.37822" lon="4.05323">
        <ele>112</ele>
        <time>2019-05-30T15:14:23Z</time>
      </trkpt>
      <trkpt lat="49.37823" lon="4.05313">
        <ele>113</ele>
        <time>2019-05-30T15:14:24Z</time>
      </trkpt>
      <trkpt lat="49.37825" lon="4.05304">
        <ele>113</ele>
        <time>2019-05-30T15:14:25Z</time>
      </trkpt>
      <trkpt lat="49.37827" lon="4.05295">
        <ele>113</ele>
        <time>2019-05-30T15:14:26Z</time>
      </trkpt>
      <trkpt lat="49.37829" lon="4.05287">
        <ele>113</ele>
        <time>2019-05-30T15:14:27Z</time>
      </trkpt>
      <trkpt lat="49.37831" lon="4.05278">
        <ele>113</ele>
        <time>2019-05-30T15:14:28Z</time>
      </trkpt>
      <trkpt lat="49.37833" lon="4.05269">
        <ele>112</ele>
        <time>2019-05-30T15:14:29Z</time>
      </trkpt>
      <trkpt lat="49.37836" lon="4.0526">
        <ele>113</ele>
        <time>2019-05-30T15:14:30Z</time>
      </trkpt>
      <trkpt lat="49.37839" lon="4.05251">
        <ele>113</ele>
        <time>2019-05-30T15:14:31Z</time>
      </trkpt>
      <trkpt lat="49.37842" lon="4.05242">
        <ele>112</ele>
        <time>2019-05-30T15:14:32Z</time>
      </trkpt>
      <trkpt lat="49.37846" lon="4.05235">
        <ele>112</ele>
        <time>2019-05-30T15:14:33Z</time>
      </trkpt>
      <trkpt lat="49.3785" lon="4.05227">
        <ele>112</ele>
        <time>2019-05-30T15:14:34Z</time>
      </trkpt>
      <trkpt lat="49.37854" lon="4.05219">
        <ele>112</ele>
        <time>2019-05-30T15:14:35Z</time>
      </trkpt>
      <trkpt lat="49.37858" lon="4.05211">
        <ele>112</ele>
        <time>2019-05-30T15:14:36Z</time>
      </trkpt>
      <trkpt lat="49.37861" lon="4.05203">
        <ele>112</ele>
        <time>2019-05-30T15:14:37Z</time>
      </trkpt>
      <trkpt lat="49.37865" lon="4.05196">
        <ele>112</ele>
        <time>2019-05-30T15:14:38Z</time>
      </trkpt>
      <trkpt lat="49.37869" lon="4.05188">
        <ele>112</ele>
        <time>2019-05-30T15:14:39Z</time>
      </trkpt>
      <trkpt lat="49.37873" lon="4.0518">
        <ele>112</ele>
        <time>2019-05-30T15:14:40Z</time>
      </trkpt>
      <trkpt lat="49.37877" lon="4.05172">
        <ele>112</ele>
        <time>2019-05-30T15:14:41Z</time>
      </trkpt>
      <trkpt lat="49.37882" lon="4.05163">
        <ele>112</ele>
        <time>2019-05-30T15:14:42Z</time>
      </trkpt>
      <trkpt lat="49.37886" lon="4.05154">
        <ele>112</ele>
        <time>2019-05-30T15:14:43Z</time>
      </trkpt>
      <trkpt lat="49.37891" lon="4.05145">
        <ele>112</ele>
        <time>2019-05-30T15:14:44Z</time>
      </trkpt>
      <trkpt lat="49.37895" lon="4.05135">
        <ele>112</ele>
        <time>2019-05-30T15:14:45Z</time>
      </trkpt>
      <trkpt lat="49.379" lon="4.05126">
        <ele>112</ele>
        <time>2019-05-30T15:14:46Z</time>
      </trkpt>
      <trkpt lat="49.37904" lon="4.05116">
        <ele>111</ele>
        <time>2019-05-30T15:14:47Z</time>
      </trkpt>
      <trkpt lat="49.37909" lon="4.05106">
        <ele>111</ele>
        <time>2019-05-30T15:14:48Z</time>
      </trkpt>
      <trkpt lat="49.37913" lon="4.05095">
        <ele>111</ele>
        <time>2019-05-30T15:14:49Z</time>
      </trkpt>
      <trkpt lat="49.37918" lon="4.05085">
        <ele>111</ele>
        <time>2019-05-30T15:14:50Z</time>
      </trkpt>
      <trkpt lat="49.37922" lon="4.05075">
        <ele>111</ele>
        <time>2019-05-30T15:14:51Z</time>
      </trkpt>
      <trkpt lat="49.37926" lon="4.05064">
        <ele>111</ele>
        <time>2019-05-30T15:14:52Z</time>
      </trkpt>
      <trkpt lat="49.3793" lon="4.05053">
        <ele>111</ele>
        <time>2019-05-30T15:14:53Z</time>
      </trkpt>
      <trkpt lat="49.37934" lon="4.05042">
        <ele>111</ele>
        <time>2019-05-30T15:14:54Z</time>
      </trkpt>
      <trkpt lat="49.37938" lon="4.05032">
        <ele>111</ele>
        <time>2019-05-30T15:14:55Z</time>
      </trkpt>
      <trkpt lat="49.37942" lon="4.05021">
        <ele>111</ele>
        <time>2019-05-30T15:14:56Z</time>
      </trkpt>
      <trkpt lat="49.37946" lon="4.0501">
        <ele>111</ele>
        <time>2019-05-30T15:14:57Z</time>
      </trkpt>
      <trkpt lat="49.37949" lon="4.04998">
        <ele>111</ele>
        <time>2019-05-30T15:14:58Z</time>
      </trkpt>
      <trkpt lat="49.37952" lon="4.04987">
        <ele>111</ele>
        <time>2019-05-30T15:14:59Z</time>
      </trkpt>
      <trkpt lat="49.37954" lon="4.04975">
        <ele>110</ele>
        <time>2019-05-30T15:15:00Z</time>
      </trkpt>
      <trkpt lat="49.37957" lon="4.04964">
        <ele>110</ele>
        <time>2019-05-30T15:15:01Z</time>
      </trkpt>
      <trkpt lat="49.3796" lon="4.04952">
        <ele>110</ele>
        <time>2019-05-30T15:15:02Z</time>
      </trkpt>
      <trkpt lat="49.37963" lon="4.04941">
        <ele>110</ele>
        <time>2019-05-30T15:15:03Z</time>
      </trkpt>
      <trkpt lat="49.37965" lon="4.04929">
        <ele>110</ele>
        <time>2019-05-30T15:15:04Z</time>
      </trkpt>
      <trkpt lat="49.37968" lon="4.04918">
        <ele>110</ele>
        <time>2019-05-30T15:15:05Z</time>
      </trkpt>
      <trkpt lat="49.37971" lon="4.04907">
        <ele>109</ele>
        <time>2019-05-30T15:15:06Z</time>
      </trkpt>
      <trkpt lat="49.37974" lon="4.04895">
        <ele>109</ele>
        <time>2019-05-30T15:15:07Z</time>
      </trkpt>
      <trkpt lat="49.37976" lon="4.04884">
        <ele>109</ele>
        <time>2019-05-30T15:15:08Z</time>
      </trkpt>
      <trkpt lat="49.37979" lon="4.04872">
        <ele>109</ele>
        <time>2019-05-30T15:15:09Z</time>
      </trkpt>
      <trkpt lat="49.37981" lon="4.04861">
        <ele>109</ele>
        <time>2019-05-30T15:15:10Z</time>
      </trkpt>
      <trkpt lat="49.37983" lon="4.04849">
        <ele>109</ele>
        <time>2019-05-30T15:15:11Z</time>
      </trkpt>
      <trkpt lat="49.37985" lon="4.04838">
        <ele>108</ele>
        <time>2019-05-30T15:15:12Z</time>
      </trkpt>
      <trkpt lat="49.37988" lon="4.04826">
        <ele>108</ele>
        <time>2019-05-30T15:15:13Z</time>
      </trkpt>
      <trkpt lat="49.3799" lon="4.04816">
        <ele>108</ele>
        <time>2019-05-30T15:15:14Z</time>
      </trkpt>
      <trkpt lat="49.37992" lon="4.04806">
        <ele>108</ele>
        <time>2019-05-30T15:15:15Z</time>
      </trkpt>
      <trkpt lat="49.37993" lon="4.04795">
        <ele>108</ele>
        <time>2019-05-30T15:15:16Z</time>
      </trkpt>
      <trkpt lat="49.37995" lon="4.04785">
        <ele>108</ele>
        <time>2019-05-30T15:15:17Z</time>
      </trkpt>
      <trkpt lat="49.37997" lon="4.04775">
        <ele>108</ele>
        <time>2019-05-30T15:15:18Z</time>
      </trkpt>
      <trkpt lat="49.37999" lon="4.04765">
        <ele>108</ele>
        <time>2019-05-30T15:15:19Z</time>
      </trkpt>
      <trkpt lat="49.38" lon="4.04756">
        <ele>108</ele>
        <time>2019-05-30T15:15:20Z</time>
      </trkpt>
      <trkpt lat="49.38002" lon="4.04746">
        <ele>108</ele>
        <time>2019-05-30T15:15:21Z</time>
      </trkpt>
      <trkpt lat="49.38004" lon="4.04736">
        <ele>108</ele>
        <time>2019-05-30T15:15:22Z</time>
      </trkpt>
      <trkpt lat="49.38005" lon="4.04726">
        <ele>108</ele>
        <time>2019-05-30T15:15:23Z</time>
      </trkpt>
      <trkpt lat="49.38007" lon="4.04716">
        <ele>107</ele>
        <time>2019-05-30T15:15:24Z</time>
      </trkpt>
      <trkpt lat="49.38009" lon="4.04706">
        <ele>107</ele>
        <time>2019-05-30T15:15:25Z</time>
      </trkpt>
      <trkpt lat="49.3801" lon="4.04697">
        <ele>107</ele>
        <time>2019-05-30T15:15:26Z</time>
      </trkpt>
      <trkpt lat="49.38012" lon="4.04687">
        <ele>107</ele>
        <time>2019-05-30T15:15:27Z</time>
      </trkpt>
      <trkpt lat="49.38014" lon="4.04678">
        <ele>107</ele>
        <time>2019-05-30T15:15:28Z</time>
      </trkpt>
      <trkpt lat="49.38015" lon="4.04668">
        <ele>107</ele>
        <time>2019-05-30T15:15:29Z</time>
      </trkpt>
      <trkpt lat="49.38017" lon="4.0466">
        <ele>107</ele>
        <time>2019-05-30T15:15:30Z</time>
      </trkpt>
      <trkpt lat="49.38018" lon="4.0465">
        <ele>107</ele>
        <time>2019-05-30T15:15:31Z</time>
      </trkpt>
      <trkpt lat="49.3802" lon="4.04641">
        <ele>107</ele>
        <time>2019-05-30T15:15:32Z</time>
      </trkpt>
      <trkpt lat="49.38022" lon="4.04632">
        <ele>107</ele>
        <time>2019-05-30T15:15:33Z</time>
      </trkpt>
      <trkpt lat="49.38024" lon="4.04623">
        <ele>107</ele>
        <time>2019-05-30T15:15:34Z</time>
      </trkpt>
      <trkpt lat="49.38025" lon="4.04614">
        <ele>107</ele>
        <time>2019-05-30T15:15:35Z</time>
      </trkpt>
      <trkpt lat="49.38027" lon="4.04604">
        <ele>107</ele>
        <time>2019-05-30T15:15:36Z</time>
      </trkpt>
      <trkpt lat="49.38028" lon="4.04594">
        <ele>107</ele>
        <time>2019-05-30T15:15:37Z</time>
      </trkpt>
      <trkpt lat="49.3803" lon="4.04585">
        <ele>107</ele>
        <time>2019-05-30T15:15:38Z</time>
      </trkpt>
      <trkpt lat="49.38031" lon="4.04575">
        <ele>107</ele>
        <time>2019-05-30T15:15:39Z</time>
      </trkpt>
      <trkpt lat="49.38032" lon="4.04565">
        <ele>107</ele>
        <time>2019-05-30T15:15:40Z</time>
      </trkpt>
      <trkpt lat="49.38033" lon="4.04555">
        <ele>107</ele>
        <time>2019-05-30T15:15:41Z</time>
      </trkpt>
      <trkpt lat="49.38034" lon="4.04545">
        <ele>107</ele>
        <time>2019-05-30T15:15:42Z</time>
      </trkpt>
      <trkpt lat="49.38035" lon="4.04535">
        <ele>107</ele>
        <time>2019-05-30T15:15:43Z</time>
      </trkpt>
      <trkpt lat="49.38035" lon="4.04525">
        <ele>107</ele>
        <time>2019-05-30T15:15:44Z</time>
      </trkpt>
      <trkpt lat="49.38035" lon="4.04514">
        <ele>107</ele>
        <time>2019-05-30T15:15:45Z</time>
      </trkpt>
      <trkpt lat="49.38035" lon="4.04504">
        <ele>108</ele>
        <time>2019-05-30T15:15:46Z</time>
      </trkpt>
      <trkpt lat="49.38035" lon="4.04495">
        <ele>108</ele>
        <time>2019-05-30T15:15:47Z</time>
      </trkpt>
      <trkpt lat="49.38035" lon="4.04485">
        <ele>108</ele>
        <time>2019-05-30T15:15:48Z</time>
      </trkpt>
      <trkpt lat="49.38034" lon="4.04475">
        <ele>108</ele>
        <time>2019-05-30T15:15:49Z</time>
      </trkpt>
      <trkpt lat="49.38034" lon="4.04466">
        <ele>108</ele>
        <time>2019-05-30T15:15:50Z</time>
      </trkpt>
      <trkpt lat="49.38033" lon="4.04456">
        <ele>108</ele>
        <time>2019-05-30T15:15:51Z</time>
      </trkpt>
      <trkpt lat="49.38032" lon="4.04446">
        <ele>108</ele>
        <time>2019-05-30T15:15:52Z</time>
      </trkpt>
      <trkpt lat="49.38031" lon="4.04436">
        <ele>108</ele>
        <time>2019-05-30T15:15:53Z</time>
      </trkpt>
      <trkpt lat="49.3803" lon="4.04427">
        <ele>108</ele>
        <time>2019-05-30T15:15:54Z</time>
      </trkpt>
      <trkpt lat="49.38029" lon="4.04417">
        <ele>108</ele>
        <time>2019-05-30T15:15:55Z</time>
      </trkpt>
      <trkpt lat="49.38027" lon="4.04407">
        <ele>108</ele>
        <time>2019-05-30T15:15:56Z</time>
      </trkpt>
      <trkpt lat="49.38025" lon="4.04398">
        <ele>108</ele>
        <time>2019-05-30T15:15:57Z</time>
      </trkpt>
      <trkpt lat="49.38024" lon="4.04388">
        <ele>108</ele>
        <time>2019-05-30T15:15:58Z</time>
      </trkpt>
      <trkpt lat="49.38022" lon="4.04379">
        <ele>109</ele>
        <time>2019-05-30T15:15:59Z</time>
      </trkpt>
      <trkpt lat="49.3802" lon="4.04369">
        <ele>109</ele>
        <time>2019-05-30T15:16:00Z</time>
      </trkpt>
      <trkpt lat="49.38018" lon="4.0436">
        <ele>109</ele>
        <time>2019-05-30T15:16:01Z</time>
      </trkpt>
      <trkpt lat="49.38016" lon="4.0435">
        <ele>109</ele>
        <time>2019-05-30T15:16:02Z</time>
      </trkpt>
      <trkpt lat="49.38015" lon="4.0434">
        <ele>109</ele>
        <time>2019-05-30T15:16:03Z</time>
      </trkpt>
      <trkpt lat="49.38013" lon="4.04331">
        <ele>109</ele>
        <time>2019-05-30T15:16:04Z</time>
      </trkpt>
      <trkpt lat="49.38011" lon="4.04321">
        <ele>109</ele>
        <time>2019-05-30T15:16:05Z</time>
      </trkpt>
      <trkpt lat="49.3801" lon="4.04311">
        <ele>110</ele>
        <time>2019-05-30T15:16:06Z</time>
      </trkpt>
      <trkpt lat="49.38009" lon="4.04301">
        <ele>110</ele>
        <time>2019-05-30T15:16:07Z</time>
      </trkpt>
      <trkpt lat="49.38007" lon="4.04291">
        <ele>110</ele>
        <time>2019-05-30T15:16:08Z</time>
      </trkpt>
      <trkpt lat="49.38006" lon="4.04282">
        <ele>110</ele>
        <time>2019-05-30T15:16:09Z</time>
      </trkpt>
      <trkpt lat="49.38005" lon="4.04272">
        <ele>110</ele>
        <time>2019-05-30T15:16:10Z</time>
      </trkpt>
      <trkpt lat="49.38004" lon="4.04262">
        <ele>110</ele>
        <time>2019-05-30T15:16:11Z</time>
      </trkpt>
      <trkpt lat="49.38004" lon="4.04254">
        <ele>110</ele>
        <time>2019-05-30T15:16:12Z</time>
      </trkpt>
      <trkpt lat="49.38003" lon="4.04244">
        <ele>110</ele>
        <time>2019-05-30T15:16:13Z</time>
      </trkpt>
      <trkpt lat="49.38003" lon="4.04235">
        <ele>110</ele>
        <time>2019-05-30T15:16:14Z</time>
      </trkpt>
      <trkpt lat="49.38003" lon="4.04225">
        <ele>109</ele>
        <time>2019-05-30T15:16:15Z</time>
      </trkpt>
      <trkpt lat="49.38003" lon="4.04215">
        <ele>109</ele>
        <time>2019-05-30T15:16:16Z</time>
      </trkpt>
      <trkpt lat="49.38002" lon="4.04206">
        <ele>109</ele>
        <time>2019-05-30T15:16:17Z</time>
      </trkpt>
      <trkpt lat="49.38002" lon="4.04197">
        <ele>109</ele>
        <time>2019-05-30T15:16:18Z</time>
      </trkpt>
      <trkpt lat="49.38003" lon="4.04187">
        <ele>108</ele>
        <time>2019-05-30T15:16:19Z</time>
      </trkpt>
      <trkpt lat="49.38003" lon="4.04178">
        <ele>108</ele>
        <time>2019-05-30T15:16:20Z</time>
      </trkpt>
      <trkpt lat="49.38002" lon="4.04169">
        <ele>108</ele>
        <time>2019-05-30T15:16:21Z</time>
      </trkpt>
      <trkpt lat="49.38002" lon="4.04159">
        <ele>108</ele>
        <time>2019-05-30T15:16:22Z</time>
      </trkpt>
      <trkpt lat="49.38002" lon="4.0415">
        <ele>108</ele>
        <time>2019-05-30T15:16:23Z</time>
      </trkpt>
      <trkpt lat="49.38001" lon="4.0414">
        <ele>108</ele>
        <time>2019-05-30T15:16:24Z</time>
      </trkpt>
      <trkpt lat="49.38" lon="4.0413">
        <ele>108</ele>
        <time>2019-05-30T15:16:25Z</time>
      </trkpt>
      <trkpt lat="49.37998" lon="4.04121">
        <ele>108</ele>
        <time>2019-05-30T15:16:26Z</time>
      </trkpt>
      <trkpt lat="49.37997" lon="4.04111">
        <ele>109</ele>
        <time>2019-05-30T15:16:27Z</time>
      </trkpt>
      <trkpt lat="49.37995" lon="4.04101">
        <ele>109</ele>
        <time>2019-05-30T15:16:28Z</time>
      </trkpt>
      <trkpt lat="49.37994" lon="4.04091">
        <ele>109</ele>
        <time>2019-05-30T15:16:29Z</time>
      </trkpt>
      <trkpt lat="49.37992" lon="4.04081">
        <ele>109</ele>
        <time>2019-05-30T15:16:30Z</time>
      </trkpt>
      <trkpt lat="49.37991" lon="4.04072">
        <ele>109</ele>
        <time>2019-05-30T15:16:31Z</time>
      </trkpt>
      <trkpt lat="49.37989" lon="4.04062">
        <ele>109</ele>
        <time>2019-05-30T15:16:32Z</time>
      </trkpt>
      <trkpt lat="49.37988" lon="4.04051">
        <ele>109</ele>
        <time>2019-05-30T15:16:33Z</time>
      </trkpt>
      <trkpt lat="49.37988" lon="4.04041">
        <ele>108</ele>
        <time>2019-05-30T15:16:34Z</time>
      </trkpt>
      <trkpt lat="49.37989" lon="4.04031">
        <ele>108</ele>
        <time>2019-05-30T15:16:35Z</time>
      </trkpt>
      <trkpt lat="49.3799" lon="4.0402">
        <ele>108</ele>
        <time>2019-05-30T15:16:36Z</time>
      </trkpt>
      <trkpt lat="49.37991" lon="4.04011">
        <ele>108</ele>
        <time>2019-05-30T15:16:37Z</time>
      </trkpt>
      <trkpt lat="49.37993" lon="4.04001">
        <ele>107</ele>
        <time>2019-05-30T15:16:38Z</time>
      </trkpt>
      <trkpt lat="49.37996" lon="4.03992">
        <ele>107</ele>
        <time>2019-05-30T15:16:39Z</time>
      </trkpt>
      <trkpt lat="49.37998" lon="4.03984">
        <ele>107</ele>
        <time>2019-05-30T15:16:40Z</time>
      </trkpt>
      <trkpt lat="49.37999" lon="4.03975">
        <ele>107</ele>
        <time>2019-05-30T15:16:41Z</time>
      </trkpt>
      <trkpt lat="49.38001" lon="4.03967">
        <ele>107</ele>
        <time>2019-05-30T15:16:42Z</time>
      </trkpt>
      <trkpt lat="49.38002" lon="4.0396">
        <ele>107</ele>
        <time>2019-05-30T15:16:43Z</time>
      </trkpt>
      <trkpt lat="49.38004" lon="4.03956">
        <ele>107</ele>
        <time>2019-05-30T15:16:44Z</time>
      </trkpt>
      <trkpt lat="49.38005" lon="4.03953">
        <ele>107</ele>
        <time>2019-05-30T15:16:45Z</time>
      </trkpt>
      <trkpt lat="49.38005" lon="4.03952">
        <ele>107</ele>
        <time>2019-05-30T15:16:46Z</time>
      </trkpt>
      <trkpt lat="49.38005" lon="4.03952">
        <ele>107</ele>
        <time>2019-05-30T15:16:47Z</time>
      </trkpt>
      <trkpt lat="49.38006" lon="4.03952">
        <ele>107</ele>
        <time>2019-05-30T15:16:48Z</time>
      </trkpt>
      <trkpt lat="49.38006" lon="4.03952">
        <ele>107</ele>
        <time>2019-05-30T15:16:49Z</time>
      </trkpt>
      <trkpt lat="49.38006" lon="4.03952">
        <ele>107</ele>
        <time>2019-05-30T15:16:50Z</time>
      </trkpt>
      <trkpt lat="49.38006" lon="4.03952">
        <ele>107</ele>
        <time>2019-05-30T15:16:51Z</time>
      </trkpt>
      <trkpt lat="49.38007" lon="4.03953">
        <ele>107</ele>
        <time>2019-05-30T15:16:52Z</time>
      </trkpt>
      <trkpt lat="49.38007" lon="4.03954">
        <ele>107</ele>
        <time>2019-05-30T15:16:53Z</time>
      </trkpt>
      <trkpt lat="49.38007" lon="4.03955">
        <ele>107</ele>
        <time>2019-05-30T15:16:54Z</time>
      </trkpt>
      <trkpt lat="49.38007" lon="4.03956">
        <ele>107</ele>
        <time>2019-05-30T15:16:55Z</time>
      </trkpt>
      <trkpt lat="49.38007" lon="4.03956">
        <ele>107</ele>
        <time>2019-05-30T15:16:56Z</time>
      </trkpt>
      <trkpt lat="49.38007" lon="4.03956">
        <ele>108</ele>
        <time>2019-05-30T15:16:57Z</time>
      </trkpt>
      <trkpt lat="49.38007" lon="4.03956">
        <ele>108</ele>
        <time>2019-05-30T15:16:58Z</time>
      </trkpt>
      <trkpt lat="49.38007" lon="4.03956">
        <ele>108</ele>
        <time>2019-05-30T15:16:59Z</time>
      </trkpt>
      <trkpt lat="49.38007" lon="4.03956">
        <ele>108</ele>
        <time>2019-05-30T15:17:00Z</time>
      </trkpt>
      <trkpt lat="49.38007" lon="4.03956">
        <ele>108</ele>
        <time>2019-05-30T15:17:01Z</time>
      </trkpt>
      <trkpt lat="49.38007" lon="4.03956">
        <ele>108</ele>
        <time>2019-05-30T15:17:02Z</time>
      </trkpt>
      <trkpt lat="49.38007" lon="4.03956">
        <ele>108</ele>
        <time>2019-05-30T15:17:03Z</time>
      </trkpt>
      <trkpt lat="49.38007" lon="4.03956">
        <ele>108</ele>
        <time>2019-05-30T15:17:04Z</time>
      </trkpt>
      <trkpt lat="49.38007" lon="4.03956">
        <ele>108</ele>
        <time>2019-05-30T15:17:05Z</time>
      </trkpt>
      <trkpt lat="49.38007" lon="4.03956">
        <ele>108</ele>
        <time>2019-05-30T15:17:06Z</time>
      </trkpt>
      <trkpt lat="49.38007" lon="4.03956">
        <ele>108</ele>
        <time>2019-05-30T15:17:07Z</time>
      </trkpt>
      <trkpt lat="49.38007" lon="4.03956">
        <ele>108</ele>
        <time>2019-05-30T15:17:08Z</time>
      </trkpt>
      <trkpt lat="49.38007" lon="4.03956">
        <ele>108</ele>
        <time>2019-05-30T15:17:09Z</time>
      </trkpt>
      <trkpt lat="49.38007" lon="4.03956">
        <ele>108</ele>
        <time>2019-05-30T15:17:10Z</time>
      </trkpt>
      <trkpt lat="49.38007" lon="4.03956">
        <ele>108</ele>
        <time>2019-05-30T15:17:11Z</time>
      </trkpt>
      <trkpt lat="49.38007" lon="4.03956">
        <ele>108</ele>
        <time>2019-05-30T15:17:12Z</time>
      </trkpt>
      <trkpt lat="49.38007" lon="4.03956">
        <ele>108</ele>
        <time>2019-05-30T15:17:13Z</time>
      </trkpt>
      <trkpt lat="49.38007" lon="4.03956">
        <ele>108</ele>
        <time>2019-05-30T15:17:14Z</time>
      </trkpt>
      <trkpt lat="49.38007" lon="4.03956">
        <ele>108</ele>
        <time>2019-05-30T15:17:15Z</time>
      </trkpt>
      <trkpt lat="49.38007" lon="4.03956">
        <ele>108</ele>
        <time>2019-05-30T15:17:16Z</time>
      </trkpt>
      <trkpt lat="49.38007" lon="4.03956">
        <ele>108</ele>
        <time>2019-05-30T15:17:17Z</time>
      </trkpt>
      <trkpt lat="49.38007" lon="4.03956">
        <ele>108</ele>
        <time>2019-05-30T15:17:18Z</time>
      </trkpt>
      <trkpt lat="49.38007" lon="4.03956">
        <ele>108</ele>
        <time>2019-05-30T15:17:19Z</time>
      </trkpt>
      <trkpt lat="49.38007" lon="4.03956">
        <ele>108</ele>
        <time>2019-05-30T15:17:20Z</time>
      </trkpt>
      <trkpt lat="49.38007" lon="4.03956">
        <ele>108</ele>
        <time>2019-05-30T15:17:21Z</time>
      </trkpt>
      <trkpt lat="49.38007" lon="4.03956">
        <ele>108</ele>
        <time>2019-05-30T15:17:22Z</time>
      </trkpt>
      <trkpt lat="49.38007" lon="4.03956">
        <ele>108</ele>
        <time>2019-05-30T15:17:23Z</time>
      </trkpt>
      <trkpt lat="49.38007" lon="4.03956">
        <ele>108</ele>
        <time>2019-05-30T15:17:24Z</time>
      </trkpt>
      <trkpt lat="49.38007" lon="4.03956">
        <ele>108</ele>
        <time>2019-05-30T15:17:25Z</time>
      </trkpt>
      <trkpt lat="49.38007" lon="4.03956">
        <ele>108</ele>
        <time>2019-05-30T15:17:26Z</time>
      </trkpt>
      <trkpt lat="49.38007" lon="4.03956">
        <ele>108</ele>
        <time>2019-05-30T15:17:27Z</time>
      </trkpt>
      <trkpt lat="49.38007" lon="4.03956">
        <ele>108</ele>
        <time>2019-05-30T15:17:28Z</time>
      </trkpt>
      <trkpt lat="49.38007" lon="4.03956">
        <ele>108</ele>
        <time>2019-05-30T15:17:29Z</time>
      </trkpt>
      <trkpt lat="49.38007" lon="4.03956">
        <ele>108</ele>
        <time>2019-05-30T15:17:30Z</time>
      </trkpt>
      <trkpt lat="49.38007" lon="4.03956">
        <ele>108</ele>
        <time>2019-05-30T15:17:31Z</time>
      </trkpt>
      <trkpt lat="49.38007" lon="4.03956">
        <ele>108</ele>
        <time>2019-05-30T15:17:32Z</time>
      </trkpt>
      <trkpt lat="49.38007" lon="4.03956">
        <ele>108</ele>
        <time>2019-05-30T15:17:33Z</time>
      </trkpt>
      <trkpt lat="49.38007" lon="4.03956">
        <ele>108</ele>
        <time>2019-05-30T15:17:34Z</time>
      </trkpt>
      <trkpt lat="49.38007" lon="4.03956">
        <ele>108</ele>
        <time>2019-05-30T15:17:35Z</time>
      </trkpt>
      <trkpt lat="49.38007" lon="4.03956">
        <ele>108</ele>
        <time>2019-05-30T15:17:36Z</time>
      </trkpt>
      <trkpt lat="49.38007" lon="4.03957">
        <ele>107</ele>
        <time>2019-05-30T15:17:37Z</time>
      </trkpt>
      <trkpt lat="49.38007" lon="4.03957">
        <ele>107</ele>
        <time>2019-05-30T15:17:38Z</time>
      </trkpt>
      <trkpt lat="49.38007" lon="4.03957">
        <ele>107</ele>
        <time>2019-05-30T15:17:39Z</time>
      </trkpt>
      <trkpt lat="49.38007" lon="4.03957">
        <ele>107</ele>
        <time>2019-05-30T15:17:40Z</time>
      </trkpt>
      <trkpt lat="49.38007" lon="4.03957">
        <ele>107</ele>
        <time>2019-05-30T15:17:41Z</time>
      </trkpt>
      <trkpt lat="49.38007" lon="4.03957">
        <ele>107</ele>
        <time>2019-05-30T15:17:42Z</time>
      </trkpt>
      <trkpt lat="49.38006" lon="4.03958">
        <ele>108</ele>
        <time>2019-05-30T15:17:43Z</time>
      </trkpt>
      <trkpt lat="49.38006" lon="4.03959">
        <ele>108</ele>
        <time>2019-05-30T15:17:44Z</time>
      </trkpt>
      <trkpt lat="49.38006" lon="4.03959">
        <ele>108</ele>
        <time>2019-05-30T15:17:45Z</time>
      </trkpt>
      <trkpt lat="49.38006" lon="4.03957">
        <ele>108</ele>
        <time>2019-05-30T15:17:46Z</time>
      </trkpt>
      <trkpt lat="49.38006" lon="4.03957">
        <ele>108</ele>
        <time>2019-05-30T15:17:47Z</time>
      </trkpt>
      <trkpt lat="49.38006" lon="4.03957">
        <ele>108</ele>
        <time>2019-05-30T15:17:48Z</time>
      </trkpt>
      <trkpt lat="49.38006" lon="4.03957">
        <ele>108</ele>
        <time>2019-05-30T15:17:49Z</time>
      </trkpt>
      <trkpt lat="49.38006" lon="4.03957">
        <ele>108</ele>
        <time>2019-05-30T15:17:50Z</time>
      </trkpt>
      <trkpt lat="49.38006" lon="4.03957">
        <ele>108</ele>
        <time>2019-05-30T15:17:51Z</time>
      </trkpt>
      <trkpt lat="49.38007" lon="4.03957">
        <ele>110</ele>
        <time>2019-05-30T15:17:52Z</time>
      </trkpt>
      <trkpt lat="49.38007" lon="4.03957">
        <ele>110</ele>
        <time>2019-05-30T15:17:53Z</time>
      </trkpt>
      <trkpt lat="49.38007" lon="4.03956">
        <ele>110</ele>
        <time>2019-05-30T15:17:54Z</time>
      </trkpt>
      <trkpt lat="49.38007" lon="4.03955">
        <ele>110</ele>
        <time>2019-05-30T15:17:55Z</time>
      </trkpt>
      <trkpt lat="49.38007" lon="4.03952">
        <ele>110</ele>
        <time>2019-05-30T15:17:56Z</time>
      </trkpt>
      <trkpt lat="49.38008" lon="4.0395">
        <ele>110</ele>
        <time>2019-05-30T15:17:57Z</time>
      </trkpt>
      <trkpt lat="49.38008" lon="4.03947">
        <ele>110</ele>
        <time>2019-05-30T15:17:58Z</time>
      </trkpt>
      <trkpt lat="49.38008" lon="4.03943">
        <ele>110</ele>
        <time>2019-05-30T15:17:59Z</time>
      </trkpt>
      <trkpt lat="49.38008" lon="4.03938">
        <ele>110</ele>
        <time>2019-05-30T15:18:00Z</time>
      </trkpt>
      <trkpt lat="49.38008" lon="4.03933">
        <ele>110</ele>
        <time>2019-05-30T15:18:01Z</time>
      </trkpt>
      <trkpt lat="49.38007" lon="4.03928">
        <ele>110</ele>
        <time>2019-05-30T15:18:02Z</time>
      </trkpt>
      <trkpt lat="49.38007" lon="4.03924">
        <ele>110</ele>
        <time>2019-05-30T15:18:03Z</time>
      </trkpt>
      <trkpt lat="49.38008" lon="4.0392">
        <ele>110</ele>
        <time>2019-05-30T15:18:04Z</time>
      </trkpt>
      <trkpt lat="49.38009" lon="4.03916">
        <ele>110</ele>
        <time>2019-05-30T15:18:05Z</time>
      </trkpt>
      <trkpt lat="49.38009" lon="4.03912">
        <ele>110</ele>
        <time>2019-05-30T15:18:06Z</time>
      </trkpt>
      <trkpt lat="49.38009" lon="4.03908">
        <ele>110</ele>
        <time>2019-05-30T15:18:07Z</time>
      </trkpt>
      <trkpt lat="49.38009" lon="4.03905">
        <ele>110</ele>
        <time>2019-05-30T15:18:08Z</time>
      </trkpt>
      <trkpt lat="49.3801" lon="4.03902">
        <ele>109</ele>
        <time>2019-05-30T15:18:09Z</time>
      </trkpt>
      <trkpt lat="49.3801" lon="4.03899">
        <ele>110</ele>
        <time>2019-05-30T15:18:10Z</time>
      </trkpt>
      <trkpt lat="49.3801" lon="4.03897">
        <ele>110</ele>
        <time>2019-05-30T15:18:11Z</time>
      </trkpt>
      <trkpt lat="49.3801" lon="4.03896">
        <ele>110</ele>
        <time>2019-05-30T15:18:12Z</time>
      </trkpt>
      <trkpt lat="49.3801" lon="4.03896">
        <ele>110</ele>
        <time>2019-05-30T15:18:13Z</time>
      </trkpt>
      <trkpt lat="49.3801" lon="4.03896">
        <ele>110</ele>
        <time>2019-05-30T15:18:14Z</time>
      </trkpt>
      <trkpt lat="49.3801" lon="4.03896">
        <ele>110</ele>
        <time>2019-05-30T15:18:15Z</time>
      </trkpt>
      <trkpt lat="49.3801" lon="4.03896">
        <ele>110</ele>
        <time>2019-05-30T15:18:16Z</time>
      </trkpt>
      <trkpt lat="49.3801" lon="4.03896">
        <ele>110</ele>
        <time>2019-05-30T15:18:17Z</time>
      </trkpt>
      <trkpt lat="49.3801" lon="4.03896">
        <ele>110</ele>
        <time>2019-05-30T15:18:18Z</time>
      </trkpt>
      <trkpt lat="49.3801" lon="4.03896">
        <ele>110</ele>
        <time>2019-05-30T15:18:19Z</time>
      </trkpt>
      <trkpt lat="49.3801" lon="4.03896">
        <ele>110</ele>
        <time>2019-05-30T15:18:20Z</time>
      </trkpt>
      <trkpt lat="49.3801" lon="4.03896">
        <ele>110</ele>
        <time>2019-05-30T15:18:21Z</time>
      </trkpt>
      <trkpt lat="49.3801" lon="4.03896">
        <ele>110</ele>
        <time>2019-05-30T15:18:22Z</time>
      </trkpt>
      <trkpt lat="49.3801" lon="4.03896">
        <ele>110</ele>
        <time>2019-05-30T15:18:23Z</time>
      </trkpt>
      <trkpt lat="49.3801" lon="4.03896">
        <ele>110</ele>
        <time>2019-05-30T15:18:24Z</time>
      </trkpt>
      <trkpt lat="49.3801" lon="4.03896">
        <ele>110</ele>
        <time>2019-05-30T15:18:25Z</time>
      </trkpt>
      <trkpt lat="49.3801" lon="4.03896">
        <ele>110</ele>
        <time>2019-05-30T15:18:26Z</time>
      </trkpt>
      <trkpt lat="49.3801" lon="4.03896">
        <ele>110</ele>
        <time>2019-05-30T15:18:27Z</time>
      </trkpt>
      <trkpt lat="49.3801" lon="4.03896">
        <ele>110</ele>
        <time>2019-05-30T15:18:28Z</time>
      </trkpt>
      <trkpt lat="49.3801" lon="4.03896">
        <ele>110</ele>
        <time>2019-05-30T15:18:29Z</time>
      </trkpt>
      <trkpt lat="49.3801" lon="4.03896">
        <ele>110</ele>
        <time>2019-05-30T15:18:30Z</time>
      </trkpt>
      <trkpt lat="49.3801" lon="4.03896">
        <ele>110</ele>
        <time>2019-05-30T15:18:31Z</time>
      </trkpt>
      <trkpt lat="49.3801" lon="4.03896">
        <ele>110</ele>
        <time>2019-05-30T15:18:32Z</time>
      </trkpt>
      <trkpt lat="49.3801" lon="4.03896">
        <ele>110</ele>
        <time>2019-05-30T15:18:33Z</time>
      </trkpt>
      <trkpt lat="49.3801" lon="4.03896">
        <ele>110</ele>
        <time>2019-05-30T15:18:34Z</time>
      </trkpt>
      <trkpt lat="49.3801" lon="4.03896">
        <ele>110</ele>
        <time>2019-05-30T15:18:35Z</time>
      </trkpt>
      <trkpt lat="49.3801" lon="4.03896">
        <ele>110</ele>
        <time>2019-05-30T15:18:36Z</time>
      </trkpt>
      <trkpt lat="49.3801" lon="4.03896">
        <ele>110</ele>
        <time>2019-05-30T15:18:37Z</time>
      </trkpt>
      <trkpt lat="49.3801" lon="4.03896">
        <ele>110</ele>
        <time>2019-05-30T15:18:38Z</time>
      </trkpt>
      <trkpt lat="49.3801" lon="4.03896">
        <ele>110</ele>
        <time>2019-05-30T15:18:39Z</time>
      </trkpt>
      <trkpt lat="49.3801" lon="4.03896">
        <ele>110</ele>
        <time>2019-05-30T15:18:40Z</time>
      </trkpt>
      <trkpt lat="49.3801" lon="4.03896">
        <ele>110</ele>
        <time>2019-05-30T15:18:41Z</time>
      </trkpt>
      <trkpt lat="49.3801" lon="4.03896">
        <ele>110</ele>
        <time>2019-05-30T15:18:42Z</time>
      </trkpt>
      <trkpt lat="49.3801" lon="4.03896">
        <ele>110</ele>
        <time>2019-05-30T15:18:43Z</time>
      </trkpt>
      <trkpt lat="49.3801" lon="4.03896">
        <ele>110</ele>
        <time>2019-05-30T15:18:44Z</time>
      </trkpt>
      <trkpt lat="49.3801" lon="4.03896">
        <ele>110</ele>
        <time>2019-05-30T15:18:45Z</time>
      </trkpt>
      <trkpt lat="49.3801" lon="4.03896">
        <ele>110</ele>
        <time>2019-05-30T15:18:46Z</time>
      </trkpt>
      <trkpt lat="49.3801" lon="4.03896">
        <ele>110</ele>
        <time>2019-05-30T15:18:47Z</time>
      </trkpt>
      <trkpt lat="49.3801" lon="4.03895">
        <ele>110</ele>
        <time>2019-05-30T15:18:48Z</time>
      </trkpt>
      <trkpt lat="49.38011" lon="4.03892">
        <ele>110</ele>
        <time>2019-05-30T15:18:49Z</time>
      </trkpt>
      <trkpt lat="49.3801" lon="4.03887">
        <ele>110</ele>
        <time>2019-05-30T15:18:50Z</time>
      </trkpt>
      <trkpt lat="49.3801" lon="4.03883">
        <ele>110</ele>
        <time>2019-05-30T15:18:51Z</time>
      </trkpt>
      <trkpt lat="49.38011" lon="4.03878">
        <ele>110</ele>
        <time>2019-05-30T15:18:52Z</time>
      </trkpt>
      <trkpt lat="49.38011" lon="4.03871">
        <ele>110</ele>
        <time>2019-05-30T15:18:53Z</time>
      </trkpt>
      <trkpt lat="49.38011" lon="4.03864">
        <ele>110</ele>
        <time>2019-05-30T15:18:54Z</time>
      </trkpt>
      <trkpt lat="49.38012" lon="4.03859">
        <ele>111</ele>
        <time>2019-05-30T15:18:55Z</time>
      </trkpt>
      <trkpt lat="49.38012" lon="4.03854">
        <ele>111</ele>
        <time>2019-05-30T15:18:56Z</time>
      </trkpt>
      <trkpt lat="49.38013" lon="4.03848">
        <ele>111</ele>
        <time>2019-05-30T15:18:57Z</time>
      </trkpt>
      <trkpt lat="49.38013" lon="4.03843">
        <ele>111</ele>
        <time>2019-05-30T15:18:58Z</time>
      </trkpt>
      <trkpt lat="49.38013" lon="4.03838">
        <ele>111</ele>
        <time>2019-05-30T15:18:59Z</time>
      </trkpt>
      <trkpt lat="49.38013" lon="4.03833">
        <ele>111</ele>
        <time>2019-05-30T15:19:00Z</time>
      </trkpt>
      <trkpt lat="49.38013" lon="4.03829">
        <ele>111</ele>
        <time>2019-05-30T15:19:01Z</time>
      </trkpt>
      <trkpt lat="49.38013" lon="4.03825">
        <ele>111</ele>
        <time>2019-05-30T15:19:02Z</time>
      </trkpt>
      <trkpt lat="49.38013" lon="4.03821">
        <ele>111</ele>
        <time>2019-05-30T15:19:03Z</time>
      </trkpt>
      <trkpt lat="49.38013" lon="4.03818">
        <ele>110</ele>
        <time>2019-05-30T15:19:04Z</time>
      </trkpt>
      <trkpt lat="49.38013" lon="4.03816">
        <ele>111</ele>
        <time>2019-05-30T15:19:05Z</time>
      </trkpt>
      <trkpt lat="49.38013" lon="4.03814">
        <ele>111</ele>
        <time>2019-05-30T15:19:06Z</time>
      </trkpt>
      <trkpt lat="49.38013" lon="4.03812">
        <ele>110</ele>
        <time>2019-05-30T15:19:07Z</time>
      </trkpt>
      <trkpt lat="49.38013" lon="4.03811">
        <ele>110</ele>
        <time>2019-05-30T15:19:08Z</time>
      </trkpt>
      <trkpt lat="49.38013" lon="4.03811">
        <ele>110</ele>
        <time>2019-05-30T15:19:09Z</time>
      </trkpt>
      <trkpt lat="49.38014" lon="4.03811">
        <ele>110</ele>
        <time>2019-05-30T15:19:10Z</time>
      </trkpt>
      <trkpt lat="49.38014" lon="4.03811">
        <ele>110</ele>
        <time>2019-05-30T15:19:11Z</time>
      </trkpt>
      <trkpt lat="49.38014" lon="4.03809">
        <ele>110</ele>
        <time>2019-05-30T15:19:12Z</time>
      </trkpt>
      <trkpt lat="49.38014" lon="4.03807">
        <ele>110</ele>
        <time>2019-05-30T15:19:13Z</time>
      </trkpt>
      <trkpt lat="49.38013" lon="4.03804">
        <ele>110</ele>
        <time>2019-05-30T15:19:14Z</time>
      </trkpt>
      <trkpt lat="49.38013" lon="4.03799">
        <ele>110</ele>
        <time>2019-05-30T15:19:15Z</time>
      </trkpt>
      <trkpt lat="49.38012" lon="4.03791">
        <ele>110</ele>
        <time>2019-05-30T15:19:16Z</time>
      </trkpt>
      <trkpt lat="49.38012" lon="4.03783">
        <ele>110</ele>
        <time>2019-05-30T15:19:17Z</time>
      </trkpt>
      <trkpt lat="49.38013" lon="4.03775">
        <ele>110</ele>
        <time>2019-05-30T15:19:18Z</time>
      </trkpt>
      <trkpt lat="49.38014" lon="4.03768">
        <ele>109</ele>
        <time>2019-05-30T15:19:19Z</time>
      </trkpt>
      <trkpt lat="49.38014" lon="4.03761">
        <ele>109</ele>
        <time>2019-05-30T15:19:20Z</time>
      </trkpt>
      <trkpt lat="49.38015" lon="4.03753">
        <ele>109</ele>
        <time>2019-05-30T15:19:21Z</time>
      </trkpt>
      <trkpt lat="49.38015" lon="4.03745">
        <ele>109</ele>
        <time>2019-05-30T15:19:22Z</time>
      </trkpt>
      <trkpt lat="49.38015" lon="4.03738">
        <ele>109</ele>
        <time>2019-05-30T15:19:23Z</time>
      </trkpt>
      <trkpt lat="49.38015" lon="4.03729">
        <ele>109</ele>
        <time>2019-05-30T15:19:24Z</time>
      </trkpt>
      <trkpt lat="49.38016" lon="4.03719">
        <ele>108</ele>
        <time>2019-05-30T15:19:25Z</time>
      </trkpt>
      <trkpt lat="49.38016" lon="4.0371">
        <ele>108</ele>
        <time>2019-05-30T15:19:26Z</time>
      </trkpt>
      <trkpt lat="49.38016" lon="4.03701">
        <ele>108</ele>
        <time>2019-05-30T15:19:27Z</time>
      </trkpt>
      <trkpt lat="49.38016" lon="4.03692">
        <ele>108</ele>
        <time>2019-05-30T15:19:28Z</time>
      </trkpt>
      <trkpt lat="49.38017" lon="4.03682">
        <ele>108</ele>
        <time>2019-05-30T15:19:29Z</time>
      </trkpt>
      <trkpt lat="49.38017" lon="4.03672">
        <ele>108</ele>
        <time>2019-05-30T15:19:30Z</time>
      </trkpt>
      <trkpt lat="49.38017" lon="4.03662">
        <ele>108</ele>
        <time>2019-05-30T15:19:31Z</time>
      </trkpt>
      <trkpt lat="49.38017" lon="4.03652">
        <ele>108</ele>
        <time>2019-05-30T15:19:32Z</time>
      </trkpt>
      <trkpt lat="49.38017" lon="4.03642">
        <ele>108</ele>
        <time>2019-05-30T15:19:33Z</time>
      </trkpt>
      <trkpt lat="49.38017" lon="4.03632">
        <ele>108</ele>
        <time>2019-05-30T15:19:34Z</time>
      </trkpt>
      <trkpt lat="49.38017" lon="4.03623">
        <ele>108</ele>
        <time>2019-05-30T15:19:35Z</time>
      </trkpt>
      <trkpt lat="49.38016" lon="4.03613">
        <ele>107</ele>
        <time>2019-05-30T15:19:36Z</time>
      </trkpt>
      <trkpt lat="49.38016" lon="4.03603">
        <ele>107</ele>
        <time>2019-05-30T15:19:37Z</time>
      </trkpt>
      <trkpt lat="49.38016" lon="4.03594">
        <ele>107</ele>
        <time>2019-05-30T15:19:38Z</time>
      </trkpt>
      <trkpt lat="49.38016" lon="4.03584">
        <ele>107</ele>
        <time>2019-05-30T15:19:39Z</time>
      </trkpt>
      <trkpt lat="49.38016" lon="4.03575">
        <ele>107</ele>
        <time>2019-05-30T15:19:40Z</time>
      </trkpt>
      <trkpt lat="49.38016" lon="4.03565">
        <ele>107</ele>
        <time>2019-05-30T15:19:41Z</time>
      </trkpt>
      <trkpt lat="49.38017" lon="4.03556">
        <ele>107</ele>
        <time>2019-05-30T15:19:42Z</time>
      </trkpt>
      <trkpt lat="49.38017" lon="4.03547">
        <ele>107</ele>
        <time>2019-05-30T15:19:43Z</time>
      </trkpt>
      <trkpt lat="49.38017" lon="4.03537">
        <ele>107</ele>
        <time>2019-05-30T15:19:44Z</time>
      </trkpt>
      <trkpt lat="49.38016" lon="4.03527">
        <ele>107</ele>
        <time>2019-05-30T15:19:45Z</time>
      </trkpt>
      <trkpt lat="49.38016" lon="4.03517">
        <ele>107</ele>
        <time>2019-05-30T15:19:46Z</time>
      </trkpt>
      <trkpt lat="49.38016" lon="4.03508">
        <ele>107</ele>
        <time>2019-05-30T15:19:47Z</time>
      </trkpt>
      <trkpt lat="49.38015" lon="4.03498">
        <ele>107</ele>
        <time>2019-05-30T15:19:48Z</time>
      </trkpt>
      <trkpt lat="49.38016" lon="4.03488">
        <ele>107</ele>
        <time>2019-05-30T15:19:49Z</time>
      </trkpt>
      <trkpt lat="49.38016" lon="4.03478">
        <ele>106</ele>
        <time>2019-05-30T15:19:50Z</time>
      </trkpt>
      <trkpt lat="49.38015" lon="4.03468">
        <ele>106</ele>
        <time>2019-05-30T15:19:51Z</time>
      </trkpt>
      <trkpt lat="49.38015" lon="4.03457">
        <ele>106</ele>
        <time>2019-05-30T15:19:52Z</time>
      </trkpt>
      <trkpt lat="49.38015" lon="4.03447">
        <ele>107</ele>
        <time>2019-05-30T15:19:53Z</time>
      </trkpt>
      <trkpt lat="49.38015" lon="4.03436">
        <ele>107</ele>
        <time>2019-05-30T15:19:54Z</time>
      </trkpt>
      <trkpt lat="49.38015" lon="4.03426">
        <ele>107</ele>
        <time>2019-05-30T15:19:55Z</time>
      </trkpt>
      <trkpt lat="49.38015" lon="4.03415">
        <ele>107</ele>
        <time>2019-05-30T15:19:56Z</time>
      </trkpt>
      <trkpt lat="49.38015" lon="4.03405">
        <ele>107</ele>
        <time>2019-05-30T15:19:57Z</time>
      </trkpt>
      <trkpt lat="49.38015" lon="4.03395">
        <ele>107</ele>
        <time>2019-05-30T15:19:58Z</time>
      </trkpt>
      <trkpt lat="49.38015" lon="4.03385">
        <ele>107</ele>
        <time>2019-05-30T15:19:59Z</time>
      </trkpt>
      <trkpt lat="49.38015" lon="4.03375">
        <ele>107</ele>
        <time>2019-05-30T15:20:00Z</time>
      </trkpt>
      <trkpt lat="49.38015" lon="4.03365">
        <ele>106</ele>
        <time>2019-05-30T15:20:01Z</time>
      </trkpt>
      <trkpt lat="49.38015" lon="4.03355">
        <ele>106</ele>
        <time>2019-05-30T15:20:02Z</time>
      </trkpt>
      <trkpt lat="49.38015" lon="4.03345">
        <ele>106</ele>
        <time>2019-05-30T15:20:03Z</time>
      </trkpt>
      <trkpt lat="49.38014" lon="4.03336">
        <ele>106</ele>
        <time>2019-05-30T15:20:04Z</time>
      </trkpt>
      <trkpt lat="49.38014" lon="4.03326">
        <ele>106</ele>
        <time>2019-05-30T15:20:05Z</time>
      </trkpt>
      <trkpt lat="49.38013" lon="4.03316">
        <ele>106</ele>
        <time>2019-05-30T15:20:06Z</time>
      </trkpt>
      <trkpt lat="49.38014" lon="4.03307">
        <ele>106</ele>
        <time>2019-05-30T15:20:07Z</time>
      </trkpt>
      <trkpt lat="49.38013" lon="4.03297">
        <ele>106</ele>
        <time>2019-05-30T15:20:08Z</time>
      </trkpt>
      <trkpt lat="49.38013" lon="4.03287">
        <ele>106</ele>
        <time>2019-05-30T15:20:09Z</time>
      </trkpt>
      <trkpt lat="49.38013" lon="4.03277">
        <ele>107</ele>
        <time>2019-05-30T15:20:10Z</time>
      </trkpt>
      <trkpt lat="49.38013" lon="4.03267">
        <ele>107</ele>
        <time>2019-05-30T15:20:11Z</time>
      </trkpt>
      <trkpt lat="49.38013" lon="4.03257">
        <ele>107</ele>
        <time>2019-05-30T15:20:12Z</time>
      </trkpt>
      <trkpt lat="49.38013" lon="4.03247">
        <ele>107</ele>
        <time>2019-05-30T15:20:13Z</time>
      </trkpt>
      <trkpt lat="49.38013" lon="4.03236">
        <ele>107</ele>
        <time>2019-05-30T15:20:14Z</time>
      </trkpt>
      <trkpt lat="49.38013" lon="4.03226">
        <ele>107</ele>
        <time>2019-05-30T15:20:15Z</time>
      </trkpt>
      <trkpt lat="49.38013" lon="4.03216">
        <ele>107</ele>
        <time>2019-05-30T15:20:16Z</time>
      </trkpt>
      <trkpt lat="49.38012" lon="4.03206">
        <ele>107</ele>
        <time>2019-05-30T15:20:17Z</time>
      </trkpt>
      <trkpt lat="49.38012" lon="4.03196">
        <ele>107</ele>
        <time>2019-05-30T15:20:18Z</time>
      </trkpt>
      <trkpt lat="49.38012" lon="4.03186">
        <ele>107</ele>
        <time>2019-05-30T15:20:19Z</time>
      </trkpt>
      <trkpt lat="49.38012" lon="4.03176">
        <ele>107</ele>
        <time>2019-05-30T15:20:20Z</time>
      </trkpt>
      <trkpt lat="49.38012" lon="4.03166">
        <ele>107</ele>
        <time>2019-05-30T15:20:21Z</time>
      </trkpt>
      <trkpt lat="49.38012" lon="4.03155">
        <ele>106</ele>
        <time>2019-05-30T15:20:22Z</time>
      </trkpt>
      <trkpt lat="49.38013" lon="4.03145">
        <ele>107</ele>
        <time>2019-05-30T15:20:23Z</time>
      </trkpt>
      <trkpt lat="49.38013" lon="4.03135">
        <ele>107</ele>
        <time>2019-05-30T15:20:24Z</time>
      </trkpt>
      <trkpt lat="49.38014" lon="4.03124">
        <ele>107</ele>
        <time>2019-05-30T15:20:25Z</time>
      </trkpt>
      <trkpt lat="49.38014" lon="4.03115">
        <ele>107</ele>
        <time>2019-05-30T15:20:26Z</time>
      </trkpt>
      <trkpt lat="49.38015" lon="4.03104">
        <ele>107</ele>
        <time>2019-05-30T15:20:27Z</time>
      </trkpt>
      <trkpt lat="49.38015" lon="4.03094">
        <ele>107</ele>
        <time>2019-05-30T15:20:28Z</time>
      </trkpt>
      <trkpt lat="49.38015" lon="4.03084">
        <ele>107</ele>
        <time>2019-05-30T15:20:29Z</time>
      </trkpt>
      <trkpt lat="49.38016" lon="4.03074">
        <ele>107</ele>
        <time>2019-05-30T15:20:30Z</time>
      </trkpt>
      <trkpt lat="49.38017" lon="4.03063">
        <ele>107</ele>
        <time>2019-05-30T15:20:31Z</time>
      </trkpt>
      <trkpt lat="49.38018" lon="4.03052">
        <ele>108</ele>
        <time>2019-05-30T15:20:32Z</time>
      </trkpt>
      <trkpt lat="49.38019" lon="4.03042">
        <ele>107</ele>
        <time>2019-05-30T15:20:33Z</time>
      </trkpt>
      <trkpt lat="49.3802" lon="4.03032">
        <ele>108</ele>
        <time>2019-05-30T15:20:34Z</time>
      </trkpt>
      <trkpt lat="49.3802" lon="4.03022">
        <ele>108</ele>
        <time>2019-05-30T15:20:35Z</time>
      </trkpt>
      <trkpt lat="49.38021" lon="4.03013">
        <ele>108</ele>
        <time>2019-05-30T15:20:36Z</time>
      </trkpt>
      <trkpt lat="49.38021" lon="4.03002">
        <ele>108</ele>
        <time>2019-05-30T15:20:37Z</time>
      </trkpt>
      <trkpt lat="49.38022" lon="4.02992">
        <ele>108</ele>
        <time>2019-05-30T15:20:38Z</time>
      </trkpt>
      <trkpt lat="49.38022" lon="4.02982">
        <ele>108</ele>
        <time>2019-05-30T15:20:39Z</time>
      </trkpt>
      <trkpt lat="49.38022" lon="4.02973">
        <ele>108</ele>
        <time>2019-05-30T15:20:40Z</time>
      </trkpt>
      <trkpt lat="49.38023" lon="4.02964">
        <ele>108</ele>
        <time>2019-05-30T15:20:41Z</time>
      </trkpt>
      <trkpt lat="49.38023" lon="4.02954">
        <ele>108</ele>
        <time>2019-05-30T15:20:42Z</time>
      </trkpt>
      <trkpt lat="49.38023" lon="4.02944">
        <ele>108</ele>
        <time>2019-05-30T15:20:43Z</time>
      </trkpt>
      <trkpt lat="49.38023" lon="4.02934">
        <ele>108</ele>
        <time>2019-05-30T15:20:44Z</time>
      </trkpt>
      <trkpt lat="49.38023" lon="4.02925">
        <ele>108</ele>
        <time>2019-05-30T15:20:45Z</time>
      </trkpt>
      <trkpt lat="49.38023" lon="4.02915">
        <ele>108</ele>
        <time>2019-05-30T15:20:46Z</time>
      </trkpt>
      <trkpt lat="49.38022" lon="4.02905">
        <ele>108</ele>
        <time>2019-05-30T15:20:47Z</time>
      </trkpt>
      <trkpt lat="49.38022" lon="4.02896">
        <ele>108</ele>
        <time>2019-05-30T15:20:48Z</time>
      </trkpt>
      <trkpt lat="49.38022" lon="4.02886">
        <ele>109</ele>
        <time>2019-05-30T15:20:49Z</time>
      </trkpt>
      <trkpt lat="49.38021" lon="4.02877">
        <ele>109</ele>
        <time>2019-05-30T15:20:50Z</time>
      </trkpt>
      <trkpt lat="49.38021" lon="4.02867">
        <ele>108</ele>
        <time>2019-05-30T15:20:51Z</time>
      </trkpt>
      <trkpt lat="49.38021" lon="4.02857">
        <ele>108</ele>
        <time>2019-05-30T15:20:52Z</time>
      </trkpt>
      <trkpt lat="49.3802" lon="4.02847">
        <ele>108</ele>
        <time>2019-05-30T15:20:53Z</time>
      </trkpt>
      <trkpt lat="49.3802" lon="4.02836">
        <ele>108</ele>
        <time>2019-05-30T15:20:54Z</time>
      </trkpt>
      <trkpt lat="49.3802" lon="4.02826">
        <ele>108</ele>
        <time>2019-05-30T15:20:55Z</time>
      </trkpt>
      <trkpt lat="49.3802" lon="4.02817">
        <ele>108</ele>
        <time>2019-05-30T15:20:56Z</time>
      </trkpt>
      <trkpt lat="49.3802" lon="4.02806">
        <ele>108</ele>
        <time>2019-05-30T15:20:57Z</time>
      </trkpt>
      <trkpt lat="49.3802" lon="4.02796">
        <ele>108</ele>
        <time>2019-05-30T15:20:58Z</time>
      </trkpt>
      <trkpt lat="49.3802" lon="4.02786">
        <ele>109</ele>
        <time>2019-05-30T15:20:59Z</time>
      </trkpt>
      <trkpt lat="49.3802" lon="4.02775">
        <ele>109</ele>
        <time>2019-05-30T15:21:00Z</time>
      </trkpt>
      <trkpt lat="49.3802" lon="4.02766">
        <ele>109</ele>
        <time>2019-05-30T15:21:01Z</time>
      </trkpt>
      <trkpt lat="49.3802" lon="4.02755">
        <ele>109</ele>
        <time>2019-05-30T15:21:02Z</time>
      </trkpt>
      <trkpt lat="49.3802" lon="4.02745">
        <ele>109</ele>
        <time>2019-05-30T15:21:03Z</time>
      </trkpt>
      <trkpt lat="49.3802" lon="4.02735">
        <ele>109</ele>
        <time>2019-05-30T15:21:04Z</time>
      </trkpt>
      <trkpt lat="49.38021" lon="4.02725">
        <ele>109</ele>
        <time>2019-05-30T15:21:05Z</time>
      </trkpt>
      <trkpt lat="49.38021" lon="4.02715">
        <ele>109</ele>
        <time>2019-05-30T15:21:06Z</time>
      </trkpt>
      <trkpt lat="49.38021" lon="4.02704">
        <ele>109</ele>
        <time>2019-05-30T15:21:07Z</time>
      </trkpt>
      <trkpt lat="49.38022" lon="4.02693">
        <ele>109</ele>
        <time>2019-05-30T15:21:08Z</time>
      </trkpt>
      <trkpt lat="49.38022" lon="4.02683">
        <ele>110</ele>
        <time>2019-05-30T15:21:09Z</time>
      </trkpt>
      <trkpt lat="49.38023" lon="4.02673">
        <ele>110</ele>
        <time>2019-05-30T15:21:10Z</time>
      </trkpt>
      <trkpt lat="49.38023" lon="4.02663">
        <ele>110</ele>
        <time>2019-05-30T15:21:11Z</time>
      </trkpt>
      <trkpt lat="49.38023" lon="4.02654">
        <ele>110</ele>
        <time>2019-05-30T15:21:12Z</time>
      </trkpt>
      <trkpt lat="49.38024" lon="4.02645">
        <ele>110</ele>
        <time>2019-05-30T15:21:13Z</time>
      </trkpt>
      <trkpt lat="49.38024" lon="4.02635">
        <ele>110</ele>
        <time>2019-05-30T15:21:14Z</time>
      </trkpt>
      <trkpt lat="49.38024" lon="4.02626">
        <ele>111</ele>
        <time>2019-05-30T15:21:15Z</time>
      </trkpt>
      <trkpt lat="49.38025" lon="4.02616">
        <ele>110</ele>
        <time>2019-05-30T15:21:16Z</time>
      </trkpt>
      <trkpt lat="49.38025" lon="4.02606">
        <ele>110</ele>
        <time>2019-05-30T15:21:17Z</time>
      </trkpt>
      <trkpt lat="49.38026" lon="4.02597">
        <ele>110</ele>
        <time>2019-05-30T15:21:18Z</time>
      </trkpt>
      <trkpt lat="49.38026" lon="4.02588">
        <ele>110</ele>
        <time>2019-05-30T15:21:19Z</time>
      </trkpt>
      <trkpt lat="49.38026" lon="4.02578">
        <ele>110</ele>
        <time>2019-05-30T15:21:20Z</time>
      </trkpt>
      <trkpt lat="49.38027" lon="4.02568">
        <ele>110</ele>
        <time>2019-05-30T15:21:21Z</time>
      </trkpt>
      <trkpt lat="49.38028" lon="4.02559">
        <ele>110</ele>
        <time>2019-05-30T15:21:22Z</time>
      </trkpt>
      <trkpt lat="49.38029" lon="4.02549">
        <ele>110</ele>
        <time>2019-05-30T15:21:23Z</time>
      </trkpt>
      <trkpt lat="49.38029" lon="4.02539">
        <ele>110</ele>
        <time>2019-05-30T15:21:24Z</time>
      </trkpt>
      <trkpt lat="49.38031" lon="4.0253">
        <ele>110</ele>
        <time>2019-05-30T15:21:25Z</time>
      </trkpt>
      <trkpt lat="49.38032" lon="4.02521">
        <ele>110</ele>
        <time>2019-05-30T15:21:26Z</time>
      </trkpt>
      <trkpt lat="49.38032" lon="4.02512">
        <ele>110</ele>
        <time>2019-05-30T15:21:27Z</time>
      </trkpt>
      <trkpt lat="49.38033" lon="4.02503">
        <ele>110</ele>
        <time>2019-05-30T15:21:28Z</time>
      </trkpt>
      <trkpt lat="49.38034" lon="4.02495">
        <ele>111</ele>
        <time>2019-05-30T15:21:29Z</time>
      </trkpt>
      <trkpt lat="49.38035" lon="4.02486">
        <ele>110</ele>
        <time>2019-05-30T15:21:30Z</time>
      </trkpt>
      <trkpt lat="49.38036" lon="4.02477">
        <ele>110</ele>
        <time>2019-05-30T15:21:31Z</time>
      </trkpt>
      <trkpt lat="49.38037" lon="4.02468">
        <ele>110</ele>
        <time>2019-05-30T15:21:32Z</time>
      </trkpt>
      <trkpt lat="49.38038" lon="4.02458">
        <ele>110</ele>
        <time>2019-05-30T15:21:33Z</time>
      </trkpt>
      <trkpt lat="49.38039" lon="4.02449">
        <ele>110</ele>
        <time>2019-05-30T15:21:34Z</time>
      </trkpt>
      <trkpt lat="49.3804" lon="4.02439">
        <ele>110</ele>
        <time>2019-05-30T15:21:35Z</time>
      </trkpt>
      <trkpt lat="49.38042" lon="4.0243">
        <ele>110</ele>
        <time>2019-05-30T15:21:36Z</time>
      </trkpt>
      <trkpt lat="49.38043" lon="4.02422">
        <ele>110</ele>
        <time>2019-05-30T15:21:37Z</time>
      </trkpt>
      <trkpt lat="49.38044" lon="4.02414">
        <ele>110</ele>
        <time>2019-05-30T15:21:38Z</time>
      </trkpt>
      <trkpt lat="49.38045" lon="4.02407">
        <ele>110</ele>
        <time>2019-05-30T15:21:39Z</time>
      </trkpt>
      <trkpt lat="49.38046" lon="4.02398">
        <ele>111</ele>
        <time>2019-05-30T15:21:40Z</time>
      </trkpt>
      <trkpt lat="49.38047" lon="4.0239">
        <ele>111</ele>
        <time>2019-05-30T15:21:41Z</time>
      </trkpt>
      <trkpt lat="49.38048" lon="4.02381">
        <ele>111</ele>
        <time>2019-05-30T15:21:42Z</time>
      </trkpt>
      <trkpt lat="49.38049" lon="4.02372">
        <ele>111</ele>
        <time>2019-05-30T15:21:43Z</time>
      </trkpt>
      <trkpt lat="49.3805" lon="4.02363">
        <ele>111</ele>
        <time>2019-05-30T15:21:44Z</time>
      </trkpt>
      <trkpt lat="49.38051" lon="4.02355">
        <ele>112</ele>
        <time>2019-05-30T15:21:45Z</time>
      </trkpt>
      <trkpt lat="49.38052" lon="4.02345">
        <ele>112</ele>
        <time>2019-05-30T15:21:46Z</time>
      </trkpt>
      <trkpt lat="49.38053" lon="4.02337">
        <ele>112</ele>
        <time>2019-05-30T15:21:47Z</time>
      </trkpt>
      <trkpt lat="49.38054" lon="4.02328">
        <ele>112</ele>
        <time>2019-05-30T15:21:48Z</time>
      </trkpt>
      <trkpt lat="49.38055" lon="4.02319">
        <ele>112</ele>
        <time>2019-05-30T15:21:49Z</time>
      </trkpt>
      <trkpt lat="49.38056" lon="4.02309">
        <ele>111</ele>
        <time>2019-05-30T15:21:50Z</time>
      </trkpt>
      <trkpt lat="49.38057" lon="4.023">
        <ele>111</ele>
        <time>2019-05-30T15:21:51Z</time>
      </trkpt>
      <trkpt lat="49.38059" lon="4.02291">
        <ele>110</ele>
        <time>2019-05-30T15:21:52Z</time>
      </trkpt>
      <trkpt lat="49.38061" lon="4.02282">
        <ele>110</ele>
        <time>2019-05-30T15:21:53Z</time>
      </trkpt>
      <trkpt lat="49.38063" lon="4.02274">
        <ele>110</ele>
        <time>2019-05-30T15:21:54Z</time>
      </trkpt>
      <trkpt lat="49.38066" lon="4.02264">
        <ele>110</ele>
        <time>2019-05-30T15:21:55Z</time>
      </trkpt>
      <trkpt lat="49.38068" lon="4.02256">
        <ele>110</ele>
        <time>2019-05-30T15:21:56Z</time>
      </trkpt>
      <trkpt lat="49.3807" lon="4.02248">
        <ele>110</ele>
        <time>2019-05-30T15:21:57Z</time>
      </trkpt>
      <trkpt lat="49.38073" lon="4.02241">
        <ele>110</ele>
        <time>2019-05-30T15:21:58Z</time>
      </trkpt>
      <trkpt lat="49.38075" lon="4.02234">
        <ele>110</ele>
        <time>2019-05-30T15:21:59Z</time>
      </trkpt>
      <trkpt lat="49.38077" lon="4.02226">
        <ele>110</ele>
        <time>2019-05-30T15:22:00Z</time>
      </trkpt>
      <trkpt lat="49.3808" lon="4.02219">
        <ele>110</ele>
        <time>2019-05-30T15:22:01Z</time>
      </trkpt>
      <trkpt lat="49.38083" lon="4.02211">
        <ele>110</ele>
        <time>2019-05-30T15:22:02Z</time>
      </trkpt>
      <trkpt lat="49.38086" lon="4.02204">
        <ele>110</ele>
        <time>2019-05-30T15:22:03Z</time>
      </trkpt>
      <trkpt lat="49.38089" lon="4.02197">
        <ele>110</ele>
        <time>2019-05-30T15:22:04Z</time>
      </trkpt>
      <trkpt lat="49.38092" lon="4.0219">
        <ele>110</ele>
        <time>2019-05-30T15:22:05Z</time>
      </trkpt>
      <trkpt lat="49.38096" lon="4.02183">
        <ele>110</ele>
        <time>2019-05-30T15:22:06Z</time>
      </trkpt>
      <trkpt lat="49.38099" lon="4.02176">
        <ele>110</ele>
        <time>2019-05-30T15:22:07Z</time>
      </trkpt>
      <trkpt lat="49.38102" lon="4.02168">
        <ele>110</ele>
        <time>2019-05-30T15:22:08Z</time>
      </trkpt>
      <trkpt lat="49.38106" lon="4.02161">
        <ele>109</ele>
        <time>2019-05-30T15:22:09Z</time>
      </trkpt>
      <trkpt lat="49.3811" lon="4.02154">
        <ele>109</ele>
        <time>2019-05-30T15:22:10Z</time>
      </trkpt>
      <trkpt lat="49.38113" lon="4.02146">
        <ele>109</ele>
        <time>2019-05-30T15:22:11Z</time>
      </trkpt>
      <trkpt lat="49.38117" lon="4.02139">
        <ele>109</ele>
        <time>2019-05-30T15:22:12Z</time>
      </trkpt>
      <trkpt lat="49.3812" lon="4.02131">
        <ele>109</ele>
        <time>2019-05-30T15:22:13Z</time>
      </trkpt>
      <trkpt lat="49.38124" lon="4.02123">
        <ele>109</ele>
        <time>2019-05-30T15:22:14Z</time>
      </trkpt>
      <trkpt lat="49.38127" lon="4.02116">
        <ele>109</ele>
        <time>2019-05-30T15:22:15Z</time>
      </trkpt>
      <trkpt lat="49.3813" lon="4.02108">
        <ele>109</ele>
        <time>2019-05-30T15:22:16Z</time>
      </trkpt>
      <trkpt lat="49.38134" lon="4.02101">
        <ele>109</ele>
        <time>2019-05-30T15:22:17Z</time>
      </trkpt>
      <trkpt lat="49.38137" lon="4.02094">
        <ele>109</ele>
        <time>2019-05-30T15:22:18Z</time>
      </trkpt>
      <trkpt lat="49.3814" lon="4.02086">
        <ele>109</ele>
        <time>2019-05-30T15:22:19Z</time>
      </trkpt>
      <trkpt lat="49.38144" lon="4.02078">
        <ele>109</ele>
        <time>2019-05-30T15:22:20Z</time>
      </trkpt>
      <trkpt lat="49.38148" lon="4.0207">
        <ele>108</ele>
        <time>2019-05-30T15:22:21Z</time>
      </trkpt>
      <trkpt lat="49.38152" lon="4.02062">
        <ele>108</ele>
        <time>2019-05-30T15:22:22Z</time>
      </trkpt>
      <trkpt lat="49.38155" lon="4.02054">
        <ele>108</ele>
        <time>2019-05-30T15:22:23Z</time>
      </trkpt>
      <trkpt lat="49.38159" lon="4.02046">
        <ele>108</ele>
        <time>2019-05-30T15:22:24Z</time>
      </trkpt>
      <trkpt lat="49.38163" lon="4.02038">
        <ele>108</ele>
        <time>2019-05-30T15:22:25Z</time>
      </trkpt>
      <trkpt lat="49.38166" lon="4.0203">
        <ele>108</ele>
        <time>2019-05-30T15:22:26Z</time>
      </trkpt>
      <trkpt lat="49.3817" lon="4.02022">
        <ele>108</ele>
        <time>2019-05-30T15:22:27Z</time>
      </trkpt>
      <trkpt lat="49.38175" lon="4.02014">
        <ele>108</ele>
        <time>2019-05-30T15:22:28Z</time>
      </trkpt>
      <trkpt lat="49.38178" lon="4.02007">
        <ele>107</ele>
        <time>2019-05-30T15:22:29Z</time>
      </trkpt>
      <trkpt lat="49.38181" lon="4.01999">
        <ele>107</ele>
        <time>2019-05-30T15:22:30Z</time>
      </trkpt>
      <trkpt lat="49.38185" lon="4.0199">
        <ele>108</ele>
        <time>2019-05-30T15:22:31Z</time>
      </trkpt>
      <trkpt lat="49.38188" lon="4.01982">
        <ele>108</ele>
        <time>2019-05-30T15:22:32Z</time>
      </trkpt>
      <trkpt lat="49.38192" lon="4.01974">
        <ele>107</ele>
        <time>2019-05-30T15:22:33Z</time>
      </trkpt>
      <trkpt lat="49.38195" lon="4.01964">
        <ele>108</ele>
        <time>2019-05-30T15:22:34Z</time>
      </trkpt>
      <trkpt lat="49.38199" lon="4.01956">
        <ele>108</ele>
        <time>2019-05-30T15:22:35Z</time>
      </trkpt>
      <trkpt lat="49.38203" lon="4.01948">
        <ele>108</ele>
        <time>2019-05-30T15:22:36Z</time>
      </trkpt>
      <trkpt lat="49.38207" lon="4.0194">
        <ele>108</ele>
        <time>2019-05-30T15:22:37Z</time>
      </trkpt>
      <trkpt lat="49.38211" lon="4.01931">
        <ele>108</ele>
        <time>2019-05-30T15:22:38Z</time>
      </trkpt>
      <trkpt lat="49.38214" lon="4.01923">
        <ele>107</ele>
        <time>2019-05-30T15:22:39Z</time>
      </trkpt>
      <trkpt lat="49.38218" lon="4.01915">
        <ele>107</ele>
        <time>2019-05-30T15:22:40Z</time>
      </trkpt>
      <trkpt lat="49.38222" lon="4.01907">
        <ele>107</ele>
        <time>2019-05-30T15:22:41Z</time>
      </trkpt>
      <trkpt lat="49.38226" lon="4.01898">
        <ele>107</ele>
        <time>2019-05-30T15:22:42Z</time>
      </trkpt>
      <trkpt lat="49.3823" lon="4.0189">
        <ele>107</ele>
        <time>2019-05-30T15:22:43Z</time>
      </trkpt>
      <trkpt lat="49.38234" lon="4.01882">
        <ele>107</ele>
        <time>2019-05-30T15:22:44Z</time>
      </trkpt>
      <trkpt lat="49.38238" lon="4.01874">
        <ele>107</ele>
        <time>2019-05-30T15:22:45Z</time>
      </trkpt>
      <trkpt lat="49.38242" lon="4.01866">
        <ele>106</ele>
        <time>2019-05-30T15:22:46Z</time>
      </trkpt>
      <trkpt lat="49.38245" lon="4.01858">
        <ele>106</ele>
        <time>2019-05-30T15:22:47Z</time>
      </trkpt>
      <trkpt lat="49.3825" lon="4.01849">
        <ele>106</ele>
        <time>2019-05-30T15:22:48Z</time>
      </trkpt>
      <trkpt lat="49.38254" lon="4.01841">
        <ele>106</ele>
        <time>2019-05-30T15:22:49Z</time>
      </trkpt>
      <trkpt lat="49.38257" lon="4.01832">
        <ele>106</ele>
        <time>2019-05-30T15:22:50Z</time>
      </trkpt>
      <trkpt lat="49.3826" lon="4.01824">
        <ele>106</ele>
        <time>2019-05-30T15:22:51Z</time>
      </trkpt>
      <trkpt lat="49.38264" lon="4.01815">
        <ele>106</ele>
        <time>2019-05-30T15:22:52Z</time>
      </trkpt>
      <trkpt lat="49.38267" lon="4.01807">
        <ele>106</ele>
        <time>2019-05-30T15:22:53Z</time>
      </trkpt>
      <trkpt lat="49.38271" lon="4.01798">
        <ele>106</ele>
        <time>2019-05-30T15:22:54Z</time>
      </trkpt>
      <trkpt lat="49.38275" lon="4.01789">
        <ele>106</ele>
        <time>2019-05-30T15:22:55Z</time>
      </trkpt>
      <trkpt lat="49.38278" lon="4.01781">
        <ele>106</ele>
        <time>2019-05-30T15:22:56Z</time>
      </trkpt>
      <trkpt lat="49.38281" lon="4.01773">
        <ele>106</ele>
        <time>2019-05-30T15:22:57Z</time>
      </trkpt>
      <trkpt lat="49.38284" lon="4.01764">
        <ele>106</ele>
        <time>2019-05-30T15:22:58Z</time>
      </trkpt>
      <trkpt lat="49.38287" lon="4.01756">
        <ele>106</ele>
        <time>2019-05-30T15:22:59Z</time>
      </trkpt>
      <trkpt lat="49.3829" lon="4.01747">
        <ele>106</ele>
        <time>2019-05-30T15:23:00Z</time>
      </trkpt>
      <trkpt lat="49.38292" lon="4.01738">
        <ele>106</ele>
        <time>2019-05-30T15:23:01Z</time>
      </trkpt>
      <trkpt lat="49.38294" lon="4.01729">
        <ele>106</ele>
        <time>2019-05-30T15:23:02Z</time>
      </trkpt>
      <trkpt lat="49.38296" lon="4.0172">
        <ele>107</ele>
        <time>2019-05-30T15:23:03Z</time>
      </trkpt>
      <trkpt lat="49.38298" lon="4.01712">
        <ele>107</ele>
        <time>2019-05-30T15:23:04Z</time>
      </trkpt>
      <trkpt lat="49.383" lon="4.01703">
        <ele>107</ele>
        <time>2019-05-30T15:23:05Z</time>
      </trkpt>
      <trkpt lat="49.38301" lon="4.01695">
        <ele>107</ele>
        <time>2019-05-30T15:23:06Z</time>
      </trkpt>
      <trkpt lat="49.38303" lon="4.01687">
        <ele>107</ele>
        <time>2019-05-30T15:23:07Z</time>
      </trkpt>
      <trkpt lat="49.38305" lon="4.01679">
        <ele>107</ele>
        <time>2019-05-30T15:23:08Z</time>
      </trkpt>
      <trkpt lat="49.38307" lon="4.01671">
        <ele>107</ele>
        <time>2019-05-30T15:23:09Z</time>
      </trkpt>
      <trkpt lat="49.38308" lon="4.01662">
        <ele>107</ele>
        <time>2019-05-30T15:23:10Z</time>
      </trkpt>
      <trkpt lat="49.3831" lon="4.01654">
        <ele>108</ele>
        <time>2019-05-30T15:23:11Z</time>
      </trkpt>
      <trkpt lat="49.38312" lon="4.01645">
        <ele>108</ele>
        <time>2019-05-30T15:23:12Z</time>
      </trkpt>
      <trkpt lat="49.38314" lon="4.01636">
        <ele>108</ele>
        <time>2019-05-30T15:23:13Z</time>
      </trkpt>
      <trkpt lat="49.38317" lon="4.01627">
        <ele>108</ele>
        <time>2019-05-30T15:23:14Z</time>
      </trkpt>
      <trkpt lat="49.38319" lon="4.01617">
        <ele>108</ele>
        <time>2019-05-30T15:23:15Z</time>
      </trkpt>
      <trkpt lat="49.38321" lon="4.01608">
        <ele>108</ele>
        <time>2019-05-30T15:23:16Z</time>
      </trkpt>
      <trkpt lat="49.38323" lon="4.01598">
        <ele>108</ele>
        <time>2019-05-30T15:23:17Z</time>
      </trkpt>
      <trkpt lat="49.38325" lon="4.01589">
        <ele>109</ele>
        <time>2019-05-30T15:23:18Z</time>
      </trkpt>
      <trkpt lat="49.38327" lon="4.0158">
        <ele>109</ele>
        <time>2019-05-30T15:23:19Z</time>
      </trkpt>
      <trkpt lat="49.38329" lon="4.01571">
        <ele>109</ele>
        <time>2019-05-30T15:23:20Z</time>
      </trkpt>
      <trkpt lat="49.38331" lon="4.01562">
        <ele>109</ele>
        <time>2019-05-30T15:23:21Z</time>
      </trkpt>
      <trkpt lat="49.38333" lon="4.01552">
        <ele>109</ele>
        <time>2019-05-30T15:23:22Z</time>
      </trkpt>
      <trkpt lat="49.38335" lon="4.01543">
        <ele>109</ele>
        <time>2019-05-30T15:23:23Z</time>
      </trkpt>
      <trkpt lat="49.38338" lon="4.01534">
        <ele>109</ele>
        <time>2019-05-30T15:23:24Z</time>
      </trkpt>
      <trkpt lat="49.3834" lon="4.01525">
        <ele>109</ele>
        <time>2019-05-30T15:23:25Z</time>
      </trkpt>
      <trkpt lat="49.38343" lon="4.01516">
        <ele>110</ele>
        <time>2019-05-30T15:23:26Z</time>
      </trkpt>
      <trkpt lat="49.38345" lon="4.01508">
        <ele>110</ele>
        <time>2019-05-30T15:23:27Z</time>
      </trkpt>
      <trkpt lat="49.38348" lon="4.01499">
        <ele>110</ele>
        <time>2019-05-30T15:23:28Z</time>
      </trkpt>
      <trkpt lat="49.3835" lon="4.01491">
        <ele>110</ele>
        <time>2019-05-30T15:23:29Z</time>
      </trkpt>
      <trkpt lat="49.38353" lon="4.01482">
        <ele>111</ele>
        <time>2019-05-30T15:23:30Z</time>
      </trkpt>
      <trkpt lat="49.38355" lon="4.01474">
        <ele>111</ele>
        <time>2019-05-30T15:23:31Z</time>
      </trkpt>
      <trkpt lat="49.38358" lon="4.01466">
        <ele>111</ele>
        <time>2019-05-30T15:23:32Z</time>
      </trkpt>
      <trkpt lat="49.3836" lon="4.01457">
        <ele>111</ele>
        <time>2019-05-30T15:23:33Z</time>
      </trkpt>
      <trkpt lat="49.38362" lon="4.01448">
        <ele>111</ele>
        <time>2019-05-30T15:23:34Z</time>
      </trkpt>
      <trkpt lat="49.38364" lon="4.01439">
        <ele>112</ele>
        <time>2019-05-30T15:23:35Z</time>
      </trkpt>
      <trkpt lat="49.38366" lon="4.01431">
        <ele>112</ele>
        <time>2019-05-30T15:23:36Z</time>
      </trkpt>
      <trkpt lat="49.38368" lon="4.01422">
        <ele>112</ele>
        <time>2019-05-30T15:23:37Z</time>
      </trkpt>
      <trkpt lat="49.38369" lon="4.01414">
        <ele>111</ele>
        <time>2019-05-30T15:23:38Z</time>
      </trkpt>
      <trkpt lat="49.3837" lon="4.01405">
        <ele>111</ele>
        <time>2019-05-30T15:23:39Z</time>
      </trkpt>
      <trkpt lat="49.38372" lon="4.01395">
        <ele>112</ele>
        <time>2019-05-30T15:23:40Z</time>
      </trkpt>
      <trkpt lat="49.38373" lon="4.01386">
        <ele>111</ele>
        <time>2019-05-30T15:23:41Z</time>
      </trkpt>
      <trkpt lat="49.38374" lon="4.01377">
        <ele>112</ele>
        <time>2019-05-30T15:23:42Z</time>
      </trkpt>
      <trkpt lat="49.38375" lon="4.01369">
        <ele>112</ele>
        <time>2019-05-30T15:23:43Z</time>
      </trkpt>
      <trkpt lat="49.38376" lon="4.0136">
        <ele>112</ele>
        <time>2019-05-30T15:23:44Z</time>
      </trkpt>
      <trkpt lat="49.38377" lon="4.01351">
        <ele>112</ele>
        <time>2019-05-30T15:23:45Z</time>
      </trkpt>
      <trkpt lat="49.38378" lon="4.01342">
        <ele>112</ele>
        <time>2019-05-30T15:23:46Z</time>
      </trkpt>
      <trkpt lat="49.38379" lon="4.01333">
        <ele>112</ele>
        <time>2019-05-30T15:23:47Z</time>
      </trkpt>
      <trkpt lat="49.3838" lon="4.01325">
        <ele>112</ele>
        <time>2019-05-30T15:23:48Z</time>
      </trkpt>
      <trkpt lat="49.38381" lon="4.01317">
        <ele>113</ele>
        <time>2019-05-30T15:23:49Z</time>
      </trkpt>
      <trkpt lat="49.38382" lon="4.01309">
        <ele>113</ele>
        <time>2019-05-30T15:23:50Z</time>
      </trkpt>
      <trkpt lat="49.38383" lon="4.013">
        <ele>113</ele>
        <time>2019-05-30T15:23:51Z</time>
      </trkpt>
      <trkpt lat="49.38383" lon="4.01292">
        <ele>113</ele>
        <time>2019-05-30T15:23:52Z</time>
      </trkpt>
      <trkpt lat="49.38384" lon="4.01284">
        <ele>113</ele>
        <time>2019-05-30T15:23:53Z</time>
      </trkpt>
      <trkpt lat="49.38385" lon="4.01275">
        <ele>113</ele>
        <time>2019-05-30T15:23:54Z</time>
      </trkpt>
      <trkpt lat="49.38386" lon="4.01268">
        <ele>114</ele>
        <time>2019-05-30T15:23:55Z</time>
      </trkpt>
      <trkpt lat="49.38388" lon="4.01261">
        <ele>114</ele>
        <time>2019-05-30T15:23:56Z</time>
      </trkpt>
      <trkpt lat="49.38389" lon="4.01255">
        <ele>114</ele>
        <time>2019-05-30T15:23:57Z</time>
      </trkpt>
      <trkpt lat="49.38391" lon="4.01248">
        <ele>114</ele>
        <time>2019-05-30T15:23:58Z</time>
      </trkpt>
      <trkpt lat="49.38392" lon="4.01241">
        <ele>115</ele>
        <time>2019-05-30T15:23:59Z</time>
      </trkpt>
      <trkpt lat="49.38394" lon="4.01234">
        <ele>115</ele>
        <time>2019-05-30T15:24:00Z</time>
      </trkpt>
      <trkpt lat="49.38395" lon="4.01228">
        <ele>115</ele>
        <time>2019-05-30T15:24:01Z</time>
      </trkpt>
      <trkpt lat="49.38397" lon="4.01222">
        <ele>115</ele>
        <time>2019-05-30T15:24:02Z</time>
      </trkpt>
      <trkpt lat="49.38399" lon="4.01216">
        <ele>116</ele>
        <time>2019-05-30T15:24:03Z</time>
      </trkpt>
      <trkpt lat="49.38401" lon="4.0121">
        <ele>116</ele>
        <time>2019-05-30T15:24:04Z</time>
      </trkpt>
      <trkpt lat="49.38405" lon="4.01199">
        <ele>116</ele>
        <time>2019-05-30T15:24:06Z</time>
      </trkpt>
      <trkpt lat="49.38407" lon="4.01194">
        <ele>117</ele>
        <time>2019-05-30T15:24:07Z</time>
      </trkpt>
      <trkpt lat="49.38409" lon="4.01189">
        <ele>117</ele>
        <time>2019-05-30T15:24:08Z</time>
      </trkpt>
      <trkpt lat="49.3841" lon="4.01184">
        <ele>117</ele>
        <time>2019-05-30T15:24:09Z</time>
      </trkpt>
      <trkpt lat="49.38412" lon="4.01178">
        <ele>117</ele>
        <time>2019-05-30T15:24:10Z</time>
      </trkpt>
      <trkpt lat="49.38414" lon="4.01172">
        <ele>117</ele>
        <time>2019-05-30T15:24:11Z</time>
      </trkpt>
      <trkpt lat="49.38417" lon="4.01166">
        <ele>117</ele>
        <time>2019-05-30T15:24:12Z</time>
      </trkpt>
      <trkpt lat="49.38419" lon="4.0116">
        <ele>117</ele>
        <time>2019-05-30T15:24:13Z</time>
      </trkpt>
      <trkpt lat="49.38422" lon="4.01154">
        <ele>117</ele>
        <time>2019-05-30T15:24:14Z</time>
      </trkpt>
      <trkpt lat="49.38425" lon="4.01147">
        <ele>117</ele>
        <time>2019-05-30T15:24:15Z</time>
      </trkpt>
      <trkpt lat="49.38428" lon="4.0114">
        <ele>117</ele>
        <time>2019-05-30T15:24:16Z</time>
      </trkpt>
      <trkpt lat="49.3843" lon="4.01133">
        <ele>118</ele>
        <time>2019-05-30T15:24:17Z</time>
      </trkpt>
      <trkpt lat="49.38433" lon="4.01125">
        <ele>118</ele>
        <time>2019-05-30T15:24:18Z</time>
      </trkpt>
      <trkpt lat="49.38436" lon="4.01117">
        <ele>117</ele>
        <time>2019-05-30T15:24:19Z</time>
      </trkpt>
      <trkpt lat="49.38438" lon="4.01109">
        <ele>117</ele>
        <time>2019-05-30T15:24:20Z</time>
      </trkpt>
      <trkpt lat="49.38442" lon="4.01101">
        <ele>117</ele>
        <time>2019-05-30T15:24:21Z</time>
      </trkpt>
      <trkpt lat="49.38445" lon="4.01093">
        <ele>117</ele>
        <time>2019-05-30T15:24:22Z</time>
      </trkpt>
      <trkpt lat="49.38448" lon="4.01084">
        <ele>117</ele>
        <time>2019-05-30T15:24:23Z</time>
      </trkpt>
      <trkpt lat="49.38452" lon="4.01076">
        <ele>117</ele>
        <time>2019-05-30T15:24:24Z</time>
      </trkpt>
      <trkpt lat="49.38455" lon="4.01068">
        <ele>116</ele>
        <time>2019-05-30T15:24:25Z</time>
      </trkpt>
      <trkpt lat="49.38458" lon="4.01059">
        <ele>116</ele>
        <time>2019-05-30T15:24:26Z</time>
      </trkpt>
      <trkpt lat="49.38461" lon="4.01051">
        <ele>116</ele>
        <time>2019-05-30T15:24:27Z</time>
      </trkpt>
      <trkpt lat="49.38465" lon="4.01043">
        <ele>116</ele>
        <time>2019-05-30T15:24:28Z</time>
      </trkpt>
      <trkpt lat="49.38468" lon="4.01034">
        <ele>116</ele>
        <time>2019-05-30T15:24:29Z</time>
      </trkpt>
      <trkpt lat="49.38471" lon="4.01025">
        <ele>116</ele>
        <time>2019-05-30T15:24:30Z</time>
      </trkpt>
      <trkpt lat="49.38473" lon="4.01017">
        <ele>116</ele>
        <time>2019-05-30T15:24:31Z</time>
      </trkpt>
      <trkpt lat="49.38476" lon="4.01009">
        <ele>115</ele>
        <time>2019-05-30T15:24:32Z</time>
      </trkpt>
      <trkpt lat="49.38479" lon="4.01002">
        <ele>115</ele>
        <time>2019-05-30T15:24:33Z</time>
      </trkpt>
      <trkpt lat="49.38482" lon="4.00994">
        <ele>115</ele>
        <time>2019-05-30T15:24:34Z</time>
      </trkpt>
      <trkpt lat="49.38484" lon="4.00987">
        <ele>115</ele>
        <time>2019-05-30T15:24:35Z</time>
      </trkpt>
      <trkpt lat="49.38487" lon="4.00979">
        <ele>115</ele>
        <time>2019-05-30T15:24:36Z</time>
      </trkpt>
      <trkpt lat="49.3849" lon="4.00972">
        <ele>115</ele>
        <time>2019-05-30T15:24:37Z</time>
      </trkpt>
      <trkpt lat="49.38493" lon="4.00964">
        <ele>115</ele>
        <time>2019-05-30T15:24:38Z</time>
      </trkpt>
      <trkpt lat="49.38496" lon="4.00956">
        <ele>115</ele>
        <time>2019-05-30T15:24:39Z</time>
      </trkpt>
      <trkpt lat="49.38498" lon="4.00949">
        <ele>115</ele>
        <time>2019-05-30T15:24:40Z</time>
      </trkpt>
      <trkpt lat="49.38501" lon="4.00942">
        <ele>115</ele>
        <time>2019-05-30T15:24:41Z</time>
      </trkpt>
      <trkpt lat="49.38504" lon="4.00935">
        <ele>115</ele>
        <time>2019-05-30T15:24:42Z</time>
      </trkpt>
      <trkpt lat="49.38507" lon="4.00927">
        <ele>115</ele>
        <time>2019-05-30T15:24:43Z</time>
      </trkpt>
      <trkpt lat="49.3851" lon="4.00919">
        <ele>115</ele>
        <time>2019-05-30T15:24:44Z</time>
      </trkpt>
      <trkpt lat="49.38513" lon="4.00911">
        <ele>115</ele>
        <time>2019-05-30T15:24:45Z</time>
      </trkpt>
      <trkpt lat="49.38517" lon="4.00903">
        <ele>115</ele>
        <time>2019-05-30T15:24:46Z</time>
      </trkpt>
      <trkpt lat="49.3852" lon="4.00895">
        <ele>115</ele>
        <time>2019-05-30T15:24:47Z</time>
      </trkpt>
      <trkpt lat="49.38523" lon="4.00888">
        <ele>114</ele>
        <time>2019-05-30T15:24:48Z</time>
      </trkpt>
      <trkpt lat="49.38526" lon="4.00879">
        <ele>114</ele>
        <time>2019-05-30T15:24:49Z</time>
      </trkpt>
      <trkpt lat="49.38529" lon="4.00871">
        <ele>114</ele>
        <time>2019-05-30T15:24:50Z</time>
      </trkpt>
      <trkpt lat="49.38533" lon="4.00863">
        <ele>114</ele>
        <time>2019-05-30T15:24:51Z</time>
      </trkpt>
      <trkpt lat="49.38536" lon="4.00855">
        <ele>114</ele>
        <time>2019-05-30T15:24:52Z</time>
      </trkpt>
      <trkpt lat="49.38539" lon="4.00847">
        <ele>114</ele>
        <time>2019-05-30T15:24:53Z</time>
      </trkpt>
      <trkpt lat="49.38542" lon="4.00839">
        <ele>114</ele>
        <time>2019-05-30T15:24:54Z</time>
      </trkpt>
      <trkpt lat="49.38545" lon="4.00832">
        <ele>114</ele>
        <time>2019-05-30T15:24:55Z</time>
      </trkpt>
      <trkpt lat="49.38548" lon="4.00824">
        <ele>114</ele>
        <time>2019-05-30T15:24:56Z</time>
      </trkpt>
      <trkpt lat="49.38551" lon="4.00817">
        <ele>114</ele>
        <time>2019-05-30T15:24:57Z</time>
      </trkpt>
      <trkpt lat="49.38554" lon="4.00809">
        <ele>114</ele>
        <time>2019-05-30T15:24:58Z</time>
      </trkpt>
      <trkpt lat="49.38557" lon="4.00801">
        <ele>114</ele>
        <time>2019-05-30T15:24:59Z</time>
      </trkpt>
      <trkpt lat="49.38561" lon="4.00793">
        <ele>114</ele>
        <time>2019-05-30T15:25:00Z</time>
      </trkpt>
      <trkpt lat="49.38564" lon="4.00785">
        <ele>114</ele>
        <time>2019-05-30T15:25:01Z</time>
      </trkpt>
      <trkpt lat="49.38567" lon="4.00776">
        <ele>114</ele>
        <time>2019-05-30T15:25:02Z</time>
      </trkpt>
      <trkpt lat="49.38571" lon="4.00768">
        <ele>114</ele>
        <time>2019-05-30T15:25:03Z</time>
      </trkpt>
      <trkpt lat="49.38574" lon="4.0076">
        <ele>114</ele>
        <time>2019-05-30T15:25:04Z</time>
      </trkpt>
      <trkpt lat="49.38577" lon="4.0075">
        <ele>114</ele>
        <time>2019-05-30T15:25:05Z</time>
      </trkpt>
      <trkpt lat="49.38581" lon="4.00741">
        <ele>114</ele>
        <time>2019-05-30T15:25:06Z</time>
      </trkpt>
      <trkpt lat="49.38584" lon="4.00733">
        <ele>114</ele>
        <time>2019-05-30T15:25:07Z</time>
      </trkpt>
      <trkpt lat="49.38586" lon="4.00724">
        <ele>114</ele>
        <time>2019-05-30T15:25:08Z</time>
      </trkpt>
      <trkpt lat="49.3859" lon="4.00716">
        <ele>114</ele>
        <time>2019-05-30T15:25:09Z</time>
      </trkpt>
      <trkpt lat="49.38593" lon="4.00707">
        <ele>114</ele>
        <time>2019-05-30T15:25:10Z</time>
      </trkpt>
      <trkpt lat="49.38597" lon="4.00698">
        <ele>114</ele>
        <time>2019-05-30T15:25:11Z</time>
      </trkpt>
      <trkpt lat="49.386" lon="4.00689">
        <ele>114</ele>
        <time>2019-05-30T15:25:12Z</time>
      </trkpt>
      <trkpt lat="49.38603" lon="4.0068">
        <ele>114</ele>
        <time>2019-05-30T15:25:13Z</time>
      </trkpt>
      <trkpt lat="49.38605" lon="4.00672">
        <ele>114</ele>
        <time>2019-05-30T15:25:14Z</time>
      </trkpt>
      <trkpt lat="49.38608" lon="4.00663">
        <ele>114</ele>
        <time>2019-05-30T15:25:15Z</time>
      </trkpt>
      <trkpt lat="49.38611" lon="4.00654">
        <ele>114</ele>
        <time>2019-05-30T15:25:16Z</time>
      </trkpt>
      <trkpt lat="49.38614" lon="4.00646">
        <ele>114</ele>
        <time>2019-05-30T15:25:17Z</time>
      </trkpt>
      <trkpt lat="49.38616" lon="4.00636">
        <ele>114</ele>
        <time>2019-05-30T15:25:18Z</time>
      </trkpt>
      <trkpt lat="49.38619" lon="4.00628">
        <ele>114</ele>
        <time>2019-05-30T15:25:19Z</time>
      </trkpt>
      <trkpt lat="49.38622" lon="4.00619">
        <ele>114</ele>
        <time>2019-05-30T15:25:20Z</time>
      </trkpt>
      <trkpt lat="49.38625" lon="4.0061">
        <ele>114</ele>
        <time>2019-05-30T15:25:21Z</time>
      </trkpt>
      <trkpt lat="49.38628" lon="4.00601">
        <ele>114</ele>
        <time>2019-05-30T15:25:22Z</time>
      </trkpt>
      <trkpt lat="49.38631" lon="4.00592">
        <ele>114</ele>
        <time>2019-05-30T15:25:23Z</time>
      </trkpt>
      <trkpt lat="49.38634" lon="4.00583">
        <ele>114</ele>
        <time>2019-05-30T15:25:24Z</time>
      </trkpt>
      <trkpt lat="49.38637" lon="4.00574">
        <ele>115</ele>
        <time>2019-05-30T15:25:25Z</time>
      </trkpt>
      <trkpt lat="49.38639" lon="4.00565">
        <ele>114</ele>
        <time>2019-05-30T15:25:26Z</time>
      </trkpt>
      <trkpt lat="49.38642" lon="4.00557">
        <ele>115</ele>
        <time>2019-05-30T15:25:27Z</time>
      </trkpt>
      <trkpt lat="49.38645" lon="4.00548">
        <ele>114</ele>
        <time>2019-05-30T15:25:28Z</time>
      </trkpt>
      <trkpt lat="49.38647" lon="4.00539">
        <ele>114</ele>
        <time>2019-05-30T15:25:29Z</time>
      </trkpt>
      <trkpt lat="49.3865" lon="4.00531">
        <ele>115</ele>
        <time>2019-05-30T15:25:30Z</time>
      </trkpt>
      <trkpt lat="49.38653" lon="4.00522">
        <ele>115</ele>
        <time>2019-05-30T15:25:31Z</time>
      </trkpt>
      <trkpt lat="49.38656" lon="4.00514">
        <ele>115</ele>
        <time>2019-05-30T15:25:32Z</time>
      </trkpt>
      <trkpt lat="49.38659" lon="4.00506">
        <ele>115</ele>
        <time>2019-05-30T15:25:33Z</time>
      </trkpt>
      <trkpt lat="49.38662" lon="4.00498">
        <ele>115</ele>
        <time>2019-05-30T15:25:34Z</time>
      </trkpt>
      <trkpt lat="49.38665" lon="4.00491">
        <ele>115</ele>
        <time>2019-05-30T15:25:35Z</time>
      </trkpt>
      <trkpt lat="49.38667" lon="4.00484">
        <ele>115</ele>
        <time>2019-05-30T15:25:36Z</time>
      </trkpt>
      <trkpt lat="49.38671" lon="4.00475">
        <ele>116</ele>
        <time>2019-05-30T15:25:37Z</time>
      </trkpt>
      <trkpt lat="49.38674" lon="4.00467">
        <ele>116</ele>
        <time>2019-05-30T15:25:38Z</time>
      </trkpt>
      <trkpt lat="49.38678" lon="4.00459">
        <ele>116</ele>
        <time>2019-05-30T15:25:39Z</time>
      </trkpt>
      <trkpt lat="49.38682" lon="4.0045">
        <ele>116</ele>
        <time>2019-05-30T15:25:40Z</time>
      </trkpt>
      <trkpt lat="49.38685" lon="4.00442">
        <ele>116</ele>
        <time>2019-05-30T15:25:41Z</time>
      </trkpt>
      <trkpt lat="49.38689" lon="4.00434">
        <ele>116</ele>
        <time>2019-05-30T15:25:42Z</time>
      </trkpt>
      <trkpt lat="49.38692" lon="4.00426">
        <ele>116</ele>
        <time>2019-05-30T15:25:43Z</time>
      </trkpt>
      <trkpt lat="49.38696" lon="4.00418">
        <ele>116</ele>
        <time>2019-05-30T15:25:44Z</time>
      </trkpt>
      <trkpt lat="49.387" lon="4.0041">
        <ele>116</ele>
        <time>2019-05-30T15:25:45Z</time>
      </trkpt>
      <trkpt lat="49.38704" lon="4.00401">
        <ele>116</ele>
        <time>2019-05-30T15:25:46Z</time>
      </trkpt>
      <trkpt lat="49.38708" lon="4.00392">
        <ele>116</ele>
        <time>2019-05-30T15:25:47Z</time>
      </trkpt>
      <trkpt lat="49.38712" lon="4.00384">
        <ele>115</ele>
        <time>2019-05-30T15:25:48Z</time>
      </trkpt>
      <trkpt lat="49.38716" lon="4.00375">
        <ele>115</ele>
        <time>2019-05-30T15:25:49Z</time>
      </trkpt>
      <trkpt lat="49.3872" lon="4.00366">
        <ele>115</ele>
        <time>2019-05-30T15:25:50Z</time>
      </trkpt>
      <trkpt lat="49.38724" lon="4.00356">
        <ele>115</ele>
        <time>2019-05-30T15:25:51Z</time>
      </trkpt>
      <trkpt lat="49.38728" lon="4.00347">
        <ele>115</ele>
        <time>2019-05-30T15:25:52Z</time>
      </trkpt>
      <trkpt lat="49.38732" lon="4.00338">
        <ele>115</ele>
        <time>2019-05-30T15:25:53Z</time>
      </trkpt>
      <trkpt lat="49.38737" lon="4.00329">
        <ele>114</ele>
        <time>2019-05-30T15:25:54Z</time>
      </trkpt>
      <trkpt lat="49.38741" lon="4.00319">
        <ele>114</ele>
        <time>2019-05-30T15:25:55Z</time>
      </trkpt>
      <trkpt lat="49.38746" lon="4.00309">
        <ele>114</ele>
        <time>2019-05-30T15:25:56Z</time>
      </trkpt>
      <trkpt lat="49.38751" lon="4.00299">
        <ele>113</ele>
        <time>2019-05-30T15:25:57Z</time>
      </trkpt>
      <trkpt lat="49.38755" lon="4.00289">
        <ele>113</ele>
        <time>2019-05-30T15:25:58Z</time>
      </trkpt>
      <trkpt lat="49.38759" lon="4.00279">
        <ele>113</ele>
        <time>2019-05-30T15:25:59Z</time>
      </trkpt>
      <trkpt lat="49.38764" lon="4.0027">
        <ele>113</ele>
        <time>2019-05-30T15:26:00Z</time>
      </trkpt>
      <trkpt lat="49.38768" lon="4.00259">
        <ele>112</ele>
        <time>2019-05-30T15:26:01Z</time>
      </trkpt>
      <trkpt lat="49.38772" lon="4.00249">
        <ele>112</ele>
        <time>2019-05-30T15:26:02Z</time>
      </trkpt>
      <trkpt lat="49.38777" lon="4.00239">
        <ele>111</ele>
        <time>2019-05-30T15:26:03Z</time>
      </trkpt>
      <trkpt lat="49.38781" lon="4.00229">
        <ele>111</ele>
        <time>2019-05-30T15:26:04Z</time>
      </trkpt>
      <trkpt lat="49.38786" lon="4.00219">
        <ele>111</ele>
        <time>2019-05-30T15:26:05Z</time>
      </trkpt>
      <trkpt lat="49.3879" lon="4.0021">
        <ele>111</ele>
        <time>2019-05-30T15:26:06Z</time>
      </trkpt>
      <trkpt lat="49.38794" lon="4.002">
        <ele>111</ele>
        <time>2019-05-30T15:26:07Z</time>
      </trkpt>
      <trkpt lat="49.38799" lon="4.0019">
        <ele>111</ele>
        <time>2019-05-30T15:26:08Z</time>
      </trkpt>
      <trkpt lat="49.38803" lon="4.0018">
        <ele>111</ele>
        <time>2019-05-30T15:26:09Z</time>
      </trkpt>
      <trkpt lat="49.38807" lon="4.00171">
        <ele>111</ele>
        <time>2019-05-30T15:26:10Z</time>
      </trkpt>
      <trkpt lat="49.38812" lon="4.00161">
        <ele>111</ele>
        <time>2019-05-30T15:26:11Z</time>
      </trkpt>
      <trkpt lat="49.38816" lon="4.00153">
        <ele>111</ele>
        <time>2019-05-30T15:26:12Z</time>
      </trkpt>
      <trkpt lat="49.3882" lon="4.00144">
        <ele>111</ele>
        <time>2019-05-30T15:26:13Z</time>
      </trkpt>
      <trkpt lat="49.38824" lon="4.00136">
        <ele>111</ele>
        <time>2019-05-30T15:26:14Z</time>
      </trkpt>
      <trkpt lat="49.38828" lon="4.00128">
        <ele>111</ele>
        <time>2019-05-30T15:26:15Z</time>
      </trkpt>
      <trkpt lat="49.38832" lon="4.0012">
        <ele>111</ele>
        <time>2019-05-30T15:26:16Z</time>
      </trkpt>
      <trkpt lat="49.38836" lon="4.00112">
        <ele>111</ele>
        <time>2019-05-30T15:26:17Z</time>
      </trkpt>
      <trkpt lat="49.38839" lon="4.00104">
        <ele>111</ele>
        <time>2019-05-30T15:26:18Z</time>
      </trkpt>
      <trkpt lat="49.38843" lon="4.00097">
        <ele>111</ele>
        <time>2019-05-30T15:26:19Z</time>
      </trkpt>
      <trkpt lat="49.38847" lon="4.00089">
        <ele>111</ele>
        <time>2019-05-30T15:26:20Z</time>
      </trkpt>
      <trkpt lat="49.38851" lon="4.00082">
        <ele>111</ele>
        <time>2019-05-30T15:26:21Z</time>
      </trkpt>
      <trkpt lat="49.38855" lon="4.00074">
        <ele>111</ele>
        <time>2019-05-30T15:26:22Z</time>
      </trkpt>
      <trkpt lat="49.38859" lon="4.00066">
        <ele>111</ele>
        <time>2019-05-30T15:26:23Z</time>
      </trkpt>
      <trkpt lat="49.38864" lon="4.00058">
        <ele>111</ele>
        <time>2019-05-30T15:26:24Z</time>
      </trkpt>
      <trkpt lat="49.38868" lon="4.0005">
        <ele>111</ele>
        <time>2019-05-30T15:26:25Z</time>
      </trkpt>
      <trkpt lat="49.38872" lon="4.00042">
        <ele>111</ele>
        <time>2019-05-30T15:26:26Z</time>
      </trkpt>
      <trkpt lat="49.38876" lon="4.00034">
        <ele>111</ele>
        <time>2019-05-30T15:26:27Z</time>
      </trkpt>
      <trkpt lat="49.38881" lon="4.00025">
        <ele>111</ele>
        <time>2019-05-30T15:26:28Z</time>
      </trkpt>
      <trkpt lat="49.38885" lon="4.00017">
        <ele>111</ele>
        <time>2019-05-30T15:26:29Z</time>
      </trkpt>
      <trkpt lat="49.38889" lon="4.00009">
        <ele>111</ele>
        <time>2019-05-30T15:26:30Z</time>
      </trkpt>
      <trkpt lat="49.38894" lon="4">
        <ele>111</ele>
        <time>2019-05-30T15:26:31Z</time>
      </trkpt>
      <trkpt lat="49.38898" lon="3.99992">
        <ele>111</ele>
        <time>2019-05-30T15:26:32Z</time>
      </trkpt>
      <trkpt lat="49.38902" lon="3.99984">
        <ele>111</ele>
        <time>2019-05-30T15:26:33Z</time>
      </trkpt>
      <trkpt lat="49.38907" lon="3.99976">
        <ele>111</ele>
        <time>2019-05-30T15:26:34Z</time>
      </trkpt>
      <trkpt lat="49.38911" lon="3.99968">
        <ele>111</ele>
        <time>2019-05-30T15:26:35Z</time>
      </trkpt>
      <trkpt lat="49.38915" lon="3.99959">
        <ele>110</ele>
        <time>2019-05-30T15:26:36Z</time>
      </trkpt>
      <trkpt lat="49.38919" lon="3.99951">
        <ele>110</ele>
        <time>2019-05-30T15:26:37Z</time>
      </trkpt>
      <trkpt lat="49.38923" lon="3.99943">
        <ele>110</ele>
        <time>2019-05-30T15:26:38Z</time>
      </trkpt>
      <trkpt lat="49.38927" lon="3.99935">
        <ele>111</ele>
        <time>2019-05-30T15:26:39Z</time>
      </trkpt>
      <trkpt lat="49.38932" lon="3.99927">
        <ele>111</ele>
        <time>2019-05-30T15:26:40Z</time>
      </trkpt>
      <trkpt lat="49.38936" lon="3.99919">
        <ele>111</ele>
        <time>2019-05-30T15:26:41Z</time>
      </trkpt>
      <trkpt lat="49.3894" lon="3.99911">
        <ele>111</ele>
        <time>2019-05-30T15:26:42Z</time>
      </trkpt>
      <trkpt lat="49.38944" lon="3.99903">
        <ele>111</ele>
        <time>2019-05-30T15:26:43Z</time>
      </trkpt>
      <trkpt lat="49.38949" lon="3.99895">
        <ele>111</ele>
        <time>2019-05-30T15:26:44Z</time>
      </trkpt>
      <trkpt lat="49.38953" lon="3.99887">
        <ele>111</ele>
        <time>2019-05-30T15:26:45Z</time>
      </trkpt>
      <trkpt lat="49.38957" lon="3.99879">
        <ele>111</ele>
        <time>2019-05-30T15:26:46Z</time>
      </trkpt>
      <trkpt lat="49.38961" lon="3.9987">
        <ele>111</ele>
        <time>2019-05-30T15:26:47Z</time>
      </trkpt>
      <trkpt lat="49.38966" lon="3.99862">
        <ele>111</ele>
        <time>2019-05-30T15:26:48Z</time>
      </trkpt>
      <trkpt lat="49.3897" lon="3.99854">
        <ele>111</ele>
        <time>2019-05-30T15:26:49Z</time>
      </trkpt>
      <trkpt lat="49.38973" lon="3.99846">
        <ele>111</ele>
        <time>2019-05-30T15:26:50Z</time>
      </trkpt>
      <trkpt lat="49.38978" lon="3.99838">
        <ele>111</ele>
        <time>2019-05-30T15:26:51Z</time>
      </trkpt>
      <trkpt lat="49.38982" lon="3.9983">
        <ele>111</ele>
        <time>2019-05-30T15:26:52Z</time>
      </trkpt>
      <trkpt lat="49.38986" lon="3.99822">
        <ele>111</ele>
        <time>2019-05-30T15:26:53Z</time>
      </trkpt>
      <trkpt lat="49.3899" lon="3.99814">
        <ele>111</ele>
        <time>2019-05-30T15:26:54Z</time>
      </trkpt>
      <trkpt lat="49.38994" lon="3.99806">
        <ele>111</ele>
        <time>2019-05-30T15:26:55Z</time>
      </trkpt>
      <trkpt lat="49.38998" lon="3.99798">
        <ele>111</ele>
        <time>2019-05-30T15:26:56Z</time>
      </trkpt>
      <trkpt lat="49.39002" lon="3.99792">
        <ele>111</ele>
        <time>2019-05-30T15:26:57Z</time>
      </trkpt>
      <trkpt lat="49.39007" lon="3.99786">
        <ele>111</ele>
        <time>2019-05-30T15:26:58Z</time>
      </trkpt>
      <trkpt lat="49.39011" lon="3.99779">
        <ele>111</ele>
        <time>2019-05-30T15:26:59Z</time>
      </trkpt>
      <trkpt lat="49.39016" lon="3.99773">
        <ele>111</ele>
        <time>2019-05-30T15:27:00Z</time>
      </trkpt>
      <trkpt lat="49.3902" lon="3.99766">
        <ele>111</ele>
        <time>2019-05-30T15:27:01Z</time>
      </trkpt>
      <trkpt lat="49.39025" lon="3.9976">
        <ele>111</ele>
        <time>2019-05-30T15:27:02Z</time>
      </trkpt>
      <trkpt lat="49.3903" lon="3.99754">
        <ele>111</ele>
        <time>2019-05-30T15:27:03Z</time>
      </trkpt>
      <trkpt lat="49.39034" lon="3.99748">
        <ele>110</ele>
        <time>2019-05-30T15:27:04Z</time>
      </trkpt>
      <trkpt lat="49.39039" lon="3.99742">
        <ele>110</ele>
        <time>2019-05-30T15:27:05Z</time>
      </trkpt>
      <trkpt lat="49.39044" lon="3.99734">
        <ele>110</ele>
        <time>2019-05-30T15:27:06Z</time>
      </trkpt>
      <trkpt lat="49.39049" lon="3.99727">
        <ele>111</ele>
        <time>2019-05-30T15:27:07Z</time>
      </trkpt>
      <trkpt lat="49.39054" lon="3.9972">
        <ele>111</ele>
        <time>2019-05-30T15:27:08Z</time>
      </trkpt>
      <trkpt lat="49.39059" lon="3.99713">
        <ele>111</ele>
        <time>2019-05-30T15:27:09Z</time>
      </trkpt>
      <trkpt lat="49.39064" lon="3.99707">
        <ele>111</ele>
        <time>2019-05-30T15:27:10Z</time>
      </trkpt>
      <trkpt lat="49.39069" lon="3.997">
        <ele>111</ele>
        <time>2019-05-30T15:27:11Z</time>
      </trkpt>
      <trkpt lat="49.39074" lon="3.99694">
        <ele>111</ele>
        <time>2019-05-30T15:27:12Z</time>
      </trkpt>
      <trkpt lat="49.39079" lon="3.99687">
        <ele>111</ele>
        <time>2019-05-30T15:27:13Z</time>
      </trkpt>
      <trkpt lat="49.39083" lon="3.9968">
        <ele>110</ele>
        <time>2019-05-30T15:27:14Z</time>
      </trkpt>
      <trkpt lat="49.39088" lon="3.99673">
        <ele>111</ele>
        <time>2019-05-30T15:27:15Z</time>
      </trkpt>
      <trkpt lat="49.39092" lon="3.99666">
        <ele>111</ele>
        <time>2019-05-30T15:27:16Z</time>
      </trkpt>
      <trkpt lat="49.39095" lon="3.99659">
        <ele>111</ele>
        <time>2019-05-30T15:27:17Z</time>
      </trkpt>
      <trkpt lat="49.39099" lon="3.99652">
        <ele>111</ele>
        <time>2019-05-30T15:27:18Z</time>
      </trkpt>
      <trkpt lat="49.39102" lon="3.99644">
        <ele>111</ele>
        <time>2019-05-30T15:27:19Z</time>
      </trkpt>
      <trkpt lat="49.39106" lon="3.99636">
        <ele>111</ele>
        <time>2019-05-30T15:27:20Z</time>
      </trkpt>
      <trkpt lat="49.3911" lon="3.99627">
        <ele>111</ele>
        <time>2019-05-30T15:27:21Z</time>
      </trkpt>
      <trkpt lat="49.39113" lon="3.99619">
        <ele>111</ele>
        <time>2019-05-30T15:27:22Z</time>
      </trkpt>
      <trkpt lat="49.39116" lon="3.99611">
        <ele>112</ele>
        <time>2019-05-30T15:27:23Z</time>
      </trkpt>
      <trkpt lat="49.3912" lon="3.99602">
        <ele>112</ele>
        <time>2019-05-30T15:27:24Z</time>
      </trkpt>
      <trkpt lat="49.39123" lon="3.99593">
        <ele>112</ele>
        <time>2019-05-30T15:27:25Z</time>
      </trkpt>
      <trkpt lat="49.39126" lon="3.99585">
        <ele>112</ele>
        <time>2019-05-30T15:27:26Z</time>
      </trkpt>
      <trkpt lat="49.3913" lon="3.99576">
        <ele>112</ele>
        <time>2019-05-30T15:27:27Z</time>
      </trkpt>
      <trkpt lat="49.39133" lon="3.99568">
        <ele>112</ele>
        <time>2019-05-30T15:27:28Z</time>
      </trkpt>
      <trkpt lat="49.39136" lon="3.99561">
        <ele>112</ele>
        <time>2019-05-30T15:27:29Z</time>
      </trkpt>
      <trkpt lat="49.39139" lon="3.99554">
        <ele>112</ele>
        <time>2019-05-30T15:27:30Z</time>
      </trkpt>
      <trkpt lat="49.39141" lon="3.99546">
        <ele>112</ele>
        <time>2019-05-30T15:27:31Z</time>
      </trkpt>
      <trkpt lat="49.39144" lon="3.99539">
        <ele>112</ele>
        <time>2019-05-30T15:27:32Z</time>
      </trkpt>
      <trkpt lat="49.39147" lon="3.99532">
        <ele>112</ele>
        <time>2019-05-30T15:27:33Z</time>
      </trkpt>
      <trkpt lat="49.3915" lon="3.99524">
        <ele>112</ele>
        <time>2019-05-30T15:27:34Z</time>
      </trkpt>
      <trkpt lat="49.39153" lon="3.99516">
        <ele>112</ele>
        <time>2019-05-30T15:27:35Z</time>
      </trkpt>
      <trkpt lat="49.39156" lon="3.99509">
        <ele>112</ele>
        <time>2019-05-30T15:27:36Z</time>
      </trkpt>
      <trkpt lat="49.39159" lon="3.995">
        <ele>112</ele>
        <time>2019-05-30T15:27:37Z</time>
      </trkpt>
      <trkpt lat="49.39162" lon="3.99493">
        <ele>112</ele>
        <time>2019-05-30T15:27:38Z</time>
      </trkpt>
      <trkpt lat="49.39165" lon="3.99485">
        <ele>112</ele>
        <time>2019-05-30T15:27:39Z</time>
      </trkpt>
      <trkpt lat="49.39168" lon="3.99477">
        <ele>113</ele>
        <time>2019-05-30T15:27:40Z</time>
      </trkpt>
      <trkpt lat="49.39172" lon="3.9947">
        <ele>113</ele>
        <time>2019-05-30T15:27:41Z</time>
      </trkpt>
      <trkpt lat="49.39174" lon="3.99462">
        <ele>113</ele>
        <time>2019-05-30T15:27:42Z</time>
      </trkpt>
      <trkpt lat="49.39177" lon="3.99454">
        <ele>113</ele>
        <time>2019-05-30T15:27:43Z</time>
      </trkpt>
      <trkpt lat="49.3918" lon="3.99446">
        <ele>113</ele>
        <time>2019-05-30T15:27:44Z</time>
      </trkpt>
      <trkpt lat="49.39184" lon="3.99439">
        <ele>113</ele>
        <time>2019-05-30T15:27:45Z</time>
      </trkpt>
      <trkpt lat="49.39187" lon="3.99431">
        <ele>113</ele>
        <time>2019-05-30T15:27:46Z</time>
      </trkpt>
      <trkpt lat="49.3919" lon="3.99423">
        <ele>113</ele>
        <time>2019-05-30T15:27:47Z</time>
      </trkpt>
      <trkpt lat="49.39193" lon="3.99415">
        <ele>113</ele>
        <time>2019-05-30T15:27:48Z</time>
      </trkpt>
      <trkpt lat="49.39196" lon="3.99407">
        <ele>113</ele>
        <time>2019-05-30T15:27:49Z</time>
      </trkpt>
      <trkpt lat="49.392" lon="3.994">
        <ele>113</ele>
        <time>2019-05-30T15:27:50Z</time>
      </trkpt>
      <trkpt lat="49.39203" lon="3.99392">
        <ele>113</ele>
        <time>2019-05-30T15:27:51Z</time>
      </trkpt>
      <trkpt lat="49.39206" lon="3.99384">
        <ele>113</ele>
        <time>2019-05-30T15:27:52Z</time>
      </trkpt>
      <trkpt lat="49.39209" lon="3.99376">
        <ele>113</ele>
        <time>2019-05-30T15:27:53Z</time>
      </trkpt>
      <trkpt lat="49.39212" lon="3.99369">
        <ele>113</ele>
        <time>2019-05-30T15:27:54Z</time>
      </trkpt>
      <trkpt lat="49.39216" lon="3.99361">
        <ele>113</ele>
        <time>2019-05-30T15:27:55Z</time>
      </trkpt>
      <trkpt lat="49.39219" lon="3.99354">
        <ele>113</ele>
        <time>2019-05-30T15:27:56Z</time>
      </trkpt>
      <trkpt lat="49.39222" lon="3.99347">
        <ele>113</ele>
        <time>2019-05-30T15:27:57Z</time>
      </trkpt>
      <trkpt lat="49.39226" lon="3.99341">
        <ele>113</ele>
        <time>2019-05-30T15:27:58Z</time>
      </trkpt>
      <trkpt lat="49.39229" lon="3.99332">
        <ele>113</ele>
        <time>2019-05-30T15:27:59Z</time>
      </trkpt>
      <trkpt lat="49.39233" lon="3.99325">
        <ele>113</ele>
        <time>2019-05-30T15:28:00Z</time>
      </trkpt>
      <trkpt lat="49.39237" lon="3.99317">
        <ele>112</ele>
        <time>2019-05-30T15:28:01Z</time>
      </trkpt>
      <trkpt lat="49.3924" lon="3.9931">
        <ele>112</ele>
        <time>2019-05-30T15:28:02Z</time>
      </trkpt>
      <trkpt lat="49.39244" lon="3.99302">
        <ele>113</ele>
        <time>2019-05-30T15:28:03Z</time>
      </trkpt>
      <trkpt lat="49.39248" lon="3.99295">
        <ele>112</ele>
        <time>2019-05-30T15:28:04Z</time>
      </trkpt>
      <trkpt lat="49.39251" lon="3.99287">
        <ele>112</ele>
        <time>2019-05-30T15:28:05Z</time>
      </trkpt>
      <trkpt lat="49.39255" lon="3.9928">
        <ele>112</ele>
        <time>2019-05-30T15:28:06Z</time>
      </trkpt>
      <trkpt lat="49.39259" lon="3.99272">
        <ele>112</ele>
        <time>2019-05-30T15:28:07Z</time>
      </trkpt>
      <trkpt lat="49.39262" lon="3.99265">
        <ele>112</ele>
        <time>2019-05-30T15:28:08Z</time>
      </trkpt>
      <trkpt lat="49.39266" lon="3.99257">
        <ele>112</ele>
        <time>2019-05-30T15:28:09Z</time>
      </trkpt>
      <trkpt lat="49.3927" lon="3.9925">
        <ele>112</ele>
        <time>2019-05-30T15:28:10Z</time>
      </trkpt>
      <trkpt lat="49.39273" lon="3.99242">
        <ele>112</ele>
        <time>2019-05-30T15:28:11Z</time>
      </trkpt>
      <trkpt lat="49.39277" lon="3.99234">
        <ele>112</ele>
        <time>2019-05-30T15:28:12Z</time>
      </trkpt>
      <trkpt lat="49.39281" lon="3.99226">
        <ele>112</ele>
        <time>2019-05-30T15:28:13Z</time>
      </trkpt>
      <trkpt lat="49.39285" lon="3.99217">
        <ele>112</ele>
        <time>2019-05-30T15:28:14Z</time>
      </trkpt>
      <trkpt lat="49.39289" lon="3.99209">
        <ele>112</ele>
        <time>2019-05-30T15:28:15Z</time>
      </trkpt>
      <trkpt lat="49.39293" lon="3.99201">
        <ele>112</ele>
        <time>2019-05-30T15:28:16Z</time>
      </trkpt>
      <trkpt lat="49.39297" lon="3.99193">
        <ele>112</ele>
        <time>2019-05-30T15:28:17Z</time>
      </trkpt>
      <trkpt lat="49.39302" lon="3.99185">
        <ele>112</ele>
        <time>2019-05-30T15:28:18Z</time>
      </trkpt>
      <trkpt lat="49.39306" lon="3.99177">
        <ele>111</ele>
        <time>2019-05-30T15:28:19Z</time>
      </trkpt>
      <trkpt lat="49.39311" lon="3.99169">
        <ele>112</ele>
        <time>2019-05-30T15:28:20Z</time>
      </trkpt>
      <trkpt lat="49.39315" lon="3.99161">
        <ele>112</ele>
        <time>2019-05-30T15:28:21Z</time>
      </trkpt>
      <trkpt lat="49.3932" lon="3.99153">
        <ele>111</ele>
        <time>2019-05-30T15:28:22Z</time>
      </trkpt>
      <trkpt lat="49.39325" lon="3.99146">
        <ele>111</ele>
        <time>2019-05-30T15:28:23Z</time>
      </trkpt>
      <trkpt lat="49.39331" lon="3.99139">
        <ele>111</ele>
        <time>2019-05-30T15:28:24Z</time>
      </trkpt>
      <trkpt lat="49.39337" lon="3.99134">
        <ele>111</ele>
        <time>2019-05-30T15:28:25Z</time>
      </trkpt>
      <trkpt lat="49.39343" lon="3.99129">
        <ele>110</ele>
        <time>2019-05-30T15:28:26Z</time>
      </trkpt>
      <trkpt lat="49.3935" lon="3.99126">
        <ele>110</ele>
        <time>2019-05-30T15:28:27Z</time>
      </trkpt>
      <trkpt lat="49.39358" lon="3.99124">
        <ele>110</ele>
        <time>2019-05-30T15:28:28Z</time>
      </trkpt>
      <trkpt lat="49.39365" lon="3.99122">
        <ele>110</ele>
        <time>2019-05-30T15:28:29Z</time>
      </trkpt>
      <trkpt lat="49.39372" lon="3.99122">
        <ele>109</ele>
        <time>2019-05-30T15:28:30Z</time>
      </trkpt>
      <trkpt lat="49.39379" lon="3.99124">
        <ele>109</ele>
        <time>2019-05-30T15:28:31Z</time>
      </trkpt>
      <trkpt lat="49.39386" lon="3.99125">
        <ele>109</ele>
        <time>2019-05-30T15:28:32Z</time>
      </trkpt>
      <trkpt lat="49.39394" lon="3.99125">
        <ele>109</ele>
        <time>2019-05-30T15:28:33Z</time>
      </trkpt>
      <trkpt lat="49.39402" lon="3.99125">
        <ele>109</ele>
        <time>2019-05-30T15:28:34Z</time>
      </trkpt>
      <trkpt lat="49.39409" lon="3.99125">
        <ele>109</ele>
        <time>2019-05-30T15:28:35Z</time>
      </trkpt>
      <trkpt lat="49.39416" lon="3.99126">
        <ele>109</ele>
        <time>2019-05-30T15:28:36Z</time>
      </trkpt>
      <trkpt lat="49.39424" lon="3.99126">
        <ele>108</ele>
        <time>2019-05-30T15:28:37Z</time>
      </trkpt>
      <trkpt lat="49.3943" lon="3.99127">
        <ele>108</ele>
        <time>2019-05-30T15:28:38Z</time>
      </trkpt>
      <trkpt lat="49.39437" lon="3.99128">
        <ele>108</ele>
        <time>2019-05-30T15:28:39Z</time>
      </trkpt>
      <trkpt lat="49.39444" lon="3.99128">
        <ele>108</ele>
        <time>2019-05-30T15:28:40Z</time>
      </trkpt>
      <trkpt lat="49.39451" lon="3.99129">
        <ele>107</ele>
        <time>2019-05-30T15:28:41Z</time>
      </trkpt>
      <trkpt lat="49.39459" lon="3.99131">
        <ele>108</ele>
        <time>2019-05-30T15:28:42Z</time>
      </trkpt>
      <trkpt lat="49.39466" lon="3.99132">
        <ele>107</ele>
        <time>2019-05-30T15:28:43Z</time>
      </trkpt>
      <trkpt lat="49.39474" lon="3.99132">
        <ele>107</ele>
        <time>2019-05-30T15:28:44Z</time>
      </trkpt>
      <trkpt lat="49.39481" lon="3.99133">
        <ele>107</ele>
        <time>2019-05-30T15:28:45Z</time>
      </trkpt>
      <trkpt lat="49.39489" lon="3.99133">
        <ele>107</ele>
        <time>2019-05-30T15:28:46Z</time>
      </trkpt>
      <trkpt lat="49.39496" lon="3.99134">
        <ele>108</ele>
        <time>2019-05-30T15:28:47Z</time>
      </trkpt>
      <trkpt lat="49.39504" lon="3.99135">
        <ele>108</ele>
        <time>2019-05-30T15:28:48Z</time>
      </trkpt>
      <trkpt lat="49.39511" lon="3.99136">
        <ele>108</ele>
        <time>2019-05-30T15:28:49Z</time>
      </trkpt>
      <trkpt lat="49.39519" lon="3.99137">
        <ele>108</ele>
        <time>2019-05-30T15:28:50Z</time>
      </trkpt>
      <trkpt lat="49.39526" lon="3.99138">
        <ele>108</ele>
        <time>2019-05-30T15:28:51Z</time>
      </trkpt>
      <trkpt lat="49.39534" lon="3.99138">
        <ele>109</ele>
        <time>2019-05-30T15:28:52Z</time>
      </trkpt>
      <trkpt lat="49.39541" lon="3.99138">
        <ele>109</ele>
        <time>2019-05-30T15:28:53Z</time>
      </trkpt>
      <trkpt lat="49.39548" lon="3.99139">
        <ele>109</ele>
        <time>2019-05-30T15:28:54Z</time>
      </trkpt>
      <trkpt lat="49.39556" lon="3.9914">
        <ele>109</ele>
        <time>2019-05-30T15:28:55Z</time>
      </trkpt>
      <trkpt lat="49.39563" lon="3.9914">
        <ele>109</ele>
        <time>2019-05-30T15:28:56Z</time>
      </trkpt>
      <trkpt lat="49.3957" lon="3.99137">
        <ele>109</ele>
        <time>2019-05-30T15:28:57Z</time>
      </trkpt>
      <trkpt lat="49.39576" lon="3.99131">
        <ele>109</ele>
        <time>2019-05-30T15:28:58Z</time>
      </trkpt>
      <trkpt lat="49.39581" lon="3.99122">
        <ele>108</ele>
        <time>2019-05-30T15:28:59Z</time>
      </trkpt>
      <trkpt lat="49.39585" lon="3.99111">
        <ele>108</ele>
        <time>2019-05-30T15:29:00Z</time>
      </trkpt>
      <trkpt lat="49.39588" lon="3.99101">
        <ele>108</ele>
        <time>2019-05-30T15:29:01Z</time>
      </trkpt>
      <trkpt lat="49.3959" lon="3.9909">
        <ele>108</ele>
        <time>2019-05-30T15:29:02Z</time>
      </trkpt>
      <trkpt lat="49.39592" lon="3.99079">
        <ele>108</ele>
        <time>2019-05-30T15:29:03Z</time>
      </trkpt>
      <trkpt lat="49.39594" lon="3.99069">
        <ele>108</ele>
        <time>2019-05-30T15:29:04Z</time>
      </trkpt>
      <trkpt lat="49.39597" lon="3.99059">
        <ele>108</ele>
        <time>2019-05-30T15:29:05Z</time>
      </trkpt>
      <trkpt lat="49.396" lon="3.99049">
        <ele>108</ele>
        <time>2019-05-30T15:29:06Z</time>
      </trkpt>
      <trkpt lat="49.39603" lon="3.99038">
        <ele>107</ele>
        <time>2019-05-30T15:29:07Z</time>
      </trkpt>
      <trkpt lat="49.39606" lon="3.99028">
        <ele>108</ele>
        <time>2019-05-30T15:29:08Z</time>
      </trkpt>
      <trkpt lat="49.3961" lon="3.99018">
        <ele>107</ele>
        <time>2019-05-30T15:29:09Z</time>
      </trkpt>
      <trkpt lat="49.39614" lon="3.99009">
        <ele>107</ele>
        <time>2019-05-30T15:29:10Z</time>
      </trkpt>
      <trkpt lat="49.39618" lon="3.99">
        <ele>107</ele>
        <time>2019-05-30T15:29:11Z</time>
      </trkpt>
      <trkpt lat="49.39622" lon="3.98992">
        <ele>107</ele>
        <time>2019-05-30T15:29:12Z</time>
      </trkpt>
      <trkpt lat="49.39626" lon="3.98983">
        <ele>107</ele>
        <time>2019-05-30T15:29:13Z</time>
      </trkpt>
      <trkpt lat="49.3963" lon="3.98974">
        <ele>107</ele>
        <time>2019-05-30T15:29:14Z</time>
      </trkpt>
      <trkpt lat="49.39634" lon="3.98965">
        <ele>107</ele>
        <time>2019-05-30T15:29:15Z</time>
      </trkpt>
      <trkpt lat="49.39638" lon="3.98956">
        <ele>107</ele>
        <time>2019-05-30T15:29:16Z</time>
      </trkpt>
      <trkpt lat="49.39642" lon="3.98947">
        <ele>107</ele>
        <time>2019-05-30T15:29:17Z</time>
      </trkpt>
      <trkpt lat="49.39646" lon="3.98938">
        <ele>107</ele>
        <time>2019-05-30T15:29:18Z</time>
      </trkpt>
      <trkpt lat="49.3965" lon="3.98928">
        <ele>107</ele>
        <time>2019-05-30T15:29:19Z</time>
      </trkpt>
      <trkpt lat="49.39653" lon="3.98918">
        <ele>107</ele>
        <time>2019-05-30T15:29:20Z</time>
      </trkpt>
      <trkpt lat="49.39656" lon="3.98909">
        <ele>107</ele>
        <time>2019-05-30T15:29:21Z</time>
      </trkpt>
      <trkpt lat="49.39658" lon="3.98899">
        <ele>108</ele>
        <time>2019-05-30T15:29:22Z</time>
      </trkpt>
      <trkpt lat="49.39661" lon="3.9889">
        <ele>107</ele>
        <time>2019-05-30T15:29:23Z</time>
      </trkpt>
      <trkpt lat="49.39665" lon="3.98881">
        <ele>107</ele>
        <time>2019-05-30T15:29:24Z</time>
      </trkpt>
      <trkpt lat="49.39668" lon="3.98871">
        <ele>107</ele>
        <time>2019-05-30T15:29:25Z</time>
      </trkpt>
      <trkpt lat="49.39671" lon="3.98862">
        <ele>107</ele>
        <time>2019-05-30T15:29:26Z</time>
      </trkpt>
      <trkpt lat="49.39674" lon="3.98852">
        <ele>107</ele>
        <time>2019-05-30T15:29:27Z</time>
      </trkpt>
      <trkpt lat="49.39677" lon="3.98842">
        <ele>107</ele>
        <time>2019-05-30T15:29:28Z</time>
      </trkpt>
      <trkpt lat="49.3968" lon="3.98833">
        <ele>107</ele>
        <time>2019-05-30T15:29:29Z</time>
      </trkpt>
      <trkpt lat="49.39683" lon="3.98824">
        <ele>107</ele>
        <time>2019-05-30T15:29:30Z</time>
      </trkpt>
      <trkpt lat="49.39687" lon="3.98815">
        <ele>107</ele>
        <time>2019-05-30T15:29:31Z</time>
      </trkpt>
      <trkpt lat="49.3969" lon="3.98807">
        <ele>107</ele>
        <time>2019-05-30T15:29:32Z</time>
      </trkpt>
      <trkpt lat="49.39694" lon="3.98798">
        <ele>107</ele>
        <time>2019-05-30T15:29:33Z</time>
      </trkpt>
      <trkpt lat="49.39698" lon="3.98789">
        <ele>107</ele>
        <time>2019-05-30T15:29:34Z</time>
      </trkpt>
      <trkpt lat="49.39701" lon="3.9878">
        <ele>107</ele>
        <time>2019-05-30T15:29:35Z</time>
      </trkpt>
      <trkpt lat="49.39705" lon="3.98771">
        <ele>107</ele>
        <time>2019-05-30T15:29:36Z</time>
      </trkpt>
      <trkpt lat="49.39708" lon="3.98763">
        <ele>107</ele>
        <time>2019-05-30T15:29:37Z</time>
      </trkpt>
      <trkpt lat="49.39712" lon="3.98754">
        <ele>107</ele>
        <time>2019-05-30T15:29:38Z</time>
      </trkpt>
      <trkpt lat="49.39716" lon="3.98745">
        <ele>107</ele>
        <time>2019-05-30T15:29:39Z</time>
      </trkpt>
      <trkpt lat="49.39719" lon="3.98736">
        <ele>107</ele>
        <time>2019-05-30T15:29:40Z</time>
      </trkpt>
      <trkpt lat="49.39723" lon="3.98727">
        <ele>107</ele>
        <time>2019-05-30T15:29:41Z</time>
      </trkpt>
      <trkpt lat="49.39727" lon="3.98717">
        <ele>108</ele>
        <time>2019-05-30T15:29:42Z</time>
      </trkpt>
      <trkpt lat="49.39731" lon="3.98708">
        <ele>108</ele>
        <time>2019-05-30T15:29:43Z</time>
      </trkpt>
      <trkpt lat="49.39735" lon="3.98699">
        <ele>108</ele>
        <time>2019-05-30T15:29:44Z</time>
      </trkpt>
      <trkpt lat="49.39739" lon="3.9869">
        <ele>108</ele>
        <time>2019-05-30T15:29:45Z</time>
      </trkpt>
      <trkpt lat="49.39742" lon="3.98681">
        <ele>108</ele>
        <time>2019-05-30T15:29:46Z</time>
      </trkpt>
      <trkpt lat="49.39746" lon="3.98672">
        <ele>108</ele>
        <time>2019-05-30T15:29:47Z</time>
      </trkpt>
      <trkpt lat="49.3975" lon="3.98663">
        <ele>108</ele>
        <time>2019-05-30T15:29:48Z</time>
      </trkpt>
      <trkpt lat="49.39753" lon="3.98654">
        <ele>108</ele>
        <time>2019-05-30T15:29:49Z</time>
      </trkpt>
      <trkpt lat="49.39756" lon="3.98646">
        <ele>108</ele>
        <time>2019-05-30T15:29:50Z</time>
      </trkpt>
      <trkpt lat="49.3976" lon="3.98637">
        <ele>108</ele>
        <time>2019-05-30T15:29:51Z</time>
      </trkpt>
      <trkpt lat="49.39764" lon="3.98629">
        <ele>108</ele>
        <time>2019-05-30T15:29:52Z</time>
      </trkpt>
      <trkpt lat="49.39767" lon="3.9862">
        <ele>109</ele>
        <time>2019-05-30T15:29:53Z</time>
      </trkpt>
      <trkpt lat="49.39771" lon="3.98612">
        <ele>109</ele>
        <time>2019-05-30T15:29:54Z</time>
      </trkpt>
      <trkpt lat="49.39774" lon="3.98605">
        <ele>109</ele>
        <time>2019-05-30T15:29:55Z</time>
      </trkpt>
      <trkpt lat="49.39781" lon="3.9859">
        <ele>109</ele>
        <time>2019-05-30T15:29:57Z</time>
      </trkpt>
      <trkpt lat="49.39785" lon="3.98582">
        <ele>109</ele>
        <time>2019-05-30T15:29:58Z</time>
      </trkpt>
      <trkpt lat="49.39789" lon="3.98574">
        <ele>109</ele>
        <time>2019-05-30T15:29:59Z</time>
      </trkpt>
      <trkpt lat="49.39792" lon="3.98566">
        <ele>109</ele>
        <time>2019-05-30T15:30:00Z</time>
      </trkpt>
      <trkpt lat="49.39796" lon="3.98558">
        <ele>109</ele>
        <time>2019-05-30T15:30:01Z</time>
      </trkpt>
      <trkpt lat="49.39799" lon="3.98551">
        <ele>109</ele>
        <time>2019-05-30T15:30:02Z</time>
      </trkpt>
      <trkpt lat="49.39802" lon="3.98543">
        <ele>109</ele>
        <time>2019-05-30T15:30:03Z</time>
      </trkpt>
      <trkpt lat="49.39805" lon="3.98536">
        <ele>109</ele>
        <time>2019-05-30T15:30:04Z</time>
      </trkpt>
      <trkpt lat="49.39809" lon="3.98528">
        <ele>109</ele>
        <time>2019-05-30T15:30:05Z</time>
      </trkpt>
      <trkpt lat="49.39812" lon="3.9852">
        <ele>109</ele>
        <time>2019-05-30T15:30:06Z</time>
      </trkpt>
      <trkpt lat="49.39815" lon="3.98512">
        <ele>109</ele>
        <time>2019-05-30T15:30:07Z</time>
      </trkpt>
      <trkpt lat="49.39819" lon="3.98504">
        <ele>109</ele>
        <time>2019-05-30T15:30:08Z</time>
      </trkpt>
      <trkpt lat="49.39822" lon="3.98497">
        <ele>109</ele>
        <time>2019-05-30T15:30:09Z</time>
      </trkpt>
      <trkpt lat="49.39826" lon="3.98488">
        <ele>109</ele>
        <time>2019-05-30T15:30:10Z</time>
      </trkpt>
      <trkpt lat="49.3983" lon="3.9848">
        <ele>109</ele>
        <time>2019-05-30T15:30:11Z</time>
      </trkpt>
      <trkpt lat="49.39833" lon="3.98472">
        <ele>109</ele>
        <time>2019-05-30T15:30:12Z</time>
      </trkpt>
      <trkpt lat="49.39836" lon="3.98463">
        <ele>109</ele>
        <time>2019-05-30T15:30:13Z</time>
      </trkpt>
      <trkpt lat="49.3984" lon="3.98455">
        <ele>108</ele>
        <time>2019-05-30T15:30:14Z</time>
      </trkpt>
      <trkpt lat="49.39843" lon="3.98447">
        <ele>108</ele>
        <time>2019-05-30T15:30:15Z</time>
      </trkpt>
      <trkpt lat="49.39847" lon="3.98438">
        <ele>108</ele>
        <time>2019-05-30T15:30:16Z</time>
      </trkpt>
      <trkpt lat="49.3985" lon="3.9843">
        <ele>108</ele>
        <time>2019-05-30T15:30:17Z</time>
      </trkpt>
      <trkpt lat="49.39854" lon="3.98422">
        <ele>108</ele>
        <time>2019-05-30T15:30:18Z</time>
      </trkpt>
      <trkpt lat="49.39858" lon="3.98414">
        <ele>108</ele>
        <time>2019-05-30T15:30:19Z</time>
      </trkpt>
      <trkpt lat="49.39861" lon="3.98405">
        <ele>108</ele>
        <time>2019-05-30T15:30:20Z</time>
      </trkpt>
      <trkpt lat="49.39865" lon="3.98397">
        <ele>108</ele>
        <time>2019-05-30T15:30:21Z</time>
      </trkpt>
      <trkpt lat="49.39869" lon="3.98388">
        <ele>108</ele>
        <time>2019-05-30T15:30:22Z</time>
      </trkpt>
      <trkpt lat="49.39873" lon="3.98379">
        <ele>108</ele>
        <time>2019-05-30T15:30:23Z</time>
      </trkpt>
      <trkpt lat="49.39876" lon="3.9837">
        <ele>107</ele>
        <time>2019-05-30T15:30:24Z</time>
      </trkpt>
      <trkpt lat="49.3988" lon="3.98361">
        <ele>107</ele>
        <time>2019-05-30T15:30:25Z</time>
      </trkpt>
      <trkpt lat="49.39883" lon="3.98352">
        <ele>107</ele>
        <time>2019-05-30T15:30:26Z</time>
      </trkpt>
      <trkpt lat="49.39887" lon="3.98343">
        <ele>107</ele>
        <time>2019-05-30T15:30:27Z</time>
      </trkpt>
      <trkpt lat="49.3989" lon="3.98334">
        <ele>106</ele>
        <time>2019-05-30T15:30:28Z</time>
      </trkpt>
      <trkpt lat="49.39894" lon="3.98324">
        <ele>106</ele>
        <time>2019-05-30T15:30:29Z</time>
      </trkpt>
      <trkpt lat="49.39898" lon="3.98315">
        <ele>106</ele>
        <time>2019-05-30T15:30:30Z</time>
      </trkpt>
      <trkpt lat="49.39901" lon="3.98306">
        <ele>106</ele>
        <time>2019-05-30T15:30:31Z</time>
      </trkpt>
      <trkpt lat="49.39905" lon="3.98297">
        <ele>105</ele>
        <time>2019-05-30T15:30:32Z</time>
      </trkpt>
      <trkpt lat="49.39908" lon="3.98288">
        <ele>105</ele>
        <time>2019-05-30T15:30:33Z</time>
      </trkpt>
      <trkpt lat="49.39912" lon="3.98279">
        <ele>105</ele>
        <time>2019-05-30T15:30:34Z</time>
      </trkpt>
      <trkpt lat="49.39915" lon="3.98269">
        <ele>105</ele>
        <time>2019-05-30T15:30:35Z</time>
      </trkpt>
      <trkpt lat="49.39919" lon="3.9826">
        <ele>104</ele>
        <time>2019-05-30T15:30:36Z</time>
      </trkpt>
      <trkpt lat="49.39922" lon="3.9825">
        <ele>104</ele>
        <time>2019-05-30T15:30:37Z</time>
      </trkpt>
      <trkpt lat="49.39926" lon="3.98241">
        <ele>104</ele>
        <time>2019-05-30T15:30:38Z</time>
      </trkpt>
      <trkpt lat="49.39929" lon="3.98231">
        <ele>104</ele>
        <time>2019-05-30T15:30:39Z</time>
      </trkpt>
      <trkpt lat="49.39933" lon="3.98222">
        <ele>104</ele>
        <time>2019-05-30T15:30:40Z</time>
      </trkpt>
      <trkpt lat="49.39937" lon="3.98212">
        <ele>105</ele>
        <time>2019-05-30T15:30:41Z</time>
      </trkpt>
      <trkpt lat="49.3994" lon="3.98202">
        <ele>105</ele>
        <time>2019-05-30T15:30:42Z</time>
      </trkpt>
      <trkpt lat="49.39943" lon="3.98193">
        <ele>105</ele>
        <time>2019-05-30T15:30:43Z</time>
      </trkpt>
      <trkpt lat="49.39947" lon="3.98184">
        <ele>104</ele>
        <time>2019-05-30T15:30:44Z</time>
      </trkpt>
      <trkpt lat="49.39951" lon="3.98175">
        <ele>104</ele>
        <time>2019-05-30T15:30:45Z</time>
      </trkpt>
      <trkpt lat="49.39954" lon="3.98166">
        <ele>105</ele>
        <time>2019-05-30T15:30:46Z</time>
      </trkpt>
      <trkpt lat="49.39957" lon="3.98157">
        <ele>105</ele>
        <time>2019-05-30T15:30:47Z</time>
      </trkpt>
      <trkpt lat="49.39961" lon="3.98148">
        <ele>104</ele>
        <time>2019-05-30T15:30:48Z</time>
      </trkpt>
      <trkpt lat="49.39965" lon="3.98139">
        <ele>104</ele>
        <time>2019-05-30T15:30:49Z</time>
      </trkpt>
      <trkpt lat="49.39968" lon="3.9813">
        <ele>104</ele>
        <time>2019-05-30T15:30:50Z</time>
      </trkpt>
      <trkpt lat="49.39971" lon="3.9812">
        <ele>104</ele>
        <time>2019-05-30T15:30:51Z</time>
      </trkpt>
      <trkpt lat="49.39974" lon="3.98111">
        <ele>104</ele>
        <time>2019-05-30T15:30:52Z</time>
      </trkpt>
      <trkpt lat="49.39978" lon="3.98103">
        <ele>105</ele>
        <time>2019-05-30T15:30:53Z</time>
      </trkpt>
      <trkpt lat="49.39981" lon="3.98094">
        <ele>105</ele>
        <time>2019-05-30T15:30:54Z</time>
      </trkpt>
      <trkpt lat="49.39984" lon="3.98085">
        <ele>105</ele>
        <time>2019-05-30T15:30:55Z</time>
      </trkpt>
      <trkpt lat="49.39987" lon="3.98077">
        <ele>105</ele>
        <time>2019-05-30T15:30:56Z</time>
      </trkpt>
      <trkpt lat="49.3999" lon="3.98068">
        <ele>105</ele>
        <time>2019-05-30T15:30:57Z</time>
      </trkpt>
      <trkpt lat="49.39994" lon="3.98059">
        <ele>104</ele>
        <time>2019-05-30T15:30:58Z</time>
      </trkpt>
      <trkpt lat="49.39997" lon="3.9805">
        <ele>104</ele>
        <time>2019-05-30T15:30:59Z</time>
      </trkpt>
      <trkpt lat="49.39999" lon="3.98041">
        <ele>104</ele>
        <time>2019-05-30T15:31:00Z</time>
      </trkpt>
      <trkpt lat="49.40002" lon="3.98032">
        <ele>104</ele>
        <time>2019-05-30T15:31:01Z</time>
      </trkpt>
      <trkpt lat="49.40006" lon="3.98023">
        <ele>104</ele>
        <time>2019-05-30T15:31:02Z</time>
      </trkpt>
      <trkpt lat="49.40009" lon="3.98014">
        <ele>104</ele>
        <time>2019-05-30T15:31:03Z</time>
      </trkpt>
      <trkpt lat="49.40012" lon="3.98005">
        <ele>104</ele>
        <time>2019-05-30T15:31:04Z</time>
      </trkpt>
      <trkpt lat="49.40016" lon="3.97996">
        <ele>104</ele>
        <time>2019-05-30T15:31:05Z</time>
      </trkpt>
      <trkpt lat="49.4002" lon="3.97988">
        <ele>104</ele>
        <time>2019-05-30T15:31:06Z</time>
      </trkpt>
      <trkpt lat="49.40023" lon="3.97979">
        <ele>103</ele>
        <time>2019-05-30T15:31:07Z</time>
      </trkpt>
      <trkpt lat="49.40027" lon="3.9797">
        <ele>104</ele>
        <time>2019-05-30T15:31:08Z</time>
      </trkpt>
      <trkpt lat="49.40031" lon="3.9796">
        <ele>104</ele>
        <time>2019-05-30T15:31:09Z</time>
      </trkpt>
      <trkpt lat="49.40034" lon="3.97951">
        <ele>103</ele>
        <time>2019-05-30T15:31:10Z</time>
      </trkpt>
      <trkpt lat="49.40038" lon="3.97942">
        <ele>104</ele>
        <time>2019-05-30T15:31:11Z</time>
      </trkpt>
      <trkpt lat="49.40041" lon="3.97933">
        <ele>104</ele>
        <time>2019-05-30T15:31:12Z</time>
      </trkpt>
      <trkpt lat="49.40045" lon="3.97924">
        <ele>104</ele>
        <time>2019-05-30T15:31:13Z</time>
      </trkpt>
      <trkpt lat="49.40048" lon="3.97914">
        <ele>104</ele>
        <time>2019-05-30T15:31:14Z</time>
      </trkpt>
      <trkpt lat="49.40051" lon="3.97905">
        <ele>104</ele>
        <time>2019-05-30T15:31:15Z</time>
      </trkpt>
      <trkpt lat="49.40055" lon="3.97896">
        <ele>104</ele>
        <time>2019-05-30T15:31:16Z</time>
      </trkpt>
      <trkpt lat="49.40059" lon="3.97887">
        <ele>104</ele>
        <time>2019-05-30T15:31:17Z</time>
      </trkpt>
      <trkpt lat="49.40063" lon="3.97878">
        <ele>104</ele>
        <time>2019-05-30T15:31:18Z</time>
      </trkpt>
      <trkpt lat="49.40066" lon="3.97869">
        <ele>104</ele>
        <time>2019-05-30T15:31:19Z</time>
      </trkpt>
      <trkpt lat="49.40069" lon="3.97861">
        <ele>104</ele>
        <time>2019-05-30T15:31:20Z</time>
      </trkpt>
      <trkpt lat="49.40072" lon="3.97852">
        <ele>104</ele>
        <time>2019-05-30T15:31:21Z</time>
      </trkpt>
      <trkpt lat="49.40076" lon="3.97843">
        <ele>103</ele>
        <time>2019-05-30T15:31:22Z</time>
      </trkpt>
      <trkpt lat="49.40079" lon="3.97834">
        <ele>103</ele>
        <time>2019-05-30T15:31:23Z</time>
      </trkpt>
      <trkpt lat="49.40082" lon="3.97826">
        <ele>103</ele>
        <time>2019-05-30T15:31:24Z</time>
      </trkpt>
      <trkpt lat="49.40085" lon="3.97817">
        <ele>103</ele>
        <time>2019-05-30T15:31:25Z</time>
      </trkpt>
      <trkpt lat="49.40088" lon="3.97808">
        <ele>103</ele>
        <time>2019-05-30T15:31:26Z</time>
      </trkpt>
      <trkpt lat="49.4009" lon="3.97799">
        <ele>103</ele>
        <time>2019-05-30T15:31:27Z</time>
      </trkpt>
      <trkpt lat="49.40094" lon="3.9779">
        <ele>103</ele>
        <time>2019-05-30T15:31:28Z</time>
      </trkpt>
      <trkpt lat="49.40097" lon="3.97782">
        <ele>104</ele>
        <time>2019-05-30T15:31:29Z</time>
      </trkpt>
      <trkpt lat="49.40101" lon="3.97774">
        <ele>103</ele>
        <time>2019-05-30T15:31:30Z</time>
      </trkpt>
      <trkpt lat="49.40104" lon="3.97766">
        <ele>103</ele>
        <time>2019-05-30T15:31:31Z</time>
      </trkpt>
      <trkpt lat="49.40107" lon="3.97759">
        <ele>103</ele>
        <time>2019-05-30T15:31:32Z</time>
      </trkpt>
      <trkpt lat="49.4011" lon="3.97751">
        <ele>104</ele>
        <time>2019-05-30T15:31:33Z</time>
      </trkpt>
      <trkpt lat="49.40113" lon="3.97743">
        <ele>103</ele>
        <time>2019-05-30T15:31:34Z</time>
      </trkpt>
      <trkpt lat="49.40116" lon="3.97735">
        <ele>103</ele>
        <time>2019-05-30T15:31:35Z</time>
      </trkpt>
      <trkpt lat="49.40119" lon="3.97727">
        <ele>103</ele>
        <time>2019-05-30T15:31:36Z</time>
      </trkpt>
      <trkpt lat="49.40122" lon="3.97719">
        <ele>103</ele>
        <time>2019-05-30T15:31:37Z</time>
      </trkpt>
      <trkpt lat="49.40125" lon="3.97711">
        <ele>103</ele>
        <time>2019-05-30T15:31:38Z</time>
      </trkpt>
      <trkpt lat="49.40128" lon="3.97704">
        <ele>103</ele>
        <time>2019-05-30T15:31:39Z</time>
      </trkpt>
      <trkpt lat="49.40131" lon="3.97696">
        <ele>103</ele>
        <time>2019-05-30T15:31:40Z</time>
      </trkpt>
      <trkpt lat="49.40134" lon="3.97688">
        <ele>103</ele>
        <time>2019-05-30T15:31:41Z</time>
      </trkpt>
      <trkpt lat="49.40136" lon="3.97681">
        <ele>103</ele>
        <time>2019-05-30T15:31:42Z</time>
      </trkpt>
      <trkpt lat="49.40139" lon="3.97674">
        <ele>103</ele>
        <time>2019-05-30T15:31:43Z</time>
      </trkpt>
      <trkpt lat="49.40142" lon="3.97666">
        <ele>103</ele>
        <time>2019-05-30T15:31:44Z</time>
      </trkpt>
      <trkpt lat="49.40145" lon="3.97658">
        <ele>103</ele>
        <time>2019-05-30T15:31:45Z</time>
      </trkpt>
      <trkpt lat="49.40147" lon="3.97651">
        <ele>103</ele>
        <time>2019-05-30T15:31:46Z</time>
      </trkpt>
      <trkpt lat="49.40149" lon="3.97642">
        <ele>103</ele>
        <time>2019-05-30T15:31:47Z</time>
      </trkpt>
      <trkpt lat="49.4015" lon="3.97633">
        <ele>103</ele>
        <time>2019-05-30T15:31:48Z</time>
      </trkpt>
      <trkpt lat="49.4015" lon="3.97625">
        <ele>102</ele>
        <time>2019-05-30T15:31:49Z</time>
      </trkpt>
      <trkpt lat="49.40149" lon="3.97617">
        <ele>102</ele>
        <time>2019-05-30T15:31:50Z</time>
      </trkpt>
      <trkpt lat="49.40147" lon="3.97609">
        <ele>102</ele>
        <time>2019-05-30T15:31:51Z</time>
      </trkpt>
      <trkpt lat="49.40145" lon="3.976">
        <ele>102</ele>
        <time>2019-05-30T15:31:52Z</time>
      </trkpt>
      <trkpt lat="49.40143" lon="3.97591">
        <ele>102</ele>
        <time>2019-05-30T15:31:53Z</time>
      </trkpt>
      <trkpt lat="49.40143" lon="3.97582">
        <ele>102</ele>
        <time>2019-05-30T15:31:54Z</time>
      </trkpt>
      <trkpt lat="49.40144" lon="3.97573">
        <ele>102</ele>
        <time>2019-05-30T15:31:55Z</time>
      </trkpt>
      <trkpt lat="49.40147" lon="3.97565">
        <ele>102</ele>
        <time>2019-05-30T15:31:56Z</time>
      </trkpt>
      <trkpt lat="49.40151" lon="3.97557">
        <ele>102</ele>
        <time>2019-05-30T15:31:57Z</time>
      </trkpt>
      <trkpt lat="49.40155" lon="3.9755">
        <ele>102</ele>
        <time>2019-05-30T15:31:58Z</time>
      </trkpt>
      <trkpt lat="49.4016" lon="3.97543">
        <ele>102</ele>
        <time>2019-05-30T15:31:59Z</time>
      </trkpt>
      <trkpt lat="49.40165" lon="3.97537">
        <ele>102</ele>
        <time>2019-05-30T15:32:00Z</time>
      </trkpt>
      <trkpt lat="49.40169" lon="3.9753">
        <ele>102</ele>
        <time>2019-05-30T15:32:01Z</time>
      </trkpt>
      <trkpt lat="49.40173" lon="3.97523">
        <ele>102</ele>
        <time>2019-05-30T15:32:02Z</time>
      </trkpt>
      <trkpt lat="49.40177" lon="3.97516">
        <ele>102</ele>
        <time>2019-05-30T15:32:03Z</time>
      </trkpt>
      <trkpt lat="49.40182" lon="3.97508">
        <ele>102</ele>
        <time>2019-05-30T15:32:04Z</time>
      </trkpt>
      <trkpt lat="49.40186" lon="3.97501">
        <ele>102</ele>
        <time>2019-05-30T15:32:05Z</time>
      </trkpt>
      <trkpt lat="49.4019" lon="3.97495">
        <ele>102</ele>
        <time>2019-05-30T15:32:06Z</time>
      </trkpt>
      <trkpt lat="49.40194" lon="3.97488">
        <ele>102</ele>
        <time>2019-05-30T15:32:07Z</time>
      </trkpt>
      <trkpt lat="49.40198" lon="3.97482">
        <ele>103</ele>
        <time>2019-05-30T15:32:08Z</time>
      </trkpt>
      <trkpt lat="49.40203" lon="3.97475">
        <ele>102</ele>
        <time>2019-05-30T15:32:09Z</time>
      </trkpt>
      <trkpt lat="49.40207" lon="3.97468">
        <ele>103</ele>
        <time>2019-05-30T15:32:10Z</time>
      </trkpt>
      <trkpt lat="49.40211" lon="3.97461">
        <ele>103</ele>
        <time>2019-05-30T15:32:11Z</time>
      </trkpt>
      <trkpt lat="49.40214" lon="3.97455">
        <ele>103</ele>
        <time>2019-05-30T15:32:12Z</time>
      </trkpt>
      <trkpt lat="49.40218" lon="3.97449">
        <ele>102</ele>
        <time>2019-05-30T15:32:13Z</time>
      </trkpt>
      <trkpt lat="49.40221" lon="3.97442">
        <ele>103</ele>
        <time>2019-05-30T15:32:14Z</time>
      </trkpt>
      <trkpt lat="49.40224" lon="3.97436">
        <ele>103</ele>
        <time>2019-05-30T15:32:15Z</time>
      </trkpt>
      <trkpt lat="49.40227" lon="3.9743">
        <ele>103</ele>
        <time>2019-05-30T15:32:16Z</time>
      </trkpt>
      <trkpt lat="49.4023" lon="3.97424">
        <ele>103</ele>
        <time>2019-05-30T15:32:17Z</time>
      </trkpt>
      <trkpt lat="49.40233" lon="3.97419">
        <ele>103</ele>
        <time>2019-05-30T15:32:18Z</time>
      </trkpt>
      <trkpt lat="49.40236" lon="3.97414">
        <ele>103</ele>
        <time>2019-05-30T15:32:19Z</time>
      </trkpt>
      <trkpt lat="49.40239" lon="3.97409">
        <ele>103</ele>
        <time>2019-05-30T15:32:20Z</time>
      </trkpt>
      <trkpt lat="49.40243" lon="3.97403">
        <ele>103</ele>
        <time>2019-05-30T15:32:21Z</time>
      </trkpt>
      <trkpt lat="49.40245" lon="3.97398">
        <ele>103</ele>
        <time>2019-05-30T15:32:22Z</time>
      </trkpt>
      <trkpt lat="49.40249" lon="3.97393">
        <ele>102</ele>
        <time>2019-05-30T15:32:23Z</time>
      </trkpt>
      <trkpt lat="49.40252" lon="3.97389">
        <ele>102</ele>
        <time>2019-05-30T15:32:24Z</time>
      </trkpt>
      <trkpt lat="49.40255" lon="3.97383">
        <ele>102</ele>
        <time>2019-05-30T15:32:25Z</time>
      </trkpt>
      <trkpt lat="49.40259" lon="3.97378">
        <ele>102</ele>
        <time>2019-05-30T15:32:26Z</time>
      </trkpt>
      <trkpt lat="49.40262" lon="3.97372">
        <ele>102</ele>
        <time>2019-05-30T15:32:27Z</time>
      </trkpt>
      <trkpt lat="49.40265" lon="3.97367">
        <ele>102</ele>
        <time>2019-05-30T15:32:28Z</time>
      </trkpt>
      <trkpt lat="49.40268" lon="3.97361">
        <ele>102</ele>
        <time>2019-05-30T15:32:29Z</time>
      </trkpt>
      <trkpt lat="49.40272" lon="3.97356">
        <ele>102</ele>
        <time>2019-05-30T15:32:30Z</time>
      </trkpt>
      <trkpt lat="49.40275" lon="3.97351">
        <ele>102</ele>
        <time>2019-05-30T15:32:31Z</time>
      </trkpt>
      <trkpt lat="49.40279" lon="3.97345">
        <ele>102</ele>
        <time>2019-05-30T15:32:32Z</time>
      </trkpt>
      <trkpt lat="49.40282" lon="3.9734">
        <ele>102</ele>
        <time>2019-05-30T15:32:33Z</time>
      </trkpt>
      <trkpt lat="49.40285" lon="3.97335">
        <ele>102</ele>
        <time>2019-05-30T15:32:34Z</time>
      </trkpt>
      <trkpt lat="49.40289" lon="3.9733">
        <ele>102</ele>
        <time>2019-05-30T15:32:35Z</time>
      </trkpt>
      <trkpt lat="49.40293" lon="3.97324">
        <ele>102</ele>
        <time>2019-05-30T15:32:36Z</time>
      </trkpt>
      <trkpt lat="49.40296" lon="3.97318">
        <ele>103</ele>
        <time>2019-05-30T15:32:37Z</time>
      </trkpt>
      <trkpt lat="49.403" lon="3.97313">
        <ele>103</ele>
        <time>2019-05-30T15:32:38Z</time>
      </trkpt>
      <trkpt lat="49.40303" lon="3.97307">
        <ele>103</ele>
        <time>2019-05-30T15:32:39Z</time>
      </trkpt>
      <trkpt lat="49.40307" lon="3.97301">
        <ele>103</ele>
        <time>2019-05-30T15:32:40Z</time>
      </trkpt>
      <trkpt lat="49.4031" lon="3.97295">
        <ele>103</ele>
        <time>2019-05-30T15:32:41Z</time>
      </trkpt>
      <trkpt lat="49.40314" lon="3.97289">
        <ele>103</ele>
        <time>2019-05-30T15:32:42Z</time>
      </trkpt>
      <trkpt lat="49.40318" lon="3.97283">
        <ele>103</ele>
        <time>2019-05-30T15:32:43Z</time>
      </trkpt>
      <trkpt lat="49.40322" lon="3.97277">
        <ele>102</ele>
        <time>2019-05-30T15:32:44Z</time>
      </trkpt>
      <trkpt lat="49.40325" lon="3.9727">
        <ele>102</ele>
        <time>2019-05-30T15:32:45Z</time>
      </trkpt>
      <trkpt lat="49.40329" lon="3.97263">
        <ele>102</ele>
        <time>2019-05-30T15:32:46Z</time>
      </trkpt>
      <trkpt lat="49.40333" lon="3.97257">
        <ele>103</ele>
        <time>2019-05-30T15:32:47Z</time>
      </trkpt>
      <trkpt lat="49.40337" lon="3.97249">
        <ele>103</ele>
        <time>2019-05-30T15:32:48Z</time>
      </trkpt>
      <trkpt lat="49.4034" lon="3.97243">
        <ele>103</ele>
        <time>2019-05-30T15:32:49Z</time>
      </trkpt>
      <trkpt lat="49.40344" lon="3.97236">
        <ele>103</ele>
        <time>2019-05-30T15:32:50Z</time>
      </trkpt>
      <trkpt lat="49.40347" lon="3.9723">
        <ele>103</ele>
        <time>2019-05-30T15:32:51Z</time>
      </trkpt>
      <trkpt lat="49.40351" lon="3.97224">
        <ele>103</ele>
        <time>2019-05-30T15:32:52Z</time>
      </trkpt>
      <trkpt lat="49.40354" lon="3.97217">
        <ele>103</ele>
        <time>2019-05-30T15:32:53Z</time>
      </trkpt>
      <trkpt lat="49.40358" lon="3.9721">
        <ele>103</ele>
        <time>2019-05-30T15:32:54Z</time>
      </trkpt>
      <trkpt lat="49.40361" lon="3.97204">
        <ele>103</ele>
        <time>2019-05-30T15:32:55Z</time>
      </trkpt>
      <trkpt lat="49.40365" lon="3.97198">
        <ele>103</ele>
        <time>2019-05-30T15:32:56Z</time>
      </trkpt>
      <trkpt lat="49.40368" lon="3.97191">
        <ele>103</ele>
        <time>2019-05-30T15:32:57Z</time>
      </trkpt>
      <trkpt lat="49.40372" lon="3.97185">
        <ele>103</ele>
        <time>2019-05-30T15:32:58Z</time>
      </trkpt>
      <trkpt lat="49.40375" lon="3.97178">
        <ele>103</ele>
        <time>2019-05-30T15:32:59Z</time>
      </trkpt>
      <trkpt lat="49.40379" lon="3.97172">
        <ele>103</ele>
        <time>2019-05-30T15:33:00Z</time>
      </trkpt>
      <trkpt lat="49.40383" lon="3.97165">
        <ele>103</ele>
        <time>2019-05-30T15:33:01Z</time>
      </trkpt>
      <trkpt lat="49.40387" lon="3.97159">
        <ele>102</ele>
        <time>2019-05-30T15:33:02Z</time>
      </trkpt>
      <trkpt lat="49.40391" lon="3.97153">
        <ele>103</ele>
        <time>2019-05-30T15:33:03Z</time>
      </trkpt>
      <trkpt lat="49.40394" lon="3.97146">
        <ele>103</ele>
        <time>2019-05-30T15:33:04Z</time>
      </trkpt>
      <trkpt lat="49.40397" lon="3.97139">
        <ele>103</ele>
        <time>2019-05-30T15:33:05Z</time>
      </trkpt>
      <trkpt lat="49.404" lon="3.97131">
        <ele>102</ele>
        <time>2019-05-30T15:33:06Z</time>
      </trkpt>
      <trkpt lat="49.40404" lon="3.97125">
        <ele>103</ele>
        <time>2019-05-30T15:33:07Z</time>
      </trkpt>
      <trkpt lat="49.40408" lon="3.97117">
        <ele>103</ele>
        <time>2019-05-30T15:33:08Z</time>
      </trkpt>
      <trkpt lat="49.40411" lon="3.97111">
        <ele>103</ele>
        <time>2019-05-30T15:33:09Z</time>
      </trkpt>
      <trkpt lat="49.40415" lon="3.97104">
        <ele>103</ele>
        <time>2019-05-30T15:33:10Z</time>
      </trkpt>
      <trkpt lat="49.40418" lon="3.97096">
        <ele>103</ele>
        <time>2019-05-30T15:33:11Z</time>
      </trkpt>
      <trkpt lat="49.40422" lon="3.97089">
        <ele>103</ele>
        <time>2019-05-30T15:33:12Z</time>
      </trkpt>
      <trkpt lat="49.40425" lon="3.97083">
        <ele>102</ele>
        <time>2019-05-30T15:33:13Z</time>
      </trkpt>
      <trkpt lat="49.40429" lon="3.97076">
        <ele>103</ele>
        <time>2019-05-30T15:33:14Z</time>
      </trkpt>
      <trkpt lat="49.40432" lon="3.97069">
        <ele>103</ele>
        <time>2019-05-30T15:33:15Z</time>
      </trkpt>
      <trkpt lat="49.40436" lon="3.97062">
        <ele>103</ele>
        <time>2019-05-30T15:33:16Z</time>
      </trkpt>
      <trkpt lat="49.4044" lon="3.97055">
        <ele>103</ele>
        <time>2019-05-30T15:33:17Z</time>
      </trkpt>
      <trkpt lat="49.40445" lon="3.97046">
        <ele>102</ele>
        <time>2019-05-30T15:33:18Z</time>
      </trkpt>
      <trkpt lat="49.4045" lon="3.97038">
        <ele>103</ele>
        <time>2019-05-30T15:33:19Z</time>
      </trkpt>
      <trkpt lat="49.40454" lon="3.9703">
        <ele>103</ele>
        <time>2019-05-30T15:33:20Z</time>
      </trkpt>
      <trkpt lat="49.40459" lon="3.97022">
        <ele>103</ele>
        <time>2019-05-30T15:33:21Z</time>
      </trkpt>
      <trkpt lat="49.40463" lon="3.97014">
        <ele>103</ele>
        <time>2019-05-30T15:33:22Z</time>
      </trkpt>
      <trkpt lat="49.40468" lon="3.97007">
        <ele>102</ele>
        <time>2019-05-30T15:33:23Z</time>
      </trkpt>
      <trkpt lat="49.40474" lon="3.97">
        <ele>102</ele>
        <time>2019-05-30T15:33:24Z</time>
      </trkpt>
      <trkpt lat="49.40479" lon="3.96992">
        <ele>102</ele>
        <time>2019-05-30T15:33:25Z</time>
      </trkpt>
      <trkpt lat="49.40483" lon="3.96984">
        <ele>103</ele>
        <time>2019-05-30T15:33:26Z</time>
      </trkpt>
      <trkpt lat="49.40488" lon="3.96977">
        <ele>103</ele>
        <time>2019-05-30T15:33:27Z</time>
      </trkpt>
      <trkpt lat="49.40493" lon="3.96971">
        <ele>102</ele>
        <time>2019-05-30T15:33:28Z</time>
      </trkpt>
      <trkpt lat="49.40498" lon="3.96963">
        <ele>102</ele>
        <time>2019-05-30T15:33:29Z</time>
      </trkpt>
      <trkpt lat="49.40503" lon="3.96957">
        <ele>102</ele>
        <time>2019-05-30T15:33:30Z</time>
      </trkpt>
      <trkpt lat="49.40508" lon="3.96949">
        <ele>103</ele>
        <time>2019-05-30T15:33:31Z</time>
      </trkpt>
      <trkpt lat="49.40512" lon="3.96942">
        <ele>102</ele>
        <time>2019-05-30T15:33:32Z</time>
      </trkpt>
      <trkpt lat="49.40517" lon="3.96936">
        <ele>102</ele>
        <time>2019-05-30T15:33:33Z</time>
      </trkpt>
      <trkpt lat="49.40523" lon="3.96929">
        <ele>102</ele>
        <time>2019-05-30T15:33:34Z</time>
      </trkpt>
      <trkpt lat="49.40528" lon="3.96923">
        <ele>102</ele>
        <time>2019-05-30T15:33:35Z</time>
      </trkpt>
      <trkpt lat="49.40533" lon="3.96916">
        <ele>102</ele>
        <time>2019-05-30T15:33:36Z</time>
      </trkpt>
      <trkpt lat="49.40537" lon="3.96909">
        <ele>102</ele>
        <time>2019-05-30T15:33:37Z</time>
      </trkpt>
      <trkpt lat="49.40542" lon="3.96901">
        <ele>102</ele>
        <time>2019-05-30T15:33:38Z</time>
      </trkpt>
      <trkpt lat="49.40546" lon="3.96894">
        <ele>102</ele>
        <time>2019-05-30T15:33:39Z</time>
      </trkpt>
      <trkpt lat="49.40551" lon="3.96887">
        <ele>102</ele>
        <time>2019-05-30T15:33:40Z</time>
      </trkpt>
      <trkpt lat="49.40556" lon="3.96879">
        <ele>101</ele>
        <time>2019-05-30T15:33:41Z</time>
      </trkpt>
      <trkpt lat="49.4056" lon="3.96872">
        <ele>101</ele>
        <time>2019-05-30T15:33:42Z</time>
      </trkpt>
      <trkpt lat="49.40563" lon="3.96864">
        <ele>101</ele>
        <time>2019-05-30T15:33:43Z</time>
      </trkpt>
      <trkpt lat="49.40568" lon="3.96857">
        <ele>102</ele>
        <time>2019-05-30T15:33:44Z</time>
      </trkpt>
      <trkpt lat="49.40572" lon="3.9685">
        <ele>102</ele>
        <time>2019-05-30T15:33:45Z</time>
      </trkpt>
      <trkpt lat="49.40575" lon="3.96843">
        <ele>102</ele>
        <time>2019-05-30T15:33:46Z</time>
      </trkpt>
      <trkpt lat="49.40579" lon="3.96836">
        <ele>102</ele>
        <time>2019-05-30T15:33:47Z</time>
      </trkpt>
      <trkpt lat="49.40582" lon="3.96829">
        <ele>103</ele>
        <time>2019-05-30T15:33:48Z</time>
      </trkpt>
      <trkpt lat="49.40585" lon="3.96822">
        <ele>103</ele>
        <time>2019-05-30T15:33:49Z</time>
      </trkpt>
      <trkpt lat="49.40588" lon="3.96816">
        <ele>103</ele>
        <time>2019-05-30T15:33:50Z</time>
      </trkpt>
      <trkpt lat="49.40591" lon="3.96809">
        <ele>103</ele>
        <time>2019-05-30T15:33:51Z</time>
      </trkpt>
      <trkpt lat="49.40594" lon="3.96804">
        <ele>103</ele>
        <time>2019-05-30T15:33:52Z</time>
      </trkpt>
      <trkpt lat="49.40597" lon="3.96798">
        <ele>104</ele>
        <time>2019-05-30T15:33:53Z</time>
      </trkpt>
      <trkpt lat="49.406" lon="3.96793">
        <ele>103</ele>
        <time>2019-05-30T15:33:54Z</time>
      </trkpt>
      <trkpt lat="49.40603" lon="3.96786">
        <ele>103</ele>
        <time>2019-05-30T15:33:55Z</time>
      </trkpt>
      <trkpt lat="49.40605" lon="3.96779">
        <ele>104</ele>
        <time>2019-05-30T15:33:56Z</time>
      </trkpt>
      <trkpt lat="49.40608" lon="3.96772">
        <ele>103</ele>
        <time>2019-05-30T15:33:57Z</time>
      </trkpt>
      <trkpt lat="49.40611" lon="3.96765">
        <ele>104</ele>
        <time>2019-05-30T15:33:58Z</time>
      </trkpt>
      <trkpt lat="49.40615" lon="3.96758">
        <ele>104</ele>
        <time>2019-05-30T15:33:59Z</time>
      </trkpt>
      <trkpt lat="49.40618" lon="3.96752">
        <ele>104</ele>
        <time>2019-05-30T15:34:00Z</time>
      </trkpt>
      <trkpt lat="49.40622" lon="3.96745">
        <ele>104</ele>
        <time>2019-05-30T15:34:01Z</time>
      </trkpt>
      <trkpt lat="49.40625" lon="3.96738">
        <ele>104</ele>
        <time>2019-05-30T15:34:02Z</time>
      </trkpt>
      <trkpt lat="49.40628" lon="3.9673">
        <ele>103</ele>
        <time>2019-05-30T15:34:03Z</time>
      </trkpt>
      <trkpt lat="49.40632" lon="3.96722">
        <ele>103</ele>
        <time>2019-05-30T15:34:04Z</time>
      </trkpt>
      <trkpt lat="49.40634" lon="3.96715">
        <ele>103</ele>
        <time>2019-05-30T15:34:05Z</time>
      </trkpt>
      <trkpt lat="49.40637" lon="3.96708">
        <ele>103</ele>
        <time>2019-05-30T15:34:06Z</time>
      </trkpt>
      <trkpt lat="49.40639" lon="3.96701">
        <ele>103</ele>
        <time>2019-05-30T15:34:07Z</time>
      </trkpt>
      <trkpt lat="49.40641" lon="3.96694">
        <ele>103</ele>
        <time>2019-05-30T15:34:08Z</time>
      </trkpt>
      <trkpt lat="49.40643" lon="3.96687">
        <ele>103</ele>
        <time>2019-05-30T15:34:09Z</time>
      </trkpt>
      <trkpt lat="49.40645" lon="3.96681">
        <ele>103</ele>
        <time>2019-05-30T15:34:10Z</time>
      </trkpt>
      <trkpt lat="49.40647" lon="3.96673">
        <ele>103</ele>
        <time>2019-05-30T15:34:11Z</time>
      </trkpt>
      <trkpt lat="49.40648" lon="3.96665">
        <ele>103</ele>
        <time>2019-05-30T15:34:12Z</time>
      </trkpt>
      <trkpt lat="49.40648" lon="3.96657">
        <ele>103</ele>
        <time>2019-05-30T15:34:13Z</time>
      </trkpt>
      <trkpt lat="49.40648" lon="3.96649">
        <ele>102</ele>
        <time>2019-05-30T15:34:14Z</time>
      </trkpt>
      <trkpt lat="49.40648" lon="3.9664">
        <ele>102</ele>
        <time>2019-05-30T15:34:15Z</time>
      </trkpt>
      <trkpt lat="49.40648" lon="3.96633">
        <ele>102</ele>
        <time>2019-05-30T15:34:16Z</time>
      </trkpt>
      <trkpt lat="49.40647" lon="3.96625">
        <ele>102</ele>
        <time>2019-05-30T15:34:17Z</time>
      </trkpt>
      <trkpt lat="49.40647" lon="3.96618">
        <ele>102</ele>
        <time>2019-05-30T15:34:18Z</time>
      </trkpt>
      <trkpt lat="49.40646" lon="3.9661">
        <ele>102</ele>
        <time>2019-05-30T15:34:19Z</time>
      </trkpt>
      <trkpt lat="49.40646" lon="3.96602">
        <ele>102</ele>
        <time>2019-05-30T15:34:20Z</time>
      </trkpt>
      <trkpt lat="49.40645" lon="3.96595">
        <ele>103</ele>
        <time>2019-05-30T15:34:21Z</time>
      </trkpt>
      <trkpt lat="49.40645" lon="3.96588">
        <ele>103</ele>
        <time>2019-05-30T15:34:22Z</time>
      </trkpt>
      <trkpt lat="49.40645" lon="3.9658">
        <ele>103</ele>
        <time>2019-05-30T15:34:23Z</time>
      </trkpt>
      <trkpt lat="49.40646" lon="3.96572">
        <ele>103</ele>
        <time>2019-05-30T15:34:24Z</time>
      </trkpt>
      <trkpt lat="49.40647" lon="3.96565">
        <ele>103</ele>
        <time>2019-05-30T15:34:25Z</time>
      </trkpt>
      <trkpt lat="49.40649" lon="3.96558">
        <ele>104</ele>
        <time>2019-05-30T15:34:26Z</time>
      </trkpt>
      <trkpt lat="49.40651" lon="3.96552">
        <ele>104</ele>
        <time>2019-05-30T15:34:27Z</time>
      </trkpt>
      <trkpt lat="49.40653" lon="3.96546">
        <ele>104</ele>
        <time>2019-05-30T15:34:28Z</time>
      </trkpt>
      <trkpt lat="49.40655" lon="3.96539">
        <ele>105</ele>
        <time>2019-05-30T15:34:29Z</time>
      </trkpt>
      <trkpt lat="49.40658" lon="3.96533">
        <ele>105</ele>
        <time>2019-05-30T15:34:30Z</time>
      </trkpt>
      <trkpt lat="49.40661" lon="3.96526">
        <ele>104</ele>
        <time>2019-05-30T15:34:31Z</time>
      </trkpt>
      <trkpt lat="49.40664" lon="3.96521">
        <ele>105</ele>
        <time>2019-05-30T15:34:32Z</time>
      </trkpt>
      <trkpt lat="49.40667" lon="3.96515">
        <ele>105</ele>
        <time>2019-05-30T15:34:33Z</time>
      </trkpt>
      <trkpt lat="49.4067" lon="3.96509">
        <ele>105</ele>
        <time>2019-05-30T15:34:34Z</time>
      </trkpt>
      <trkpt lat="49.40674" lon="3.96504">
        <ele>105</ele>
        <time>2019-05-30T15:34:35Z</time>
      </trkpt>
      <trkpt lat="49.40678" lon="3.96499">
        <ele>105</ele>
        <time>2019-05-30T15:34:36Z</time>
      </trkpt>
      <trkpt lat="49.40681" lon="3.96494">
        <ele>105</ele>
        <time>2019-05-30T15:34:37Z</time>
      </trkpt>
      <trkpt lat="49.40685" lon="3.96487">
        <ele>106</ele>
        <time>2019-05-30T15:34:38Z</time>
      </trkpt>
      <trkpt lat="49.40688" lon="3.96482">
        <ele>106</ele>
        <time>2019-05-30T15:34:39Z</time>
      </trkpt>
      <trkpt lat="49.40692" lon="3.96477">
        <ele>106</ele>
        <time>2019-05-30T15:34:40Z</time>
      </trkpt>
      <trkpt lat="49.40696" lon="3.96472">
        <ele>105</ele>
        <time>2019-05-30T15:34:41Z</time>
      </trkpt>
      <trkpt lat="49.407" lon="3.96468">
        <ele>105</ele>
        <time>2019-05-30T15:34:42Z</time>
      </trkpt>
      <trkpt lat="49.40704" lon="3.96463">
        <ele>105</ele>
        <time>2019-05-30T15:34:43Z</time>
      </trkpt>
      <trkpt lat="49.40708" lon="3.96458">
        <ele>106</ele>
        <time>2019-05-30T15:34:44Z</time>
      </trkpt>
      <trkpt lat="49.40711" lon="3.96453">
        <ele>105</ele>
        <time>2019-05-30T15:34:45Z</time>
      </trkpt>
      <trkpt lat="49.40715" lon="3.96448">
        <ele>105</ele>
        <time>2019-05-30T15:34:46Z</time>
      </trkpt>
      <trkpt lat="49.40719" lon="3.96442">
        <ele>105</ele>
        <time>2019-05-30T15:34:47Z</time>
      </trkpt>
      <trkpt lat="49.40723" lon="3.96437">
        <ele>105</ele>
        <time>2019-05-30T15:34:48Z</time>
      </trkpt>
      <trkpt lat="49.40727" lon="3.96432">
        <ele>105</ele>
        <time>2019-05-30T15:34:49Z</time>
      </trkpt>
      <trkpt lat="49.4073" lon="3.96427">
        <ele>105</ele>
        <time>2019-05-30T15:34:50Z</time>
      </trkpt>
      <trkpt lat="49.40734" lon="3.96423">
        <ele>105</ele>
        <time>2019-05-30T15:34:51Z</time>
      </trkpt>
      <trkpt lat="49.40738" lon="3.96418">
        <ele>105</ele>
        <time>2019-05-30T15:34:52Z</time>
      </trkpt>
      <trkpt lat="49.40742" lon="3.96413">
        <ele>105</ele>
        <time>2019-05-30T15:34:53Z</time>
      </trkpt>
      <trkpt lat="49.40746" lon="3.96409">
        <ele>105</ele>
        <time>2019-05-30T15:34:54Z</time>
      </trkpt>
      <trkpt lat="49.4075" lon="3.96403">
        <ele>105</ele>
        <time>2019-05-30T15:34:55Z</time>
      </trkpt>
      <trkpt lat="49.40754" lon="3.96398">
        <ele>106</ele>
        <time>2019-05-30T15:34:56Z</time>
      </trkpt>
      <trkpt lat="49.40757" lon="3.96393">
        <ele>106</ele>
        <time>2019-05-30T15:34:57Z</time>
      </trkpt>
      <trkpt lat="49.40761" lon="3.96388">
        <ele>106</ele>
        <time>2019-05-30T15:34:58Z</time>
      </trkpt>
      <trkpt lat="49.40765" lon="3.96384">
        <ele>106</ele>
        <time>2019-05-30T15:34:59Z</time>
      </trkpt>
      <trkpt lat="49.40769" lon="3.9638">
        <ele>106</ele>
        <time>2019-05-30T15:35:00Z</time>
      </trkpt>
      <trkpt lat="49.40773" lon="3.96375">
        <ele>106</ele>
        <time>2019-05-30T15:35:01Z</time>
      </trkpt>
      <trkpt lat="49.40777" lon="3.96371">
        <ele>106</ele>
        <time>2019-05-30T15:35:02Z</time>
      </trkpt>
      <trkpt lat="49.4078" lon="3.96366">
        <ele>106</ele>
        <time>2019-05-30T15:35:03Z</time>
      </trkpt>
      <trkpt lat="49.40784" lon="3.96362">
        <ele>105</ele>
        <time>2019-05-30T15:35:04Z</time>
      </trkpt>
      <trkpt lat="49.40788" lon="3.96358">
        <ele>105</ele>
        <time>2019-05-30T15:35:05Z</time>
      </trkpt>
      <trkpt lat="49.40792" lon="3.96353">
        <ele>105</ele>
        <time>2019-05-30T15:35:06Z</time>
      </trkpt>
      <trkpt lat="49.40796" lon="3.96348">
        <ele>105</ele>
        <time>2019-05-30T15:35:07Z</time>
      </trkpt>
      <trkpt lat="49.40799" lon="3.96343">
        <ele>105</ele>
        <time>2019-05-30T15:35:08Z</time>
      </trkpt>
      <trkpt lat="49.40803" lon="3.96338">
        <ele>105</ele>
        <time>2019-05-30T15:35:09Z</time>
      </trkpt>
      <trkpt lat="49.40807" lon="3.96333">
        <ele>105</ele>
        <time>2019-05-30T15:35:10Z</time>
      </trkpt>
      <trkpt lat="49.40811" lon="3.96328">
        <ele>105</ele>
        <time>2019-05-30T15:35:11Z</time>
      </trkpt>
      <trkpt lat="49.40815" lon="3.96323">
        <ele>105</ele>
        <time>2019-05-30T15:35:12Z</time>
      </trkpt>
      <trkpt lat="49.40819" lon="3.96318">
        <ele>105</ele>
        <time>2019-05-30T15:35:13Z</time>
      </trkpt>
      <trkpt lat="49.40823" lon="3.96313">
        <ele>105</ele>
        <time>2019-05-30T15:35:14Z</time>
      </trkpt>
      <trkpt lat="49.40826" lon="3.96308">
        <ele>104</ele>
        <time>2019-05-30T15:35:15Z</time>
      </trkpt>
      <trkpt lat="49.4083" lon="3.96303">
        <ele>105</ele>
        <time>2019-05-30T15:35:16Z</time>
      </trkpt>
      <trkpt lat="49.40834" lon="3.96298">
        <ele>104</ele>
        <time>2019-05-30T15:35:17Z</time>
      </trkpt>
      <trkpt lat="49.40837" lon="3.96293">
        <ele>104</ele>
        <time>2019-05-30T15:35:18Z</time>
      </trkpt>
      <trkpt lat="49.40841" lon="3.96288">
        <ele>104</ele>
        <time>2019-05-30T15:35:19Z</time>
      </trkpt>
      <trkpt lat="49.40845" lon="3.96282">
        <ele>104</ele>
        <time>2019-05-30T15:35:20Z</time>
      </trkpt>
      <trkpt lat="49.40849" lon="3.96277">
        <ele>104</ele>
        <time>2019-05-30T15:35:21Z</time>
      </trkpt>
      <trkpt lat="49.40853" lon="3.96271">
        <ele>104</ele>
        <time>2019-05-30T15:35:22Z</time>
      </trkpt>
      <trkpt lat="49.40857" lon="3.96266">
        <ele>104</ele>
        <time>2019-05-30T15:35:23Z</time>
      </trkpt>
      <trkpt lat="49.40861" lon="3.96261">
        <ele>104</ele>
        <time>2019-05-30T15:35:24Z</time>
      </trkpt>
      <trkpt lat="49.40865" lon="3.96256">
        <ele>104</ele>
        <time>2019-05-30T15:35:25Z</time>
      </trkpt>
      <trkpt lat="49.4087" lon="3.96251">
        <ele>104</ele>
        <time>2019-05-30T15:35:26Z</time>
      </trkpt>
      <trkpt lat="49.40874" lon="3.96246">
        <ele>105</ele>
        <time>2019-05-30T15:35:27Z</time>
      </trkpt>
      <trkpt lat="49.40878" lon="3.9624">
        <ele>105</ele>
        <time>2019-05-30T15:35:28Z</time>
      </trkpt>
      <trkpt lat="49.40882" lon="3.96235">
        <ele>105</ele>
        <time>2019-05-30T15:35:29Z</time>
      </trkpt>
      <trkpt lat="49.40886" lon="3.96229">
        <ele>105</ele>
        <time>2019-05-30T15:35:30Z</time>
      </trkpt>
      <trkpt lat="49.40891" lon="3.96224">
        <ele>105</ele>
        <time>2019-05-30T15:35:31Z</time>
      </trkpt>
      <trkpt lat="49.40895" lon="3.96219">
        <ele>105</ele>
        <time>2019-05-30T15:35:32Z</time>
      </trkpt>
      <trkpt lat="49.409" lon="3.96214">
        <ele>105</ele>
        <time>2019-05-30T15:35:33Z</time>
      </trkpt>
      <trkpt lat="49.40904" lon="3.96208">
        <ele>105</ele>
        <time>2019-05-30T15:35:34Z</time>
      </trkpt>
      <trkpt lat="49.40908" lon="3.96203">
        <ele>105</ele>
        <time>2019-05-30T15:35:35Z</time>
      </trkpt>
      <trkpt lat="49.40912" lon="3.96198">
        <ele>105</ele>
        <time>2019-05-30T15:35:36Z</time>
      </trkpt>
      <trkpt lat="49.40917" lon="3.96192">
        <ele>105</ele>
        <time>2019-05-30T15:35:37Z</time>
      </trkpt>
      <trkpt lat="49.40922" lon="3.96186">
        <ele>105</ele>
        <time>2019-05-30T15:35:38Z</time>
      </trkpt>
      <trkpt lat="49.40927" lon="3.9618">
        <ele>105</ele>
        <time>2019-05-30T15:35:39Z</time>
      </trkpt>
      <trkpt lat="49.40931" lon="3.96173">
        <ele>105</ele>
        <time>2019-05-30T15:35:40Z</time>
      </trkpt>
      <trkpt lat="49.40936" lon="3.96167">
        <ele>105</ele>
        <time>2019-05-30T15:35:41Z</time>
      </trkpt>
      <trkpt lat="49.40941" lon="3.9616">
        <ele>105</ele>
        <time>2019-05-30T15:35:42Z</time>
      </trkpt>
      <trkpt lat="49.40946" lon="3.96153">
        <ele>105</ele>
        <time>2019-05-30T15:35:43Z</time>
      </trkpt>
      <trkpt lat="49.40951" lon="3.96147">
        <ele>105</ele>
        <time>2019-05-30T15:35:44Z</time>
      </trkpt>
      <trkpt lat="49.40956" lon="3.96141">
        <ele>104</ele>
        <time>2019-05-30T15:35:45Z</time>
      </trkpt>
      <trkpt lat="49.40961" lon="3.96134">
        <ele>104</ele>
        <time>2019-05-30T15:35:46Z</time>
      </trkpt>
      <trkpt lat="49.40966" lon="3.96128">
        <ele>104</ele>
        <time>2019-05-30T15:35:47Z</time>
      </trkpt>
      <trkpt lat="49.40972" lon="3.96121">
        <ele>104</ele>
        <time>2019-05-30T15:35:48Z</time>
      </trkpt>
      <trkpt lat="49.40977" lon="3.96115">
        <ele>104</ele>
        <time>2019-05-30T15:35:49Z</time>
      </trkpt>
      <trkpt lat="49.40982" lon="3.96108">
        <ele>104</ele>
        <time>2019-05-30T15:35:50Z</time>
      </trkpt>
      <trkpt lat="49.40987" lon="3.96102">
        <ele>104</ele>
        <time>2019-05-30T15:35:51Z</time>
      </trkpt>
      <trkpt lat="49.40992" lon="3.96095">
        <ele>104</ele>
        <time>2019-05-30T15:35:52Z</time>
      </trkpt>
      <trkpt lat="49.40998" lon="3.96089">
        <ele>104</ele>
        <time>2019-05-30T15:35:53Z</time>
      </trkpt>
      <trkpt lat="49.41003" lon="3.96082">
        <ele>103</ele>
        <time>2019-05-30T15:35:54Z</time>
      </trkpt>
      <trkpt lat="49.41008" lon="3.96075">
        <ele>103</ele>
        <time>2019-05-30T15:35:55Z</time>
      </trkpt>
      <trkpt lat="49.41013" lon="3.96069">
        <ele>103</ele>
        <time>2019-05-30T15:35:56Z</time>
      </trkpt>
      <trkpt lat="49.41019" lon="3.96062">
        <ele>103</ele>
        <time>2019-05-30T15:35:57Z</time>
      </trkpt>
      <trkpt lat="49.41024" lon="3.96055">
        <ele>103</ele>
        <time>2019-05-30T15:35:58Z</time>
      </trkpt>
      <trkpt lat="49.4103" lon="3.96048">
        <ele>103</ele>
        <time>2019-05-30T15:35:59Z</time>
      </trkpt>
      <trkpt lat="49.41035" lon="3.96041">
        <ele>103</ele>
        <time>2019-05-30T15:36:00Z</time>
      </trkpt>
      <trkpt lat="49.41041" lon="3.96034">
        <ele>103</ele>
        <time>2019-05-30T15:36:01Z</time>
      </trkpt>
      <trkpt lat="49.41046" lon="3.96027">
        <ele>103</ele>
        <time>2019-05-30T15:36:02Z</time>
      </trkpt>
      <trkpt lat="49.41051" lon="3.9602">
        <ele>103</ele>
        <time>2019-05-30T15:36:03Z</time>
      </trkpt>
      <trkpt lat="49.41057" lon="3.96013">
        <ele>103</ele>
        <time>2019-05-30T15:36:04Z</time>
      </trkpt>
      <trkpt lat="49.41062" lon="3.96006">
        <ele>102</ele>
        <time>2019-05-30T15:36:05Z</time>
      </trkpt>
      <trkpt lat="49.41068" lon="3.95999">
        <ele>102</ele>
        <time>2019-05-30T15:36:06Z</time>
      </trkpt>
      <trkpt lat="49.41073" lon="3.95992">
        <ele>102</ele>
        <time>2019-05-30T15:36:07Z</time>
      </trkpt>
      <trkpt lat="49.41079" lon="3.95986">
        <ele>102</ele>
        <time>2019-05-30T15:36:08Z</time>
      </trkpt>
      <trkpt lat="49.41084" lon="3.95979">
        <ele>102</ele>
        <time>2019-05-30T15:36:09Z</time>
      </trkpt>
      <trkpt lat="49.4109" lon="3.95972">
        <ele>102</ele>
        <time>2019-05-30T15:36:10Z</time>
      </trkpt>
      <trkpt lat="49.41095" lon="3.95965">
        <ele>102</ele>
        <time>2019-05-30T15:36:11Z</time>
      </trkpt>
      <trkpt lat="49.411" lon="3.95958">
        <ele>102</ele>
        <time>2019-05-30T15:36:12Z</time>
      </trkpt>
      <trkpt lat="49.41105" lon="3.95951">
        <ele>102</ele>
        <time>2019-05-30T15:36:13Z</time>
      </trkpt>
      <trkpt lat="49.41111" lon="3.95945">
        <ele>102</ele>
        <time>2019-05-30T15:36:14Z</time>
      </trkpt>
      <trkpt lat="49.41116" lon="3.95938">
        <ele>102</ele>
        <time>2019-05-30T15:36:15Z</time>
      </trkpt>
      <trkpt lat="49.41121" lon="3.95931">
        <ele>102</ele>
        <time>2019-05-30T15:36:16Z</time>
      </trkpt>
      <trkpt lat="49.41127" lon="3.95924">
        <ele>102</ele>
        <time>2019-05-30T15:36:17Z</time>
      </trkpt>
      <trkpt lat="49.41132" lon="3.95917">
        <ele>102</ele>
        <time>2019-05-30T15:36:18Z</time>
      </trkpt>
      <trkpt lat="49.41137" lon="3.9591">
        <ele>102</ele>
        <time>2019-05-30T15:36:19Z</time>
      </trkpt>
      <trkpt lat="49.41148" lon="3.95897">
        <ele>102</ele>
        <time>2019-05-30T15:36:21Z</time>
      </trkpt>
      <trkpt lat="49.41153" lon="3.9589">
        <ele>102</ele>
        <time>2019-05-30T15:36:22Z</time>
      </trkpt>
      <trkpt lat="49.41158" lon="3.95883">
        <ele>102</ele>
        <time>2019-05-30T15:36:23Z</time>
      </trkpt>
      <trkpt lat="49.41163" lon="3.95877">
        <ele>102</ele>
        <time>2019-05-30T15:36:24Z</time>
      </trkpt>
      <trkpt lat="49.41168" lon="3.95871">
        <ele>101</ele>
        <time>2019-05-30T15:36:25Z</time>
      </trkpt>
      <trkpt lat="49.41173" lon="3.95865">
        <ele>101</ele>
        <time>2019-05-30T15:36:26Z</time>
      </trkpt>
      <trkpt lat="49.41178" lon="3.95859">
        <ele>101</ele>
        <time>2019-05-30T15:36:27Z</time>
      </trkpt>
      <trkpt lat="49.41182" lon="3.95853">
        <ele>101</ele>
        <time>2019-05-30T15:36:28Z</time>
      </trkpt>
      <trkpt lat="49.41187" lon="3.95847">
        <ele>101</ele>
        <time>2019-05-30T15:36:29Z</time>
      </trkpt>
      <trkpt lat="49.41192" lon="3.95839">
        <ele>101</ele>
        <time>2019-05-30T15:36:30Z</time>
      </trkpt>
      <trkpt lat="49.41197" lon="3.95832">
        <ele>101</ele>
        <time>2019-05-30T15:36:31Z</time>
      </trkpt>
      <trkpt lat="49.41202" lon="3.95824">
        <ele>101</ele>
        <time>2019-05-30T15:36:32Z</time>
      </trkpt>
      <trkpt lat="49.41207" lon="3.95816">
        <ele>101</ele>
        <time>2019-05-30T15:36:33Z</time>
      </trkpt>
      <trkpt lat="49.41212" lon="3.95808">
        <ele>101</ele>
        <time>2019-05-30T15:36:34Z</time>
      </trkpt>
      <trkpt lat="49.41216" lon="3.95801">
        <ele>101</ele>
        <time>2019-05-30T15:36:35Z</time>
      </trkpt>
      <trkpt lat="49.41221" lon="3.95793">
        <ele>101</ele>
        <time>2019-05-30T15:36:36Z</time>
      </trkpt>
      <trkpt lat="49.41226" lon="3.95786">
        <ele>101</ele>
        <time>2019-05-30T15:36:37Z</time>
      </trkpt>
      <trkpt lat="49.4123" lon="3.95778">
        <ele>101</ele>
        <time>2019-05-30T15:36:38Z</time>
      </trkpt>
      <trkpt lat="49.41234" lon="3.95771">
        <ele>101</ele>
        <time>2019-05-30T15:36:39Z</time>
      </trkpt>
      <trkpt lat="49.41239" lon="3.95764">
        <ele>101</ele>
        <time>2019-05-30T15:36:40Z</time>
      </trkpt>
      <trkpt lat="49.41243" lon="3.95757">
        <ele>101</ele>
        <time>2019-05-30T15:36:41Z</time>
      </trkpt>
      <trkpt lat="49.41248" lon="3.9575">
        <ele>101</ele>
        <time>2019-05-30T15:36:42Z</time>
      </trkpt>
      <trkpt lat="49.41252" lon="3.95743">
        <ele>101</ele>
        <time>2019-05-30T15:36:43Z</time>
      </trkpt>
      <trkpt lat="49.41257" lon="3.95736">
        <ele>101</ele>
        <time>2019-05-30T15:36:44Z</time>
      </trkpt>
      <trkpt lat="49.41261" lon="3.95728">
        <ele>101</ele>
        <time>2019-05-30T15:36:45Z</time>
      </trkpt>
      <trkpt lat="49.41266" lon="3.9572">
        <ele>101</ele>
        <time>2019-05-30T15:36:46Z</time>
      </trkpt>
      <trkpt lat="49.41271" lon="3.95713">
        <ele>101</ele>
        <time>2019-05-30T15:36:47Z</time>
      </trkpt>
      <trkpt lat="49.41275" lon="3.95705">
        <ele>101</ele>
        <time>2019-05-30T15:36:48Z</time>
      </trkpt>
      <trkpt lat="49.4128" lon="3.95697">
        <ele>101</ele>
        <time>2019-05-30T15:36:49Z</time>
      </trkpt>
      <trkpt lat="49.41284" lon="3.95689">
        <ele>101</ele>
        <time>2019-05-30T15:36:50Z</time>
      </trkpt>
      <trkpt lat="49.41288" lon="3.95683">
        <ele>101</ele>
        <time>2019-05-30T15:36:51Z</time>
      </trkpt>
      <trkpt lat="49.41293" lon="3.95676">
        <ele>101</ele>
        <time>2019-05-30T15:36:52Z</time>
      </trkpt>
      <trkpt lat="49.41297" lon="3.95669">
        <ele>101</ele>
        <time>2019-05-30T15:36:53Z</time>
      </trkpt>
      <trkpt lat="49.41301" lon="3.95662">
        <ele>101</ele>
        <time>2019-05-30T15:36:54Z</time>
      </trkpt>
      <trkpt lat="49.41305" lon="3.95656">
        <ele>101</ele>
        <time>2019-05-30T15:36:55Z</time>
      </trkpt>
      <trkpt lat="49.41309" lon="3.95649">
        <ele>101</ele>
        <time>2019-05-30T15:36:56Z</time>
      </trkpt>
      <trkpt lat="49.41314" lon="3.95642">
        <ele>101</ele>
        <time>2019-05-30T15:36:57Z</time>
      </trkpt>
      <trkpt lat="49.41318" lon="3.95635">
        <ele>101</ele>
        <time>2019-05-30T15:36:58Z</time>
      </trkpt>
      <trkpt lat="49.41322" lon="3.95629">
        <ele>101</ele>
        <time>2019-05-30T15:36:59Z</time>
      </trkpt>
      <trkpt lat="49.41326" lon="3.95622">
        <ele>101</ele>
        <time>2019-05-30T15:37:00Z</time>
      </trkpt>
      <trkpt lat="49.41331" lon="3.95615">
        <ele>101</ele>
        <time>2019-05-30T15:37:01Z</time>
      </trkpt>
      <trkpt lat="49.41335" lon="3.95607">
        <ele>101</ele>
        <time>2019-05-30T15:37:02Z</time>
      </trkpt>
      <trkpt lat="49.4134" lon="3.956">
        <ele>101</ele>
        <time>2019-05-30T15:37:03Z</time>
      </trkpt>
      <trkpt lat="49.41344" lon="3.95593">
        <ele>101</ele>
        <time>2019-05-30T15:37:04Z</time>
      </trkpt>
      <trkpt lat="49.41349" lon="3.95585">
        <ele>101</ele>
        <time>2019-05-30T15:37:05Z</time>
      </trkpt>
      <trkpt lat="49.41353" lon="3.95577">
        <ele>101</ele>
        <time>2019-05-30T15:37:06Z</time>
      </trkpt>
      <trkpt lat="49.41357" lon="3.95569">
        <ele>101</ele>
        <time>2019-05-30T15:37:07Z</time>
      </trkpt>
      <trkpt lat="49.41362" lon="3.95562">
        <ele>101</ele>
        <time>2019-05-30T15:37:08Z</time>
      </trkpt>
      <trkpt lat="49.41367" lon="3.95554">
        <ele>101</ele>
        <time>2019-05-30T15:37:09Z</time>
      </trkpt>
      <trkpt lat="49.41372" lon="3.95547">
        <ele>101</ele>
        <time>2019-05-30T15:37:10Z</time>
      </trkpt>
      <trkpt lat="49.41377" lon="3.9554">
        <ele>101</ele>
        <time>2019-05-30T15:37:11Z</time>
      </trkpt>
      <trkpt lat="49.41382" lon="3.95533">
        <ele>101</ele>
        <time>2019-05-30T15:37:12Z</time>
      </trkpt>
      <trkpt lat="49.41387" lon="3.95525">
        <ele>101</ele>
        <time>2019-05-30T15:37:13Z</time>
      </trkpt>
      <trkpt lat="49.41392" lon="3.95519">
        <ele>101</ele>
        <time>2019-05-30T15:37:14Z</time>
      </trkpt>
      <trkpt lat="49.41398" lon="3.95513">
        <ele>101</ele>
        <time>2019-05-30T15:37:15Z</time>
      </trkpt>
      <trkpt lat="49.41404" lon="3.95507">
        <ele>102</ele>
        <time>2019-05-30T15:37:16Z</time>
      </trkpt>
      <trkpt lat="49.4141" lon="3.95501">
        <ele>101</ele>
        <time>2019-05-30T15:37:17Z</time>
      </trkpt>
      <trkpt lat="49.41416" lon="3.95496">
        <ele>102</ele>
        <time>2019-05-30T15:37:18Z</time>
      </trkpt>
      <trkpt lat="49.41422" lon="3.95491">
        <ele>101</ele>
        <time>2019-05-30T15:37:19Z</time>
      </trkpt>
      <trkpt lat="49.41428" lon="3.95486">
        <ele>101</ele>
        <time>2019-05-30T15:37:20Z</time>
      </trkpt>
      <trkpt lat="49.41435" lon="3.95481">
        <ele>101</ele>
        <time>2019-05-30T15:37:21Z</time>
      </trkpt>
      <trkpt lat="49.41441" lon="3.95475">
        <ele>102</ele>
        <time>2019-05-30T15:37:22Z</time>
      </trkpt>
      <trkpt lat="49.41448" lon="3.9547">
        <ele>101</ele>
        <time>2019-05-30T15:37:23Z</time>
      </trkpt>
      <trkpt lat="49.41454" lon="3.95465">
        <ele>102</ele>
        <time>2019-05-30T15:37:24Z</time>
      </trkpt>
      <trkpt lat="49.4146" lon="3.9546">
        <ele>101</ele>
        <time>2019-05-30T15:37:25Z</time>
      </trkpt>
      <trkpt lat="49.41467" lon="3.95455">
        <ele>101</ele>
        <time>2019-05-30T15:37:26Z</time>
      </trkpt>
      <trkpt lat="49.41473" lon="3.9545">
        <ele>101</ele>
        <time>2019-05-30T15:37:27Z</time>
      </trkpt>
      <trkpt lat="49.41479" lon="3.95444">
        <ele>102</ele>
        <time>2019-05-30T15:37:28Z</time>
      </trkpt>
      <trkpt lat="49.41485" lon="3.95439">
        <ele>101</ele>
        <time>2019-05-30T15:37:29Z</time>
      </trkpt>
      <trkpt lat="49.41491" lon="3.95434">
        <ele>101</ele>
        <time>2019-05-30T15:37:30Z</time>
      </trkpt>
      <trkpt lat="49.41498" lon="3.95429">
        <ele>101</ele>
        <time>2019-05-30T15:37:31Z</time>
      </trkpt>
      <trkpt lat="49.41503" lon="3.95423">
        <ele>101</ele>
        <time>2019-05-30T15:37:32Z</time>
      </trkpt>
      <trkpt lat="49.4151" lon="3.95418">
        <ele>101</ele>
        <time>2019-05-30T15:37:33Z</time>
      </trkpt>
      <trkpt lat="49.41516" lon="3.95413">
        <ele>101</ele>
        <time>2019-05-30T15:37:34Z</time>
      </trkpt>
      <trkpt lat="49.41522" lon="3.95408">
        <ele>101</ele>
        <time>2019-05-30T15:37:35Z</time>
      </trkpt>
      <trkpt lat="49.41528" lon="3.95403">
        <ele>101</ele>
        <time>2019-05-30T15:37:36Z</time>
      </trkpt>
      <trkpt lat="49.41534" lon="3.95398">
        <ele>101</ele>
        <time>2019-05-30T15:37:37Z</time>
      </trkpt>
      <trkpt lat="49.4154" lon="3.95393">
        <ele>101</ele>
        <time>2019-05-30T15:37:38Z</time>
      </trkpt>
      <trkpt lat="49.41546" lon="3.95387">
        <ele>101</ele>
        <time>2019-05-30T15:37:39Z</time>
      </trkpt>
      <trkpt lat="49.41552" lon="3.95382">
        <ele>101</ele>
        <time>2019-05-30T15:37:40Z</time>
      </trkpt>
      <trkpt lat="49.41558" lon="3.95376">
        <ele>101</ele>
        <time>2019-05-30T15:37:41Z</time>
      </trkpt>
      <trkpt lat="49.41564" lon="3.95371">
        <ele>101</ele>
        <time>2019-05-30T15:37:42Z</time>
      </trkpt>
      <trkpt lat="49.4157" lon="3.95366">
        <ele>101</ele>
        <time>2019-05-30T15:37:43Z</time>
      </trkpt>
      <trkpt lat="49.41576" lon="3.95361">
        <ele>101</ele>
        <time>2019-05-30T15:37:44Z</time>
      </trkpt>
      <trkpt lat="49.41582" lon="3.95357">
        <ele>101</ele>
        <time>2019-05-30T15:37:45Z</time>
      </trkpt>
      <trkpt lat="49.41588" lon="3.95352">
        <ele>101</ele>
        <time>2019-05-30T15:37:46Z</time>
      </trkpt>
      <trkpt lat="49.41595" lon="3.95346">
        <ele>101</ele>
        <time>2019-05-30T15:37:47Z</time>
      </trkpt>
      <trkpt lat="49.41601" lon="3.95341">
        <ele>101</ele>
        <time>2019-05-30T15:37:48Z</time>
      </trkpt>
      <trkpt lat="49.41608" lon="3.95336">
        <ele>101</ele>
        <time>2019-05-30T15:37:49Z</time>
      </trkpt>
      <trkpt lat="49.41614" lon="3.95331">
        <ele>101</ele>
        <time>2019-05-30T15:37:50Z</time>
      </trkpt>
      <trkpt lat="49.4162" lon="3.95327">
        <ele>101</ele>
        <time>2019-05-30T15:37:51Z</time>
      </trkpt>
      <trkpt lat="49.41627" lon="3.95322">
        <ele>101</ele>
        <time>2019-05-30T15:37:52Z</time>
      </trkpt>
      <trkpt lat="49.41633" lon="3.95317">
        <ele>101</ele>
        <time>2019-05-30T15:37:53Z</time>
      </trkpt>
      <trkpt lat="49.4164" lon="3.95313">
        <ele>101</ele>
        <time>2019-05-30T15:37:54Z</time>
      </trkpt>
      <trkpt lat="49.41647" lon="3.9531">
        <ele>101</ele>
        <time>2019-05-30T15:37:55Z</time>
      </trkpt>
      <trkpt lat="49.41654" lon="3.95307">
        <ele>101</ele>
        <time>2019-05-30T15:37:56Z</time>
      </trkpt>
      <trkpt lat="49.41661" lon="3.95305">
        <ele>101</ele>
        <time>2019-05-30T15:37:57Z</time>
      </trkpt>
      <trkpt lat="49.41669" lon="3.95304">
        <ele>101</ele>
        <time>2019-05-30T15:37:58Z</time>
      </trkpt>
      <trkpt lat="49.41676" lon="3.953">
        <ele>101</ele>
        <time>2019-05-30T15:37:59Z</time>
      </trkpt>
      <trkpt lat="49.41683" lon="3.95298">
        <ele>101</ele>
        <time>2019-05-30T15:38:00Z</time>
      </trkpt>
      <trkpt lat="49.4169" lon="3.95294">
        <ele>101</ele>
        <time>2019-05-30T15:38:01Z</time>
      </trkpt>
      <trkpt lat="49.41698" lon="3.9529">
        <ele>101</ele>
        <time>2019-05-30T15:38:02Z</time>
      </trkpt>
      <trkpt lat="49.41705" lon="3.95286">
        <ele>101</ele>
        <time>2019-05-30T15:38:03Z</time>
      </trkpt>
      <trkpt lat="49.41713" lon="3.95283">
        <ele>101</ele>
        <time>2019-05-30T15:38:04Z</time>
      </trkpt>
      <trkpt lat="49.4172" lon="3.9528">
        <ele>101</ele>
        <time>2019-05-30T15:38:05Z</time>
      </trkpt>
      <trkpt lat="49.41727" lon="3.95276">
        <ele>101</ele>
        <time>2019-05-30T15:38:06Z</time>
      </trkpt>
      <trkpt lat="49.41733" lon="3.95272">
        <ele>101</ele>
        <time>2019-05-30T15:38:07Z</time>
      </trkpt>
      <trkpt lat="49.4174" lon="3.95267">
        <ele>102</ele>
        <time>2019-05-30T15:38:08Z</time>
      </trkpt>
      <trkpt lat="49.41747" lon="3.95263">
        <ele>102</ele>
        <time>2019-05-30T15:38:09Z</time>
      </trkpt>
      <trkpt lat="49.41755" lon="3.95259">
        <ele>101</ele>
        <time>2019-05-30T15:38:10Z</time>
      </trkpt>
      <trkpt lat="49.41762" lon="3.95257">
        <ele>101</ele>
        <time>2019-05-30T15:38:11Z</time>
      </trkpt>
      <trkpt lat="49.41769" lon="3.95253">
        <ele>102</ele>
        <time>2019-05-30T15:38:12Z</time>
      </trkpt>
      <trkpt lat="49.41776" lon="3.9525">
        <ele>102</ele>
        <time>2019-05-30T15:38:13Z</time>
      </trkpt>
      <trkpt lat="49.41783" lon="3.95247">
        <ele>102</ele>
        <time>2019-05-30T15:38:14Z</time>
      </trkpt>
      <trkpt lat="49.41791" lon="3.95244">
        <ele>102</ele>
        <time>2019-05-30T15:38:15Z</time>
      </trkpt>
      <trkpt lat="49.41798" lon="3.95241">
        <ele>102</ele>
        <time>2019-05-30T15:38:16Z</time>
      </trkpt>
      <trkpt lat="49.41805" lon="3.95237">
        <ele>102</ele>
        <time>2019-05-30T15:38:17Z</time>
      </trkpt>
      <trkpt lat="49.41813" lon="3.95233">
        <ele>102</ele>
        <time>2019-05-30T15:38:18Z</time>
      </trkpt>
      <trkpt lat="49.4182" lon="3.95231">
        <ele>102</ele>
        <time>2019-05-30T15:38:19Z</time>
      </trkpt>
      <trkpt lat="49.41827" lon="3.95227">
        <ele>102</ele>
        <time>2019-05-30T15:38:20Z</time>
      </trkpt>
      <trkpt lat="49.41834" lon="3.95223">
        <ele>102</ele>
        <time>2019-05-30T15:38:21Z</time>
      </trkpt>
      <trkpt lat="49.41841" lon="3.9522">
        <ele>102</ele>
        <time>2019-05-30T15:38:22Z</time>
      </trkpt>
      <trkpt lat="49.41848" lon="3.95218">
        <ele>102</ele>
        <time>2019-05-30T15:38:23Z</time>
      </trkpt>
      <trkpt lat="49.41855" lon="3.95213">
        <ele>102</ele>
        <time>2019-05-30T15:38:24Z</time>
      </trkpt>
      <trkpt lat="49.41862" lon="3.95207">
        <ele>102</ele>
        <time>2019-05-30T15:38:25Z</time>
      </trkpt>
      <trkpt lat="49.41869" lon="3.95202">
        <ele>102</ele>
        <time>2019-05-30T15:38:26Z</time>
      </trkpt>
      <trkpt lat="49.41876" lon="3.95196">
        <ele>102</ele>
        <time>2019-05-30T15:38:27Z</time>
      </trkpt>
      <trkpt lat="49.41883" lon="3.95191">
        <ele>102</ele>
        <time>2019-05-30T15:38:28Z</time>
      </trkpt>
      <trkpt lat="49.4189" lon="3.95186">
        <ele>102</ele>
        <time>2019-05-30T15:38:29Z</time>
      </trkpt>
      <trkpt lat="49.41896" lon="3.9518">
        <ele>103</ele>
        <time>2019-05-30T15:38:30Z</time>
      </trkpt>
      <trkpt lat="49.41903" lon="3.95175">
        <ele>103</ele>
        <time>2019-05-30T15:38:31Z</time>
      </trkpt>
      <trkpt lat="49.41909" lon="3.9517">
        <ele>103</ele>
        <time>2019-05-30T15:38:32Z</time>
      </trkpt>
      <trkpt lat="49.41915" lon="3.95165">
        <ele>103</ele>
        <time>2019-05-30T15:38:33Z</time>
      </trkpt>
      <trkpt lat="49.41922" lon="3.9516">
        <ele>103</ele>
        <time>2019-05-30T15:38:34Z</time>
      </trkpt>
      <trkpt lat="49.41928" lon="3.95156">
        <ele>104</ele>
        <time>2019-05-30T15:38:35Z</time>
      </trkpt>
      <trkpt lat="49.41935" lon="3.95151">
        <ele>104</ele>
        <time>2019-05-30T15:38:36Z</time>
      </trkpt>
      <trkpt lat="49.41941" lon="3.95147">
        <ele>104</ele>
        <time>2019-05-30T15:38:37Z</time>
      </trkpt>
      <trkpt lat="49.41947" lon="3.95143">
        <ele>104</ele>
        <time>2019-05-30T15:38:38Z</time>
      </trkpt>
      <trkpt lat="49.41953" lon="3.95138">
        <ele>104</ele>
        <time>2019-05-30T15:38:39Z</time>
      </trkpt>
      <trkpt lat="49.41959" lon="3.95133">
        <ele>104</ele>
        <time>2019-05-30T15:38:40Z</time>
      </trkpt>
      <trkpt lat="49.41964" lon="3.95129">
        <ele>104</ele>
        <time>2019-05-30T15:38:41Z</time>
      </trkpt>
      <trkpt lat="49.4197" lon="3.95128">
        <ele>104</ele>
        <time>2019-05-30T15:38:42Z</time>
      </trkpt>
      <trkpt lat="49.41974" lon="3.9513">
        <ele>104</ele>
        <time>2019-05-30T15:38:43Z</time>
      </trkpt>
      <trkpt lat="49.41978" lon="3.95137">
        <ele>104</ele>
        <time>2019-05-30T15:38:44Z</time>
      </trkpt>
      <trkpt lat="49.41979" lon="3.95143">
        <ele>104</ele>
        <time>2019-05-30T15:38:45Z</time>
      </trkpt>
      <trkpt lat="49.4198" lon="3.95151">
        <ele>104</ele>
        <time>2019-05-30T15:38:46Z</time>
      </trkpt>
      <trkpt lat="49.41982" lon="3.95158">
        <ele>104</ele>
        <time>2019-05-30T15:38:47Z</time>
      </trkpt>
      <trkpt lat="49.41984" lon="3.95165">
        <ele>104</ele>
        <time>2019-05-30T15:38:48Z</time>
      </trkpt>
      <trkpt lat="49.41986" lon="3.95172">
        <ele>104</ele>
        <time>2019-05-30T15:38:49Z</time>
      </trkpt>
      <trkpt lat="49.41988" lon="3.95179">
        <ele>103</ele>
        <time>2019-05-30T15:38:50Z</time>
      </trkpt>
      <trkpt lat="49.4199" lon="3.95187">
        <ele>103</ele>
        <time>2019-05-30T15:38:51Z</time>
      </trkpt>
      <trkpt lat="49.41992" lon="3.95195">
        <ele>103</ele>
        <time>2019-05-30T15:38:52Z</time>
      </trkpt>
      <trkpt lat="49.41994" lon="3.95204">
        <ele>103</ele>
        <time>2019-05-30T15:38:53Z</time>
      </trkpt>
      <trkpt lat="49.41997" lon="3.95212">
        <ele>103</ele>
        <time>2019-05-30T15:38:54Z</time>
      </trkpt>
      <trkpt lat="49.41999" lon="3.9522">
        <ele>103</ele>
        <time>2019-05-30T15:38:55Z</time>
      </trkpt>
      <trkpt lat="49.42002" lon="3.95229">
        <ele>103</ele>
        <time>2019-05-30T15:38:56Z</time>
      </trkpt>
      <trkpt lat="49.42004" lon="3.95237">
        <ele>102</ele>
        <time>2019-05-30T15:38:57Z</time>
      </trkpt>
      <trkpt lat="49.42007" lon="3.95246">
        <ele>102</ele>
        <time>2019-05-30T15:38:58Z</time>
      </trkpt>
      <trkpt lat="49.4201" lon="3.95256">
        <ele>102</ele>
        <time>2019-05-30T15:38:59Z</time>
      </trkpt>
      <trkpt lat="49.42012" lon="3.95266">
        <ele>102</ele>
        <time>2019-05-30T15:39:00Z</time>
      </trkpt>
      <trkpt lat="49.42016" lon="3.95276">
        <ele>101</ele>
        <time>2019-05-30T15:39:01Z</time>
      </trkpt>
      <trkpt lat="49.42019" lon="3.95286">
        <ele>101</ele>
        <time>2019-05-30T15:39:02Z</time>
      </trkpt>
      <trkpt lat="49.42022" lon="3.95297">
        <ele>102</ele>
        <time>2019-05-30T15:39:03Z</time>
      </trkpt>
      <trkpt lat="49.42025" lon="3.95307">
        <ele>102</ele>
        <time>2019-05-30T15:39:04Z</time>
      </trkpt>
      <trkpt lat="49.42028" lon="3.95318">
        <ele>102</ele>
        <time>2019-05-30T15:39:05Z</time>
      </trkpt>
      <trkpt lat="49.42031" lon="3.95328">
        <ele>102</ele>
        <time>2019-05-30T15:39:06Z</time>
      </trkpt>
      <trkpt lat="49.42034" lon="3.95338">
        <ele>101</ele>
        <time>2019-05-30T15:39:07Z</time>
      </trkpt>
      <trkpt lat="49.42037" lon="3.95349">
        <ele>101</ele>
        <time>2019-05-30T15:39:08Z</time>
      </trkpt>
      <trkpt lat="49.4204" lon="3.95359">
        <ele>101</ele>
        <time>2019-05-30T15:39:09Z</time>
      </trkpt>
      <trkpt lat="49.42043" lon="3.95369">
        <ele>101</ele>
        <time>2019-05-30T15:39:10Z</time>
      </trkpt>
      <trkpt lat="49.42045" lon="3.95379">
        <ele>101</ele>
        <time>2019-05-30T15:39:11Z</time>
      </trkpt>
      <trkpt lat="49.42048" lon="3.95388">
        <ele>101</ele>
        <time>2019-05-30T15:39:12Z</time>
      </trkpt>
      <trkpt lat="49.42051" lon="3.95397">
        <ele>101</ele>
        <time>2019-05-30T15:39:13Z</time>
      </trkpt>
      <trkpt lat="49.42054" lon="3.95407">
        <ele>101</ele>
        <time>2019-05-30T15:39:14Z</time>
      </trkpt>
      <trkpt lat="49.42057" lon="3.95416">
        <ele>101</ele>
        <time>2019-05-30T15:39:15Z</time>
      </trkpt>
      <trkpt lat="49.42061" lon="3.95424">
        <ele>101</ele>
        <time>2019-05-30T15:39:16Z</time>
      </trkpt>
      <trkpt lat="49.42065" lon="3.95432">
        <ele>101</ele>
        <time>2019-05-30T15:39:17Z</time>
      </trkpt>
      <trkpt lat="49.42069" lon="3.95439">
        <ele>101</ele>
        <time>2019-05-30T15:39:18Z</time>
      </trkpt>
      <trkpt lat="49.42073" lon="3.95445">
        <ele>101</ele>
        <time>2019-05-30T15:39:19Z</time>
      </trkpt>
      <trkpt lat="49.42078" lon="3.95451">
        <ele>101</ele>
        <time>2019-05-30T15:39:20Z</time>
      </trkpt>
      <trkpt lat="49.42082" lon="3.95457">
        <ele>101</ele>
        <time>2019-05-30T15:39:21Z</time>
      </trkpt>
      <trkpt lat="49.42086" lon="3.95462">
        <ele>101</ele>
        <time>2019-05-30T15:39:22Z</time>
      </trkpt>
      <trkpt lat="49.42091" lon="3.95467">
        <ele>102</ele>
        <time>2019-05-30T15:39:23Z</time>
      </trkpt>
      <trkpt lat="49.42096" lon="3.95471">
        <ele>102</ele>
        <time>2019-05-30T15:39:24Z</time>
      </trkpt>
      <trkpt lat="49.42102" lon="3.95474">
        <ele>102</ele>
        <time>2019-05-30T15:39:25Z</time>
      </trkpt>
      <trkpt lat="49.42108" lon="3.95478">
        <ele>102</ele>
        <time>2019-05-30T15:39:26Z</time>
      </trkpt>
      <trkpt lat="49.42114" lon="3.9548">
        <ele>102</ele>
        <time>2019-05-30T15:39:27Z</time>
      </trkpt>
      <trkpt lat="49.42121" lon="3.95484">
        <ele>101</ele>
        <time>2019-05-30T15:39:28Z</time>
      </trkpt>
      <trkpt lat="49.42128" lon="3.95488">
        <ele>101</ele>
        <time>2019-05-30T15:39:29Z</time>
      </trkpt>
      <trkpt lat="49.42135" lon="3.95492">
        <ele>101</ele>
        <time>2019-05-30T15:39:30Z</time>
      </trkpt>
      <trkpt lat="49.42142" lon="3.95496">
        <ele>101</ele>
        <time>2019-05-30T15:39:31Z</time>
      </trkpt>
      <trkpt lat="49.42148" lon="3.95499">
        <ele>101</ele>
        <time>2019-05-30T15:39:32Z</time>
      </trkpt>
      <trkpt lat="49.42155" lon="3.95504">
        <ele>101</ele>
        <time>2019-05-30T15:39:33Z</time>
      </trkpt>
      <trkpt lat="49.42161" lon="3.95508">
        <ele>101</ele>
        <time>2019-05-30T15:39:34Z</time>
      </trkpt>
      <trkpt lat="49.42167" lon="3.95514">
        <ele>102</ele>
        <time>2019-05-30T15:39:35Z</time>
      </trkpt>
      <trkpt lat="49.42173" lon="3.95519">
        <ele>101</ele>
        <time>2019-05-30T15:39:36Z</time>
      </trkpt>
      <trkpt lat="49.42179" lon="3.95525">
        <ele>101</ele>
        <time>2019-05-30T15:39:37Z</time>
      </trkpt>
      <trkpt lat="49.42185" lon="3.9553">
        <ele>101</ele>
        <time>2019-05-30T15:39:38Z</time>
      </trkpt>
      <trkpt lat="49.42191" lon="3.95536">
        <ele>101</ele>
        <time>2019-05-30T15:39:39Z</time>
      </trkpt>
      <trkpt lat="49.42197" lon="3.95542">
        <ele>101</ele>
        <time>2019-05-30T15:39:40Z</time>
      </trkpt>
      <trkpt lat="49.42202" lon="3.95548">
        <ele>101</ele>
        <time>2019-05-30T15:39:41Z</time>
      </trkpt>
      <trkpt lat="49.42208" lon="3.95554">
        <ele>101</ele>
        <time>2019-05-30T15:39:42Z</time>
      </trkpt>
      <trkpt lat="49.42214" lon="3.95559">
        <ele>101</ele>
        <time>2019-05-30T15:39:43Z</time>
      </trkpt>
      <trkpt lat="49.4222" lon="3.95565">
        <ele>101</ele>
        <time>2019-05-30T15:39:44Z</time>
      </trkpt>
      <trkpt lat="49.42226" lon="3.95571">
        <ele>102</ele>
        <time>2019-05-30T15:39:45Z</time>
      </trkpt>
      <trkpt lat="49.42232" lon="3.95576">
        <ele>101</ele>
        <time>2019-05-30T15:39:46Z</time>
      </trkpt>
      <trkpt lat="49.42238" lon="3.95581">
        <ele>101</ele>
        <time>2019-05-30T15:39:47Z</time>
      </trkpt>
      <trkpt lat="49.42243" lon="3.95587">
        <ele>102</ele>
        <time>2019-05-30T15:39:48Z</time>
      </trkpt>
      <trkpt lat="49.42249" lon="3.95593">
        <ele>101</ele>
        <time>2019-05-30T15:39:49Z</time>
      </trkpt>
      <trkpt lat="49.42255" lon="3.95599">
        <ele>101</ele>
        <time>2019-05-30T15:39:50Z</time>
      </trkpt>
      <trkpt lat="49.42261" lon="3.95604">
        <ele>101</ele>
        <time>2019-05-30T15:39:51Z</time>
      </trkpt>
      <trkpt lat="49.42267" lon="3.9561">
        <ele>101</ele>
        <time>2019-05-30T15:39:52Z</time>
      </trkpt>
      <trkpt lat="49.42273" lon="3.95615">
        <ele>101</ele>
        <time>2019-05-30T15:39:53Z</time>
      </trkpt>
      <trkpt lat="49.42278" lon="3.95621">
        <ele>101</ele>
        <time>2019-05-30T15:39:54Z</time>
      </trkpt>
      <trkpt lat="49.42284" lon="3.95626">
        <ele>101</ele>
        <time>2019-05-30T15:39:55Z</time>
      </trkpt>
      <trkpt lat="49.4229" lon="3.95632">
        <ele>101</ele>
        <time>2019-05-30T15:39:56Z</time>
      </trkpt>
      <trkpt lat="49.42296" lon="3.95637">
        <ele>101</ele>
        <time>2019-05-30T15:39:57Z</time>
      </trkpt>
      <trkpt lat="49.42302" lon="3.95643">
        <ele>101</ele>
        <time>2019-05-30T15:39:58Z</time>
      </trkpt>
      <trkpt lat="49.42308" lon="3.95649">
        <ele>101</ele>
        <time>2019-05-30T15:39:59Z</time>
      </trkpt>
      <trkpt lat="49.42314" lon="3.95655">
        <ele>101</ele>
        <time>2019-05-30T15:40:00Z</time>
      </trkpt>
      <trkpt lat="49.4232" lon="3.95661">
        <ele>101</ele>
        <time>2019-05-30T15:40:01Z</time>
      </trkpt>
      <trkpt lat="49.42326" lon="3.95667">
        <ele>101</ele>
        <time>2019-05-30T15:40:02Z</time>
      </trkpt>
      <trkpt lat="49.42332" lon="3.95673">
        <ele>101</ele>
        <time>2019-05-30T15:40:03Z</time>
      </trkpt>
      <trkpt lat="49.42338" lon="3.95679">
        <ele>101</ele>
        <time>2019-05-30T15:40:04Z</time>
      </trkpt>
      <trkpt lat="49.42344" lon="3.95685">
        <ele>101</ele>
        <time>2019-05-30T15:40:05Z</time>
      </trkpt>
      <trkpt lat="49.4235" lon="3.95692">
        <ele>101</ele>
        <time>2019-05-30T15:40:06Z</time>
      </trkpt>
      <trkpt lat="49.42356" lon="3.95698">
        <ele>101</ele>
        <time>2019-05-30T15:40:07Z</time>
      </trkpt>
      <trkpt lat="49.42362" lon="3.95705">
        <ele>102</ele>
        <time>2019-05-30T15:40:08Z</time>
      </trkpt>
      <trkpt lat="49.42368" lon="3.95711">
        <ele>102</ele>
        <time>2019-05-30T15:40:09Z</time>
      </trkpt>
      <trkpt lat="49.42374" lon="3.95717">
        <ele>102</ele>
        <time>2019-05-30T15:40:10Z</time>
      </trkpt>
      <trkpt lat="49.4238" lon="3.95723">
        <ele>102</ele>
        <time>2019-05-30T15:40:11Z</time>
      </trkpt>
      <trkpt lat="49.42385" lon="3.95729">
        <ele>102</ele>
        <time>2019-05-30T15:40:12Z</time>
      </trkpt>
      <trkpt lat="49.42391" lon="3.95735">
        <ele>102</ele>
        <time>2019-05-30T15:40:13Z</time>
      </trkpt>
      <trkpt lat="49.42397" lon="3.95741">
        <ele>102</ele>
        <time>2019-05-30T15:40:14Z</time>
      </trkpt>
      <trkpt lat="49.42403" lon="3.95746">
        <ele>101</ele>
        <time>2019-05-30T15:40:15Z</time>
      </trkpt>
      <trkpt lat="49.42409" lon="3.95751">
        <ele>101</ele>
        <time>2019-05-30T15:40:16Z</time>
      </trkpt>
      <trkpt lat="49.42414" lon="3.95757">
        <ele>102</ele>
        <time>2019-05-30T15:40:17Z</time>
      </trkpt>
      <trkpt lat="49.4242" lon="3.95763">
        <ele>101</ele>
        <time>2019-05-30T15:40:18Z</time>
      </trkpt>
      <trkpt lat="49.42426" lon="3.95769">
        <ele>101</ele>
        <time>2019-05-30T15:40:19Z</time>
      </trkpt>
      <trkpt lat="49.42432" lon="3.95775">
        <ele>101</ele>
        <time>2019-05-30T15:40:20Z</time>
      </trkpt>
      <trkpt lat="49.42438" lon="3.95781">
        <ele>101</ele>
        <time>2019-05-30T15:40:21Z</time>
      </trkpt>
      <trkpt lat="49.42444" lon="3.95787">
        <ele>101</ele>
        <time>2019-05-30T15:40:22Z</time>
      </trkpt>
      <trkpt lat="49.4245" lon="3.95794">
        <ele>101</ele>
        <time>2019-05-30T15:40:23Z</time>
      </trkpt>
      <trkpt lat="49.42456" lon="3.958">
        <ele>101</ele>
        <time>2019-05-30T15:40:24Z</time>
      </trkpt>
      <trkpt lat="49.42461" lon="3.95806">
        <ele>101</ele>
        <time>2019-05-30T15:40:25Z</time>
      </trkpt>
      <trkpt lat="49.42468" lon="3.95812">
        <ele>101</ele>
        <time>2019-05-30T15:40:26Z</time>
      </trkpt>
      <trkpt lat="49.42474" lon="3.95818">
        <ele>101</ele>
        <time>2019-05-30T15:40:27Z</time>
      </trkpt>
      <trkpt lat="49.4248" lon="3.95824">
        <ele>101</ele>
        <time>2019-05-30T15:40:28Z</time>
      </trkpt>
      <trkpt lat="49.42486" lon="3.9583">
        <ele>101</ele>
        <time>2019-05-30T15:40:29Z</time>
      </trkpt>
      <trkpt lat="49.42493" lon="3.95835">
        <ele>101</ele>
        <time>2019-05-30T15:40:30Z</time>
      </trkpt>
      <trkpt lat="49.42499" lon="3.95841">
        <ele>101</ele>
        <time>2019-05-30T15:40:31Z</time>
      </trkpt>
      <trkpt lat="49.42505" lon="3.95847">
        <ele>101</ele>
        <time>2019-05-30T15:40:32Z</time>
      </trkpt>
      <trkpt lat="49.42511" lon="3.95853">
        <ele>102</ele>
        <time>2019-05-30T15:40:33Z</time>
      </trkpt>
      <trkpt lat="49.42517" lon="3.95859">
        <ele>102</ele>
        <time>2019-05-30T15:40:34Z</time>
      </trkpt>
      <trkpt lat="49.42524" lon="3.95865">
        <ele>102</ele>
        <time>2019-05-30T15:40:35Z</time>
      </trkpt>
      <trkpt lat="49.42531" lon="3.9587">
        <ele>102</ele>
        <time>2019-05-30T15:40:36Z</time>
      </trkpt>
      <trkpt lat="49.42538" lon="3.95875">
        <ele>102</ele>
        <time>2019-05-30T15:40:37Z</time>
      </trkpt>
      <trkpt lat="49.42544" lon="3.9588">
        <ele>102</ele>
        <time>2019-05-30T15:40:38Z</time>
      </trkpt>
      <trkpt lat="49.42551" lon="3.95884">
        <ele>102</ele>
        <time>2019-05-30T15:40:39Z</time>
      </trkpt>
      <trkpt lat="49.42557" lon="3.95889">
        <ele>103</ele>
        <time>2019-05-30T15:40:40Z</time>
      </trkpt>
      <trkpt lat="49.42563" lon="3.95895">
        <ele>102</ele>
        <time>2019-05-30T15:40:41Z</time>
      </trkpt>
      <trkpt lat="49.42569" lon="3.95901">
        <ele>102</ele>
        <time>2019-05-30T15:40:42Z</time>
      </trkpt>
      <trkpt lat="49.42574" lon="3.95908">
        <ele>103</ele>
        <time>2019-05-30T15:40:43Z</time>
      </trkpt>
      <trkpt lat="49.42579" lon="3.95914">
        <ele>103</ele>
        <time>2019-05-30T15:40:44Z</time>
      </trkpt>
      <trkpt lat="49.42584" lon="3.9592">
        <ele>103</ele>
        <time>2019-05-30T15:40:45Z</time>
      </trkpt>
      <trkpt lat="49.42589" lon="3.95926">
        <ele>103</ele>
        <time>2019-05-30T15:40:46Z</time>
      </trkpt>
      <trkpt lat="49.42595" lon="3.95932">
        <ele>104</ele>
        <time>2019-05-30T15:40:47Z</time>
      </trkpt>
      <trkpt lat="49.426" lon="3.95937">
        <ele>104</ele>
        <time>2019-05-30T15:40:48Z</time>
      </trkpt>
      <trkpt lat="49.42605" lon="3.95943">
        <ele>105</ele>
        <time>2019-05-30T15:40:49Z</time>
      </trkpt>
      <trkpt lat="49.4261" lon="3.95948">
        <ele>105</ele>
        <time>2019-05-30T15:40:50Z</time>
      </trkpt>
      <trkpt lat="49.42615" lon="3.95954">
        <ele>106</ele>
        <time>2019-05-30T15:40:51Z</time>
      </trkpt>
      <trkpt lat="49.42621" lon="3.95959">
        <ele>106</ele>
        <time>2019-05-30T15:40:52Z</time>
      </trkpt>
      <trkpt lat="49.42627" lon="3.95964">
        <ele>106</ele>
        <time>2019-05-30T15:40:53Z</time>
      </trkpt>
      <trkpt lat="49.42633" lon="3.95969">
        <ele>106</ele>
        <time>2019-05-30T15:40:54Z</time>
      </trkpt>
      <trkpt lat="49.42638" lon="3.95974">
        <ele>106</ele>
        <time>2019-05-30T15:40:55Z</time>
      </trkpt>
      <trkpt lat="49.42644" lon="3.95978">
        <ele>106</ele>
        <time>2019-05-30T15:40:56Z</time>
      </trkpt>
      <trkpt lat="49.42648" lon="3.95984">
        <ele>106</ele>
        <time>2019-05-30T15:40:57Z</time>
      </trkpt>
      <trkpt lat="49.42653" lon="3.95989">
        <ele>106</ele>
        <time>2019-05-30T15:40:58Z</time>
      </trkpt>
      <trkpt lat="49.42659" lon="3.95994">
        <ele>106</ele>
        <time>2019-05-30T15:40:59Z</time>
      </trkpt>
      <trkpt lat="49.42665" lon="3.96">
        <ele>106</ele>
        <time>2019-05-30T15:41:00Z</time>
      </trkpt>
      <trkpt lat="49.42671" lon="3.96005">
        <ele>106</ele>
        <time>2019-05-30T15:41:01Z</time>
      </trkpt>
      <trkpt lat="49.42677" lon="3.96011">
        <ele>107</ele>
        <time>2019-05-30T15:41:02Z</time>
      </trkpt>
      <trkpt lat="49.42682" lon="3.96016">
        <ele>107</ele>
        <time>2019-05-30T15:41:03Z</time>
      </trkpt>
      <trkpt lat="49.42688" lon="3.96021">
        <ele>107</ele>
        <time>2019-05-30T15:41:04Z</time>
      </trkpt>
      <trkpt lat="49.42694" lon="3.96026">
        <ele>107</ele>
        <time>2019-05-30T15:41:05Z</time>
      </trkpt>
      <trkpt lat="49.427" lon="3.9603">
        <ele>107</ele>
        <time>2019-05-30T15:41:06Z</time>
      </trkpt>
      <trkpt lat="49.42705" lon="3.96036">
        <ele>107</ele>
        <time>2019-05-30T15:41:07Z</time>
      </trkpt>
      <trkpt lat="49.42711" lon="3.9604">
        <ele>107</ele>
        <time>2019-05-30T15:41:08Z</time>
      </trkpt>
      <trkpt lat="49.42717" lon="3.96046">
        <ele>107</ele>
        <time>2019-05-30T15:41:09Z</time>
      </trkpt>
      <trkpt lat="49.42722" lon="3.96052">
        <ele>107</ele>
        <time>2019-05-30T15:41:10Z</time>
      </trkpt>
      <trkpt lat="49.42727" lon="3.96057">
        <ele>107</ele>
        <time>2019-05-30T15:41:11Z</time>
      </trkpt>
      <trkpt lat="49.42734" lon="3.96062">
        <ele>107</ele>
        <time>2019-05-30T15:41:12Z</time>
      </trkpt>
      <trkpt lat="49.4274" lon="3.96067">
        <ele>107</ele>
        <time>2019-05-30T15:41:13Z</time>
      </trkpt>
      <trkpt lat="49.42745" lon="3.96071">
        <ele>106</ele>
        <time>2019-05-30T15:41:14Z</time>
      </trkpt>
      <trkpt lat="49.42752" lon="3.96072">
        <ele>107</ele>
        <time>2019-05-30T15:41:15Z</time>
      </trkpt>
      <trkpt lat="49.42759" lon="3.96069">
        <ele>107</ele>
        <time>2019-05-30T15:41:16Z</time>
      </trkpt>
      <trkpt lat="49.42765" lon="3.96067">
        <ele>107</ele>
        <time>2019-05-30T15:41:17Z</time>
      </trkpt>
      <trkpt lat="49.42771" lon="3.96064">
        <ele>107</ele>
        <time>2019-05-30T15:41:18Z</time>
      </trkpt>
      <trkpt lat="49.42777" lon="3.96062">
        <ele>107</ele>
        <time>2019-05-30T15:41:19Z</time>
      </trkpt>
      <trkpt lat="49.42784" lon="3.9606">
        <ele>107</ele>
        <time>2019-05-30T15:41:20Z</time>
      </trkpt>
      <trkpt lat="49.4279" lon="3.96057">
        <ele>107</ele>
        <time>2019-05-30T15:41:21Z</time>
      </trkpt>
      <trkpt lat="49.42797" lon="3.96054">
        <ele>107</ele>
        <time>2019-05-30T15:41:22Z</time>
      </trkpt>
      <trkpt lat="49.42803" lon="3.9605">
        <ele>108</ele>
        <time>2019-05-30T15:41:23Z</time>
      </trkpt>
      <trkpt lat="49.4281" lon="3.96047">
        <ele>108</ele>
        <time>2019-05-30T15:41:24Z</time>
      </trkpt>
      <trkpt lat="49.42817" lon="3.96046">
        <ele>108</ele>
        <time>2019-05-30T15:41:25Z</time>
      </trkpt>
      <trkpt lat="49.42824" lon="3.96048">
        <ele>108</ele>
        <time>2019-05-30T15:41:26Z</time>
      </trkpt>
      <trkpt lat="49.42833" lon="3.96051">
        <ele>107</ele>
        <time>2019-05-30T15:41:27Z</time>
      </trkpt>
      <trkpt lat="49.42842" lon="3.96054">
        <ele>107</ele>
        <time>2019-05-30T15:41:28Z</time>
      </trkpt>
      <trkpt lat="49.4285" lon="3.96057">
        <ele>106</ele>
        <time>2019-05-30T15:41:29Z</time>
      </trkpt>
      <trkpt lat="49.42858" lon="3.96061">
        <ele>106</ele>
        <time>2019-05-30T15:41:30Z</time>
      </trkpt>
      <trkpt lat="49.42866" lon="3.96066">
        <ele>105</ele>
        <time>2019-05-30T15:41:31Z</time>
      </trkpt>
      <trkpt lat="49.42874" lon="3.96071">
        <ele>105</ele>
        <time>2019-05-30T15:41:32Z</time>
      </trkpt>
      <trkpt lat="49.42882" lon="3.96077">
        <ele>105</ele>
        <time>2019-05-30T15:41:33Z</time>
      </trkpt>
      <trkpt lat="49.4289" lon="3.96084">
        <ele>105</ele>
        <time>2019-05-30T15:41:34Z</time>
      </trkpt>
      <trkpt lat="49.42898" lon="3.96089">
        <ele>104</ele>
        <time>2019-05-30T15:41:35Z</time>
      </trkpt>
      <trkpt lat="49.42905" lon="3.96095">
        <ele>104</ele>
        <time>2019-05-30T15:41:36Z</time>
      </trkpt>
      <trkpt lat="49.42912" lon="3.96101">
        <ele>104</ele>
        <time>2019-05-30T15:41:37Z</time>
      </trkpt>
      <trkpt lat="49.4292" lon="3.96107">
        <ele>105</ele>
        <time>2019-05-30T15:41:38Z</time>
      </trkpt>
      <trkpt lat="49.42927" lon="3.96113">
        <ele>105</ele>
        <time>2019-05-30T15:41:39Z</time>
      </trkpt>
      <trkpt lat="49.42933" lon="3.96119">
        <ele>105</ele>
        <time>2019-05-30T15:41:40Z</time>
      </trkpt>
      <trkpt lat="49.4294" lon="3.96125">
        <ele>105</ele>
        <time>2019-05-30T15:41:41Z</time>
      </trkpt>
      <trkpt lat="49.42948" lon="3.9613">
        <ele>105</ele>
        <time>2019-05-30T15:41:42Z</time>
      </trkpt>
      <trkpt lat="49.42954" lon="3.96135">
        <ele>105</ele>
        <time>2019-05-30T15:41:43Z</time>
      </trkpt>
      <trkpt lat="49.42961" lon="3.96141">
        <ele>105</ele>
        <time>2019-05-30T15:41:44Z</time>
      </trkpt>
      <trkpt lat="49.42967" lon="3.96146">
        <ele>105</ele>
        <time>2019-05-30T15:41:45Z</time>
      </trkpt>
      <trkpt lat="49.42973" lon="3.96151">
        <ele>106</ele>
        <time>2019-05-30T15:41:46Z</time>
      </trkpt>
      <trkpt lat="49.42979" lon="3.96156">
        <ele>106</ele>
        <time>2019-05-30T15:41:47Z</time>
      </trkpt>
      <trkpt lat="49.42985" lon="3.96162">
        <ele>105</ele>
        <time>2019-05-30T15:41:48Z</time>
      </trkpt>
      <trkpt lat="49.42991" lon="3.96167">
        <ele>105</ele>
        <time>2019-05-30T15:41:49Z</time>
      </trkpt>
      <trkpt lat="49.42997" lon="3.96172">
        <ele>105</ele>
        <time>2019-05-30T15:41:50Z</time>
      </trkpt>
      <trkpt lat="49.43004" lon="3.96178">
        <ele>105</ele>
        <time>2019-05-30T15:41:51Z</time>
      </trkpt>
      <trkpt lat="49.4301" lon="3.96184">
        <ele>105</ele>
        <time>2019-05-30T15:41:52Z</time>
      </trkpt>
      <trkpt lat="49.43016" lon="3.96189">
        <ele>105</ele>
        <time>2019-05-30T15:41:53Z</time>
      </trkpt>
      <trkpt lat="49.43022" lon="3.96193">
        <ele>105</ele>
        <time>2019-05-30T15:41:54Z</time>
      </trkpt>
      <trkpt lat="49.43027" lon="3.96198">
        <ele>105</ele>
        <time>2019-05-30T15:41:55Z</time>
      </trkpt>
      <trkpt lat="49.43033" lon="3.96202">
        <ele>105</ele>
        <time>2019-05-30T15:41:56Z</time>
      </trkpt>
      <trkpt lat="49.43038" lon="3.96207">
        <ele>105</ele>
        <time>2019-05-30T15:41:57Z</time>
      </trkpt>
      <trkpt lat="49.43043" lon="3.96212">
        <ele>105</ele>
        <time>2019-05-30T15:41:58Z</time>
      </trkpt>
      <trkpt lat="49.43049" lon="3.96216">
        <ele>105</ele>
        <time>2019-05-30T15:41:59Z</time>
      </trkpt>
      <trkpt lat="49.43054" lon="3.96221">
        <ele>106</ele>
        <time>2019-05-30T15:42:00Z</time>
      </trkpt>
      <trkpt lat="49.43059" lon="3.96225">
        <ele>106</ele>
        <time>2019-05-30T15:42:01Z</time>
      </trkpt>
      <trkpt lat="49.43065" lon="3.96229">
        <ele>106</ele>
        <time>2019-05-30T15:42:02Z</time>
      </trkpt>
      <trkpt lat="49.4307" lon="3.96233">
        <ele>106</ele>
        <time>2019-05-30T15:42:03Z</time>
      </trkpt>
      <trkpt lat="49.43075" lon="3.96237">
        <ele>106</ele>
        <time>2019-05-30T15:42:04Z</time>
      </trkpt>
      <trkpt lat="49.4308" lon="3.96241">
        <ele>106</ele>
        <time>2019-05-30T15:42:05Z</time>
      </trkpt>
      <trkpt lat="49.43086" lon="3.96244">
        <ele>106</ele>
        <time>2019-05-30T15:42:06Z</time>
      </trkpt>
      <trkpt lat="49.43091" lon="3.96248">
        <ele>107</ele>
        <time>2019-05-30T15:42:07Z</time>
      </trkpt>
      <trkpt lat="49.43097" lon="3.96249">
        <ele>107</ele>
        <time>2019-05-30T15:42:08Z</time>
      </trkpt>
      <trkpt lat="49.43103" lon="3.9625">
        <ele>107</ele>
        <time>2019-05-30T15:42:09Z</time>
      </trkpt>
      <trkpt lat="49.43109" lon="3.96249">
        <ele>107</ele>
        <time>2019-05-30T15:42:10Z</time>
      </trkpt>
      <trkpt lat="49.43116" lon="3.96247">
        <ele>108</ele>
        <time>2019-05-30T15:42:11Z</time>
      </trkpt>
      <trkpt lat="49.43122" lon="3.96245">
        <ele>108</ele>
        <time>2019-05-30T15:42:12Z</time>
      </trkpt>
      <trkpt lat="49.43129" lon="3.96242">
        <ele>108</ele>
        <time>2019-05-30T15:42:13Z</time>
      </trkpt>
      <trkpt lat="49.43136" lon="3.9624">
        <ele>108</ele>
        <time>2019-05-30T15:42:14Z</time>
      </trkpt>
      <trkpt lat="49.43143" lon="3.96237">
        <ele>107</ele>
        <time>2019-05-30T15:42:15Z</time>
      </trkpt>
      <trkpt lat="49.43149" lon="3.96234">
        <ele>107</ele>
        <time>2019-05-30T15:42:16Z</time>
      </trkpt>
      <trkpt lat="49.43156" lon="3.96231">
        <ele>107</ele>
        <time>2019-05-30T15:42:17Z</time>
      </trkpt>
      <trkpt lat="49.43162" lon="3.96228">
        <ele>107</ele>
        <time>2019-05-30T15:42:18Z</time>
      </trkpt>
      <trkpt lat="49.43169" lon="3.96226">
        <ele>107</ele>
        <time>2019-05-30T15:42:19Z</time>
      </trkpt>
      <trkpt lat="49.43175" lon="3.96222">
        <ele>107</ele>
        <time>2019-05-30T15:42:20Z</time>
      </trkpt>
      <trkpt lat="49.43182" lon="3.96218">
        <ele>107</ele>
        <time>2019-05-30T15:42:21Z</time>
      </trkpt>
      <trkpt lat="49.43188" lon="3.96214">
        <ele>107</ele>
        <time>2019-05-30T15:42:22Z</time>
      </trkpt>
      <trkpt lat="49.43195" lon="3.96211">
        <ele>107</ele>
        <time>2019-05-30T15:42:23Z</time>
      </trkpt>
      <trkpt lat="49.43201" lon="3.96208">
        <ele>107</ele>
        <time>2019-05-30T15:42:24Z</time>
      </trkpt>
      <trkpt lat="49.43208" lon="3.96206">
        <ele>107</ele>
        <time>2019-05-30T15:42:25Z</time>
      </trkpt>
      <trkpt lat="49.43215" lon="3.96204">
        <ele>107</ele>
        <time>2019-05-30T15:42:26Z</time>
      </trkpt>
      <trkpt lat="49.43222" lon="3.96201">
        <ele>108</ele>
        <time>2019-05-30T15:42:27Z</time>
      </trkpt>
      <trkpt lat="49.43228" lon="3.96199">
        <ele>108</ele>
        <time>2019-05-30T15:42:28Z</time>
      </trkpt>
      <trkpt lat="49.43235" lon="3.96196">
        <ele>108</ele>
        <time>2019-05-30T15:42:29Z</time>
      </trkpt>
      <trkpt lat="49.43241" lon="3.96194">
        <ele>108</ele>
        <time>2019-05-30T15:42:30Z</time>
      </trkpt>
      <trkpt lat="49.43248" lon="3.96191">
        <ele>108</ele>
        <time>2019-05-30T15:42:31Z</time>
      </trkpt>
      <trkpt lat="49.43254" lon="3.96187">
        <ele>108</ele>
        <time>2019-05-30T15:42:32Z</time>
      </trkpt>
      <trkpt lat="49.43261" lon="3.96184">
        <ele>108</ele>
        <time>2019-05-30T15:42:33Z</time>
      </trkpt>
      <trkpt lat="49.43267" lon="3.96181">
        <ele>108</ele>
        <time>2019-05-30T15:42:34Z</time>
      </trkpt>
      <trkpt lat="49.43273" lon="3.96178">
        <ele>108</ele>
        <time>2019-05-30T15:42:35Z</time>
      </trkpt>
      <trkpt lat="49.4328" lon="3.96176">
        <ele>109</ele>
        <time>2019-05-30T15:42:36Z</time>
      </trkpt>
      <trkpt lat="49.43286" lon="3.96173">
        <ele>109</ele>
        <time>2019-05-30T15:42:37Z</time>
      </trkpt>
      <trkpt lat="49.43292" lon="3.9617">
        <ele>109</ele>
        <time>2019-05-30T15:42:38Z</time>
      </trkpt>
      <trkpt lat="49.43298" lon="3.96167">
        <ele>109</ele>
        <time>2019-05-30T15:42:39Z</time>
      </trkpt>
      <trkpt lat="49.43303" lon="3.96164">
        <ele>110</ele>
        <time>2019-05-30T15:42:40Z</time>
      </trkpt>
      <trkpt lat="49.4331" lon="3.96162">
        <ele>110</ele>
        <time>2019-05-30T15:42:41Z</time>
      </trkpt>
      <trkpt lat="49.43316" lon="3.96159">
        <ele>110</ele>
        <time>2019-05-30T15:42:42Z</time>
      </trkpt>
      <trkpt lat="49.43322" lon="3.96157">
        <ele>110</ele>
        <time>2019-05-30T15:42:43Z</time>
      </trkpt>
      <trkpt lat="49.43328" lon="3.96154">
        <ele>110</ele>
        <time>2019-05-30T15:42:44Z</time>
      </trkpt>
      <trkpt lat="49.43334" lon="3.96152">
        <ele>110</ele>
        <time>2019-05-30T15:42:45Z</time>
      </trkpt>
      <trkpt lat="49.43339" lon="3.96149">
        <ele>110</ele>
        <time>2019-05-30T15:42:46Z</time>
      </trkpt>
      <trkpt lat="49.43345" lon="3.96147">
        <ele>110</ele>
        <time>2019-05-30T15:42:47Z</time>
      </trkpt>
      <trkpt lat="49.43351" lon="3.96145">
        <ele>110</ele>
        <time>2019-05-30T15:42:48Z</time>
      </trkpt>
      <trkpt lat="49.43356" lon="3.96142">
        <ele>110</ele>
        <time>2019-05-30T15:42:49Z</time>
      </trkpt>
      <trkpt lat="49.4336" lon="3.9614">
        <ele>110</ele>
        <time>2019-05-30T15:42:50Z</time>
      </trkpt>
      <trkpt lat="49.43365" lon="3.96138">
        <ele>111</ele>
        <time>2019-05-30T15:42:51Z</time>
      </trkpt>
      <trkpt lat="49.4337" lon="3.96136">
        <ele>110</ele>
        <time>2019-05-30T15:42:52Z</time>
      </trkpt>
      <trkpt lat="49.43374" lon="3.96135">
        <ele>110</ele>
        <time>2019-05-30T15:42:53Z</time>
      </trkpt>
      <trkpt lat="49.43378" lon="3.96135">
        <ele>110</ele>
        <time>2019-05-30T15:42:54Z</time>
      </trkpt>
      <trkpt lat="49.43382" lon="3.96137">
        <ele>110</ele>
        <time>2019-05-30T15:42:55Z</time>
      </trkpt>
      <trkpt lat="49.43386" lon="3.96141">
        <ele>110</ele>
        <time>2019-05-30T15:42:56Z</time>
      </trkpt>
      <trkpt lat="49.43388" lon="3.96146">
        <ele>109</ele>
        <time>2019-05-30T15:42:57Z</time>
      </trkpt>
      <trkpt lat="49.43389" lon="3.96152">
        <ele>109</ele>
        <time>2019-05-30T15:42:58Z</time>
      </trkpt>
      <trkpt lat="49.43389" lon="3.9616">
        <ele>109</ele>
        <time>2019-05-30T15:42:59Z</time>
      </trkpt>
      <trkpt lat="49.43389" lon="3.96168">
        <ele>109</ele>
        <time>2019-05-30T15:43:00Z</time>
      </trkpt>
      <trkpt lat="49.43389" lon="3.96176">
        <ele>110</ele>
        <time>2019-05-30T15:43:01Z</time>
      </trkpt>
      <trkpt lat="49.43388" lon="3.96184">
        <ele>111</ele>
        <time>2019-05-30T15:43:02Z</time>
      </trkpt>
      <trkpt lat="49.43386" lon="3.96193">
        <ele>110</ele>
        <time>2019-05-30T15:43:03Z</time>
      </trkpt>
      <trkpt lat="49.43386" lon="3.96201">
        <ele>111</ele>
        <time>2019-05-30T15:43:04Z</time>
      </trkpt>
      <trkpt lat="49.43386" lon="3.96209">
        <ele>111</ele>
        <time>2019-05-30T15:43:05Z</time>
      </trkpt>
      <trkpt lat="49.43387" lon="3.96217">
        <ele>111</ele>
        <time>2019-05-30T15:43:06Z</time>
      </trkpt>
      <trkpt lat="49.43388" lon="3.96226">
        <ele>110</ele>
        <time>2019-05-30T15:43:07Z</time>
      </trkpt>
      <trkpt lat="49.43388" lon="3.96235">
        <ele>111</ele>
        <time>2019-05-30T15:43:08Z</time>
      </trkpt>
      <trkpt lat="49.43388" lon="3.96243">
        <ele>111</ele>
        <time>2019-05-30T15:43:09Z</time>
      </trkpt>
      <trkpt lat="49.43389" lon="3.96253">
        <ele>111</ele>
        <time>2019-05-30T15:43:10Z</time>
      </trkpt>
      <trkpt lat="49.43389" lon="3.96262">
        <ele>112</ele>
        <time>2019-05-30T15:43:11Z</time>
      </trkpt>
      <trkpt lat="49.43389" lon="3.96272">
        <ele>112</ele>
        <time>2019-05-30T15:43:12Z</time>
      </trkpt>
      <trkpt lat="49.43389" lon="3.96282">
        <ele>112</ele>
        <time>2019-05-30T15:43:13Z</time>
      </trkpt>
      <trkpt lat="49.4339" lon="3.96291">
        <ele>111</ele>
        <time>2019-05-30T15:43:14Z</time>
      </trkpt>
      <trkpt lat="49.43391" lon="3.96302">
        <ele>111</ele>
        <time>2019-05-30T15:43:15Z</time>
      </trkpt>
      <trkpt lat="49.43392" lon="3.96312">
        <ele>111</ele>
        <time>2019-05-30T15:43:16Z</time>
      </trkpt>
      <trkpt lat="49.43393" lon="3.96321">
        <ele>111</ele>
        <time>2019-05-30T15:43:17Z</time>
      </trkpt>
      <trkpt lat="49.43394" lon="3.96331">
        <ele>111</ele>
        <time>2019-05-30T15:43:18Z</time>
      </trkpt>
      <trkpt lat="49.43394" lon="3.96341">
        <ele>111</ele>
        <time>2019-05-30T15:43:19Z</time>
      </trkpt>
      <trkpt lat="49.43395" lon="3.96351">
        <ele>111</ele>
        <time>2019-05-30T15:43:20Z</time>
      </trkpt>
      <trkpt lat="49.43395" lon="3.96361">
        <ele>111</ele>
        <time>2019-05-30T15:43:21Z</time>
      </trkpt>
      <trkpt lat="49.43396" lon="3.96372">
        <ele>111</ele>
        <time>2019-05-30T15:43:22Z</time>
      </trkpt>
      <trkpt lat="49.43396" lon="3.96383">
        <ele>110</ele>
        <time>2019-05-30T15:43:23Z</time>
      </trkpt>
      <trkpt lat="49.43397" lon="3.96394">
        <ele>110</ele>
        <time>2019-05-30T15:43:24Z</time>
      </trkpt>
      <trkpt lat="49.43397" lon="3.96405">
        <ele>110</ele>
        <time>2019-05-30T15:43:25Z</time>
      </trkpt>
      <trkpt lat="49.43399" lon="3.96417">
        <ele>110</ele>
        <time>2019-05-30T15:43:26Z</time>
      </trkpt>
      <trkpt lat="49.434" lon="3.96428">
        <ele>110</ele>
        <time>2019-05-30T15:43:27Z</time>
      </trkpt>
      <trkpt lat="49.43401" lon="3.96439">
        <ele>110</ele>
        <time>2019-05-30T15:43:28Z</time>
      </trkpt>
      <trkpt lat="49.43402" lon="3.96451">
        <ele>110</ele>
        <time>2019-05-30T15:43:29Z</time>
      </trkpt>
      <trkpt lat="49.43404" lon="3.96462">
        <ele>110</ele>
        <time>2019-05-30T15:43:30Z</time>
      </trkpt>
      <trkpt lat="49.43406" lon="3.96473">
        <ele>110</ele>
        <time>2019-05-30T15:43:31Z</time>
      </trkpt>
      <trkpt lat="49.43407" lon="3.96484">
        <ele>110</ele>
        <time>2019-05-30T15:43:32Z</time>
      </trkpt>
      <trkpt lat="49.43409" lon="3.96496">
        <ele>110</ele>
        <time>2019-05-30T15:43:33Z</time>
      </trkpt>
      <trkpt lat="49.43412" lon="3.96508">
        <ele>110</ele>
        <time>2019-05-30T15:43:34Z</time>
      </trkpt>
      <trkpt lat="49.43413" lon="3.96519">
        <ele>110</ele>
        <time>2019-05-30T15:43:35Z</time>
      </trkpt>
      <trkpt lat="49.43414" lon="3.9653">
        <ele>110</ele>
        <time>2019-05-30T15:43:36Z</time>
      </trkpt>
      <trkpt lat="49.43416" lon="3.9654">
        <ele>111</ele>
        <time>2019-05-30T15:43:37Z</time>
      </trkpt>
      <trkpt lat="49.43417" lon="3.9655">
        <ele>111</ele>
        <time>2019-05-30T15:43:38Z</time>
      </trkpt>
      <trkpt lat="49.43418" lon="3.9656">
        <ele>111</ele>
        <time>2019-05-30T15:43:39Z</time>
      </trkpt>
      <trkpt lat="49.43419" lon="3.96569">
        <ele>111</ele>
        <time>2019-05-30T15:43:40Z</time>
      </trkpt>
      <trkpt lat="49.4342" lon="3.96579">
        <ele>111</ele>
        <time>2019-05-30T15:43:41Z</time>
      </trkpt>
      <trkpt lat="49.43421" lon="3.96588">
        <ele>111</ele>
        <time>2019-05-30T15:43:42Z</time>
      </trkpt>
      <trkpt lat="49.43423" lon="3.96597">
        <ele>110</ele>
        <time>2019-05-30T15:43:43Z</time>
      </trkpt>
      <trkpt lat="49.43424" lon="3.96607">
        <ele>110</ele>
        <time>2019-05-30T15:43:44Z</time>
      </trkpt>
      <trkpt lat="49.43425" lon="3.96617">
        <ele>110</ele>
        <time>2019-05-30T15:43:45Z</time>
      </trkpt>
      <trkpt lat="49.43426" lon="3.96627">
        <ele>110</ele>
        <time>2019-05-30T15:43:46Z</time>
      </trkpt>
      <trkpt lat="49.43427" lon="3.96636">
        <ele>110</ele>
        <time>2019-05-30T15:43:47Z</time>
      </trkpt>
      <trkpt lat="49.43429" lon="3.96645">
        <ele>109</ele>
        <time>2019-05-30T15:43:48Z</time>
      </trkpt>
      <trkpt lat="49.4343" lon="3.96654">
        <ele>109</ele>
        <time>2019-05-30T15:43:49Z</time>
      </trkpt>
      <trkpt lat="49.43431" lon="3.96662">
        <ele>109</ele>
        <time>2019-05-30T15:43:50Z</time>
      </trkpt>
      <trkpt lat="49.43432" lon="3.96671">
        <ele>109</ele>
        <time>2019-05-30T15:43:51Z</time>
      </trkpt>
      <trkpt lat="49.43433" lon="3.9668">
        <ele>109</ele>
        <time>2019-05-30T15:43:52Z</time>
      </trkpt>
      <trkpt lat="49.43433" lon="3.9669">
        <ele>109</ele>
        <time>2019-05-30T15:43:53Z</time>
      </trkpt>
      <trkpt lat="49.43434" lon="3.967">
        <ele>109</ele>
        <time>2019-05-30T15:43:54Z</time>
      </trkpt>
      <trkpt lat="49.43433" lon="3.9671">
        <ele>109</ele>
        <time>2019-05-30T15:43:55Z</time>
      </trkpt>
      <trkpt lat="49.43432" lon="3.96719">
        <ele>109</ele>
        <time>2019-05-30T15:43:56Z</time>
      </trkpt>
      <trkpt lat="49.43431" lon="3.96728">
        <ele>109</ele>
        <time>2019-05-30T15:43:57Z</time>
      </trkpt>
      <trkpt lat="49.4343" lon="3.96738">
        <ele>109</ele>
        <time>2019-05-30T15:43:58Z</time>
      </trkpt>
      <trkpt lat="49.43428" lon="3.96747">
        <ele>109</ele>
        <time>2019-05-30T15:43:59Z</time>
      </trkpt>
      <trkpt lat="49.43426" lon="3.96757">
        <ele>109</ele>
        <time>2019-05-30T15:44:00Z</time>
      </trkpt>
      <trkpt lat="49.43424" lon="3.96767">
        <ele>108</ele>
        <time>2019-05-30T15:44:01Z</time>
      </trkpt>
      <trkpt lat="49.43422" lon="3.96777">
        <ele>108</ele>
        <time>2019-05-30T15:44:02Z</time>
      </trkpt>
      <trkpt lat="49.4342" lon="3.96787">
        <ele>108</ele>
        <time>2019-05-30T15:44:03Z</time>
      </trkpt>
      <trkpt lat="49.43419" lon="3.96797">
        <ele>108</ele>
        <time>2019-05-30T15:44:04Z</time>
      </trkpt>
      <trkpt lat="49.43417" lon="3.96806">
        <ele>107</ele>
        <time>2019-05-30T15:44:05Z</time>
      </trkpt>
      <trkpt lat="49.43415" lon="3.96815">
        <ele>107</ele>
        <time>2019-05-30T15:44:06Z</time>
      </trkpt>
      <trkpt lat="49.43413" lon="3.96824">
        <ele>108</ele>
        <time>2019-05-30T15:44:07Z</time>
      </trkpt>
      <trkpt lat="49.43411" lon="3.96832">
        <ele>108</ele>
        <time>2019-05-30T15:44:08Z</time>
      </trkpt>
      <trkpt lat="49.43409" lon="3.9684">
        <ele>108</ele>
        <time>2019-05-30T15:44:09Z</time>
      </trkpt>
      <trkpt lat="49.43407" lon="3.96848">
        <ele>108</ele>
        <time>2019-05-30T15:44:10Z</time>
      </trkpt>
      <trkpt lat="49.43404" lon="3.96857">
        <ele>109</ele>
        <time>2019-05-30T15:44:11Z</time>
      </trkpt>
      <trkpt lat="49.43401" lon="3.96865">
        <ele>109</ele>
        <time>2019-05-30T15:44:12Z</time>
      </trkpt>
      <trkpt lat="49.43398" lon="3.96874">
        <ele>109</ele>
        <time>2019-05-30T15:44:13Z</time>
      </trkpt>
      <trkpt lat="49.43395" lon="3.96883">
        <ele>109</ele>
        <time>2019-05-30T15:44:14Z</time>
      </trkpt>
      <trkpt lat="49.43392" lon="3.96892">
        <ele>109</ele>
        <time>2019-05-30T15:44:15Z</time>
      </trkpt>
      <trkpt lat="49.43389" lon="3.969">
        <ele>109</ele>
        <time>2019-05-30T15:44:16Z</time>
      </trkpt>
      <trkpt lat="49.43385" lon="3.96908">
        <ele>109</ele>
        <time>2019-05-30T15:44:17Z</time>
      </trkpt>
      <trkpt lat="49.43382" lon="3.96917">
        <ele>109</ele>
        <time>2019-05-30T15:44:18Z</time>
      </trkpt>
      <trkpt lat="49.43379" lon="3.96925">
        <ele>109</ele>
        <time>2019-05-30T15:44:19Z</time>
      </trkpt>
      <trkpt lat="49.43376" lon="3.96934">
        <ele>110</ele>
        <time>2019-05-30T15:44:20Z</time>
      </trkpt>
      <trkpt lat="49.43373" lon="3.96943">
        <ele>110</ele>
        <time>2019-05-30T15:44:21Z</time>
      </trkpt>
      <trkpt lat="49.4337" lon="3.96951">
        <ele>110</ele>
        <time>2019-05-30T15:44:22Z</time>
      </trkpt>
      <trkpt lat="49.43367" lon="3.9696">
        <ele>110</ele>
        <time>2019-05-30T15:44:23Z</time>
      </trkpt>
      <trkpt lat="49.43363" lon="3.96968">
        <ele>110</ele>
        <time>2019-05-30T15:44:24Z</time>
      </trkpt>
      <trkpt lat="49.4336" lon="3.96976">
        <ele>110</ele>
        <time>2019-05-30T15:44:25Z</time>
      </trkpt>
      <trkpt lat="49.43357" lon="3.96984">
        <ele>110</ele>
        <time>2019-05-30T15:44:26Z</time>
      </trkpt>
      <trkpt lat="49.43354" lon="3.96993">
        <ele>110</ele>
        <time>2019-05-30T15:44:27Z</time>
      </trkpt>
      <trkpt lat="49.43351" lon="3.97001">
        <ele>110</ele>
        <time>2019-05-30T15:44:28Z</time>
      </trkpt>
      <trkpt lat="49.43347" lon="3.97009">
        <ele>111</ele>
        <time>2019-05-30T15:44:29Z</time>
      </trkpt>
      <trkpt lat="49.43344" lon="3.97017">
        <ele>110</ele>
        <time>2019-05-30T15:44:30Z</time>
      </trkpt>
      <trkpt lat="49.43341" lon="3.97025">
        <ele>110</ele>
        <time>2019-05-30T15:44:31Z</time>
      </trkpt>
      <trkpt lat="49.43338" lon="3.97034">
        <ele>110</ele>
        <time>2019-05-30T15:44:32Z</time>
      </trkpt>
      <trkpt lat="49.43334" lon="3.97042">
        <ele>111</ele>
        <time>2019-05-30T15:44:33Z</time>
      </trkpt>
      <trkpt lat="49.43331" lon="3.97049">
        <ele>111</ele>
        <time>2019-05-30T15:44:34Z</time>
      </trkpt>
      <trkpt lat="49.43328" lon="3.97057">
        <ele>111</ele>
        <time>2019-05-30T15:44:35Z</time>
      </trkpt>
      <trkpt lat="49.43324" lon="3.97065">
        <ele>111</ele>
        <time>2019-05-30T15:44:36Z</time>
      </trkpt>
      <trkpt lat="49.43321" lon="3.97073">
        <ele>111</ele>
        <time>2019-05-30T15:44:37Z</time>
      </trkpt>
      <trkpt lat="49.43317" lon="3.97081">
        <ele>111</ele>
        <time>2019-05-30T15:44:38Z</time>
      </trkpt>
      <trkpt lat="49.43313" lon="3.97089">
        <ele>112</ele>
        <time>2019-05-30T15:44:39Z</time>
      </trkpt>
      <trkpt lat="49.43309" lon="3.97098">
        <ele>111</ele>
        <time>2019-05-30T15:44:40Z</time>
      </trkpt>
      <trkpt lat="49.43306" lon="3.97106">
        <ele>112</ele>
        <time>2019-05-30T15:44:41Z</time>
      </trkpt>
      <trkpt lat="49.43303" lon="3.97114">
        <ele>112</ele>
        <time>2019-05-30T15:44:42Z</time>
      </trkpt>
      <trkpt lat="49.43299" lon="3.97121">
        <ele>112</ele>
        <time>2019-05-30T15:44:43Z</time>
      </trkpt>
      <trkpt lat="49.43295" lon="3.97128">
        <ele>112</ele>
        <time>2019-05-30T15:44:44Z</time>
      </trkpt>
      <trkpt lat="49.43292" lon="3.97136">
        <ele>112</ele>
        <time>2019-05-30T15:44:45Z</time>
      </trkpt>
      <trkpt lat="49.43289" lon="3.97144">
        <ele>112</ele>
        <time>2019-05-30T15:44:46Z</time>
      </trkpt>
      <trkpt lat="49.43285" lon="3.97151">
        <ele>112</ele>
        <time>2019-05-30T15:44:47Z</time>
      </trkpt>
      <trkpt lat="49.43282" lon="3.97159">
        <ele>112</ele>
        <time>2019-05-30T15:44:48Z</time>
      </trkpt>
      <trkpt lat="49.43279" lon="3.97166">
        <ele>112</ele>
        <time>2019-05-30T15:44:49Z</time>
      </trkpt>
      <trkpt lat="49.43276" lon="3.97175">
        <ele>113</ele>
        <time>2019-05-30T15:44:50Z</time>
      </trkpt>
      <trkpt lat="49.43272" lon="3.97182">
        <ele>113</ele>
        <time>2019-05-30T15:44:51Z</time>
      </trkpt>
      <trkpt lat="49.43269" lon="3.9719">
        <ele>113</ele>
        <time>2019-05-30T15:44:52Z</time>
      </trkpt>
      <trkpt lat="49.43265" lon="3.97198">
        <ele>113</ele>
        <time>2019-05-30T15:44:53Z</time>
      </trkpt>
      <trkpt lat="49.43262" lon="3.97207">
        <ele>113</ele>
        <time>2019-05-30T15:44:54Z</time>
      </trkpt>
      <trkpt lat="49.43258" lon="3.97216">
        <ele>114</ele>
        <time>2019-05-30T15:44:55Z</time>
      </trkpt>
      <trkpt lat="49.43255" lon="3.97224">
        <ele>113</ele>
        <time>2019-05-30T15:44:56Z</time>
      </trkpt>
      <trkpt lat="49.43252" lon="3.97232">
        <ele>113</ele>
        <time>2019-05-30T15:44:57Z</time>
      </trkpt>
      <trkpt lat="49.43248" lon="3.97239">
        <ele>112</ele>
        <time>2019-05-30T15:44:58Z</time>
      </trkpt>
      <trkpt lat="49.43245" lon="3.97248">
        <ele>112</ele>
        <time>2019-05-30T15:44:59Z</time>
      </trkpt>
      <trkpt lat="49.43242" lon="3.97256">
        <ele>112</ele>
        <time>2019-05-30T15:45:00Z</time>
      </trkpt>
      <trkpt lat="49.43238" lon="3.97265">
        <ele>113</ele>
        <time>2019-05-30T15:45:01Z</time>
      </trkpt>
      <trkpt lat="49.43235" lon="3.97273">
        <ele>113</ele>
        <time>2019-05-30T15:45:02Z</time>
      </trkpt>
      <trkpt lat="49.43231" lon="3.97281">
        <ele>113</ele>
        <time>2019-05-30T15:45:03Z</time>
      </trkpt>
      <trkpt lat="49.43227" lon="3.9729">
        <ele>113</ele>
        <time>2019-05-30T15:45:04Z</time>
      </trkpt>
      <trkpt lat="49.43224" lon="3.97299">
        <ele>112</ele>
        <time>2019-05-30T15:45:05Z</time>
      </trkpt>
      <trkpt lat="49.4322" lon="3.97308">
        <ele>112</ele>
        <time>2019-05-30T15:45:06Z</time>
      </trkpt>
      <trkpt lat="49.43216" lon="3.97316">
        <ele>112</ele>
        <time>2019-05-30T15:45:07Z</time>
      </trkpt>
      <trkpt lat="49.43212" lon="3.97325">
        <ele>112</ele>
        <time>2019-05-30T15:45:08Z</time>
      </trkpt>
      <trkpt lat="49.43208" lon="3.97335">
        <ele>112</ele>
        <time>2019-05-30T15:45:09Z</time>
      </trkpt>
      <trkpt lat="49.43204" lon="3.97345">
        <ele>111</ele>
        <time>2019-05-30T15:45:10Z</time>
      </trkpt>
      <trkpt lat="49.432" lon="3.97354">
        <ele>111</ele>
        <time>2019-05-30T15:45:11Z</time>
      </trkpt>
      <trkpt lat="49.43196" lon="3.97363">
        <ele>111</ele>
        <time>2019-05-30T15:45:12Z</time>
      </trkpt>
      <trkpt lat="49.43192" lon="3.97373">
        <ele>111</ele>
        <time>2019-05-30T15:45:13Z</time>
      </trkpt>
      <trkpt lat="49.43188" lon="3.97382">
        <ele>110</ele>
        <time>2019-05-30T15:45:14Z</time>
      </trkpt>
      <trkpt lat="49.43185" lon="3.97391">
        <ele>110</ele>
        <time>2019-05-30T15:45:15Z</time>
      </trkpt>
      <trkpt lat="49.43181" lon="3.974">
        <ele>110</ele>
        <time>2019-05-30T15:45:16Z</time>
      </trkpt>
      <trkpt lat="49.43177" lon="3.9741">
        <ele>110</ele>
        <time>2019-05-30T15:45:17Z</time>
      </trkpt>
      <trkpt lat="49.43173" lon="3.97418">
        <ele>110</ele>
        <time>2019-05-30T15:45:18Z</time>
      </trkpt>
      <trkpt lat="49.43169" lon="3.97427">
        <ele>110</ele>
        <time>2019-05-30T15:45:19Z</time>
      </trkpt>
      <trkpt lat="49.43165" lon="3.97436">
        <ele>110</ele>
        <time>2019-05-30T15:45:20Z</time>
      </trkpt>
      <trkpt lat="49.43161" lon="3.97444">
        <ele>110</ele>
        <time>2019-05-30T15:45:21Z</time>
      </trkpt>
      <trkpt lat="49.43158" lon="3.97454">
        <ele>109</ele>
        <time>2019-05-30T15:45:22Z</time>
      </trkpt>
      <trkpt lat="49.43154" lon="3.97462">
        <ele>109</ele>
        <time>2019-05-30T15:45:23Z</time>
      </trkpt>
      <trkpt lat="49.43151" lon="3.9747">
        <ele>109</ele>
        <time>2019-05-30T15:45:24Z</time>
      </trkpt>
      <trkpt lat="49.43146" lon="3.97479">
        <ele>109</ele>
        <time>2019-05-30T15:45:25Z</time>
      </trkpt>
      <trkpt lat="49.43142" lon="3.97487">
        <ele>109</ele>
        <time>2019-05-30T15:45:26Z</time>
      </trkpt>
      <trkpt lat="49.43139" lon="3.97496">
        <ele>109</ele>
        <time>2019-05-30T15:45:27Z</time>
      </trkpt>
      <trkpt lat="49.43135" lon="3.97504">
        <ele>109</ele>
        <time>2019-05-30T15:45:28Z</time>
      </trkpt>
      <trkpt lat="49.43131" lon="3.97512">
        <ele>109</ele>
        <time>2019-05-30T15:45:29Z</time>
      </trkpt>
      <trkpt lat="49.43128" lon="3.97521">
        <ele>109</ele>
        <time>2019-05-30T15:45:30Z</time>
      </trkpt>
      <trkpt lat="49.43124" lon="3.97528">
        <ele>109</ele>
        <time>2019-05-30T15:45:31Z</time>
      </trkpt>
      <trkpt lat="49.4312" lon="3.97537">
        <ele>110</ele>
        <time>2019-05-30T15:45:32Z</time>
      </trkpt>
      <trkpt lat="49.43116" lon="3.97545">
        <ele>110</ele>
        <time>2019-05-30T15:45:33Z</time>
      </trkpt>
      <trkpt lat="49.43112" lon="3.97553">
        <ele>110</ele>
        <time>2019-05-30T15:45:34Z</time>
      </trkpt>
      <trkpt lat="49.43109" lon="3.97562">
        <ele>110</ele>
        <time>2019-05-30T15:45:35Z</time>
      </trkpt>
      <trkpt lat="49.43105" lon="3.97571">
        <ele>110</ele>
        <time>2019-05-30T15:45:36Z</time>
      </trkpt>
      <trkpt lat="49.43101" lon="3.9758">
        <ele>110</ele>
        <time>2019-05-30T15:45:37Z</time>
      </trkpt>
      <trkpt lat="49.43097" lon="3.97589">
        <ele>110</ele>
        <time>2019-05-30T15:45:38Z</time>
      </trkpt>
      <trkpt lat="49.43094" lon="3.97597">
        <ele>109</ele>
        <time>2019-05-30T15:45:39Z</time>
      </trkpt>
      <trkpt lat="49.4309" lon="3.97606">
        <ele>110</ele>
        <time>2019-05-30T15:45:40Z</time>
      </trkpt>
      <trkpt lat="49.43087" lon="3.97615">
        <ele>110</ele>
        <time>2019-05-30T15:45:41Z</time>
      </trkpt>
      <trkpt lat="49.43083" lon="3.97624">
        <ele>110</ele>
        <time>2019-05-30T15:45:42Z</time>
      </trkpt>
      <trkpt lat="49.43079" lon="3.97633">
        <ele>110</ele>
        <time>2019-05-30T15:45:43Z</time>
      </trkpt>
      <trkpt lat="49.43075" lon="3.97642">
        <ele>110</ele>
        <time>2019-05-30T15:45:44Z</time>
      </trkpt>
      <trkpt lat="49.43071" lon="3.97651">
        <ele>110</ele>
        <time>2019-05-30T15:45:45Z</time>
      </trkpt>
      <trkpt lat="49.43067" lon="3.9766">
        <ele>110</ele>
        <time>2019-05-30T15:45:46Z</time>
      </trkpt>
      <trkpt lat="49.43063" lon="3.97669">
        <ele>110</ele>
        <time>2019-05-30T15:45:47Z</time>
      </trkpt>
      <trkpt lat="49.43059" lon="3.97679">
        <ele>110</ele>
        <time>2019-05-30T15:45:48Z</time>
      </trkpt>
      <trkpt lat="49.43055" lon="3.97689">
        <ele>110</ele>
        <time>2019-05-30T15:45:49Z</time>
      </trkpt>
      <trkpt lat="49.4305" lon="3.97699">
        <ele>109</ele>
        <time>2019-05-30T15:45:50Z</time>
      </trkpt>
      <trkpt lat="49.43046" lon="3.97709">
        <ele>109</ele>
        <time>2019-05-30T15:45:51Z</time>
      </trkpt>
      <trkpt lat="49.43041" lon="3.9772">
        <ele>109</ele>
        <time>2019-05-30T15:45:52Z</time>
      </trkpt>
      <trkpt lat="49.43037" lon="3.9773">
        <ele>109</ele>
        <time>2019-05-30T15:45:53Z</time>
      </trkpt>
      <trkpt lat="49.43032" lon="3.97741">
        <ele>109</ele>
        <time>2019-05-30T15:45:54Z</time>
      </trkpt>
      <trkpt lat="49.43027" lon="3.97753">
        <ele>109</ele>
        <time>2019-05-30T15:45:55Z</time>
      </trkpt>
      <trkpt lat="49.43022" lon="3.97764">
        <ele>109</ele>
        <time>2019-05-30T15:45:56Z</time>
      </trkpt>
      <trkpt lat="49.43018" lon="3.97775">
        <ele>109</ele>
        <time>2019-05-30T15:45:57Z</time>
      </trkpt>
      <trkpt lat="49.43013" lon="3.97786">
        <ele>108</ele>
        <time>2019-05-30T15:45:58Z</time>
      </trkpt>
      <trkpt lat="49.43008" lon="3.97797">
        <ele>108</ele>
        <time>2019-05-30T15:45:59Z</time>
      </trkpt>
      <trkpt lat="49.43004" lon="3.97808">
        <ele>108</ele>
        <time>2019-05-30T15:46:00Z</time>
      </trkpt>
      <trkpt lat="49.42998" lon="3.9782">
        <ele>108</ele>
        <time>2019-05-30T15:46:01Z</time>
      </trkpt>
      <trkpt lat="49.42994" lon="3.97831">
        <ele>108</ele>
        <time>2019-05-30T15:46:02Z</time>
      </trkpt>
      <trkpt lat="49.42989" lon="3.97844">
        <ele>107</ele>
        <time>2019-05-30T15:46:03Z</time>
      </trkpt>
      <trkpt lat="49.42983" lon="3.97856">
        <ele>107</ele>
        <time>2019-05-30T15:46:04Z</time>
      </trkpt>
      <trkpt lat="49.42978" lon="3.97868">
        <ele>107</ele>
        <time>2019-05-30T15:46:05Z</time>
      </trkpt>
      <trkpt lat="49.42972" lon="3.9788">
        <ele>107</ele>
        <time>2019-05-30T15:46:06Z</time>
      </trkpt>
      <trkpt lat="49.42967" lon="3.97893">
        <ele>106</ele>
        <time>2019-05-30T15:46:07Z</time>
      </trkpt>
      <trkpt lat="49.42961" lon="3.97907">
        <ele>106</ele>
        <time>2019-05-30T15:46:08Z</time>
      </trkpt>
      <trkpt lat="49.42955" lon="3.97921">
        <ele>106</ele>
        <time>2019-05-30T15:46:09Z</time>
      </trkpt>
      <trkpt lat="49.42949" lon="3.97934">
        <ele>105</ele>
        <time>2019-05-30T15:46:10Z</time>
      </trkpt>
      <trkpt lat="49.42943" lon="3.97948">
        <ele>105</ele>
        <time>2019-05-30T15:46:11Z</time>
      </trkpt>
      <trkpt lat="49.42937" lon="3.97962">
        <ele>105</ele>
        <time>2019-05-30T15:46:12Z</time>
      </trkpt>
      <trkpt lat="49.42931" lon="3.97976">
        <ele>105</ele>
        <time>2019-05-30T15:46:13Z</time>
      </trkpt>
      <trkpt lat="49.42926" lon="3.9799">
        <ele>105</ele>
        <time>2019-05-30T15:46:14Z</time>
      </trkpt>
      <trkpt lat="49.4292" lon="3.98003">
        <ele>105</ele>
        <time>2019-05-30T15:46:15Z</time>
      </trkpt>
      <trkpt lat="49.42914" lon="3.98017">
        <ele>104</ele>
        <time>2019-05-30T15:46:16Z</time>
      </trkpt>
      <trkpt lat="49.42909" lon="3.98032">
        <ele>104</ele>
        <time>2019-05-30T15:46:17Z</time>
      </trkpt>
      <trkpt lat="49.42903" lon="3.98046">
        <ele>104</ele>
        <time>2019-05-30T15:46:18Z</time>
      </trkpt>
      <trkpt lat="49.42896" lon="3.98059">
        <ele>104</ele>
        <time>2019-05-30T15:46:19Z</time>
      </trkpt>
      <trkpt lat="49.4289" lon="3.98073">
        <ele>104</ele>
        <time>2019-05-30T15:46:20Z</time>
      </trkpt>
      <trkpt lat="49.42884" lon="3.98087">
        <ele>104</ele>
        <time>2019-05-30T15:46:21Z</time>
      </trkpt>
      <trkpt lat="49.42878" lon="3.98101">
        <ele>104</ele>
        <time>2019-05-30T15:46:22Z</time>
      </trkpt>
      <trkpt lat="49.42872" lon="3.98115">
        <ele>104</ele>
        <time>2019-05-30T15:46:23Z</time>
      </trkpt>
      <trkpt lat="49.42866" lon="3.98129">
        <ele>104</ele>
        <time>2019-05-30T15:46:24Z</time>
      </trkpt>
      <trkpt lat="49.42861" lon="3.98142">
        <ele>104</ele>
        <time>2019-05-30T15:46:25Z</time>
      </trkpt>
      <trkpt lat="49.42855" lon="3.98156">
        <ele>104</ele>
        <time>2019-05-30T15:46:26Z</time>
      </trkpt>
      <trkpt lat="49.42849" lon="3.98169">
        <ele>104</ele>
        <time>2019-05-30T15:46:27Z</time>
      </trkpt>
      <trkpt lat="49.42843" lon="3.98183">
        <ele>104</ele>
        <time>2019-05-30T15:46:28Z</time>
      </trkpt>
      <trkpt lat="49.42838" lon="3.98196">
        <ele>104</ele>
        <time>2019-05-30T15:46:29Z</time>
      </trkpt>
      <trkpt lat="49.42832" lon="3.98209">
        <ele>104</ele>
        <time>2019-05-30T15:46:30Z</time>
      </trkpt>
      <trkpt lat="49.42826" lon="3.98222">
        <ele>104</ele>
        <time>2019-05-30T15:46:31Z</time>
      </trkpt>
      <trkpt lat="49.4282" lon="3.98235">
        <ele>104</ele>
        <time>2019-05-30T15:46:32Z</time>
      </trkpt>
      <trkpt lat="49.42814" lon="3.98248">
        <ele>104</ele>
        <time>2019-05-30T15:46:33Z</time>
      </trkpt>
      <trkpt lat="49.42809" lon="3.98261">
        <ele>104</ele>
        <time>2019-05-30T15:46:34Z</time>
      </trkpt>
      <trkpt lat="49.42803" lon="3.98274">
        <ele>104</ele>
        <time>2019-05-30T15:46:35Z</time>
      </trkpt>
      <trkpt lat="49.42798" lon="3.98286">
        <ele>104</ele>
        <time>2019-05-30T15:46:36Z</time>
      </trkpt>
      <trkpt lat="49.42793" lon="3.98298">
        <ele>104</ele>
        <time>2019-05-30T15:46:37Z</time>
      </trkpt>
      <trkpt lat="49.42788" lon="3.9831">
        <ele>104</ele>
        <time>2019-05-30T15:46:38Z</time>
      </trkpt>
      <trkpt lat="49.42783" lon="3.98322">
        <ele>104</ele>
        <time>2019-05-30T15:46:39Z</time>
      </trkpt>
      <trkpt lat="49.42778" lon="3.98334">
        <ele>104</ele>
        <time>2019-05-30T15:46:40Z</time>
      </trkpt>
      <trkpt lat="49.42773" lon="3.98345">
        <ele>104</ele>
        <time>2019-05-30T15:46:41Z</time>
      </trkpt>
      <trkpt lat="49.42768" lon="3.98357">
        <ele>104</ele>
        <time>2019-05-30T15:46:42Z</time>
      </trkpt>
      <trkpt lat="49.42763" lon="3.98369">
        <ele>104</ele>
        <time>2019-05-30T15:46:43Z</time>
      </trkpt>
      <trkpt lat="49.42758" lon="3.9838">
        <ele>104</ele>
        <time>2019-05-30T15:46:44Z</time>
      </trkpt>
      <trkpt lat="49.42753" lon="3.98391">
        <ele>104</ele>
        <time>2019-05-30T15:46:45Z</time>
      </trkpt>
      <trkpt lat="49.42748" lon="3.98402">
        <ele>104</ele>
        <time>2019-05-30T15:46:46Z</time>
      </trkpt>
      <trkpt lat="49.42743" lon="3.98414">
        <ele>103</ele>
        <time>2019-05-30T15:46:47Z</time>
      </trkpt>
      <trkpt lat="49.42739" lon="3.98425">
        <ele>103</ele>
        <time>2019-05-30T15:46:48Z</time>
      </trkpt>
      <trkpt lat="49.42734" lon="3.98436">
        <ele>104</ele>
        <time>2019-05-30T15:46:49Z</time>
      </trkpt>
      <trkpt lat="49.42729" lon="3.98447">
        <ele>104</ele>
        <time>2019-05-30T15:46:50Z</time>
      </trkpt>
      <trkpt lat="49.42725" lon="3.98458">
        <ele>104</ele>
        <time>2019-05-30T15:46:51Z</time>
      </trkpt>
      <trkpt lat="49.4272" lon="3.98469">
        <ele>104</ele>
        <time>2019-05-30T15:46:52Z</time>
      </trkpt>
      <trkpt lat="49.42715" lon="3.9848">
        <ele>103</ele>
        <time>2019-05-30T15:46:53Z</time>
      </trkpt>
      <trkpt lat="49.42711" lon="3.9849">
        <ele>103</ele>
        <time>2019-05-30T15:46:54Z</time>
      </trkpt>
      <trkpt lat="49.42706" lon="3.98501">
        <ele>103</ele>
        <time>2019-05-30T15:46:55Z</time>
      </trkpt>
      <trkpt lat="49.42701" lon="3.98512">
        <ele>103</ele>
        <time>2019-05-30T15:46:56Z</time>
      </trkpt>
      <trkpt lat="49.42697" lon="3.98523">
        <ele>103</ele>
        <time>2019-05-30T15:46:57Z</time>
      </trkpt>
      <trkpt lat="49.42692" lon="3.98533">
        <ele>103</ele>
        <time>2019-05-30T15:46:58Z</time>
      </trkpt>
      <trkpt lat="49.42688" lon="3.98544">
        <ele>103</ele>
        <time>2019-05-30T15:46:59Z</time>
      </trkpt>
      <trkpt lat="49.42684" lon="3.98554">
        <ele>103</ele>
        <time>2019-05-30T15:47:00Z</time>
      </trkpt>
      <trkpt lat="49.42679" lon="3.98565">
        <ele>103</ele>
        <time>2019-05-30T15:47:01Z</time>
      </trkpt>
      <trkpt lat="49.42675" lon="3.98575">
        <ele>103</ele>
        <time>2019-05-30T15:47:02Z</time>
      </trkpt>
      <trkpt lat="49.42671" lon="3.98585">
        <ele>103</ele>
        <time>2019-05-30T15:47:03Z</time>
      </trkpt>
      <trkpt lat="49.42666" lon="3.98594">
        <ele>103</ele>
        <time>2019-05-30T15:47:04Z</time>
      </trkpt>
      <trkpt lat="49.42662" lon="3.98604">
        <ele>103</ele>
        <time>2019-05-30T15:47:05Z</time>
      </trkpt>
      <trkpt lat="49.42658" lon="3.98614">
        <ele>103</ele>
        <time>2019-05-30T15:47:06Z</time>
      </trkpt>
      <trkpt lat="49.42654" lon="3.98623">
        <ele>103</ele>
        <time>2019-05-30T15:47:07Z</time>
      </trkpt>
      <trkpt lat="49.4265" lon="3.98632">
        <ele>103</ele>
        <time>2019-05-30T15:47:08Z</time>
      </trkpt>
      <trkpt lat="49.42646" lon="3.98642">
        <ele>102</ele>
        <time>2019-05-30T15:47:09Z</time>
      </trkpt>
      <trkpt lat="49.42642" lon="3.98651">
        <ele>102</ele>
        <time>2019-05-30T15:47:10Z</time>
      </trkpt>
      <trkpt lat="49.42638" lon="3.98661">
        <ele>102</ele>
        <time>2019-05-30T15:47:11Z</time>
      </trkpt>
      <trkpt lat="49.42634" lon="3.9867">
        <ele>102</ele>
        <time>2019-05-30T15:47:12Z</time>
      </trkpt>
      <trkpt lat="49.4263" lon="3.9868">
        <ele>103</ele>
        <time>2019-05-30T15:47:13Z</time>
      </trkpt>
      <trkpt lat="49.42626" lon="3.9869">
        <ele>103</ele>
        <time>2019-05-30T15:47:14Z</time>
      </trkpt>
      <trkpt lat="49.42621" lon="3.98701">
        <ele>103</ele>
        <time>2019-05-30T15:47:15Z</time>
      </trkpt>
      <trkpt lat="49.42616" lon="3.98711">
        <ele>103</ele>
        <time>2019-05-30T15:47:16Z</time>
      </trkpt>
      <trkpt lat="49.42611" lon="3.98721">
        <ele>102</ele>
        <time>2019-05-30T15:47:17Z</time>
      </trkpt>
      <trkpt lat="49.42607" lon="3.98732">
        <ele>103</ele>
        <time>2019-05-30T15:47:18Z</time>
      </trkpt>
      <trkpt lat="49.42602" lon="3.98743">
        <ele>102</ele>
        <time>2019-05-30T15:47:19Z</time>
      </trkpt>
      <trkpt lat="49.42597" lon="3.98754">
        <ele>102</ele>
        <time>2019-05-30T15:47:20Z</time>
      </trkpt>
      <trkpt lat="49.42593" lon="3.98765">
        <ele>102</ele>
        <time>2019-05-30T15:47:21Z</time>
      </trkpt>
      <trkpt lat="49.42588" lon="3.98776">
        <ele>102</ele>
        <time>2019-05-30T15:47:22Z</time>
      </trkpt>
      <trkpt lat="49.42584" lon="3.98786">
        <ele>102</ele>
        <time>2019-05-30T15:47:23Z</time>
      </trkpt>
      <trkpt lat="49.4258" lon="3.98797">
        <ele>102</ele>
        <time>2019-05-30T15:47:24Z</time>
      </trkpt>
      <trkpt lat="49.42576" lon="3.98807">
        <ele>102</ele>
        <time>2019-05-30T15:47:25Z</time>
      </trkpt>
      <trkpt lat="49.42572" lon="3.98817">
        <ele>102</ele>
        <time>2019-05-30T15:47:26Z</time>
      </trkpt>
      <trkpt lat="49.42567" lon="3.98826">
        <ele>102</ele>
        <time>2019-05-30T15:47:27Z</time>
      </trkpt>
      <trkpt lat="49.42563" lon="3.98835">
        <ele>102</ele>
        <time>2019-05-30T15:47:28Z</time>
      </trkpt>
      <trkpt lat="49.42558" lon="3.98845">
        <ele>102</ele>
        <time>2019-05-30T15:47:29Z</time>
      </trkpt>
      <trkpt lat="49.42554" lon="3.98855">
        <ele>102</ele>
        <time>2019-05-30T15:47:30Z</time>
      </trkpt>
      <trkpt lat="49.4255" lon="3.98866">
        <ele>102</ele>
        <time>2019-05-30T15:47:31Z</time>
      </trkpt>
      <trkpt lat="49.42545" lon="3.98876">
        <ele>102</ele>
        <time>2019-05-30T15:47:32Z</time>
      </trkpt>
      <trkpt lat="49.42541" lon="3.98886">
        <ele>103</ele>
        <time>2019-05-30T15:47:33Z</time>
      </trkpt>
      <trkpt lat="49.42536" lon="3.98897">
        <ele>103</ele>
        <time>2019-05-30T15:47:34Z</time>
      </trkpt>
      <trkpt lat="49.42531" lon="3.98908">
        <ele>103</ele>
        <time>2019-05-30T15:47:35Z</time>
      </trkpt>
      <trkpt lat="49.42527" lon="3.98918">
        <ele>103</ele>
        <time>2019-05-30T15:47:36Z</time>
      </trkpt>
      <trkpt lat="49.42522" lon="3.98929">
        <ele>103</ele>
        <time>2019-05-30T15:47:37Z</time>
      </trkpt>
      <trkpt lat="49.42518" lon="3.9894">
        <ele>104</ele>
        <time>2019-05-30T15:47:38Z</time>
      </trkpt>
      <trkpt lat="49.42513" lon="3.9895">
        <ele>104</ele>
        <time>2019-05-30T15:47:39Z</time>
      </trkpt>
      <trkpt lat="49.42508" lon="3.98961">
        <ele>104</ele>
        <time>2019-05-30T15:47:40Z</time>
      </trkpt>
      <trkpt lat="49.42503" lon="3.98972">
        <ele>103</ele>
        <time>2019-05-30T15:47:41Z</time>
      </trkpt>
      <trkpt lat="49.42498" lon="3.98984">
        <ele>103</ele>
        <time>2019-05-30T15:47:42Z</time>
      </trkpt>
      <trkpt lat="49.42494" lon="3.98996">
        <ele>104</ele>
        <time>2019-05-30T15:47:43Z</time>
      </trkpt>
      <trkpt lat="49.42489" lon="3.99007">
        <ele>104</ele>
        <time>2019-05-30T15:47:44Z</time>
      </trkpt>
      <trkpt lat="49.42484" lon="3.99019">
        <ele>104</ele>
        <time>2019-05-30T15:47:45Z</time>
      </trkpt>
      <trkpt lat="49.42479" lon="3.9903">
        <ele>104</ele>
        <time>2019-05-30T15:47:46Z</time>
      </trkpt>
      <trkpt lat="49.42474" lon="3.99041">
        <ele>104</ele>
        <time>2019-05-30T15:47:47Z</time>
      </trkpt>
      <trkpt lat="49.42469" lon="3.99053">
        <ele>104</ele>
        <time>2019-05-30T15:47:48Z</time>
      </trkpt>
      <trkpt lat="49.42464" lon="3.99065">
        <ele>105</ele>
        <time>2019-05-30T15:47:49Z</time>
      </trkpt>
      <trkpt lat="49.42459" lon="3.99076">
        <ele>105</ele>
        <time>2019-05-30T15:47:50Z</time>
      </trkpt>
      <trkpt lat="49.42454" lon="3.99088">
        <ele>105</ele>
        <time>2019-05-30T15:47:51Z</time>
      </trkpt>
      <trkpt lat="49.42449" lon="3.991">
        <ele>105</ele>
        <time>2019-05-30T15:47:52Z</time>
      </trkpt>
      <trkpt lat="49.42444" lon="3.99112">
        <ele>105</ele>
        <time>2019-05-30T15:47:53Z</time>
      </trkpt>
      <trkpt lat="49.4244" lon="3.99123">
        <ele>105</ele>
        <time>2019-05-30T15:47:54Z</time>
      </trkpt>
      <trkpt lat="49.42435" lon="3.99133">
        <ele>105</ele>
        <time>2019-05-30T15:47:55Z</time>
      </trkpt>
      <trkpt lat="49.4243" lon="3.99144">
        <ele>105</ele>
        <time>2019-05-30T15:47:56Z</time>
      </trkpt>
      <trkpt lat="49.42426" lon="3.99155">
        <ele>105</ele>
        <time>2019-05-30T15:47:57Z</time>
      </trkpt>
      <trkpt lat="49.42421" lon="3.99165">
        <ele>105</ele>
        <time>2019-05-30T15:47:58Z</time>
      </trkpt>
      <trkpt lat="49.42416" lon="3.99175">
        <ele>105</ele>
        <time>2019-05-30T15:47:59Z</time>
      </trkpt>
      <trkpt lat="49.42412" lon="3.99185">
        <ele>105</ele>
        <time>2019-05-30T15:48:00Z</time>
      </trkpt>
      <trkpt lat="49.42408" lon="3.99196">
        <ele>105</ele>
        <time>2019-05-30T15:48:01Z</time>
      </trkpt>
      <trkpt lat="49.42403" lon="3.99206">
        <ele>104</ele>
        <time>2019-05-30T15:48:02Z</time>
      </trkpt>
      <trkpt lat="49.42399" lon="3.99216">
        <ele>104</ele>
        <time>2019-05-30T15:48:03Z</time>
      </trkpt>
      <trkpt lat="49.42394" lon="3.99226">
        <ele>104</ele>
        <time>2019-05-30T15:48:04Z</time>
      </trkpt>
      <trkpt lat="49.4239" lon="3.99236">
        <ele>104</ele>
        <time>2019-05-30T15:48:05Z</time>
      </trkpt>
      <trkpt lat="49.42385" lon="3.99246">
        <ele>104</ele>
        <time>2019-05-30T15:48:06Z</time>
      </trkpt>
      <trkpt lat="49.42381" lon="3.99257">
        <ele>104</ele>
        <time>2019-05-30T15:48:07Z</time>
      </trkpt>
      <trkpt lat="49.42376" lon="3.99267">
        <ele>104</ele>
        <time>2019-05-30T15:48:08Z</time>
      </trkpt>
      <trkpt lat="49.42372" lon="3.99277">
        <ele>104</ele>
        <time>2019-05-30T15:48:09Z</time>
      </trkpt>
      <trkpt lat="49.42367" lon="3.99287">
        <ele>104</ele>
        <time>2019-05-30T15:48:10Z</time>
      </trkpt>
      <trkpt lat="49.42363" lon="3.99297">
        <ele>104</ele>
        <time>2019-05-30T15:48:11Z</time>
      </trkpt>
      <trkpt lat="49.42359" lon="3.99308">
        <ele>104</ele>
        <time>2019-05-30T15:48:12Z</time>
      </trkpt>
      <trkpt lat="49.42354" lon="3.99318">
        <ele>104</ele>
        <time>2019-05-30T15:48:13Z</time>
      </trkpt>
      <trkpt lat="49.4235" lon="3.99328">
        <ele>104</ele>
        <time>2019-05-30T15:48:14Z</time>
      </trkpt>
      <trkpt lat="49.42346" lon="3.99339">
        <ele>104</ele>
        <time>2019-05-30T15:48:15Z</time>
      </trkpt>
      <trkpt lat="49.42341" lon="3.99349">
        <ele>104</ele>
        <time>2019-05-30T15:48:16Z</time>
      </trkpt>
      <trkpt lat="49.42337" lon="3.99359">
        <ele>104</ele>
        <time>2019-05-30T15:48:17Z</time>
      </trkpt>
      <trkpt lat="49.42332" lon="3.99369">
        <ele>104</ele>
        <time>2019-05-30T15:48:18Z</time>
      </trkpt>
      <trkpt lat="49.42328" lon="3.99379">
        <ele>104</ele>
        <time>2019-05-30T15:48:19Z</time>
      </trkpt>
      <trkpt lat="49.42323" lon="3.9939">
        <ele>104</ele>
        <time>2019-05-30T15:48:20Z</time>
      </trkpt>
      <trkpt lat="49.42319" lon="3.994">
        <ele>104</ele>
        <time>2019-05-30T15:48:21Z</time>
      </trkpt>
      <trkpt lat="49.42315" lon="3.99409">
        <ele>104</ele>
        <time>2019-05-30T15:48:22Z</time>
      </trkpt>
      <trkpt lat="49.42311" lon="3.99419">
        <ele>104</ele>
        <time>2019-05-30T15:48:23Z</time>
      </trkpt>
      <trkpt lat="49.42307" lon="3.99429">
        <ele>104</ele>
        <time>2019-05-30T15:48:24Z</time>
      </trkpt>
      <trkpt lat="49.42303" lon="3.99439">
        <ele>104</ele>
        <time>2019-05-30T15:48:25Z</time>
      </trkpt>
      <trkpt lat="49.42298" lon="3.99449">
        <ele>103</ele>
        <time>2019-05-30T15:48:26Z</time>
      </trkpt>
      <trkpt lat="49.42294" lon="3.99459">
        <ele>103</ele>
        <time>2019-05-30T15:48:27Z</time>
      </trkpt>
      <trkpt lat="49.42289" lon="3.99469">
        <ele>103</ele>
        <time>2019-05-30T15:48:28Z</time>
      </trkpt>
      <trkpt lat="49.42285" lon="3.99479">
        <ele>104</ele>
        <time>2019-05-30T15:48:29Z</time>
      </trkpt>
      <trkpt lat="49.42281" lon="3.99489">
        <ele>104</ele>
        <time>2019-05-30T15:48:30Z</time>
      </trkpt>
      <trkpt lat="49.42277" lon="3.99499">
        <ele>104</ele>
        <time>2019-05-30T15:48:31Z</time>
      </trkpt>
      <trkpt lat="49.42272" lon="3.9951">
        <ele>104</ele>
        <time>2019-05-30T15:48:32Z</time>
      </trkpt>
      <trkpt lat="49.42267" lon="3.9952">
        <ele>104</ele>
        <time>2019-05-30T15:48:33Z</time>
      </trkpt>
      <trkpt lat="49.42263" lon="3.9953">
        <ele>105</ele>
        <time>2019-05-30T15:48:34Z</time>
      </trkpt>
      <trkpt lat="49.42258" lon="3.99541">
        <ele>105</ele>
        <time>2019-05-30T15:48:35Z</time>
      </trkpt>
      <trkpt lat="49.42254" lon="3.99551">
        <ele>105</ele>
        <time>2019-05-30T15:48:36Z</time>
      </trkpt>
      <trkpt lat="49.42249" lon="3.99562">
        <ele>105</ele>
        <time>2019-05-30T15:48:37Z</time>
      </trkpt>
      <trkpt lat="49.42245" lon="3.99573">
        <ele>105</ele>
        <time>2019-05-30T15:48:38Z</time>
      </trkpt>
      <trkpt lat="49.4224" lon="3.99583">
        <ele>105</ele>
        <time>2019-05-30T15:48:39Z</time>
      </trkpt>
      <trkpt lat="49.42236" lon="3.99594">
        <ele>105</ele>
        <time>2019-05-30T15:48:40Z</time>
      </trkpt>
      <trkpt lat="49.42231" lon="3.99606">
        <ele>105</ele>
        <time>2019-05-30T15:48:41Z</time>
      </trkpt>
      <trkpt lat="49.42226" lon="3.99616">
        <ele>105</ele>
        <time>2019-05-30T15:48:42Z</time>
      </trkpt>
      <trkpt lat="49.42222" lon="3.99626">
        <ele>105</ele>
        <time>2019-05-30T15:48:43Z</time>
      </trkpt>
      <trkpt lat="49.42217" lon="3.99637">
        <ele>105</ele>
        <time>2019-05-30T15:48:44Z</time>
      </trkpt>
      <trkpt lat="49.42213" lon="3.99647">
        <ele>105</ele>
        <time>2019-05-30T15:48:45Z</time>
      </trkpt>
      <trkpt lat="49.42209" lon="3.99657">
        <ele>105</ele>
        <time>2019-05-30T15:48:46Z</time>
      </trkpt>
      <trkpt lat="49.42205" lon="3.99667">
        <ele>105</ele>
        <time>2019-05-30T15:48:47Z</time>
      </trkpt>
      <trkpt lat="49.42201" lon="3.99677">
        <ele>105</ele>
        <time>2019-05-30T15:48:48Z</time>
      </trkpt>
      <trkpt lat="49.42197" lon="3.99686">
        <ele>104</ele>
        <time>2019-05-30T15:48:49Z</time>
      </trkpt>
      <trkpt lat="49.42192" lon="3.99695">
        <ele>104</ele>
        <time>2019-05-30T15:48:50Z</time>
      </trkpt>
      <trkpt lat="49.42188" lon="3.99703">
        <ele>104</ele>
        <time>2019-05-30T15:48:51Z</time>
      </trkpt>
      <trkpt lat="49.42183" lon="3.99712">
        <ele>104</ele>
        <time>2019-05-30T15:48:52Z</time>
      </trkpt>
      <trkpt lat="49.4218" lon="3.99721">
        <ele>104</ele>
        <time>2019-05-30T15:48:53Z</time>
      </trkpt>
      <trkpt lat="49.42177" lon="3.9973">
        <ele>105</ele>
        <time>2019-05-30T15:48:54Z</time>
      </trkpt>
      <trkpt lat="49.42174" lon="3.99739">
        <ele>105</ele>
        <time>2019-05-30T15:48:55Z</time>
      </trkpt>
      <trkpt lat="49.4217" lon="3.99747">
        <ele>105</ele>
        <time>2019-05-30T15:48:56Z</time>
      </trkpt>
      <trkpt lat="49.42167" lon="3.99755">
        <ele>105</ele>
        <time>2019-05-30T15:48:57Z</time>
      </trkpt>
      <trkpt lat="49.42163" lon="3.99763">
        <ele>105</ele>
        <time>2019-05-30T15:48:58Z</time>
      </trkpt>
      <trkpt lat="49.4216" lon="3.99771">
        <ele>105</ele>
        <time>2019-05-30T15:48:59Z</time>
      </trkpt>
      <trkpt lat="49.42156" lon="3.99779">
        <ele>105</ele>
        <time>2019-05-30T15:49:00Z</time>
      </trkpt>
      <trkpt lat="49.42152" lon="3.99787">
        <ele>105</ele>
        <time>2019-05-30T15:49:01Z</time>
      </trkpt>
      <trkpt lat="49.42149" lon="3.99794">
        <ele>105</ele>
        <time>2019-05-30T15:49:02Z</time>
      </trkpt>
      <trkpt lat="49.42146" lon="3.99802">
        <ele>105</ele>
        <time>2019-05-30T15:49:03Z</time>
      </trkpt>
      <trkpt lat="49.42143" lon="3.99809">
        <ele>105</ele>
        <time>2019-05-30T15:49:04Z</time>
      </trkpt>
      <trkpt lat="49.4214" lon="3.99817">
        <ele>105</ele>
        <time>2019-05-30T15:49:05Z</time>
      </trkpt>
      <trkpt lat="49.42137" lon="3.99825">
        <ele>105</ele>
        <time>2019-05-30T15:49:06Z</time>
      </trkpt>
      <trkpt lat="49.42134" lon="3.99833">
        <ele>106</ele>
        <time>2019-05-30T15:49:07Z</time>
      </trkpt>
      <trkpt lat="49.42131" lon="3.9984">
        <ele>106</ele>
        <time>2019-05-30T15:49:08Z</time>
      </trkpt>
      <trkpt lat="49.42128" lon="3.99848">
        <ele>106</ele>
        <time>2019-05-30T15:49:09Z</time>
      </trkpt>
      <trkpt lat="49.42125" lon="3.99855">
        <ele>106</ele>
        <time>2019-05-30T15:49:10Z</time>
      </trkpt>
      <trkpt lat="49.42122" lon="3.99863">
        <ele>106</ele>
        <time>2019-05-30T15:49:11Z</time>
      </trkpt>
      <trkpt lat="49.42119" lon="3.9987">
        <ele>106</ele>
        <time>2019-05-30T15:49:12Z</time>
      </trkpt>
      <trkpt lat="49.42115" lon="3.99878">
        <ele>106</ele>
        <time>2019-05-30T15:49:13Z</time>
      </trkpt>
      <trkpt lat="49.42112" lon="3.99885">
        <ele>106</ele>
        <time>2019-05-30T15:49:14Z</time>
      </trkpt>
      <trkpt lat="49.42109" lon="3.99892">
        <ele>106</ele>
        <time>2019-05-30T15:49:15Z</time>
      </trkpt>
      <trkpt lat="49.42105" lon="3.99899">
        <ele>106</ele>
        <time>2019-05-30T15:49:16Z</time>
      </trkpt>
      <trkpt lat="49.42101" lon="3.99907">
        <ele>106</ele>
        <time>2019-05-30T15:49:17Z</time>
      </trkpt>
      <trkpt lat="49.42098" lon="3.99915">
        <ele>105</ele>
        <time>2019-05-30T15:49:18Z</time>
      </trkpt>
      <trkpt lat="49.42094" lon="3.99924">
        <ele>105</ele>
        <time>2019-05-30T15:49:19Z</time>
      </trkpt>
      <trkpt lat="49.42091" lon="3.99932">
        <ele>105</ele>
        <time>2019-05-30T15:49:20Z</time>
      </trkpt>
      <trkpt lat="49.42088" lon="3.99941">
        <ele>105</ele>
        <time>2019-05-30T15:49:21Z</time>
      </trkpt>
      <trkpt lat="49.42085" lon="3.99949">
        <ele>105</ele>
        <time>2019-05-30T15:49:22Z</time>
      </trkpt>
      <trkpt lat="49.42082" lon="3.99957">
        <ele>105</ele>
        <time>2019-05-30T15:49:23Z</time>
      </trkpt>
      <trkpt lat="49.42079" lon="3.99965">
        <ele>105</ele>
        <time>2019-05-30T15:49:24Z</time>
      </trkpt>
      <trkpt lat="49.42075" lon="3.99972">
        <ele>105</ele>
        <time>2019-05-30T15:49:25Z</time>
      </trkpt>
      <trkpt lat="49.42072" lon="3.9998">
        <ele>105</ele>
        <time>2019-05-30T15:49:26Z</time>
      </trkpt>
      <trkpt lat="49.42068" lon="3.99987">
        <ele>105</ele>
        <time>2019-05-30T15:49:27Z</time>
      </trkpt>
      <trkpt lat="49.42065" lon="3.99994">
        <ele>105</ele>
        <time>2019-05-30T15:49:28Z</time>
      </trkpt>
      <trkpt lat="49.42062" lon="4.00001">
        <ele>105</ele>
        <time>2019-05-30T15:49:29Z</time>
      </trkpt>
      <trkpt lat="49.42058" lon="4.00008">
        <ele>104</ele>
        <time>2019-05-30T15:49:30Z</time>
      </trkpt>
      <trkpt lat="49.42054" lon="4.00016">
        <ele>104</ele>
        <time>2019-05-30T15:49:31Z</time>
      </trkpt>
      <trkpt lat="49.4205" lon="4.00024">
        <ele>104</ele>
        <time>2019-05-30T15:49:32Z</time>
      </trkpt>
      <trkpt lat="49.42047" lon="4.00033">
        <ele>104</ele>
        <time>2019-05-30T15:49:33Z</time>
      </trkpt>
      <trkpt lat="49.42044" lon="4.00041">
        <ele>104</ele>
        <time>2019-05-30T15:49:34Z</time>
      </trkpt>
      <trkpt lat="49.4204" lon="4.0005">
        <ele>104</ele>
        <time>2019-05-30T15:49:35Z</time>
      </trkpt>
      <trkpt lat="49.42037" lon="4.00058">
        <ele>104</ele>
        <time>2019-05-30T15:49:36Z</time>
      </trkpt>
      <trkpt lat="49.42034" lon="4.00066">
        <ele>104</ele>
        <time>2019-05-30T15:49:37Z</time>
      </trkpt>
      <trkpt lat="49.4203" lon="4.00074">
        <ele>104</ele>
        <time>2019-05-30T15:49:38Z</time>
      </trkpt>
      <trkpt lat="49.42027" lon="4.00081">
        <ele>104</ele>
        <time>2019-05-30T15:49:39Z</time>
      </trkpt>
      <trkpt lat="49.42023" lon="4.0009">
        <ele>105</ele>
        <time>2019-05-30T15:49:40Z</time>
      </trkpt>
      <trkpt lat="49.42019" lon="4.00098">
        <ele>105</ele>
        <time>2019-05-30T15:49:41Z</time>
      </trkpt>
      <trkpt lat="49.42016" lon="4.00105">
        <ele>105</ele>
        <time>2019-05-30T15:49:42Z</time>
      </trkpt>
      <trkpt lat="49.42012" lon="4.00114">
        <ele>105</ele>
        <time>2019-05-30T15:49:43Z</time>
      </trkpt>
      <trkpt lat="49.4201" lon="4.00123">
        <ele>105</ele>
        <time>2019-05-30T15:49:44Z</time>
      </trkpt>
      <trkpt lat="49.42007" lon="4.00132">
        <ele>105</ele>
        <time>2019-05-30T15:49:45Z</time>
      </trkpt>
      <trkpt lat="49.42005" lon="4.0014">
        <ele>105</ele>
        <time>2019-05-30T15:49:46Z</time>
      </trkpt>
      <trkpt lat="49.42002" lon="4.00149">
        <ele>105</ele>
        <time>2019-05-30T15:49:47Z</time>
      </trkpt>
      <trkpt lat="49.42" lon="4.00158">
        <ele>105</ele>
        <time>2019-05-30T15:49:48Z</time>
      </trkpt>
      <trkpt lat="49.41999" lon="4.00168">
        <ele>105</ele>
        <time>2019-05-30T15:49:49Z</time>
      </trkpt>
      <trkpt lat="49.41998" lon="4.00177">
        <ele>105</ele>
        <time>2019-05-30T15:49:50Z</time>
      </trkpt>
      <trkpt lat="49.41997" lon="4.00187">
        <ele>105</ele>
        <time>2019-05-30T15:49:51Z</time>
      </trkpt>
      <trkpt lat="49.41994" lon="4.00205">
        <ele>105</ele>
        <time>2019-05-30T15:49:53Z</time>
      </trkpt>
      <trkpt lat="49.41994" lon="4.00214">
        <ele>105</ele>
        <time>2019-05-30T15:49:54Z</time>
      </trkpt>
      <trkpt lat="49.41993" lon="4.00224">
        <ele>105</ele>
        <time>2019-05-30T15:49:55Z</time>
      </trkpt>
      <trkpt lat="49.41993" lon="4.00232">
        <ele>105</ele>
        <time>2019-05-30T15:49:56Z</time>
      </trkpt>
      <trkpt lat="49.41993" lon="4.00242">
        <ele>105</ele>
        <time>2019-05-30T15:49:57Z</time>
      </trkpt>
      <trkpt lat="49.41993" lon="4.00252">
        <ele>105</ele>
        <time>2019-05-30T15:49:58Z</time>
      </trkpt>
      <trkpt lat="49.41992" lon="4.00262">
        <ele>105</ele>
        <time>2019-05-30T15:49:59Z</time>
      </trkpt>
      <trkpt lat="49.41992" lon="4.00282">
        <ele>105</ele>
        <time>2019-05-30T15:50:01Z</time>
      </trkpt>
      <trkpt lat="49.41991" lon="4.00292">
        <ele>105</ele>
        <time>2019-05-30T15:50:02Z</time>
      </trkpt>
      <trkpt lat="49.41991" lon="4.00302">
        <ele>105</ele>
        <time>2019-05-30T15:50:03Z</time>
      </trkpt>
      <trkpt lat="49.4199" lon="4.00313">
        <ele>105</ele>
        <time>2019-05-30T15:50:04Z</time>
      </trkpt>
      <trkpt lat="49.41989" lon="4.00323">
        <ele>105</ele>
        <time>2019-05-30T15:50:05Z</time>
      </trkpt>
      <trkpt lat="49.41988" lon="4.00342">
        <ele>105</ele>
        <time>2019-05-30T15:50:07Z</time>
      </trkpt>
      <trkpt lat="49.41986" lon="4.00352">
        <ele>105</ele>
        <time>2019-05-30T15:50:08Z</time>
      </trkpt>
      <trkpt lat="49.41985" lon="4.00362">
        <ele>105</ele>
        <time>2019-05-30T15:50:09Z</time>
      </trkpt>
      <trkpt lat="49.41984" lon="4.00372">
        <ele>105</ele>
        <time>2019-05-30T15:50:10Z</time>
      </trkpt>
      <trkpt lat="49.41983" lon="4.00382">
        <ele>105</ele>
        <time>2019-05-30T15:50:11Z</time>
      </trkpt>
      <trkpt lat="49.41981" lon="4.00391">
        <ele>106</ele>
        <time>2019-05-30T15:50:12Z</time>
      </trkpt>
      <trkpt lat="49.41979" lon="4.004">
        <ele>106</ele>
        <time>2019-05-30T15:50:13Z</time>
      </trkpt>
      <trkpt lat="49.41977" lon="4.00409">
        <ele>106</ele>
        <time>2019-05-30T15:50:14Z</time>
      </trkpt>
      <trkpt lat="49.41975" lon="4.00417">
        <ele>106</ele>
        <time>2019-05-30T15:50:15Z</time>
      </trkpt>
      <trkpt lat="49.41973" lon="4.00425">
        <ele>106</ele>
        <time>2019-05-30T15:50:16Z</time>
      </trkpt>
      <trkpt lat="49.4197" lon="4.00434">
        <ele>106</ele>
        <time>2019-05-30T15:50:17Z</time>
      </trkpt>
      <trkpt lat="49.41968" lon="4.00442">
        <ele>106</ele>
        <time>2019-05-30T15:50:18Z</time>
      </trkpt>
      <trkpt lat="49.41966" lon="4.00451">
        <ele>106</ele>
        <time>2019-05-30T15:50:19Z</time>
      </trkpt>
      <trkpt lat="49.41964" lon="4.00461">
        <ele>105</ele>
        <time>2019-05-30T15:50:20Z</time>
      </trkpt>
      <trkpt lat="49.41961" lon="4.00471">
        <ele>105</ele>
        <time>2019-05-30T15:50:21Z</time>
      </trkpt>
      <trkpt lat="49.41959" lon="4.00481">
        <ele>105</ele>
        <time>2019-05-30T15:50:22Z</time>
      </trkpt>
      <trkpt lat="49.41955" lon="4.00493">
        <ele>105</ele>
        <time>2019-05-30T15:50:23Z</time>
      </trkpt>
      <trkpt lat="49.41952" lon="4.00504">
        <ele>104</ele>
        <time>2019-05-30T15:50:24Z</time>
      </trkpt>
      <trkpt lat="49.41948" lon="4.00516">
        <ele>104</ele>
        <time>2019-05-30T15:50:25Z</time>
      </trkpt>
      <trkpt lat="49.41944" lon="4.00527">
        <ele>104</ele>
        <time>2019-05-30T15:50:26Z</time>
      </trkpt>
      <trkpt lat="49.41942" lon="4.00539">
        <ele>104</ele>
        <time>2019-05-30T15:50:27Z</time>
      </trkpt>
      <trkpt lat="49.41939" lon="4.0055">
        <ele>104</ele>
        <time>2019-05-30T15:50:28Z</time>
      </trkpt>
      <trkpt lat="49.41937" lon="4.00562">
        <ele>103</ele>
        <time>2019-05-30T15:50:29Z</time>
      </trkpt>
      <trkpt lat="49.41934" lon="4.00573">
        <ele>103</ele>
        <time>2019-05-30T15:50:30Z</time>
      </trkpt>
      <trkpt lat="49.41931" lon="4.00584">
        <ele>103</ele>
        <time>2019-05-30T15:50:31Z</time>
      </trkpt>
      <trkpt lat="49.41928" lon="4.00595">
        <ele>103</ele>
        <time>2019-05-30T15:50:32Z</time>
      </trkpt>
      <trkpt lat="49.41925" lon="4.00606">
        <ele>103</ele>
        <time>2019-05-30T15:50:33Z</time>
      </trkpt>
      <trkpt lat="49.41923" lon="4.00617">
        <ele>103</ele>
        <time>2019-05-30T15:50:34Z</time>
      </trkpt>
      <trkpt lat="49.41922" lon="4.00628">
        <ele>103</ele>
        <time>2019-05-30T15:50:35Z</time>
      </trkpt>
      <trkpt lat="49.41921" lon="4.00639">
        <ele>103</ele>
        <time>2019-05-30T15:50:36Z</time>
      </trkpt>
      <trkpt lat="49.41921" lon="4.0065">
        <ele>104</ele>
        <time>2019-05-30T15:50:37Z</time>
      </trkpt>
      <trkpt lat="49.41922" lon="4.00662">
        <ele>104</ele>
        <time>2019-05-30T15:50:38Z</time>
      </trkpt>
      <trkpt lat="49.41922" lon="4.00673">
        <ele>104</ele>
        <time>2019-05-30T15:50:39Z</time>
      </trkpt>
      <trkpt lat="49.41923" lon="4.00685">
        <ele>104</ele>
        <time>2019-05-30T15:50:40Z</time>
      </trkpt>
      <trkpt lat="49.41923" lon="4.00696">
        <ele>104</ele>
        <time>2019-05-30T15:50:41Z</time>
      </trkpt>
      <trkpt lat="49.41924" lon="4.00708">
        <ele>104</ele>
        <time>2019-05-30T15:50:42Z</time>
      </trkpt>
      <trkpt lat="49.41924" lon="4.00719">
        <ele>104</ele>
        <time>2019-05-30T15:50:43Z</time>
      </trkpt>
      <trkpt lat="49.41925" lon="4.0073">
        <ele>104</ele>
        <time>2019-05-30T15:50:44Z</time>
      </trkpt>
      <trkpt lat="49.41926" lon="4.00741">
        <ele>104</ele>
        <time>2019-05-30T15:50:45Z</time>
      </trkpt>
      <trkpt lat="49.41928" lon="4.00752">
        <ele>104</ele>
        <time>2019-05-30T15:50:46Z</time>
      </trkpt>
      <trkpt lat="49.4193" lon="4.00762">
        <ele>104</ele>
        <time>2019-05-30T15:50:47Z</time>
      </trkpt>
      <trkpt lat="49.41934" lon="4.00772">
        <ele>103</ele>
        <time>2019-05-30T15:50:48Z</time>
      </trkpt>
      <trkpt lat="49.41939" lon="4.00781">
        <ele>103</ele>
        <time>2019-05-30T15:50:49Z</time>
      </trkpt>
      <trkpt lat="49.41945" lon="4.00789">
        <ele>104</ele>
        <time>2019-05-30T15:50:50Z</time>
      </trkpt>
      <trkpt lat="49.41951" lon="4.00796">
        <ele>104</ele>
        <time>2019-05-30T15:50:51Z</time>
      </trkpt>
      <trkpt lat="49.41958" lon="4.00802">
        <ele>104</ele>
        <time>2019-05-30T15:50:52Z</time>
      </trkpt>
      <trkpt lat="49.41965" lon="4.00806">
        <ele>104</ele>
        <time>2019-05-30T15:50:53Z</time>
      </trkpt>
      <trkpt lat="49.41972" lon="4.0081">
        <ele>104</ele>
        <time>2019-05-30T15:50:54Z</time>
      </trkpt>
      <trkpt lat="49.4198" lon="4.00814">
        <ele>104</ele>
        <time>2019-05-30T15:50:55Z</time>
      </trkpt>
      <trkpt lat="49.41987" lon="4.00818">
        <ele>104</ele>
        <time>2019-05-30T15:50:56Z</time>
      </trkpt>
      <trkpt lat="49.41994" lon="4.00822">
        <ele>104</ele>
        <time>2019-05-30T15:50:57Z</time>
      </trkpt>
      <trkpt lat="49.42001" lon="4.00824">
        <ele>104</ele>
        <time>2019-05-30T15:50:58Z</time>
      </trkpt>
      <trkpt lat="49.42008" lon="4.00827">
        <ele>105</ele>
        <time>2019-05-30T15:50:59Z</time>
      </trkpt>
      <trkpt lat="49.42016" lon="4.0083">
        <ele>105</ele>
        <time>2019-05-30T15:51:00Z</time>
      </trkpt>
      <trkpt lat="49.42022" lon="4.00835">
        <ele>105</ele>
        <time>2019-05-30T15:51:01Z</time>
      </trkpt>
      <trkpt lat="49.42029" lon="4.00842">
        <ele>106</ele>
        <time>2019-05-30T15:51:02Z</time>
      </trkpt>
      <trkpt lat="49.42034" lon="4.0085">
        <ele>106</ele>
        <time>2019-05-30T15:51:03Z</time>
      </trkpt>
      <trkpt lat="49.42038" lon="4.00859">
        <ele>105</ele>
        <time>2019-05-30T15:51:04Z</time>
      </trkpt>
      <trkpt lat="49.42042" lon="4.0087">
        <ele>105</ele>
        <time>2019-05-30T15:51:05Z</time>
      </trkpt>
      <trkpt lat="49.42044" lon="4.00882">
        <ele>106</ele>
        <time>2019-05-30T15:51:06Z</time>
      </trkpt>
      <trkpt lat="49.42045" lon="4.00893">
        <ele>106</ele>
        <time>2019-05-30T15:51:07Z</time>
      </trkpt>
      <trkpt lat="49.42046" lon="4.00906">
        <ele>107</ele>
        <time>2019-05-30T15:51:08Z</time>
      </trkpt>
      <trkpt lat="49.42047" lon="4.00918">
        <ele>106</ele>
        <time>2019-05-30T15:51:09Z</time>
      </trkpt>
      <trkpt lat="49.42048" lon="4.00929">
        <ele>106</ele>
        <time>2019-05-30T15:51:10Z</time>
      </trkpt>
      <trkpt lat="49.42048" lon="4.00941">
        <ele>106</ele>
        <time>2019-05-30T15:51:11Z</time>
      </trkpt>
      <trkpt lat="49.42049" lon="4.00953">
        <ele>106</ele>
        <time>2019-05-30T15:51:12Z</time>
      </trkpt>
      <trkpt lat="49.4205" lon="4.00963">
        <ele>106</ele>
        <time>2019-05-30T15:51:13Z</time>
      </trkpt>
      <trkpt lat="49.4205" lon="4.00975">
        <ele>106</ele>
        <time>2019-05-30T15:51:14Z</time>
      </trkpt>
      <trkpt lat="49.4205" lon="4.00986">
        <ele>106</ele>
        <time>2019-05-30T15:51:15Z</time>
      </trkpt>
      <trkpt lat="49.42051" lon="4.00997">
        <ele>105</ele>
        <time>2019-05-30T15:51:16Z</time>
      </trkpt>
      <trkpt lat="49.42051" lon="4.01008">
        <ele>106</ele>
        <time>2019-05-30T15:51:17Z</time>
      </trkpt>
      <trkpt lat="49.42052" lon="4.01019">
        <ele>106</ele>
        <time>2019-05-30T15:51:18Z</time>
      </trkpt>
      <trkpt lat="49.42053" lon="4.0103">
        <ele>106</ele>
        <time>2019-05-30T15:51:19Z</time>
      </trkpt>
      <trkpt lat="49.42054" lon="4.01042">
        <ele>106</ele>
        <time>2019-05-30T15:51:20Z</time>
      </trkpt>
      <trkpt lat="49.42054" lon="4.01053">
        <ele>106</ele>
        <time>2019-05-30T15:51:21Z</time>
      </trkpt>
      <trkpt lat="49.42055" lon="4.01064">
        <ele>106</ele>
        <time>2019-05-30T15:51:22Z</time>
      </trkpt>
      <trkpt lat="49.42056" lon="4.01075">
        <ele>106</ele>
        <time>2019-05-30T15:51:23Z</time>
      </trkpt>
      <trkpt lat="49.42056" lon="4.01086">
        <ele>106</ele>
        <time>2019-05-30T15:51:24Z</time>
      </trkpt>
      <trkpt lat="49.42057" lon="4.01098">
        <ele>106</ele>
        <time>2019-05-30T15:51:25Z</time>
      </trkpt>
      <trkpt lat="49.42058" lon="4.01109">
        <ele>106</ele>
        <time>2019-05-30T15:51:26Z</time>
      </trkpt>
      <trkpt lat="49.42059" lon="4.01121">
        <ele>106</ele>
        <time>2019-05-30T15:51:27Z</time>
      </trkpt>
      <trkpt lat="49.4206" lon="4.01132">
        <ele>106</ele>
        <time>2019-05-30T15:51:28Z</time>
      </trkpt>
      <trkpt lat="49.4206" lon="4.01144">
        <ele>106</ele>
        <time>2019-05-30T15:51:29Z</time>
      </trkpt>
      <trkpt lat="49.42061" lon="4.01155">
        <ele>106</ele>
        <time>2019-05-30T15:51:30Z</time>
      </trkpt>
      <trkpt lat="49.42062" lon="4.01166">
        <ele>106</ele>
        <time>2019-05-30T15:51:31Z</time>
      </trkpt>
      <trkpt lat="49.42063" lon="4.01178">
        <ele>106</ele>
        <time>2019-05-30T15:51:32Z</time>
      </trkpt>
      <trkpt lat="49.42063" lon="4.01189">
        <ele>106</ele>
        <time>2019-05-30T15:51:33Z</time>
      </trkpt>
      <trkpt lat="49.42064" lon="4.012">
        <ele>106</ele>
        <time>2019-05-30T15:51:34Z</time>
      </trkpt>
      <trkpt lat="49.42064" lon="4.01211">
        <ele>105</ele>
        <time>2019-05-30T15:51:35Z</time>
      </trkpt>
      <trkpt lat="49.42064" lon="4.01223">
        <ele>105</ele>
        <time>2019-05-30T15:51:36Z</time>
      </trkpt>
      <trkpt lat="49.42064" lon="4.01234">
        <ele>106</ele>
        <time>2019-05-30T15:51:37Z</time>
      </trkpt>
      <trkpt lat="49.42065" lon="4.01245">
        <ele>105</ele>
        <time>2019-05-30T15:51:38Z</time>
      </trkpt>
      <trkpt lat="49.42067" lon="4.01256">
        <ele>105</ele>
        <time>2019-05-30T15:51:39Z</time>
      </trkpt>
      <trkpt lat="49.42068" lon="4.01267">
        <ele>105</ele>
        <time>2019-05-30T15:51:40Z</time>
      </trkpt>
      <trkpt lat="49.42069" lon="4.01279">
        <ele>105</ele>
        <time>2019-05-30T15:51:41Z</time>
      </trkpt>
      <trkpt lat="49.4207" lon="4.01291">
        <ele>105</ele>
        <time>2019-05-30T15:51:42Z</time>
      </trkpt>
      <trkpt lat="49.4207" lon="4.01302">
        <ele>105</ele>
        <time>2019-05-30T15:51:43Z</time>
      </trkpt>
      <trkpt lat="49.4207" lon="4.01313">
        <ele>105</ele>
        <time>2019-05-30T15:51:44Z</time>
      </trkpt>
      <trkpt lat="49.42071" lon="4.01325">
        <ele>105</ele>
        <time>2019-05-30T15:51:45Z</time>
      </trkpt>
      <trkpt lat="49.42072" lon="4.01336">
        <ele>105</ele>
        <time>2019-05-30T15:51:46Z</time>
      </trkpt>
      <trkpt lat="49.42073" lon="4.01347">
        <ele>105</ele>
        <time>2019-05-30T15:51:47Z</time>
      </trkpt>
      <trkpt lat="49.42074" lon="4.01358">
        <ele>105</ele>
        <time>2019-05-30T15:51:48Z</time>
      </trkpt>
      <trkpt lat="49.42074" lon="4.01371">
        <ele>105</ele>
        <time>2019-05-30T15:51:49Z</time>
      </trkpt>
      <trkpt lat="49.42075" lon="4.01383">
        <ele>105</ele>
        <time>2019-05-30T15:51:50Z</time>
      </trkpt>
      <trkpt lat="49.42076" lon="4.01395">
        <ele>105</ele>
        <time>2019-05-30T15:51:51Z</time>
      </trkpt>
      <trkpt lat="49.42077" lon="4.01407">
        <ele>106</ele>
        <time>2019-05-30T15:51:52Z</time>
      </trkpt>
      <trkpt lat="49.42078" lon="4.01418">
        <ele>106</ele>
        <time>2019-05-30T15:51:53Z</time>
      </trkpt>
      <trkpt lat="49.42079" lon="4.01431">
        <ele>106</ele>
        <time>2019-05-30T15:51:54Z</time>
      </trkpt>
      <trkpt lat="49.4208" lon="4.01443">
        <ele>106</ele>
        <time>2019-05-30T15:51:55Z</time>
      </trkpt>
      <trkpt lat="49.4208" lon="4.01454">
        <ele>106</ele>
        <time>2019-05-30T15:51:56Z</time>
      </trkpt>
      <trkpt lat="49.42081" lon="4.01465">
        <ele>106</ele>
        <time>2019-05-30T15:51:57Z</time>
      </trkpt>
      <trkpt lat="49.42082" lon="4.01477">
        <ele>106</ele>
        <time>2019-05-30T15:51:58Z</time>
      </trkpt>
      <trkpt lat="49.42083" lon="4.01489">
        <ele>106</ele>
        <time>2019-05-30T15:51:59Z</time>
      </trkpt>
      <trkpt lat="49.42084" lon="4.01501">
        <ele>106</ele>
        <time>2019-05-30T15:52:00Z</time>
      </trkpt>
      <trkpt lat="49.42085" lon="4.01513">
        <ele>106</ele>
        <time>2019-05-30T15:52:01Z</time>
      </trkpt>
      <trkpt lat="49.42086" lon="4.01524">
        <ele>106</ele>
        <time>2019-05-30T15:52:02Z</time>
      </trkpt>
      <trkpt lat="49.42088" lon="4.01536">
        <ele>106</ele>
        <time>2019-05-30T15:52:03Z</time>
      </trkpt>
      <trkpt lat="49.42089" lon="4.01548">
        <ele>106</ele>
        <time>2019-05-30T15:52:04Z</time>
      </trkpt>
      <trkpt lat="49.42091" lon="4.0156">
        <ele>106</ele>
        <time>2019-05-30T15:52:05Z</time>
      </trkpt>
      <trkpt lat="49.42093" lon="4.01571">
        <ele>106</ele>
        <time>2019-05-30T15:52:06Z</time>
      </trkpt>
      <trkpt lat="49.42095" lon="4.01582">
        <ele>105</ele>
        <time>2019-05-30T15:52:07Z</time>
      </trkpt>
      <trkpt lat="49.42097" lon="4.01594">
        <ele>106</ele>
        <time>2019-05-30T15:52:08Z</time>
      </trkpt>
      <trkpt lat="49.42099" lon="4.01605">
        <ele>106</ele>
        <time>2019-05-30T15:52:09Z</time>
      </trkpt>
      <trkpt lat="49.42102" lon="4.01616">
        <ele>106</ele>
        <time>2019-05-30T15:52:10Z</time>
      </trkpt>
      <trkpt lat="49.42104" lon="4.01627">
        <ele>106</ele>
        <time>2019-05-30T15:52:11Z</time>
      </trkpt>
      <trkpt lat="49.42107" lon="4.01638">
        <ele>106</ele>
        <time>2019-05-30T15:52:12Z</time>
      </trkpt>
      <trkpt lat="49.4211" lon="4.01649">
        <ele>106</ele>
        <time>2019-05-30T15:52:13Z</time>
      </trkpt>
      <trkpt lat="49.42113" lon="4.01661">
        <ele>106</ele>
        <time>2019-05-30T15:52:14Z</time>
      </trkpt>
      <trkpt lat="49.42116" lon="4.01671">
        <ele>106</ele>
        <time>2019-05-30T15:52:15Z</time>
      </trkpt>
      <trkpt lat="49.4212" lon="4.01682">
        <ele>106</ele>
        <time>2019-05-30T15:52:16Z</time>
      </trkpt>
      <trkpt lat="49.42123" lon="4.01694">
        <ele>106</ele>
        <time>2019-05-30T15:52:17Z</time>
      </trkpt>
      <trkpt lat="49.42127" lon="4.01705">
        <ele>106</ele>
        <time>2019-05-30T15:52:18Z</time>
      </trkpt>
      <trkpt lat="49.42131" lon="4.01716">
        <ele>105</ele>
        <time>2019-05-30T15:52:19Z</time>
      </trkpt>
      <trkpt lat="49.42134" lon="4.01728">
        <ele>105</ele>
        <time>2019-05-30T15:52:20Z</time>
      </trkpt>
      <trkpt lat="49.42139" lon="4.01739">
        <ele>105</ele>
        <time>2019-05-30T15:52:21Z</time>
      </trkpt>
      <trkpt lat="49.42143" lon="4.0175">
        <ele>105</ele>
        <time>2019-05-30T15:52:22Z</time>
      </trkpt>
      <trkpt lat="49.42147" lon="4.01761">
        <ele>105</ele>
        <time>2019-05-30T15:52:23Z</time>
      </trkpt>
      <trkpt lat="49.42151" lon="4.01772">
        <ele>105</ele>
        <time>2019-05-30T15:52:24Z</time>
      </trkpt>
      <trkpt lat="49.42155" lon="4.01784">
        <ele>105</ele>
        <time>2019-05-30T15:52:25Z</time>
      </trkpt>
      <trkpt lat="49.42159" lon="4.01795">
        <ele>105</ele>
        <time>2019-05-30T15:52:26Z</time>
      </trkpt>
      <trkpt lat="49.42163" lon="4.01807">
        <ele>105</ele>
        <time>2019-05-30T15:52:27Z</time>
      </trkpt>
      <trkpt lat="49.42167" lon="4.01818">
        <ele>104</ele>
        <time>2019-05-30T15:52:28Z</time>
      </trkpt>
      <trkpt lat="49.42171" lon="4.01829">
        <ele>104</ele>
        <time>2019-05-30T15:52:29Z</time>
      </trkpt>
      <trkpt lat="49.42174" lon="4.0184">
        <ele>104</ele>
        <time>2019-05-30T15:52:30Z</time>
      </trkpt>
      <trkpt lat="49.42179" lon="4.01851">
        <ele>104</ele>
        <time>2019-05-30T15:52:31Z</time>
      </trkpt>
      <trkpt lat="49.42183" lon="4.01862">
        <ele>104</ele>
        <time>2019-05-30T15:52:32Z</time>
      </trkpt>
      <trkpt lat="49.42187" lon="4.01873">
        <ele>104</ele>
        <time>2019-05-30T15:52:33Z</time>
      </trkpt>
      <trkpt lat="49.42191" lon="4.01884">
        <ele>104</ele>
        <time>2019-05-30T15:52:34Z</time>
      </trkpt>
      <trkpt lat="49.42194" lon="4.01896">
        <ele>104</ele>
        <time>2019-05-30T15:52:35Z</time>
      </trkpt>
      <trkpt lat="49.42198" lon="4.01907">
        <ele>104</ele>
        <time>2019-05-30T15:52:36Z</time>
      </trkpt>
      <trkpt lat="49.42202" lon="4.01918">
        <ele>104</ele>
        <time>2019-05-30T15:52:37Z</time>
      </trkpt>
      <trkpt lat="49.42206" lon="4.01929">
        <ele>104</ele>
        <time>2019-05-30T15:52:38Z</time>
      </trkpt>
      <trkpt lat="49.4221" lon="4.01941">
        <ele>104</ele>
        <time>2019-05-30T15:52:39Z</time>
      </trkpt>
      <trkpt lat="49.42214" lon="4.01951">
        <ele>104</ele>
        <time>2019-05-30T15:52:40Z</time>
      </trkpt>
      <trkpt lat="49.42219" lon="4.01962">
        <ele>104</ele>
        <time>2019-05-30T15:52:41Z</time>
      </trkpt>
      <trkpt lat="49.42223" lon="4.01973">
        <ele>103</ele>
        <time>2019-05-30T15:52:42Z</time>
      </trkpt>
      <trkpt lat="49.42228" lon="4.01983">
        <ele>103</ele>
        <time>2019-05-30T15:52:43Z</time>
      </trkpt>
      <trkpt lat="49.42232" lon="4.01994">
        <ele>103</ele>
        <time>2019-05-30T15:52:44Z</time>
      </trkpt>
      <trkpt lat="49.42237" lon="4.02005">
        <ele>103</ele>
        <time>2019-05-30T15:52:45Z</time>
      </trkpt>
      <trkpt lat="49.42242" lon="4.02016">
        <ele>103</ele>
        <time>2019-05-30T15:52:46Z</time>
      </trkpt>
      <trkpt lat="49.42247" lon="4.02027">
        <ele>103</ele>
        <time>2019-05-30T15:52:47Z</time>
      </trkpt>
      <trkpt lat="49.42252" lon="4.02037">
        <ele>103</ele>
        <time>2019-05-30T15:52:48Z</time>
      </trkpt>
      <trkpt lat="49.42257" lon="4.02048">
        <ele>103</ele>
        <time>2019-05-30T15:52:49Z</time>
      </trkpt>
      <trkpt lat="49.42262" lon="4.02057">
        <ele>103</ele>
        <time>2019-05-30T15:52:50Z</time>
      </trkpt>
      <trkpt lat="49.42268" lon="4.02067">
        <ele>103</ele>
        <time>2019-05-30T15:52:51Z</time>
      </trkpt>
      <trkpt lat="49.42273" lon="4.02077">
        <ele>103</ele>
        <time>2019-05-30T15:52:52Z</time>
      </trkpt>
      <trkpt lat="49.42278" lon="4.02087">
        <ele>103</ele>
        <time>2019-05-30T15:52:53Z</time>
      </trkpt>
      <trkpt lat="49.42284" lon="4.02097">
        <ele>103</ele>
        <time>2019-05-30T15:52:54Z</time>
      </trkpt>
      <trkpt lat="49.42289" lon="4.02106">
        <ele>103</ele>
        <time>2019-05-30T15:52:55Z</time>
      </trkpt>
      <trkpt lat="49.42295" lon="4.02115">
        <ele>103</ele>
        <time>2019-05-30T15:52:56Z</time>
      </trkpt>
      <trkpt lat="49.423" lon="4.02124">
        <ele>103</ele>
        <time>2019-05-30T15:52:57Z</time>
      </trkpt>
      <trkpt lat="49.42306" lon="4.02133">
        <ele>103</ele>
        <time>2019-05-30T15:52:58Z</time>
      </trkpt>
      <trkpt lat="49.42312" lon="4.02142">
        <ele>103</ele>
        <time>2019-05-30T15:52:59Z</time>
      </trkpt>
      <trkpt lat="49.42318" lon="4.0215">
        <ele>103</ele>
        <time>2019-05-30T15:53:00Z</time>
      </trkpt>
      <trkpt lat="49.42323" lon="4.02158">
        <ele>103</ele>
        <time>2019-05-30T15:53:01Z</time>
      </trkpt>
      <trkpt lat="49.42329" lon="4.02167">
        <ele>103</ele>
        <time>2019-05-30T15:53:02Z</time>
      </trkpt>
      <trkpt lat="49.42335" lon="4.02174">
        <ele>103</ele>
        <time>2019-05-30T15:53:03Z</time>
      </trkpt>
      <trkpt lat="49.4234" lon="4.02182">
        <ele>103</ele>
        <time>2019-05-30T15:53:04Z</time>
      </trkpt>
      <trkpt lat="49.42346" lon="4.0219">
        <ele>104</ele>
        <time>2019-05-30T15:53:05Z</time>
      </trkpt>
      <trkpt lat="49.42351" lon="4.02198">
        <ele>104</ele>
        <time>2019-05-30T15:53:06Z</time>
      </trkpt>
      <trkpt lat="49.42357" lon="4.02206">
        <ele>104</ele>
        <time>2019-05-30T15:53:07Z</time>
      </trkpt>
      <trkpt lat="49.42362" lon="4.02213">
        <ele>104</ele>
        <time>2019-05-30T15:53:08Z</time>
      </trkpt>
      <trkpt lat="49.42368" lon="4.0222">
        <ele>104</ele>
        <time>2019-05-30T15:53:09Z</time>
      </trkpt>
      <trkpt lat="49.42373" lon="4.02227">
        <ele>104</ele>
        <time>2019-05-30T15:53:10Z</time>
      </trkpt>
      <trkpt lat="49.42378" lon="4.02235">
        <ele>104</ele>
        <time>2019-05-30T15:53:11Z</time>
      </trkpt>
      <trkpt lat="49.42383" lon="4.02242">
        <ele>104</ele>
        <time>2019-05-30T15:53:12Z</time>
      </trkpt>
      <trkpt lat="49.42388" lon="4.0225">
        <ele>105</ele>
        <time>2019-05-30T15:53:13Z</time>
      </trkpt>
      <trkpt lat="49.42393" lon="4.02257">
        <ele>105</ele>
        <time>2019-05-30T15:53:14Z</time>
      </trkpt>
      <trkpt lat="49.42398" lon="4.02265">
        <ele>105</ele>
        <time>2019-05-30T15:53:15Z</time>
      </trkpt>
      <trkpt lat="49.42403" lon="4.02273">
        <ele>105</ele>
        <time>2019-05-30T15:53:16Z</time>
      </trkpt>
      <trkpt lat="49.42408" lon="4.02281">
        <ele>105</ele>
        <time>2019-05-30T15:53:17Z</time>
      </trkpt>
      <trkpt lat="49.42413" lon="4.02289">
        <ele>105</ele>
        <time>2019-05-30T15:53:18Z</time>
      </trkpt>
      <trkpt lat="49.42419" lon="4.02297">
        <ele>105</ele>
        <time>2019-05-30T15:53:19Z</time>
      </trkpt>
      <trkpt lat="49.42424" lon="4.02306">
        <ele>105</ele>
        <time>2019-05-30T15:53:20Z</time>
      </trkpt>
      <trkpt lat="49.4243" lon="4.02313">
        <ele>105</ele>
        <time>2019-05-30T15:53:21Z</time>
      </trkpt>
      <trkpt lat="49.42435" lon="4.02321">
        <ele>105</ele>
        <time>2019-05-30T15:53:22Z</time>
      </trkpt>
      <trkpt lat="49.42441" lon="4.02329">
        <ele>105</ele>
        <time>2019-05-30T15:53:23Z</time>
      </trkpt>
      <trkpt lat="49.42446" lon="4.02337">
        <ele>105</ele>
        <time>2019-05-30T15:53:24Z</time>
      </trkpt>
      <trkpt lat="49.42451" lon="4.02346">
        <ele>105</ele>
        <time>2019-05-30T15:53:25Z</time>
      </trkpt>
      <trkpt lat="49.42457" lon="4.02353">
        <ele>105</ele>
        <time>2019-05-30T15:53:26Z</time>
      </trkpt>
      <trkpt lat="49.42462" lon="4.02361">
        <ele>105</ele>
        <time>2019-05-30T15:53:27Z</time>
      </trkpt>
      <trkpt lat="49.42468" lon="4.02369">
        <ele>105</ele>
        <time>2019-05-30T15:53:28Z</time>
      </trkpt>
      <trkpt lat="49.42473" lon="4.02377">
        <ele>105</ele>
        <time>2019-05-30T15:53:29Z</time>
      </trkpt>
      <trkpt lat="49.42478" lon="4.02385">
        <ele>105</ele>
        <time>2019-05-30T15:53:30Z</time>
      </trkpt>
      <trkpt lat="49.42484" lon="4.02394">
        <ele>106</ele>
        <time>2019-05-30T15:53:31Z</time>
      </trkpt>
      <trkpt lat="49.4249" lon="4.02401">
        <ele>106</ele>
        <time>2019-05-30T15:53:32Z</time>
      </trkpt>
      <trkpt lat="49.42495" lon="4.02409">
        <ele>106</ele>
        <time>2019-05-30T15:53:33Z</time>
      </trkpt>
      <trkpt lat="49.42501" lon="4.02416">
        <ele>106</ele>
        <time>2019-05-30T15:53:34Z</time>
      </trkpt>
      <trkpt lat="49.42507" lon="4.02424">
        <ele>106</ele>
        <time>2019-05-30T15:53:35Z</time>
      </trkpt>
      <trkpt lat="49.42513" lon="4.0243">
        <ele>106</ele>
        <time>2019-05-30T15:53:36Z</time>
      </trkpt>
      <trkpt lat="49.42519" lon="4.02437">
        <ele>106</ele>
        <time>2019-05-30T15:53:37Z</time>
      </trkpt>
      <trkpt lat="49.42525" lon="4.02444">
        <ele>106</ele>
        <time>2019-05-30T15:53:38Z</time>
      </trkpt>
      <trkpt lat="49.42531" lon="4.0245">
        <ele>107</ele>
        <time>2019-05-30T15:53:39Z</time>
      </trkpt>
      <trkpt lat="49.42537" lon="4.02456">
        <ele>107</ele>
        <time>2019-05-30T15:53:40Z</time>
      </trkpt>
      <trkpt lat="49.42543" lon="4.02462">
        <ele>107</ele>
        <time>2019-05-30T15:53:41Z</time>
      </trkpt>
      <trkpt lat="49.42549" lon="4.02468">
        <ele>107</ele>
        <time>2019-05-30T15:53:42Z</time>
      </trkpt>
      <trkpt lat="49.42555" lon="4.02473">
        <ele>107</ele>
        <time>2019-05-30T15:53:43Z</time>
      </trkpt>
      <trkpt lat="49.42562" lon="4.02479">
        <ele>107</ele>
        <time>2019-05-30T15:53:44Z</time>
      </trkpt>
      <trkpt lat="49.42567" lon="4.02484">
        <ele>107</ele>
        <time>2019-05-30T15:53:45Z</time>
      </trkpt>
      <trkpt lat="49.42572" lon="4.02489">
        <ele>107</ele>
        <time>2019-05-30T15:53:46Z</time>
      </trkpt>
      <trkpt lat="49.42578" lon="4.02494">
        <ele>107</ele>
        <time>2019-05-30T15:53:47Z</time>
      </trkpt>
      <trkpt lat="49.42584" lon="4.02499">
        <ele>108</ele>
        <time>2019-05-30T15:53:48Z</time>
      </trkpt>
      <trkpt lat="49.42589" lon="4.02503">
        <ele>108</ele>
        <time>2019-05-30T15:53:49Z</time>
      </trkpt>
      <trkpt lat="49.42595" lon="4.02509">
        <ele>108</ele>
        <time>2019-05-30T15:53:50Z</time>
      </trkpt>
      <trkpt lat="49.42601" lon="4.02513">
        <ele>108</ele>
        <time>2019-05-30T15:53:51Z</time>
      </trkpt>
      <trkpt lat="49.42606" lon="4.02518">
        <ele>108</ele>
        <time>2019-05-30T15:53:52Z</time>
      </trkpt>
      <trkpt lat="49.42612" lon="4.02523">
        <ele>108</ele>
        <time>2019-05-30T15:53:53Z</time>
      </trkpt>
      <trkpt lat="49.42617" lon="4.02527">
        <ele>108</ele>
        <time>2019-05-30T15:53:54Z</time>
      </trkpt>
      <trkpt lat="49.42623" lon="4.02532">
        <ele>109</ele>
        <time>2019-05-30T15:53:55Z</time>
      </trkpt>
      <trkpt lat="49.42629" lon="4.02537">
        <ele>109</ele>
        <time>2019-05-30T15:53:56Z</time>
      </trkpt>
      <trkpt lat="49.42634" lon="4.02541">
        <ele>109</ele>
        <time>2019-05-30T15:53:57Z</time>
      </trkpt>
      <trkpt lat="49.42639" lon="4.02545">
        <ele>109</ele>
        <time>2019-05-30T15:53:58Z</time>
      </trkpt>
      <trkpt lat="49.42645" lon="4.02549">
        <ele>109</ele>
        <time>2019-05-30T15:53:59Z</time>
      </trkpt>
      <trkpt lat="49.4265" lon="4.02553">
        <ele>110</ele>
        <time>2019-05-30T15:54:00Z</time>
      </trkpt>
      <trkpt lat="49.42656" lon="4.02556">
        <ele>110</ele>
        <time>2019-05-30T15:54:01Z</time>
      </trkpt>
      <trkpt lat="49.42662" lon="4.0256">
        <ele>110</ele>
        <time>2019-05-30T15:54:02Z</time>
      </trkpt>
      <trkpt lat="49.42667" lon="4.02563">
        <ele>110</ele>
        <time>2019-05-30T15:54:03Z</time>
      </trkpt>
      <trkpt lat="49.42672" lon="4.02566">
        <ele>111</ele>
        <time>2019-05-30T15:54:04Z</time>
      </trkpt>
      <trkpt lat="49.42678" lon="4.0257">
        <ele>111</ele>
        <time>2019-05-30T15:54:05Z</time>
      </trkpt>
      <trkpt lat="49.42683" lon="4.02573">
        <ele>111</ele>
        <time>2019-05-30T15:54:06Z</time>
      </trkpt>
      <trkpt lat="49.4269" lon="4.02577">
        <ele>111</ele>
        <time>2019-05-30T15:54:07Z</time>
      </trkpt>
      <trkpt lat="49.42695" lon="4.0258">
        <ele>112</ele>
        <time>2019-05-30T15:54:08Z</time>
      </trkpt>
      <trkpt lat="49.427" lon="4.02584">
        <ele>112</ele>
        <time>2019-05-30T15:54:09Z</time>
      </trkpt>
      <trkpt lat="49.42707" lon="4.02587">
        <ele>112</ele>
        <time>2019-05-30T15:54:10Z</time>
      </trkpt>
      <trkpt lat="49.42713" lon="4.0259">
        <ele>113</ele>
        <time>2019-05-30T15:54:11Z</time>
      </trkpt>
      <trkpt lat="49.42718" lon="4.02594">
        <ele>113</ele>
        <time>2019-05-30T15:54:12Z</time>
      </trkpt>
      <trkpt lat="49.42724" lon="4.02598">
        <ele>113</ele>
        <time>2019-05-30T15:54:13Z</time>
      </trkpt>
      <trkpt lat="49.42729" lon="4.02602">
        <ele>114</ele>
        <time>2019-05-30T15:54:14Z</time>
      </trkpt>
      <trkpt lat="49.42735" lon="4.02606">
        <ele>113</ele>
        <time>2019-05-30T15:54:15Z</time>
      </trkpt>
      <trkpt lat="49.42741" lon="4.0261">
        <ele>113</ele>
        <time>2019-05-30T15:54:16Z</time>
      </trkpt>
      <trkpt lat="49.42747" lon="4.02615">
        <ele>113</ele>
        <time>2019-05-30T15:54:17Z</time>
      </trkpt>
      <trkpt lat="49.42753" lon="4.0262">
        <ele>113</ele>
        <time>2019-05-30T15:54:18Z</time>
      </trkpt>
      <trkpt lat="49.4276" lon="4.02625">
        <ele>113</ele>
        <time>2019-05-30T15:54:19Z</time>
      </trkpt>
      <trkpt lat="49.42767" lon="4.02631">
        <ele>112</ele>
        <time>2019-05-30T15:54:20Z</time>
      </trkpt>
      <trkpt lat="49.42774" lon="4.02636">
        <ele>112</ele>
        <time>2019-05-30T15:54:21Z</time>
      </trkpt>
      <trkpt lat="49.4278" lon="4.02642">
        <ele>112</ele>
        <time>2019-05-30T15:54:22Z</time>
      </trkpt>
      <trkpt lat="49.42787" lon="4.02649">
        <ele>111</ele>
        <time>2019-05-30T15:54:23Z</time>
      </trkpt>
      <trkpt lat="49.42793" lon="4.02655">
        <ele>110</ele>
        <time>2019-05-30T15:54:24Z</time>
      </trkpt>
      <trkpt lat="49.428" lon="4.0266">
        <ele>110</ele>
        <time>2019-05-30T15:54:25Z</time>
      </trkpt>
      <trkpt lat="49.42806" lon="4.02666">
        <ele>110</ele>
        <time>2019-05-30T15:54:26Z</time>
      </trkpt>
      <trkpt lat="49.42813" lon="4.02672">
        <ele>110</ele>
        <time>2019-05-30T15:54:27Z</time>
      </trkpt>
      <trkpt lat="49.4282" lon="4.02679">
        <ele>110</ele>
        <time>2019-05-30T15:54:28Z</time>
      </trkpt>
      <trkpt lat="49.42827" lon="4.02685">
        <ele>110</ele>
        <time>2019-05-30T15:54:29Z</time>
      </trkpt>
      <trkpt lat="49.42833" lon="4.02692">
        <ele>110</ele>
        <time>2019-05-30T15:54:30Z</time>
      </trkpt>
      <trkpt lat="49.4284" lon="4.02698">
        <ele>109</ele>
        <time>2019-05-30T15:54:31Z</time>
      </trkpt>
      <trkpt lat="49.42846" lon="4.02704">
        <ele>109</ele>
        <time>2019-05-30T15:54:32Z</time>
      </trkpt>
      <trkpt lat="49.42852" lon="4.02711">
        <ele>109</ele>
        <time>2019-05-30T15:54:33Z</time>
      </trkpt>
      <trkpt lat="49.42859" lon="4.02717">
        <ele>109</ele>
        <time>2019-05-30T15:54:34Z</time>
      </trkpt>
      <trkpt lat="49.42866" lon="4.02723">
        <ele>109</ele>
        <time>2019-05-30T15:54:35Z</time>
      </trkpt>
      <trkpt lat="49.42872" lon="4.0273">
        <ele>109</ele>
        <time>2019-05-30T15:54:36Z</time>
      </trkpt>
      <trkpt lat="49.42879" lon="4.02737">
        <ele>109</ele>
        <time>2019-05-30T15:54:37Z</time>
      </trkpt>
      <trkpt lat="49.42885" lon="4.02743">
        <ele>109</ele>
        <time>2019-05-30T15:54:38Z</time>
      </trkpt>
      <trkpt lat="49.42892" lon="4.02749">
        <ele>108</ele>
        <time>2019-05-30T15:54:39Z</time>
      </trkpt>
      <trkpt lat="49.42899" lon="4.02756">
        <ele>108</ele>
        <time>2019-05-30T15:54:40Z</time>
      </trkpt>
      <trkpt lat="49.42906" lon="4.02763">
        <ele>108</ele>
        <time>2019-05-30T15:54:41Z</time>
      </trkpt>
      <trkpt lat="49.42912" lon="4.02768">
        <ele>108</ele>
        <time>2019-05-30T15:54:42Z</time>
      </trkpt>
      <trkpt lat="49.42919" lon="4.02775">
        <ele>109</ele>
        <time>2019-05-30T15:54:43Z</time>
      </trkpt>
      <trkpt lat="49.42926" lon="4.02782">
        <ele>109</ele>
        <time>2019-05-30T15:54:44Z</time>
      </trkpt>
      <trkpt lat="49.42933" lon="4.0279">
        <ele>109</ele>
        <time>2019-05-30T15:54:45Z</time>
      </trkpt>
      <trkpt lat="49.4294" lon="4.02797">
        <ele>109</ele>
        <time>2019-05-30T15:54:46Z</time>
      </trkpt>
      <trkpt lat="49.42947" lon="4.02804">
        <ele>109</ele>
        <time>2019-05-30T15:54:47Z</time>
      </trkpt>
      <trkpt lat="49.42955" lon="4.0281">
        <ele>109</ele>
        <time>2019-05-30T15:54:48Z</time>
      </trkpt>
      <trkpt lat="49.42962" lon="4.02817">
        <ele>108</ele>
        <time>2019-05-30T15:54:49Z</time>
      </trkpt>
      <trkpt lat="49.4297" lon="4.02823">
        <ele>108</ele>
        <time>2019-05-30T15:54:50Z</time>
      </trkpt>
      <trkpt lat="49.42977" lon="4.02829">
        <ele>108</ele>
        <time>2019-05-30T15:54:51Z</time>
      </trkpt>
      <trkpt lat="49.42984" lon="4.02835">
        <ele>107</ele>
        <time>2019-05-30T15:54:52Z</time>
      </trkpt>
      <trkpt lat="49.42992" lon="4.02841">
        <ele>107</ele>
        <time>2019-05-30T15:54:53Z</time>
      </trkpt>
      <trkpt lat="49.42999" lon="4.02848">
        <ele>108</ele>
        <time>2019-05-30T15:54:54Z</time>
      </trkpt>
      <trkpt lat="49.43006" lon="4.02854">
        <ele>108</ele>
        <time>2019-05-30T15:54:55Z</time>
      </trkpt>
      <trkpt lat="49.43013" lon="4.0286">
        <ele>107</ele>
        <time>2019-05-30T15:54:56Z</time>
      </trkpt>
      <trkpt lat="49.4302" lon="4.02866">
        <ele>107</ele>
        <time>2019-05-30T15:54:57Z</time>
      </trkpt>
      <trkpt lat="49.43027" lon="4.02872">
        <ele>107</ele>
        <time>2019-05-30T15:54:58Z</time>
      </trkpt>
      <trkpt lat="49.43035" lon="4.02878">
        <ele>107</ele>
        <time>2019-05-30T15:54:59Z</time>
      </trkpt>
      <trkpt lat="49.43042" lon="4.02884">
        <ele>107</ele>
        <time>2019-05-30T15:55:00Z</time>
      </trkpt>
      <trkpt lat="49.4305" lon="4.0289">
        <ele>107</ele>
        <time>2019-05-30T15:55:01Z</time>
      </trkpt>
      <trkpt lat="49.43057" lon="4.02896">
        <ele>107</ele>
        <time>2019-05-30T15:55:02Z</time>
      </trkpt>
      <trkpt lat="49.43064" lon="4.02902">
        <ele>107</ele>
        <time>2019-05-30T15:55:03Z</time>
      </trkpt>
      <trkpt lat="49.43072" lon="4.02908">
        <ele>107</ele>
        <time>2019-05-30T15:55:04Z</time>
      </trkpt>
      <trkpt lat="49.43079" lon="4.02914">
        <ele>107</ele>
        <time>2019-05-30T15:55:05Z</time>
      </trkpt>
      <trkpt lat="49.43087" lon="4.0292">
        <ele>107</ele>
        <time>2019-05-30T15:55:06Z</time>
      </trkpt>
      <trkpt lat="49.43094" lon="4.02926">
        <ele>107</ele>
        <time>2019-05-30T15:55:07Z</time>
      </trkpt>
      <trkpt lat="49.43102" lon="4.02932">
        <ele>107</ele>
        <time>2019-05-30T15:55:08Z</time>
      </trkpt>
      <trkpt lat="49.43109" lon="4.02938">
        <ele>107</ele>
        <time>2019-05-30T15:55:09Z</time>
      </trkpt>
      <trkpt lat="49.43117" lon="4.02944">
        <ele>107</ele>
        <time>2019-05-30T15:55:10Z</time>
      </trkpt>
      <trkpt lat="49.43124" lon="4.0295">
        <ele>107</ele>
        <time>2019-05-30T15:55:11Z</time>
      </trkpt>
      <trkpt lat="49.43131" lon="4.02955">
        <ele>107</ele>
        <time>2019-05-30T15:55:12Z</time>
      </trkpt>
      <trkpt lat="49.43138" lon="4.02961">
        <ele>107</ele>
        <time>2019-05-30T15:55:13Z</time>
      </trkpt>
      <trkpt lat="49.43152" lon="4.02972">
        <ele>107</ele>
        <time>2019-05-30T15:55:15Z</time>
      </trkpt>
      <trkpt lat="49.43159" lon="4.02977">
        <ele>107</ele>
        <time>2019-05-30T15:55:16Z</time>
      </trkpt>
      <trkpt lat="49.43165" lon="4.02983">
        <ele>107</ele>
        <time>2019-05-30T15:55:17Z</time>
      </trkpt>
      <trkpt lat="49.43172" lon="4.02989">
        <ele>108</ele>
        <time>2019-05-30T15:55:18Z</time>
      </trkpt>
      <trkpt lat="49.43179" lon="4.02995">
        <ele>108</ele>
        <time>2019-05-30T15:55:19Z</time>
      </trkpt>
      <trkpt lat="49.43186" lon="4.03">
        <ele>108</ele>
        <time>2019-05-30T15:55:20Z</time>
      </trkpt>
      <trkpt lat="49.43193" lon="4.03006">
        <ele>108</ele>
        <time>2019-05-30T15:55:21Z</time>
      </trkpt>
      <trkpt lat="49.43201" lon="4.03011">
        <ele>108</ele>
        <time>2019-05-30T15:55:22Z</time>
      </trkpt>
      <trkpt lat="49.43208" lon="4.03016">
        <ele>108</ele>
        <time>2019-05-30T15:55:23Z</time>
      </trkpt>
      <trkpt lat="49.43215" lon="4.03021">
        <ele>107</ele>
        <time>2019-05-30T15:55:24Z</time>
      </trkpt>
      <trkpt lat="49.43221" lon="4.03027">
        <ele>108</ele>
        <time>2019-05-30T15:55:25Z</time>
      </trkpt>
      <trkpt lat="49.43228" lon="4.03032">
        <ele>108</ele>
        <time>2019-05-30T15:55:26Z</time>
      </trkpt>
      <trkpt lat="49.43234" lon="4.03038">
        <ele>108</ele>
        <time>2019-05-30T15:55:27Z</time>
      </trkpt>
      <trkpt lat="49.43241" lon="4.03045">
        <ele>108</ele>
        <time>2019-05-30T15:55:28Z</time>
      </trkpt>
      <trkpt lat="49.43247" lon="4.03052">
        <ele>108</ele>
        <time>2019-05-30T15:55:29Z</time>
      </trkpt>
      <trkpt lat="49.43253" lon="4.03057">
        <ele>108</ele>
        <time>2019-05-30T15:55:30Z</time>
      </trkpt>
      <trkpt lat="49.43259" lon="4.03063">
        <ele>109</ele>
        <time>2019-05-30T15:55:31Z</time>
      </trkpt>
      <trkpt lat="49.43263" lon="4.03067">
        <ele>109</ele>
        <time>2019-05-30T15:55:32Z</time>
      </trkpt>
      <trkpt lat="49.43267" lon="4.03072">
        <ele>109</ele>
        <time>2019-05-30T15:55:33Z</time>
      </trkpt>
      <trkpt lat="49.43272" lon="4.03077">
        <ele>109</ele>
        <time>2019-05-30T15:55:34Z</time>
      </trkpt>
      <trkpt lat="49.43275" lon="4.03082">
        <ele>109</ele>
        <time>2019-05-30T15:55:35Z</time>
      </trkpt>
      <trkpt lat="49.43276" lon="4.03089">
        <ele>109</ele>
        <time>2019-05-30T15:55:36Z</time>
      </trkpt>
      <trkpt lat="49.43276" lon="4.03097">
        <ele>110</ele>
        <time>2019-05-30T15:55:37Z</time>
      </trkpt>
      <trkpt lat="49.43273" lon="4.03104">
        <ele>109</ele>
        <time>2019-05-30T15:55:38Z</time>
      </trkpt>
      <trkpt lat="49.4327" lon="4.03112">
        <ele>110</ele>
        <time>2019-05-30T15:55:39Z</time>
      </trkpt>
      <trkpt lat="49.43268" lon="4.0312">
        <ele>110</ele>
        <time>2019-05-30T15:55:40Z</time>
      </trkpt>
      <trkpt lat="49.43266" lon="4.03128">
        <ele>109</ele>
        <time>2019-05-30T15:55:41Z</time>
      </trkpt>
      <trkpt lat="49.43264" lon="4.03137">
        <ele>109</ele>
        <time>2019-05-30T15:55:42Z</time>
      </trkpt>
      <trkpt lat="49.43262" lon="4.03145">
        <ele>109</ele>
        <time>2019-05-30T15:55:43Z</time>
      </trkpt>
      <trkpt lat="49.4326" lon="4.03153">
        <ele>109</ele>
        <time>2019-05-30T15:55:44Z</time>
      </trkpt>
      <trkpt lat="49.43258" lon="4.03161">
        <ele>109</ele>
        <time>2019-05-30T15:55:45Z</time>
      </trkpt>
      <trkpt lat="49.43256" lon="4.03169">
        <ele>109</ele>
        <time>2019-05-30T15:55:46Z</time>
      </trkpt>
      <trkpt lat="49.43253" lon="4.03177">
        <ele>108</ele>
        <time>2019-05-30T15:55:47Z</time>
      </trkpt>
      <trkpt lat="49.43251" lon="4.03186">
        <ele>108</ele>
        <time>2019-05-30T15:55:48Z</time>
      </trkpt>
      <trkpt lat="49.43248" lon="4.03195">
        <ele>108</ele>
        <time>2019-05-30T15:55:49Z</time>
      </trkpt>
      <trkpt lat="49.43246" lon="4.03204">
        <ele>108</ele>
        <time>2019-05-30T15:55:50Z</time>
      </trkpt>
      <trkpt lat="49.43243" lon="4.03214">
        <ele>108</ele>
        <time>2019-05-30T15:55:51Z</time>
      </trkpt>
      <trkpt lat="49.4324" lon="4.03223">
        <ele>108</ele>
        <time>2019-05-30T15:55:52Z</time>
      </trkpt>
      <trkpt lat="49.43238" lon="4.03233">
        <ele>108</ele>
        <time>2019-05-30T15:55:53Z</time>
      </trkpt>
      <trkpt lat="49.43236" lon="4.03243">
        <ele>108</ele>
        <time>2019-05-30T15:55:54Z</time>
      </trkpt>
      <trkpt lat="49.43233" lon="4.03253">
        <ele>108</ele>
        <time>2019-05-30T15:55:55Z</time>
      </trkpt>
      <trkpt lat="49.43231" lon="4.03263">
        <ele>108</ele>
        <time>2019-05-30T15:55:56Z</time>
      </trkpt>
      <trkpt lat="49.43228" lon="4.03272">
        <ele>108</ele>
        <time>2019-05-30T15:55:57Z</time>
      </trkpt>
      <trkpt lat="49.43225" lon="4.03282">
        <ele>108</ele>
        <time>2019-05-30T15:55:58Z</time>
      </trkpt>
      <trkpt lat="49.43222" lon="4.03291">
        <ele>108</ele>
        <time>2019-05-30T15:55:59Z</time>
      </trkpt>
      <trkpt lat="49.43218" lon="4.033">
        <ele>108</ele>
        <time>2019-05-30T15:56:00Z</time>
      </trkpt>
      <trkpt lat="49.43215" lon="4.03309">
        <ele>108</ele>
        <time>2019-05-30T15:56:01Z</time>
      </trkpt>
      <trkpt lat="49.43212" lon="4.03318">
        <ele>109</ele>
        <time>2019-05-30T15:56:02Z</time>
      </trkpt>
      <trkpt lat="49.43209" lon="4.03326">
        <ele>109</ele>
        <time>2019-05-30T15:56:03Z</time>
      </trkpt>
      <trkpt lat="49.43206" lon="4.03333">
        <ele>109</ele>
        <time>2019-05-30T15:56:04Z</time>
      </trkpt>
      <trkpt lat="49.43202" lon="4.03341">
        <ele>109</ele>
        <time>2019-05-30T15:56:05Z</time>
      </trkpt>
      <trkpt lat="49.43199" lon="4.03349">
        <ele>110</ele>
        <time>2019-05-30T15:56:06Z</time>
      </trkpt>
      <trkpt lat="49.43195" lon="4.03357">
        <ele>110</ele>
        <time>2019-05-30T15:56:07Z</time>
      </trkpt>
      <trkpt lat="49.43192" lon="4.03365">
        <ele>110</ele>
        <time>2019-05-30T15:56:08Z</time>
      </trkpt>
      <trkpt lat="49.43189" lon="4.03374">
        <ele>110</ele>
        <time>2019-05-30T15:56:09Z</time>
      </trkpt>
      <trkpt lat="49.43186" lon="4.03382">
        <ele>110</ele>
        <time>2019-05-30T15:56:10Z</time>
      </trkpt>
      <trkpt lat="49.43181" lon="4.0339">
        <ele>110</ele>
        <time>2019-05-30T15:56:11Z</time>
      </trkpt>
      <trkpt lat="49.43178" lon="4.03399">
        <ele>110</ele>
        <time>2019-05-30T15:56:12Z</time>
      </trkpt>
      <trkpt lat="49.43174" lon="4.03408">
        <ele>110</ele>
        <time>2019-05-30T15:56:13Z</time>
      </trkpt>
      <trkpt lat="49.43172" lon="4.03416">
        <ele>109</ele>
        <time>2019-05-30T15:56:14Z</time>
      </trkpt>
      <trkpt lat="49.43169" lon="4.03425">
        <ele>109</ele>
        <time>2019-05-30T15:56:15Z</time>
      </trkpt>
      <trkpt lat="49.43165" lon="4.03434">
        <ele>109</ele>
        <time>2019-05-30T15:56:16Z</time>
      </trkpt>
      <trkpt lat="49.43161" lon="4.03442">
        <ele>109</ele>
        <time>2019-05-30T15:56:17Z</time>
      </trkpt>
      <trkpt lat="49.43157" lon="4.03452">
        <ele>109</ele>
        <time>2019-05-30T15:56:18Z</time>
      </trkpt>
      <trkpt lat="49.43153" lon="4.0346">
        <ele>109</ele>
        <time>2019-05-30T15:56:19Z</time>
      </trkpt>
      <trkpt lat="49.43149" lon="4.0347">
        <ele>109</ele>
        <time>2019-05-30T15:56:20Z</time>
      </trkpt>
      <trkpt lat="49.43146" lon="4.03479">
        <ele>109</ele>
        <time>2019-05-30T15:56:21Z</time>
      </trkpt>
      <trkpt lat="49.43142" lon="4.03486">
        <ele>109</ele>
        <time>2019-05-30T15:56:22Z</time>
      </trkpt>
      <trkpt lat="49.43138" lon="4.03495">
        <ele>109</ele>
        <time>2019-05-30T15:56:23Z</time>
      </trkpt>
      <trkpt lat="49.43135" lon="4.03503">
        <ele>109</ele>
        <time>2019-05-30T15:56:24Z</time>
      </trkpt>
      <trkpt lat="49.43132" lon="4.03512">
        <ele>108</ele>
        <time>2019-05-30T15:56:25Z</time>
      </trkpt>
      <trkpt lat="49.43129" lon="4.0352">
        <ele>107</ele>
        <time>2019-05-30T15:56:26Z</time>
      </trkpt>
      <trkpt lat="49.43126" lon="4.03529">
        <ele>107</ele>
        <time>2019-05-30T15:56:27Z</time>
      </trkpt>
      <trkpt lat="49.43122" lon="4.03538">
        <ele>107</ele>
        <time>2019-05-30T15:56:28Z</time>
      </trkpt>
      <trkpt lat="49.43118" lon="4.03547">
        <ele>107</ele>
        <time>2019-05-30T15:56:29Z</time>
      </trkpt>
      <trkpt lat="49.43115" lon="4.03557">
        <ele>107</ele>
        <time>2019-05-30T15:56:30Z</time>
      </trkpt>
      <trkpt lat="49.43111" lon="4.03566">
        <ele>107</ele>
        <time>2019-05-30T15:56:31Z</time>
      </trkpt>
      <trkpt lat="49.43107" lon="4.03575">
        <ele>107</ele>
        <time>2019-05-30T15:56:32Z</time>
      </trkpt>
      <trkpt lat="49.43103" lon="4.03585">
        <ele>107</ele>
        <time>2019-05-30T15:56:33Z</time>
      </trkpt>
      <trkpt lat="49.43099" lon="4.03594">
        <ele>108</ele>
        <time>2019-05-30T15:56:34Z</time>
      </trkpt>
      <trkpt lat="49.43094" lon="4.03604">
        <ele>108</ele>
        <time>2019-05-30T15:56:35Z</time>
      </trkpt>
      <trkpt lat="49.4309" lon="4.03614">
        <ele>108</ele>
        <time>2019-05-30T15:56:36Z</time>
      </trkpt>
      <trkpt lat="49.43086" lon="4.03624">
        <ele>108</ele>
        <time>2019-05-30T15:56:37Z</time>
      </trkpt>
      <trkpt lat="49.43083" lon="4.03634">
        <ele>108</ele>
        <time>2019-05-30T15:56:38Z</time>
      </trkpt>
      <trkpt lat="49.43079" lon="4.03644">
        <ele>108</ele>
        <time>2019-05-30T15:56:39Z</time>
      </trkpt>
      <trkpt lat="49.43076" lon="4.03654">
        <ele>108</ele>
        <time>2019-05-30T15:56:40Z</time>
      </trkpt>
      <trkpt lat="49.43073" lon="4.03664">
        <ele>108</ele>
        <time>2019-05-30T15:56:41Z</time>
      </trkpt>
      <trkpt lat="49.4307" lon="4.03674">
        <ele>108</ele>
        <time>2019-05-30T15:56:42Z</time>
      </trkpt>
      <trkpt lat="49.43068" lon="4.03685">
        <ele>109</ele>
        <time>2019-05-30T15:56:43Z</time>
      </trkpt>
      <trkpt lat="49.43065" lon="4.03696">
        <ele>109</ele>
        <time>2019-05-30T15:56:44Z</time>
      </trkpt>
      <trkpt lat="49.43063" lon="4.03707">
        <ele>109</ele>
        <time>2019-05-30T15:56:45Z</time>
      </trkpt>
      <trkpt lat="49.43061" lon="4.03717">
        <ele>108</ele>
        <time>2019-05-30T15:56:46Z</time>
      </trkpt>
      <trkpt lat="49.43058" lon="4.03728">
        <ele>109</ele>
        <time>2019-05-30T15:56:47Z</time>
      </trkpt>
      <trkpt lat="49.43055" lon="4.03738">
        <ele>109</ele>
        <time>2019-05-30T15:56:48Z</time>
      </trkpt>
      <trkpt lat="49.43053" lon="4.03748">
        <ele>108</ele>
        <time>2019-05-30T15:56:49Z</time>
      </trkpt>
      <trkpt lat="49.4305" lon="4.03758">
        <ele>108</ele>
        <time>2019-05-30T15:56:50Z</time>
      </trkpt>
      <trkpt lat="49.43048" lon="4.03768">
        <ele>108</ele>
        <time>2019-05-30T15:56:51Z</time>
      </trkpt>
      <trkpt lat="49.43046" lon="4.03779">
        <ele>108</ele>
        <time>2019-05-30T15:56:52Z</time>
      </trkpt>
      <trkpt lat="49.43044" lon="4.03788">
        <ele>108</ele>
        <time>2019-05-30T15:56:53Z</time>
      </trkpt>
      <trkpt lat="49.43041" lon="4.03798">
        <ele>108</ele>
        <time>2019-05-30T15:56:54Z</time>
      </trkpt>
      <trkpt lat="49.43038" lon="4.03809">
        <ele>109</ele>
        <time>2019-05-30T15:56:55Z</time>
      </trkpt>
      <trkpt lat="49.43035" lon="4.03819">
        <ele>109</ele>
        <time>2019-05-30T15:56:56Z</time>
      </trkpt>
      <trkpt lat="49.43033" lon="4.03829">
        <ele>109</ele>
        <time>2019-05-30T15:56:57Z</time>
      </trkpt>
      <trkpt lat="49.43031" lon="4.03841">
        <ele>108</ele>
        <time>2019-05-30T15:56:58Z</time>
      </trkpt>
      <trkpt lat="49.43029" lon="4.03851">
        <ele>109</ele>
        <time>2019-05-30T15:56:59Z</time>
      </trkpt>
      <trkpt lat="49.43027" lon="4.03862">
        <ele>109</ele>
        <time>2019-05-30T15:57:00Z</time>
      </trkpt>
      <trkpt lat="49.43025" lon="4.03873">
        <ele>109</ele>
        <time>2019-05-30T15:57:01Z</time>
      </trkpt>
      <trkpt lat="49.43023" lon="4.03883">
        <ele>109</ele>
        <time>2019-05-30T15:57:02Z</time>
      </trkpt>
      <trkpt lat="49.43021" lon="4.03893">
        <ele>108</ele>
        <time>2019-05-30T15:57:03Z</time>
      </trkpt>
      <trkpt lat="49.43019" lon="4.03903">
        <ele>108</ele>
        <time>2019-05-30T15:57:04Z</time>
      </trkpt>
      <trkpt lat="49.43017" lon="4.03914">
        <ele>108</ele>
        <time>2019-05-30T15:57:05Z</time>
      </trkpt>
      <trkpt lat="49.43015" lon="4.03924">
        <ele>108</ele>
        <time>2019-05-30T15:57:06Z</time>
      </trkpt>
      <trkpt lat="49.43013" lon="4.03934">
        <ele>108</ele>
        <time>2019-05-30T15:57:07Z</time>
      </trkpt>
      <trkpt lat="49.43012" lon="4.03944">
        <ele>108</ele>
        <time>2019-05-30T15:57:08Z</time>
      </trkpt>
      <trkpt lat="49.43009" lon="4.03953">
        <ele>108</ele>
        <time>2019-05-30T15:57:09Z</time>
      </trkpt>
      <trkpt lat="49.43008" lon="4.03963">
        <ele>109</ele>
        <time>2019-05-30T15:57:10Z</time>
      </trkpt>
      <trkpt lat="49.43006" lon="4.03972">
        <ele>109</ele>
        <time>2019-05-30T15:57:11Z</time>
      </trkpt>
      <trkpt lat="49.43005" lon="4.03983">
        <ele>109</ele>
        <time>2019-05-30T15:57:12Z</time>
      </trkpt>
      <trkpt lat="49.43003" lon="4.03992">
        <ele>109</ele>
        <time>2019-05-30T15:57:13Z</time>
      </trkpt>
      <trkpt lat="49.43001" lon="4.04002">
        <ele>109</ele>
        <time>2019-05-30T15:57:14Z</time>
      </trkpt>
      <trkpt lat="49.42999" lon="4.04011">
        <ele>109</ele>
        <time>2019-05-30T15:57:15Z</time>
      </trkpt>
      <trkpt lat="49.42997" lon="4.04022">
        <ele>109</ele>
        <time>2019-05-30T15:57:16Z</time>
      </trkpt>
      <trkpt lat="49.42996" lon="4.04032">
        <ele>110</ele>
        <time>2019-05-30T15:57:17Z</time>
      </trkpt>
      <trkpt lat="49.42994" lon="4.04042">
        <ele>109</ele>
        <time>2019-05-30T15:57:18Z</time>
      </trkpt>
      <trkpt lat="49.42992" lon="4.04053">
        <ele>109</ele>
        <time>2019-05-30T15:57:19Z</time>
      </trkpt>
      <trkpt lat="49.42991" lon="4.04065">
        <ele>109</ele>
        <time>2019-05-30T15:57:20Z</time>
      </trkpt>
      <trkpt lat="49.42989" lon="4.04076">
        <ele>109</ele>
        <time>2019-05-30T15:57:21Z</time>
      </trkpt>
      <trkpt lat="49.42987" lon="4.04088">
        <ele>109</ele>
        <time>2019-05-30T15:57:22Z</time>
      </trkpt>
      <trkpt lat="49.42986" lon="4.041">
        <ele>109</ele>
        <time>2019-05-30T15:57:23Z</time>
      </trkpt>
      <trkpt lat="49.42983" lon="4.04113">
        <ele>109</ele>
        <time>2019-05-30T15:57:24Z</time>
      </trkpt>
      <trkpt lat="49.4298" lon="4.04125">
        <ele>109</ele>
        <time>2019-05-30T15:57:25Z</time>
      </trkpt>
      <trkpt lat="49.42977" lon="4.04137">
        <ele>109</ele>
        <time>2019-05-30T15:57:26Z</time>
      </trkpt>
      <trkpt lat="49.42975" lon="4.04148">
        <ele>109</ele>
        <time>2019-05-30T15:57:27Z</time>
      </trkpt>
      <trkpt lat="49.42972" lon="4.0416">
        <ele>109</ele>
        <time>2019-05-30T15:57:28Z</time>
      </trkpt>
      <trkpt lat="49.42968" lon="4.04171">
        <ele>109</ele>
        <time>2019-05-30T15:57:29Z</time>
      </trkpt>
      <trkpt lat="49.42966" lon="4.04183">
        <ele>109</ele>
        <time>2019-05-30T15:57:30Z</time>
      </trkpt>
      <trkpt lat="49.42963" lon="4.04195">
        <ele>109</ele>
        <time>2019-05-30T15:57:31Z</time>
      </trkpt>
      <trkpt lat="49.42961" lon="4.04206">
        <ele>109</ele>
        <time>2019-05-30T15:57:32Z</time>
      </trkpt>
      <trkpt lat="49.42959" lon="4.04217">
        <ele>108</ele>
        <time>2019-05-30T15:57:33Z</time>
      </trkpt>
      <trkpt lat="49.42956" lon="4.04228">
        <ele>108</ele>
        <time>2019-05-30T15:57:34Z</time>
      </trkpt>
      <trkpt lat="49.42953" lon="4.04239">
        <ele>108</ele>
        <time>2019-05-30T15:57:35Z</time>
      </trkpt>
      <trkpt lat="49.4295" lon="4.0425">
        <ele>108</ele>
        <time>2019-05-30T15:57:36Z</time>
      </trkpt>
      <trkpt lat="49.42947" lon="4.0426">
        <ele>108</ele>
        <time>2019-05-30T15:57:37Z</time>
      </trkpt>
      <trkpt lat="49.42944" lon="4.04271">
        <ele>108</ele>
        <time>2019-05-30T15:57:38Z</time>
      </trkpt>
      <trkpt lat="49.42941" lon="4.04282">
        <ele>108</ele>
        <time>2019-05-30T15:57:39Z</time>
      </trkpt>
      <trkpt lat="49.42937" lon="4.04292">
        <ele>108</ele>
        <time>2019-05-30T15:57:40Z</time>
      </trkpt>
      <trkpt lat="49.42934" lon="4.04303">
        <ele>108</ele>
        <time>2019-05-30T15:57:41Z</time>
      </trkpt>
      <trkpt lat="49.42931" lon="4.04314">
        <ele>108</ele>
        <time>2019-05-30T15:57:42Z</time>
      </trkpt>
      <trkpt lat="49.42927" lon="4.04324">
        <ele>108</ele>
        <time>2019-05-30T15:57:43Z</time>
      </trkpt>
      <trkpt lat="49.42924" lon="4.04334">
        <ele>107</ele>
        <time>2019-05-30T15:57:44Z</time>
      </trkpt>
      <trkpt lat="49.42921" lon="4.04344">
        <ele>107</ele>
        <time>2019-05-30T15:57:45Z</time>
      </trkpt>
      <trkpt lat="49.42916" lon="4.04353">
        <ele>108</ele>
        <time>2019-05-30T15:57:46Z</time>
      </trkpt>
      <trkpt lat="49.42911" lon="4.0436">
        <ele>108</ele>
        <time>2019-05-30T15:57:47Z</time>
      </trkpt>
      <trkpt lat="49.42905" lon="4.04366">
        <ele>108</ele>
        <time>2019-05-30T15:57:48Z</time>
      </trkpt>
      <trkpt lat="49.42898" lon="4.0437">
        <ele>107</ele>
        <time>2019-05-30T15:57:49Z</time>
      </trkpt>
      <trkpt lat="49.42892" lon="4.04374">
        <ele>107</ele>
        <time>2019-05-30T15:57:50Z</time>
      </trkpt>
      <trkpt lat="49.42885" lon="4.04376">
        <ele>107</ele>
        <time>2019-05-30T15:57:51Z</time>
      </trkpt>
      <trkpt lat="49.42879" lon="4.04376">
        <ele>107</ele>
        <time>2019-05-30T15:57:52Z</time>
      </trkpt>
      <trkpt lat="49.42872" lon="4.04376">
        <ele>107</ele>
        <time>2019-05-30T15:57:53Z</time>
      </trkpt>
      <trkpt lat="49.42866" lon="4.04376">
        <ele>107</ele>
        <time>2019-05-30T15:57:54Z</time>
      </trkpt>
      <trkpt lat="49.4286" lon="4.04378">
        <ele>108</ele>
        <time>2019-05-30T15:57:55Z</time>
      </trkpt>
      <trkpt lat="49.42855" lon="4.04383">
        <ele>108</ele>
        <time>2019-05-30T15:57:56Z</time>
      </trkpt>
      <trkpt lat="49.42852" lon="4.04394">
        <ele>108</ele>
        <time>2019-05-30T15:57:57Z</time>
      </trkpt>
      <trkpt lat="49.4285" lon="4.04405">
        <ele>108</ele>
        <time>2019-05-30T15:57:58Z</time>
      </trkpt>
      <trkpt lat="49.42849" lon="4.04417">
        <ele>108</ele>
        <time>2019-05-30T15:57:59Z</time>
      </trkpt>
      <trkpt lat="49.42849" lon="4.04428">
        <ele>108</ele>
        <time>2019-05-30T15:58:00Z</time>
      </trkpt>
      <trkpt lat="49.42848" lon="4.04439">
        <ele>107</ele>
        <time>2019-05-30T15:58:01Z</time>
      </trkpt>
      <trkpt lat="49.42848" lon="4.0445">
        <ele>107</ele>
        <time>2019-05-30T15:58:02Z</time>
      </trkpt>
      <trkpt lat="49.42846" lon="4.04461">
        <ele>107</ele>
        <time>2019-05-30T15:58:03Z</time>
      </trkpt>
      <trkpt lat="49.42846" lon="4.04472">
        <ele>106</ele>
        <time>2019-05-30T15:58:04Z</time>
      </trkpt>
      <trkpt lat="49.42846" lon="4.04482">
        <ele>106</ele>
        <time>2019-05-30T15:58:05Z</time>
      </trkpt>
      <trkpt lat="49.42846" lon="4.04492">
        <ele>107</ele>
        <time>2019-05-30T15:58:06Z</time>
      </trkpt>
      <trkpt lat="49.42846" lon="4.04503">
        <ele>107</ele>
        <time>2019-05-30T15:58:07Z</time>
      </trkpt>
      <trkpt lat="49.42847" lon="4.04514">
        <ele>107</ele>
        <time>2019-05-30T15:58:08Z</time>
      </trkpt>
      <trkpt lat="49.4285" lon="4.04525">
        <ele>107</ele>
        <time>2019-05-30T15:58:09Z</time>
      </trkpt>
      <trkpt lat="49.42853" lon="4.04536">
        <ele>107</ele>
        <time>2019-05-30T15:58:10Z</time>
      </trkpt>
      <trkpt lat="49.42856" lon="4.04546">
        <ele>107</ele>
        <time>2019-05-30T15:58:11Z</time>
      </trkpt>
      <trkpt lat="49.42859" lon="4.04557">
        <ele>107</ele>
        <time>2019-05-30T15:58:12Z</time>
      </trkpt>
      <trkpt lat="49.42863" lon="4.04566">
        <ele>107</ele>
        <time>2019-05-30T15:58:13Z</time>
      </trkpt>
      <trkpt lat="49.42868" lon="4.04575">
        <ele>106</ele>
        <time>2019-05-30T15:58:14Z</time>
      </trkpt>
      <trkpt lat="49.42874" lon="4.04583">
        <ele>106</ele>
        <time>2019-05-30T15:58:15Z</time>
      </trkpt>
      <trkpt lat="49.4288" lon="4.0459">
        <ele>107</ele>
        <time>2019-05-30T15:58:16Z</time>
      </trkpt>
      <trkpt lat="49.42886" lon="4.04597">
        <ele>107</ele>
        <time>2019-05-30T15:58:17Z</time>
      </trkpt>
      <trkpt lat="49.42893" lon="4.04602">
        <ele>107</ele>
        <time>2019-05-30T15:58:18Z</time>
      </trkpt>
      <trkpt lat="49.42901" lon="4.04606">
        <ele>107</ele>
        <time>2019-05-30T15:58:19Z</time>
      </trkpt>
      <trkpt lat="49.42908" lon="4.04609">
        <ele>107</ele>
        <time>2019-05-30T15:58:20Z</time>
      </trkpt>
      <trkpt lat="49.42916" lon="4.04612">
        <ele>107</ele>
        <time>2019-05-30T15:58:21Z</time>
      </trkpt>
      <trkpt lat="49.42923" lon="4.04614">
        <ele>107</ele>
        <time>2019-05-30T15:58:22Z</time>
      </trkpt>
      <trkpt lat="49.4293" lon="4.04616">
        <ele>106</ele>
        <time>2019-05-30T15:58:23Z</time>
      </trkpt>
      <trkpt lat="49.42937" lon="4.04618">
        <ele>106</ele>
        <time>2019-05-30T15:58:24Z</time>
      </trkpt>
      <trkpt lat="49.42944" lon="4.0462">
        <ele>106</ele>
        <time>2019-05-30T15:58:25Z</time>
      </trkpt>
      <trkpt lat="49.42951" lon="4.04622">
        <ele>106</ele>
        <time>2019-05-30T15:58:26Z</time>
      </trkpt>
      <trkpt lat="49.42958" lon="4.04624">
        <ele>106</ele>
        <time>2019-05-30T15:58:27Z</time>
      </trkpt>
      <trkpt lat="49.42966" lon="4.04627">
        <ele>106</ele>
        <time>2019-05-30T15:58:28Z</time>
      </trkpt>
      <trkpt lat="49.42973" lon="4.04629">
        <ele>106</ele>
        <time>2019-05-30T15:58:29Z</time>
      </trkpt>
      <trkpt lat="49.42981" lon="4.04632">
        <ele>106</ele>
        <time>2019-05-30T15:58:30Z</time>
      </trkpt>
      <trkpt lat="49.42988" lon="4.04634">
        <ele>106</ele>
        <time>2019-05-30T15:58:31Z</time>
      </trkpt>
      <trkpt lat="49.42996" lon="4.04637">
        <ele>106</ele>
        <time>2019-05-30T15:58:32Z</time>
      </trkpt>
      <trkpt lat="49.43004" lon="4.04639">
        <ele>106</ele>
        <time>2019-05-30T15:58:33Z</time>
      </trkpt>
      <trkpt lat="49.43012" lon="4.04642">
        <ele>106</ele>
        <time>2019-05-30T15:58:34Z</time>
      </trkpt>
      <trkpt lat="49.4302" lon="4.04644">
        <ele>105</ele>
        <time>2019-05-30T15:58:35Z</time>
      </trkpt>
      <trkpt lat="49.43028" lon="4.04646">
        <ele>105</ele>
        <time>2019-05-30T15:58:36Z</time>
      </trkpt>
      <trkpt lat="49.43036" lon="4.04649">
        <ele>105</ele>
        <time>2019-05-30T15:58:37Z</time>
      </trkpt>
      <trkpt lat="49.43043" lon="4.04651">
        <ele>105</ele>
        <time>2019-05-30T15:58:38Z</time>
      </trkpt>
      <trkpt lat="49.43051" lon="4.04654">
        <ele>105</ele>
        <time>2019-05-30T15:58:39Z</time>
      </trkpt>
      <trkpt lat="49.43059" lon="4.04655">
        <ele>105</ele>
        <time>2019-05-30T15:58:40Z</time>
      </trkpt>
      <trkpt lat="49.43066" lon="4.04657">
        <ele>105</ele>
        <time>2019-05-30T15:58:41Z</time>
      </trkpt>
      <trkpt lat="49.43074" lon="4.0466">
        <ele>105</ele>
        <time>2019-05-30T15:58:42Z</time>
      </trkpt>
      <trkpt lat="49.43082" lon="4.04662">
        <ele>105</ele>
        <time>2019-05-30T15:58:43Z</time>
      </trkpt>
      <trkpt lat="49.4309" lon="4.04665">
        <ele>105</ele>
        <time>2019-05-30T15:58:44Z</time>
      </trkpt>
      <trkpt lat="49.43098" lon="4.04667">
        <ele>105</ele>
        <time>2019-05-30T15:58:45Z</time>
      </trkpt>
      <trkpt lat="49.43106" lon="4.04669">
        <ele>105</ele>
        <time>2019-05-30T15:58:46Z</time>
      </trkpt>
      <trkpt lat="49.43113" lon="4.04672">
        <ele>105</ele>
        <time>2019-05-30T15:58:47Z</time>
      </trkpt>
      <trkpt lat="49.43121" lon="4.04674">
        <ele>105</ele>
        <time>2019-05-30T15:58:48Z</time>
      </trkpt>
      <trkpt lat="49.43128" lon="4.04676">
        <ele>105</ele>
        <time>2019-05-30T15:58:49Z</time>
      </trkpt>
      <trkpt lat="49.43136" lon="4.04678">
        <ele>105</ele>
        <time>2019-05-30T15:58:50Z</time>
      </trkpt>
      <trkpt lat="49.43144" lon="4.04681">
        <ele>106</ele>
        <time>2019-05-30T15:58:51Z</time>
      </trkpt>
      <trkpt lat="49.43151" lon="4.04683">
        <ele>106</ele>
        <time>2019-05-30T15:58:52Z</time>
      </trkpt>
      <trkpt lat="49.43158" lon="4.04686">
        <ele>106</ele>
        <time>2019-05-30T15:58:53Z</time>
      </trkpt>
      <trkpt lat="49.43166" lon="4.04688">
        <ele>106</ele>
        <time>2019-05-30T15:58:54Z</time>
      </trkpt>
      <trkpt lat="49.43173" lon="4.0469">
        <ele>106</ele>
        <time>2019-05-30T15:58:55Z</time>
      </trkpt>
      <trkpt lat="49.43181" lon="4.04692">
        <ele>106</ele>
        <time>2019-05-30T15:58:56Z</time>
      </trkpt>
      <trkpt lat="49.43188" lon="4.04694">
        <ele>105</ele>
        <time>2019-05-30T15:58:57Z</time>
      </trkpt>
      <trkpt lat="49.43195" lon="4.04695">
        <ele>106</ele>
        <time>2019-05-30T15:58:58Z</time>
      </trkpt>
      <trkpt lat="49.43202" lon="4.04698">
        <ele>106</ele>
        <time>2019-05-30T15:58:59Z</time>
      </trkpt>
      <trkpt lat="49.4321" lon="4.04699">
        <ele>105</ele>
        <time>2019-05-30T15:59:00Z</time>
      </trkpt>
      <trkpt lat="49.43217" lon="4.04701">
        <ele>105</ele>
        <time>2019-05-30T15:59:01Z</time>
      </trkpt>
      <trkpt lat="49.43224" lon="4.04704">
        <ele>105</ele>
        <time>2019-05-30T15:59:02Z</time>
      </trkpt>
      <trkpt lat="49.43232" lon="4.04706">
        <ele>105</ele>
        <time>2019-05-30T15:59:03Z</time>
      </trkpt>
      <trkpt lat="49.4324" lon="4.04708">
        <ele>105</ele>
        <time>2019-05-30T15:59:04Z</time>
      </trkpt>
      <trkpt lat="49.43247" lon="4.0471">
        <ele>105</ele>
        <time>2019-05-30T15:59:05Z</time>
      </trkpt>
      <trkpt lat="49.43255" lon="4.04712">
        <ele>105</ele>
        <time>2019-05-30T15:59:06Z</time>
      </trkpt>
      <trkpt lat="49.43262" lon="4.04715">
        <ele>105</ele>
        <time>2019-05-30T15:59:07Z</time>
      </trkpt>
      <trkpt lat="49.4327" lon="4.04717">
        <ele>105</ele>
        <time>2019-05-30T15:59:08Z</time>
      </trkpt>
      <trkpt lat="49.43277" lon="4.04719">
        <ele>105</ele>
        <time>2019-05-30T15:59:09Z</time>
      </trkpt>
      <trkpt lat="49.43284" lon="4.04721">
        <ele>105</ele>
        <time>2019-05-30T15:59:10Z</time>
      </trkpt>
      <trkpt lat="49.43291" lon="4.04724">
        <ele>106</ele>
        <time>2019-05-30T15:59:11Z</time>
      </trkpt>
      <trkpt lat="49.43298" lon="4.04728">
        <ele>106</ele>
        <time>2019-05-30T15:59:12Z</time>
      </trkpt>
      <trkpt lat="49.43311" lon="4.04738">
        <ele>105</ele>
        <time>2019-05-30T15:59:14Z</time>
      </trkpt>
      <trkpt lat="49.43316" lon="4.04744">
        <ele>105</ele>
        <time>2019-05-30T15:59:15Z</time>
      </trkpt>
      <trkpt lat="49.43321" lon="4.04751">
        <ele>106</ele>
        <time>2019-05-30T15:59:16Z</time>
      </trkpt>
      <trkpt lat="49.43326" lon="4.04758">
        <ele>106</ele>
        <time>2019-05-30T15:59:17Z</time>
      </trkpt>
      <trkpt lat="49.4333" lon="4.04766">
        <ele>106</ele>
        <time>2019-05-30T15:59:18Z</time>
      </trkpt>
      <trkpt lat="49.43335" lon="4.04774">
        <ele>106</ele>
        <time>2019-05-30T15:59:19Z</time>
      </trkpt>
      <trkpt lat="49.4334" lon="4.04783">
        <ele>106</ele>
        <time>2019-05-30T15:59:20Z</time>
      </trkpt>
      <trkpt lat="49.43345" lon="4.04791">
        <ele>106</ele>
        <time>2019-05-30T15:59:21Z</time>
      </trkpt>
      <trkpt lat="49.43349" lon="4.04799">
        <ele>107</ele>
        <time>2019-05-30T15:59:22Z</time>
      </trkpt>
      <trkpt lat="49.43353" lon="4.04808">
        <ele>107</ele>
        <time>2019-05-30T15:59:23Z</time>
      </trkpt>
      <trkpt lat="49.43357" lon="4.04816">
        <ele>107</ele>
        <time>2019-05-30T15:59:24Z</time>
      </trkpt>
      <trkpt lat="49.43362" lon="4.04824">
        <ele>107</ele>
        <time>2019-05-30T15:59:25Z</time>
      </trkpt>
      <trkpt lat="49.43366" lon="4.04833">
        <ele>107</ele>
        <time>2019-05-30T15:59:26Z</time>
      </trkpt>
      <trkpt lat="49.43369" lon="4.04842">
        <ele>107</ele>
        <time>2019-05-30T15:59:27Z</time>
      </trkpt>
      <trkpt lat="49.43371" lon="4.04852">
        <ele>108</ele>
        <time>2019-05-30T15:59:28Z</time>
      </trkpt>
      <trkpt lat="49.43373" lon="4.04862">
        <ele>108</ele>
        <time>2019-05-30T15:59:29Z</time>
      </trkpt>
      <trkpt lat="49.43374" lon="4.04872">
        <ele>108</ele>
        <time>2019-05-30T15:59:30Z</time>
      </trkpt>
      <trkpt lat="49.43373" lon="4.04883">
        <ele>108</ele>
        <time>2019-05-30T15:59:31Z</time>
      </trkpt>
      <trkpt lat="49.43373" lon="4.04893">
        <ele>107</ele>
        <time>2019-05-30T15:59:32Z</time>
      </trkpt>
      <trkpt lat="49.43371" lon="4.04903">
        <ele>107</ele>
        <time>2019-05-30T15:59:33Z</time>
      </trkpt>
      <trkpt lat="49.43369" lon="4.04914">
        <ele>108</ele>
        <time>2019-05-30T15:59:34Z</time>
      </trkpt>
      <trkpt lat="49.43367" lon="4.04924">
        <ele>108</ele>
        <time>2019-05-30T15:59:35Z</time>
      </trkpt>
      <trkpt lat="49.43365" lon="4.04934">
        <ele>108</ele>
        <time>2019-05-30T15:59:36Z</time>
      </trkpt>
      <trkpt lat="49.43362" lon="4.04944">
        <ele>108</ele>
        <time>2019-05-30T15:59:37Z</time>
      </trkpt>
      <trkpt lat="49.4336" lon="4.04954">
        <ele>108</ele>
        <time>2019-05-30T15:59:38Z</time>
      </trkpt>
      <trkpt lat="49.43358" lon="4.04964">
        <ele>108</ele>
        <time>2019-05-30T15:59:39Z</time>
      </trkpt>
      <trkpt lat="49.43357" lon="4.04974">
        <ele>108</ele>
        <time>2019-05-30T15:59:40Z</time>
      </trkpt>
      <trkpt lat="49.43355" lon="4.04983">
        <ele>108</ele>
        <time>2019-05-30T15:59:41Z</time>
      </trkpt>
      <trkpt lat="49.43353" lon="4.04993">
        <ele>109</ele>
        <time>2019-05-30T15:59:42Z</time>
      </trkpt>
      <trkpt lat="49.43351" lon="4.05002">
        <ele>109</ele>
        <time>2019-05-30T15:59:43Z</time>
      </trkpt>
      <trkpt lat="49.4335" lon="4.0501">
        <ele>108</ele>
        <time>2019-05-30T15:59:44Z</time>
      </trkpt>
      <trkpt lat="49.43348" lon="4.0502">
        <ele>109</ele>
        <time>2019-05-30T15:59:45Z</time>
      </trkpt>
      <trkpt lat="49.43346" lon="4.05029">
        <ele>109</ele>
        <time>2019-05-30T15:59:46Z</time>
      </trkpt>
      <trkpt lat="49.43344" lon="4.05038">
        <ele>109</ele>
        <time>2019-05-30T15:59:47Z</time>
      </trkpt>
      <trkpt lat="49.43342" lon="4.05047">
        <ele>109</ele>
        <time>2019-05-30T15:59:48Z</time>
      </trkpt>
      <trkpt lat="49.43339" lon="4.05057">
        <ele>109</ele>
        <time>2019-05-30T15:59:49Z</time>
      </trkpt>
      <trkpt lat="49.43337" lon="4.05066">
        <ele>109</ele>
        <time>2019-05-30T15:59:50Z</time>
      </trkpt>
      <trkpt lat="49.43335" lon="4.05075">
        <ele>109</ele>
        <time>2019-05-30T15:59:51Z</time>
      </trkpt>
      <trkpt lat="49.43333" lon="4.05084">
        <ele>109</ele>
        <time>2019-05-30T15:59:52Z</time>
      </trkpt>
      <trkpt lat="49.43331" lon="4.05094">
        <ele>109</ele>
        <time>2019-05-30T15:59:53Z</time>
      </trkpt>
      <trkpt lat="49.43329" lon="4.05104">
        <ele>110</ele>
        <time>2019-05-30T15:59:54Z</time>
      </trkpt>
      <trkpt lat="49.43326" lon="4.05113">
        <ele>110</ele>
        <time>2019-05-30T15:59:55Z</time>
      </trkpt>
      <trkpt lat="49.43324" lon="4.05124">
        <ele>110</ele>
        <time>2019-05-30T15:59:56Z</time>
      </trkpt>
      <trkpt lat="49.43321" lon="4.05134">
        <ele>110</ele>
        <time>2019-05-30T15:59:57Z</time>
      </trkpt>
      <trkpt lat="49.43319" lon="4.05144">
        <ele>109</ele>
        <time>2019-05-30T15:59:58Z</time>
      </trkpt>
      <trkpt lat="49.43316" lon="4.05155">
        <ele>109</ele>
        <time>2019-05-30T15:59:59Z</time>
      </trkpt>
      <trkpt lat="49.43314" lon="4.05166">
        <ele>109</ele>
        <time>2019-05-30T16:00:00Z</time>
      </trkpt>
      <trkpt lat="49.43312" lon="4.05177">
        <ele>109</ele>
        <time>2019-05-30T16:00:01Z</time>
      </trkpt>
      <trkpt lat="49.4331" lon="4.05189">
        <ele>109</ele>
        <time>2019-05-30T16:00:02Z</time>
      </trkpt>
      <trkpt lat="49.43308" lon="4.052">
        <ele>108</ele>
        <time>2019-05-30T16:00:03Z</time>
      </trkpt>
      <trkpt lat="49.43306" lon="4.05212">
        <ele>108</ele>
        <time>2019-05-30T16:00:04Z</time>
      </trkpt>
      <trkpt lat="49.43305" lon="4.05223">
        <ele>108</ele>
        <time>2019-05-30T16:00:05Z</time>
      </trkpt>
      <trkpt lat="49.43302" lon="4.05235">
        <ele>108</ele>
        <time>2019-05-30T16:00:06Z</time>
      </trkpt>
      <trkpt lat="49.433" lon="4.05247">
        <ele>108</ele>
        <time>2019-05-30T16:00:07Z</time>
      </trkpt>
      <trkpt lat="49.43298" lon="4.05258">
        <ele>109</ele>
        <time>2019-05-30T16:00:08Z</time>
      </trkpt>
      <trkpt lat="49.43295" lon="4.05269">
        <ele>109</ele>
        <time>2019-05-30T16:00:09Z</time>
      </trkpt>
      <trkpt lat="49.43292" lon="4.05281">
        <ele>108</ele>
        <time>2019-05-30T16:00:10Z</time>
      </trkpt>
      <trkpt lat="49.43289" lon="4.05293">
        <ele>108</ele>
        <time>2019-05-30T16:00:11Z</time>
      </trkpt>
      <trkpt lat="49.43286" lon="4.05305">
        <ele>108</ele>
        <time>2019-05-30T16:00:12Z</time>
      </trkpt>
      <trkpt lat="49.43283" lon="4.05316">
        <ele>108</ele>
        <time>2019-05-30T16:00:13Z</time>
      </trkpt>
      <trkpt lat="49.4328" lon="4.05329">
        <ele>108</ele>
        <time>2019-05-30T16:00:14Z</time>
      </trkpt>
      <trkpt lat="49.43277" lon="4.05341">
        <ele>108</ele>
        <time>2019-05-30T16:00:15Z</time>
      </trkpt>
      <trkpt lat="49.43274" lon="4.05352">
        <ele>109</ele>
        <time>2019-05-30T16:00:16Z</time>
      </trkpt>
      <trkpt lat="49.43271" lon="4.05363">
        <ele>109</ele>
        <time>2019-05-30T16:00:17Z</time>
      </trkpt>
      <trkpt lat="49.43268" lon="4.05374">
        <ele>109</ele>
        <time>2019-05-30T16:00:18Z</time>
      </trkpt>
      <trkpt lat="49.43266" lon="4.05385">
        <ele>109</ele>
        <time>2019-05-30T16:00:19Z</time>
      </trkpt>
      <trkpt lat="49.43263" lon="4.05397">
        <ele>109</ele>
        <time>2019-05-30T16:00:20Z</time>
      </trkpt>
      <trkpt lat="49.43261" lon="4.05407">
        <ele>109</ele>
        <time>2019-05-30T16:00:21Z</time>
      </trkpt>
      <trkpt lat="49.43257" lon="4.05417">
        <ele>109</ele>
        <time>2019-05-30T16:00:22Z</time>
      </trkpt>
      <trkpt lat="49.43254" lon="4.05426">
        <ele>109</ele>
        <time>2019-05-30T16:00:23Z</time>
      </trkpt>
      <trkpt lat="49.4325" lon="4.05437">
        <ele>109</ele>
        <time>2019-05-30T16:00:24Z</time>
      </trkpt>
      <trkpt lat="49.43247" lon="4.05447">
        <ele>110</ele>
        <time>2019-05-30T16:00:25Z</time>
      </trkpt>
      <trkpt lat="49.43245" lon="4.05457">
        <ele>110</ele>
        <time>2019-05-30T16:00:26Z</time>
      </trkpt>
      <trkpt lat="49.43243" lon="4.05467">
        <ele>110</ele>
        <time>2019-05-30T16:00:27Z</time>
      </trkpt>
      <trkpt lat="49.43241" lon="4.05478">
        <ele>110</ele>
        <time>2019-05-30T16:00:28Z</time>
      </trkpt>
      <trkpt lat="49.43237" lon="4.05488">
        <ele>109</ele>
        <time>2019-05-30T16:00:29Z</time>
      </trkpt>
      <trkpt lat="49.43233" lon="4.05497">
        <ele>109</ele>
        <time>2019-05-30T16:00:30Z</time>
      </trkpt>
      <trkpt lat="49.43229" lon="4.05506">
        <ele>109</ele>
        <time>2019-05-30T16:00:31Z</time>
      </trkpt>
      <trkpt lat="49.43226" lon="4.05516">
        <ele>109</ele>
        <time>2019-05-30T16:00:32Z</time>
      </trkpt>
      <trkpt lat="49.43222" lon="4.05526">
        <ele>108</ele>
        <time>2019-05-30T16:00:33Z</time>
      </trkpt>
      <trkpt lat="49.43218" lon="4.05536">
        <ele>108</ele>
        <time>2019-05-30T16:00:34Z</time>
      </trkpt>
      <trkpt lat="49.43215" lon="4.05545">
        <ele>109</ele>
        <time>2019-05-30T16:00:35Z</time>
      </trkpt>
      <trkpt lat="49.43212" lon="4.05555">
        <ele>109</ele>
        <time>2019-05-30T16:00:36Z</time>
      </trkpt>
      <trkpt lat="49.43209" lon="4.05565">
        <ele>109</ele>
        <time>2019-05-30T16:00:37Z</time>
      </trkpt>
      <trkpt lat="49.43205" lon="4.05574">
        <ele>109</ele>
        <time>2019-05-30T16:00:38Z</time>
      </trkpt>
      <trkpt lat="49.43202" lon="4.05584">
        <ele>108</ele>
        <time>2019-05-30T16:00:39Z</time>
      </trkpt>
      <trkpt lat="49.43199" lon="4.05594">
        <ele>108</ele>
        <time>2019-05-30T16:00:40Z</time>
      </trkpt>
      <trkpt lat="49.43196" lon="4.05604">
        <ele>108</ele>
        <time>2019-05-30T16:00:41Z</time>
      </trkpt>
      <trkpt lat="49.43192" lon="4.05613">
        <ele>108</ele>
        <time>2019-05-30T16:00:42Z</time>
      </trkpt>
      <trkpt lat="49.43189" lon="4.05623">
        <ele>108</ele>
        <time>2019-05-30T16:00:43Z</time>
      </trkpt>
      <trkpt lat="49.43186" lon="4.05633">
        <ele>108</ele>
        <time>2019-05-30T16:00:44Z</time>
      </trkpt>
      <trkpt lat="49.43183" lon="4.05643">
        <ele>108</ele>
        <time>2019-05-30T16:00:45Z</time>
      </trkpt>
      <trkpt lat="49.43181" lon="4.05653">
        <ele>108</ele>
        <time>2019-05-30T16:00:46Z</time>
      </trkpt>
      <trkpt lat="49.43177" lon="4.05663">
        <ele>107</ele>
        <time>2019-05-30T16:00:47Z</time>
      </trkpt>
      <trkpt lat="49.43174" lon="4.05672">
        <ele>108</ele>
        <time>2019-05-30T16:00:48Z</time>
      </trkpt>
      <trkpt lat="49.43171" lon="4.05682">
        <ele>108</ele>
        <time>2019-05-30T16:00:49Z</time>
      </trkpt>
      <trkpt lat="49.43169" lon="4.05693">
        <ele>108</ele>
        <time>2019-05-30T16:00:50Z</time>
      </trkpt>
      <trkpt lat="49.43166" lon="4.05703">
        <ele>108</ele>
        <time>2019-05-30T16:00:51Z</time>
      </trkpt>
      <trkpt lat="49.43164" lon="4.05714">
        <ele>107</ele>
        <time>2019-05-30T16:00:52Z</time>
      </trkpt>
      <trkpt lat="49.43162" lon="4.05725">
        <ele>107</ele>
        <time>2019-05-30T16:00:53Z</time>
      </trkpt>
      <trkpt lat="49.43159" lon="4.05736">
        <ele>107</ele>
        <time>2019-05-30T16:00:54Z</time>
      </trkpt>
      <trkpt lat="49.43157" lon="4.05746">
        <ele>106</ele>
        <time>2019-05-30T16:00:55Z</time>
      </trkpt>
      <trkpt lat="49.43155" lon="4.05757">
        <ele>106</ele>
        <time>2019-05-30T16:00:56Z</time>
      </trkpt>
      <trkpt lat="49.43153" lon="4.05767">
        <ele>106</ele>
        <time>2019-05-30T16:00:57Z</time>
      </trkpt>
      <trkpt lat="49.43151" lon="4.05778">
        <ele>106</ele>
        <time>2019-05-30T16:00:58Z</time>
      </trkpt>
      <trkpt lat="49.43149" lon="4.05789">
        <ele>106</ele>
        <time>2019-05-30T16:00:59Z</time>
      </trkpt>
      <trkpt lat="49.43147" lon="4.05801">
        <ele>105</ele>
        <time>2019-05-30T16:01:00Z</time>
      </trkpt>
      <trkpt lat="49.43144" lon="4.05812">
        <ele>105</ele>
        <time>2019-05-30T16:01:01Z</time>
      </trkpt>
      <trkpt lat="49.43142" lon="4.05823">
        <ele>105</ele>
        <time>2019-05-30T16:01:02Z</time>
      </trkpt>
      <trkpt lat="49.4314" lon="4.05834">
        <ele>105</ele>
        <time>2019-05-30T16:01:03Z</time>
      </trkpt>
      <trkpt lat="49.43137" lon="4.05845">
        <ele>105</ele>
        <time>2019-05-30T16:01:04Z</time>
      </trkpt>
      <trkpt lat="49.43135" lon="4.05856">
        <ele>106</ele>
        <time>2019-05-30T16:01:05Z</time>
      </trkpt>
      <trkpt lat="49.43134" lon="4.05867">
        <ele>106</ele>
        <time>2019-05-30T16:01:06Z</time>
      </trkpt>
      <trkpt lat="49.43132" lon="4.05878">
        <ele>106</ele>
        <time>2019-05-30T16:01:07Z</time>
      </trkpt>
      <trkpt lat="49.43129" lon="4.05888">
        <ele>106</ele>
        <time>2019-05-30T16:01:08Z</time>
      </trkpt>
      <trkpt lat="49.43127" lon="4.05899">
        <ele>106</ele>
        <time>2019-05-30T16:01:09Z</time>
      </trkpt>
      <trkpt lat="49.43126" lon="4.0591">
        <ele>107</ele>
        <time>2019-05-30T16:01:10Z</time>
      </trkpt>
      <trkpt lat="49.43124" lon="4.05921">
        <ele>107</ele>
        <time>2019-05-30T16:01:11Z</time>
      </trkpt>
      <trkpt lat="49.43122" lon="4.05932">
        <ele>107</ele>
        <time>2019-05-30T16:01:12Z</time>
      </trkpt>
      <trkpt lat="49.43119" lon="4.05943">
        <ele>107</ele>
        <time>2019-05-30T16:01:13Z</time>
      </trkpt>
      <trkpt lat="49.43117" lon="4.05953">
        <ele>108</ele>
        <time>2019-05-30T16:01:14Z</time>
      </trkpt>
      <trkpt lat="49.43115" lon="4.05963">
        <ele>108</ele>
        <time>2019-05-30T16:01:15Z</time>
      </trkpt>
      <trkpt lat="49.43112" lon="4.05972">
        <ele>108</ele>
        <time>2019-05-30T16:01:16Z</time>
      </trkpt>
      <trkpt lat="49.43111" lon="4.05982">
        <ele>108</ele>
        <time>2019-05-30T16:01:17Z</time>
      </trkpt>
      <trkpt lat="49.43109" lon="4.05991">
        <ele>108</ele>
        <time>2019-05-30T16:01:18Z</time>
      </trkpt>
      <trkpt lat="49.43106" lon="4.06">
        <ele>108</ele>
        <time>2019-05-30T16:01:19Z</time>
      </trkpt>
      <trkpt lat="49.43105" lon="4.06009">
        <ele>108</ele>
        <time>2019-05-30T16:01:20Z</time>
      </trkpt>
      <trkpt lat="49.43103" lon="4.06018">
        <ele>108</ele>
        <time>2019-05-30T16:01:21Z</time>
      </trkpt>
      <trkpt lat="49.431" lon="4.06027">
        <ele>108</ele>
        <time>2019-05-30T16:01:22Z</time>
      </trkpt>
      <trkpt lat="49.43098" lon="4.06036">
        <ele>108</ele>
        <time>2019-05-30T16:01:23Z</time>
      </trkpt>
      <trkpt lat="49.43097" lon="4.06044">
        <ele>109</ele>
        <time>2019-05-30T16:01:24Z</time>
      </trkpt>
      <trkpt lat="49.43095" lon="4.06053">
        <ele>109</ele>
        <time>2019-05-30T16:01:25Z</time>
      </trkpt>
      <trkpt lat="49.43093" lon="4.06063">
        <ele>109</ele>
        <time>2019-05-30T16:01:26Z</time>
      </trkpt>
      <trkpt lat="49.43091" lon="4.06071">
        <ele>109</ele>
        <time>2019-05-30T16:01:27Z</time>
      </trkpt>
      <trkpt lat="49.43089" lon="4.0608">
        <ele>109</ele>
        <time>2019-05-30T16:01:28Z</time>
      </trkpt>
      <trkpt lat="49.43087" lon="4.06089">
        <ele>109</ele>
        <time>2019-05-30T16:01:29Z</time>
      </trkpt>
      <trkpt lat="49.43085" lon="4.06098">
        <ele>109</ele>
        <time>2019-05-30T16:01:30Z</time>
      </trkpt>
      <trkpt lat="49.43082" lon="4.06106">
        <ele>109</ele>
        <time>2019-05-30T16:01:31Z</time>
      </trkpt>
      <trkpt lat="49.4308" lon="4.06115">
        <ele>109</ele>
        <time>2019-05-30T16:01:32Z</time>
      </trkpt>
      <trkpt lat="49.43078" lon="4.06124">
        <ele>109</ele>
        <time>2019-05-30T16:01:33Z</time>
      </trkpt>
      <trkpt lat="49.43075" lon="4.06132">
        <ele>110</ele>
        <time>2019-05-30T16:01:34Z</time>
      </trkpt>
      <trkpt lat="49.43073" lon="4.06141">
        <ele>110</ele>
        <time>2019-05-30T16:01:35Z</time>
      </trkpt>
      <trkpt lat="49.4307" lon="4.06149">
        <ele>110</ele>
        <time>2019-05-30T16:01:36Z</time>
      </trkpt>
      <trkpt lat="49.43067" lon="4.06158">
        <ele>110</ele>
        <time>2019-05-30T16:01:37Z</time>
      </trkpt>
      <trkpt lat="49.43065" lon="4.06166">
        <ele>110</ele>
        <time>2019-05-30T16:01:38Z</time>
      </trkpt>
      <trkpt lat="49.43062" lon="4.06174">
        <ele>110</ele>
        <time>2019-05-30T16:01:39Z</time>
      </trkpt>
      <trkpt lat="49.43059" lon="4.06182">
        <ele>110</ele>
        <time>2019-05-30T16:01:40Z</time>
      </trkpt>
      <trkpt lat="49.43056" lon="4.0619">
        <ele>110</ele>
        <time>2019-05-30T16:01:41Z</time>
      </trkpt>
      <trkpt lat="49.43053" lon="4.06198">
        <ele>110</ele>
        <time>2019-05-30T16:01:42Z</time>
      </trkpt>
      <trkpt lat="49.4305" lon="4.06206">
        <ele>110</ele>
        <time>2019-05-30T16:01:43Z</time>
      </trkpt>
      <trkpt lat="49.43046" lon="4.06214">
        <ele>110</ele>
        <time>2019-05-30T16:01:44Z</time>
      </trkpt>
      <trkpt lat="49.43042" lon="4.06221">
        <ele>111</ele>
        <time>2019-05-30T16:01:45Z</time>
      </trkpt>
      <trkpt lat="49.43039" lon="4.06229">
        <ele>111</ele>
        <time>2019-05-30T16:01:46Z</time>
      </trkpt>
      <trkpt lat="49.43035" lon="4.06237">
        <ele>111</ele>
        <time>2019-05-30T16:01:47Z</time>
      </trkpt>
      <trkpt lat="49.43031" lon="4.06244">
        <ele>111</ele>
        <time>2019-05-30T16:01:48Z</time>
      </trkpt>
      <trkpt lat="49.43027" lon="4.06252">
        <ele>111</ele>
        <time>2019-05-30T16:01:49Z</time>
      </trkpt>
      <trkpt lat="49.43023" lon="4.0626">
        <ele>111</ele>
        <time>2019-05-30T16:01:50Z</time>
      </trkpt>
      <trkpt lat="49.43019" lon="4.06268">
        <ele>111</ele>
        <time>2019-05-30T16:01:51Z</time>
      </trkpt>
      <trkpt lat="49.43015" lon="4.06276">
        <ele>111</ele>
        <time>2019-05-30T16:01:52Z</time>
      </trkpt>
      <trkpt lat="49.43011" lon="4.06284">
        <ele>111</ele>
        <time>2019-05-30T16:01:53Z</time>
      </trkpt>
      <trkpt lat="49.43006" lon="4.06292">
        <ele>111</ele>
        <time>2019-05-30T16:01:54Z</time>
      </trkpt>
      <trkpt lat="49.43002" lon="4.06301">
        <ele>111</ele>
        <time>2019-05-30T16:01:55Z</time>
      </trkpt>
      <trkpt lat="49.42998" lon="4.06309">
        <ele>111</ele>
        <time>2019-05-30T16:01:56Z</time>
      </trkpt>
      <trkpt lat="49.42993" lon="4.06318">
        <ele>111</ele>
        <time>2019-05-30T16:01:57Z</time>
      </trkpt>
      <trkpt lat="49.42989" lon="4.06327">
        <ele>111</ele>
        <time>2019-05-30T16:01:58Z</time>
      </trkpt>
      <trkpt lat="49.42984" lon="4.06336">
        <ele>111</ele>
        <time>2019-05-30T16:01:59Z</time>
      </trkpt>
      <trkpt lat="49.4298" lon="4.06344">
        <ele>110</ele>
        <time>2019-05-30T16:02:00Z</time>
      </trkpt>
      <trkpt lat="49.42976" lon="4.06353">
        <ele>110</ele>
        <time>2019-05-30T16:02:01Z</time>
      </trkpt>
      <trkpt lat="49.42972" lon="4.06363">
        <ele>110</ele>
        <time>2019-05-30T16:02:02Z</time>
      </trkpt>
      <trkpt lat="49.42967" lon="4.06372">
        <ele>110</ele>
        <time>2019-05-30T16:02:03Z</time>
      </trkpt>
      <trkpt lat="49.42963" lon="4.0638">
        <ele>110</ele>
        <time>2019-05-30T16:02:04Z</time>
      </trkpt>
      <trkpt lat="49.42958" lon="4.06389">
        <ele>110</ele>
        <time>2019-05-30T16:02:05Z</time>
      </trkpt>
      <trkpt lat="49.42953" lon="4.06399">
        <ele>110</ele>
        <time>2019-05-30T16:02:06Z</time>
      </trkpt>
      <trkpt lat="49.42948" lon="4.06408">
        <ele>110</ele>
        <time>2019-05-30T16:02:07Z</time>
      </trkpt>
      <trkpt lat="49.42944" lon="4.06417">
        <ele>110</ele>
        <time>2019-05-30T16:02:08Z</time>
      </trkpt>
      <trkpt lat="49.42939" lon="4.06426">
        <ele>110</ele>
        <time>2019-05-30T16:02:09Z</time>
      </trkpt>
      <trkpt lat="49.42934" lon="4.06436">
        <ele>110</ele>
        <time>2019-05-30T16:02:10Z</time>
      </trkpt>
      <trkpt lat="49.42929" lon="4.06445">
        <ele>110</ele>
        <time>2019-05-30T16:02:11Z</time>
      </trkpt>
      <trkpt lat="49.42923" lon="4.06455">
        <ele>110</ele>
        <time>2019-05-30T16:02:12Z</time>
      </trkpt>
      <trkpt lat="49.42918" lon="4.06465">
        <ele>109</ele>
        <time>2019-05-30T16:02:13Z</time>
      </trkpt>
      <trkpt lat="49.42913" lon="4.06474">
        <ele>109</ele>
        <time>2019-05-30T16:02:14Z</time>
      </trkpt>
      <trkpt lat="49.42908" lon="4.06484">
        <ele>109</ele>
        <time>2019-05-30T16:02:15Z</time>
      </trkpt>
      <trkpt lat="49.42903" lon="4.06494">
        <ele>109</ele>
        <time>2019-05-30T16:02:16Z</time>
      </trkpt>
      <trkpt lat="49.42898" lon="4.06503">
        <ele>109</ele>
        <time>2019-05-30T16:02:17Z</time>
      </trkpt>
      <trkpt lat="49.42892" lon="4.06512">
        <ele>109</ele>
        <time>2019-05-30T16:02:18Z</time>
      </trkpt>
      <trkpt lat="49.42887" lon="4.06522">
        <ele>109</ele>
        <time>2019-05-30T16:02:19Z</time>
      </trkpt>
      <trkpt lat="49.42882" lon="4.06533">
        <ele>109</ele>
        <time>2019-05-30T16:02:20Z</time>
      </trkpt>
      <trkpt lat="49.42877" lon="4.06542">
        <ele>109</ele>
        <time>2019-05-30T16:02:21Z</time>
      </trkpt>
      <trkpt lat="49.42872" lon="4.06552">
        <ele>108</ele>
        <time>2019-05-30T16:02:22Z</time>
      </trkpt>
      <trkpt lat="49.42867" lon="4.06562">
        <ele>109</ele>
        <time>2019-05-30T16:02:23Z</time>
      </trkpt>
      <trkpt lat="49.42861" lon="4.06572">
        <ele>108</ele>
        <time>2019-05-30T16:02:24Z</time>
      </trkpt>
      <trkpt lat="49.42856" lon="4.06582">
        <ele>108</ele>
        <time>2019-05-30T16:02:25Z</time>
      </trkpt>
      <trkpt lat="49.42852" lon="4.06592">
        <ele>108</ele>
        <time>2019-05-30T16:02:26Z</time>
      </trkpt>
      <trkpt lat="49.42847" lon="4.06602">
        <ele>108</ele>
        <time>2019-05-30T16:02:27Z</time>
      </trkpt>
      <trkpt lat="49.42841" lon="4.06612">
        <ele>108</ele>
        <time>2019-05-30T16:02:28Z</time>
      </trkpt>
      <trkpt lat="49.42836" lon="4.06621">
        <ele>108</ele>
        <time>2019-05-30T16:02:29Z</time>
      </trkpt>
      <trkpt lat="49.42831" lon="4.06631">
        <ele>108</ele>
        <time>2019-05-30T16:02:30Z</time>
      </trkpt>
      <trkpt lat="49.42826" lon="4.06641">
        <ele>108</ele>
        <time>2019-05-30T16:02:31Z</time>
      </trkpt>
      <trkpt lat="49.4282" lon="4.06651">
        <ele>108</ele>
        <time>2019-05-30T16:02:32Z</time>
      </trkpt>
      <trkpt lat="49.42815" lon="4.06661">
        <ele>108</ele>
        <time>2019-05-30T16:02:33Z</time>
      </trkpt>
      <trkpt lat="49.42809" lon="4.06671">
        <ele>107</ele>
        <time>2019-05-30T16:02:34Z</time>
      </trkpt>
      <trkpt lat="49.42804" lon="4.06681">
        <ele>107</ele>
        <time>2019-05-30T16:02:35Z</time>
      </trkpt>
      <trkpt lat="49.42799" lon="4.06692">
        <ele>107</ele>
        <time>2019-05-30T16:02:36Z</time>
      </trkpt>
      <trkpt lat="49.42794" lon="4.06703">
        <ele>107</ele>
        <time>2019-05-30T16:02:37Z</time>
      </trkpt>
      <trkpt lat="49.42789" lon="4.06714">
        <ele>107</ele>
        <time>2019-05-30T16:02:38Z</time>
      </trkpt>
      <trkpt lat="49.42784" lon="4.06725">
        <ele>107</ele>
        <time>2019-05-30T16:02:39Z</time>
      </trkpt>
      <trkpt lat="49.42779" lon="4.06737">
        <ele>107</ele>
        <time>2019-05-30T16:02:40Z</time>
      </trkpt>
      <trkpt lat="49.42775" lon="4.06749">
        <ele>107</ele>
        <time>2019-05-30T16:02:41Z</time>
      </trkpt>
      <trkpt lat="49.42772" lon="4.06761">
        <ele>107</ele>
        <time>2019-05-30T16:02:42Z</time>
      </trkpt>
      <trkpt lat="49.42768" lon="4.06774">
        <ele>107</ele>
        <time>2019-05-30T16:02:43Z</time>
      </trkpt>
      <trkpt lat="49.42764" lon="4.06786">
        <ele>107</ele>
        <time>2019-05-30T16:02:44Z</time>
      </trkpt>
      <trkpt lat="49.42761" lon="4.06799">
        <ele>107</ele>
        <time>2019-05-30T16:02:45Z</time>
      </trkpt>
      <trkpt lat="49.42758" lon="4.06811">
        <ele>107</ele>
        <time>2019-05-30T16:02:46Z</time>
      </trkpt>
      <trkpt lat="49.42755" lon="4.06824">
        <ele>107</ele>
        <time>2019-05-30T16:02:47Z</time>
      </trkpt>
      <trkpt lat="49.42751" lon="4.06836">
        <ele>107</ele>
        <time>2019-05-30T16:02:48Z</time>
      </trkpt>
      <trkpt lat="49.42748" lon="4.06849">
        <ele>108</ele>
        <time>2019-05-30T16:02:49Z</time>
      </trkpt>
      <trkpt lat="49.42745" lon="4.06861">
        <ele>108</ele>
        <time>2019-05-30T16:02:50Z</time>
      </trkpt>
      <trkpt lat="49.42742" lon="4.06874">
        <ele>108</ele>
        <time>2019-05-30T16:02:51Z</time>
      </trkpt>
      <trkpt lat="49.42739" lon="4.06887">
        <ele>108</ele>
        <time>2019-05-30T16:02:52Z</time>
      </trkpt>
      <trkpt lat="49.42735" lon="4.069">
        <ele>108</ele>
        <time>2019-05-30T16:02:53Z</time>
      </trkpt>
      <trkpt lat="49.42731" lon="4.06912">
        <ele>108</ele>
        <time>2019-05-30T16:02:54Z</time>
      </trkpt>
      <trkpt lat="49.42728" lon="4.06925">
        <ele>108</ele>
        <time>2019-05-30T16:02:55Z</time>
      </trkpt>
      <trkpt lat="49.42725" lon="4.06938">
        <ele>108</ele>
        <time>2019-05-30T16:02:56Z</time>
      </trkpt>
      <trkpt lat="49.42722" lon="4.06951">
        <ele>108</ele>
        <time>2019-05-30T16:02:57Z</time>
      </trkpt>
      <trkpt lat="49.42718" lon="4.06963">
        <ele>108</ele>
        <time>2019-05-30T16:02:58Z</time>
      </trkpt>
      <trkpt lat="49.42715" lon="4.06976">
        <ele>108</ele>
        <time>2019-05-30T16:02:59Z</time>
      </trkpt>
      <trkpt lat="49.42712" lon="4.06988">
        <ele>108</ele>
        <time>2019-05-30T16:03:00Z</time>
      </trkpt>
      <trkpt lat="49.42709" lon="4.07001">
        <ele>108</ele>
        <time>2019-05-30T16:03:01Z</time>
      </trkpt>
      <trkpt lat="49.42705" lon="4.07013">
        <ele>108</ele>
        <time>2019-05-30T16:03:02Z</time>
      </trkpt>
      <trkpt lat="49.42702" lon="4.07025">
        <ele>108</ele>
        <time>2019-05-30T16:03:03Z</time>
      </trkpt>
      <trkpt lat="49.42699" lon="4.07037">
        <ele>108</ele>
        <time>2019-05-30T16:03:04Z</time>
      </trkpt>
      <trkpt lat="49.42695" lon="4.07049">
        <ele>108</ele>
        <time>2019-05-30T16:03:05Z</time>
      </trkpt>
      <trkpt lat="49.42692" lon="4.07061">
        <ele>108</ele>
        <time>2019-05-30T16:03:06Z</time>
      </trkpt>
      <trkpt lat="49.42689" lon="4.07073">
        <ele>108</ele>
        <time>2019-05-30T16:03:07Z</time>
      </trkpt>
      <trkpt lat="49.42686" lon="4.07085">
        <ele>108</ele>
        <time>2019-05-30T16:03:08Z</time>
      </trkpt>
      <trkpt lat="49.42683" lon="4.07097">
        <ele>108</ele>
        <time>2019-05-30T16:03:09Z</time>
      </trkpt>
      <trkpt lat="49.42679" lon="4.07109">
        <ele>108</ele>
        <time>2019-05-30T16:03:10Z</time>
      </trkpt>
      <trkpt lat="49.42676" lon="4.07122">
        <ele>108</ele>
        <time>2019-05-30T16:03:11Z</time>
      </trkpt>
      <trkpt lat="49.42672" lon="4.07134">
        <ele>108</ele>
        <time>2019-05-30T16:03:12Z</time>
      </trkpt>
      <trkpt lat="49.4267" lon="4.07146">
        <ele>107</ele>
        <time>2019-05-30T16:03:13Z</time>
      </trkpt>
      <trkpt lat="49.42667" lon="4.07158">
        <ele>107</ele>
        <time>2019-05-30T16:03:14Z</time>
      </trkpt>
      <trkpt lat="49.42665" lon="4.07169">
        <ele>108</ele>
        <time>2019-05-30T16:03:15Z</time>
      </trkpt>
      <trkpt lat="49.42663" lon="4.07182">
        <ele>108</ele>
        <time>2019-05-30T16:03:16Z</time>
      </trkpt>
      <trkpt lat="49.4266" lon="4.07207">
        <ele>107</ele>
        <time>2019-05-30T16:03:18Z</time>
      </trkpt>
      <trkpt lat="49.42658" lon="4.07219">
        <ele>107</ele>
        <time>2019-05-30T16:03:19Z</time>
      </trkpt>
      <trkpt lat="49.42657" lon="4.07231">
        <ele>107</ele>
        <time>2019-05-30T16:03:20Z</time>
      </trkpt>
      <trkpt lat="49.42655" lon="4.07243">
        <ele>107</ele>
        <time>2019-05-30T16:03:21Z</time>
      </trkpt>
      <trkpt lat="49.42653" lon="4.07256">
        <ele>107</ele>
        <time>2019-05-30T16:03:22Z</time>
      </trkpt>
      <trkpt lat="49.42652" lon="4.07269">
        <ele>107</ele>
        <time>2019-05-30T16:03:23Z</time>
      </trkpt>
      <trkpt lat="49.42651" lon="4.07281">
        <ele>107</ele>
        <time>2019-05-30T16:03:24Z</time>
      </trkpt>
      <trkpt lat="49.42649" lon="4.07294">
        <ele>107</ele>
        <time>2019-05-30T16:03:25Z</time>
      </trkpt>
      <trkpt lat="49.42647" lon="4.07306">
        <ele>108</ele>
        <time>2019-05-30T16:03:26Z</time>
      </trkpt>
      <trkpt lat="49.42646" lon="4.07319">
        <ele>108</ele>
        <time>2019-05-30T16:03:27Z</time>
      </trkpt>
      <trkpt lat="49.42644" lon="4.07331">
        <ele>108</ele>
        <time>2019-05-30T16:03:28Z</time>
      </trkpt>
      <trkpt lat="49.42643" lon="4.07343">
        <ele>107</ele>
        <time>2019-05-30T16:03:29Z</time>
      </trkpt>
      <trkpt lat="49.42642" lon="4.07355">
        <ele>107</ele>
        <time>2019-05-30T16:03:30Z</time>
      </trkpt>
      <trkpt lat="49.4264" lon="4.07368">
        <ele>108</ele>
        <time>2019-05-30T16:03:31Z</time>
      </trkpt>
      <trkpt lat="49.42639" lon="4.0738">
        <ele>108</ele>
        <time>2019-05-30T16:03:32Z</time>
      </trkpt>
      <trkpt lat="49.42637" lon="4.07392">
        <ele>108</ele>
        <time>2019-05-30T16:03:33Z</time>
      </trkpt>
      <trkpt lat="49.42636" lon="4.07404">
        <ele>108</ele>
        <time>2019-05-30T16:03:34Z</time>
      </trkpt>
      <trkpt lat="49.42634" lon="4.07416">
        <ele>108</ele>
        <time>2019-05-30T16:03:35Z</time>
      </trkpt>
      <trkpt lat="49.42633" lon="4.07428">
        <ele>108</ele>
        <time>2019-05-30T16:03:36Z</time>
      </trkpt>
      <trkpt lat="49.42632" lon="4.07441">
        <ele>108</ele>
        <time>2019-05-30T16:03:37Z</time>
      </trkpt>
      <trkpt lat="49.4263" lon="4.07452">
        <ele>108</ele>
        <time>2019-05-30T16:03:38Z</time>
      </trkpt>
      <trkpt lat="49.42629" lon="4.07464">
        <ele>108</ele>
        <time>2019-05-30T16:03:39Z</time>
      </trkpt>
      <trkpt lat="49.42627" lon="4.07476">
        <ele>109</ele>
        <time>2019-05-30T16:03:40Z</time>
      </trkpt>
      <trkpt lat="49.42626" lon="4.07486">
        <ele>109</ele>
        <time>2019-05-30T16:03:41Z</time>
      </trkpt>
      <trkpt lat="49.42625" lon="4.07497">
        <ele>109</ele>
        <time>2019-05-30T16:03:42Z</time>
      </trkpt>
      <trkpt lat="49.42623" lon="4.07507">
        <ele>109</ele>
        <time>2019-05-30T16:03:43Z</time>
      </trkpt>
      <trkpt lat="49.42622" lon="4.07517">
        <ele>109</ele>
        <time>2019-05-30T16:03:44Z</time>
      </trkpt>
      <trkpt lat="49.42621" lon="4.07527">
        <ele>109</ele>
        <time>2019-05-30T16:03:45Z</time>
      </trkpt>
      <trkpt lat="49.4262" lon="4.07537">
        <ele>110</ele>
        <time>2019-05-30T16:03:46Z</time>
      </trkpt>
      <trkpt lat="49.42619" lon="4.07546">
        <ele>110</ele>
        <time>2019-05-30T16:03:47Z</time>
      </trkpt>
      <trkpt lat="49.42618" lon="4.07555">
        <ele>110</ele>
        <time>2019-05-30T16:03:48Z</time>
      </trkpt>
      <trkpt lat="49.42617" lon="4.07564">
        <ele>110</ele>
        <time>2019-05-30T16:03:49Z</time>
      </trkpt>
      <trkpt lat="49.42616" lon="4.07573">
        <ele>110</ele>
        <time>2019-05-30T16:03:50Z</time>
      </trkpt>
      <trkpt lat="49.42614" lon="4.07582">
        <ele>109</ele>
        <time>2019-05-30T16:03:51Z</time>
      </trkpt>
      <trkpt lat="49.42613" lon="4.07591">
        <ele>109</ele>
        <time>2019-05-30T16:03:52Z</time>
      </trkpt>
      <trkpt lat="49.42612" lon="4.076">
        <ele>110</ele>
        <time>2019-05-30T16:03:53Z</time>
      </trkpt>
      <trkpt lat="49.42611" lon="4.07609">
        <ele>110</ele>
        <time>2019-05-30T16:03:54Z</time>
      </trkpt>
      <trkpt lat="49.4261" lon="4.07618">
        <ele>110</ele>
        <time>2019-05-30T16:03:55Z</time>
      </trkpt>
      <trkpt lat="49.42609" lon="4.07627">
        <ele>110</ele>
        <time>2019-05-30T16:03:56Z</time>
      </trkpt>
      <trkpt lat="49.42608" lon="4.07636">
        <ele>110</ele>
        <time>2019-05-30T16:03:57Z</time>
      </trkpt>
      <trkpt lat="49.42607" lon="4.07645">
        <ele>110</ele>
        <time>2019-05-30T16:03:58Z</time>
      </trkpt>
      <trkpt lat="49.42605" lon="4.07653">
        <ele>110</ele>
        <time>2019-05-30T16:03:59Z</time>
      </trkpt>
      <trkpt lat="49.42604" lon="4.07663">
        <ele>110</ele>
        <time>2019-05-30T16:04:00Z</time>
      </trkpt>
      <trkpt lat="49.42602" lon="4.07673">
        <ele>110</ele>
        <time>2019-05-30T16:04:01Z</time>
      </trkpt>
      <trkpt lat="49.42601" lon="4.07683">
        <ele>110</ele>
        <time>2019-05-30T16:04:02Z</time>
      </trkpt>
      <trkpt lat="49.426" lon="4.07692">
        <ele>110</ele>
        <time>2019-05-30T16:04:03Z</time>
      </trkpt>
      <trkpt lat="49.42598" lon="4.07703">
        <ele>110</ele>
        <time>2019-05-30T16:04:04Z</time>
      </trkpt>
      <trkpt lat="49.42596" lon="4.07713">
        <ele>110</ele>
        <time>2019-05-30T16:04:05Z</time>
      </trkpt>
      <trkpt lat="49.42593" lon="4.07724">
        <ele>110</ele>
        <time>2019-05-30T16:04:06Z</time>
      </trkpt>
      <trkpt lat="49.42591" lon="4.07734">
        <ele>110</ele>
        <time>2019-05-30T16:04:07Z</time>
      </trkpt>
      <trkpt lat="49.42589" lon="4.07745">
        <ele>110</ele>
        <time>2019-05-30T16:04:08Z</time>
      </trkpt>
      <trkpt lat="49.42587" lon="4.07756">
        <ele>110</ele>
        <time>2019-05-30T16:04:09Z</time>
      </trkpt>
      <trkpt lat="49.42585" lon="4.07766">
        <ele>110</ele>
        <time>2019-05-30T16:04:10Z</time>
      </trkpt>
      <trkpt lat="49.42583" lon="4.07777">
        <ele>110</ele>
        <time>2019-05-30T16:04:11Z</time>
      </trkpt>
      <trkpt lat="49.4258" lon="4.07788">
        <ele>110</ele>
        <time>2019-05-30T16:04:12Z</time>
      </trkpt>
      <trkpt lat="49.42577" lon="4.07799">
        <ele>109</ele>
        <time>2019-05-30T16:04:13Z</time>
      </trkpt>
      <trkpt lat="49.42575" lon="4.0781">
        <ele>110</ele>
        <time>2019-05-30T16:04:14Z</time>
      </trkpt>
      <trkpt lat="49.42572" lon="4.07821">
        <ele>110</ele>
        <time>2019-05-30T16:04:15Z</time>
      </trkpt>
      <trkpt lat="49.4257" lon="4.07832">
        <ele>110</ele>
        <time>2019-05-30T16:04:16Z</time>
      </trkpt>
      <trkpt lat="49.42567" lon="4.07843">
        <ele>110</ele>
        <time>2019-05-30T16:04:17Z</time>
      </trkpt>
      <trkpt lat="49.42564" lon="4.07855">
        <ele>110</ele>
        <time>2019-05-30T16:04:18Z</time>
      </trkpt>
      <trkpt lat="49.42562" lon="4.07866">
        <ele>110</ele>
        <time>2019-05-30T16:04:19Z</time>
      </trkpt>
      <trkpt lat="49.42559" lon="4.07877">
        <ele>110</ele>
        <time>2019-05-30T16:04:20Z</time>
      </trkpt>
      <trkpt lat="49.42557" lon="4.07888">
        <ele>109</ele>
        <time>2019-05-30T16:04:21Z</time>
      </trkpt>
      <trkpt lat="49.42554" lon="4.07899">
        <ele>109</ele>
        <time>2019-05-30T16:04:22Z</time>
      </trkpt>
      <trkpt lat="49.42551" lon="4.07911">
        <ele>109</ele>
        <time>2019-05-30T16:04:23Z</time>
      </trkpt>
      <trkpt lat="49.42549" lon="4.07922">
        <ele>109</ele>
        <time>2019-05-30T16:04:24Z</time>
      </trkpt>
      <trkpt lat="49.42546" lon="4.07933">
        <ele>109</ele>
        <time>2019-05-30T16:04:25Z</time>
      </trkpt>
      <trkpt lat="49.42543" lon="4.07944">
        <ele>109</ele>
        <time>2019-05-30T16:04:26Z</time>
      </trkpt>
      <trkpt lat="49.4254" lon="4.07955">
        <ele>109</ele>
        <time>2019-05-30T16:04:27Z</time>
      </trkpt>
      <trkpt lat="49.42538" lon="4.07967">
        <ele>109</ele>
        <time>2019-05-30T16:04:28Z</time>
      </trkpt>
      <trkpt lat="49.42535" lon="4.07978">
        <ele>109</ele>
        <time>2019-05-30T16:04:29Z</time>
      </trkpt>
      <trkpt lat="49.42532" lon="4.07989">
        <ele>109</ele>
        <time>2019-05-30T16:04:30Z</time>
      </trkpt>
      <trkpt lat="49.42528" lon="4.08001">
        <ele>110</ele>
        <time>2019-05-30T16:04:31Z</time>
      </trkpt>
      <trkpt lat="49.42525" lon="4.08012">
        <ele>110</ele>
        <time>2019-05-30T16:04:32Z</time>
      </trkpt>
      <trkpt lat="49.42522" lon="4.08023">
        <ele>110</ele>
        <time>2019-05-30T16:04:33Z</time>
      </trkpt>
      <trkpt lat="49.42519" lon="4.08034">
        <ele>110</ele>
        <time>2019-05-30T16:04:34Z</time>
      </trkpt>
      <trkpt lat="49.42516" lon="4.08045">
        <ele>110</ele>
        <time>2019-05-30T16:04:35Z</time>
      </trkpt>
      <trkpt lat="49.42513" lon="4.08055">
        <ele>110</ele>
        <time>2019-05-30T16:04:36Z</time>
      </trkpt>
      <trkpt lat="49.42509" lon="4.08066">
        <ele>110</ele>
        <time>2019-05-30T16:04:37Z</time>
      </trkpt>
      <trkpt lat="49.42505" lon="4.08077">
        <ele>110</ele>
        <time>2019-05-30T16:04:38Z</time>
      </trkpt>
      <trkpt lat="49.42501" lon="4.08088">
        <ele>110</ele>
        <time>2019-05-30T16:04:39Z</time>
      </trkpt>
      <trkpt lat="49.42497" lon="4.08099">
        <ele>110</ele>
        <time>2019-05-30T16:04:40Z</time>
      </trkpt>
      <trkpt lat="49.42494" lon="4.08109">
        <ele>111</ele>
        <time>2019-05-30T16:04:41Z</time>
      </trkpt>
      <trkpt lat="49.4249" lon="4.0812">
        <ele>111</ele>
        <time>2019-05-30T16:04:42Z</time>
      </trkpt>
      <trkpt lat="49.42486" lon="4.0813">
        <ele>111</ele>
        <time>2019-05-30T16:04:43Z</time>
      </trkpt>
      <trkpt lat="49.42483" lon="4.08141">
        <ele>111</ele>
        <time>2019-05-30T16:04:44Z</time>
      </trkpt>
      <trkpt lat="49.42479" lon="4.08151">
        <ele>111</ele>
        <time>2019-05-30T16:04:45Z</time>
      </trkpt>
      <trkpt lat="49.42475" lon="4.08162">
        <ele>111</ele>
        <time>2019-05-30T16:04:46Z</time>
      </trkpt>
      <trkpt lat="49.42472" lon="4.08173">
        <ele>111</ele>
        <time>2019-05-30T16:04:47Z</time>
      </trkpt>
      <trkpt lat="49.42469" lon="4.08184">
        <ele>111</ele>
        <time>2019-05-30T16:04:48Z</time>
      </trkpt>
      <trkpt lat="49.42466" lon="4.08195">
        <ele>111</ele>
        <time>2019-05-30T16:04:49Z</time>
      </trkpt>
      <trkpt lat="49.42462" lon="4.08206">
        <ele>111</ele>
        <time>2019-05-30T16:04:50Z</time>
      </trkpt>
      <trkpt lat="49.42459" lon="4.08217">
        <ele>111</ele>
        <time>2019-05-30T16:04:51Z</time>
      </trkpt>
      <trkpt lat="49.42456" lon="4.08228">
        <ele>110</ele>
        <time>2019-05-30T16:04:52Z</time>
      </trkpt>
      <trkpt lat="49.42453" lon="4.08239">
        <ele>110</ele>
        <time>2019-05-30T16:04:53Z</time>
      </trkpt>
      <trkpt lat="49.4245" lon="4.08251">
        <ele>111</ele>
        <time>2019-05-30T16:04:54Z</time>
      </trkpt>
      <trkpt lat="49.42447" lon="4.08263">
        <ele>111</ele>
        <time>2019-05-30T16:04:55Z</time>
      </trkpt>
      <trkpt lat="49.42444" lon="4.08274">
        <ele>111</ele>
        <time>2019-05-30T16:04:56Z</time>
      </trkpt>
      <trkpt lat="49.42441" lon="4.08286">
        <ele>110</ele>
        <time>2019-05-30T16:04:57Z</time>
      </trkpt>
      <trkpt lat="49.42439" lon="4.08298">
        <ele>110</ele>
        <time>2019-05-30T16:04:58Z</time>
      </trkpt>
      <trkpt lat="49.42436" lon="4.08311">
        <ele>110</ele>
        <time>2019-05-30T16:04:59Z</time>
      </trkpt>
      <trkpt lat="49.42433" lon="4.08323">
        <ele>110</ele>
        <time>2019-05-30T16:05:00Z</time>
      </trkpt>
      <trkpt lat="49.4243" lon="4.08337">
        <ele>109</ele>
        <time>2019-05-30T16:05:01Z</time>
      </trkpt>
      <trkpt lat="49.42428" lon="4.0835">
        <ele>109</ele>
        <time>2019-05-30T16:05:02Z</time>
      </trkpt>
      <trkpt lat="49.42426" lon="4.08364">
        <ele>109</ele>
        <time>2019-05-30T16:05:03Z</time>
      </trkpt>
      <trkpt lat="49.42423" lon="4.08377">
        <ele>109</ele>
        <time>2019-05-30T16:05:04Z</time>
      </trkpt>
      <trkpt lat="49.42421" lon="4.08391">
        <ele>109</ele>
        <time>2019-05-30T16:05:05Z</time>
      </trkpt>
      <trkpt lat="49.42419" lon="4.08404">
        <ele>109</ele>
        <time>2019-05-30T16:05:06Z</time>
      </trkpt>
      <trkpt lat="49.42416" lon="4.08417">
        <ele>109</ele>
        <time>2019-05-30T16:05:07Z</time>
      </trkpt>
      <trkpt lat="49.42414" lon="4.0843">
        <ele>109</ele>
        <time>2019-05-30T16:05:08Z</time>
      </trkpt>
      <trkpt lat="49.42411" lon="4.08443">
        <ele>109</ele>
        <time>2019-05-30T16:05:09Z</time>
      </trkpt>
      <trkpt lat="49.42409" lon="4.08456">
        <ele>109</ele>
        <time>2019-05-30T16:05:10Z</time>
      </trkpt>
      <trkpt lat="49.42407" lon="4.08469">
        <ele>108</ele>
        <time>2019-05-30T16:05:11Z</time>
      </trkpt>
      <trkpt lat="49.42405" lon="4.08483">
        <ele>108</ele>
        <time>2019-05-30T16:05:12Z</time>
      </trkpt>
      <trkpt lat="49.42402" lon="4.08496">
        <ele>108</ele>
        <time>2019-05-30T16:05:13Z</time>
      </trkpt>
      <trkpt lat="49.424" lon="4.08509">
        <ele>108</ele>
        <time>2019-05-30T16:05:14Z</time>
      </trkpt>
      <trkpt lat="49.42397" lon="4.08522">
        <ele>108</ele>
        <time>2019-05-30T16:05:15Z</time>
      </trkpt>
      <trkpt lat="49.42395" lon="4.08536">
        <ele>108</ele>
        <time>2019-05-30T16:05:16Z</time>
      </trkpt>
      <trkpt lat="49.42392" lon="4.08549">
        <ele>108</ele>
        <time>2019-05-30T16:05:17Z</time>
      </trkpt>
      <trkpt lat="49.4239" lon="4.08563">
        <ele>108</ele>
        <time>2019-05-30T16:05:18Z</time>
      </trkpt>
      <trkpt lat="49.42388" lon="4.08576">
        <ele>108</ele>
        <time>2019-05-30T16:05:19Z</time>
      </trkpt>
      <trkpt lat="49.42385" lon="4.08589">
        <ele>108</ele>
        <time>2019-05-30T16:05:20Z</time>
      </trkpt>
      <trkpt lat="49.42383" lon="4.08602">
        <ele>108</ele>
        <time>2019-05-30T16:05:21Z</time>
      </trkpt>
      <trkpt lat="49.4238" lon="4.08615">
        <ele>108</ele>
        <time>2019-05-30T16:05:22Z</time>
      </trkpt>
      <trkpt lat="49.42378" lon="4.08627">
        <ele>108</ele>
        <time>2019-05-30T16:05:23Z</time>
      </trkpt>
      <trkpt lat="49.42376" lon="4.0864">
        <ele>108</ele>
        <time>2019-05-30T16:05:24Z</time>
      </trkpt>
      <trkpt lat="49.42374" lon="4.08654">
        <ele>108</ele>
        <time>2019-05-30T16:05:25Z</time>
      </trkpt>
      <trkpt lat="49.42372" lon="4.08666">
        <ele>108</ele>
        <time>2019-05-30T16:05:26Z</time>
      </trkpt>
      <trkpt lat="49.42369" lon="4.08679">
        <ele>108</ele>
        <time>2019-05-30T16:05:27Z</time>
      </trkpt>
      <trkpt lat="49.42368" lon="4.08691">
        <ele>108</ele>
        <time>2019-05-30T16:05:28Z</time>
      </trkpt>
      <trkpt lat="49.42366" lon="4.08704">
        <ele>108</ele>
        <time>2019-05-30T16:05:29Z</time>
      </trkpt>
      <trkpt lat="49.42365" lon="4.08717">
        <ele>108</ele>
        <time>2019-05-30T16:05:30Z</time>
      </trkpt>
      <trkpt lat="49.42363" lon="4.08731">
        <ele>108</ele>
        <time>2019-05-30T16:05:31Z</time>
      </trkpt>
      <trkpt lat="49.42362" lon="4.08745">
        <ele>108</ele>
        <time>2019-05-30T16:05:32Z</time>
      </trkpt>
      <trkpt lat="49.42362" lon="4.08758">
        <ele>108</ele>
        <time>2019-05-30T16:05:33Z</time>
      </trkpt>
      <trkpt lat="49.42361" lon="4.08771">
        <ele>108</ele>
        <time>2019-05-30T16:05:34Z</time>
      </trkpt>
      <trkpt lat="49.4236" lon="4.08785">
        <ele>108</ele>
        <time>2019-05-30T16:05:35Z</time>
      </trkpt>
      <trkpt lat="49.42359" lon="4.088">
        <ele>108</ele>
        <time>2019-05-30T16:05:36Z</time>
      </trkpt>
      <trkpt lat="49.42358" lon="4.08814">
        <ele>108</ele>
        <time>2019-05-30T16:05:37Z</time>
      </trkpt>
      <trkpt lat="49.42357" lon="4.08827">
        <ele>108</ele>
        <time>2019-05-30T16:05:38Z</time>
      </trkpt>
      <trkpt lat="49.42356" lon="4.08841">
        <ele>108</ele>
        <time>2019-05-30T16:05:39Z</time>
      </trkpt>
      <trkpt lat="49.42355" lon="4.08855">
        <ele>108</ele>
        <time>2019-05-30T16:05:40Z</time>
      </trkpt>
      <trkpt lat="49.42354" lon="4.08869">
        <ele>108</ele>
        <time>2019-05-30T16:05:41Z</time>
      </trkpt>
      <trkpt lat="49.42353" lon="4.08882">
        <ele>108</ele>
        <time>2019-05-30T16:05:42Z</time>
      </trkpt>
      <trkpt lat="49.42352" lon="4.08895">
        <ele>108</ele>
        <time>2019-05-30T16:05:43Z</time>
      </trkpt>
      <trkpt lat="49.42351" lon="4.08909">
        <ele>108</ele>
        <time>2019-05-30T16:05:44Z</time>
      </trkpt>
      <trkpt lat="49.4235" lon="4.08922">
        <ele>108</ele>
        <time>2019-05-30T16:05:45Z</time>
      </trkpt>
      <trkpt lat="49.42349" lon="4.08936">
        <ele>108</ele>
        <time>2019-05-30T16:05:46Z</time>
      </trkpt>
      <trkpt lat="49.42348" lon="4.0895">
        <ele>108</ele>
        <time>2019-05-30T16:05:47Z</time>
      </trkpt>
      <trkpt lat="49.42347" lon="4.08965">
        <ele>108</ele>
        <time>2019-05-30T16:05:48Z</time>
      </trkpt>
      <trkpt lat="49.42346" lon="4.08979">
        <ele>108</ele>
        <time>2019-05-30T16:05:49Z</time>
      </trkpt>
      <trkpt lat="49.42345" lon="4.08994">
        <ele>108</ele>
        <time>2019-05-30T16:05:50Z</time>
      </trkpt>
      <trkpt lat="49.42345" lon="4.09008">
        <ele>108</ele>
        <time>2019-05-30T16:05:51Z</time>
      </trkpt>
      <trkpt lat="49.42344" lon="4.09021">
        <ele>108</ele>
        <time>2019-05-30T16:05:52Z</time>
      </trkpt>
      <trkpt lat="49.42343" lon="4.09035">
        <ele>109</ele>
        <time>2019-05-30T16:05:53Z</time>
      </trkpt>
      <trkpt lat="49.42343" lon="4.09049">
        <ele>109</ele>
        <time>2019-05-30T16:05:54Z</time>
      </trkpt>
      <trkpt lat="49.42342" lon="4.09063">
        <ele>109</ele>
        <time>2019-05-30T16:05:55Z</time>
      </trkpt>
      <trkpt lat="49.42341" lon="4.09076">
        <ele>109</ele>
        <time>2019-05-30T16:05:56Z</time>
      </trkpt>
      <trkpt lat="49.42339" lon="4.0909">
        <ele>109</ele>
        <time>2019-05-30T16:05:57Z</time>
      </trkpt>
      <trkpt lat="49.42339" lon="4.09103">
        <ele>110</ele>
        <time>2019-05-30T16:05:58Z</time>
      </trkpt>
      <trkpt lat="49.42338" lon="4.09116">
        <ele>110</ele>
        <time>2019-05-30T16:05:59Z</time>
      </trkpt>
      <trkpt lat="49.42337" lon="4.09129">
        <ele>110</ele>
        <time>2019-05-30T16:06:00Z</time>
      </trkpt>
      <trkpt lat="49.42335" lon="4.09142">
        <ele>110</ele>
        <time>2019-05-30T16:06:01Z</time>
      </trkpt>
      <trkpt lat="49.42334" lon="4.09154">
        <ele>110</ele>
        <time>2019-05-30T16:06:02Z</time>
      </trkpt>
      <trkpt lat="49.42333" lon="4.09166">
        <ele>110</ele>
        <time>2019-05-30T16:06:03Z</time>
      </trkpt>
      <trkpt lat="49.42332" lon="4.09179">
        <ele>110</ele>
        <time>2019-05-30T16:06:04Z</time>
      </trkpt>
      <trkpt lat="49.42332" lon="4.09191">
        <ele>110</ele>
        <time>2019-05-30T16:06:05Z</time>
      </trkpt>
      <trkpt lat="49.42331" lon="4.09203">
        <ele>109</ele>
        <time>2019-05-30T16:06:06Z</time>
      </trkpt>
      <trkpt lat="49.42331" lon="4.09215">
        <ele>110</ele>
        <time>2019-05-30T16:06:07Z</time>
      </trkpt>
      <trkpt lat="49.42331" lon="4.09227">
        <ele>109</ele>
        <time>2019-05-30T16:06:08Z</time>
      </trkpt>
      <trkpt lat="49.42331" lon="4.09239">
        <ele>109</ele>
        <time>2019-05-30T16:06:09Z</time>
      </trkpt>
      <trkpt lat="49.42331" lon="4.09251">
        <ele>109</ele>
        <time>2019-05-30T16:06:10Z</time>
      </trkpt>
      <trkpt lat="49.42331" lon="4.09262">
        <ele>109</ele>
        <time>2019-05-30T16:06:11Z</time>
      </trkpt>
      <trkpt lat="49.42332" lon="4.09274">
        <ele>109</ele>
        <time>2019-05-30T16:06:12Z</time>
      </trkpt>
      <trkpt lat="49.42332" lon="4.09286">
        <ele>109</ele>
        <time>2019-05-30T16:06:13Z</time>
      </trkpt>
      <trkpt lat="49.42332" lon="4.09298">
        <ele>108</ele>
        <time>2019-05-30T16:06:14Z</time>
      </trkpt>
      <trkpt lat="49.42332" lon="4.09309">
        <ele>108</ele>
        <time>2019-05-30T16:06:15Z</time>
      </trkpt>
      <trkpt lat="49.42332" lon="4.09321">
        <ele>108</ele>
        <time>2019-05-30T16:06:16Z</time>
      </trkpt>
      <trkpt lat="49.42332" lon="4.09333">
        <ele>108</ele>
        <time>2019-05-30T16:06:17Z</time>
      </trkpt>
      <trkpt lat="49.42333" lon="4.09345">
        <ele>108</ele>
        <time>2019-05-30T16:06:18Z</time>
      </trkpt>
      <trkpt lat="49.42332" lon="4.09356">
        <ele>108</ele>
        <time>2019-05-30T16:06:19Z</time>
      </trkpt>
      <trkpt lat="49.42332" lon="4.09368">
        <ele>108</ele>
        <time>2019-05-30T16:06:20Z</time>
      </trkpt>
      <trkpt lat="49.42333" lon="4.09379">
        <ele>108</ele>
        <time>2019-05-30T16:06:21Z</time>
      </trkpt>
      <trkpt lat="49.42332" lon="4.0939">
        <ele>108</ele>
        <time>2019-05-30T16:06:22Z</time>
      </trkpt>
      <trkpt lat="49.42332" lon="4.094">
        <ele>108</ele>
        <time>2019-05-30T16:06:23Z</time>
      </trkpt>
      <trkpt lat="49.42333" lon="4.09411">
        <ele>108</ele>
        <time>2019-05-30T16:06:24Z</time>
      </trkpt>
      <trkpt lat="49.42333" lon="4.09422">
        <ele>108</ele>
        <time>2019-05-30T16:06:25Z</time>
      </trkpt>
      <trkpt lat="49.42333" lon="4.09433">
        <ele>108</ele>
        <time>2019-05-30T16:06:26Z</time>
      </trkpt>
      <trkpt lat="49.42333" lon="4.09443">
        <ele>108</ele>
        <time>2019-05-30T16:06:27Z</time>
      </trkpt>
      <trkpt lat="49.42334" lon="4.09454">
        <ele>108</ele>
        <time>2019-05-30T16:06:28Z</time>
      </trkpt>
      <trkpt lat="49.42334" lon="4.09464">
        <ele>109</ele>
        <time>2019-05-30T16:06:29Z</time>
      </trkpt>
      <trkpt lat="49.42335" lon="4.09475">
        <ele>108</ele>
        <time>2019-05-30T16:06:30Z</time>
      </trkpt>
      <trkpt lat="49.42336" lon="4.09485">
        <ele>108</ele>
        <time>2019-05-30T16:06:31Z</time>
      </trkpt>
      <trkpt lat="49.42338" lon="4.09495">
        <ele>109</ele>
        <time>2019-05-30T16:06:32Z</time>
      </trkpt>
      <trkpt lat="49.42339" lon="4.09504">
        <ele>109</ele>
        <time>2019-05-30T16:06:33Z</time>
      </trkpt>
      <trkpt lat="49.4234" lon="4.09513">
        <ele>108</ele>
        <time>2019-05-30T16:06:34Z</time>
      </trkpt>
      <trkpt lat="49.42341" lon="4.09523">
        <ele>108</ele>
        <time>2019-05-30T16:06:35Z</time>
      </trkpt>
      <trkpt lat="49.42342" lon="4.09532">
        <ele>108</ele>
        <time>2019-05-30T16:06:36Z</time>
      </trkpt>
      <trkpt lat="49.42343" lon="4.09543">
        <ele>109</ele>
        <time>2019-05-30T16:06:37Z</time>
      </trkpt>
      <trkpt lat="49.42344" lon="4.09552">
        <ele>109</ele>
        <time>2019-05-30T16:06:38Z</time>
      </trkpt>
      <trkpt lat="49.42345" lon="4.09562">
        <ele>109</ele>
        <time>2019-05-30T16:06:39Z</time>
      </trkpt>
      <trkpt lat="49.42346" lon="4.09573">
        <ele>109</ele>
        <time>2019-05-30T16:06:40Z</time>
      </trkpt>
      <trkpt lat="49.42347" lon="4.09583">
        <ele>109</ele>
        <time>2019-05-30T16:06:41Z</time>
      </trkpt>
      <trkpt lat="49.42348" lon="4.09593">
        <ele>109</ele>
        <time>2019-05-30T16:06:42Z</time>
      </trkpt>
      <trkpt lat="49.42349" lon="4.09603">
        <ele>109</ele>
        <time>2019-05-30T16:06:43Z</time>
      </trkpt>
      <trkpt lat="49.4235" lon="4.09612">
        <ele>109</ele>
        <time>2019-05-30T16:06:44Z</time>
      </trkpt>
      <trkpt lat="49.4235" lon="4.09622">
        <ele>109</ele>
        <time>2019-05-30T16:06:45Z</time>
      </trkpt>
      <trkpt lat="49.4235" lon="4.09631">
        <ele>109</ele>
        <time>2019-05-30T16:06:46Z</time>
      </trkpt>
      <trkpt lat="49.4235" lon="4.09641">
        <ele>109</ele>
        <time>2019-05-30T16:06:47Z</time>
      </trkpt>
      <trkpt lat="49.42349" lon="4.09651">
        <ele>109</ele>
        <time>2019-05-30T16:06:48Z</time>
      </trkpt>
      <trkpt lat="49.42349" lon="4.09661">
        <ele>110</ele>
        <time>2019-05-30T16:06:49Z</time>
      </trkpt>
      <trkpt lat="49.4235" lon="4.09671">
        <ele>109</ele>
        <time>2019-05-30T16:06:50Z</time>
      </trkpt>
      <trkpt lat="49.42349" lon="4.09681">
        <ele>109</ele>
        <time>2019-05-30T16:06:51Z</time>
      </trkpt>
      <trkpt lat="49.42349" lon="4.0969">
        <ele>109</ele>
        <time>2019-05-30T16:06:52Z</time>
      </trkpt>
      <trkpt lat="49.4235" lon="4.09699">
        <ele>109</ele>
        <time>2019-05-30T16:06:53Z</time>
      </trkpt>
      <trkpt lat="49.42349" lon="4.09707">
        <ele>110</ele>
        <time>2019-05-30T16:06:54Z</time>
      </trkpt>
      <trkpt lat="49.42349" lon="4.09716">
        <ele>110</ele>
        <time>2019-05-30T16:06:55Z</time>
      </trkpt>
      <trkpt lat="49.42349" lon="4.09725">
        <ele>110</ele>
        <time>2019-05-30T16:06:56Z</time>
      </trkpt>
      <trkpt lat="49.4235" lon="4.09733">
        <ele>110</ele>
        <time>2019-05-30T16:06:57Z</time>
      </trkpt>
      <trkpt lat="49.4235" lon="4.09741">
        <ele>110</ele>
        <time>2019-05-30T16:06:58Z</time>
      </trkpt>
      <trkpt lat="49.4235" lon="4.09748">
        <ele>110</ele>
        <time>2019-05-30T16:06:59Z</time>
      </trkpt>
      <trkpt lat="49.4235" lon="4.09756">
        <ele>110</ele>
        <time>2019-05-30T16:07:00Z</time>
      </trkpt>
      <trkpt lat="49.4235" lon="4.09764">
        <ele>110</ele>
        <time>2019-05-30T16:07:01Z</time>
      </trkpt>
      <trkpt lat="49.42349" lon="4.09771">
        <ele>110</ele>
        <time>2019-05-30T16:07:02Z</time>
      </trkpt>
      <trkpt lat="49.42347" lon="4.09778">
        <ele>110</ele>
        <time>2019-05-30T16:07:03Z</time>
      </trkpt>
      <trkpt lat="49.42345" lon="4.09785">
        <ele>110</ele>
        <time>2019-05-30T16:07:04Z</time>
      </trkpt>
      <trkpt lat="49.42343" lon="4.09792">
        <ele>111</ele>
        <time>2019-05-30T16:07:05Z</time>
      </trkpt>
      <trkpt lat="49.4234" lon="4.09799">
        <ele>111</ele>
        <time>2019-05-30T16:07:06Z</time>
      </trkpt>
      <trkpt lat="49.42337" lon="4.09805">
        <ele>111</ele>
        <time>2019-05-30T16:07:07Z</time>
      </trkpt>
      <trkpt lat="49.42334" lon="4.09813">
        <ele>111</ele>
        <time>2019-05-30T16:07:08Z</time>
      </trkpt>
      <trkpt lat="49.42331" lon="4.09821">
        <ele>111</ele>
        <time>2019-05-30T16:07:09Z</time>
      </trkpt>
      <trkpt lat="49.42328" lon="4.0983">
        <ele>111</ele>
        <time>2019-05-30T16:07:10Z</time>
      </trkpt>
      <trkpt lat="49.42326" lon="4.0984">
        <ele>111</ele>
        <time>2019-05-30T16:07:11Z</time>
      </trkpt>
      <trkpt lat="49.42324" lon="4.0985">
        <ele>111</ele>
        <time>2019-05-30T16:07:12Z</time>
      </trkpt>
      <trkpt lat="49.42321" lon="4.09859">
        <ele>111</ele>
        <time>2019-05-30T16:07:13Z</time>
      </trkpt>
      <trkpt lat="49.42318" lon="4.09868">
        <ele>111</ele>
        <time>2019-05-30T16:07:14Z</time>
      </trkpt>
      <trkpt lat="49.42316" lon="4.09877">
        <ele>111</ele>
        <time>2019-05-30T16:07:15Z</time>
      </trkpt>
      <trkpt lat="49.42313" lon="4.09886">
        <ele>112</ele>
        <time>2019-05-30T16:07:16Z</time>
      </trkpt>
      <trkpt lat="49.4231" lon="4.09894">
        <ele>112</ele>
        <time>2019-05-30T16:07:17Z</time>
      </trkpt>
      <trkpt lat="49.42307" lon="4.09904">
        <ele>112</ele>
        <time>2019-05-30T16:07:18Z</time>
      </trkpt>
      <trkpt lat="49.42305" lon="4.09912">
        <ele>112</ele>
        <time>2019-05-30T16:07:19Z</time>
      </trkpt>
      <trkpt lat="49.42302" lon="4.0992">
        <ele>112</ele>
        <time>2019-05-30T16:07:20Z</time>
      </trkpt>
      <trkpt lat="49.42299" lon="4.09928">
        <ele>112</ele>
        <time>2019-05-30T16:07:21Z</time>
      </trkpt>
      <trkpt lat="49.42296" lon="4.09936">
        <ele>112</ele>
        <time>2019-05-30T16:07:22Z</time>
      </trkpt>
      <trkpt lat="49.42293" lon="4.09944">
        <ele>112</ele>
        <time>2019-05-30T16:07:23Z</time>
      </trkpt>
      <trkpt lat="49.4229" lon="4.09952">
        <ele>112</ele>
        <time>2019-05-30T16:07:24Z</time>
      </trkpt>
      <trkpt lat="49.42288" lon="4.09961">
        <ele>112</ele>
        <time>2019-05-30T16:07:25Z</time>
      </trkpt>
      <trkpt lat="49.42285" lon="4.0997">
        <ele>111</ele>
        <time>2019-05-30T16:07:26Z</time>
      </trkpt>
      <trkpt lat="49.42282" lon="4.09979">
        <ele>111</ele>
        <time>2019-05-30T16:07:27Z</time>
      </trkpt>
      <trkpt lat="49.42279" lon="4.09987">
        <ele>112</ele>
        <time>2019-05-30T16:07:28Z</time>
      </trkpt>
      <trkpt lat="49.42276" lon="4.09996">
        <ele>112</ele>
        <time>2019-05-30T16:07:29Z</time>
      </trkpt>
      <trkpt lat="49.42273" lon="4.10005">
        <ele>112</ele>
        <time>2019-05-30T16:07:30Z</time>
      </trkpt>
      <trkpt lat="49.42271" lon="4.10014">
        <ele>112</ele>
        <time>2019-05-30T16:07:31Z</time>
      </trkpt>
      <trkpt lat="49.42268" lon="4.10023">
        <ele>112</ele>
        <time>2019-05-30T16:07:32Z</time>
      </trkpt>
      <trkpt lat="49.42265" lon="4.10031">
        <ele>112</ele>
        <time>2019-05-30T16:07:33Z</time>
      </trkpt>
      <trkpt lat="49.42263" lon="4.10039">
        <ele>112</ele>
        <time>2019-05-30T16:07:34Z</time>
      </trkpt>
      <trkpt lat="49.42262" lon="4.10049">
        <ele>112</ele>
        <time>2019-05-30T16:07:35Z</time>
      </trkpt>
      <trkpt lat="49.4226" lon="4.10058">
        <ele>111</ele>
        <time>2019-05-30T16:07:36Z</time>
      </trkpt>
      <trkpt lat="49.42259" lon="4.10067">
        <ele>111</ele>
        <time>2019-05-30T16:07:37Z</time>
      </trkpt>
      <trkpt lat="49.42258" lon="4.10076">
        <ele>111</ele>
        <time>2019-05-30T16:07:38Z</time>
      </trkpt>
      <trkpt lat="49.42256" lon="4.10086">
        <ele>111</ele>
        <time>2019-05-30T16:07:39Z</time>
      </trkpt>
      <trkpt lat="49.42255" lon="4.10095">
        <ele>111</ele>
        <time>2019-05-30T16:07:40Z</time>
      </trkpt>
      <trkpt lat="49.42253" lon="4.10105">
        <ele>111</ele>
        <time>2019-05-30T16:07:41Z</time>
      </trkpt>
      <trkpt lat="49.42252" lon="4.10114">
        <ele>111</ele>
        <time>2019-05-30T16:07:42Z</time>
      </trkpt>
      <trkpt lat="49.42251" lon="4.10123">
        <ele>111</ele>
        <time>2019-05-30T16:07:43Z</time>
      </trkpt>
      <trkpt lat="49.4225" lon="4.10132">
        <ele>111</ele>
        <time>2019-05-30T16:07:44Z</time>
      </trkpt>
      <trkpt lat="49.42248" lon="4.10141">
        <ele>111</ele>
        <time>2019-05-30T16:07:45Z</time>
      </trkpt>
      <trkpt lat="49.42245" lon="4.10148">
        <ele>111</ele>
        <time>2019-05-30T16:07:46Z</time>
      </trkpt>
      <trkpt lat="49.42241" lon="4.10156">
        <ele>111</ele>
        <time>2019-05-30T16:07:47Z</time>
      </trkpt>
      <trkpt lat="49.42237" lon="4.10162">
        <ele>111</ele>
        <time>2019-05-30T16:07:48Z</time>
      </trkpt>
      <trkpt lat="49.42233" lon="4.10167">
        <ele>110</ele>
        <time>2019-05-30T16:07:49Z</time>
      </trkpt>
      <trkpt lat="49.42227" lon="4.10171">
        <ele>110</ele>
        <time>2019-05-30T16:07:50Z</time>
      </trkpt>
      <trkpt lat="49.42222" lon="4.10174">
        <ele>110</ele>
        <time>2019-05-30T16:07:51Z</time>
      </trkpt>
      <trkpt lat="49.42217" lon="4.10176">
        <ele>110</ele>
        <time>2019-05-30T16:07:52Z</time>
      </trkpt>
      <trkpt lat="49.42211" lon="4.10177">
        <ele>110</ele>
        <time>2019-05-30T16:07:53Z</time>
      </trkpt>
      <trkpt lat="49.42205" lon="4.10177">
        <ele>109</ele>
        <time>2019-05-30T16:07:54Z</time>
      </trkpt>
      <trkpt lat="49.42199" lon="4.10176">
        <ele>110</ele>
        <time>2019-05-30T16:07:55Z</time>
      </trkpt>
      <trkpt lat="49.42194" lon="4.10175">
        <ele>109</ele>
        <time>2019-05-30T16:07:56Z</time>
      </trkpt>
      <trkpt lat="49.42188" lon="4.10174">
        <ele>109</ele>
        <time>2019-05-30T16:07:57Z</time>
      </trkpt>
      <trkpt lat="49.42183" lon="4.10172">
        <ele>110</ele>
        <time>2019-05-30T16:07:58Z</time>
      </trkpt>
      <trkpt lat="49.42178" lon="4.1017">
        <ele>110</ele>
        <time>2019-05-30T16:07:59Z</time>
      </trkpt>
      <trkpt lat="49.42172" lon="4.10167">
        <ele>110</ele>
        <time>2019-05-30T16:08:00Z</time>
      </trkpt>
      <trkpt lat="49.42167" lon="4.10165">
        <ele>110</ele>
        <time>2019-05-30T16:08:01Z</time>
      </trkpt>
      <trkpt lat="49.42162" lon="4.10162">
        <ele>110</ele>
        <time>2019-05-30T16:08:02Z</time>
      </trkpt>
      <trkpt lat="49.42156" lon="4.10159">
        <ele>110</ele>
        <time>2019-05-30T16:08:03Z</time>
      </trkpt>
      <trkpt lat="49.4215" lon="4.10156">
        <ele>111</ele>
        <time>2019-05-30T16:08:04Z</time>
      </trkpt>
      <trkpt lat="49.42144" lon="4.10153">
        <ele>110</ele>
        <time>2019-05-30T16:08:05Z</time>
      </trkpt>
      <trkpt lat="49.42139" lon="4.1015">
        <ele>111</ele>
        <time>2019-05-30T16:08:06Z</time>
      </trkpt>
      <trkpt lat="49.42133" lon="4.10147">
        <ele>111</ele>
        <time>2019-05-30T16:08:07Z</time>
      </trkpt>
      <trkpt lat="49.42127" lon="4.10144">
        <ele>111</ele>
        <time>2019-05-30T16:08:08Z</time>
      </trkpt>
      <trkpt lat="49.42122" lon="4.10141">
        <ele>111</ele>
        <time>2019-05-30T16:08:09Z</time>
      </trkpt>
      <trkpt lat="49.42116" lon="4.10138">
        <ele>111</ele>
        <time>2019-05-30T16:08:10Z</time>
      </trkpt>
      <trkpt lat="49.4211" lon="4.10135">
        <ele>111</ele>
        <time>2019-05-30T16:08:11Z</time>
      </trkpt>
      <trkpt lat="49.42105" lon="4.10131">
        <ele>111</ele>
        <time>2019-05-30T16:08:12Z</time>
      </trkpt>
      <trkpt lat="49.42098" lon="4.10128">
        <ele>111</ele>
        <time>2019-05-30T16:08:13Z</time>
      </trkpt>
      <trkpt lat="49.42092" lon="4.10126">
        <ele>111</ele>
        <time>2019-05-30T16:08:14Z</time>
      </trkpt>
      <trkpt lat="49.42086" lon="4.10123">
        <ele>111</ele>
        <time>2019-05-30T16:08:15Z</time>
      </trkpt>
      <trkpt lat="49.4208" lon="4.1012">
        <ele>112</ele>
        <time>2019-05-30T16:08:16Z</time>
      </trkpt>
      <trkpt lat="49.42073" lon="4.10118">
        <ele>112</ele>
        <time>2019-05-30T16:08:17Z</time>
      </trkpt>
      <trkpt lat="49.42067" lon="4.10116">
        <ele>112</ele>
        <time>2019-05-30T16:08:18Z</time>
      </trkpt>
      <trkpt lat="49.42061" lon="4.10113">
        <ele>112</ele>
        <time>2019-05-30T16:08:19Z</time>
      </trkpt>
      <trkpt lat="49.42055" lon="4.1011">
        <ele>112</ele>
        <time>2019-05-30T16:08:20Z</time>
      </trkpt>
      <trkpt lat="49.42049" lon="4.10108">
        <ele>113</ele>
        <time>2019-05-30T16:08:21Z</time>
      </trkpt>
      <trkpt lat="49.42042" lon="4.10105">
        <ele>113</ele>
        <time>2019-05-30T16:08:22Z</time>
      </trkpt>
      <trkpt lat="49.42036" lon="4.10103">
        <ele>113</ele>
        <time>2019-05-30T16:08:23Z</time>
      </trkpt>
      <trkpt lat="49.42029" lon="4.101">
        <ele>113</ele>
        <time>2019-05-30T16:08:24Z</time>
      </trkpt>
      <trkpt lat="49.42022" lon="4.10096">
        <ele>113</ele>
        <time>2019-05-30T16:08:25Z</time>
      </trkpt>
      <trkpt lat="49.42014" lon="4.10091">
        <ele>113</ele>
        <time>2019-05-30T16:08:26Z</time>
      </trkpt>
      <trkpt lat="49.42007" lon="4.10087">
        <ele>113</ele>
        <time>2019-05-30T16:08:27Z</time>
      </trkpt>
      <trkpt lat="49.42" lon="4.10083">
        <ele>113</ele>
        <time>2019-05-30T16:08:28Z</time>
      </trkpt>
      <trkpt lat="49.41993" lon="4.10079">
        <ele>113</ele>
        <time>2019-05-30T16:08:29Z</time>
      </trkpt>
      <trkpt lat="49.41987" lon="4.10075">
        <ele>113</ele>
        <time>2019-05-30T16:08:30Z</time>
      </trkpt>
      <trkpt lat="49.4198" lon="4.10071">
        <ele>113</ele>
        <time>2019-05-30T16:08:31Z</time>
      </trkpt>
      <trkpt lat="49.41973" lon="4.10068">
        <ele>113</ele>
        <time>2019-05-30T16:08:32Z</time>
      </trkpt>
      <trkpt lat="49.41966" lon="4.10065">
        <ele>113</ele>
        <time>2019-05-30T16:08:33Z</time>
      </trkpt>
      <trkpt lat="49.4196" lon="4.10062">
        <ele>113</ele>
        <time>2019-05-30T16:08:34Z</time>
      </trkpt>
      <trkpt lat="49.41953" lon="4.10059">
        <ele>113</ele>
        <time>2019-05-30T16:08:35Z</time>
      </trkpt>
      <trkpt lat="49.41946" lon="4.10055">
        <ele>113</ele>
        <time>2019-05-30T16:08:36Z</time>
      </trkpt>
      <trkpt lat="49.4194" lon="4.10052">
        <ele>113</ele>
        <time>2019-05-30T16:08:37Z</time>
      </trkpt>
      <trkpt lat="49.41933" lon="4.10049">
        <ele>112</ele>
        <time>2019-05-30T16:08:38Z</time>
      </trkpt>
      <trkpt lat="49.41926" lon="4.10046">
        <ele>113</ele>
        <time>2019-05-30T16:08:39Z</time>
      </trkpt>
      <trkpt lat="49.4192" lon="4.10043">
        <ele>113</ele>
        <time>2019-05-30T16:08:40Z</time>
      </trkpt>
      <trkpt lat="49.41913" lon="4.1004">
        <ele>112</ele>
        <time>2019-05-30T16:08:41Z</time>
      </trkpt>
      <trkpt lat="49.41907" lon="4.10037">
        <ele>112</ele>
        <time>2019-05-30T16:08:42Z</time>
      </trkpt>
      <trkpt lat="49.419" lon="4.10033">
        <ele>112</ele>
        <time>2019-05-30T16:08:43Z</time>
      </trkpt>
      <trkpt lat="49.41893" lon="4.10029">
        <ele>112</ele>
        <time>2019-05-30T16:08:44Z</time>
      </trkpt>
      <trkpt lat="49.41887" lon="4.10024">
        <ele>111</ele>
        <time>2019-05-30T16:08:45Z</time>
      </trkpt>
      <trkpt lat="49.41882" lon="4.10016">
        <ele>111</ele>
        <time>2019-05-30T16:08:46Z</time>
      </trkpt>
      <trkpt lat="49.41879" lon="4.10005">
        <ele>111</ele>
        <time>2019-05-30T16:08:47Z</time>
      </trkpt>
      <trkpt lat="49.41878" lon="4.09994">
        <ele>111</ele>
        <time>2019-05-30T16:08:48Z</time>
      </trkpt>
      <trkpt lat="49.41877" lon="4.09983">
        <ele>111</ele>
        <time>2019-05-30T16:08:49Z</time>
      </trkpt>
      <trkpt lat="49.41877" lon="4.09973">
        <ele>110</ele>
        <time>2019-05-30T16:08:50Z</time>
      </trkpt>
      <trkpt lat="49.41876" lon="4.09962">
        <ele>110</ele>
        <time>2019-05-30T16:08:51Z</time>
      </trkpt>
      <trkpt lat="49.41875" lon="4.09951">
        <ele>110</ele>
        <time>2019-05-30T16:08:52Z</time>
      </trkpt>
      <trkpt lat="49.41874" lon="4.09941">
        <ele>110</ele>
        <time>2019-05-30T16:08:53Z</time>
      </trkpt>
      <trkpt lat="49.41873" lon="4.0993">
        <ele>109</ele>
        <time>2019-05-30T16:08:54Z</time>
      </trkpt>
      <trkpt lat="49.41872" lon="4.0992">
        <ele>109</ele>
        <time>2019-05-30T16:08:55Z</time>
      </trkpt>
      <trkpt lat="49.41871" lon="4.0991">
        <ele>109</ele>
        <time>2019-05-30T16:08:56Z</time>
      </trkpt>
      <trkpt lat="49.4187" lon="4.099">
        <ele>109</ele>
        <time>2019-05-30T16:08:57Z</time>
      </trkpt>
      <trkpt lat="49.41869" lon="4.0989">
        <ele>109</ele>
        <time>2019-05-30T16:08:58Z</time>
      </trkpt>
      <trkpt lat="49.41868" lon="4.09879">
        <ele>110</ele>
        <time>2019-05-30T16:08:59Z</time>
      </trkpt>
      <trkpt lat="49.41867" lon="4.09869">
        <ele>109</ele>
        <time>2019-05-30T16:09:00Z</time>
      </trkpt>
      <trkpt lat="49.41865" lon="4.09858">
        <ele>110</ele>
        <time>2019-05-30T16:09:01Z</time>
      </trkpt>
      <trkpt lat="49.41863" lon="4.09849">
        <ele>110</ele>
        <time>2019-05-30T16:09:02Z</time>
      </trkpt>
      <trkpt lat="49.41861" lon="4.09839">
        <ele>110</ele>
        <time>2019-05-30T16:09:03Z</time>
      </trkpt>
      <trkpt lat="49.41857" lon="4.09831">
        <ele>110</ele>
        <time>2019-05-30T16:09:04Z</time>
      </trkpt>
      <trkpt lat="49.41852" lon="4.09823">
        <ele>110</ele>
        <time>2019-05-30T16:09:05Z</time>
      </trkpt>
      <trkpt lat="49.41848" lon="4.09817">
        <ele>110</ele>
        <time>2019-05-30T16:09:06Z</time>
      </trkpt>
      <trkpt lat="49.41842" lon="4.09813">
        <ele>110</ele>
        <time>2019-05-30T16:09:07Z</time>
      </trkpt>
      <trkpt lat="49.41837" lon="4.0981">
        <ele>110</ele>
        <time>2019-05-30T16:09:08Z</time>
      </trkpt>
      <trkpt lat="49.41831" lon="4.09808">
        <ele>110</ele>
        <time>2019-05-30T16:09:09Z</time>
      </trkpt>
      <trkpt lat="49.41825" lon="4.09808">
        <ele>110</ele>
        <time>2019-05-30T16:09:10Z</time>
      </trkpt>
      <trkpt lat="49.41819" lon="4.09807">
        <ele>110</ele>
        <time>2019-05-30T16:09:11Z</time>
      </trkpt>
      <trkpt lat="49.41813" lon="4.09807">
        <ele>110</ele>
        <time>2019-05-30T16:09:12Z</time>
      </trkpt>
      <trkpt lat="49.41807" lon="4.09807">
        <ele>110</ele>
        <time>2019-05-30T16:09:13Z</time>
      </trkpt>
      <trkpt lat="49.41801" lon="4.09806">
        <ele>110</ele>
        <time>2019-05-30T16:09:14Z</time>
      </trkpt>
      <trkpt lat="49.41795" lon="4.09805">
        <ele>110</ele>
        <time>2019-05-30T16:09:15Z</time>
      </trkpt>
      <trkpt lat="49.41788" lon="4.09805">
        <ele>110</ele>
        <time>2019-05-30T16:09:16Z</time>
      </trkpt>
      <trkpt lat="49.41782" lon="4.09805">
        <ele>110</ele>
        <time>2019-05-30T16:09:17Z</time>
      </trkpt>
      <trkpt lat="49.41776" lon="4.09805">
        <ele>110</ele>
        <time>2019-05-30T16:09:18Z</time>
      </trkpt>
      <trkpt lat="49.4177" lon="4.09804">
        <ele>110</ele>
        <time>2019-05-30T16:09:19Z</time>
      </trkpt>
      <trkpt lat="49.41764" lon="4.09803">
        <ele>110</ele>
        <time>2019-05-30T16:09:20Z</time>
      </trkpt>
      <trkpt lat="49.41758" lon="4.09802">
        <ele>110</ele>
        <time>2019-05-30T16:09:21Z</time>
      </trkpt>
      <trkpt lat="49.41752" lon="4.09802">
        <ele>110</ele>
        <time>2019-05-30T16:09:22Z</time>
      </trkpt>
      <trkpt lat="49.41745" lon="4.09802">
        <ele>110</ele>
        <time>2019-05-30T16:09:23Z</time>
      </trkpt>
      <trkpt lat="49.41739" lon="4.09801">
        <ele>110</ele>
        <time>2019-05-30T16:09:24Z</time>
      </trkpt>
      <trkpt lat="49.41734" lon="4.09801">
        <ele>110</ele>
        <time>2019-05-30T16:09:25Z</time>
      </trkpt>
      <trkpt lat="49.41728" lon="4.098">
        <ele>110</ele>
        <time>2019-05-30T16:09:26Z</time>
      </trkpt>
      <trkpt lat="49.41722" lon="4.098">
        <ele>110</ele>
        <time>2019-05-30T16:09:27Z</time>
      </trkpt>
      <trkpt lat="49.41717" lon="4.09799">
        <ele>110</ele>
        <time>2019-05-30T16:09:28Z</time>
      </trkpt>
      <trkpt lat="49.41711" lon="4.09798">
        <ele>110</ele>
        <time>2019-05-30T16:09:29Z</time>
      </trkpt>
      <trkpt lat="49.41705" lon="4.09798">
        <ele>110</ele>
        <time>2019-05-30T16:09:30Z</time>
      </trkpt>
      <trkpt lat="49.417" lon="4.09797">
        <ele>110</ele>
        <time>2019-05-30T16:09:31Z</time>
      </trkpt>
      <trkpt lat="49.41694" lon="4.09797">
        <ele>110</ele>
        <time>2019-05-30T16:09:32Z</time>
      </trkpt>
      <trkpt lat="49.41689" lon="4.09796">
        <ele>110</ele>
        <time>2019-05-30T16:09:33Z</time>
      </trkpt>
      <trkpt lat="49.41684" lon="4.09796">
        <ele>111</ele>
        <time>2019-05-30T16:09:34Z</time>
      </trkpt>
      <trkpt lat="49.41678" lon="4.09795">
        <ele>111</ele>
        <time>2019-05-30T16:09:35Z</time>
      </trkpt>
      <trkpt lat="49.41673" lon="4.09795">
        <ele>111</ele>
        <time>2019-05-30T16:09:36Z</time>
      </trkpt>
      <trkpt lat="49.41668" lon="4.09795">
        <ele>111</ele>
        <time>2019-05-30T16:09:37Z</time>
      </trkpt>
      <trkpt lat="49.41663" lon="4.09795">
        <ele>111</ele>
        <time>2019-05-30T16:09:38Z</time>
      </trkpt>
      <trkpt lat="49.41658" lon="4.09794">
        <ele>111</ele>
        <time>2019-05-30T16:09:39Z</time>
      </trkpt>
      <trkpt lat="49.41652" lon="4.09794">
        <ele>111</ele>
        <time>2019-05-30T16:09:40Z</time>
      </trkpt>
      <trkpt lat="49.41647" lon="4.09793">
        <ele>112</ele>
        <time>2019-05-30T16:09:41Z</time>
      </trkpt>
      <trkpt lat="49.41642" lon="4.09793">
        <ele>112</ele>
        <time>2019-05-30T16:09:42Z</time>
      </trkpt>
      <trkpt lat="49.41637" lon="4.09792">
        <ele>112</ele>
        <time>2019-05-30T16:09:43Z</time>
      </trkpt>
      <trkpt lat="49.41632" lon="4.09792">
        <ele>112</ele>
        <time>2019-05-30T16:09:44Z</time>
      </trkpt>
      <trkpt lat="49.41627" lon="4.09792">
        <ele>112</ele>
        <time>2019-05-30T16:09:45Z</time>
      </trkpt>
      <trkpt lat="49.41622" lon="4.09791">
        <ele>112</ele>
        <time>2019-05-30T16:09:46Z</time>
      </trkpt>
      <trkpt lat="49.41617" lon="4.09791">
        <ele>112</ele>
        <time>2019-05-30T16:09:47Z</time>
      </trkpt>
      <trkpt lat="49.41612" lon="4.0979">
        <ele>113</ele>
        <time>2019-05-30T16:09:48Z</time>
      </trkpt>
      <trkpt lat="49.41607" lon="4.0979">
        <ele>113</ele>
        <time>2019-05-30T16:09:49Z</time>
      </trkpt>
      <trkpt lat="49.41602" lon="4.09789">
        <ele>113</ele>
        <time>2019-05-30T16:09:50Z</time>
      </trkpt>
      <trkpt lat="49.41597" lon="4.09789">
        <ele>113</ele>
        <time>2019-05-30T16:09:51Z</time>
      </trkpt>
      <trkpt lat="49.41592" lon="4.09788">
        <ele>113</ele>
        <time>2019-05-30T16:09:52Z</time>
      </trkpt>
      <trkpt lat="49.41588" lon="4.09788">
        <ele>113</ele>
        <time>2019-05-30T16:09:53Z</time>
      </trkpt>
      <trkpt lat="49.41583" lon="4.09787">
        <ele>113</ele>
        <time>2019-05-30T16:09:54Z</time>
      </trkpt>
      <trkpt lat="49.41578" lon="4.09787">
        <ele>114</ele>
        <time>2019-05-30T16:09:55Z</time>
      </trkpt>
      <trkpt lat="49.41573" lon="4.09787">
        <ele>113</ele>
        <time>2019-05-30T16:09:56Z</time>
      </trkpt>
      <trkpt lat="49.41569" lon="4.09786">
        <ele>114</ele>
        <time>2019-05-30T16:09:57Z</time>
      </trkpt>
      <trkpt lat="49.41564" lon="4.09785">
        <ele>114</ele>
        <time>2019-05-30T16:09:58Z</time>
      </trkpt>
      <trkpt lat="49.4156" lon="4.09785">
        <ele>114</ele>
        <time>2019-05-30T16:09:59Z</time>
      </trkpt>
      <trkpt lat="49.41555" lon="4.09785">
        <ele>114</ele>
        <time>2019-05-30T16:10:00Z</time>
      </trkpt>
      <trkpt lat="49.41551" lon="4.09784">
        <ele>114</ele>
        <time>2019-05-30T16:10:01Z</time>
      </trkpt>
      <trkpt lat="49.41546" lon="4.09784">
        <ele>114</ele>
        <time>2019-05-30T16:10:02Z</time>
      </trkpt>
      <trkpt lat="49.41541" lon="4.09783">
        <ele>114</ele>
        <time>2019-05-30T16:10:03Z</time>
      </trkpt>
      <trkpt lat="49.41537" lon="4.09783">
        <ele>114</ele>
        <time>2019-05-30T16:10:04Z</time>
      </trkpt>
      <trkpt lat="49.41532" lon="4.09783">
        <ele>114</ele>
        <time>2019-05-30T16:10:05Z</time>
      </trkpt>
      <trkpt lat="49.41528" lon="4.09782">
        <ele>115</ele>
        <time>2019-05-30T16:10:06Z</time>
      </trkpt>
      <trkpt lat="49.41524" lon="4.09782">
        <ele>115</ele>
        <time>2019-05-30T16:10:07Z</time>
      </trkpt>
      <trkpt lat="49.41519" lon="4.09781">
        <ele>115</ele>
        <time>2019-05-30T16:10:08Z</time>
      </trkpt>
      <trkpt lat="49.41514" lon="4.0978">
        <ele>115</ele>
        <time>2019-05-30T16:10:09Z</time>
      </trkpt>
      <trkpt lat="49.4151" lon="4.0978">
        <ele>115</ele>
        <time>2019-05-30T16:10:10Z</time>
      </trkpt>
      <trkpt lat="49.41505" lon="4.09779">
        <ele>115</ele>
        <time>2019-05-30T16:10:11Z</time>
      </trkpt>
      <trkpt lat="49.41501" lon="4.09778">
        <ele>115</ele>
        <time>2019-05-30T16:10:12Z</time>
      </trkpt>
      <trkpt lat="49.41496" lon="4.09778">
        <ele>115</ele>
        <time>2019-05-30T16:10:13Z</time>
      </trkpt>
      <trkpt lat="49.41491" lon="4.09778">
        <ele>115</ele>
        <time>2019-05-30T16:10:14Z</time>
      </trkpt>
      <trkpt lat="49.41487" lon="4.09777">
        <ele>115</ele>
        <time>2019-05-30T16:10:15Z</time>
      </trkpt>
      <trkpt lat="49.41482" lon="4.09776">
        <ele>116</ele>
        <time>2019-05-30T16:10:16Z</time>
      </trkpt>
      <trkpt lat="49.41478" lon="4.09775">
        <ele>116</ele>
        <time>2019-05-30T16:10:17Z</time>
      </trkpt>
      <trkpt lat="49.41473" lon="4.09775">
        <ele>116</ele>
        <time>2019-05-30T16:10:18Z</time>
      </trkpt>
      <trkpt lat="49.41469" lon="4.09774">
        <ele>116</ele>
        <time>2019-05-30T16:10:19Z</time>
      </trkpt>
      <trkpt lat="49.41464" lon="4.09774">
        <ele>116</ele>
        <time>2019-05-30T16:10:20Z</time>
      </trkpt>
      <trkpt lat="49.4146" lon="4.09774">
        <ele>116</ele>
        <time>2019-05-30T16:10:21Z</time>
      </trkpt>
      <trkpt lat="49.41455" lon="4.09773">
        <ele>116</ele>
        <time>2019-05-30T16:10:22Z</time>
      </trkpt>
      <trkpt lat="49.41451" lon="4.09773">
        <ele>116</ele>
        <time>2019-05-30T16:10:23Z</time>
      </trkpt>
      <trkpt lat="49.41447" lon="4.09772">
        <ele>117</ele>
        <time>2019-05-30T16:10:24Z</time>
      </trkpt>
      <trkpt lat="49.41442" lon="4.09771">
        <ele>117</ele>
        <time>2019-05-30T16:10:25Z</time>
      </trkpt>
      <trkpt lat="49.41438" lon="4.0977">
        <ele>117</ele>
        <time>2019-05-30T16:10:26Z</time>
      </trkpt>
      <trkpt lat="49.41434" lon="4.0977">
        <ele>117</ele>
        <time>2019-05-30T16:10:27Z</time>
      </trkpt>
      <trkpt lat="49.41429" lon="4.09769">
        <ele>117</ele>
        <time>2019-05-30T16:10:28Z</time>
      </trkpt>
      <trkpt lat="49.41425" lon="4.09769">
        <ele>117</ele>
        <time>2019-05-30T16:10:29Z</time>
      </trkpt>
      <trkpt lat="49.41421" lon="4.09768">
        <ele>117</ele>
        <time>2019-05-30T16:10:30Z</time>
      </trkpt>
      <trkpt lat="49.41417" lon="4.09768">
        <ele>117</ele>
        <time>2019-05-30T16:10:31Z</time>
      </trkpt>
      <trkpt lat="49.41413" lon="4.09768">
        <ele>117</ele>
        <time>2019-05-30T16:10:32Z</time>
      </trkpt>
      <trkpt lat="49.41409" lon="4.09767">
        <ele>117</ele>
        <time>2019-05-30T16:10:33Z</time>
      </trkpt>
      <trkpt lat="49.41405" lon="4.09767">
        <ele>117</ele>
        <time>2019-05-30T16:10:34Z</time>
      </trkpt>
      <trkpt lat="49.41401" lon="4.09766">
        <ele>117</ele>
        <time>2019-05-30T16:10:35Z</time>
      </trkpt>
      <trkpt lat="49.41398" lon="4.09766">
        <ele>117</ele>
        <time>2019-05-30T16:10:36Z</time>
      </trkpt>
      <trkpt lat="49.41394" lon="4.09766">
        <ele>118</ele>
        <time>2019-05-30T16:10:37Z</time>
      </trkpt>
      <trkpt lat="49.41391" lon="4.09765">
        <ele>118</ele>
        <time>2019-05-30T16:10:38Z</time>
      </trkpt>
      <trkpt lat="49.41387" lon="4.09764">
        <ele>118</ele>
        <time>2019-05-30T16:10:39Z</time>
      </trkpt>
      <trkpt lat="49.41383" lon="4.09764">
        <ele>118</ele>
        <time>2019-05-30T16:10:40Z</time>
      </trkpt>
      <trkpt lat="49.41379" lon="4.09763">
        <ele>118</ele>
        <time>2019-05-30T16:10:41Z</time>
      </trkpt>
      <trkpt lat="49.41376" lon="4.09763">
        <ele>119</ele>
        <time>2019-05-30T16:10:42Z</time>
      </trkpt>
      <trkpt lat="49.41372" lon="4.09763">
        <ele>119</ele>
        <time>2019-05-30T16:10:43Z</time>
      </trkpt>
      <trkpt lat="49.41368" lon="4.09763">
        <ele>119</ele>
        <time>2019-05-30T16:10:44Z</time>
      </trkpt>
      <trkpt lat="49.41365" lon="4.09762">
        <ele>119</ele>
        <time>2019-05-30T16:10:45Z</time>
      </trkpt>
      <trkpt lat="49.41361" lon="4.09762">
        <ele>119</ele>
        <time>2019-05-30T16:10:46Z</time>
      </trkpt>
      <trkpt lat="49.41357" lon="4.09761">
        <ele>119</ele>
        <time>2019-05-30T16:10:47Z</time>
      </trkpt>
      <trkpt lat="49.41353" lon="4.09761">
        <ele>119</ele>
        <time>2019-05-30T16:10:48Z</time>
      </trkpt>
      <trkpt lat="49.4135" lon="4.09761">
        <ele>119</ele>
        <time>2019-05-30T16:10:49Z</time>
      </trkpt>
      <trkpt lat="49.41346" lon="4.0976">
        <ele>119</ele>
        <time>2019-05-30T16:10:50Z</time>
      </trkpt>
      <trkpt lat="49.41342" lon="4.0976">
        <ele>119</ele>
        <time>2019-05-30T16:10:51Z</time>
      </trkpt>
      <trkpt lat="49.41338" lon="4.09759">
        <ele>120</ele>
        <time>2019-05-30T16:10:52Z</time>
      </trkpt>
      <trkpt lat="49.41334" lon="4.09759">
        <ele>119</ele>
        <time>2019-05-30T16:10:53Z</time>
      </trkpt>
      <trkpt lat="49.4133" lon="4.09758">
        <ele>119</ele>
        <time>2019-05-30T16:10:54Z</time>
      </trkpt>
      <trkpt lat="49.41325" lon="4.09758">
        <ele>120</ele>
        <time>2019-05-30T16:10:55Z</time>
      </trkpt>
      <trkpt lat="49.41321" lon="4.09757">
        <ele>120</ele>
        <time>2019-05-30T16:10:56Z</time>
      </trkpt>
      <trkpt lat="49.41317" lon="4.09756">
        <ele>120</ele>
        <time>2019-05-30T16:10:57Z</time>
      </trkpt>
      <trkpt lat="49.41312" lon="4.09756">
        <ele>120</ele>
        <time>2019-05-30T16:10:58Z</time>
      </trkpt>
      <trkpt lat="49.41308" lon="4.09756">
        <ele>120</ele>
        <time>2019-05-30T16:10:59Z</time>
      </trkpt>
      <trkpt lat="49.41303" lon="4.09756">
        <ele>120</ele>
        <time>2019-05-30T16:11:00Z</time>
      </trkpt>
      <trkpt lat="49.41299" lon="4.09755">
        <ele>120</ele>
        <time>2019-05-30T16:11:01Z</time>
      </trkpt>
      <trkpt lat="49.41294" lon="4.09755">
        <ele>120</ele>
        <time>2019-05-30T16:11:02Z</time>
      </trkpt>
      <trkpt lat="49.4129" lon="4.09754">
        <ele>120</ele>
        <time>2019-05-30T16:11:03Z</time>
      </trkpt>
      <trkpt lat="49.41285" lon="4.09754">
        <ele>121</ele>
        <time>2019-05-30T16:11:04Z</time>
      </trkpt>
      <trkpt lat="49.41281" lon="4.09754">
        <ele>121</ele>
        <time>2019-05-30T16:11:05Z</time>
      </trkpt>
      <trkpt lat="49.41276" lon="4.09753">
        <ele>121</ele>
        <time>2019-05-30T16:11:06Z</time>
      </trkpt>
      <trkpt lat="49.41272" lon="4.09752">
        <ele>121</ele>
        <time>2019-05-30T16:11:07Z</time>
      </trkpt>
      <trkpt lat="49.41267" lon="4.09752">
        <ele>121</ele>
        <time>2019-05-30T16:11:08Z</time>
      </trkpt>
      <trkpt lat="49.41262" lon="4.09751">
        <ele>121</ele>
        <time>2019-05-30T16:11:09Z</time>
      </trkpt>
      <trkpt lat="49.41258" lon="4.09751">
        <ele>121</ele>
        <time>2019-05-30T16:11:10Z</time>
      </trkpt>
      <trkpt lat="49.41253" lon="4.0975">
        <ele>121</ele>
        <time>2019-05-30T16:11:11Z</time>
      </trkpt>
      <trkpt lat="49.41248" lon="4.0975">
        <ele>121</ele>
        <time>2019-05-30T16:11:12Z</time>
      </trkpt>
      <trkpt lat="49.41243" lon="4.09749">
        <ele>121</ele>
        <time>2019-05-30T16:11:13Z</time>
      </trkpt>
      <trkpt lat="49.41238" lon="4.09749">
        <ele>121</ele>
        <time>2019-05-30T16:11:14Z</time>
      </trkpt>
      <trkpt lat="49.41233" lon="4.09749">
        <ele>121</ele>
        <time>2019-05-30T16:11:15Z</time>
      </trkpt>
      <trkpt lat="49.41228" lon="4.09749">
        <ele>121</ele>
        <time>2019-05-30T16:11:16Z</time>
      </trkpt>
      <trkpt lat="49.41222" lon="4.09748">
        <ele>121</ele>
        <time>2019-05-30T16:11:17Z</time>
      </trkpt>
      <trkpt lat="49.41217" lon="4.09748">
        <ele>121</ele>
        <time>2019-05-30T16:11:18Z</time>
      </trkpt>
      <trkpt lat="49.41212" lon="4.09748">
        <ele>121</ele>
        <time>2019-05-30T16:11:19Z</time>
      </trkpt>
      <trkpt lat="49.41206" lon="4.09748">
        <ele>121</ele>
        <time>2019-05-30T16:11:20Z</time>
      </trkpt>
      <trkpt lat="49.41201" lon="4.09747">
        <ele>121</ele>
        <time>2019-05-30T16:11:21Z</time>
      </trkpt>
      <trkpt lat="49.41196" lon="4.09746">
        <ele>121</ele>
        <time>2019-05-30T16:11:22Z</time>
      </trkpt>
      <trkpt lat="49.41192" lon="4.09745">
        <ele>121</ele>
        <time>2019-05-30T16:11:23Z</time>
      </trkpt>
      <trkpt lat="49.41186" lon="4.09745">
        <ele>121</ele>
        <time>2019-05-30T16:11:24Z</time>
      </trkpt>
      <trkpt lat="49.41181" lon="4.09745">
        <ele>121</ele>
        <time>2019-05-30T16:11:25Z</time>
      </trkpt>
      <trkpt lat="49.41176" lon="4.09744">
        <ele>121</ele>
        <time>2019-05-30T16:11:26Z</time>
      </trkpt>
      <trkpt lat="49.41171" lon="4.09743">
        <ele>121</ele>
        <time>2019-05-30T16:11:27Z</time>
      </trkpt>
      <trkpt lat="49.41166" lon="4.09743">
        <ele>121</ele>
        <time>2019-05-30T16:11:28Z</time>
      </trkpt>
      <trkpt lat="49.4116" lon="4.09742">
        <ele>121</ele>
        <time>2019-05-30T16:11:29Z</time>
      </trkpt>
      <trkpt lat="49.41154" lon="4.09741">
        <ele>121</ele>
        <time>2019-05-30T16:11:30Z</time>
      </trkpt>
      <trkpt lat="49.41149" lon="4.0974">
        <ele>121</ele>
        <time>2019-05-30T16:11:31Z</time>
      </trkpt>
      <trkpt lat="49.41143" lon="4.09739">
        <ele>121</ele>
        <time>2019-05-30T16:11:32Z</time>
      </trkpt>
      <trkpt lat="49.41138" lon="4.09738">
        <ele>121</ele>
        <time>2019-05-30T16:11:33Z</time>
      </trkpt>
      <trkpt lat="49.41133" lon="4.09737">
        <ele>122</ele>
        <time>2019-05-30T16:11:34Z</time>
      </trkpt>
      <trkpt lat="49.41128" lon="4.09737">
        <ele>122</ele>
        <time>2019-05-30T16:11:35Z</time>
      </trkpt>
      <trkpt lat="49.41122" lon="4.09736">
        <ele>122</ele>
        <time>2019-05-30T16:11:36Z</time>
      </trkpt>
      <trkpt lat="49.41117" lon="4.09735">
        <ele>122</ele>
        <time>2019-05-30T16:11:37Z</time>
      </trkpt>
      <trkpt lat="49.41112" lon="4.09734">
        <ele>122</ele>
        <time>2019-05-30T16:11:38Z</time>
      </trkpt>
      <trkpt lat="49.41107" lon="4.09734">
        <ele>122</ele>
        <time>2019-05-30T16:11:39Z</time>
      </trkpt>
      <trkpt lat="49.41101" lon="4.09733">
        <ele>122</ele>
        <time>2019-05-30T16:11:40Z</time>
      </trkpt>
      <trkpt lat="49.41096" lon="4.09732">
        <ele>122</ele>
        <time>2019-05-30T16:11:41Z</time>
      </trkpt>
      <trkpt lat="49.41091" lon="4.09731">
        <ele>122</ele>
        <time>2019-05-30T16:11:42Z</time>
      </trkpt>
      <trkpt lat="49.41085" lon="4.09731">
        <ele>122</ele>
        <time>2019-05-30T16:11:43Z</time>
      </trkpt>
      <trkpt lat="49.4108" lon="4.0973">
        <ele>122</ele>
        <time>2019-05-30T16:11:44Z</time>
      </trkpt>
      <trkpt lat="49.41075" lon="4.09729">
        <ele>122</ele>
        <time>2019-05-30T16:11:45Z</time>
      </trkpt>
      <trkpt lat="49.41069" lon="4.09728">
        <ele>122</ele>
        <time>2019-05-30T16:11:46Z</time>
      </trkpt>
      <trkpt lat="49.41064" lon="4.09728">
        <ele>121</ele>
        <time>2019-05-30T16:11:47Z</time>
      </trkpt>
      <trkpt lat="49.41058" lon="4.09728">
        <ele>121</ele>
        <time>2019-05-30T16:11:48Z</time>
      </trkpt>
      <trkpt lat="49.41053" lon="4.09727">
        <ele>121</ele>
        <time>2019-05-30T16:11:49Z</time>
      </trkpt>
      <trkpt lat="49.41047" lon="4.09725">
        <ele>121</ele>
        <time>2019-05-30T16:11:50Z</time>
      </trkpt>
      <trkpt lat="49.41041" lon="4.09723">
        <ele>121</ele>
        <time>2019-05-30T16:11:51Z</time>
      </trkpt>
      <trkpt lat="49.41035" lon="4.09722">
        <ele>121</ele>
        <time>2019-05-30T16:11:52Z</time>
      </trkpt>
      <trkpt lat="49.41029" lon="4.09721">
        <ele>121</ele>
        <time>2019-05-30T16:11:53Z</time>
      </trkpt>
      <trkpt lat="49.41023" lon="4.0972">
        <ele>121</ele>
        <time>2019-05-30T16:11:54Z</time>
      </trkpt>
      <trkpt lat="49.41016" lon="4.09719">
        <ele>121</ele>
        <time>2019-05-30T16:11:55Z</time>
      </trkpt>
      <trkpt lat="49.4101" lon="4.09718">
        <ele>121</ele>
        <time>2019-05-30T16:11:56Z</time>
      </trkpt>
      <trkpt lat="49.41003" lon="4.09717">
        <ele>121</ele>
        <time>2019-05-30T16:11:57Z</time>
      </trkpt>
      <trkpt lat="49.40996" lon="4.09716">
        <ele>121</ele>
        <time>2019-05-30T16:11:58Z</time>
      </trkpt>
      <trkpt lat="49.40989" lon="4.09715">
        <ele>121</ele>
        <time>2019-05-30T16:11:59Z</time>
      </trkpt>
      <trkpt lat="49.40982" lon="4.09714">
        <ele>121</ele>
        <time>2019-05-30T16:12:00Z</time>
      </trkpt>
      <trkpt lat="49.40975" lon="4.09713">
        <ele>121</ele>
        <time>2019-05-30T16:12:01Z</time>
      </trkpt>
      <trkpt lat="49.40968" lon="4.09712">
        <ele>120</ele>
        <time>2019-05-30T16:12:02Z</time>
      </trkpt>
      <trkpt lat="49.4096" lon="4.0971">
        <ele>120</ele>
        <time>2019-05-30T16:12:03Z</time>
      </trkpt>
      <trkpt lat="49.40953" lon="4.09709">
        <ele>120</ele>
        <time>2019-05-30T16:12:04Z</time>
      </trkpt>
      <trkpt lat="49.40945" lon="4.09708">
        <ele>120</ele>
        <time>2019-05-30T16:12:05Z</time>
      </trkpt>
      <trkpt lat="49.40938" lon="4.09707">
        <ele>120</ele>
        <time>2019-05-30T16:12:06Z</time>
      </trkpt>
      <trkpt lat="49.40931" lon="4.09706">
        <ele>120</ele>
        <time>2019-05-30T16:12:07Z</time>
      </trkpt>
      <trkpt lat="49.40923" lon="4.09705">
        <ele>120</ele>
        <time>2019-05-30T16:12:08Z</time>
      </trkpt>
      <trkpt lat="49.40916" lon="4.09704">
        <ele>119</ele>
        <time>2019-05-30T16:12:09Z</time>
      </trkpt>
      <trkpt lat="49.40908" lon="4.09702">
        <ele>120</ele>
        <time>2019-05-30T16:12:10Z</time>
      </trkpt>
      <trkpt lat="49.40901" lon="4.09701">
        <ele>120</ele>
        <time>2019-05-30T16:12:11Z</time>
      </trkpt>
      <trkpt lat="49.40894" lon="4.097">
        <ele>120</ele>
        <time>2019-05-30T16:12:12Z</time>
      </trkpt>
      <trkpt lat="49.40886" lon="4.09699">
        <ele>120</ele>
        <time>2019-05-30T16:12:13Z</time>
      </trkpt>
      <trkpt lat="49.40879" lon="4.09698">
        <ele>120</ele>
        <time>2019-05-30T16:12:14Z</time>
      </trkpt>
      <trkpt lat="49.40872" lon="4.09696">
        <ele>119</ele>
        <time>2019-05-30T16:12:15Z</time>
      </trkpt>
      <trkpt lat="49.40864" lon="4.09695">
        <ele>119</ele>
        <time>2019-05-30T16:12:16Z</time>
      </trkpt>
      <trkpt lat="49.40857" lon="4.09694">
        <ele>119</ele>
        <time>2019-05-30T16:12:17Z</time>
      </trkpt>
      <trkpt lat="49.4085" lon="4.09693">
        <ele>119</ele>
        <time>2019-05-30T16:12:18Z</time>
      </trkpt>
      <trkpt lat="49.40843" lon="4.09692">
        <ele>120</ele>
        <time>2019-05-30T16:12:19Z</time>
      </trkpt>
      <trkpt lat="49.40836" lon="4.09691">
        <ele>119</ele>
        <time>2019-05-30T16:12:20Z</time>
      </trkpt>
      <trkpt lat="49.40828" lon="4.09689">
        <ele>119</ele>
        <time>2019-05-30T16:12:21Z</time>
      </trkpt>
      <trkpt lat="49.40821" lon="4.09687">
        <ele>119</ele>
        <time>2019-05-30T16:12:22Z</time>
      </trkpt>
      <trkpt lat="49.40814" lon="4.09686">
        <ele>119</ele>
        <time>2019-05-30T16:12:23Z</time>
      </trkpt>
      <trkpt lat="49.40807" lon="4.09685">
        <ele>120</ele>
        <time>2019-05-30T16:12:24Z</time>
      </trkpt>
      <trkpt lat="49.408" lon="4.09684">
        <ele>119</ele>
        <time>2019-05-30T16:12:25Z</time>
      </trkpt>
      <trkpt lat="49.40793" lon="4.09683">
        <ele>119</ele>
        <time>2019-05-30T16:12:26Z</time>
      </trkpt>
      <trkpt lat="49.40787" lon="4.09682">
        <ele>119</ele>
        <time>2019-05-30T16:12:27Z</time>
      </trkpt>
      <trkpt lat="49.4078" lon="4.09681">
        <ele>120</ele>
        <time>2019-05-30T16:12:28Z</time>
      </trkpt>
      <trkpt lat="49.40774" lon="4.0968">
        <ele>120</ele>
        <time>2019-05-30T16:12:29Z</time>
      </trkpt>
      <trkpt lat="49.40768" lon="4.09679">
        <ele>120</ele>
        <time>2019-05-30T16:12:30Z</time>
      </trkpt>
      <trkpt lat="49.40762" lon="4.09678">
        <ele>120</ele>
        <time>2019-05-30T16:12:31Z</time>
      </trkpt>
      <trkpt lat="49.40756" lon="4.09676">
        <ele>121</ele>
        <time>2019-05-30T16:12:32Z</time>
      </trkpt>
      <trkpt lat="49.4075" lon="4.09675">
        <ele>121</ele>
        <time>2019-05-30T16:12:33Z</time>
      </trkpt>
      <trkpt lat="49.40744" lon="4.09674">
        <ele>121</ele>
        <time>2019-05-30T16:12:34Z</time>
      </trkpt>
      <trkpt lat="49.40738" lon="4.09674">
        <ele>121</ele>
        <time>2019-05-30T16:12:35Z</time>
      </trkpt>
      <trkpt lat="49.40732" lon="4.09673">
        <ele>121</ele>
        <time>2019-05-30T16:12:36Z</time>
      </trkpt>
      <trkpt lat="49.40727" lon="4.09672">
        <ele>121</ele>
        <time>2019-05-30T16:12:37Z</time>
      </trkpt>
      <trkpt lat="49.40721" lon="4.09671">
        <ele>121</ele>
        <time>2019-05-30T16:12:38Z</time>
      </trkpt>
      <trkpt lat="49.40716" lon="4.0967">
        <ele>121</ele>
        <time>2019-05-30T16:12:39Z</time>
      </trkpt>
      <trkpt lat="49.4071" lon="4.09669">
        <ele>122</ele>
        <time>2019-05-30T16:12:40Z</time>
      </trkpt>
      <trkpt lat="49.40705" lon="4.09669">
        <ele>122</ele>
        <time>2019-05-30T16:12:41Z</time>
      </trkpt>
      <trkpt lat="49.407" lon="4.09668">
        <ele>122</ele>
        <time>2019-05-30T16:12:42Z</time>
      </trkpt>
      <trkpt lat="49.40695" lon="4.09667">
        <ele>122</ele>
        <time>2019-05-30T16:12:43Z</time>
      </trkpt>
      <trkpt lat="49.4069" lon="4.09666">
        <ele>122</ele>
        <time>2019-05-30T16:12:44Z</time>
      </trkpt>
      <trkpt lat="49.40685" lon="4.09665">
        <ele>123</ele>
        <time>2019-05-30T16:12:45Z</time>
      </trkpt>
      <trkpt lat="49.4068" lon="4.09664">
        <ele>123</ele>
        <time>2019-05-30T16:12:46Z</time>
      </trkpt>
      <trkpt lat="49.40676" lon="4.09663">
        <ele>123</ele>
        <time>2019-05-30T16:12:47Z</time>
      </trkpt>
      <trkpt lat="49.40671" lon="4.09662">
        <ele>123</ele>
        <time>2019-05-30T16:12:48Z</time>
      </trkpt>
      <trkpt lat="49.40666" lon="4.09662">
        <ele>123</ele>
        <time>2019-05-30T16:12:49Z</time>
      </trkpt>
      <trkpt lat="49.40662" lon="4.09661">
        <ele>123</ele>
        <time>2019-05-30T16:12:50Z</time>
      </trkpt>
      <trkpt lat="49.40657" lon="4.0966">
        <ele>123</ele>
        <time>2019-05-30T16:12:51Z</time>
      </trkpt>
      <trkpt lat="49.40653" lon="4.09659">
        <ele>123</ele>
        <time>2019-05-30T16:12:52Z</time>
      </trkpt>
      <trkpt lat="49.40648" lon="4.09659">
        <ele>123</ele>
        <time>2019-05-30T16:12:53Z</time>
      </trkpt>
      <trkpt lat="49.40643" lon="4.09658">
        <ele>123</ele>
        <time>2019-05-30T16:12:54Z</time>
      </trkpt>
      <trkpt lat="49.40639" lon="4.09657">
        <ele>123</ele>
        <time>2019-05-30T16:12:55Z</time>
      </trkpt>
      <trkpt lat="49.40635" lon="4.09656">
        <ele>123</ele>
        <time>2019-05-30T16:12:56Z</time>
      </trkpt>
      <trkpt lat="49.4063" lon="4.09655">
        <ele>123</ele>
        <time>2019-05-30T16:12:57Z</time>
      </trkpt>
      <trkpt lat="49.40626" lon="4.09655">
        <ele>123</ele>
        <time>2019-05-30T16:12:58Z</time>
      </trkpt>
      <trkpt lat="49.40622" lon="4.09654">
        <ele>123</ele>
        <time>2019-05-30T16:12:59Z</time>
      </trkpt>
      <trkpt lat="49.40618" lon="4.09653">
        <ele>123</ele>
        <time>2019-05-30T16:13:00Z</time>
      </trkpt>
      <trkpt lat="49.40614" lon="4.09653">
        <ele>124</ele>
        <time>2019-05-30T16:13:01Z</time>
      </trkpt>
      <trkpt lat="49.4061" lon="4.09652">
        <ele>124</ele>
        <time>2019-05-30T16:13:02Z</time>
      </trkpt>
      <trkpt lat="49.40606" lon="4.09651">
        <ele>124</ele>
        <time>2019-05-30T16:13:03Z</time>
      </trkpt>
      <trkpt lat="49.40602" lon="4.0965">
        <ele>124</ele>
        <time>2019-05-30T16:13:04Z</time>
      </trkpt>
      <trkpt lat="49.40598" lon="4.0965">
        <ele>124</ele>
        <time>2019-05-30T16:13:05Z</time>
      </trkpt>
      <trkpt lat="49.40595" lon="4.0965">
        <ele>124</ele>
        <time>2019-05-30T16:13:06Z</time>
      </trkpt>
      <trkpt lat="49.40591" lon="4.09649">
        <ele>125</ele>
        <time>2019-05-30T16:13:07Z</time>
      </trkpt>
      <trkpt lat="49.40587" lon="4.09648">
        <ele>125</ele>
        <time>2019-05-30T16:13:08Z</time>
      </trkpt>
      <trkpt lat="49.40584" lon="4.09648">
        <ele>125</ele>
        <time>2019-05-30T16:13:09Z</time>
      </trkpt>
      <trkpt lat="49.4058" lon="4.09647">
        <ele>125</ele>
        <time>2019-05-30T16:13:10Z</time>
      </trkpt>
      <trkpt lat="49.40577" lon="4.09646">
        <ele>125</ele>
        <time>2019-05-30T16:13:11Z</time>
      </trkpt>
      <trkpt lat="49.40573" lon="4.09646">
        <ele>126</ele>
        <time>2019-05-30T16:13:12Z</time>
      </trkpt>
      <trkpt lat="49.4057" lon="4.09646">
        <ele>126</ele>
        <time>2019-05-30T16:13:13Z</time>
      </trkpt>
      <trkpt lat="49.40567" lon="4.09646">
        <ele>126</ele>
        <time>2019-05-30T16:13:14Z</time>
      </trkpt>
      <trkpt lat="49.40563" lon="4.09645">
        <ele>126</ele>
        <time>2019-05-30T16:13:15Z</time>
      </trkpt>
      <trkpt lat="49.4056" lon="4.09644">
        <ele>126</ele>
        <time>2019-05-30T16:13:16Z</time>
      </trkpt>
      <trkpt lat="49.40557" lon="4.09644">
        <ele>126</ele>
        <time>2019-05-30T16:13:17Z</time>
      </trkpt>
      <trkpt lat="49.40553" lon="4.09643">
        <ele>126</ele>
        <time>2019-05-30T16:13:18Z</time>
      </trkpt>
      <trkpt lat="49.4055" lon="4.09643">
        <ele>126</ele>
        <time>2019-05-30T16:13:19Z</time>
      </trkpt>
      <trkpt lat="49.40546" lon="4.09642">
        <ele>127</ele>
        <time>2019-05-30T16:13:20Z</time>
      </trkpt>
      <trkpt lat="49.40543" lon="4.09641">
        <ele>127</ele>
        <time>2019-05-30T16:13:21Z</time>
      </trkpt>
      <trkpt lat="49.4054" lon="4.09641">
        <ele>127</ele>
        <time>2019-05-30T16:13:22Z</time>
      </trkpt>
      <trkpt lat="49.40536" lon="4.0964">
        <ele>127</ele>
        <time>2019-05-30T16:13:23Z</time>
      </trkpt>
      <trkpt lat="49.40533" lon="4.0964">
        <ele>127</ele>
        <time>2019-05-30T16:13:24Z</time>
      </trkpt>
      <trkpt lat="49.4053" lon="4.09639">
        <ele>127</ele>
        <time>2019-05-30T16:13:25Z</time>
      </trkpt>
      <trkpt lat="49.40526" lon="4.09638">
        <ele>128</ele>
        <time>2019-05-30T16:13:26Z</time>
      </trkpt>
      <trkpt lat="49.40523" lon="4.09638">
        <ele>128</ele>
        <time>2019-05-30T16:13:27Z</time>
      </trkpt>
      <trkpt lat="49.4052" lon="4.09637">
        <ele>128</ele>
        <time>2019-05-30T16:13:28Z</time>
      </trkpt>
      <trkpt lat="49.40517" lon="4.09637">
        <ele>128</ele>
        <time>2019-05-30T16:13:29Z</time>
      </trkpt>
      <trkpt lat="49.40513" lon="4.09636">
        <ele>128</ele>
        <time>2019-05-30T16:13:30Z</time>
      </trkpt>
      <trkpt lat="49.4051" lon="4.09636">
        <ele>128</ele>
        <time>2019-05-30T16:13:31Z</time>
      </trkpt>
      <trkpt lat="49.40507" lon="4.09635">
        <ele>129</ele>
        <time>2019-05-30T16:13:32Z</time>
      </trkpt>
      <trkpt lat="49.40504" lon="4.09635">
        <ele>129</ele>
        <time>2019-05-30T16:13:33Z</time>
      </trkpt>
      <trkpt lat="49.40501" lon="4.09634">
        <ele>129</ele>
        <time>2019-05-30T16:13:34Z</time>
      </trkpt>
      <trkpt lat="49.40498" lon="4.09634">
        <ele>129</ele>
        <time>2019-05-30T16:13:35Z</time>
      </trkpt>
      <trkpt lat="49.40495" lon="4.09633">
        <ele>129</ele>
        <time>2019-05-30T16:13:36Z</time>
      </trkpt>
      <trkpt lat="49.40492" lon="4.09633">
        <ele>129</ele>
        <time>2019-05-30T16:13:37Z</time>
      </trkpt>
      <trkpt lat="49.40489" lon="4.09632">
        <ele>130</ele>
        <time>2019-05-30T16:13:38Z</time>
      </trkpt>
      <trkpt lat="49.40486" lon="4.09631">
        <ele>130</ele>
        <time>2019-05-30T16:13:39Z</time>
      </trkpt>
      <trkpt lat="49.40483" lon="4.09631">
        <ele>130</ele>
        <time>2019-05-30T16:13:40Z</time>
      </trkpt>
      <trkpt lat="49.40479" lon="4.0963">
        <ele>130</ele>
        <time>2019-05-30T16:13:41Z</time>
      </trkpt>
      <trkpt lat="49.40476" lon="4.0963">
        <ele>130</ele>
        <time>2019-05-30T16:13:42Z</time>
      </trkpt>
      <trkpt lat="49.40473" lon="4.09629">
        <ele>131</ele>
        <time>2019-05-30T16:13:43Z</time>
      </trkpt>
      <trkpt lat="49.40469" lon="4.09629">
        <ele>131</ele>
        <time>2019-05-30T16:13:44Z</time>
      </trkpt>
      <trkpt lat="49.40466" lon="4.09628">
        <ele>131</ele>
        <time>2019-05-30T16:13:45Z</time>
      </trkpt>
      <trkpt lat="49.40462" lon="4.09627">
        <ele>131</ele>
        <time>2019-05-30T16:13:46Z</time>
      </trkpt>
      <trkpt lat="49.40459" lon="4.09627">
        <ele>131</ele>
        <time>2019-05-30T16:13:47Z</time>
      </trkpt>
      <trkpt lat="49.40455" lon="4.09626">
        <ele>131</ele>
        <time>2019-05-30T16:13:48Z</time>
      </trkpt>
      <trkpt lat="49.40452" lon="4.09626">
        <ele>131</ele>
        <time>2019-05-30T16:13:49Z</time>
      </trkpt>
      <trkpt lat="49.40448" lon="4.09625">
        <ele>131</ele>
        <time>2019-05-30T16:13:50Z</time>
      </trkpt>
      <trkpt lat="49.40444" lon="4.09625">
        <ele>131</ele>
        <time>2019-05-30T16:13:51Z</time>
      </trkpt>
      <trkpt lat="49.40441" lon="4.09624">
        <ele>132</ele>
        <time>2019-05-30T16:13:52Z</time>
      </trkpt>
      <trkpt lat="49.40438" lon="4.09623">
        <ele>132</ele>
        <time>2019-05-30T16:13:53Z</time>
      </trkpt>
      <trkpt lat="49.40434" lon="4.09622">
        <ele>132</ele>
        <time>2019-05-30T16:13:54Z</time>
      </trkpt>
      <trkpt lat="49.40431" lon="4.09622">
        <ele>132</ele>
        <time>2019-05-30T16:13:55Z</time>
      </trkpt>
      <trkpt lat="49.40428" lon="4.09621">
        <ele>132</ele>
        <time>2019-05-30T16:13:56Z</time>
      </trkpt>
      <trkpt lat="49.40424" lon="4.0962">
        <ele>132</ele>
        <time>2019-05-30T16:13:57Z</time>
      </trkpt>
      <trkpt lat="49.40421" lon="4.0962">
        <ele>132</ele>
        <time>2019-05-30T16:13:58Z</time>
      </trkpt>
      <trkpt lat="49.40417" lon="4.0962">
        <ele>133</ele>
        <time>2019-05-30T16:13:59Z</time>
      </trkpt>
      <trkpt lat="49.40414" lon="4.09619">
        <ele>133</ele>
        <time>2019-05-30T16:14:00Z</time>
      </trkpt>
      <trkpt lat="49.40411" lon="4.09619">
        <ele>133</ele>
        <time>2019-05-30T16:14:01Z</time>
      </trkpt>
      <trkpt lat="49.40408" lon="4.09618">
        <ele>133</ele>
        <time>2019-05-30T16:14:02Z</time>
      </trkpt>
      <trkpt lat="49.40404" lon="4.09617">
        <ele>133</ele>
        <time>2019-05-30T16:14:03Z</time>
      </trkpt>
      <trkpt lat="49.40401" lon="4.09617">
        <ele>133</ele>
        <time>2019-05-30T16:14:04Z</time>
      </trkpt>
      <trkpt lat="49.40397" lon="4.09616">
        <ele>133</ele>
        <time>2019-05-30T16:14:05Z</time>
      </trkpt>
      <trkpt lat="49.40393" lon="4.09616">
        <ele>133</ele>
        <time>2019-05-30T16:14:06Z</time>
      </trkpt>
      <trkpt lat="49.4039" lon="4.09615">
        <ele>133</ele>
        <time>2019-05-30T16:14:07Z</time>
      </trkpt>
      <trkpt lat="49.40387" lon="4.09615">
        <ele>133</ele>
        <time>2019-05-30T16:14:08Z</time>
      </trkpt>
      <trkpt lat="49.40383" lon="4.09614">
        <ele>134</ele>
        <time>2019-05-30T16:14:09Z</time>
      </trkpt>
      <trkpt lat="49.40379" lon="4.09613">
        <ele>133</ele>
        <time>2019-05-30T16:14:10Z</time>
      </trkpt>
      <trkpt lat="49.40375" lon="4.09613">
        <ele>133</ele>
        <time>2019-05-30T16:14:11Z</time>
      </trkpt>
      <trkpt lat="49.40372" lon="4.09612">
        <ele>134</ele>
        <time>2019-05-30T16:14:12Z</time>
      </trkpt>
      <trkpt lat="49.40368" lon="4.09612">
        <ele>134</ele>
        <time>2019-05-30T16:14:13Z</time>
      </trkpt>
      <trkpt lat="49.40364" lon="4.09611">
        <ele>134</ele>
        <time>2019-05-30T16:14:14Z</time>
      </trkpt>
      <trkpt lat="49.4036" lon="4.09611">
        <ele>134</ele>
        <time>2019-05-30T16:14:15Z</time>
      </trkpt>
      <trkpt lat="49.40356" lon="4.0961">
        <ele>135</ele>
        <time>2019-05-30T16:14:16Z</time>
      </trkpt>
      <trkpt lat="49.40353" lon="4.0961">
        <ele>135</ele>
        <time>2019-05-30T16:14:17Z</time>
      </trkpt>
      <trkpt lat="49.40349" lon="4.09608">
        <ele>135</ele>
        <time>2019-05-30T16:14:18Z</time>
      </trkpt>
      <trkpt lat="49.40346" lon="4.09607">
        <ele>135</ele>
        <time>2019-05-30T16:14:19Z</time>
      </trkpt>
      <trkpt lat="49.40342" lon="4.09607">
        <ele>135</ele>
        <time>2019-05-30T16:14:20Z</time>
      </trkpt>
      <trkpt lat="49.40339" lon="4.09606">
        <ele>135</ele>
        <time>2019-05-30T16:14:21Z</time>
      </trkpt>
      <trkpt lat="49.40335" lon="4.09605">
        <ele>135</ele>
        <time>2019-05-30T16:14:22Z</time>
      </trkpt>
      <trkpt lat="49.40331" lon="4.09604">
        <ele>135</ele>
        <time>2019-05-30T16:14:23Z</time>
      </trkpt>
      <trkpt lat="49.40328" lon="4.09604">
        <ele>135</ele>
        <time>2019-05-30T16:14:24Z</time>
      </trkpt>
      <trkpt lat="49.40324" lon="4.09603">
        <ele>135</ele>
        <time>2019-05-30T16:14:25Z</time>
      </trkpt>
      <trkpt lat="49.4032" lon="4.09603">
        <ele>135</ele>
        <time>2019-05-30T16:14:26Z</time>
      </trkpt>
      <trkpt lat="49.40316" lon="4.09603">
        <ele>135</ele>
        <time>2019-05-30T16:14:27Z</time>
      </trkpt>
      <trkpt lat="49.40312" lon="4.09602">
        <ele>135</ele>
        <time>2019-05-30T16:14:28Z</time>
      </trkpt>
      <trkpt lat="49.40308" lon="4.09601">
        <ele>136</ele>
        <time>2019-05-30T16:14:29Z</time>
      </trkpt>
      <trkpt lat="49.40304" lon="4.096">
        <ele>136</ele>
        <time>2019-05-30T16:14:30Z</time>
      </trkpt>
      <trkpt lat="49.403" lon="4.096">
        <ele>136</ele>
        <time>2019-05-30T16:14:31Z</time>
      </trkpt>
      <trkpt lat="49.40296" lon="4.09599">
        <ele>136</ele>
        <time>2019-05-30T16:14:32Z</time>
      </trkpt>
      <trkpt lat="49.40292" lon="4.09599">
        <ele>136</ele>
        <time>2019-05-30T16:14:33Z</time>
      </trkpt>
      <trkpt lat="49.40287" lon="4.09598">
        <ele>136</ele>
        <time>2019-05-30T16:14:34Z</time>
      </trkpt>
      <trkpt lat="49.40283" lon="4.09597">
        <ele>135</ele>
        <time>2019-05-30T16:14:35Z</time>
      </trkpt>
      <trkpt lat="49.40279" lon="4.09596">
        <ele>136</ele>
        <time>2019-05-30T16:14:36Z</time>
      </trkpt>
      <trkpt lat="49.40274" lon="4.09595">
        <ele>136</ele>
        <time>2019-05-30T16:14:37Z</time>
      </trkpt>
      <trkpt lat="49.4027" lon="4.09595">
        <ele>136</ele>
        <time>2019-05-30T16:14:38Z</time>
      </trkpt>
      <trkpt lat="49.40265" lon="4.09594">
        <ele>136</ele>
        <time>2019-05-30T16:14:39Z</time>
      </trkpt>
      <trkpt lat="49.4026" lon="4.09593">
        <ele>136</ele>
        <time>2019-05-30T16:14:40Z</time>
      </trkpt>
      <trkpt lat="49.40256" lon="4.09593">
        <ele>136</ele>
        <time>2019-05-30T16:14:41Z</time>
      </trkpt>
      <trkpt lat="49.40251" lon="4.09592">
        <ele>136</ele>
        <time>2019-05-30T16:14:42Z</time>
      </trkpt>
      <trkpt lat="49.40246" lon="4.09591">
        <ele>136</ele>
        <time>2019-05-30T16:14:43Z</time>
      </trkpt>
      <trkpt lat="49.40242" lon="4.0959">
        <ele>136</ele>
        <time>2019-05-30T16:14:44Z</time>
      </trkpt>
      <trkpt lat="49.40237" lon="4.0959">
        <ele>136</ele>
        <time>2019-05-30T16:14:45Z</time>
      </trkpt>
      <trkpt lat="49.40232" lon="4.09589">
        <ele>136</ele>
        <time>2019-05-30T16:14:46Z</time>
      </trkpt>
      <trkpt lat="49.40228" lon="4.09588">
        <ele>136</ele>
        <time>2019-05-30T16:14:47Z</time>
      </trkpt>
      <trkpt lat="49.40223" lon="4.09587">
        <ele>136</ele>
        <time>2019-05-30T16:14:48Z</time>
      </trkpt>
      <trkpt lat="49.40218" lon="4.09586">
        <ele>136</ele>
        <time>2019-05-30T16:14:49Z</time>
      </trkpt>
      <trkpt lat="49.40214" lon="4.09586">
        <ele>136</ele>
        <time>2019-05-30T16:14:50Z</time>
      </trkpt>
      <trkpt lat="49.40209" lon="4.09585">
        <ele>136</ele>
        <time>2019-05-30T16:14:51Z</time>
      </trkpt>
      <trkpt lat="49.40204" lon="4.09584">
        <ele>136</ele>
        <time>2019-05-30T16:14:52Z</time>
      </trkpt>
      <trkpt lat="49.402" lon="4.09583">
        <ele>136</ele>
        <time>2019-05-30T16:14:53Z</time>
      </trkpt>
      <trkpt lat="49.40195" lon="4.09582">
        <ele>136</ele>
        <time>2019-05-30T16:14:54Z</time>
      </trkpt>
      <trkpt lat="49.40189" lon="4.0958">
        <ele>136</ele>
        <time>2019-05-30T16:14:55Z</time>
      </trkpt>
      <trkpt lat="49.40184" lon="4.09579">
        <ele>136</ele>
        <time>2019-05-30T16:14:56Z</time>
      </trkpt>
      <trkpt lat="49.40179" lon="4.09578">
        <ele>136</ele>
        <time>2019-05-30T16:14:57Z</time>
      </trkpt>
      <trkpt lat="49.40173" lon="4.09578">
        <ele>136</ele>
        <time>2019-05-30T16:14:58Z</time>
      </trkpt>
      <trkpt lat="49.40168" lon="4.09577">
        <ele>136</ele>
        <time>2019-05-30T16:14:59Z</time>
      </trkpt>
      <trkpt lat="49.40162" lon="4.09575">
        <ele>135</ele>
        <time>2019-05-30T16:15:00Z</time>
      </trkpt>
      <trkpt lat="49.40156" lon="4.09573">
        <ele>136</ele>
        <time>2019-05-30T16:15:01Z</time>
      </trkpt>
      <trkpt lat="49.40151" lon="4.09572">
        <ele>135</ele>
        <time>2019-05-30T16:15:02Z</time>
      </trkpt>
      <trkpt lat="49.40145" lon="4.0957">
        <ele>135</ele>
        <time>2019-05-30T16:15:03Z</time>
      </trkpt>
      <trkpt lat="49.40139" lon="4.09568">
        <ele>135</ele>
        <time>2019-05-30T16:15:04Z</time>
      </trkpt>
      <trkpt lat="49.40133" lon="4.09565">
        <ele>135</ele>
        <time>2019-05-30T16:15:05Z</time>
      </trkpt>
      <trkpt lat="49.40127" lon="4.09564">
        <ele>135</ele>
        <time>2019-05-30T16:15:06Z</time>
      </trkpt>
      <trkpt lat="49.40121" lon="4.09562">
        <ele>135</ele>
        <time>2019-05-30T16:15:07Z</time>
      </trkpt>
      <trkpt lat="49.40115" lon="4.09561">
        <ele>135</ele>
        <time>2019-05-30T16:15:08Z</time>
      </trkpt>
      <trkpt lat="49.40108" lon="4.0956">
        <ele>135</ele>
        <time>2019-05-30T16:15:09Z</time>
      </trkpt>
      <trkpt lat="49.40101" lon="4.09559">
        <ele>135</ele>
        <time>2019-05-30T16:15:10Z</time>
      </trkpt>
      <trkpt lat="49.40095" lon="4.09559">
        <ele>135</ele>
        <time>2019-05-30T16:15:11Z</time>
      </trkpt>
      <trkpt lat="49.40088" lon="4.09558">
        <ele>135</ele>
        <time>2019-05-30T16:15:12Z</time>
      </trkpt>
      <trkpt lat="49.40081" lon="4.09557">
        <ele>135</ele>
        <time>2019-05-30T16:15:13Z</time>
      </trkpt>
      <trkpt lat="49.40074" lon="4.09556">
        <ele>134</ele>
        <time>2019-05-30T16:15:14Z</time>
      </trkpt>
      <trkpt lat="49.40067" lon="4.09556">
        <ele>134</ele>
        <time>2019-05-30T16:15:15Z</time>
      </trkpt>
      <trkpt lat="49.4006" lon="4.09556">
        <ele>134</ele>
        <time>2019-05-30T16:15:16Z</time>
      </trkpt>
      <trkpt lat="49.40053" lon="4.09555">
        <ele>134</ele>
        <time>2019-05-30T16:15:17Z</time>
      </trkpt>
      <trkpt lat="49.40046" lon="4.09555">
        <ele>134</ele>
        <time>2019-05-30T16:15:18Z</time>
      </trkpt>
      <trkpt lat="49.40038" lon="4.09554">
        <ele>134</ele>
        <time>2019-05-30T16:15:19Z</time>
      </trkpt>
      <trkpt lat="49.40031" lon="4.09554">
        <ele>134</ele>
        <time>2019-05-30T16:15:20Z</time>
      </trkpt>
      <trkpt lat="49.40024" lon="4.09554">
        <ele>134</ele>
        <time>2019-05-30T16:15:21Z</time>
      </trkpt>
      <trkpt lat="49.40017" lon="4.09554">
        <ele>133</ele>
        <time>2019-05-30T16:15:22Z</time>
      </trkpt>
      <trkpt lat="49.40011" lon="4.09553">
        <ele>133</ele>
        <time>2019-05-30T16:15:23Z</time>
      </trkpt>
      <trkpt lat="49.40005" lon="4.09553">
        <ele>133</ele>
        <time>2019-05-30T16:15:24Z</time>
      </trkpt>
      <trkpt lat="49.39998" lon="4.09552">
        <ele>133</ele>
        <time>2019-05-30T16:15:25Z</time>
      </trkpt>
      <trkpt lat="49.39992" lon="4.09552">
        <ele>133</ele>
        <time>2019-05-30T16:15:26Z</time>
      </trkpt>
      <trkpt lat="49.39986" lon="4.09552">
        <ele>133</ele>
        <time>2019-05-30T16:15:27Z</time>
      </trkpt>
      <trkpt lat="49.3998" lon="4.09551">
        <ele>133</ele>
        <time>2019-05-30T16:15:28Z</time>
      </trkpt>
      <trkpt lat="49.39974" lon="4.09551">
        <ele>133</ele>
        <time>2019-05-30T16:15:29Z</time>
      </trkpt>
      <trkpt lat="49.39967" lon="4.0955">
        <ele>133</ele>
        <time>2019-05-30T16:15:30Z</time>
      </trkpt>
      <trkpt lat="49.39961" lon="4.0955">
        <ele>132</ele>
        <time>2019-05-30T16:15:31Z</time>
      </trkpt>
      <trkpt lat="49.39955" lon="4.0955">
        <ele>132</ele>
        <time>2019-05-30T16:15:32Z</time>
      </trkpt>
      <trkpt lat="49.39949" lon="4.09549">
        <ele>132</ele>
        <time>2019-05-30T16:15:33Z</time>
      </trkpt>
      <trkpt lat="49.39943" lon="4.09548">
        <ele>132</ele>
        <time>2019-05-30T16:15:34Z</time>
      </trkpt>
      <trkpt lat="49.39937" lon="4.09548">
        <ele>132</ele>
        <time>2019-05-30T16:15:35Z</time>
      </trkpt>
      <trkpt lat="49.39931" lon="4.09548">
        <ele>132</ele>
        <time>2019-05-30T16:15:36Z</time>
      </trkpt>
      <trkpt lat="49.39925" lon="4.09548">
        <ele>132</ele>
        <time>2019-05-30T16:15:37Z</time>
      </trkpt>
      <trkpt lat="49.39919" lon="4.09547">
        <ele>132</ele>
        <time>2019-05-30T16:15:38Z</time>
      </trkpt>
      <trkpt lat="49.39913" lon="4.09547">
        <ele>132</ele>
        <time>2019-05-30T16:15:39Z</time>
      </trkpt>
      <trkpt lat="49.39906" lon="4.09547">
        <ele>132</ele>
        <time>2019-05-30T16:15:40Z</time>
      </trkpt>
      <trkpt lat="49.39899" lon="4.09547">
        <ele>132</ele>
        <time>2019-05-30T16:15:41Z</time>
      </trkpt>
      <trkpt lat="49.39893" lon="4.09548">
        <ele>132</ele>
        <time>2019-05-30T16:15:42Z</time>
      </trkpt>
      <trkpt lat="49.39886" lon="4.09549">
        <ele>132</ele>
        <time>2019-05-30T16:15:43Z</time>
      </trkpt>
      <trkpt lat="49.3988" lon="4.09549">
        <ele>132</ele>
        <time>2019-05-30T16:15:44Z</time>
      </trkpt>
      <trkpt lat="49.39873" lon="4.09549">
        <ele>132</ele>
        <time>2019-05-30T16:15:45Z</time>
      </trkpt>
      <trkpt lat="49.39866" lon="4.09549">
        <ele>132</ele>
        <time>2019-05-30T16:15:46Z</time>
      </trkpt>
      <trkpt lat="49.39859" lon="4.09549">
        <ele>132</ele>
        <time>2019-05-30T16:15:47Z</time>
      </trkpt>
      <trkpt lat="49.39852" lon="4.09548">
        <ele>131</ele>
        <time>2019-05-30T16:15:48Z</time>
      </trkpt>
      <trkpt lat="49.39845" lon="4.09549">
        <ele>131</ele>
        <time>2019-05-30T16:15:49Z</time>
      </trkpt>
      <trkpt lat="49.39838" lon="4.09549">
        <ele>131</ele>
        <time>2019-05-30T16:15:50Z</time>
      </trkpt>
      <trkpt lat="49.3983" lon="4.09549">
        <ele>131</ele>
        <time>2019-05-30T16:15:51Z</time>
      </trkpt>
      <trkpt lat="49.39823" lon="4.0955">
        <ele>132</ele>
        <time>2019-05-30T16:15:52Z</time>
      </trkpt>
      <trkpt lat="49.39816" lon="4.09551">
        <ele>132</ele>
        <time>2019-05-30T16:15:53Z</time>
      </trkpt>
      <trkpt lat="49.39809" lon="4.09551">
        <ele>132</ele>
        <time>2019-05-30T16:15:54Z</time>
      </trkpt>
      <trkpt lat="49.39801" lon="4.09551">
        <ele>131</ele>
        <time>2019-05-30T16:15:55Z</time>
      </trkpt>
      <trkpt lat="49.39794" lon="4.09551">
        <ele>131</ele>
        <time>2019-05-30T16:15:56Z</time>
      </trkpt>
      <trkpt lat="49.39787" lon="4.09552">
        <ele>131</ele>
        <time>2019-05-30T16:15:57Z</time>
      </trkpt>
      <trkpt lat="49.39779" lon="4.09551">
        <ele>131</ele>
        <time>2019-05-30T16:15:58Z</time>
      </trkpt>
      <trkpt lat="49.39772" lon="4.09552">
        <ele>131</ele>
        <time>2019-05-30T16:15:59Z</time>
      </trkpt>
      <trkpt lat="49.39764" lon="4.09552">
        <ele>131</ele>
        <time>2019-05-30T16:16:00Z</time>
      </trkpt>
      <trkpt lat="49.39756" lon="4.09552">
        <ele>131</ele>
        <time>2019-05-30T16:16:01Z</time>
      </trkpt>
      <trkpt lat="49.39748" lon="4.09552">
        <ele>130</ele>
        <time>2019-05-30T16:16:02Z</time>
      </trkpt>
      <trkpt lat="49.3974" lon="4.09553">
        <ele>131</ele>
        <time>2019-05-30T16:16:03Z</time>
      </trkpt>
      <trkpt lat="49.39733" lon="4.09553">
        <ele>131</ele>
        <time>2019-05-30T16:16:04Z</time>
      </trkpt>
      <trkpt lat="49.39725" lon="4.09553">
        <ele>130</ele>
        <time>2019-05-30T16:16:05Z</time>
      </trkpt>
      <trkpt lat="49.39717" lon="4.09553">
        <ele>130</ele>
        <time>2019-05-30T16:16:06Z</time>
      </trkpt>
      <trkpt lat="49.39708" lon="4.09554">
        <ele>130</ele>
        <time>2019-05-30T16:16:07Z</time>
      </trkpt>
      <trkpt lat="49.39701" lon="4.09554">
        <ele>130</ele>
        <time>2019-05-30T16:16:08Z</time>
      </trkpt>
      <trkpt lat="49.39692" lon="4.09554">
        <ele>130</ele>
        <time>2019-05-30T16:16:09Z</time>
      </trkpt>
      <trkpt lat="49.39684" lon="4.09554">
        <ele>130</ele>
        <time>2019-05-30T16:16:10Z</time>
      </trkpt>
      <trkpt lat="49.39676" lon="4.09554">
        <ele>130</ele>
        <time>2019-05-30T16:16:11Z</time>
      </trkpt>
      <trkpt lat="49.39667" lon="4.09555">
        <ele>129</ele>
        <time>2019-05-30T16:16:12Z</time>
      </trkpt>
      <trkpt lat="49.39659" lon="4.09555">
        <ele>129</ele>
        <time>2019-05-30T16:16:13Z</time>
      </trkpt>
      <trkpt lat="49.39651" lon="4.09555">
        <ele>129</ele>
        <time>2019-05-30T16:16:14Z</time>
      </trkpt>
      <trkpt lat="49.39643" lon="4.09555">
        <ele>129</ele>
        <time>2019-05-30T16:16:15Z</time>
      </trkpt>
      <trkpt lat="49.39635" lon="4.09556">
        <ele>129</ele>
        <time>2019-05-30T16:16:16Z</time>
      </trkpt>
      <trkpt lat="49.39626" lon="4.09556">
        <ele>129</ele>
        <time>2019-05-30T16:16:17Z</time>
      </trkpt>
      <trkpt lat="49.39618" lon="4.09557">
        <ele>128</ele>
        <time>2019-05-30T16:16:18Z</time>
      </trkpt>
      <trkpt lat="49.3961" lon="4.09557">
        <ele>128</ele>
        <time>2019-05-30T16:16:19Z</time>
      </trkpt>
      <trkpt lat="49.39602" lon="4.09557">
        <ele>128</ele>
        <time>2019-05-30T16:16:20Z</time>
      </trkpt>
      <trkpt lat="49.39593" lon="4.09558">
        <ele>128</ele>
        <time>2019-05-30T16:16:21Z</time>
      </trkpt>
      <trkpt lat="49.39585" lon="4.09558">
        <ele>128</ele>
        <time>2019-05-30T16:16:22Z</time>
      </trkpt>
      <trkpt lat="49.39577" lon="4.09558">
        <ele>128</ele>
        <time>2019-05-30T16:16:23Z</time>
      </trkpt>
      <trkpt lat="49.39568" lon="4.09558">
        <ele>127</ele>
        <time>2019-05-30T16:16:24Z</time>
      </trkpt>
      <trkpt lat="49.3956" lon="4.09558">
        <ele>127</ele>
        <time>2019-05-30T16:16:25Z</time>
      </trkpt>
      <trkpt lat="49.39552" lon="4.09558">
        <ele>127</ele>
        <time>2019-05-30T16:16:26Z</time>
      </trkpt>
      <trkpt lat="49.39543" lon="4.09559">
        <ele>127</ele>
        <time>2019-05-30T16:16:27Z</time>
      </trkpt>
      <trkpt lat="49.39535" lon="4.09559">
        <ele>127</ele>
        <time>2019-05-30T16:16:28Z</time>
      </trkpt>
      <trkpt lat="49.39526" lon="4.09559">
        <ele>127</ele>
        <time>2019-05-30T16:16:29Z</time>
      </trkpt>
      <trkpt lat="49.39518" lon="4.0956">
        <ele>127</ele>
        <time>2019-05-30T16:16:30Z</time>
      </trkpt>
      <trkpt lat="49.39509" lon="4.0956">
        <ele>126</ele>
        <time>2019-05-30T16:16:31Z</time>
      </trkpt>
      <trkpt lat="49.39501" lon="4.0956">
        <ele>126</ele>
        <time>2019-05-30T16:16:32Z</time>
      </trkpt>
      <trkpt lat="49.39493" lon="4.09561">
        <ele>126</ele>
        <time>2019-05-30T16:16:33Z</time>
      </trkpt>
      <trkpt lat="49.39485" lon="4.09561">
        <ele>126</ele>
        <time>2019-05-30T16:16:34Z</time>
      </trkpt>
      <trkpt lat="49.39477" lon="4.09561">
        <ele>126</ele>
        <time>2019-05-30T16:16:35Z</time>
      </trkpt>
      <trkpt lat="49.39468" lon="4.09561">
        <ele>126</ele>
        <time>2019-05-30T16:16:36Z</time>
      </trkpt>
      <trkpt lat="49.3946" lon="4.09562">
        <ele>126</ele>
        <time>2019-05-30T16:16:37Z</time>
      </trkpt>
      <trkpt lat="49.39451" lon="4.09562">
        <ele>125</ele>
        <time>2019-05-30T16:16:38Z</time>
      </trkpt>
      <trkpt lat="49.39443" lon="4.09561">
        <ele>125</ele>
        <time>2019-05-30T16:16:39Z</time>
      </trkpt>
      <trkpt lat="49.39435" lon="4.09562">
        <ele>125</ele>
        <time>2019-05-30T16:16:40Z</time>
      </trkpt>
      <trkpt lat="49.39426" lon="4.09562">
        <ele>125</ele>
        <time>2019-05-30T16:16:41Z</time>
      </trkpt>
      <trkpt lat="49.39418" lon="4.09562">
        <ele>124</ele>
        <time>2019-05-30T16:16:42Z</time>
      </trkpt>
      <trkpt lat="49.3941" lon="4.09562">
        <ele>124</ele>
        <time>2019-05-30T16:16:43Z</time>
      </trkpt>
      <trkpt lat="49.39402" lon="4.09563">
        <ele>124</ele>
        <time>2019-05-30T16:16:44Z</time>
      </trkpt>
      <trkpt lat="49.39393" lon="4.09563">
        <ele>124</ele>
        <time>2019-05-30T16:16:45Z</time>
      </trkpt>
      <trkpt lat="49.39385" lon="4.09563">
        <ele>124</ele>
        <time>2019-05-30T16:16:46Z</time>
      </trkpt>
      <trkpt lat="49.39377" lon="4.09563">
        <ele>124</ele>
        <time>2019-05-30T16:16:47Z</time>
      </trkpt>
      <trkpt lat="49.39369" lon="4.09564">
        <ele>124</ele>
        <time>2019-05-30T16:16:48Z</time>
      </trkpt>
      <trkpt lat="49.39352" lon="4.09565">
        <ele>124</ele>
        <time>2019-05-30T16:16:50Z</time>
      </trkpt>
      <trkpt lat="49.39344" lon="4.09564">
        <ele>124</ele>
        <time>2019-05-30T16:16:51Z</time>
      </trkpt>
      <trkpt lat="49.39335" lon="4.09564">
        <ele>124</ele>
        <time>2019-05-30T16:16:52Z</time>
      </trkpt>
      <trkpt lat="49.39326" lon="4.09565">
        <ele>124</ele>
        <time>2019-05-30T16:16:53Z</time>
      </trkpt>
      <trkpt lat="49.39318" lon="4.09565">
        <ele>123</ele>
        <time>2019-05-30T16:16:54Z</time>
      </trkpt>
      <trkpt lat="49.39309" lon="4.09565">
        <ele>123</ele>
        <time>2019-05-30T16:16:55Z</time>
      </trkpt>
      <trkpt lat="49.39301" lon="4.09565">
        <ele>123</ele>
        <time>2019-05-30T16:16:56Z</time>
      </trkpt>
      <trkpt lat="49.39293" lon="4.09566">
        <ele>123</ele>
        <time>2019-05-30T16:16:57Z</time>
      </trkpt>
      <trkpt lat="49.39284" lon="4.09566">
        <ele>123</ele>
        <time>2019-05-30T16:16:58Z</time>
      </trkpt>
      <trkpt lat="49.39276" lon="4.09566">
        <ele>123</ele>
        <time>2019-05-30T16:16:59Z</time>
      </trkpt>
      <trkpt lat="49.39267" lon="4.09567">
        <ele>123</ele>
        <time>2019-05-30T16:17:00Z</time>
      </trkpt>
      <trkpt lat="49.39259" lon="4.09567">
        <ele>123</ele>
        <time>2019-05-30T16:17:01Z</time>
      </trkpt>
      <trkpt lat="49.39251" lon="4.09567">
        <ele>123</ele>
        <time>2019-05-30T16:17:02Z</time>
      </trkpt>
      <trkpt lat="49.39242" lon="4.09568">
        <ele>123</ele>
        <time>2019-05-30T16:17:03Z</time>
      </trkpt>
      <trkpt lat="49.39234" lon="4.09568">
        <ele>122</ele>
        <time>2019-05-30T16:17:04Z</time>
      </trkpt>
      <trkpt lat="49.39226" lon="4.09568">
        <ele>122</ele>
        <time>2019-05-30T16:17:05Z</time>
      </trkpt>
      <trkpt lat="49.39217" lon="4.09569">
        <ele>122</ele>
        <time>2019-05-30T16:17:06Z</time>
      </trkpt>
      <trkpt lat="49.39209" lon="4.09568">
        <ele>122</ele>
        <time>2019-05-30T16:17:07Z</time>
      </trkpt>
      <trkpt lat="49.39201" lon="4.09569">
        <ele>122</ele>
        <time>2019-05-30T16:17:08Z</time>
      </trkpt>
      <trkpt lat="49.39193" lon="4.09569">
        <ele>121</ele>
        <time>2019-05-30T16:17:09Z</time>
      </trkpt>
      <trkpt lat="49.39185" lon="4.09569">
        <ele>121</ele>
        <time>2019-05-30T16:17:10Z</time>
      </trkpt>
      <trkpt lat="49.39177" lon="4.0957">
        <ele>121</ele>
        <time>2019-05-30T16:17:11Z</time>
      </trkpt>
      <trkpt lat="49.3917" lon="4.0957">
        <ele>121</ele>
        <time>2019-05-30T16:17:12Z</time>
      </trkpt>
      <trkpt lat="49.39162" lon="4.0957">
        <ele>121</ele>
        <time>2019-05-30T16:17:13Z</time>
      </trkpt>
      <trkpt lat="49.39155" lon="4.0957">
        <ele>121</ele>
        <time>2019-05-30T16:17:14Z</time>
      </trkpt>
      <trkpt lat="49.39148" lon="4.09571">
        <ele>121</ele>
        <time>2019-05-30T16:17:15Z</time>
      </trkpt>
      <trkpt lat="49.3914" lon="4.09571">
        <ele>120</ele>
        <time>2019-05-30T16:17:16Z</time>
      </trkpt>
      <trkpt lat="49.39133" lon="4.09571">
        <ele>120</ele>
        <time>2019-05-30T16:17:17Z</time>
      </trkpt>
      <trkpt lat="49.39126" lon="4.09571">
        <ele>120</ele>
        <time>2019-05-30T16:17:18Z</time>
      </trkpt>
      <trkpt lat="49.39119" lon="4.09571">
        <ele>120</ele>
        <time>2019-05-30T16:17:19Z</time>
      </trkpt>
      <trkpt lat="49.39112" lon="4.09571">
        <ele>120</ele>
        <time>2019-05-30T16:17:20Z</time>
      </trkpt>
      <trkpt lat="49.39105" lon="4.09572">
        <ele>120</ele>
        <time>2019-05-30T16:17:21Z</time>
      </trkpt>
      <trkpt lat="49.39097" lon="4.09573">
        <ele>120</ele>
        <time>2019-05-30T16:17:22Z</time>
      </trkpt>
      <trkpt lat="49.39091" lon="4.09573">
        <ele>120</ele>
        <time>2019-05-30T16:17:23Z</time>
      </trkpt>
      <trkpt lat="49.39083" lon="4.09573">
        <ele>120</ele>
        <time>2019-05-30T16:17:24Z</time>
      </trkpt>
      <trkpt lat="49.39076" lon="4.09573">
        <ele>120</ele>
        <time>2019-05-30T16:17:25Z</time>
      </trkpt>
      <trkpt lat="49.39069" lon="4.09574">
        <ele>120</ele>
        <time>2019-05-30T16:17:26Z</time>
      </trkpt>
      <trkpt lat="49.39061" lon="4.09574">
        <ele>120</ele>
        <time>2019-05-30T16:17:27Z</time>
      </trkpt>
      <trkpt lat="49.39054" lon="4.09574">
        <ele>120</ele>
        <time>2019-05-30T16:17:28Z</time>
      </trkpt>
      <trkpt lat="49.39047" lon="4.09574">
        <ele>120</ele>
        <time>2019-05-30T16:17:29Z</time>
      </trkpt>
      <trkpt lat="49.3904" lon="4.09574">
        <ele>120</ele>
        <time>2019-05-30T16:17:30Z</time>
      </trkpt>
      <trkpt lat="49.39032" lon="4.09574">
        <ele>120</ele>
        <time>2019-05-30T16:17:31Z</time>
      </trkpt>
      <trkpt lat="49.39025" lon="4.09574">
        <ele>120</ele>
        <time>2019-05-30T16:17:32Z</time>
      </trkpt>
      <trkpt lat="49.39017" lon="4.09575">
        <ele>120</ele>
        <time>2019-05-30T16:17:33Z</time>
      </trkpt>
      <trkpt lat="49.3901" lon="4.09576">
        <ele>120</ele>
        <time>2019-05-30T16:17:34Z</time>
      </trkpt>
      <trkpt lat="49.39002" lon="4.09576">
        <ele>120</ele>
        <time>2019-05-30T16:17:35Z</time>
      </trkpt>
      <trkpt lat="49.38995" lon="4.09576">
        <ele>120</ele>
        <time>2019-05-30T16:17:36Z</time>
      </trkpt>
      <trkpt lat="49.38988" lon="4.09576">
        <ele>120</ele>
        <time>2019-05-30T16:17:37Z</time>
      </trkpt>
      <trkpt lat="49.3898" lon="4.09577">
        <ele>121</ele>
        <time>2019-05-30T16:17:38Z</time>
      </trkpt>
      <trkpt lat="49.38973" lon="4.09577">
        <ele>121</ele>
        <time>2019-05-30T16:17:39Z</time>
      </trkpt>
      <trkpt lat="49.38966" lon="4.09576">
        <ele>122</ele>
        <time>2019-05-30T16:17:40Z</time>
      </trkpt>
      <trkpt lat="49.38959" lon="4.09576">
        <ele>122</ele>
        <time>2019-05-30T16:17:41Z</time>
      </trkpt>
      <trkpt lat="49.38953" lon="4.09577">
        <ele>122</ele>
        <time>2019-05-30T16:17:42Z</time>
      </trkpt>
      <trkpt lat="49.38946" lon="4.09578">
        <ele>122</ele>
        <time>2019-05-30T16:17:43Z</time>
      </trkpt>
      <trkpt lat="49.38939" lon="4.09579">
        <ele>121</ele>
        <time>2019-05-30T16:17:44Z</time>
      </trkpt>
      <trkpt lat="49.38932" lon="4.0958">
        <ele>121</ele>
        <time>2019-05-30T16:17:45Z</time>
      </trkpt>
      <trkpt lat="49.38925" lon="4.0958">
        <ele>121</ele>
        <time>2019-05-30T16:17:46Z</time>
      </trkpt>
      <trkpt lat="49.38918" lon="4.09581">
        <ele>121</ele>
        <time>2019-05-30T16:17:47Z</time>
      </trkpt>
      <trkpt lat="49.38911" lon="4.09581">
        <ele>120</ele>
        <time>2019-05-30T16:17:48Z</time>
      </trkpt>
      <trkpt lat="49.38904" lon="4.09581">
        <ele>120</ele>
        <time>2019-05-30T16:17:49Z</time>
      </trkpt>
      <trkpt lat="49.38896" lon="4.09582">
        <ele>120</ele>
        <time>2019-05-30T16:17:50Z</time>
      </trkpt>
      <trkpt lat="49.38889" lon="4.09582">
        <ele>119</ele>
        <time>2019-05-30T16:17:51Z</time>
      </trkpt>
      <trkpt lat="49.38882" lon="4.09582">
        <ele>119</ele>
        <time>2019-05-30T16:17:52Z</time>
      </trkpt>
      <trkpt lat="49.38875" lon="4.09582">
        <ele>119</ele>
        <time>2019-05-30T16:17:53Z</time>
      </trkpt>
      <trkpt lat="49.38868" lon="4.09582">
        <ele>119</ele>
        <time>2019-05-30T16:17:54Z</time>
      </trkpt>
      <trkpt lat="49.38861" lon="4.09582">
        <ele>119</ele>
        <time>2019-05-30T16:17:55Z</time>
      </trkpt>
      <trkpt lat="49.38854" lon="4.09583">
        <ele>119</ele>
        <time>2019-05-30T16:17:56Z</time>
      </trkpt>
      <trkpt lat="49.38847" lon="4.09583">
        <ele>118</ele>
        <time>2019-05-30T16:17:57Z</time>
      </trkpt>
      <trkpt lat="49.3884" lon="4.09583">
        <ele>118</ele>
        <time>2019-05-30T16:17:58Z</time>
      </trkpt>
      <trkpt lat="49.38833" lon="4.09584">
        <ele>118</ele>
        <time>2019-05-30T16:17:59Z</time>
      </trkpt>
      <trkpt lat="49.38826" lon="4.09585">
        <ele>118</ele>
        <time>2019-05-30T16:18:00Z</time>
      </trkpt>
      <trkpt lat="49.3882" lon="4.09585">
        <ele>118</ele>
        <time>2019-05-30T16:18:01Z</time>
      </trkpt>
      <trkpt lat="49.38813" lon="4.09586">
        <ele>117</ele>
        <time>2019-05-30T16:18:02Z</time>
      </trkpt>
      <trkpt lat="49.38806" lon="4.09586">
        <ele>117</ele>
        <time>2019-05-30T16:18:03Z</time>
      </trkpt>
      <trkpt lat="49.38799" lon="4.09587">
        <ele>117</ele>
        <time>2019-05-30T16:18:04Z</time>
      </trkpt>
      <trkpt lat="49.38792" lon="4.09587">
        <ele>117</ele>
        <time>2019-05-30T16:18:05Z</time>
      </trkpt>
      <trkpt lat="49.38786" lon="4.09587">
        <ele>117</ele>
        <time>2019-05-30T16:18:06Z</time>
      </trkpt>
      <trkpt lat="49.38779" lon="4.09588">
        <ele>117</ele>
        <time>2019-05-30T16:18:07Z</time>
      </trkpt>
      <trkpt lat="49.38772" lon="4.09588">
        <ele>117</ele>
        <time>2019-05-30T16:18:08Z</time>
      </trkpt>
      <trkpt lat="49.38765" lon="4.09589">
        <ele>117</ele>
        <time>2019-05-30T16:18:09Z</time>
      </trkpt>
      <trkpt lat="49.38759" lon="4.09589">
        <ele>117</ele>
        <time>2019-05-30T16:18:10Z</time>
      </trkpt>
      <trkpt lat="49.38752" lon="4.0959">
        <ele>117</ele>
        <time>2019-05-30T16:18:11Z</time>
      </trkpt>
      <trkpt lat="49.38745" lon="4.09591">
        <ele>117</ele>
        <time>2019-05-30T16:18:12Z</time>
      </trkpt>
      <trkpt lat="49.38738" lon="4.0959">
        <ele>117</ele>
        <time>2019-05-30T16:18:13Z</time>
      </trkpt>
      <trkpt lat="49.38731" lon="4.0959">
        <ele>116</ele>
        <time>2019-05-30T16:18:14Z</time>
      </trkpt>
      <trkpt lat="49.38724" lon="4.0959">
        <ele>116</ele>
        <time>2019-05-30T16:18:15Z</time>
      </trkpt>
      <trkpt lat="49.38716" lon="4.0959">
        <ele>116</ele>
        <time>2019-05-30T16:18:16Z</time>
      </trkpt>
      <trkpt lat="49.38709" lon="4.09591">
        <ele>115</ele>
        <time>2019-05-30T16:18:17Z</time>
      </trkpt>
      <trkpt lat="49.38701" lon="4.09591">
        <ele>115</ele>
        <time>2019-05-30T16:18:18Z</time>
      </trkpt>
      <trkpt lat="49.38694" lon="4.09592">
        <ele>115</ele>
        <time>2019-05-30T16:18:19Z</time>
      </trkpt>
      <trkpt lat="49.38686" lon="4.09593">
        <ele>115</ele>
        <time>2019-05-30T16:18:20Z</time>
      </trkpt>
      <trkpt lat="49.38679" lon="4.09594">
        <ele>115</ele>
        <time>2019-05-30T16:18:21Z</time>
      </trkpt>
      <trkpt lat="49.38673" lon="4.09594">
        <ele>115</ele>
        <time>2019-05-30T16:18:22Z</time>
      </trkpt>
      <trkpt lat="49.38666" lon="4.09595">
        <ele>115</ele>
        <time>2019-05-30T16:18:23Z</time>
      </trkpt>
      <trkpt lat="49.38659" lon="4.09596">
        <ele>115</ele>
        <time>2019-05-30T16:18:24Z</time>
      </trkpt>
      <trkpt lat="49.38653" lon="4.09599">
        <ele>115</ele>
        <time>2019-05-30T16:18:25Z</time>
      </trkpt>
      <trkpt lat="49.38645" lon="4.09602">
        <ele>115</ele>
        <time>2019-05-30T16:18:26Z</time>
      </trkpt>
      <trkpt lat="49.38639" lon="4.09605">
        <ele>115</ele>
        <time>2019-05-30T16:18:27Z</time>
      </trkpt>
      <trkpt lat="49.38632" lon="4.09607">
        <ele>115</ele>
        <time>2019-05-30T16:18:28Z</time>
      </trkpt>
      <trkpt lat="49.38624" lon="4.0961">
        <ele>115</ele>
        <time>2019-05-30T16:18:29Z</time>
      </trkpt>
      <trkpt lat="49.38617" lon="4.09613">
        <ele>115</ele>
        <time>2019-05-30T16:18:30Z</time>
      </trkpt>
      <trkpt lat="49.38611" lon="4.09615">
        <ele>115</ele>
        <time>2019-05-30T16:18:31Z</time>
      </trkpt>
      <trkpt lat="49.38605" lon="4.09618">
        <ele>115</ele>
        <time>2019-05-30T16:18:32Z</time>
      </trkpt>
      <trkpt lat="49.38598" lon="4.09621">
        <ele>116</ele>
        <time>2019-05-30T16:18:33Z</time>
      </trkpt>
      <trkpt lat="49.38591" lon="4.09625">
        <ele>116</ele>
        <time>2019-05-30T16:18:34Z</time>
      </trkpt>
      <trkpt lat="49.38585" lon="4.09629">
        <ele>117</ele>
        <time>2019-05-30T16:18:35Z</time>
      </trkpt>
      <trkpt lat="49.38578" lon="4.09634">
        <ele>117</ele>
        <time>2019-05-30T16:18:36Z</time>
      </trkpt>
      <trkpt lat="49.38572" lon="4.09638">
        <ele>117</ele>
        <time>2019-05-30T16:18:37Z</time>
      </trkpt>
      <trkpt lat="49.38566" lon="4.09645">
        <ele>117</ele>
        <time>2019-05-30T16:18:38Z</time>
      </trkpt>
      <trkpt lat="49.38561" lon="4.09651">
        <ele>117</ele>
        <time>2019-05-30T16:18:39Z</time>
      </trkpt>
      <trkpt lat="49.38555" lon="4.09659">
        <ele>117</ele>
        <time>2019-05-30T16:18:40Z</time>
      </trkpt>
      <trkpt lat="49.38549" lon="4.09667">
        <ele>117</ele>
        <time>2019-05-30T16:18:41Z</time>
      </trkpt>
      <trkpt lat="49.38544" lon="4.09674">
        <ele>117</ele>
        <time>2019-05-30T16:18:42Z</time>
      </trkpt>
      <trkpt lat="49.38538" lon="4.0968">
        <ele>116</ele>
        <time>2019-05-30T16:18:43Z</time>
      </trkpt>
      <trkpt lat="49.38533" lon="4.09688">
        <ele>115</ele>
        <time>2019-05-30T16:18:44Z</time>
      </trkpt>
      <trkpt lat="49.38527" lon="4.09696">
        <ele>115</ele>
        <time>2019-05-30T16:18:45Z</time>
      </trkpt>
      <trkpt lat="49.38522" lon="4.09703">
        <ele>116</ele>
        <time>2019-05-30T16:18:46Z</time>
      </trkpt>
      <trkpt lat="49.38516" lon="4.0971">
        <ele>116</ele>
        <time>2019-05-30T16:18:47Z</time>
      </trkpt>
      <trkpt lat="49.38511" lon="4.09718">
        <ele>116</ele>
        <time>2019-05-30T16:18:48Z</time>
      </trkpt>
      <trkpt lat="49.38505" lon="4.09726">
        <ele>116</ele>
        <time>2019-05-30T16:18:49Z</time>
      </trkpt>
      <trkpt lat="49.385" lon="4.09733">
        <ele>116</ele>
        <time>2019-05-30T16:18:50Z</time>
      </trkpt>
      <trkpt lat="49.38495" lon="4.09741">
        <ele>116</ele>
        <time>2019-05-30T16:18:51Z</time>
      </trkpt>
      <trkpt lat="49.38489" lon="4.09748">
        <ele>116</ele>
        <time>2019-05-30T16:18:52Z</time>
      </trkpt>
      <trkpt lat="49.38483" lon="4.09755">
        <ele>116</ele>
        <time>2019-05-30T16:18:53Z</time>
      </trkpt>
      <trkpt lat="49.38477" lon="4.09762">
        <ele>116</ele>
        <time>2019-05-30T16:18:54Z</time>
      </trkpt>
      <trkpt lat="49.38471" lon="4.09769">
        <ele>116</ele>
        <time>2019-05-30T16:18:55Z</time>
      </trkpt>
      <trkpt lat="49.38466" lon="4.09776">
        <ele>116</ele>
        <time>2019-05-30T16:18:56Z</time>
      </trkpt>
      <trkpt lat="49.3846" lon="4.09784">
        <ele>116</ele>
        <time>2019-05-30T16:18:57Z</time>
      </trkpt>
      <trkpt lat="49.38455" lon="4.09791">
        <ele>117</ele>
        <time>2019-05-30T16:18:58Z</time>
      </trkpt>
      <trkpt lat="49.38449" lon="4.09797">
        <ele>117</ele>
        <time>2019-05-30T16:18:59Z</time>
      </trkpt>
      <trkpt lat="49.38443" lon="4.09804">
        <ele>117</ele>
        <time>2019-05-30T16:19:00Z</time>
      </trkpt>
      <trkpt lat="49.38437" lon="4.09811">
        <ele>117</ele>
        <time>2019-05-30T16:19:01Z</time>
      </trkpt>
      <trkpt lat="49.38431" lon="4.09818">
        <ele>118</ele>
        <time>2019-05-30T16:19:02Z</time>
      </trkpt>
      <trkpt lat="49.38425" lon="4.09825">
        <ele>118</ele>
        <time>2019-05-30T16:19:03Z</time>
      </trkpt>
      <trkpt lat="49.38419" lon="4.09831">
        <ele>118</ele>
        <time>2019-05-30T16:19:04Z</time>
      </trkpt>
      <trkpt lat="49.38413" lon="4.09836">
        <ele>118</ele>
        <time>2019-05-30T16:19:05Z</time>
      </trkpt>
      <trkpt lat="49.38407" lon="4.09841">
        <ele>118</ele>
        <time>2019-05-30T16:19:06Z</time>
      </trkpt>
      <trkpt lat="49.384" lon="4.09847">
        <ele>118</ele>
        <time>2019-05-30T16:19:07Z</time>
      </trkpt>
      <trkpt lat="49.38393" lon="4.09853">
        <ele>118</ele>
        <time>2019-05-30T16:19:08Z</time>
      </trkpt>
      <trkpt lat="49.38386" lon="4.09859">
        <ele>118</ele>
        <time>2019-05-30T16:19:09Z</time>
      </trkpt>
      <trkpt lat="49.38379" lon="4.09865">
        <ele>119</ele>
        <time>2019-05-30T16:19:10Z</time>
      </trkpt>
      <trkpt lat="49.38372" lon="4.0987">
        <ele>119</ele>
        <time>2019-05-30T16:19:11Z</time>
      </trkpt>
      <trkpt lat="49.38365" lon="4.09876">
        <ele>119</ele>
        <time>2019-05-30T16:19:12Z</time>
      </trkpt>
      <trkpt lat="49.38358" lon="4.09881">
        <ele>120</ele>
        <time>2019-05-30T16:19:13Z</time>
      </trkpt>
      <trkpt lat="49.38351" lon="4.09886">
        <ele>120</ele>
        <time>2019-05-30T16:19:14Z</time>
      </trkpt>
      <trkpt lat="49.38345" lon="4.09891">
        <ele>120</ele>
        <time>2019-05-30T16:19:15Z</time>
      </trkpt>
      <trkpt lat="49.38338" lon="4.09897">
        <ele>121</ele>
        <time>2019-05-30T16:19:16Z</time>
      </trkpt>
      <trkpt lat="49.38332" lon="4.09903">
        <ele>120</ele>
        <time>2019-05-30T16:19:17Z</time>
      </trkpt>
      <trkpt lat="49.38325" lon="4.09908">
        <ele>120</ele>
        <time>2019-05-30T16:19:18Z</time>
      </trkpt>
      <trkpt lat="49.38319" lon="4.09911">
        <ele>119</ele>
        <time>2019-05-30T16:19:19Z</time>
      </trkpt>
      <trkpt lat="49.38313" lon="4.09917">
        <ele>119</ele>
        <time>2019-05-30T16:19:20Z</time>
      </trkpt>
      <trkpt lat="49.38306" lon="4.09921">
        <ele>118</ele>
        <time>2019-05-30T16:19:21Z</time>
      </trkpt>
      <trkpt lat="49.383" lon="4.09926">
        <ele>118</ele>
        <time>2019-05-30T16:19:22Z</time>
      </trkpt>
      <trkpt lat="49.38293" lon="4.09931">
        <ele>118</ele>
        <time>2019-05-30T16:19:23Z</time>
      </trkpt>
      <trkpt lat="49.38286" lon="4.09934">
        <ele>117</ele>
        <time>2019-05-30T16:19:24Z</time>
      </trkpt>
      <trkpt lat="49.38279" lon="4.09937">
        <ele>117</ele>
        <time>2019-05-30T16:19:25Z</time>
      </trkpt>
      <trkpt lat="49.38272" lon="4.0994">
        <ele>117</ele>
        <time>2019-05-30T16:19:26Z</time>
      </trkpt>
      <trkpt lat="49.38264" lon="4.09942">
        <ele>116</ele>
        <time>2019-05-30T16:19:27Z</time>
      </trkpt>
      <trkpt lat="49.38257" lon="4.09942">
        <ele>116</ele>
        <time>2019-05-30T16:19:28Z</time>
      </trkpt>
      <trkpt lat="49.3825" lon="4.09944">
        <ele>116</ele>
        <time>2019-05-30T16:19:29Z</time>
      </trkpt>
      <trkpt lat="49.38243" lon="4.09946">
        <ele>117</ele>
        <time>2019-05-30T16:19:30Z</time>
      </trkpt>
      <trkpt lat="49.38237" lon="4.09947">
        <ele>117</ele>
        <time>2019-05-30T16:19:31Z</time>
      </trkpt>
      <trkpt lat="49.3823" lon="4.09948">
        <ele>117</ele>
        <time>2019-05-30T16:19:32Z</time>
      </trkpt>
      <trkpt lat="49.38222" lon="4.09949">
        <ele>117</ele>
        <time>2019-05-30T16:19:33Z</time>
      </trkpt>
      <trkpt lat="49.38215" lon="4.0995">
        <ele>117</ele>
        <time>2019-05-30T16:19:34Z</time>
      </trkpt>
      <trkpt lat="49.38209" lon="4.09951">
        <ele>118</ele>
        <time>2019-05-30T16:19:35Z</time>
      </trkpt>
      <trkpt lat="49.38202" lon="4.09952">
        <ele>118</ele>
        <time>2019-05-30T16:19:36Z</time>
      </trkpt>
      <trkpt lat="49.38195" lon="4.09953">
        <ele>118</ele>
        <time>2019-05-30T16:19:37Z</time>
      </trkpt>
      <trkpt lat="49.38188" lon="4.09955">
        <ele>118</ele>
        <time>2019-05-30T16:19:38Z</time>
      </trkpt>
      <trkpt lat="49.38182" lon="4.09956">
        <ele>118</ele>
        <time>2019-05-30T16:19:39Z</time>
      </trkpt>
      <trkpt lat="49.38175" lon="4.09957">
        <ele>118</ele>
        <time>2019-05-30T16:19:40Z</time>
      </trkpt>
      <trkpt lat="49.38169" lon="4.09958">
        <ele>118</ele>
        <time>2019-05-30T16:19:41Z</time>
      </trkpt>
      <trkpt lat="49.38162" lon="4.09958">
        <ele>118</ele>
        <time>2019-05-30T16:19:42Z</time>
      </trkpt>
      <trkpt lat="49.38156" lon="4.09956">
        <ele>118</ele>
        <time>2019-05-30T16:19:43Z</time>
      </trkpt>
      <trkpt lat="49.38149" lon="4.09955">
        <ele>118</ele>
        <time>2019-05-30T16:19:44Z</time>
      </trkpt>
      <trkpt lat="49.38143" lon="4.09952">
        <ele>118</ele>
        <time>2019-05-30T16:19:45Z</time>
      </trkpt>
      <trkpt lat="49.38137" lon="4.0995">
        <ele>117</ele>
        <time>2019-05-30T16:19:46Z</time>
      </trkpt>
      <trkpt lat="49.38131" lon="4.09947">
        <ele>116</ele>
        <time>2019-05-30T16:19:47Z</time>
      </trkpt>
      <trkpt lat="49.38125" lon="4.09942">
        <ele>116</ele>
        <time>2019-05-30T16:19:48Z</time>
      </trkpt>
      <trkpt lat="49.38119" lon="4.09938">
        <ele>115</ele>
        <time>2019-05-30T16:19:49Z</time>
      </trkpt>
      <trkpt lat="49.38114" lon="4.09932">
        <ele>115</ele>
        <time>2019-05-30T16:19:50Z</time>
      </trkpt>
      <trkpt lat="49.38109" lon="4.09926">
        <ele>115</ele>
        <time>2019-05-30T16:19:51Z</time>
      </trkpt>
      <trkpt lat="49.38103" lon="4.0992">
        <ele>115</ele>
        <time>2019-05-30T16:19:52Z</time>
      </trkpt>
      <trkpt lat="49.38098" lon="4.09915">
        <ele>114</ele>
        <time>2019-05-30T16:19:53Z</time>
      </trkpt>
      <trkpt lat="49.38094" lon="4.09909">
        <ele>114</ele>
        <time>2019-05-30T16:19:54Z</time>
      </trkpt>
      <trkpt lat="49.38089" lon="4.09904">
        <ele>114</ele>
        <time>2019-05-30T16:19:55Z</time>
      </trkpt>
      <trkpt lat="49.38084" lon="4.09897">
        <ele>115</ele>
        <time>2019-05-30T16:19:56Z</time>
      </trkpt>
      <trkpt lat="49.38079" lon="4.09892">
        <ele>116</ele>
        <time>2019-05-30T16:19:57Z</time>
      </trkpt>
      <trkpt lat="49.38074" lon="4.09887">
        <ele>116</ele>
        <time>2019-05-30T16:19:58Z</time>
      </trkpt>
      <trkpt lat="49.38069" lon="4.09882">
        <ele>116</ele>
        <time>2019-05-30T16:19:59Z</time>
      </trkpt>
      <trkpt lat="49.38065" lon="4.09877">
        <ele>116</ele>
        <time>2019-05-30T16:20:00Z</time>
      </trkpt>
      <trkpt lat="49.38061" lon="4.09872">
        <ele>116</ele>
        <time>2019-05-30T16:20:01Z</time>
      </trkpt>
      <trkpt lat="49.38057" lon="4.09866">
        <ele>116</ele>
        <time>2019-05-30T16:20:02Z</time>
      </trkpt>
      <trkpt lat="49.38053" lon="4.09861">
        <ele>116</ele>
        <time>2019-05-30T16:20:03Z</time>
      </trkpt>
      <trkpt lat="49.38048" lon="4.09855">
        <ele>115</ele>
        <time>2019-05-30T16:20:04Z</time>
      </trkpt>
      <trkpt lat="49.38043" lon="4.09849">
        <ele>115</ele>
        <time>2019-05-30T16:20:05Z</time>
      </trkpt>
      <trkpt lat="49.38039" lon="4.09844">
        <ele>115</ele>
        <time>2019-05-30T16:20:06Z</time>
      </trkpt>
      <trkpt lat="49.38034" lon="4.09839">
        <ele>115</ele>
        <time>2019-05-30T16:20:07Z</time>
      </trkpt>
      <trkpt lat="49.3803" lon="4.09833">
        <ele>115</ele>
        <time>2019-05-30T16:20:08Z</time>
      </trkpt>
      <trkpt lat="49.38025" lon="4.09828">
        <ele>115</ele>
        <time>2019-05-30T16:20:09Z</time>
      </trkpt>
      <trkpt lat="49.3802" lon="4.09823">
        <ele>115</ele>
        <time>2019-05-30T16:20:10Z</time>
      </trkpt>
      <trkpt lat="49.38015" lon="4.09818">
        <ele>115</ele>
        <time>2019-05-30T16:20:11Z</time>
      </trkpt>
      <trkpt lat="49.3801" lon="4.09813">
        <ele>115</ele>
        <time>2019-05-30T16:20:12Z</time>
      </trkpt>
      <trkpt lat="49.38005" lon="4.09807">
        <ele>115</ele>
        <time>2019-05-30T16:20:13Z</time>
      </trkpt>
      <trkpt lat="49.38" lon="4.09802">
        <ele>115</ele>
        <time>2019-05-30T16:20:14Z</time>
      </trkpt>
      <trkpt lat="49.37995" lon="4.09796">
        <ele>114</ele>
        <time>2019-05-30T16:20:15Z</time>
      </trkpt>
      <trkpt lat="49.3799" lon="4.09791">
        <ele>114</ele>
        <time>2019-05-30T16:20:16Z</time>
      </trkpt>
      <trkpt lat="49.37986" lon="4.09785">
        <ele>114</ele>
        <time>2019-05-30T16:20:17Z</time>
      </trkpt>
      <trkpt lat="49.37981" lon="4.09779">
        <ele>114</ele>
        <time>2019-05-30T16:20:18Z</time>
      </trkpt>
      <trkpt lat="49.37976" lon="4.09774">
        <ele>114</ele>
        <time>2019-05-30T16:20:19Z</time>
      </trkpt>
      <trkpt lat="49.37972" lon="4.09768">
        <ele>114</ele>
        <time>2019-05-30T16:20:20Z</time>
      </trkpt>
      <trkpt lat="49.37967" lon="4.09764">
        <ele>113</ele>
        <time>2019-05-30T16:20:21Z</time>
      </trkpt>
      <trkpt lat="49.37962" lon="4.09758">
        <ele>113</ele>
        <time>2019-05-30T16:20:22Z</time>
      </trkpt>
      <trkpt lat="49.37958" lon="4.09753">
        <ele>114</ele>
        <time>2019-05-30T16:20:23Z</time>
      </trkpt>
      <trkpt lat="49.37953" lon="4.09747">
        <ele>114</ele>
        <time>2019-05-30T16:20:24Z</time>
      </trkpt>
      <trkpt lat="49.37948" lon="4.09742">
        <ele>114</ele>
        <time>2019-05-30T16:20:25Z</time>
      </trkpt>
      <trkpt lat="49.37943" lon="4.09737">
        <ele>113</ele>
        <time>2019-05-30T16:20:26Z</time>
      </trkpt>
      <trkpt lat="49.37939" lon="4.09731">
        <ele>113</ele>
        <time>2019-05-30T16:20:27Z</time>
      </trkpt>
      <trkpt lat="49.37934" lon="4.09726">
        <ele>113</ele>
        <time>2019-05-30T16:20:28Z</time>
      </trkpt>
      <trkpt lat="49.37929" lon="4.0972">
        <ele>113</ele>
        <time>2019-05-30T16:20:29Z</time>
      </trkpt>
      <trkpt lat="49.37924" lon="4.09715">
        <ele>113</ele>
        <time>2019-05-30T16:20:30Z</time>
      </trkpt>
      <trkpt lat="49.3792" lon="4.0971">
        <ele>113</ele>
        <time>2019-05-30T16:20:31Z</time>
      </trkpt>
      <trkpt lat="49.37915" lon="4.09705">
        <ele>113</ele>
        <time>2019-05-30T16:20:32Z</time>
      </trkpt>
      <trkpt lat="49.3791" lon="4.09699">
        <ele>113</ele>
        <time>2019-05-30T16:20:33Z</time>
      </trkpt>
      <trkpt lat="49.37906" lon="4.09694">
        <ele>113</ele>
        <time>2019-05-30T16:20:34Z</time>
      </trkpt>
      <trkpt lat="49.37901" lon="4.09689">
        <ele>113</ele>
        <time>2019-05-30T16:20:35Z</time>
      </trkpt>
      <trkpt lat="49.37897" lon="4.09684">
        <ele>113</ele>
        <time>2019-05-30T16:20:36Z</time>
      </trkpt>
      <trkpt lat="49.37892" lon="4.09679">
        <ele>113</ele>
        <time>2019-05-30T16:20:37Z</time>
      </trkpt>
      <trkpt lat="49.37888" lon="4.09674">
        <ele>113</ele>
        <time>2019-05-30T16:20:38Z</time>
      </trkpt>
      <trkpt lat="49.37884" lon="4.09669">
        <ele>113</ele>
        <time>2019-05-30T16:20:39Z</time>
      </trkpt>
      <trkpt lat="49.37879" lon="4.09664">
        <ele>113</ele>
        <time>2019-05-30T16:20:40Z</time>
      </trkpt>
      <trkpt lat="49.37875" lon="4.0966">
        <ele>113</ele>
        <time>2019-05-30T16:20:41Z</time>
      </trkpt>
      <trkpt lat="49.37871" lon="4.09655">
        <ele>113</ele>
        <time>2019-05-30T16:20:42Z</time>
      </trkpt>
      <trkpt lat="49.37866" lon="4.0965">
        <ele>113</ele>
        <time>2019-05-30T16:20:43Z</time>
      </trkpt>
      <trkpt lat="49.37862" lon="4.09645">
        <ele>113</ele>
        <time>2019-05-30T16:20:44Z</time>
      </trkpt>
      <trkpt lat="49.37859" lon="4.0964">
        <ele>114</ele>
        <time>2019-05-30T16:20:45Z</time>
      </trkpt>
      <trkpt lat="49.37855" lon="4.09635">
        <ele>114</ele>
        <time>2019-05-30T16:20:46Z</time>
      </trkpt>
      <trkpt lat="49.37851" lon="4.09631">
        <ele>114</ele>
        <time>2019-05-30T16:20:47Z</time>
      </trkpt>
      <trkpt lat="49.37847" lon="4.09627">
        <ele>114</ele>
        <time>2019-05-30T16:20:48Z</time>
      </trkpt>
      <trkpt lat="49.37843" lon="4.09622">
        <ele>114</ele>
        <time>2019-05-30T16:20:49Z</time>
      </trkpt>
      <trkpt lat="49.37839" lon="4.09617">
        <ele>114</ele>
        <time>2019-05-30T16:20:50Z</time>
      </trkpt>
      <trkpt lat="49.37835" lon="4.09613">
        <ele>114</ele>
        <time>2019-05-30T16:20:51Z</time>
      </trkpt>
      <trkpt lat="49.37831" lon="4.09608">
        <ele>114</ele>
        <time>2019-05-30T16:20:52Z</time>
      </trkpt>
      <trkpt lat="49.37828" lon="4.09604">
        <ele>114</ele>
        <time>2019-05-30T16:20:53Z</time>
      </trkpt>
      <trkpt lat="49.37824" lon="4.096">
        <ele>114</ele>
        <time>2019-05-30T16:20:54Z</time>
      </trkpt>
      <trkpt lat="49.3782" lon="4.09595">
        <ele>114</ele>
        <time>2019-05-30T16:20:55Z</time>
      </trkpt>
      <trkpt lat="49.37816" lon="4.09591">
        <ele>114</ele>
        <time>2019-05-30T16:20:56Z</time>
      </trkpt>
      <trkpt lat="49.37812" lon="4.09587">
        <ele>114</ele>
        <time>2019-05-30T16:20:57Z</time>
      </trkpt>
      <trkpt lat="49.37809" lon="4.09583">
        <ele>114</ele>
        <time>2019-05-30T16:20:58Z</time>
      </trkpt>
      <trkpt lat="49.37805" lon="4.09579">
        <ele>114</ele>
        <time>2019-05-30T16:20:59Z</time>
      </trkpt>
      <trkpt lat="49.37802" lon="4.09576">
        <ele>114</ele>
        <time>2019-05-30T16:21:00Z</time>
      </trkpt>
      <trkpt lat="49.37799" lon="4.09571">
        <ele>114</ele>
        <time>2019-05-30T16:21:01Z</time>
      </trkpt>
      <trkpt lat="49.37795" lon="4.09568">
        <ele>115</ele>
        <time>2019-05-30T16:21:02Z</time>
      </trkpt>
      <trkpt lat="49.37792" lon="4.09564">
        <ele>115</ele>
        <time>2019-05-30T16:21:03Z</time>
      </trkpt>
      <trkpt lat="49.37789" lon="4.0956">
        <ele>115</ele>
        <time>2019-05-30T16:21:04Z</time>
      </trkpt>
      <trkpt lat="49.37786" lon="4.09555">
        <ele>115</ele>
        <time>2019-05-30T16:21:05Z</time>
      </trkpt>
      <trkpt lat="49.37782" lon="4.09551">
        <ele>115</ele>
        <time>2019-05-30T16:21:06Z</time>
      </trkpt>
      <trkpt lat="49.37779" lon="4.09548">
        <ele>115</ele>
        <time>2019-05-30T16:21:07Z</time>
      </trkpt>
      <trkpt lat="49.37776" lon="4.09544">
        <ele>115</ele>
        <time>2019-05-30T16:21:08Z</time>
      </trkpt>
      <trkpt lat="49.37772" lon="4.0954">
        <ele>115</ele>
        <time>2019-05-30T16:21:09Z</time>
      </trkpt>
      <trkpt lat="49.37769" lon="4.09536">
        <ele>115</ele>
        <time>2019-05-30T16:21:10Z</time>
      </trkpt>
      <trkpt lat="49.37766" lon="4.09533">
        <ele>115</ele>
        <time>2019-05-30T16:21:11Z</time>
      </trkpt>
      <trkpt lat="49.37763" lon="4.09529">
        <ele>115</ele>
        <time>2019-05-30T16:21:12Z</time>
      </trkpt>
      <trkpt lat="49.3776" lon="4.09525">
        <ele>115</ele>
        <time>2019-05-30T16:21:13Z</time>
      </trkpt>
      <trkpt lat="49.37757" lon="4.09522">
        <ele>115</ele>
        <time>2019-05-30T16:21:14Z</time>
      </trkpt>
      <trkpt lat="49.37753" lon="4.09518">
        <ele>116</ele>
        <time>2019-05-30T16:21:15Z</time>
      </trkpt>
      <trkpt lat="49.3775" lon="4.09514">
        <ele>116</ele>
        <time>2019-05-30T16:21:16Z</time>
      </trkpt>
      <trkpt lat="49.37747" lon="4.09511">
        <ele>116</ele>
        <time>2019-05-30T16:21:17Z</time>
      </trkpt>
      <trkpt lat="49.37743" lon="4.09507">
        <ele>116</ele>
        <time>2019-05-30T16:21:18Z</time>
      </trkpt>
      <trkpt lat="49.3774" lon="4.09504">
        <ele>117</ele>
        <time>2019-05-30T16:21:19Z</time>
      </trkpt>
      <trkpt lat="49.37736" lon="4.095">
        <ele>117</ele>
        <time>2019-05-30T16:21:20Z</time>
      </trkpt>
      <trkpt lat="49.37734" lon="4.09496">
        <ele>117</ele>
        <time>2019-05-30T16:21:21Z</time>
      </trkpt>
      <trkpt lat="49.37731" lon="4.09492">
        <ele>117</ele>
        <time>2019-05-30T16:21:22Z</time>
      </trkpt>
      <trkpt lat="49.37728" lon="4.09488">
        <ele>117</ele>
        <time>2019-05-30T16:21:23Z</time>
      </trkpt>
      <trkpt lat="49.37724" lon="4.09485">
        <ele>117</ele>
        <time>2019-05-30T16:21:24Z</time>
      </trkpt>
      <trkpt lat="49.37721" lon="4.09481">
        <ele>118</ele>
        <time>2019-05-30T16:21:25Z</time>
      </trkpt>
      <trkpt lat="49.37718" lon="4.09478">
        <ele>118</ele>
        <time>2019-05-30T16:21:26Z</time>
      </trkpt>
      <trkpt lat="49.37715" lon="4.09474">
        <ele>118</ele>
        <time>2019-05-30T16:21:27Z</time>
      </trkpt>
      <trkpt lat="49.37711" lon="4.0947">
        <ele>118</ele>
        <time>2019-05-30T16:21:28Z</time>
      </trkpt>
      <trkpt lat="49.37708" lon="4.09466">
        <ele>118</ele>
        <time>2019-05-30T16:21:29Z</time>
      </trkpt>
      <trkpt lat="49.37705" lon="4.09463">
        <ele>119</ele>
        <time>2019-05-30T16:21:30Z</time>
      </trkpt>
      <trkpt lat="49.37702" lon="4.0946">
        <ele>119</ele>
        <time>2019-05-30T16:21:31Z</time>
      </trkpt>
      <trkpt lat="49.377" lon="4.09457">
        <ele>119</ele>
        <time>2019-05-30T16:21:32Z</time>
      </trkpt>
      <trkpt lat="49.37696" lon="4.09454">
        <ele>120</ele>
        <time>2019-05-30T16:21:33Z</time>
      </trkpt>
      <trkpt lat="49.37694" lon="4.09451">
        <ele>120</ele>
        <time>2019-05-30T16:21:34Z</time>
      </trkpt>
      <trkpt lat="49.37691" lon="4.09447">
        <ele>120</ele>
        <time>2019-05-30T16:21:35Z</time>
      </trkpt>
      <trkpt lat="49.37688" lon="4.09444">
        <ele>120</ele>
        <time>2019-05-30T16:21:36Z</time>
      </trkpt>
      <trkpt lat="49.37686" lon="4.09441">
        <ele>121</ele>
        <time>2019-05-30T16:21:37Z</time>
      </trkpt>
      <trkpt lat="49.37683" lon="4.09438">
        <ele>121</ele>
        <time>2019-05-30T16:21:38Z</time>
      </trkpt>
      <trkpt lat="49.3768" lon="4.09435">
        <ele>121</ele>
        <time>2019-05-30T16:21:39Z</time>
      </trkpt>
      <trkpt lat="49.37678" lon="4.09433">
        <ele>121</ele>
        <time>2019-05-30T16:21:40Z</time>
      </trkpt>
      <trkpt lat="49.37675" lon="4.0943">
        <ele>121</ele>
        <time>2019-05-30T16:21:41Z</time>
      </trkpt>
      <trkpt lat="49.37672" lon="4.09426">
        <ele>121</ele>
        <time>2019-05-30T16:21:42Z</time>
      </trkpt>
      <trkpt lat="49.3767" lon="4.09423">
        <ele>122</ele>
        <time>2019-05-30T16:21:43Z</time>
      </trkpt>
      <trkpt lat="49.37668" lon="4.0942">
        <ele>122</ele>
        <time>2019-05-30T16:21:44Z</time>
      </trkpt>
      <trkpt lat="49.37665" lon="4.09417">
        <ele>122</ele>
        <time>2019-05-30T16:21:45Z</time>
      </trkpt>
      <trkpt lat="49.37662" lon="4.09414">
        <ele>122</ele>
        <time>2019-05-30T16:21:46Z</time>
      </trkpt>
      <trkpt lat="49.3766" lon="4.09411">
        <ele>122</ele>
        <time>2019-05-30T16:21:47Z</time>
      </trkpt>
      <trkpt lat="49.37657" lon="4.09407">
        <ele>122</ele>
        <time>2019-05-30T16:21:48Z</time>
      </trkpt>
      <trkpt lat="49.37654" lon="4.09404">
        <ele>122</ele>
        <time>2019-05-30T16:21:49Z</time>
      </trkpt>
      <trkpt lat="49.37651" lon="4.09401">
        <ele>123</ele>
        <time>2019-05-30T16:21:50Z</time>
      </trkpt>
      <trkpt lat="49.37648" lon="4.09398">
        <ele>123</ele>
        <time>2019-05-30T16:21:51Z</time>
      </trkpt>
      <trkpt lat="49.37646" lon="4.09395">
        <ele>123</ele>
        <time>2019-05-30T16:21:52Z</time>
      </trkpt>
      <trkpt lat="49.37643" lon="4.09392">
        <ele>123</ele>
        <time>2019-05-30T16:21:53Z</time>
      </trkpt>
      <trkpt lat="49.3764" lon="4.09388">
        <ele>123</ele>
        <time>2019-05-30T16:21:54Z</time>
      </trkpt>
      <trkpt lat="49.37637" lon="4.09385">
        <ele>123</ele>
        <time>2019-05-30T16:21:55Z</time>
      </trkpt>
      <trkpt lat="49.37634" lon="4.09382">
        <ele>122</ele>
        <time>2019-05-30T16:21:56Z</time>
      </trkpt>
      <trkpt lat="49.37631" lon="4.09378">
        <ele>122</ele>
        <time>2019-05-30T16:21:57Z</time>
      </trkpt>
      <trkpt lat="49.37628" lon="4.09375">
        <ele>122</ele>
        <time>2019-05-30T16:21:58Z</time>
      </trkpt>
      <trkpt lat="49.37625" lon="4.09371">
        <ele>122</ele>
        <time>2019-05-30T16:21:59Z</time>
      </trkpt>
      <trkpt lat="49.37622" lon="4.09368">
        <ele>122</ele>
        <time>2019-05-30T16:22:00Z</time>
      </trkpt>
      <trkpt lat="49.37619" lon="4.09364">
        <ele>123</ele>
        <time>2019-05-30T16:22:01Z</time>
      </trkpt>
      <trkpt lat="49.37616" lon="4.0936">
        <ele>123</ele>
        <time>2019-05-30T16:22:02Z</time>
      </trkpt>
      <trkpt lat="49.37613" lon="4.09357">
        <ele>123</ele>
        <time>2019-05-30T16:22:03Z</time>
      </trkpt>
      <trkpt lat="49.3761" lon="4.09353">
        <ele>123</ele>
        <time>2019-05-30T16:22:04Z</time>
      </trkpt>
      <trkpt lat="49.37607" lon="4.09349">
        <ele>123</ele>
        <time>2019-05-30T16:22:05Z</time>
      </trkpt>
      <trkpt lat="49.37604" lon="4.09345">
        <ele>123</ele>
        <time>2019-05-30T16:22:06Z</time>
      </trkpt>
      <trkpt lat="49.37601" lon="4.09342">
        <ele>123</ele>
        <time>2019-05-30T16:22:07Z</time>
      </trkpt>
      <trkpt lat="49.37597" lon="4.09339">
        <ele>123</ele>
        <time>2019-05-30T16:22:08Z</time>
      </trkpt>
      <trkpt lat="49.37594" lon="4.09335">
        <ele>124</ele>
        <time>2019-05-30T16:22:09Z</time>
      </trkpt>
      <trkpt lat="49.37591" lon="4.09331">
        <ele>124</ele>
        <time>2019-05-30T16:22:10Z</time>
      </trkpt>
      <trkpt lat="49.37588" lon="4.09328">
        <ele>124</ele>
        <time>2019-05-30T16:22:11Z</time>
      </trkpt>
      <trkpt lat="49.37585" lon="4.09324">
        <ele>124</ele>
        <time>2019-05-30T16:22:12Z</time>
      </trkpt>
      <trkpt lat="49.37581" lon="4.0932">
        <ele>124</ele>
        <time>2019-05-30T16:22:13Z</time>
      </trkpt>
      <trkpt lat="49.37578" lon="4.09317">
        <ele>123</ele>
        <time>2019-05-30T16:22:14Z</time>
      </trkpt>
      <trkpt lat="49.37575" lon="4.09313">
        <ele>123</ele>
        <time>2019-05-30T16:22:15Z</time>
      </trkpt>
      <trkpt lat="49.37571" lon="4.09309">
        <ele>123</ele>
        <time>2019-05-30T16:22:16Z</time>
      </trkpt>
      <trkpt lat="49.37568" lon="4.09305">
        <ele>123</ele>
        <time>2019-05-30T16:22:17Z</time>
      </trkpt>
      <trkpt lat="49.37564" lon="4.09301">
        <ele>123</ele>
        <time>2019-05-30T16:22:18Z</time>
      </trkpt>
      <trkpt lat="49.3756" lon="4.09297">
        <ele>123</ele>
        <time>2019-05-30T16:22:19Z</time>
      </trkpt>
      <trkpt lat="49.37557" lon="4.09293">
        <ele>123</ele>
        <time>2019-05-30T16:22:20Z</time>
      </trkpt>
      <trkpt lat="49.37554" lon="4.09289">
        <ele>123</ele>
        <time>2019-05-30T16:22:21Z</time>
      </trkpt>
      <trkpt lat="49.3755" lon="4.09285">
        <ele>123</ele>
        <time>2019-05-30T16:22:22Z</time>
      </trkpt>
      <trkpt lat="49.37546" lon="4.0928">
        <ele>123</ele>
        <time>2019-05-30T16:22:23Z</time>
      </trkpt>
      <trkpt lat="49.37543" lon="4.09276">
        <ele>123</ele>
        <time>2019-05-30T16:22:24Z</time>
      </trkpt>
      <trkpt lat="49.37539" lon="4.09272">
        <ele>123</ele>
        <time>2019-05-30T16:22:25Z</time>
      </trkpt>
      <trkpt lat="49.37535" lon="4.09267">
        <ele>123</ele>
        <time>2019-05-30T16:22:26Z</time>
      </trkpt>
      <trkpt lat="49.37531" lon="4.09263">
        <ele>123</ele>
        <time>2019-05-30T16:22:27Z</time>
      </trkpt>
      <trkpt lat="49.37527" lon="4.09258">
        <ele>123</ele>
        <time>2019-05-30T16:22:28Z</time>
      </trkpt>
      <trkpt lat="49.37523" lon="4.09254">
        <ele>123</ele>
        <time>2019-05-30T16:22:29Z</time>
      </trkpt>
      <trkpt lat="49.3752" lon="4.09249">
        <ele>123</ele>
        <time>2019-05-30T16:22:30Z</time>
      </trkpt>
      <trkpt lat="49.37516" lon="4.09245">
        <ele>123</ele>
        <time>2019-05-30T16:22:31Z</time>
      </trkpt>
      <trkpt lat="49.37512" lon="4.09241">
        <ele>123</ele>
        <time>2019-05-30T16:22:32Z</time>
      </trkpt>
      <trkpt lat="49.37509" lon="4.09236">
        <ele>123</ele>
        <time>2019-05-30T16:22:33Z</time>
      </trkpt>
      <trkpt lat="49.37505" lon="4.09232">
        <ele>123</ele>
        <time>2019-05-30T16:22:34Z</time>
      </trkpt>
      <trkpt lat="49.37502" lon="4.09228">
        <ele>123</ele>
        <time>2019-05-30T16:22:35Z</time>
      </trkpt>
      <trkpt lat="49.37498" lon="4.09224">
        <ele>123</ele>
        <time>2019-05-30T16:22:36Z</time>
      </trkpt>
      <trkpt lat="49.37495" lon="4.0922">
        <ele>123</ele>
        <time>2019-05-30T16:22:37Z</time>
      </trkpt>
      <trkpt lat="49.37491" lon="4.09216">
        <ele>123</ele>
        <time>2019-05-30T16:22:38Z</time>
      </trkpt>
      <trkpt lat="49.37487" lon="4.09212">
        <ele>123</ele>
        <time>2019-05-30T16:22:39Z</time>
      </trkpt>
      <trkpt lat="49.37484" lon="4.09208">
        <ele>124</ele>
        <time>2019-05-30T16:22:40Z</time>
      </trkpt>
      <trkpt lat="49.3748" lon="4.09204">
        <ele>124</ele>
        <time>2019-05-30T16:22:41Z</time>
      </trkpt>
      <trkpt lat="49.37477" lon="4.092">
        <ele>123</ele>
        <time>2019-05-30T16:22:42Z</time>
      </trkpt>
      <trkpt lat="49.37473" lon="4.09196">
        <ele>123</ele>
        <time>2019-05-30T16:22:43Z</time>
      </trkpt>
      <trkpt lat="49.37469" lon="4.09191">
        <ele>124</ele>
        <time>2019-05-30T16:22:44Z</time>
      </trkpt>
      <trkpt lat="49.37466" lon="4.09188">
        <ele>124</ele>
        <time>2019-05-30T16:22:45Z</time>
      </trkpt>
      <trkpt lat="49.37462" lon="4.09183">
        <ele>124</ele>
        <time>2019-05-30T16:22:46Z</time>
      </trkpt>
      <trkpt lat="49.37459" lon="4.09179">
        <ele>124</ele>
        <time>2019-05-30T16:22:47Z</time>
      </trkpt>
      <trkpt lat="49.37456" lon="4.09175">
        <ele>124</ele>
        <time>2019-05-30T16:22:48Z</time>
      </trkpt>
      <trkpt lat="49.37452" lon="4.09172">
        <ele>124</ele>
        <time>2019-05-30T16:22:49Z</time>
      </trkpt>
      <trkpt lat="49.37449" lon="4.09168">
        <ele>124</ele>
        <time>2019-05-30T16:22:50Z</time>
      </trkpt>
      <trkpt lat="49.37446" lon="4.09164">
        <ele>124</ele>
        <time>2019-05-30T16:22:51Z</time>
      </trkpt>
      <trkpt lat="49.37442" lon="4.0916">
        <ele>125</ele>
        <time>2019-05-30T16:22:52Z</time>
      </trkpt>
      <trkpt lat="49.37439" lon="4.09157">
        <ele>124</ele>
        <time>2019-05-30T16:22:53Z</time>
      </trkpt>
      <trkpt lat="49.37436" lon="4.09153">
        <ele>124</ele>
        <time>2019-05-30T16:22:54Z</time>
      </trkpt>
      <trkpt lat="49.37433" lon="4.09149">
        <ele>124</ele>
        <time>2019-05-30T16:22:55Z</time>
      </trkpt>
      <trkpt lat="49.3743" lon="4.09146">
        <ele>124</ele>
        <time>2019-05-30T16:22:56Z</time>
      </trkpt>
      <trkpt lat="49.37427" lon="4.09142">
        <ele>124</ele>
        <time>2019-05-30T16:22:57Z</time>
      </trkpt>
      <trkpt lat="49.37423" lon="4.09139">
        <ele>125</ele>
        <time>2019-05-30T16:22:58Z</time>
      </trkpt>
      <trkpt lat="49.3742" lon="4.09135">
        <ele>124</ele>
        <time>2019-05-30T16:22:59Z</time>
      </trkpt>
      <trkpt lat="49.37417" lon="4.09131">
        <ele>124</ele>
        <time>2019-05-30T16:23:00Z</time>
      </trkpt>
      <trkpt lat="49.37414" lon="4.09128">
        <ele>125</ele>
        <time>2019-05-30T16:23:01Z</time>
      </trkpt>
      <trkpt lat="49.3741" lon="4.09124">
        <ele>125</ele>
        <time>2019-05-30T16:23:02Z</time>
      </trkpt>
      <trkpt lat="49.37407" lon="4.0912">
        <ele>125</ele>
        <time>2019-05-30T16:23:03Z</time>
      </trkpt>
      <trkpt lat="49.37404" lon="4.09116">
        <ele>125</ele>
        <time>2019-05-30T16:23:04Z</time>
      </trkpt>
      <trkpt lat="49.374" lon="4.09112">
        <ele>126</ele>
        <time>2019-05-30T16:23:05Z</time>
      </trkpt>
      <trkpt lat="49.37397" lon="4.09109">
        <ele>126</ele>
        <time>2019-05-30T16:23:06Z</time>
      </trkpt>
      <trkpt lat="49.37394" lon="4.09105">
        <ele>126</ele>
        <time>2019-05-30T16:23:07Z</time>
      </trkpt>
      <trkpt lat="49.37391" lon="4.09101">
        <ele>126</ele>
        <time>2019-05-30T16:23:08Z</time>
      </trkpt>
      <trkpt lat="49.37388" lon="4.09098">
        <ele>126</ele>
        <time>2019-05-30T16:23:09Z</time>
      </trkpt>
      <trkpt lat="49.37385" lon="4.09094">
        <ele>126</ele>
        <time>2019-05-30T16:23:10Z</time>
      </trkpt>
      <trkpt lat="49.37382" lon="4.0909">
        <ele>126</ele>
        <time>2019-05-30T16:23:11Z</time>
      </trkpt>
      <trkpt lat="49.37378" lon="4.09087">
        <ele>126</ele>
        <time>2019-05-30T16:23:12Z</time>
      </trkpt>
      <trkpt lat="49.37375" lon="4.09083">
        <ele>126</ele>
        <time>2019-05-30T16:23:13Z</time>
      </trkpt>
      <trkpt lat="49.37372" lon="4.0908">
        <ele>126</ele>
        <time>2019-05-30T16:23:14Z</time>
      </trkpt>
      <trkpt lat="49.37369" lon="4.09076">
        <ele>127</ele>
        <time>2019-05-30T16:23:15Z</time>
      </trkpt>
      <trkpt lat="49.37366" lon="4.09072">
        <ele>127</ele>
        <time>2019-05-30T16:23:16Z</time>
      </trkpt>
      <trkpt lat="49.37362" lon="4.09069">
        <ele>127</ele>
        <time>2019-05-30T16:23:17Z</time>
      </trkpt>
      <trkpt lat="49.37359" lon="4.09065">
        <ele>128</ele>
        <time>2019-05-30T16:23:18Z</time>
      </trkpt>
      <trkpt lat="49.37357" lon="4.09061">
        <ele>127</ele>
        <time>2019-05-30T16:23:19Z</time>
      </trkpt>
      <trkpt lat="49.37354" lon="4.09057">
        <ele>127</ele>
        <time>2019-05-30T16:23:20Z</time>
      </trkpt>
      <trkpt lat="49.37351" lon="4.09054">
        <ele>127</ele>
        <time>2019-05-30T16:23:21Z</time>
      </trkpt>
      <trkpt lat="49.37348" lon="4.09051">
        <ele>127</ele>
        <time>2019-05-30T16:23:22Z</time>
      </trkpt>
      <trkpt lat="49.37345" lon="4.09048">
        <ele>128</ele>
        <time>2019-05-30T16:23:23Z</time>
      </trkpt>
      <trkpt lat="49.37342" lon="4.09044">
        <ele>128</ele>
        <time>2019-05-30T16:23:24Z</time>
      </trkpt>
      <trkpt lat="49.37339" lon="4.09041">
        <ele>128</ele>
        <time>2019-05-30T16:23:25Z</time>
      </trkpt>
      <trkpt lat="49.37336" lon="4.09038">
        <ele>128</ele>
        <time>2019-05-30T16:23:26Z</time>
      </trkpt>
      <trkpt lat="49.37333" lon="4.09035">
        <ele>128</ele>
        <time>2019-05-30T16:23:27Z</time>
      </trkpt>
      <trkpt lat="49.3733" lon="4.09031">
        <ele>128</ele>
        <time>2019-05-30T16:23:28Z</time>
      </trkpt>
      <trkpt lat="49.37327" lon="4.09027">
        <ele>128</ele>
        <time>2019-05-30T16:23:29Z</time>
      </trkpt>
      <trkpt lat="49.37324" lon="4.09024">
        <ele>129</ele>
        <time>2019-05-30T16:23:30Z</time>
      </trkpt>
      <trkpt lat="49.37321" lon="4.0902">
        <ele>129</ele>
        <time>2019-05-30T16:23:31Z</time>
      </trkpt>
      <trkpt lat="49.37318" lon="4.09017">
        <ele>129</ele>
        <time>2019-05-30T16:23:32Z</time>
      </trkpt>
      <trkpt lat="49.37315" lon="4.09013">
        <ele>129</ele>
        <time>2019-05-30T16:23:33Z</time>
      </trkpt>
      <trkpt lat="49.37312" lon="4.0901">
        <ele>129</ele>
        <time>2019-05-30T16:23:34Z</time>
      </trkpt>
      <trkpt lat="49.37309" lon="4.09006">
        <ele>129</ele>
        <time>2019-05-30T16:23:35Z</time>
      </trkpt>
      <trkpt lat="49.37306" lon="4.09003">
        <ele>129</ele>
        <time>2019-05-30T16:23:36Z</time>
      </trkpt>
      <trkpt lat="49.37303" lon="4.08999">
        <ele>129</ele>
        <time>2019-05-30T16:23:37Z</time>
      </trkpt>
      <trkpt lat="49.37299" lon="4.08995">
        <ele>129</ele>
        <time>2019-05-30T16:23:38Z</time>
      </trkpt>
      <trkpt lat="49.37296" lon="4.08991">
        <ele>130</ele>
        <time>2019-05-30T16:23:39Z</time>
      </trkpt>
      <trkpt lat="49.37293" lon="4.08987">
        <ele>129</ele>
        <time>2019-05-30T16:23:40Z</time>
      </trkpt>
      <trkpt lat="49.3729" lon="4.08984">
        <ele>130</ele>
        <time>2019-05-30T16:23:41Z</time>
      </trkpt>
      <trkpt lat="49.37287" lon="4.08981">
        <ele>130</ele>
        <time>2019-05-30T16:23:42Z</time>
      </trkpt>
      <trkpt lat="49.37284" lon="4.08977">
        <ele>130</ele>
        <time>2019-05-30T16:23:43Z</time>
      </trkpt>
      <trkpt lat="49.37281" lon="4.08973">
        <ele>130</ele>
        <time>2019-05-30T16:23:44Z</time>
      </trkpt>
      <trkpt lat="49.37278" lon="4.08969">
        <ele>130</ele>
        <time>2019-05-30T16:23:45Z</time>
      </trkpt>
      <trkpt lat="49.37275" lon="4.08966">
        <ele>130</ele>
        <time>2019-05-30T16:23:46Z</time>
      </trkpt>
      <trkpt lat="49.37271" lon="4.08963">
        <ele>131</ele>
        <time>2019-05-30T16:23:47Z</time>
      </trkpt>
      <trkpt lat="49.37268" lon="4.08959">
        <ele>131</ele>
        <time>2019-05-30T16:23:48Z</time>
      </trkpt>
      <trkpt lat="49.37265" lon="4.08955">
        <ele>131</ele>
        <time>2019-05-30T16:23:49Z</time>
      </trkpt>
      <trkpt lat="49.37262" lon="4.08952">
        <ele>131</ele>
        <time>2019-05-30T16:23:50Z</time>
      </trkpt>
      <trkpt lat="49.37259" lon="4.08948">
        <ele>131</ele>
        <time>2019-05-30T16:23:51Z</time>
      </trkpt>
      <trkpt lat="49.37256" lon="4.08945">
        <ele>131</ele>
        <time>2019-05-30T16:23:52Z</time>
      </trkpt>
      <trkpt lat="49.37253" lon="4.08941">
        <ele>131</ele>
        <time>2019-05-30T16:23:53Z</time>
      </trkpt>
      <trkpt lat="49.3725" lon="4.08937">
        <ele>132</ele>
        <time>2019-05-30T16:23:54Z</time>
      </trkpt>
      <trkpt lat="49.37247" lon="4.08934">
        <ele>132</ele>
        <time>2019-05-30T16:23:55Z</time>
      </trkpt>
      <trkpt lat="49.37244" lon="4.0893">
        <ele>132</ele>
        <time>2019-05-30T16:23:56Z</time>
      </trkpt>
      <trkpt lat="49.37241" lon="4.08927">
        <ele>132</ele>
        <time>2019-05-30T16:23:57Z</time>
      </trkpt>
      <trkpt lat="49.37237" lon="4.08923">
        <ele>132</ele>
        <time>2019-05-30T16:23:58Z</time>
      </trkpt>
      <trkpt lat="49.37234" lon="4.0892">
        <ele>132</ele>
        <time>2019-05-30T16:23:59Z</time>
      </trkpt>
      <trkpt lat="49.37231" lon="4.08916">
        <ele>132</ele>
        <time>2019-05-30T16:24:00Z</time>
      </trkpt>
      <trkpt lat="49.37228" lon="4.08912">
        <ele>132</ele>
        <time>2019-05-30T16:24:01Z</time>
      </trkpt>
      <trkpt lat="49.37225" lon="4.08908">
        <ele>132</ele>
        <time>2019-05-30T16:24:02Z</time>
      </trkpt>
      <trkpt lat="49.37222" lon="4.08905">
        <ele>132</ele>
        <time>2019-05-30T16:24:03Z</time>
      </trkpt>
      <trkpt lat="49.37219" lon="4.08902">
        <ele>132</ele>
        <time>2019-05-30T16:24:04Z</time>
      </trkpt>
      <trkpt lat="49.37216" lon="4.08898">
        <ele>133</ele>
        <time>2019-05-30T16:24:05Z</time>
      </trkpt>
      <trkpt lat="49.37213" lon="4.08894">
        <ele>133</ele>
        <time>2019-05-30T16:24:06Z</time>
      </trkpt>
      <trkpt lat="49.3721" lon="4.08891">
        <ele>132</ele>
        <time>2019-05-30T16:24:07Z</time>
      </trkpt>
      <trkpt lat="49.37207" lon="4.08888">
        <ele>132</ele>
        <time>2019-05-30T16:24:08Z</time>
      </trkpt>
      <trkpt lat="49.37203" lon="4.08884">
        <ele>132</ele>
        <time>2019-05-30T16:24:09Z</time>
      </trkpt>
      <trkpt lat="49.372" lon="4.0888">
        <ele>132</ele>
        <time>2019-05-30T16:24:10Z</time>
      </trkpt>
      <trkpt lat="49.37197" lon="4.08876">
        <ele>132</ele>
        <time>2019-05-30T16:24:11Z</time>
      </trkpt>
      <trkpt lat="49.37194" lon="4.08872">
        <ele>132</ele>
        <time>2019-05-30T16:24:12Z</time>
      </trkpt>
      <trkpt lat="49.37191" lon="4.08868">
        <ele>132</ele>
        <time>2019-05-30T16:24:13Z</time>
      </trkpt>
      <trkpt lat="49.37187" lon="4.08864">
        <ele>132</ele>
        <time>2019-05-30T16:24:14Z</time>
      </trkpt>
      <trkpt lat="49.37184" lon="4.0886">
        <ele>132</ele>
        <time>2019-05-30T16:24:15Z</time>
      </trkpt>
      <trkpt lat="49.3718" lon="4.08856">
        <ele>132</ele>
        <time>2019-05-30T16:24:16Z</time>
      </trkpt>
      <trkpt lat="49.37177" lon="4.08852">
        <ele>132</ele>
        <time>2019-05-30T16:24:17Z</time>
      </trkpt>
      <trkpt lat="49.37173" lon="4.08848">
        <ele>133</ele>
        <time>2019-05-30T16:24:18Z</time>
      </trkpt>
      <trkpt lat="49.37169" lon="4.08844">
        <ele>133</ele>
        <time>2019-05-30T16:24:19Z</time>
      </trkpt>
      <trkpt lat="49.37166" lon="4.0884">
        <ele>133</ele>
        <time>2019-05-30T16:24:20Z</time>
      </trkpt>
      <trkpt lat="49.37162" lon="4.08835">
        <ele>133</ele>
        <time>2019-05-30T16:24:21Z</time>
      </trkpt>
      <trkpt lat="49.37159" lon="4.0883">
        <ele>133</ele>
        <time>2019-05-30T16:24:22Z</time>
      </trkpt>
      <trkpt lat="49.37155" lon="4.08827">
        <ele>133</ele>
        <time>2019-05-30T16:24:23Z</time>
      </trkpt>
      <trkpt lat="49.37151" lon="4.08823">
        <ele>133</ele>
        <time>2019-05-30T16:24:24Z</time>
      </trkpt>
      <trkpt lat="49.37147" lon="4.08818">
        <ele>133</ele>
        <time>2019-05-30T16:24:25Z</time>
      </trkpt>
      <trkpt lat="49.37143" lon="4.08814">
        <ele>133</ele>
        <time>2019-05-30T16:24:26Z</time>
      </trkpt>
      <trkpt lat="49.3714" lon="4.0881">
        <ele>133</ele>
        <time>2019-05-30T16:24:27Z</time>
      </trkpt>
      <trkpt lat="49.37135" lon="4.08806">
        <ele>133</ele>
        <time>2019-05-30T16:24:28Z</time>
      </trkpt>
      <trkpt lat="49.37132" lon="4.08802">
        <ele>133</ele>
        <time>2019-05-30T16:24:29Z</time>
      </trkpt>
      <trkpt lat="49.37128" lon="4.08797">
        <ele>133</ele>
        <time>2019-05-30T16:24:30Z</time>
      </trkpt>
      <trkpt lat="49.37124" lon="4.08793">
        <ele>133</ele>
        <time>2019-05-30T16:24:31Z</time>
      </trkpt>
      <trkpt lat="49.37121" lon="4.08788">
        <ele>133</ele>
        <time>2019-05-30T16:24:32Z</time>
      </trkpt>
      <trkpt lat="49.37117" lon="4.08783">
        <ele>133</ele>
        <time>2019-05-30T16:24:33Z</time>
      </trkpt>
      <trkpt lat="49.37113" lon="4.08779">
        <ele>133</ele>
        <time>2019-05-30T16:24:34Z</time>
      </trkpt>
      <trkpt lat="49.37108" lon="4.08774">
        <ele>133</ele>
        <time>2019-05-30T16:24:35Z</time>
      </trkpt>
      <trkpt lat="49.37104" lon="4.08769">
        <ele>133</ele>
        <time>2019-05-30T16:24:36Z</time>
      </trkpt>
      <trkpt lat="49.371" lon="4.08765">
        <ele>133</ele>
        <time>2019-05-30T16:24:37Z</time>
      </trkpt>
      <trkpt lat="49.37096" lon="4.0876">
        <ele>134</ele>
        <time>2019-05-30T16:24:38Z</time>
      </trkpt>
      <trkpt lat="49.37092" lon="4.08755">
        <ele>134</ele>
        <time>2019-05-30T16:24:39Z</time>
      </trkpt>
      <trkpt lat="49.37088" lon="4.08751">
        <ele>134</ele>
        <time>2019-05-30T16:24:40Z</time>
      </trkpt>
      <trkpt lat="49.37085" lon="4.08747">
        <ele>134</ele>
        <time>2019-05-30T16:24:41Z</time>
      </trkpt>
      <trkpt lat="49.37081" lon="4.08742">
        <ele>134</ele>
        <time>2019-05-30T16:24:42Z</time>
      </trkpt>
      <trkpt lat="49.37077" lon="4.08737">
        <ele>134</ele>
        <time>2019-05-30T16:24:43Z</time>
      </trkpt>
      <trkpt lat="49.37073" lon="4.08733">
        <ele>134</ele>
        <time>2019-05-30T16:24:44Z</time>
      </trkpt>
      <trkpt lat="49.37069" lon="4.08728">
        <ele>134</ele>
        <time>2019-05-30T16:24:45Z</time>
      </trkpt>
      <trkpt lat="49.37064" lon="4.08724">
        <ele>134</ele>
        <time>2019-05-30T16:24:46Z</time>
      </trkpt>
      <trkpt lat="49.3706" lon="4.08719">
        <ele>134</ele>
        <time>2019-05-30T16:24:47Z</time>
      </trkpt>
      <trkpt lat="49.37056" lon="4.08715">
        <ele>133</ele>
        <time>2019-05-30T16:24:48Z</time>
      </trkpt>
      <trkpt lat="49.37052" lon="4.08711">
        <ele>133</ele>
        <time>2019-05-30T16:24:49Z</time>
      </trkpt>
      <trkpt lat="49.37048" lon="4.08706">
        <ele>133</ele>
        <time>2019-05-30T16:24:50Z</time>
      </trkpt>
      <trkpt lat="49.37044" lon="4.08701">
        <ele>133</ele>
        <time>2019-05-30T16:24:51Z</time>
      </trkpt>
      <trkpt lat="49.37039" lon="4.08697">
        <ele>133</ele>
        <time>2019-05-30T16:24:52Z</time>
      </trkpt>
      <trkpt lat="49.37035" lon="4.08693">
        <ele>134</ele>
        <time>2019-05-30T16:24:53Z</time>
      </trkpt>
      <trkpt lat="49.37031" lon="4.08688">
        <ele>134</ele>
        <time>2019-05-30T16:24:54Z</time>
      </trkpt>
      <trkpt lat="49.37026" lon="4.08684">
        <ele>133</ele>
        <time>2019-05-30T16:24:55Z</time>
      </trkpt>
      <trkpt lat="49.37022" lon="4.08679">
        <ele>133</ele>
        <time>2019-05-30T16:24:56Z</time>
      </trkpt>
      <trkpt lat="49.37018" lon="4.08675">
        <ele>134</ele>
        <time>2019-05-30T16:24:57Z</time>
      </trkpt>
      <trkpt lat="49.37013" lon="4.08672">
        <ele>134</ele>
        <time>2019-05-30T16:24:58Z</time>
      </trkpt>
      <trkpt lat="49.37009" lon="4.08669">
        <ele>133</ele>
        <time>2019-05-30T16:24:59Z</time>
      </trkpt>
      <trkpt lat="49.37004" lon="4.08665">
        <ele>133</ele>
        <time>2019-05-30T16:25:00Z</time>
      </trkpt>
      <trkpt lat="49.36999" lon="4.08662">
        <ele>133</ele>
        <time>2019-05-30T16:25:01Z</time>
      </trkpt>
      <trkpt lat="49.36994" lon="4.08658">
        <ele>133</ele>
        <time>2019-05-30T16:25:02Z</time>
      </trkpt>
      <trkpt lat="49.36989" lon="4.08655">
        <ele>133</ele>
        <time>2019-05-30T16:25:03Z</time>
      </trkpt>
      <trkpt lat="49.36984" lon="4.08651">
        <ele>133</ele>
        <time>2019-05-30T16:25:04Z</time>
      </trkpt>
      <trkpt lat="49.36979" lon="4.08648">
        <ele>133</ele>
        <time>2019-05-30T16:25:05Z</time>
      </trkpt>
      <trkpt lat="49.36975" lon="4.08645">
        <ele>133</ele>
        <time>2019-05-30T16:25:06Z</time>
      </trkpt>
      <trkpt lat="49.3697" lon="4.08642">
        <ele>133</ele>
        <time>2019-05-30T16:25:07Z</time>
      </trkpt>
      <trkpt lat="49.36966" lon="4.08639">
        <ele>133</ele>
        <time>2019-05-30T16:25:08Z</time>
      </trkpt>
      <trkpt lat="49.36961" lon="4.08636">
        <ele>133</ele>
        <time>2019-05-30T16:25:09Z</time>
      </trkpt>
      <trkpt lat="49.36957" lon="4.08632">
        <ele>133</ele>
        <time>2019-05-30T16:25:10Z</time>
      </trkpt>
      <trkpt lat="49.36952" lon="4.08629">
        <ele>133</ele>
        <time>2019-05-30T16:25:11Z</time>
      </trkpt>
      <trkpt lat="49.36947" lon="4.08625">
        <ele>133</ele>
        <time>2019-05-30T16:25:12Z</time>
      </trkpt>
      <trkpt lat="49.36942" lon="4.08622">
        <ele>133</ele>
        <time>2019-05-30T16:25:13Z</time>
      </trkpt>
      <trkpt lat="49.36937" lon="4.08618">
        <ele>133</ele>
        <time>2019-05-30T16:25:14Z</time>
      </trkpt>
      <trkpt lat="49.36932" lon="4.08615">
        <ele>133</ele>
        <time>2019-05-30T16:25:15Z</time>
      </trkpt>
      <trkpt lat="49.36927" lon="4.08611">
        <ele>132</ele>
        <time>2019-05-30T16:25:16Z</time>
      </trkpt>
      <trkpt lat="49.36922" lon="4.08608">
        <ele>133</ele>
        <time>2019-05-30T16:25:17Z</time>
      </trkpt>
      <trkpt lat="49.36916" lon="4.08604">
        <ele>133</ele>
        <time>2019-05-30T16:25:18Z</time>
      </trkpt>
      <trkpt lat="49.36911" lon="4.086">
        <ele>133</ele>
        <time>2019-05-30T16:25:19Z</time>
      </trkpt>
      <trkpt lat="49.36905" lon="4.08597">
        <ele>132</ele>
        <time>2019-05-30T16:25:20Z</time>
      </trkpt>
      <trkpt lat="49.369" lon="4.08593">
        <ele>132</ele>
        <time>2019-05-30T16:25:21Z</time>
      </trkpt>
      <trkpt lat="49.36894" lon="4.08589">
        <ele>132</ele>
        <time>2019-05-30T16:25:22Z</time>
      </trkpt>
      <trkpt lat="49.36888" lon="4.08585">
        <ele>132</ele>
        <time>2019-05-30T16:25:23Z</time>
      </trkpt>
      <trkpt lat="49.36882" lon="4.08581">
        <ele>132</ele>
        <time>2019-05-30T16:25:24Z</time>
      </trkpt>
      <trkpt lat="49.36876" lon="4.08576">
        <ele>132</ele>
        <time>2019-05-30T16:25:25Z</time>
      </trkpt>
      <trkpt lat="49.36869" lon="4.08572">
        <ele>132</ele>
        <time>2019-05-30T16:25:26Z</time>
      </trkpt>
      <trkpt lat="49.36863" lon="4.08567">
        <ele>131</ele>
        <time>2019-05-30T16:25:27Z</time>
      </trkpt>
      <trkpt lat="49.36856" lon="4.08563">
        <ele>131</ele>
        <time>2019-05-30T16:25:28Z</time>
      </trkpt>
      <trkpt lat="49.3685" lon="4.08559">
        <ele>131</ele>
        <time>2019-05-30T16:25:29Z</time>
      </trkpt>
      <trkpt lat="49.36843" lon="4.08554">
        <ele>131</ele>
        <time>2019-05-30T16:25:30Z</time>
      </trkpt>
      <trkpt lat="49.36837" lon="4.08551">
        <ele>131</ele>
        <time>2019-05-30T16:25:31Z</time>
      </trkpt>
      <trkpt lat="49.3683" lon="4.08546">
        <ele>131</ele>
        <time>2019-05-30T16:25:32Z</time>
      </trkpt>
      <trkpt lat="49.36824" lon="4.08542">
        <ele>131</ele>
        <time>2019-05-30T16:25:33Z</time>
      </trkpt>
      <trkpt lat="49.36818" lon="4.08537">
        <ele>130</ele>
        <time>2019-05-30T16:25:34Z</time>
      </trkpt>
      <trkpt lat="49.36811" lon="4.08532">
        <ele>130</ele>
        <time>2019-05-30T16:25:35Z</time>
      </trkpt>
      <trkpt lat="49.36804" lon="4.08528">
        <ele>130</ele>
        <time>2019-05-30T16:25:36Z</time>
      </trkpt>
      <trkpt lat="49.36798" lon="4.08523">
        <ele>129</ele>
        <time>2019-05-30T16:25:37Z</time>
      </trkpt>
      <trkpt lat="49.36791" lon="4.08519">
        <ele>129</ele>
        <time>2019-05-30T16:25:38Z</time>
      </trkpt>
      <trkpt lat="49.36784" lon="4.08514">
        <ele>129</ele>
        <time>2019-05-30T16:25:39Z</time>
      </trkpt>
      <trkpt lat="49.36777" lon="4.08509">
        <ele>129</ele>
        <time>2019-05-30T16:25:40Z</time>
      </trkpt>
      <trkpt lat="49.36771" lon="4.08504">
        <ele>129</ele>
        <time>2019-05-30T16:25:41Z</time>
      </trkpt>
      <trkpt lat="49.36764" lon="4.08499">
        <ele>129</ele>
        <time>2019-05-30T16:25:42Z</time>
      </trkpt>
      <trkpt lat="49.36757" lon="4.08495">
        <ele>129</ele>
        <time>2019-05-30T16:25:43Z</time>
      </trkpt>
      <trkpt lat="49.3675" lon="4.0849">
        <ele>129</ele>
        <time>2019-05-30T16:25:44Z</time>
      </trkpt>
      <trkpt lat="49.36743" lon="4.08485">
        <ele>128</ele>
        <time>2019-05-30T16:25:45Z</time>
      </trkpt>
      <trkpt lat="49.36736" lon="4.08481">
        <ele>128</ele>
        <time>2019-05-30T16:25:46Z</time>
      </trkpt>
      <trkpt lat="49.3673" lon="4.08476">
        <ele>128</ele>
        <time>2019-05-30T16:25:47Z</time>
      </trkpt>
      <trkpt lat="49.36723" lon="4.08471">
        <ele>128</ele>
        <time>2019-05-30T16:25:48Z</time>
      </trkpt>
      <trkpt lat="49.36716" lon="4.08466">
        <ele>128</ele>
        <time>2019-05-30T16:25:49Z</time>
      </trkpt>
      <trkpt lat="49.36709" lon="4.08461">
        <ele>128</ele>
        <time>2019-05-30T16:25:50Z</time>
      </trkpt>
      <trkpt lat="49.36702" lon="4.08457">
        <ele>128</ele>
        <time>2019-05-30T16:25:51Z</time>
      </trkpt>
      <trkpt lat="49.36694" lon="4.08452">
        <ele>128</ele>
        <time>2019-05-30T16:25:52Z</time>
      </trkpt>
      <trkpt lat="49.36687" lon="4.08447">
        <ele>128</ele>
        <time>2019-05-30T16:25:53Z</time>
      </trkpt>
      <trkpt lat="49.36681" lon="4.08442">
        <ele>128</ele>
        <time>2019-05-30T16:25:54Z</time>
      </trkpt>
      <trkpt lat="49.36673" lon="4.08437">
        <ele>127</ele>
        <time>2019-05-30T16:25:55Z</time>
      </trkpt>
      <trkpt lat="49.36667" lon="4.08433">
        <ele>127</ele>
        <time>2019-05-30T16:25:56Z</time>
      </trkpt>
      <trkpt lat="49.3666" lon="4.08428">
        <ele>127</ele>
        <time>2019-05-30T16:25:57Z</time>
      </trkpt>
      <trkpt lat="49.36653" lon="4.08423">
        <ele>127</ele>
        <time>2019-05-30T16:25:58Z</time>
      </trkpt>
      <trkpt lat="49.36646" lon="4.08418">
        <ele>127</ele>
        <time>2019-05-30T16:25:59Z</time>
      </trkpt>
      <trkpt lat="49.36639" lon="4.08414">
        <ele>127</ele>
        <time>2019-05-30T16:26:00Z</time>
      </trkpt>
      <trkpt lat="49.36632" lon="4.08409">
        <ele>127</ele>
        <time>2019-05-30T16:26:01Z</time>
      </trkpt>
      <trkpt lat="49.36625" lon="4.08404">
        <ele>127</ele>
        <time>2019-05-30T16:26:02Z</time>
      </trkpt>
      <trkpt lat="49.36618" lon="4.084">
        <ele>127</ele>
        <time>2019-05-30T16:26:03Z</time>
      </trkpt>
      <trkpt lat="49.36611" lon="4.08394">
        <ele>126</ele>
        <time>2019-05-30T16:26:04Z</time>
      </trkpt>
      <trkpt lat="49.36604" lon="4.08389">
        <ele>126</ele>
        <time>2019-05-30T16:26:05Z</time>
      </trkpt>
      <trkpt lat="49.36596" lon="4.08384">
        <ele>126</ele>
        <time>2019-05-30T16:26:06Z</time>
      </trkpt>
      <trkpt lat="49.36589" lon="4.0838">
        <ele>125</ele>
        <time>2019-05-30T16:26:07Z</time>
      </trkpt>
      <trkpt lat="49.36581" lon="4.08374">
        <ele>125</ele>
        <time>2019-05-30T16:26:08Z</time>
      </trkpt>
      <trkpt lat="49.36573" lon="4.08369">
        <ele>124</ele>
        <time>2019-05-30T16:26:09Z</time>
      </trkpt>
      <trkpt lat="49.36565" lon="4.08363">
        <ele>124</ele>
        <time>2019-05-30T16:26:10Z</time>
      </trkpt>
      <trkpt lat="49.36557" lon="4.08357">
        <ele>123</ele>
        <time>2019-05-30T16:26:11Z</time>
      </trkpt>
      <trkpt lat="49.36548" lon="4.08352">
        <ele>123</ele>
        <time>2019-05-30T16:26:12Z</time>
      </trkpt>
      <trkpt lat="49.36539" lon="4.08346">
        <ele>123</ele>
        <time>2019-05-30T16:26:13Z</time>
      </trkpt>
      <trkpt lat="49.36531" lon="4.08341">
        <ele>123</ele>
        <time>2019-05-30T16:26:14Z</time>
      </trkpt>
      <trkpt lat="49.36523" lon="4.08335">
        <ele>122</ele>
        <time>2019-05-30T16:26:15Z</time>
      </trkpt>
      <trkpt lat="49.36514" lon="4.08329">
        <ele>122</ele>
        <time>2019-05-30T16:26:16Z</time>
      </trkpt>
      <trkpt lat="49.36506" lon="4.08323">
        <ele>121</ele>
        <time>2019-05-30T16:26:17Z</time>
      </trkpt>
      <trkpt lat="49.36497" lon="4.08317">
        <ele>121</ele>
        <time>2019-05-30T16:26:18Z</time>
      </trkpt>
      <trkpt lat="49.36489" lon="4.08311">
        <ele>121</ele>
        <time>2019-05-30T16:26:19Z</time>
      </trkpt>
      <trkpt lat="49.3648" lon="4.08305">
        <ele>121</ele>
        <time>2019-05-30T16:26:20Z</time>
      </trkpt>
      <trkpt lat="49.36471" lon="4.08299">
        <ele>120</ele>
        <time>2019-05-30T16:26:21Z</time>
      </trkpt>
      <trkpt lat="49.36463" lon="4.08293">
        <ele>120</ele>
        <time>2019-05-30T16:26:22Z</time>
      </trkpt>
      <trkpt lat="49.36454" lon="4.08287">
        <ele>120</ele>
        <time>2019-05-30T16:26:23Z</time>
      </trkpt>
      <trkpt lat="49.36445" lon="4.08281">
        <ele>120</ele>
        <time>2019-05-30T16:26:24Z</time>
      </trkpt>
      <trkpt lat="49.36437" lon="4.08275">
        <ele>119</ele>
        <time>2019-05-30T16:26:25Z</time>
      </trkpt>
      <trkpt lat="49.36427" lon="4.08269">
        <ele>119</ele>
        <time>2019-05-30T16:26:26Z</time>
      </trkpt>
      <trkpt lat="49.36419" lon="4.08263">
        <ele>119</ele>
        <time>2019-05-30T16:26:27Z</time>
      </trkpt>
      <trkpt lat="49.3641" lon="4.08257">
        <ele>119</ele>
        <time>2019-05-30T16:26:28Z</time>
      </trkpt>
      <trkpt lat="49.36401" lon="4.08251">
        <ele>119</ele>
        <time>2019-05-30T16:26:29Z</time>
      </trkpt>
      <trkpt lat="49.36392" lon="4.08245">
        <ele>119</ele>
        <time>2019-05-30T16:26:30Z</time>
      </trkpt>
      <trkpt lat="49.36384" lon="4.08239">
        <ele>119</ele>
        <time>2019-05-30T16:26:31Z</time>
      </trkpt>
      <trkpt lat="49.36375" lon="4.08232">
        <ele>119</ele>
        <time>2019-05-30T16:26:32Z</time>
      </trkpt>
      <trkpt lat="49.36366" lon="4.08227">
        <ele>118</ele>
        <time>2019-05-30T16:26:33Z</time>
      </trkpt>
      <trkpt lat="49.36358" lon="4.08221">
        <ele>119</ele>
        <time>2019-05-30T16:26:34Z</time>
      </trkpt>
      <trkpt lat="49.3635" lon="4.08216">
        <ele>119</ele>
        <time>2019-05-30T16:26:35Z</time>
      </trkpt>
      <trkpt lat="49.36342" lon="4.0821">
        <ele>119</ele>
        <time>2019-05-30T16:26:36Z</time>
      </trkpt>
      <trkpt lat="49.36335" lon="4.08205">
        <ele>119</ele>
        <time>2019-05-30T16:26:37Z</time>
      </trkpt>
      <trkpt lat="49.36327" lon="4.082">
        <ele>119</ele>
        <time>2019-05-30T16:26:38Z</time>
      </trkpt>
      <trkpt lat="49.3632" lon="4.08195">
        <ele>119</ele>
        <time>2019-05-30T16:26:39Z</time>
      </trkpt>
      <trkpt lat="49.36313" lon="4.0819">
        <ele>119</ele>
        <time>2019-05-30T16:26:40Z</time>
      </trkpt>
      <trkpt lat="49.36306" lon="4.08185">
        <ele>119</ele>
        <time>2019-05-30T16:26:41Z</time>
      </trkpt>
      <trkpt lat="49.36299" lon="4.08181">
        <ele>119</ele>
        <time>2019-05-30T16:26:42Z</time>
      </trkpt>
      <trkpt lat="49.36293" lon="4.08176">
        <ele>119</ele>
        <time>2019-05-30T16:26:43Z</time>
      </trkpt>
      <trkpt lat="49.36287" lon="4.08172">
        <ele>120</ele>
        <time>2019-05-30T16:26:44Z</time>
      </trkpt>
      <trkpt lat="49.36281" lon="4.08168">
        <ele>120</ele>
        <time>2019-05-30T16:26:45Z</time>
      </trkpt>
      <trkpt lat="49.36275" lon="4.08164">
        <ele>120</ele>
        <time>2019-05-30T16:26:46Z</time>
      </trkpt>
      <trkpt lat="49.36269" lon="4.08161">
        <ele>120</ele>
        <time>2019-05-30T16:26:47Z</time>
      </trkpt>
      <trkpt lat="49.36264" lon="4.08157">
        <ele>120</ele>
        <time>2019-05-30T16:26:48Z</time>
      </trkpt>
      <trkpt lat="49.36259" lon="4.08153">
        <ele>120</ele>
        <time>2019-05-30T16:26:49Z</time>
      </trkpt>
      <trkpt lat="49.36254" lon="4.0815">
        <ele>120</ele>
        <time>2019-05-30T16:26:50Z</time>
      </trkpt>
      <trkpt lat="49.36249" lon="4.08146">
        <ele>121</ele>
        <time>2019-05-30T16:26:51Z</time>
      </trkpt>
      <trkpt lat="49.36244" lon="4.08143">
        <ele>121</ele>
        <time>2019-05-30T16:26:52Z</time>
      </trkpt>
      <trkpt lat="49.36239" lon="4.08139">
        <ele>121</ele>
        <time>2019-05-30T16:26:53Z</time>
      </trkpt>
      <trkpt lat="49.36234" lon="4.08136">
        <ele>121</ele>
        <time>2019-05-30T16:26:54Z</time>
      </trkpt>
      <trkpt lat="49.3623" lon="4.08133">
        <ele>122</ele>
        <time>2019-05-30T16:26:55Z</time>
      </trkpt>
      <trkpt lat="49.36225" lon="4.0813">
        <ele>122</ele>
        <time>2019-05-30T16:26:56Z</time>
      </trkpt>
      <trkpt lat="49.36221" lon="4.08127">
        <ele>122</ele>
        <time>2019-05-30T16:26:57Z</time>
      </trkpt>
      <trkpt lat="49.36216" lon="4.08124">
        <ele>122</ele>
        <time>2019-05-30T16:26:58Z</time>
      </trkpt>
      <trkpt lat="49.36212" lon="4.08121">
        <ele>122</ele>
        <time>2019-05-30T16:26:59Z</time>
      </trkpt>
      <trkpt lat="49.36208" lon="4.08118">
        <ele>122</ele>
        <time>2019-05-30T16:27:00Z</time>
      </trkpt>
      <trkpt lat="49.36203" lon="4.08115">
        <ele>122</ele>
        <time>2019-05-30T16:27:01Z</time>
      </trkpt>
      <trkpt lat="49.36199" lon="4.08112">
        <ele>122</ele>
        <time>2019-05-30T16:27:02Z</time>
      </trkpt>
      <trkpt lat="49.36195" lon="4.08109">
        <ele>122</ele>
        <time>2019-05-30T16:27:03Z</time>
      </trkpt>
      <trkpt lat="49.36191" lon="4.08106">
        <ele>123</ele>
        <time>2019-05-30T16:27:04Z</time>
      </trkpt>
      <trkpt lat="49.36187" lon="4.08103">
        <ele>123</ele>
        <time>2019-05-30T16:27:05Z</time>
      </trkpt>
      <trkpt lat="49.36182" lon="4.08101">
        <ele>123</ele>
        <time>2019-05-30T16:27:06Z</time>
      </trkpt>
      <trkpt lat="49.36178" lon="4.08098">
        <ele>123</ele>
        <time>2019-05-30T16:27:07Z</time>
      </trkpt>
      <trkpt lat="49.36174" lon="4.08095">
        <ele>123</ele>
        <time>2019-05-30T16:27:08Z</time>
      </trkpt>
      <trkpt lat="49.36171" lon="4.08092">
        <ele>123</ele>
        <time>2019-05-30T16:27:09Z</time>
      </trkpt>
      <trkpt lat="49.36167" lon="4.08089">
        <ele>123</ele>
        <time>2019-05-30T16:27:10Z</time>
      </trkpt>
      <trkpt lat="49.36163" lon="4.08087">
        <ele>123</ele>
        <time>2019-05-30T16:27:11Z</time>
      </trkpt>
      <trkpt lat="49.36159" lon="4.08085">
        <ele>123</ele>
        <time>2019-05-30T16:27:12Z</time>
      </trkpt>
      <trkpt lat="49.36155" lon="4.08082">
        <ele>124</ele>
        <time>2019-05-30T16:27:13Z</time>
      </trkpt>
      <trkpt lat="49.36152" lon="4.08079">
        <ele>124</ele>
        <time>2019-05-30T16:27:14Z</time>
      </trkpt>
      <trkpt lat="49.36148" lon="4.08077">
        <ele>124</ele>
        <time>2019-05-30T16:27:15Z</time>
      </trkpt>
      <trkpt lat="49.36144" lon="4.08074">
        <ele>124</ele>
        <time>2019-05-30T16:27:16Z</time>
      </trkpt>
      <trkpt lat="49.36141" lon="4.08071">
        <ele>124</ele>
        <time>2019-05-30T16:27:17Z</time>
      </trkpt>
      <trkpt lat="49.36137" lon="4.08069">
        <ele>124</ele>
        <time>2019-05-30T16:27:18Z</time>
      </trkpt>
      <trkpt lat="49.36133" lon="4.08066">
        <ele>124</ele>
        <time>2019-05-30T16:27:19Z</time>
      </trkpt>
      <trkpt lat="49.36129" lon="4.08064">
        <ele>124</ele>
        <time>2019-05-30T16:27:20Z</time>
      </trkpt>
      <trkpt lat="49.36126" lon="4.08062">
        <ele>124</ele>
        <time>2019-05-30T16:27:21Z</time>
      </trkpt>
      <trkpt lat="49.36122" lon="4.08059">
        <ele>124</ele>
        <time>2019-05-30T16:27:22Z</time>
      </trkpt>
      <trkpt lat="49.36118" lon="4.08056">
        <ele>124</ele>
        <time>2019-05-30T16:27:23Z</time>
      </trkpt>
      <trkpt lat="49.36114" lon="4.08054">
        <ele>124</ele>
        <time>2019-05-30T16:27:24Z</time>
      </trkpt>
      <trkpt lat="49.3611" lon="4.08052">
        <ele>124</ele>
        <time>2019-05-30T16:27:25Z</time>
      </trkpt>
      <trkpt lat="49.36107" lon="4.08049">
        <ele>124</ele>
        <time>2019-05-30T16:27:26Z</time>
      </trkpt>
      <trkpt lat="49.36099" lon="4.08044">
        <ele>125</ele>
        <time>2019-05-30T16:27:28Z</time>
      </trkpt>
      <trkpt lat="49.36096" lon="4.08041">
        <ele>124</ele>
        <time>2019-05-30T16:27:29Z</time>
      </trkpt>
      <trkpt lat="49.36092" lon="4.08038">
        <ele>125</ele>
        <time>2019-05-30T16:27:30Z</time>
      </trkpt>
      <trkpt lat="49.36088" lon="4.08036">
        <ele>125</ele>
        <time>2019-05-30T16:27:31Z</time>
      </trkpt>
      <trkpt lat="49.36085" lon="4.08034">
        <ele>125</ele>
        <time>2019-05-30T16:27:32Z</time>
      </trkpt>
      <trkpt lat="49.36081" lon="4.08032">
        <ele>125</ele>
        <time>2019-05-30T16:27:33Z</time>
      </trkpt>
      <trkpt lat="49.36078" lon="4.08029">
        <ele>125</ele>
        <time>2019-05-30T16:27:34Z</time>
      </trkpt>
      <trkpt lat="49.36074" lon="4.08026">
        <ele>125</ele>
        <time>2019-05-30T16:27:35Z</time>
      </trkpt>
      <trkpt lat="49.3607" lon="4.08024">
        <ele>125</ele>
        <time>2019-05-30T16:27:36Z</time>
      </trkpt>
      <trkpt lat="49.36067" lon="4.08022">
        <ele>125</ele>
        <time>2019-05-30T16:27:37Z</time>
      </trkpt>
      <trkpt lat="49.36063" lon="4.08019">
        <ele>125</ele>
        <time>2019-05-30T16:27:38Z</time>
      </trkpt>
      <trkpt lat="49.36059" lon="4.08016">
        <ele>126</ele>
        <time>2019-05-30T16:27:39Z</time>
      </trkpt>
      <trkpt lat="49.36055" lon="4.08014">
        <ele>126</ele>
        <time>2019-05-30T16:27:40Z</time>
      </trkpt>
      <trkpt lat="49.36051" lon="4.08011">
        <ele>126</ele>
        <time>2019-05-30T16:27:41Z</time>
      </trkpt>
      <trkpt lat="49.36048" lon="4.08008">
        <ele>126</ele>
        <time>2019-05-30T16:27:42Z</time>
      </trkpt>
      <trkpt lat="49.36044" lon="4.08005">
        <ele>126</ele>
        <time>2019-05-30T16:27:43Z</time>
      </trkpt>
      <trkpt lat="49.36041" lon="4.08003">
        <ele>126</ele>
        <time>2019-05-30T16:27:44Z</time>
      </trkpt>
      <trkpt lat="49.36037" lon="4.08001">
        <ele>126</ele>
        <time>2019-05-30T16:27:45Z</time>
      </trkpt>
      <trkpt lat="49.36033" lon="4.07998">
        <ele>126</ele>
        <time>2019-05-30T16:27:46Z</time>
      </trkpt>
      <trkpt lat="49.36029" lon="4.07996">
        <ele>126</ele>
        <time>2019-05-30T16:27:47Z</time>
      </trkpt>
      <trkpt lat="49.36026" lon="4.07993">
        <ele>126</ele>
        <time>2019-05-30T16:27:48Z</time>
      </trkpt>
      <trkpt lat="49.36022" lon="4.07991">
        <ele>126</ele>
        <time>2019-05-30T16:27:49Z</time>
      </trkpt>
      <trkpt lat="49.36018" lon="4.07988">
        <ele>126</ele>
        <time>2019-05-30T16:27:50Z</time>
      </trkpt>
      <trkpt lat="49.36014" lon="4.07985">
        <ele>126</ele>
        <time>2019-05-30T16:27:51Z</time>
      </trkpt>
      <trkpt lat="49.3601" lon="4.07983">
        <ele>126</ele>
        <time>2019-05-30T16:27:52Z</time>
      </trkpt>
      <trkpt lat="49.36006" lon="4.0798">
        <ele>126</ele>
        <time>2019-05-30T16:27:53Z</time>
      </trkpt>
      <trkpt lat="49.36003" lon="4.07978">
        <ele>126</ele>
        <time>2019-05-30T16:27:54Z</time>
      </trkpt>
      <trkpt lat="49.35999" lon="4.07975">
        <ele>126</ele>
        <time>2019-05-30T16:27:55Z</time>
      </trkpt>
      <trkpt lat="49.35995" lon="4.07972">
        <ele>126</ele>
        <time>2019-05-30T16:27:56Z</time>
      </trkpt>
      <trkpt lat="49.35991" lon="4.07969">
        <ele>126</ele>
        <time>2019-05-30T16:27:57Z</time>
      </trkpt>
      <trkpt lat="49.35986" lon="4.07967">
        <ele>126</ele>
        <time>2019-05-30T16:27:58Z</time>
      </trkpt>
      <trkpt lat="49.35982" lon="4.07964">
        <ele>126</ele>
        <time>2019-05-30T16:27:59Z</time>
      </trkpt>
      <trkpt lat="49.35978" lon="4.07961">
        <ele>126</ele>
        <time>2019-05-30T16:28:00Z</time>
      </trkpt>
      <trkpt lat="49.35974" lon="4.07958">
        <ele>126</ele>
        <time>2019-05-30T16:28:01Z</time>
      </trkpt>
      <trkpt lat="49.3597" lon="4.07955">
        <ele>127</ele>
        <time>2019-05-30T16:28:02Z</time>
      </trkpt>
      <trkpt lat="49.35966" lon="4.07952">
        <ele>127</ele>
        <time>2019-05-30T16:28:03Z</time>
      </trkpt>
      <trkpt lat="49.35961" lon="4.07949">
        <ele>127</ele>
        <time>2019-05-30T16:28:04Z</time>
      </trkpt>
      <trkpt lat="49.35957" lon="4.07947">
        <ele>126</ele>
        <time>2019-05-30T16:28:05Z</time>
      </trkpt>
      <trkpt lat="49.35953" lon="4.07944">
        <ele>127</ele>
        <time>2019-05-30T16:28:06Z</time>
      </trkpt>
      <trkpt lat="49.35949" lon="4.07941">
        <ele>127</ele>
        <time>2019-05-30T16:28:07Z</time>
      </trkpt>
      <trkpt lat="49.35944" lon="4.07938">
        <ele>127</ele>
        <time>2019-05-30T16:28:08Z</time>
      </trkpt>
      <trkpt lat="49.3594" lon="4.07935">
        <ele>127</ele>
        <time>2019-05-30T16:28:09Z</time>
      </trkpt>
      <trkpt lat="49.35937" lon="4.07932">
        <ele>127</ele>
        <time>2019-05-30T16:28:10Z</time>
      </trkpt>
      <trkpt lat="49.35932" lon="4.0793">
        <ele>127</ele>
        <time>2019-05-30T16:28:11Z</time>
      </trkpt>
      <trkpt lat="49.35928" lon="4.07927">
        <ele>127</ele>
        <time>2019-05-30T16:28:12Z</time>
      </trkpt>
      <trkpt lat="49.35924" lon="4.07924">
        <ele>127</ele>
        <time>2019-05-30T16:28:13Z</time>
      </trkpt>
      <trkpt lat="49.3592" lon="4.07921">
        <ele>127</ele>
        <time>2019-05-30T16:28:14Z</time>
      </trkpt>
      <trkpt lat="49.35916" lon="4.07918">
        <ele>127</ele>
        <time>2019-05-30T16:28:15Z</time>
      </trkpt>
      <trkpt lat="49.35912" lon="4.07916">
        <ele>127</ele>
        <time>2019-05-30T16:28:16Z</time>
      </trkpt>
      <trkpt lat="49.35907" lon="4.07913">
        <ele>127</ele>
        <time>2019-05-30T16:28:17Z</time>
      </trkpt>
      <trkpt lat="49.35903" lon="4.0791">
        <ele>127</ele>
        <time>2019-05-30T16:28:18Z</time>
      </trkpt>
      <trkpt lat="49.35899" lon="4.07907">
        <ele>127</ele>
        <time>2019-05-30T16:28:19Z</time>
      </trkpt>
      <trkpt lat="49.35895" lon="4.07904">
        <ele>127</ele>
        <time>2019-05-30T16:28:20Z</time>
      </trkpt>
      <trkpt lat="49.35891" lon="4.07902">
        <ele>128</ele>
        <time>2019-05-30T16:28:21Z</time>
      </trkpt>
      <trkpt lat="49.35887" lon="4.07899">
        <ele>128</ele>
        <time>2019-05-30T16:28:22Z</time>
      </trkpt>
      <trkpt lat="49.35883" lon="4.07896">
        <ele>128</ele>
        <time>2019-05-30T16:28:23Z</time>
      </trkpt>
      <trkpt lat="49.35879" lon="4.07893">
        <ele>128</ele>
        <time>2019-05-30T16:28:24Z</time>
      </trkpt>
      <trkpt lat="49.35875" lon="4.0789">
        <ele>128</ele>
        <time>2019-05-30T16:28:25Z</time>
      </trkpt>
      <trkpt lat="49.35871" lon="4.07887">
        <ele>128</ele>
        <time>2019-05-30T16:28:26Z</time>
      </trkpt>
      <trkpt lat="49.35867" lon="4.07884">
        <ele>128</ele>
        <time>2019-05-30T16:28:27Z</time>
      </trkpt>
      <trkpt lat="49.35863" lon="4.07882">
        <ele>128</ele>
        <time>2019-05-30T16:28:28Z</time>
      </trkpt>
      <trkpt lat="49.35859" lon="4.0788">
        <ele>128</ele>
        <time>2019-05-30T16:28:29Z</time>
      </trkpt>
      <trkpt lat="49.35855" lon="4.07877">
        <ele>128</ele>
        <time>2019-05-30T16:28:30Z</time>
      </trkpt>
      <trkpt lat="49.35852" lon="4.07874">
        <ele>128</ele>
        <time>2019-05-30T16:28:31Z</time>
      </trkpt>
      <trkpt lat="49.35848" lon="4.07871">
        <ele>128</ele>
        <time>2019-05-30T16:28:32Z</time>
      </trkpt>
      <trkpt lat="49.35844" lon="4.07869">
        <ele>128</ele>
        <time>2019-05-30T16:28:33Z</time>
      </trkpt>
      <trkpt lat="49.3584" lon="4.07867">
        <ele>128</ele>
        <time>2019-05-30T16:28:34Z</time>
      </trkpt>
      <trkpt lat="49.35836" lon="4.07864">
        <ele>128</ele>
        <time>2019-05-30T16:28:35Z</time>
      </trkpt>
      <trkpt lat="49.35832" lon="4.07861">
        <ele>128</ele>
        <time>2019-05-30T16:28:36Z</time>
      </trkpt>
      <trkpt lat="49.35829" lon="4.07859">
        <ele>129</ele>
        <time>2019-05-30T16:28:37Z</time>
      </trkpt>
      <trkpt lat="49.35825" lon="4.07856">
        <ele>129</ele>
        <time>2019-05-30T16:28:38Z</time>
      </trkpt>
      <trkpt lat="49.35821" lon="4.07854">
        <ele>129</ele>
        <time>2019-05-30T16:28:39Z</time>
      </trkpt>
      <trkpt lat="49.35817" lon="4.07851">
        <ele>129</ele>
        <time>2019-05-30T16:28:40Z</time>
      </trkpt>
      <trkpt lat="49.35814" lon="4.07848">
        <ele>129</ele>
        <time>2019-05-30T16:28:41Z</time>
      </trkpt>
      <trkpt lat="49.3581" lon="4.07846">
        <ele>129</ele>
        <time>2019-05-30T16:28:42Z</time>
      </trkpt>
      <trkpt lat="49.35806" lon="4.07844">
        <ele>129</ele>
        <time>2019-05-30T16:28:43Z</time>
      </trkpt>
      <trkpt lat="49.35802" lon="4.07841">
        <ele>129</ele>
        <time>2019-05-30T16:28:44Z</time>
      </trkpt>
      <trkpt lat="49.35799" lon="4.07838">
        <ele>129</ele>
        <time>2019-05-30T16:28:45Z</time>
      </trkpt>
      <trkpt lat="49.35795" lon="4.07836">
        <ele>129</ele>
        <time>2019-05-30T16:28:46Z</time>
      </trkpt>
      <trkpt lat="49.35791" lon="4.07833">
        <ele>130</ele>
        <time>2019-05-30T16:28:47Z</time>
      </trkpt>
      <trkpt lat="49.35787" lon="4.07831">
        <ele>130</ele>
        <time>2019-05-30T16:28:48Z</time>
      </trkpt>
      <trkpt lat="49.35783" lon="4.07828">
        <ele>130</ele>
        <time>2019-05-30T16:28:49Z</time>
      </trkpt>
      <trkpt lat="49.3578" lon="4.07826">
        <ele>130</ele>
        <time>2019-05-30T16:28:50Z</time>
      </trkpt>
      <trkpt lat="49.35776" lon="4.07823">
        <ele>130</ele>
        <time>2019-05-30T16:28:51Z</time>
      </trkpt>
      <trkpt lat="49.35772" lon="4.0782">
        <ele>130</ele>
        <time>2019-05-30T16:28:52Z</time>
      </trkpt>
      <trkpt lat="49.35768" lon="4.07817">
        <ele>130</ele>
        <time>2019-05-30T16:28:53Z</time>
      </trkpt>
      <trkpt lat="49.35764" lon="4.07815">
        <ele>131</ele>
        <time>2019-05-30T16:28:54Z</time>
      </trkpt>
      <trkpt lat="49.35761" lon="4.07812">
        <ele>131</ele>
        <time>2019-05-30T16:28:55Z</time>
      </trkpt>
      <trkpt lat="49.35757" lon="4.0781">
        <ele>131</ele>
        <time>2019-05-30T16:28:56Z</time>
      </trkpt>
      <trkpt lat="49.35753" lon="4.07807">
        <ele>131</ele>
        <time>2019-05-30T16:28:57Z</time>
      </trkpt>
      <trkpt lat="49.3575" lon="4.07804">
        <ele>131</ele>
        <time>2019-05-30T16:28:58Z</time>
      </trkpt>
      <trkpt lat="49.35746" lon="4.07801">
        <ele>132</ele>
        <time>2019-05-30T16:28:59Z</time>
      </trkpt>
      <trkpt lat="49.35742" lon="4.07799">
        <ele>132</ele>
        <time>2019-05-30T16:29:00Z</time>
      </trkpt>
      <trkpt lat="49.35738" lon="4.07796">
        <ele>132</ele>
        <time>2019-05-30T16:29:01Z</time>
      </trkpt>
      <trkpt lat="49.35735" lon="4.07794">
        <ele>132</ele>
        <time>2019-05-30T16:29:02Z</time>
      </trkpt>
      <trkpt lat="49.35731" lon="4.07792">
        <ele>132</ele>
        <time>2019-05-30T16:29:03Z</time>
      </trkpt>
      <trkpt lat="49.35727" lon="4.07789">
        <ele>132</ele>
        <time>2019-05-30T16:29:04Z</time>
      </trkpt>
      <trkpt lat="49.35723" lon="4.07786">
        <ele>132</ele>
        <time>2019-05-30T16:29:05Z</time>
      </trkpt>
      <trkpt lat="49.35719" lon="4.07784">
        <ele>132</ele>
        <time>2019-05-30T16:29:06Z</time>
      </trkpt>
      <trkpt lat="49.35715" lon="4.07781">
        <ele>132</ele>
        <time>2019-05-30T16:29:07Z</time>
      </trkpt>
      <trkpt lat="49.35712" lon="4.07778">
        <ele>132</ele>
        <time>2019-05-30T16:29:08Z</time>
      </trkpt>
      <trkpt lat="49.35708" lon="4.07776">
        <ele>132</ele>
        <time>2019-05-30T16:29:09Z</time>
      </trkpt>
      <trkpt lat="49.35705" lon="4.07774">
        <ele>132</ele>
        <time>2019-05-30T16:29:10Z</time>
      </trkpt>
      <trkpt lat="49.35701" lon="4.07771">
        <ele>133</ele>
        <time>2019-05-30T16:29:11Z</time>
      </trkpt>
      <trkpt lat="49.35697" lon="4.07769">
        <ele>133</ele>
        <time>2019-05-30T16:29:12Z</time>
      </trkpt>
      <trkpt lat="49.35694" lon="4.07766">
        <ele>133</ele>
        <time>2019-05-30T16:29:13Z</time>
      </trkpt>
      <trkpt lat="49.3569" lon="4.07764">
        <ele>133</ele>
        <time>2019-05-30T16:29:14Z</time>
      </trkpt>
      <trkpt lat="49.35686" lon="4.07761">
        <ele>133</ele>
        <time>2019-05-30T16:29:15Z</time>
      </trkpt>
      <trkpt lat="49.35683" lon="4.07758">
        <ele>133</ele>
        <time>2019-05-30T16:29:16Z</time>
      </trkpt>
      <trkpt lat="49.35679" lon="4.07756">
        <ele>133</ele>
        <time>2019-05-30T16:29:17Z</time>
      </trkpt>
      <trkpt lat="49.35676" lon="4.07753">
        <ele>133</ele>
        <time>2019-05-30T16:29:18Z</time>
      </trkpt>
      <trkpt lat="49.35672" lon="4.07751">
        <ele>133</ele>
        <time>2019-05-30T16:29:19Z</time>
      </trkpt>
      <trkpt lat="49.35669" lon="4.07749">
        <ele>133</ele>
        <time>2019-05-30T16:29:20Z</time>
      </trkpt>
      <trkpt lat="49.35666" lon="4.07747">
        <ele>133</ele>
        <time>2019-05-30T16:29:21Z</time>
      </trkpt>
      <trkpt lat="49.35662" lon="4.07745">
        <ele>134</ele>
        <time>2019-05-30T16:29:22Z</time>
      </trkpt>
      <trkpt lat="49.35659" lon="4.07742">
        <ele>134</ele>
        <time>2019-05-30T16:29:23Z</time>
      </trkpt>
      <trkpt lat="49.35655" lon="4.0774">
        <ele>134</ele>
        <time>2019-05-30T16:29:24Z</time>
      </trkpt>
      <trkpt lat="49.35652" lon="4.07737">
        <ele>134</ele>
        <time>2019-05-30T16:29:25Z</time>
      </trkpt>
      <trkpt lat="49.35648" lon="4.07735">
        <ele>134</ele>
        <time>2019-05-30T16:29:26Z</time>
      </trkpt>
      <trkpt lat="49.35644" lon="4.07732">
        <ele>134</ele>
        <time>2019-05-30T16:29:27Z</time>
      </trkpt>
      <trkpt lat="49.3564" lon="4.07729">
        <ele>134</ele>
        <time>2019-05-30T16:29:28Z</time>
      </trkpt>
      <trkpt lat="49.35636" lon="4.07726">
        <ele>134</ele>
        <time>2019-05-30T16:29:29Z</time>
      </trkpt>
      <trkpt lat="49.35632" lon="4.07724">
        <ele>134</ele>
        <time>2019-05-30T16:29:30Z</time>
      </trkpt>
      <trkpt lat="49.35629" lon="4.07721">
        <ele>135</ele>
        <time>2019-05-30T16:29:31Z</time>
      </trkpt>
      <trkpt lat="49.35625" lon="4.07718">
        <ele>135</ele>
        <time>2019-05-30T16:29:32Z</time>
      </trkpt>
      <trkpt lat="49.35621" lon="4.07715">
        <ele>135</ele>
        <time>2019-05-30T16:29:33Z</time>
      </trkpt>
      <trkpt lat="49.35617" lon="4.07712">
        <ele>135</ele>
        <time>2019-05-30T16:29:34Z</time>
      </trkpt>
      <trkpt lat="49.35613" lon="4.0771">
        <ele>135</ele>
        <time>2019-05-30T16:29:35Z</time>
      </trkpt>
      <trkpt lat="49.35609" lon="4.07707">
        <ele>135</ele>
        <time>2019-05-30T16:29:36Z</time>
      </trkpt>
      <trkpt lat="49.35606" lon="4.07704">
        <ele>135</ele>
        <time>2019-05-30T16:29:37Z</time>
      </trkpt>
      <trkpt lat="49.35601" lon="4.07702">
        <ele>135</ele>
        <time>2019-05-30T16:29:38Z</time>
      </trkpt>
      <trkpt lat="49.35597" lon="4.07699">
        <ele>135</ele>
        <time>2019-05-30T16:29:39Z</time>
      </trkpt>
      <trkpt lat="49.35593" lon="4.07696">
        <ele>135</ele>
        <time>2019-05-30T16:29:40Z</time>
      </trkpt>
      <trkpt lat="49.35589" lon="4.07693">
        <ele>135</ele>
        <time>2019-05-30T16:29:41Z</time>
      </trkpt>
      <trkpt lat="49.35584" lon="4.0769">
        <ele>135</ele>
        <time>2019-05-30T16:29:42Z</time>
      </trkpt>
      <trkpt lat="49.3558" lon="4.07687">
        <ele>135</ele>
        <time>2019-05-30T16:29:43Z</time>
      </trkpt>
      <trkpt lat="49.35576" lon="4.07684">
        <ele>135</ele>
        <time>2019-05-30T16:29:44Z</time>
      </trkpt>
      <trkpt lat="49.35571" lon="4.07681">
        <ele>135</ele>
        <time>2019-05-30T16:29:45Z</time>
      </trkpt>
      <trkpt lat="49.35567" lon="4.07678">
        <ele>135</ele>
        <time>2019-05-30T16:29:46Z</time>
      </trkpt>
      <trkpt lat="49.35562" lon="4.07675">
        <ele>135</ele>
        <time>2019-05-30T16:29:47Z</time>
      </trkpt>
      <trkpt lat="49.35558" lon="4.07672">
        <ele>135</ele>
        <time>2019-05-30T16:29:48Z</time>
      </trkpt>
      <trkpt lat="49.35553" lon="4.07669">
        <ele>135</ele>
        <time>2019-05-30T16:29:49Z</time>
      </trkpt>
      <trkpt lat="49.35549" lon="4.07666">
        <ele>135</ele>
        <time>2019-05-30T16:29:50Z</time>
      </trkpt>
      <trkpt lat="49.35544" lon="4.07663">
        <ele>136</ele>
        <time>2019-05-30T16:29:51Z</time>
      </trkpt>
      <trkpt lat="49.3554" lon="4.0766">
        <ele>136</ele>
        <time>2019-05-30T16:29:52Z</time>
      </trkpt>
      <trkpt lat="49.35535" lon="4.07656">
        <ele>136</ele>
        <time>2019-05-30T16:29:53Z</time>
      </trkpt>
      <trkpt lat="49.35531" lon="4.07653">
        <ele>136</ele>
        <time>2019-05-30T16:29:54Z</time>
      </trkpt>
      <trkpt lat="49.35527" lon="4.0765">
        <ele>136</ele>
        <time>2019-05-30T16:29:55Z</time>
      </trkpt>
      <trkpt lat="49.35522" lon="4.07647">
        <ele>136</ele>
        <time>2019-05-30T16:29:56Z</time>
      </trkpt>
      <trkpt lat="49.35518" lon="4.07644">
        <ele>136</ele>
        <time>2019-05-30T16:29:57Z</time>
      </trkpt>
      <trkpt lat="49.35513" lon="4.07641">
        <ele>136</ele>
        <time>2019-05-30T16:29:58Z</time>
      </trkpt>
      <trkpt lat="49.35509" lon="4.07638">
        <ele>135</ele>
        <time>2019-05-30T16:29:59Z</time>
      </trkpt>
      <trkpt lat="49.35504" lon="4.07635">
        <ele>135</ele>
        <time>2019-05-30T16:30:00Z</time>
      </trkpt>
      <trkpt lat="49.35499" lon="4.07633">
        <ele>135</ele>
        <time>2019-05-30T16:30:01Z</time>
      </trkpt>
      <trkpt lat="49.35494" lon="4.07629">
        <ele>135</ele>
        <time>2019-05-30T16:30:02Z</time>
      </trkpt>
      <trkpt lat="49.3549" lon="4.07627">
        <ele>135</ele>
        <time>2019-05-30T16:30:03Z</time>
      </trkpt>
      <trkpt lat="49.35486" lon="4.07624">
        <ele>135</ele>
        <time>2019-05-30T16:30:04Z</time>
      </trkpt>
      <trkpt lat="49.35481" lon="4.07621">
        <ele>136</ele>
        <time>2019-05-30T16:30:05Z</time>
      </trkpt>
      <trkpt lat="49.35477" lon="4.07618">
        <ele>136</ele>
        <time>2019-05-30T16:30:06Z</time>
      </trkpt>
      <trkpt lat="49.35472" lon="4.07614">
        <ele>136</ele>
        <time>2019-05-30T16:30:07Z</time>
      </trkpt>
      <trkpt lat="49.35468" lon="4.07611">
        <ele>136</ele>
        <time>2019-05-30T16:30:08Z</time>
      </trkpt>
      <trkpt lat="49.35464" lon="4.07608">
        <ele>136</ele>
        <time>2019-05-30T16:30:09Z</time>
      </trkpt>
      <trkpt lat="49.35459" lon="4.07605">
        <ele>136</ele>
        <time>2019-05-30T16:30:10Z</time>
      </trkpt>
      <trkpt lat="49.35454" lon="4.07602">
        <ele>136</ele>
        <time>2019-05-30T16:30:11Z</time>
      </trkpt>
      <trkpt lat="49.3545" lon="4.07599">
        <ele>136</ele>
        <time>2019-05-30T16:30:12Z</time>
      </trkpt>
      <trkpt lat="49.35445" lon="4.07595">
        <ele>136</ele>
        <time>2019-05-30T16:30:13Z</time>
      </trkpt>
      <trkpt lat="49.3544" lon="4.07592">
        <ele>136</ele>
        <time>2019-05-30T16:30:14Z</time>
      </trkpt>
      <trkpt lat="49.35436" lon="4.07589">
        <ele>136</ele>
        <time>2019-05-30T16:30:15Z</time>
      </trkpt>
      <trkpt lat="49.35431" lon="4.07585">
        <ele>136</ele>
        <time>2019-05-30T16:30:16Z</time>
      </trkpt>
      <trkpt lat="49.35426" lon="4.07582">
        <ele>136</ele>
        <time>2019-05-30T16:30:17Z</time>
      </trkpt>
      <trkpt lat="49.35421" lon="4.07579">
        <ele>136</ele>
        <time>2019-05-30T16:30:18Z</time>
      </trkpt>
      <trkpt lat="49.35417" lon="4.07575">
        <ele>136</ele>
        <time>2019-05-30T16:30:19Z</time>
      </trkpt>
      <trkpt lat="49.35412" lon="4.07573">
        <ele>136</ele>
        <time>2019-05-30T16:30:20Z</time>
      </trkpt>
      <trkpt lat="49.35408" lon="4.07569">
        <ele>136</ele>
        <time>2019-05-30T16:30:21Z</time>
      </trkpt>
      <trkpt lat="49.35404" lon="4.07566">
        <ele>137</ele>
        <time>2019-05-30T16:30:22Z</time>
      </trkpt>
      <trkpt lat="49.35399" lon="4.07563">
        <ele>136</ele>
        <time>2019-05-30T16:30:23Z</time>
      </trkpt>
      <trkpt lat="49.35395" lon="4.0756">
        <ele>136</ele>
        <time>2019-05-30T16:30:24Z</time>
      </trkpt>
      <trkpt lat="49.35391" lon="4.07557">
        <ele>136</ele>
        <time>2019-05-30T16:30:25Z</time>
      </trkpt>
      <trkpt lat="49.35387" lon="4.07554">
        <ele>136</ele>
        <time>2019-05-30T16:30:26Z</time>
      </trkpt>
      <trkpt lat="49.35382" lon="4.07551">
        <ele>136</ele>
        <time>2019-05-30T16:30:27Z</time>
      </trkpt>
      <trkpt lat="49.35378" lon="4.07548">
        <ele>137</ele>
        <time>2019-05-30T16:30:28Z</time>
      </trkpt>
      <trkpt lat="49.35374" lon="4.07544">
        <ele>137</ele>
        <time>2019-05-30T16:30:29Z</time>
      </trkpt>
      <trkpt lat="49.35369" lon="4.07541">
        <ele>137</ele>
        <time>2019-05-30T16:30:30Z</time>
      </trkpt>
      <trkpt lat="49.35365" lon="4.07537">
        <ele>136</ele>
        <time>2019-05-30T16:30:31Z</time>
      </trkpt>
      <trkpt lat="49.35361" lon="4.07533">
        <ele>136</ele>
        <time>2019-05-30T16:30:32Z</time>
      </trkpt>
      <trkpt lat="49.35357" lon="4.07529">
        <ele>136</ele>
        <time>2019-05-30T16:30:33Z</time>
      </trkpt>
      <trkpt lat="49.35352" lon="4.07525">
        <ele>136</ele>
        <time>2019-05-30T16:30:34Z</time>
      </trkpt>
      <trkpt lat="49.35348" lon="4.0752">
        <ele>136</ele>
        <time>2019-05-30T16:30:35Z</time>
      </trkpt>
      <trkpt lat="49.35344" lon="4.07516">
        <ele>136</ele>
        <time>2019-05-30T16:30:36Z</time>
      </trkpt>
      <trkpt lat="49.3534" lon="4.07511">
        <ele>136</ele>
        <time>2019-05-30T16:30:37Z</time>
      </trkpt>
      <trkpt lat="49.35336" lon="4.07506">
        <ele>136</ele>
        <time>2019-05-30T16:30:38Z</time>
      </trkpt>
      <trkpt lat="49.35332" lon="4.07501">
        <ele>136</ele>
        <time>2019-05-30T16:30:39Z</time>
      </trkpt>
      <trkpt lat="49.35328" lon="4.07496">
        <ele>136</ele>
        <time>2019-05-30T16:30:40Z</time>
      </trkpt>
      <trkpt lat="49.35324" lon="4.0749">
        <ele>136</ele>
        <time>2019-05-30T16:30:41Z</time>
      </trkpt>
      <trkpt lat="49.3532" lon="4.07485">
        <ele>136</ele>
        <time>2019-05-30T16:30:42Z</time>
      </trkpt>
      <trkpt lat="49.35316" lon="4.0748">
        <ele>136</ele>
        <time>2019-05-30T16:30:43Z</time>
      </trkpt>
      <trkpt lat="49.35311" lon="4.07476">
        <ele>136</ele>
        <time>2019-05-30T16:30:44Z</time>
      </trkpt>
      <trkpt lat="49.35308" lon="4.07471">
        <ele>137</ele>
        <time>2019-05-30T16:30:45Z</time>
      </trkpt>
      <trkpt lat="49.35304" lon="4.07466">
        <ele>137</ele>
        <time>2019-05-30T16:30:46Z</time>
      </trkpt>
      <trkpt lat="49.353" lon="4.07461">
        <ele>137</ele>
        <time>2019-05-30T16:30:47Z</time>
      </trkpt>
      <trkpt lat="49.35297" lon="4.07456">
        <ele>137</ele>
        <time>2019-05-30T16:30:48Z</time>
      </trkpt>
      <trkpt lat="49.35292" lon="4.07452">
        <ele>137</ele>
        <time>2019-05-30T16:30:49Z</time>
      </trkpt>
      <trkpt lat="49.35288" lon="4.07448">
        <ele>137</ele>
        <time>2019-05-30T16:30:50Z</time>
      </trkpt>
      <trkpt lat="49.35284" lon="4.07443">
        <ele>137</ele>
        <time>2019-05-30T16:30:51Z</time>
      </trkpt>
      <trkpt lat="49.3528" lon="4.07438">
        <ele>138</ele>
        <time>2019-05-30T16:30:52Z</time>
      </trkpt>
      <trkpt lat="49.35277" lon="4.07432">
        <ele>138</ele>
        <time>2019-05-30T16:30:53Z</time>
      </trkpt>
      <trkpt lat="49.35273" lon="4.07426">
        <ele>137</ele>
        <time>2019-05-30T16:30:54Z</time>
      </trkpt>
      <trkpt lat="49.35268" lon="4.07421">
        <ele>137</ele>
        <time>2019-05-30T16:30:55Z</time>
      </trkpt>
      <trkpt lat="49.35265" lon="4.07416">
        <ele>137</ele>
        <time>2019-05-30T16:30:56Z</time>
      </trkpt>
      <trkpt lat="49.35261" lon="4.0741">
        <ele>137</ele>
        <time>2019-05-30T16:30:57Z</time>
      </trkpt>
      <trkpt lat="49.35257" lon="4.07406">
        <ele>137</ele>
        <time>2019-05-30T16:30:58Z</time>
      </trkpt>
      <trkpt lat="49.35253" lon="4.07401">
        <ele>137</ele>
        <time>2019-05-30T16:30:59Z</time>
      </trkpt>
      <trkpt lat="49.35249" lon="4.07396">
        <ele>137</ele>
        <time>2019-05-30T16:31:00Z</time>
      </trkpt>
      <trkpt lat="49.35245" lon="4.07391">
        <ele>138</ele>
        <time>2019-05-30T16:31:01Z</time>
      </trkpt>
      <trkpt lat="49.35241" lon="4.07386">
        <ele>138</ele>
        <time>2019-05-30T16:31:02Z</time>
      </trkpt>
      <trkpt lat="49.35237" lon="4.07381">
        <ele>138</ele>
        <time>2019-05-30T16:31:03Z</time>
      </trkpt>
      <trkpt lat="49.35232" lon="4.07376">
        <ele>138</ele>
        <time>2019-05-30T16:31:04Z</time>
      </trkpt>
      <trkpt lat="49.35228" lon="4.07371">
        <ele>138</ele>
        <time>2019-05-30T16:31:05Z</time>
      </trkpt>
      <trkpt lat="49.35224" lon="4.07367">
        <ele>138</ele>
        <time>2019-05-30T16:31:06Z</time>
      </trkpt>
      <trkpt lat="49.3522" lon="4.07361">
        <ele>138</ele>
        <time>2019-05-30T16:31:07Z</time>
      </trkpt>
      <trkpt lat="49.35216" lon="4.07355">
        <ele>138</ele>
        <time>2019-05-30T16:31:08Z</time>
      </trkpt>
      <trkpt lat="49.35211" lon="4.0735">
        <ele>138</ele>
        <time>2019-05-30T16:31:09Z</time>
      </trkpt>
      <trkpt lat="49.35207" lon="4.07345">
        <ele>138</ele>
        <time>2019-05-30T16:31:10Z</time>
      </trkpt>
      <trkpt lat="49.35202" lon="4.0734">
        <ele>138</ele>
        <time>2019-05-30T16:31:11Z</time>
      </trkpt>
      <trkpt lat="49.35198" lon="4.07334">
        <ele>138</ele>
        <time>2019-05-30T16:31:12Z</time>
      </trkpt>
      <trkpt lat="49.35194" lon="4.07329">
        <ele>138</ele>
        <time>2019-05-30T16:31:13Z</time>
      </trkpt>
      <trkpt lat="49.35189" lon="4.07323">
        <ele>138</ele>
        <time>2019-05-30T16:31:14Z</time>
      </trkpt>
      <trkpt lat="49.35185" lon="4.07318">
        <ele>138</ele>
        <time>2019-05-30T16:31:15Z</time>
      </trkpt>
      <trkpt lat="49.3518" lon="4.07313">
        <ele>138</ele>
        <time>2019-05-30T16:31:16Z</time>
      </trkpt>
      <trkpt lat="49.35176" lon="4.07307">
        <ele>138</ele>
        <time>2019-05-30T16:31:17Z</time>
      </trkpt>
      <trkpt lat="49.35171" lon="4.07301">
        <ele>138</ele>
        <time>2019-05-30T16:31:18Z</time>
      </trkpt>
      <trkpt lat="49.35166" lon="4.07296">
        <ele>138</ele>
        <time>2019-05-30T16:31:19Z</time>
      </trkpt>
      <trkpt lat="49.35161" lon="4.07291">
        <ele>138</ele>
        <time>2019-05-30T16:31:20Z</time>
      </trkpt>
      <trkpt lat="49.35156" lon="4.07286">
        <ele>138</ele>
        <time>2019-05-30T16:31:21Z</time>
      </trkpt>
      <trkpt lat="49.35152" lon="4.07281">
        <ele>138</ele>
        <time>2019-05-30T16:31:22Z</time>
      </trkpt>
      <trkpt lat="49.35147" lon="4.07275">
        <ele>138</ele>
        <time>2019-05-30T16:31:23Z</time>
      </trkpt>
      <trkpt lat="49.35143" lon="4.0727">
        <ele>138</ele>
        <time>2019-05-30T16:31:24Z</time>
      </trkpt>
      <trkpt lat="49.3514" lon="4.07264">
        <ele>138</ele>
        <time>2019-05-30T16:31:25Z</time>
      </trkpt>
      <trkpt lat="49.35136" lon="4.07258">
        <ele>138</ele>
        <time>2019-05-30T16:31:26Z</time>
      </trkpt>
      <trkpt lat="49.35132" lon="4.07254">
        <ele>138</ele>
        <time>2019-05-30T16:31:27Z</time>
      </trkpt>
      <trkpt lat="49.35127" lon="4.07249">
        <ele>138</ele>
        <time>2019-05-30T16:31:28Z</time>
      </trkpt>
      <trkpt lat="49.35123" lon="4.07243">
        <ele>138</ele>
        <time>2019-05-30T16:31:29Z</time>
      </trkpt>
      <trkpt lat="49.35119" lon="4.07236">
        <ele>138</ele>
        <time>2019-05-30T16:31:30Z</time>
      </trkpt>
      <trkpt lat="49.35116" lon="4.07229">
        <ele>137</ele>
        <time>2019-05-30T16:31:31Z</time>
      </trkpt>
      <trkpt lat="49.35111" lon="4.07222">
        <ele>137</ele>
        <time>2019-05-30T16:31:32Z</time>
      </trkpt>
      <trkpt lat="49.35106" lon="4.07215">
        <ele>138</ele>
        <time>2019-05-30T16:31:33Z</time>
      </trkpt>
      <trkpt lat="49.35102" lon="4.07208">
        <ele>138</ele>
        <time>2019-05-30T16:31:34Z</time>
      </trkpt>
      <trkpt lat="49.35099" lon="4.07201">
        <ele>138</ele>
        <time>2019-05-30T16:31:35Z</time>
      </trkpt>
      <trkpt lat="49.35096" lon="4.07193">
        <ele>138</ele>
        <time>2019-05-30T16:31:36Z</time>
      </trkpt>
      <trkpt lat="49.35094" lon="4.07185">
        <ele>138</ele>
        <time>2019-05-30T16:31:37Z</time>
      </trkpt>
      <trkpt lat="49.35092" lon="4.07176">
        <ele>139</ele>
        <time>2019-05-30T16:31:38Z</time>
      </trkpt>
      <trkpt lat="49.35091" lon="4.07167">
        <ele>139</ele>
        <time>2019-05-30T16:31:39Z</time>
      </trkpt>
      <trkpt lat="49.35089" lon="4.07159">
        <ele>139</ele>
        <time>2019-05-30T16:31:40Z</time>
      </trkpt>
      <trkpt lat="49.35088" lon="4.0715">
        <ele>139</ele>
        <time>2019-05-30T16:31:41Z</time>
      </trkpt>
      <trkpt lat="49.35086" lon="4.07142">
        <ele>139</ele>
        <time>2019-05-30T16:31:42Z</time>
      </trkpt>
      <trkpt lat="49.35085" lon="4.07134">
        <ele>139</ele>
        <time>2019-05-30T16:31:43Z</time>
      </trkpt>
      <trkpt lat="49.35083" lon="4.07126">
        <ele>138</ele>
        <time>2019-05-30T16:31:44Z</time>
      </trkpt>
      <trkpt lat="49.35081" lon="4.07119">
        <ele>138</ele>
        <time>2019-05-30T16:31:45Z</time>
      </trkpt>
      <trkpt lat="49.3508" lon="4.07111">
        <ele>138</ele>
        <time>2019-05-30T16:31:46Z</time>
      </trkpt>
      <trkpt lat="49.35078" lon="4.07102">
        <ele>138</ele>
        <time>2019-05-30T16:31:47Z</time>
      </trkpt>
      <trkpt lat="49.35077" lon="4.07094">
        <ele>138</ele>
        <time>2019-05-30T16:31:48Z</time>
      </trkpt>
      <trkpt lat="49.35075" lon="4.07086">
        <ele>138</ele>
        <time>2019-05-30T16:31:49Z</time>
      </trkpt>
      <trkpt lat="49.35073" lon="4.07077">
        <ele>138</ele>
        <time>2019-05-30T16:31:50Z</time>
      </trkpt>
      <trkpt lat="49.35072" lon="4.07068">
        <ele>138</ele>
        <time>2019-05-30T16:31:51Z</time>
      </trkpt>
      <trkpt lat="49.3507" lon="4.0706">
        <ele>138</ele>
        <time>2019-05-30T16:31:52Z</time>
      </trkpt>
      <trkpt lat="49.35069" lon="4.07051">
        <ele>138</ele>
        <time>2019-05-30T16:31:53Z</time>
      </trkpt>
      <trkpt lat="49.35068" lon="4.07042">
        <ele>138</ele>
        <time>2019-05-30T16:31:54Z</time>
      </trkpt>
      <trkpt lat="49.35066" lon="4.07034">
        <ele>138</ele>
        <time>2019-05-30T16:31:55Z</time>
      </trkpt>
      <trkpt lat="49.35065" lon="4.07025">
        <ele>138</ele>
        <time>2019-05-30T16:31:56Z</time>
      </trkpt>
      <trkpt lat="49.35063" lon="4.07017">
        <ele>138</ele>
        <time>2019-05-30T16:31:57Z</time>
      </trkpt>
      <trkpt lat="49.35062" lon="4.07008">
        <ele>138</ele>
        <time>2019-05-30T16:31:58Z</time>
      </trkpt>
      <trkpt lat="49.3506" lon="4.07">
        <ele>138</ele>
        <time>2019-05-30T16:31:59Z</time>
      </trkpt>
      <trkpt lat="49.35059" lon="4.06992">
        <ele>138</ele>
        <time>2019-05-30T16:32:00Z</time>
      </trkpt>
      <trkpt lat="49.35057" lon="4.06984">
        <ele>138</ele>
        <time>2019-05-30T16:32:01Z</time>
      </trkpt>
      <trkpt lat="49.35056" lon="4.06976">
        <ele>138</ele>
        <time>2019-05-30T16:32:02Z</time>
      </trkpt>
      <trkpt lat="49.35054" lon="4.06968">
        <ele>139</ele>
        <time>2019-05-30T16:32:03Z</time>
      </trkpt>
      <trkpt lat="49.35053" lon="4.06961">
        <ele>139</ele>
        <time>2019-05-30T16:32:04Z</time>
      </trkpt>
      <trkpt lat="49.35051" lon="4.06952">
        <ele>139</ele>
        <time>2019-05-30T16:32:05Z</time>
      </trkpt>
      <trkpt lat="49.3505" lon="4.06944">
        <ele>139</ele>
        <time>2019-05-30T16:32:06Z</time>
      </trkpt>
      <trkpt lat="49.35048" lon="4.06935">
        <ele>138</ele>
        <time>2019-05-30T16:32:07Z</time>
      </trkpt>
      <trkpt lat="49.35046" lon="4.06927">
        <ele>138</ele>
        <time>2019-05-30T16:32:08Z</time>
      </trkpt>
      <trkpt lat="49.35044" lon="4.06918">
        <ele>138</ele>
        <time>2019-05-30T16:32:09Z</time>
      </trkpt>
      <trkpt lat="49.35042" lon="4.06909">
        <ele>138</ele>
        <time>2019-05-30T16:32:10Z</time>
      </trkpt>
      <trkpt lat="49.35041" lon="4.06901">
        <ele>137</ele>
        <time>2019-05-30T16:32:11Z</time>
      </trkpt>
      <trkpt lat="49.35038" lon="4.06892">
        <ele>137</ele>
        <time>2019-05-30T16:32:12Z</time>
      </trkpt>
      <trkpt lat="49.35036" lon="4.06884">
        <ele>137</ele>
        <time>2019-05-30T16:32:13Z</time>
      </trkpt>
      <trkpt lat="49.35035" lon="4.06877">
        <ele>137</ele>
        <time>2019-05-30T16:32:14Z</time>
      </trkpt>
      <trkpt lat="49.35033" lon="4.06869">
        <ele>137</ele>
        <time>2019-05-30T16:32:15Z</time>
      </trkpt>
      <trkpt lat="49.35032" lon="4.06861">
        <ele>137</ele>
        <time>2019-05-30T16:32:16Z</time>
      </trkpt>
      <trkpt lat="49.3503" lon="4.06853">
        <ele>137</ele>
        <time>2019-05-30T16:32:17Z</time>
      </trkpt>
      <trkpt lat="49.35028" lon="4.06845">
        <ele>137</ele>
        <time>2019-05-30T16:32:18Z</time>
      </trkpt>
      <trkpt lat="49.35027" lon="4.06837">
        <ele>138</ele>
        <time>2019-05-30T16:32:19Z</time>
      </trkpt>
      <trkpt lat="49.35025" lon="4.0683">
        <ele>138</ele>
        <time>2019-05-30T16:32:20Z</time>
      </trkpt>
      <trkpt lat="49.35023" lon="4.06822">
        <ele>138</ele>
        <time>2019-05-30T16:32:21Z</time>
      </trkpt>
      <trkpt lat="49.35021" lon="4.06814">
        <ele>139</ele>
        <time>2019-05-30T16:32:22Z</time>
      </trkpt>
      <trkpt lat="49.3502" lon="4.06807">
        <ele>139</ele>
        <time>2019-05-30T16:32:23Z</time>
      </trkpt>
      <trkpt lat="49.35018" lon="4.068">
        <ele>139</ele>
        <time>2019-05-30T16:32:24Z</time>
      </trkpt>
      <trkpt lat="49.35017" lon="4.06793">
        <ele>139</ele>
        <time>2019-05-30T16:32:25Z</time>
      </trkpt>
      <trkpt lat="49.35015" lon="4.06785">
        <ele>139</ele>
        <time>2019-05-30T16:32:26Z</time>
      </trkpt>
      <trkpt lat="49.35012" lon="4.06779">
        <ele>139</ele>
        <time>2019-05-30T16:32:27Z</time>
      </trkpt>
      <trkpt lat="49.35011" lon="4.06771">
        <ele>139</ele>
        <time>2019-05-30T16:32:28Z</time>
      </trkpt>
      <trkpt lat="49.35009" lon="4.06764">
        <ele>139</ele>
        <time>2019-05-30T16:32:29Z</time>
      </trkpt>
      <trkpt lat="49.35007" lon="4.06757">
        <ele>139</ele>
        <time>2019-05-30T16:32:30Z</time>
      </trkpt>
      <trkpt lat="49.35006" lon="4.06751">
        <ele>139</ele>
        <time>2019-05-30T16:32:31Z</time>
      </trkpt>
      <trkpt lat="49.35004" lon="4.06744">
        <ele>139</ele>
        <time>2019-05-30T16:32:32Z</time>
      </trkpt>
      <trkpt lat="49.35002" lon="4.06736">
        <ele>139</ele>
        <time>2019-05-30T16:32:33Z</time>
      </trkpt>
      <trkpt lat="49.35" lon="4.06729">
        <ele>139</ele>
        <time>2019-05-30T16:32:34Z</time>
      </trkpt>
      <trkpt lat="49.34999" lon="4.06722">
        <ele>139</ele>
        <time>2019-05-30T16:32:35Z</time>
      </trkpt>
      <trkpt lat="49.34997" lon="4.06715">
        <ele>139</ele>
        <time>2019-05-30T16:32:36Z</time>
      </trkpt>
      <trkpt lat="49.34996" lon="4.06708">
        <ele>139</ele>
        <time>2019-05-30T16:32:37Z</time>
      </trkpt>
      <trkpt lat="49.34994" lon="4.06701">
        <ele>139</ele>
        <time>2019-05-30T16:32:38Z</time>
      </trkpt>
      <trkpt lat="49.34993" lon="4.06693">
        <ele>139</ele>
        <time>2019-05-30T16:32:39Z</time>
      </trkpt>
      <trkpt lat="49.34991" lon="4.06686">
        <ele>139</ele>
        <time>2019-05-30T16:32:40Z</time>
      </trkpt>
      <trkpt lat="49.34989" lon="4.0668">
        <ele>139</ele>
        <time>2019-05-30T16:32:41Z</time>
      </trkpt>
      <trkpt lat="49.34988" lon="4.06672">
        <ele>139</ele>
        <time>2019-05-30T16:32:42Z</time>
      </trkpt>
      <trkpt lat="49.34987" lon="4.06665">
        <ele>139</ele>
        <time>2019-05-30T16:32:43Z</time>
      </trkpt>
      <trkpt lat="49.34985" lon="4.06658">
        <ele>139</ele>
        <time>2019-05-30T16:32:44Z</time>
      </trkpt>
      <trkpt lat="49.34983" lon="4.06651">
        <ele>139</ele>
        <time>2019-05-30T16:32:45Z</time>
      </trkpt>
      <trkpt lat="49.34981" lon="4.06645">
        <ele>139</ele>
        <time>2019-05-30T16:32:46Z</time>
      </trkpt>
      <trkpt lat="49.3498" lon="4.06638">
        <ele>139</ele>
        <time>2019-05-30T16:32:47Z</time>
      </trkpt>
      <trkpt lat="49.34978" lon="4.06631">
        <ele>139</ele>
        <time>2019-05-30T16:32:48Z</time>
      </trkpt>
      <trkpt lat="49.34977" lon="4.06624">
        <ele>139</ele>
        <time>2019-05-30T16:32:49Z</time>
      </trkpt>
      <trkpt lat="49.34975" lon="4.06617">
        <ele>139</ele>
        <time>2019-05-30T16:32:50Z</time>
      </trkpt>
      <trkpt lat="49.34973" lon="4.06611">
        <ele>139</ele>
        <time>2019-05-30T16:32:51Z</time>
      </trkpt>
      <trkpt lat="49.34971" lon="4.06604">
        <ele>139</ele>
        <time>2019-05-30T16:32:52Z</time>
      </trkpt>
      <trkpt lat="49.34969" lon="4.06598">
        <ele>139</ele>
        <time>2019-05-30T16:32:53Z</time>
      </trkpt>
      <trkpt lat="49.34968" lon="4.06591">
        <ele>139</ele>
        <time>2019-05-30T16:32:54Z</time>
      </trkpt>
      <trkpt lat="49.34966" lon="4.06585">
        <ele>139</ele>
        <time>2019-05-30T16:32:55Z</time>
      </trkpt>
      <trkpt lat="49.34964" lon="4.06578">
        <ele>140</ele>
        <time>2019-05-30T16:32:56Z</time>
      </trkpt>
      <trkpt lat="49.34962" lon="4.06572">
        <ele>140</ele>
        <time>2019-05-30T16:32:57Z</time>
      </trkpt>
      <trkpt lat="49.3496" lon="4.06565">
        <ele>140</ele>
        <time>2019-05-30T16:32:58Z</time>
      </trkpt>
      <trkpt lat="49.34959" lon="4.06559">
        <ele>140</ele>
        <time>2019-05-30T16:32:59Z</time>
      </trkpt>
      <trkpt lat="49.34956" lon="4.06553">
        <ele>140</ele>
        <time>2019-05-30T16:33:00Z</time>
      </trkpt>
      <trkpt lat="49.34954" lon="4.06549">
        <ele>140</ele>
        <time>2019-05-30T16:33:01Z</time>
      </trkpt>
      <trkpt lat="49.34951" lon="4.06544">
        <ele>140</ele>
        <time>2019-05-30T16:33:02Z</time>
      </trkpt>
      <trkpt lat="49.34947" lon="4.06541">
        <ele>140</ele>
        <time>2019-05-30T16:33:03Z</time>
      </trkpt>
      <trkpt lat="49.34944" lon="4.06538">
        <ele>140</ele>
        <time>2019-05-30T16:33:04Z</time>
      </trkpt>
      <trkpt lat="49.3494" lon="4.06535">
        <ele>140</ele>
        <time>2019-05-30T16:33:05Z</time>
      </trkpt>
      <trkpt lat="49.34936" lon="4.06534">
        <ele>141</ele>
        <time>2019-05-30T16:33:06Z</time>
      </trkpt>
      <trkpt lat="49.34932" lon="4.06533">
        <ele>141</ele>
        <time>2019-05-30T16:33:07Z</time>
      </trkpt>
      <trkpt lat="49.34927" lon="4.06531">
        <ele>141</ele>
        <time>2019-05-30T16:33:08Z</time>
      </trkpt>
      <trkpt lat="49.34923" lon="4.06531">
        <ele>141</ele>
        <time>2019-05-30T16:33:09Z</time>
      </trkpt>
      <trkpt lat="49.34918" lon="4.0653">
        <ele>142</ele>
        <time>2019-05-30T16:33:10Z</time>
      </trkpt>
      <trkpt lat="49.34914" lon="4.06529">
        <ele>142</ele>
        <time>2019-05-30T16:33:11Z</time>
      </trkpt>
      <trkpt lat="49.34909" lon="4.06528">
        <ele>141</ele>
        <time>2019-05-30T16:33:12Z</time>
      </trkpt>
      <trkpt lat="49.34904" lon="4.06527">
        <ele>142</ele>
        <time>2019-05-30T16:33:13Z</time>
      </trkpt>
      <trkpt lat="49.34899" lon="4.06528">
        <ele>142</ele>
        <time>2019-05-30T16:33:14Z</time>
      </trkpt>
      <trkpt lat="49.34895" lon="4.06531">
        <ele>143</ele>
        <time>2019-05-30T16:33:15Z</time>
      </trkpt>
      <trkpt lat="49.34891" lon="4.06535">
        <ele>143</ele>
        <time>2019-05-30T16:33:16Z</time>
      </trkpt>
      <trkpt lat="49.34887" lon="4.0654">
        <ele>142</ele>
        <time>2019-05-30T16:33:17Z</time>
      </trkpt>
      <trkpt lat="49.34884" lon="4.06546">
        <ele>142</ele>
        <time>2019-05-30T16:33:18Z</time>
      </trkpt>
      <trkpt lat="49.3488" lon="4.06551">
        <ele>142</ele>
        <time>2019-05-30T16:33:19Z</time>
      </trkpt>
      <trkpt lat="49.34877" lon="4.06557">
        <ele>142</ele>
        <time>2019-05-30T16:33:20Z</time>
      </trkpt>
      <trkpt lat="49.34875" lon="4.06564">
        <ele>141</ele>
        <time>2019-05-30T16:33:21Z</time>
      </trkpt>
      <trkpt lat="49.34872" lon="4.06569">
        <ele>141</ele>
        <time>2019-05-30T16:33:22Z</time>
      </trkpt>
      <trkpt lat="49.34869" lon="4.06574">
        <ele>141</ele>
        <time>2019-05-30T16:33:23Z</time>
      </trkpt>
      <trkpt lat="49.34865" lon="4.06579">
        <ele>141</ele>
        <time>2019-05-30T16:33:24Z</time>
      </trkpt>
      <trkpt lat="49.34862" lon="4.06584">
        <ele>141</ele>
        <time>2019-05-30T16:33:25Z</time>
      </trkpt>
      <trkpt lat="49.3486" lon="4.0659">
        <ele>142</ele>
        <time>2019-05-30T16:33:26Z</time>
      </trkpt>
      <trkpt lat="49.34858" lon="4.06596">
        <ele>141</ele>
        <time>2019-05-30T16:33:27Z</time>
      </trkpt>
      <trkpt lat="49.34856" lon="4.06602">
        <ele>141</ele>
        <time>2019-05-30T16:33:28Z</time>
      </trkpt>
      <trkpt lat="49.34854" lon="4.06607">
        <ele>141</ele>
        <time>2019-05-30T16:33:29Z</time>
      </trkpt>
      <trkpt lat="49.34851" lon="4.06611">
        <ele>141</ele>
        <time>2019-05-30T16:33:30Z</time>
      </trkpt>
      <trkpt lat="49.34848" lon="4.06613">
        <ele>141</ele>
        <time>2019-05-30T16:33:31Z</time>
      </trkpt>
      <trkpt lat="49.34845" lon="4.06614">
        <ele>142</ele>
        <time>2019-05-30T16:33:32Z</time>
      </trkpt>
      <trkpt lat="49.34843" lon="4.06614">
        <ele>142</ele>
        <time>2019-05-30T16:33:33Z</time>
      </trkpt>
      <trkpt lat="49.34841" lon="4.06614">
        <ele>142</ele>
        <time>2019-05-30T16:33:34Z</time>
      </trkpt>
      <trkpt lat="49.3484" lon="4.06615">
        <ele>142</ele>
        <time>2019-05-30T16:33:35Z</time>
      </trkpt>
      <trkpt lat="49.3484" lon="4.06616">
        <ele>142</ele>
        <time>2019-05-30T16:33:36Z</time>
      </trkpt>
      <trkpt lat="49.3484" lon="4.06616">
        <ele>142</ele>
        <time>2019-05-30T16:33:37Z</time>
      </trkpt>
      <trkpt lat="49.3484" lon="4.06616">
        <ele>143</ele>
        <time>2019-05-30T16:33:38Z</time>
      </trkpt>
      <trkpt lat="49.3484" lon="4.06616">
        <ele>143</ele>
        <time>2019-05-30T16:33:39Z</time>
      </trkpt>
      <trkpt lat="49.3484" lon="4.06616">
        <ele>143</ele>
        <time>2019-05-30T16:33:40Z</time>
      </trkpt>
      <trkpt lat="49.3484" lon="4.06616">
        <ele>143</ele>
        <time>2019-05-30T16:33:41Z</time>
      </trkpt>
      <trkpt lat="49.3484" lon="4.06616">
        <ele>143</ele>
        <time>2019-05-30T16:33:42Z</time>
      </trkpt>
      <trkpt lat="49.34839" lon="4.06616">
        <ele>143</ele>
        <time>2019-05-30T16:33:43Z</time>
      </trkpt>
      <trkpt lat="49.34839" lon="4.06617">
        <ele>143</ele>
        <time>2019-05-30T16:33:44Z</time>
      </trkpt>
      <trkpt lat="49.34838" lon="4.06616">
        <ele>143</ele>
        <time>2019-05-30T16:33:45Z</time>
      </trkpt>
      <trkpt lat="49.34837" lon="4.06617">
        <ele>143</ele>
        <time>2019-05-30T16:33:46Z</time>
      </trkpt>
      <trkpt lat="49.34837" lon="4.06617">
        <ele>143</ele>
        <time>2019-05-30T16:33:47Z</time>
      </trkpt>
      <trkpt lat="49.34837" lon="4.06617">
        <ele>143</ele>
        <time>2019-05-30T16:33:48Z</time>
      </trkpt>
      <trkpt lat="49.34837" lon="4.06619">
        <ele>143</ele>
        <time>2019-05-30T16:33:49Z</time>
      </trkpt>
      <trkpt lat="49.34836" lon="4.0662">
        <ele>143</ele>
        <time>2019-05-30T16:33:50Z</time>
      </trkpt>
      <trkpt lat="49.34836" lon="4.0662">
        <ele>143</ele>
        <time>2019-05-30T16:33:51Z</time>
      </trkpt>
      <trkpt lat="49.34836" lon="4.0662">
        <ele>143</ele>
        <time>2019-05-30T16:33:52Z</time>
      </trkpt>
      <trkpt lat="49.34836" lon="4.0662">
        <ele>143</ele>
        <time>2019-05-30T16:33:53Z</time>
      </trkpt>
      <trkpt lat="49.34836" lon="4.0662">
        <ele>143</ele>
        <time>2019-05-30T16:33:54Z</time>
      </trkpt>
      <trkpt lat="49.34836" lon="4.0662">
        <ele>143</ele>
        <time>2019-05-30T16:33:55Z</time>
      </trkpt>
      <trkpt lat="49.34836" lon="4.0662">
        <ele>143</ele>
        <time>2019-05-30T16:33:56Z</time>
      </trkpt>
      <trkpt lat="49.34836" lon="4.0662">
        <ele>143</ele>
        <time>2019-05-30T16:33:57Z</time>
      </trkpt>
      <trkpt lat="49.34836" lon="4.0662">
        <ele>143</ele>
        <time>2019-05-30T16:33:58Z</time>
      </trkpt>
      <trkpt lat="49.34836" lon="4.0662">
        <ele>143</ele>
        <time>2019-05-30T16:33:59Z</time>
      </trkpt>
      <trkpt lat="49.34836" lon="4.0662">
        <ele>143</ele>
        <time>2019-05-30T16:34:00Z</time>
      </trkpt>
      <trkpt lat="49.34836" lon="4.0662">
        <ele>143</ele>
        <time>2019-05-30T16:34:01Z</time>
      </trkpt>
      <trkpt lat="49.34836" lon="4.0662">
        <ele>143</ele>
        <time>2019-05-30T16:34:02Z</time>
      </trkpt>
      <trkpt lat="49.34836" lon="4.0662">
        <ele>143</ele>
        <time>2019-05-30T16:34:03Z</time>
      </trkpt>
      <trkpt lat="49.34836" lon="4.0662">
        <ele>143</ele>
        <time>2019-05-30T16:34:04Z</time>
      </trkpt>
      <trkpt lat="49.34836" lon="4.0662">
        <ele>143</ele>
        <time>2019-05-30T16:34:05Z</time>
      </trkpt>
      <trkpt lat="49.34836" lon="4.0662">
        <ele>143</ele>
        <time>2019-05-30T16:34:06Z</time>
      </trkpt>
      <trkpt lat="49.34836" lon="4.0662">
        <ele>143</ele>
        <time>2019-05-30T16:34:07Z</time>
      </trkpt>
      <trkpt lat="49.34836" lon="4.0662">
        <ele>143</ele>
        <time>2019-05-30T16:34:08Z</time>
      </trkpt>
      <trkpt lat="49.34836" lon="4.0662">
        <ele>143</ele>
        <time>2019-05-30T16:34:09Z</time>
      </trkpt>
      <trkpt lat="49.34836" lon="4.0662">
        <ele>143</ele>
        <time>2019-05-30T16:34:10Z</time>
      </trkpt>
      <trkpt lat="49.34836" lon="4.0662">
        <ele>143</ele>
        <time>2019-05-30T16:34:11Z</time>
      </trkpt>
      <trkpt lat="49.34836" lon="4.0662">
        <ele>143</ele>
        <time>2019-05-30T16:34:12Z</time>
      </trkpt>
      <trkpt lat="49.34836" lon="4.0662">
        <ele>143</ele>
        <time>2019-05-30T16:34:13Z</time>
      </trkpt>
      <trkpt lat="49.34836" lon="4.0662">
        <ele>143</ele>
        <time>2019-05-30T16:34:14Z</time>
      </trkpt>
      <trkpt lat="49.34836" lon="4.0662">
        <ele>143</ele>
        <time>2019-05-30T16:34:15Z</time>
      </trkpt>
      <trkpt lat="49.34836" lon="4.0662">
        <ele>143</ele>
        <time>2019-05-30T16:34:16Z</time>
      </trkpt>
      <trkpt lat="49.34836" lon="4.0662">
        <ele>143</ele>
        <time>2019-05-30T16:34:17Z</time>
      </trkpt>
      <trkpt lat="49.34836" lon="4.0662">
        <ele>143</ele>
        <time>2019-05-30T16:34:18Z</time>
      </trkpt>
      <trkpt lat="49.34836" lon="4.0662">
        <ele>143</ele>
        <time>2019-05-30T16:34:19Z</time>
      </trkpt>
      <trkpt lat="49.34836" lon="4.0662">
        <ele>143</ele>
        <time>2019-05-30T16:34:20Z</time>
      </trkpt>
      <trkpt lat="49.34836" lon="4.0662">
        <ele>143</ele>
        <time>2019-05-30T16:34:21Z</time>
      </trkpt>
      <trkpt lat="49.34836" lon="4.0662">
        <ele>143</ele>
        <time>2019-05-30T16:34:22Z</time>
      </trkpt>
      <trkpt lat="49.34836" lon="4.0662">
        <ele>143</ele>
        <time>2019-05-30T16:34:23Z</time>
      </trkpt>
      <trkpt lat="49.34836" lon="4.0662">
        <ele>143</ele>
        <time>2019-05-30T16:34:24Z</time>
      </trkpt>
      <trkpt lat="49.34836" lon="4.0662">
        <ele>143</ele>
        <time>2019-05-30T16:34:25Z</time>
      </trkpt>
      <trkpt lat="49.34836" lon="4.0662">
        <ele>143</ele>
        <time>2019-05-30T16:34:26Z</time>
      </trkpt>
      <trkpt lat="49.34836" lon="4.0662">
        <ele>143</ele>
        <time>2019-05-30T16:34:27Z</time>
      </trkpt>
      <trkpt lat="49.34836" lon="4.0662">
        <ele>143</ele>
        <time>2019-05-30T16:34:28Z</time>
      </trkpt>
      <trkpt lat="49.34836" lon="4.0662">
        <ele>143</ele>
        <time>2019-05-30T16:34:29Z</time>
      </trkpt>
      <trkpt lat="49.34836" lon="4.0662">
        <ele>143</ele>
        <time>2019-05-30T16:34:30Z</time>
      </trkpt>
      <trkpt lat="49.34836" lon="4.0662">
        <ele>143</ele>
        <time>2019-05-30T16:34:31Z</time>
      </trkpt>
      <trkpt lat="49.34836" lon="4.0662">
        <ele>143</ele>
        <time>2019-05-30T16:34:32Z</time>
      </trkpt>
      <trkpt lat="49.34836" lon="4.0662">
        <ele>143</ele>
        <time>2019-05-30T16:34:33Z</time>
      </trkpt>
      <trkpt lat="49.34836" lon="4.0662">
        <ele>143</ele>
        <time>2019-05-30T16:34:34Z</time>
      </trkpt>
      <trkpt lat="49.34836" lon="4.0662">
        <ele>143</ele>
        <time>2019-05-30T16:34:35Z</time>
      </trkpt>
      <trkpt lat="49.34836" lon="4.0662">
        <ele>143</ele>
        <time>2019-05-30T16:34:36Z</time>
      </trkpt>
      <trkpt lat="49.34836" lon="4.0662">
        <ele>143</ele>
        <time>2019-05-30T16:34:37Z</time>
      </trkpt>
      <trkpt lat="49.34836" lon="4.0662">
        <ele>143</ele>
        <time>2019-05-30T16:34:38Z</time>
      </trkpt>
      <trkpt lat="49.34836" lon="4.0662">
        <ele>143</ele>
        <time>2019-05-30T16:34:39Z</time>
      </trkpt>
      <trkpt lat="49.34836" lon="4.0662">
        <ele>143</ele>
        <time>2019-05-30T16:34:40Z</time>
      </trkpt>
      <trkpt lat="49.34836" lon="4.0662">
        <ele>143</ele>
        <time>2019-05-30T16:34:41Z</time>
      </trkpt>
      <trkpt lat="49.34836" lon="4.0662">
        <ele>143</ele>
        <time>2019-05-30T16:34:42Z</time>
      </trkpt>
      <trkpt lat="49.34836" lon="4.0662">
        <ele>143</ele>
        <time>2019-05-30T16:34:43Z</time>
      </trkpt>
      <trkpt lat="49.34836" lon="4.0662">
        <ele>143</ele>
        <time>2019-05-30T16:34:44Z</time>
      </trkpt>
      <trkpt lat="49.34836" lon="4.0662">
        <ele>143</ele>
        <time>2019-05-30T16:34:45Z</time>
      </trkpt>
      <trkpt lat="49.34836" lon="4.0662">
        <ele>143</ele>
        <time>2019-05-30T16:34:46Z</time>
      </trkpt>
      <trkpt lat="49.34836" lon="4.0662">
        <ele>143</ele>
        <time>2019-05-30T16:34:47Z</time>
      </trkpt>
      <trkpt lat="49.34836" lon="4.06619">
        <ele>142</ele>
        <time>2019-05-30T16:34:48Z</time>
      </trkpt>
      <trkpt lat="49.34836" lon="4.06619">
        <ele>142</ele>
        <time>2019-05-30T16:34:49Z</time>
      </trkpt>
      <trkpt lat="49.34836" lon="4.06619">
        <ele>142</ele>
        <time>2019-05-30T16:34:50Z</time>
      </trkpt>
      <trkpt lat="49.34836" lon="4.06619">
        <ele>142</ele>
        <time>2019-05-30T16:34:51Z</time>
      </trkpt>
      <trkpt lat="49.34836" lon="4.06619">
        <ele>142</ele>
        <time>2019-05-30T16:34:52Z</time>
      </trkpt>
      <trkpt lat="49.34836" lon="4.06619">
        <ele>142</ele>
        <time>2019-05-30T16:34:53Z</time>
      </trkpt>
    </trkseg>
  </trk>
</gpx>